<?xml version='1.0' encoding='UTF-8'?><gpx version="1.1" creator="JPX - https://github.com/jenetics/jpx" xmlns="http://www.topografix.com/GPX/1/1"><trk><trkseg><trkpt lat="37.0229985" lon="15.0796065"><ele>351.0</ele><time>2026-04-06T13:54:05.475Z</time></trkpt><trkpt lat="37.0229585" lon="15.0796816"><ele>351.0</ele><time>2026-04-06T13:54:09.603Z</time></trkpt><trkpt lat="37.0229441" lon="15.0797802"><ele>351.0</ele><time>2026-04-06T13:54:37.476Z</time></trkpt><trkpt lat="37.0229099" lon="15.0798765"><ele>351.0</ele><time>2026-04-06T13:54:38.475Z</time></trkpt><trkpt lat="37.0228749" lon="15.0800027"><ele>351.0</ele><time>2026-04-06T13:54:39.476Z</time></trkpt><trkpt lat="37.0228311" lon="15.0801406"><ele>352.5</ele><time>2026-04-06T13:54:40.475Z</time></trkpt><trkpt lat="37.0227737" lon="15.080289"><ele>354.0</ele><time>2026-04-06T13:54:41.476Z</time></trkpt><trkpt lat="37.0227257" lon="15.0804432"><ele>355.5</ele><time>2026-04-06T13:54:42.475Z</time></trkpt><trkpt lat="37.0226883" lon="15.0806041"><ele>357.0</ele><time>2026-04-06T13:54:43.475Z</time></trkpt><trkpt lat="37.0226479" lon="15.0807639"><ele>357.75</ele><time>2026-04-06T13:54:44.475Z</time></trkpt><trkpt lat="37.0226009" lon="15.0809263"><ele>358.5</ele><time>2026-04-06T13:54:45.475Z</time></trkpt><trkpt lat="37.0225539" lon="15.0810893"><ele>359.25</ele><time>2026-04-06T13:54:46.475Z</time></trkpt><trkpt lat="37.0225029" lon="15.0812576"><ele>360.0</ele><time>2026-04-06T13:54:47.475Z</time></trkpt><trkpt lat="37.0224512" lon="15.0814273"><ele>359.0</ele><time>2026-04-06T13:54:48.475Z</time></trkpt><trkpt lat="37.0223882" lon="15.0815917"><ele>358.0</ele><time>2026-04-06T13:54:49.475Z</time></trkpt><trkpt lat="37.0223248" lon="15.0817569"><ele>357.0</ele><time>2026-04-06T13:54:50.475Z</time></trkpt><trkpt lat="37.0222656" lon="15.0819285"><ele>356.0</ele><time>2026-04-06T13:54:51.476Z</time></trkpt><trkpt lat="37.0222074" lon="15.0820951"><ele>356.0</ele><time>2026-04-06T13:54:52.475Z</time></trkpt><trkpt lat="37.0221447" lon="15.0822597"><ele>356.0</ele><time>2026-04-06T13:54:53.475Z</time></trkpt><trkpt lat="37.0220871" lon="15.0824194"><ele>356.0</ele><time>2026-04-06T13:54:54.475Z</time></trkpt><trkpt lat="37.02203" lon="15.0825785"><ele>356.0</ele><time>2026-04-06T13:54:55.475Z</time></trkpt><trkpt lat="37.0219706" lon="15.0827386"><ele>356.25</ele><time>2026-04-06T13:54:56.475Z</time></trkpt><trkpt lat="37.0219154" lon="15.0828964"><ele>356.5</ele><time>2026-04-06T13:54:57.476Z</time></trkpt><trkpt lat="37.021864" lon="15.0830397"><ele>356.75</ele><time>2026-04-06T13:54:58.475Z</time></trkpt><trkpt lat="37.0218144" lon="15.083182"><ele>357.0</ele><time>2026-04-06T13:54:59.475Z</time></trkpt><trkpt lat="37.0217683" lon="15.0833254"><ele>357.0</ele><time>2026-04-06T13:55:00.476Z</time></trkpt><trkpt lat="37.0217196" lon="15.0834744"><ele>357.0</ele><time>2026-04-06T13:55:01.475Z</time></trkpt><trkpt lat="37.0216682" lon="15.0836368"><ele>357.0</ele><time>2026-04-06T13:55:02.475Z</time></trkpt><trkpt lat="37.0216066" lon="15.0838171"><ele>357.0</ele><time>2026-04-06T13:55:03.476Z</time></trkpt><trkpt lat="37.0215305" lon="15.0840087"><ele>354.6666666666667</ele><time>2026-04-06T13:55:04.476Z</time></trkpt><trkpt lat="37.0214491" lon="15.0842073"><ele>352.33333333333337</ele><time>2026-04-06T13:55:05.475Z</time></trkpt><trkpt lat="37.0213694" lon="15.0844032"><ele>350.0</ele><time>2026-04-06T13:55:06.483Z</time></trkpt><trkpt lat="37.0212791" lon="15.0845935"><ele>350.0</ele><time>2026-04-06T13:55:07.482Z</time></trkpt><trkpt lat="37.0211832" lon="15.0847785"><ele>350.0</ele><time>2026-04-06T13:55:08.483Z</time></trkpt><trkpt lat="37.0210884" lon="15.0849684"><ele>350.0</ele><time>2026-04-06T13:55:09.483Z</time></trkpt><trkpt lat="37.0209942" lon="15.0851553"><ele>350.0</ele><time>2026-04-06T13:55:10.482Z</time></trkpt><trkpt lat="37.0209043" lon="15.0853445"><ele>350.0</ele><time>2026-04-06T13:55:11.483Z</time></trkpt><trkpt lat="37.0208169" lon="15.0855328"><ele>350.0</ele><time>2026-04-06T13:55:12.483Z</time></trkpt><trkpt lat="37.0207267" lon="15.085713"><ele>348.0</ele><time>2026-04-06T13:55:13.482Z</time></trkpt><trkpt lat="37.020635" lon="15.0858888"><ele>346.0</ele><time>2026-04-06T13:55:14.482Z</time></trkpt><trkpt lat="37.0205424" lon="15.0860646"><ele>344.0</ele><time>2026-04-06T13:55:15.482Z</time></trkpt><trkpt lat="37.0204485" lon="15.0862413"><ele>344.0</ele><time>2026-04-06T13:55:16.482Z</time></trkpt><trkpt lat="37.0203578" lon="15.0864155"><ele>344.0</ele><time>2026-04-06T13:55:17.482Z</time></trkpt><trkpt lat="37.0202647" lon="15.0865961"><ele>344.0</ele><time>2026-04-06T13:55:18.483Z</time></trkpt><trkpt lat="37.0201772" lon="15.0867832"><ele>344.33333333333337</ele><time>2026-04-06T13:55:19.483Z</time></trkpt><trkpt lat="37.0200772" lon="15.0869718"><ele>344.6666666666667</ele><time>2026-04-06T13:55:20.482Z</time></trkpt><trkpt lat="37.0199808" lon="15.0871655"><ele>345.0</ele><time>2026-04-06T13:55:21.482Z</time></trkpt><trkpt lat="37.0198808" lon="15.0873584"><ele>343.3333333333333</ele><time>2026-04-06T13:55:22.482Z</time></trkpt><trkpt lat="37.019779" lon="15.0875529"><ele>341.66666666666663</ele><time>2026-04-06T13:55:23.482Z</time></trkpt><trkpt lat="37.0196726" lon="15.0877549"><ele>340.0</ele><time>2026-04-06T13:55:24.482Z</time></trkpt><trkpt lat="37.0195707" lon="15.0879645"><ele>340.0</ele><time>2026-04-06T13:55:25.482Z</time></trkpt><trkpt lat="37.0194617" lon="15.0881803"><ele>340.0</ele><time>2026-04-06T13:55:26.482Z</time></trkpt><trkpt lat="37.0193561" lon="15.0883952"><ele>340.0</ele><time>2026-04-06T13:55:27.482Z</time></trkpt><trkpt lat="37.0192529" lon="15.0886144"><ele>339.0</ele><time>2026-04-06T13:55:28.483Z</time></trkpt><trkpt lat="37.0191498" lon="15.0888312"><ele>338.0</ele><time>2026-04-06T13:55:29.482Z</time></trkpt><trkpt lat="37.0190414" lon="15.0890479"><ele>337.0</ele><time>2026-04-06T13:55:30.483Z</time></trkpt><trkpt lat="37.0189296" lon="15.0892631"><ele>337.0</ele><time>2026-04-06T13:55:31.482Z</time></trkpt><trkpt lat="37.0188249" lon="15.0894786"><ele>337.0</ele><time>2026-04-06T13:55:32.482Z</time></trkpt><trkpt lat="37.0187192" lon="15.0896913"><ele>337.0</ele><time>2026-04-06T13:55:33.482Z</time></trkpt><trkpt lat="37.0186159" lon="15.0899005"><ele>337.66666666666663</ele><time>2026-04-06T13:55:34.482Z</time></trkpt><trkpt lat="37.0185083" lon="15.0901034"><ele>338.3333333333333</ele><time>2026-04-06T13:55:35.482Z</time></trkpt><trkpt lat="37.0183924" lon="15.0903036"><ele>339.0</ele><time>2026-04-06T13:55:36.482Z</time></trkpt><trkpt lat="37.0182703" lon="15.0904983"><ele>337.0</ele><time>2026-04-06T13:55:37.482Z</time></trkpt><trkpt lat="37.0181501" lon="15.090694"><ele>335.0</ele><time>2026-04-06T13:55:38.482Z</time></trkpt><trkpt lat="37.0180313" lon="15.0908991"><ele>333.0</ele><time>2026-04-06T13:55:39.483Z</time></trkpt><trkpt lat="37.0179204" lon="15.0911173"><ele>333.0</ele><time>2026-04-06T13:55:40.482Z</time></trkpt><trkpt lat="37.0178126" lon="15.0913433"><ele>333.0</ele><time>2026-04-06T13:55:41.482Z</time></trkpt><trkpt lat="37.0177144" lon="15.0915793"><ele>333.0</ele><time>2026-04-06T13:55:42.483Z</time></trkpt><trkpt lat="37.0176092" lon="15.0918162"><ele>333.0</ele><time>2026-04-06T13:55:43.483Z</time></trkpt><trkpt lat="37.0175003" lon="15.0920581"><ele>333.0</ele><time>2026-04-06T13:55:44.482Z</time></trkpt><trkpt lat="37.0173935" lon="15.0923013"><ele>333.0</ele><time>2026-04-06T13:55:45.482Z</time></trkpt><trkpt lat="37.0172815" lon="15.0925439"><ele>329.3333333333333</ele><time>2026-04-06T13:55:46.482Z</time></trkpt><trkpt lat="37.0171729" lon="15.0927864"><ele>325.66666666666663</ele><time>2026-04-06T13:55:47.482Z</time></trkpt><trkpt lat="37.0170658" lon="15.0930224"><ele>322.0</ele><time>2026-04-06T13:55:48.483Z</time></trkpt><trkpt lat="37.0169577" lon="15.0932604"><ele>322.0</ele><time>2026-04-06T13:55:49.482Z</time></trkpt><trkpt lat="37.016851" lon="15.093495"><ele>322.0</ele><time>2026-04-06T13:55:50.482Z</time></trkpt><trkpt lat="37.0167429" lon="15.0937308"><ele>322.0</ele><time>2026-04-06T13:55:51.482Z</time></trkpt><trkpt lat="37.0166279" lon="15.0939503"><ele>320.3333333333333</ele><time>2026-04-06T13:55:52.483Z</time></trkpt><trkpt lat="37.0165122" lon="15.0941572"><ele>318.6666666666667</ele><time>2026-04-06T13:55:53.482Z</time></trkpt><trkpt lat="37.0163956" lon="15.0943582"><ele>317.0</ele><time>2026-04-06T13:55:54.483Z</time></trkpt><trkpt lat="37.0162948" lon="15.0945414"><ele>317.0</ele><time>2026-04-06T13:55:55.482Z</time></trkpt><trkpt lat="37.0162199" lon="15.0947209"><ele>317.0</ele><time>2026-04-06T13:55:56.482Z</time></trkpt><trkpt lat="37.0161766" lon="15.0949101"><ele>317.0</ele><time>2026-04-06T13:55:57.482Z</time></trkpt><trkpt lat="37.0161703" lon="15.0950904"><ele>319.25</ele><time>2026-04-06T13:55:58.482Z</time></trkpt><trkpt lat="37.0161825" lon="15.0952697"><ele>321.5</ele><time>2026-04-06T13:55:59.482Z</time></trkpt><trkpt lat="37.0162227" lon="15.0954402"><ele>323.75</ele><time>2026-04-06T13:56:00.483Z</time></trkpt><trkpt lat="37.0163023" lon="15.0955975"><ele>326.0</ele><time>2026-04-06T13:56:01.482Z</time></trkpt><trkpt lat="37.0164185" lon="15.0957262"><ele>325.6666666666667</ele><time>2026-04-06T13:56:02.482Z</time></trkpt><trkpt lat="37.0165679" lon="15.0958418"><ele>325.3333333333333</ele><time>2026-04-06T13:56:03.482Z</time></trkpt><trkpt lat="37.0167311" lon="15.0959577"><ele>325.0</ele><time>2026-04-06T13:56:04.482Z</time></trkpt><trkpt lat="37.0168999" lon="15.0960573"><ele>324.3333333333333</ele><time>2026-04-06T13:56:05.482Z</time></trkpt><trkpt lat="37.0170623" lon="15.0961628"><ele>323.6666666666667</ele><time>2026-04-06T13:56:06.482Z</time></trkpt><trkpt lat="37.0172106" lon="15.0962914"><ele>323.0</ele><time>2026-04-06T13:56:07.482Z</time></trkpt><trkpt lat="37.0173459" lon="15.0964678"><ele>322.33333333333337</ele><time>2026-04-06T13:56:08.482Z</time></trkpt><trkpt lat="37.0174744" lon="15.0966675"><ele>321.6666666666667</ele><time>2026-04-06T13:56:09.482Z</time></trkpt><trkpt lat="37.0176021" lon="15.096869"><ele>321.0</ele><time>2026-04-06T13:56:10.482Z</time></trkpt><trkpt lat="37.017725" lon="15.0970839"><ele>320.6666666666667</ele><time>2026-04-06T13:56:11.482Z</time></trkpt><trkpt lat="37.0178347" lon="15.0973202"><ele>320.33333333333337</ele><time>2026-04-06T13:56:12.482Z</time></trkpt><trkpt lat="37.0179297" lon="15.0975717"><ele>320.0</ele><time>2026-04-06T13:56:13.482Z</time></trkpt><trkpt lat="37.018016" lon="15.0978341"><ele>317.5</ele><time>2026-04-06T13:56:14.482Z</time></trkpt><trkpt lat="37.0180996" lon="15.0980976"><ele>315.0</ele><time>2026-04-06T13:56:15.482Z</time></trkpt><trkpt lat="37.0181801" lon="15.0983591"><ele>313.0</ele><time>2026-04-06T13:56:16.482Z</time></trkpt><trkpt lat="37.0182597" lon="15.0986186"><ele>311.0</ele><time>2026-04-06T13:56:17.482Z</time></trkpt><trkpt lat="37.0183252" lon="15.0988923"><ele>310.0</ele><time>2026-04-06T13:56:18.482Z</time></trkpt><trkpt lat="37.0183692" lon="15.0991713"><ele>309.0</ele><time>2026-04-06T13:56:19.482Z</time></trkpt><trkpt lat="37.0183986" lon="15.0994326"><ele>308.0</ele><time>2026-04-06T13:56:20.482Z</time></trkpt><trkpt lat="37.0184137" lon="15.0996706"><ele>308.0</ele><time>2026-04-06T13:56:21.482Z</time></trkpt><trkpt lat="37.0184018" lon="15.0998813"><ele>308.0</ele><time>2026-04-06T13:56:22.482Z</time></trkpt><trkpt lat="37.0183551" lon="15.1000755"><ele>308.0</ele><time>2026-04-06T13:56:23.482Z</time></trkpt><trkpt lat="37.0182768" lon="15.1002711"><ele>306.6666666666667</ele><time>2026-04-06T13:56:24.482Z</time></trkpt><trkpt lat="37.0181647" lon="15.1004757"><ele>305.3333333333333</ele><time>2026-04-06T13:56:25.482Z</time></trkpt><trkpt lat="37.0180387" lon="15.1006782"><ele>304.0</ele><time>2026-04-06T13:56:26.482Z</time></trkpt><trkpt lat="37.017904" lon="15.1008912"><ele>301.0</ele><time>2026-04-06T13:56:27.483Z</time></trkpt><trkpt lat="37.0177639" lon="15.1011082"><ele>298.0</ele><time>2026-04-06T13:56:28.483Z</time></trkpt><trkpt lat="37.0176202" lon="15.1013282"><ele>298.0</ele><time>2026-04-06T13:56:29.482Z</time></trkpt><trkpt lat="37.0174917" lon="15.1015398"><ele>298.0</ele><time>2026-04-06T13:56:30.482Z</time></trkpt><trkpt lat="37.0173773" lon="15.1017438"><ele>298.0</ele><time>2026-04-06T13:56:31.482Z</time></trkpt><trkpt lat="37.0172812" lon="15.1019407"><ele>296.66666666666663</ele><time>2026-04-06T13:56:32.483Z</time></trkpt><trkpt lat="37.0172225" lon="15.1021365"><ele>295.3333333333333</ele><time>2026-04-06T13:56:33.482Z</time></trkpt><trkpt lat="37.0172029" lon="15.1023456"><ele>294.0</ele><time>2026-04-06T13:56:34.483Z</time></trkpt><trkpt lat="37.0172015" lon="15.1025764"><ele>290.6666666666667</ele><time>2026-04-06T13:56:35.482Z</time></trkpt><trkpt lat="37.0172115" lon="15.1028197"><ele>287.33333333333337</ele><time>2026-04-06T13:56:36.483Z</time></trkpt><trkpt lat="37.0172167" lon="15.1030586"><ele>284.0</ele><time>2026-04-06T13:56:37.482Z</time></trkpt><trkpt lat="37.0172199" lon="15.1032775"><ele>282.5</ele><time>2026-04-06T13:56:38.482Z</time></trkpt><trkpt lat="37.0172242" lon="15.1034683"><ele>281.0</ele><time>2026-04-06T13:56:39.482Z</time></trkpt><trkpt lat="37.0172255" lon="15.1036277"><ele>279.5</ele><time>2026-04-06T13:56:40.483Z</time></trkpt><trkpt lat="37.0172279" lon="15.1037742"><ele>278.0</ele><time>2026-04-06T13:56:41.482Z</time></trkpt><trkpt lat="37.0172276" lon="15.1039123"><ele>278.0</ele><time>2026-04-06T13:56:42.483Z</time></trkpt><trkpt lat="37.0172309" lon="15.104044"><ele>278.0</ele><time>2026-04-06T13:56:43.482Z</time></trkpt><trkpt lat="37.017232" lon="15.1041717"><ele>278.0</ele><time>2026-04-06T13:56:44.482Z</time></trkpt><trkpt lat="37.0172453" lon="15.1043045"><ele>278.0</ele><time>2026-04-06T13:56:45.483Z</time></trkpt><trkpt lat="37.0172568" lon="15.1044377"><ele>278.0</ele><time>2026-04-06T13:56:46.482Z</time></trkpt><trkpt lat="37.0172714" lon="15.1045606"><ele>276.5</ele><time>2026-04-06T13:56:47.482Z</time></trkpt><trkpt lat="37.0172923" lon="15.1046863"><ele>275.0</ele><time>2026-04-06T13:56:48.482Z</time></trkpt><trkpt lat="37.0173195" lon="15.1048451"><ele>273.5</ele><time>2026-04-06T13:56:49.483Z</time></trkpt><trkpt lat="37.0173587" lon="15.1050499"><ele>272.0</ele><time>2026-04-06T13:56:50.483Z</time></trkpt><trkpt lat="37.0173872" lon="15.1052825"><ele>270.33333333333337</ele><time>2026-04-06T13:56:51.482Z</time></trkpt><trkpt lat="37.0174218" lon="15.1055409"><ele>268.6666666666667</ele><time>2026-04-06T13:56:52.482Z</time></trkpt><trkpt lat="37.0174689" lon="15.105823"><ele>267.0</ele><time>2026-04-06T13:56:53.483Z</time></trkpt><trkpt lat="37.0175161" lon="15.1061151"><ele>265.0</ele><time>2026-04-06T13:56:54.482Z</time></trkpt><trkpt lat="37.0175613" lon="15.1063977"><ele>263.0</ele><time>2026-04-06T13:56:55.482Z</time></trkpt><trkpt lat="37.0175998" lon="15.1066657"><ele>261.0</ele><time>2026-04-06T13:56:56.482Z</time></trkpt><trkpt lat="37.0176302" lon="15.1069281"><ele>260.3333333333333</ele><time>2026-04-06T13:56:57.482Z</time></trkpt><trkpt lat="37.017636" lon="15.1072093"><ele>259.66666666666663</ele><time>2026-04-06T13:56:58.482Z</time></trkpt><trkpt lat="37.0176308" lon="15.1074812"><ele>259.0</ele><time>2026-04-06T13:56:59.483Z</time></trkpt><trkpt lat="37.0176249" lon="15.1077204"><ele>258.5</ele><time>2026-04-06T13:57:00.482Z</time></trkpt><trkpt lat="37.0176328" lon="15.1079181"><ele>258.0</ele><time>2026-04-06T13:57:01.482Z</time></trkpt><trkpt lat="37.0176555" lon="15.1080763"><ele>257.5</ele><time>2026-04-06T13:57:02.482Z</time></trkpt><trkpt lat="37.0177047" lon="15.1082086"><ele>257.0</ele><time>2026-04-06T13:57:03.482Z</time></trkpt><trkpt lat="37.0177878" lon="15.10831"><ele>256.5</ele><time>2026-04-06T13:57:04.483Z</time></trkpt><trkpt lat="37.0178864" lon="15.1083878"><ele>256.0</ele><time>2026-04-06T13:57:05.482Z</time></trkpt><trkpt lat="37.0180032" lon="15.1084539"><ele>255.5</ele><time>2026-04-06T13:57:06.482Z</time></trkpt><trkpt lat="37.0181559" lon="15.1085083"><ele>255.0</ele><time>2026-04-06T13:57:07.482Z</time></trkpt><trkpt lat="37.0183299" lon="15.1085589"><ele>253.66666666666669</ele><time>2026-04-06T13:57:08.482Z</time></trkpt><trkpt lat="37.0185116" lon="15.1086198"><ele>252.33333333333334</ele><time>2026-04-06T13:57:09.482Z</time></trkpt><trkpt lat="37.0186845" lon="15.1086848"><ele>251.0</ele><time>2026-04-06T13:57:10.482Z</time></trkpt><trkpt lat="37.018848" lon="15.1087349"><ele>251.0</ele><time>2026-04-06T13:57:11.483Z</time></trkpt><trkpt lat="37.0190028" lon="15.1087795"><ele>251.0</ele><time>2026-04-06T13:57:12.482Z</time></trkpt><trkpt lat="37.0191394" lon="15.1088186"><ele>251.0</ele><time>2026-04-06T13:57:13.482Z</time></trkpt><trkpt lat="37.0192435" lon="15.108853"><ele>251.0</ele><time>2026-04-06T13:57:14.482Z</time></trkpt><trkpt lat="37.0193245" lon="15.1088735"><ele>250.33333333333334</ele><time>2026-04-06T13:57:15.482Z</time></trkpt><trkpt lat="37.0193931" lon="15.1088678"><ele>249.66666666666669</ele><time>2026-04-06T13:57:16.482Z</time></trkpt><trkpt lat="37.0194602" lon="15.1088232"><ele>249.0</ele><time>2026-04-06T13:57:17.482Z</time></trkpt><trkpt lat="37.0195507" lon="15.1087499"><ele>248.33333333333331</ele><time>2026-04-06T13:57:18.482Z</time></trkpt><trkpt lat="37.0196368" lon="15.1086761"><ele>247.66666666666666</ele><time>2026-04-06T13:57:19.483Z</time></trkpt><trkpt lat="37.0197052" lon="15.1086458"><ele>247.0</ele><time>2026-04-06T13:57:20.482Z</time></trkpt><trkpt lat="37.0197765" lon="15.1087095"><ele>247.0</ele><time>2026-04-06T13:57:22.482Z</time></trkpt><trkpt lat="37.0197979" lon="15.1088105"><ele>247.0</ele><time>2026-04-06T13:57:23.482Z</time></trkpt><trkpt lat="37.0198154" lon="15.1089451"><ele>247.0</ele><time>2026-04-06T13:57:24.483Z</time></trkpt><trkpt lat="37.0198437" lon="15.1090882"><ele>247.0</ele><time>2026-04-06T13:57:25.483Z</time></trkpt><trkpt lat="37.0198805" lon="15.1092228"><ele>247.0</ele><time>2026-04-06T13:57:26.482Z</time></trkpt><trkpt lat="37.0199044" lon="15.1093505"><ele>246.66666666666666</ele><time>2026-04-06T13:57:27.483Z</time></trkpt><trkpt lat="37.0199278" lon="15.1094549"><ele>246.33333333333331</ele><time>2026-04-06T13:57:28.482Z</time></trkpt><trkpt lat="37.0199432" lon="15.1095452"><ele>246.0</ele><time>2026-04-06T13:57:29.483Z</time></trkpt><trkpt lat="37.0199613" lon="15.1096227"><ele>245.66666666666669</ele><time>2026-04-06T13:57:30.482Z</time></trkpt><trkpt lat="37.0199832" lon="15.1096973"><ele>245.33333333333334</ele><time>2026-04-06T13:57:31.482Z</time></trkpt><trkpt lat="37.0200006" lon="15.109788"><ele>245.0</ele><time>2026-04-06T13:57:32.482Z</time></trkpt><trkpt lat="37.0200113" lon="15.1099188"><ele>244.66666666666669</ele><time>2026-04-06T13:57:33.483Z</time></trkpt><trkpt lat="37.0200187" lon="15.1100903"><ele>244.33333333333331</ele><time>2026-04-06T13:57:34.483Z</time></trkpt><trkpt lat="37.0200274" lon="15.1103124"><ele>244.0</ele><time>2026-04-06T13:57:35.482Z</time></trkpt><trkpt lat="37.0200401" lon="15.1105847"><ele>244.0</ele><time>2026-04-06T13:57:36.482Z</time></trkpt><trkpt lat="37.0200667" lon="15.1108805"><ele>244.0</ele><time>2026-04-06T13:57:37.483Z</time></trkpt><trkpt lat="37.0200994" lon="15.1111994"><ele>244.0</ele><time>2026-04-06T13:57:38.482Z</time></trkpt><trkpt lat="37.0201496" lon="15.1115378"><ele>244.0</ele><time>2026-04-06T13:57:39.482Z</time></trkpt><trkpt lat="37.0202012" lon="15.111893"><ele>242.5</ele><time>2026-04-06T13:57:40.482Z</time></trkpt><trkpt lat="37.0202533" lon="15.1122592"><ele>241.0</ele><time>2026-04-06T13:57:41.482Z</time></trkpt><trkpt lat="37.0203163" lon="15.1126404"><ele>240.5</ele><time>2026-04-06T13:57:42.482Z</time></trkpt><trkpt lat="37.0203758" lon="15.1130249"><ele>240.0</ele><time>2026-04-06T13:57:43.482Z</time></trkpt><trkpt lat="37.020435" lon="15.1134042"><ele>240.0</ele><time>2026-04-06T13:57:44.483Z</time></trkpt><trkpt lat="37.0204889" lon="15.1137761"><ele>240.0</ele><time>2026-04-06T13:57:45.482Z</time></trkpt><trkpt lat="37.0205481" lon="15.1141409"><ele>239.0</ele><time>2026-04-06T13:57:46.482Z</time></trkpt><trkpt lat="37.0206059" lon="15.1145011"><ele>238.0</ele><time>2026-04-06T13:57:47.483Z</time></trkpt><trkpt lat="37.0206603" lon="15.1148632"><ele>237.0</ele><time>2026-04-06T13:57:48.482Z</time></trkpt><trkpt lat="37.0207156" lon="15.1152213"><ele>236.0</ele><time>2026-04-06T13:57:49.482Z</time></trkpt><trkpt lat="37.0207727" lon="15.1155762"><ele>235.5</ele><time>2026-04-06T13:57:50.482Z</time></trkpt><trkpt lat="37.020828" lon="15.1159297"><ele>235.0</ele><time>2026-04-06T13:57:51.482Z</time></trkpt><trkpt lat="37.0208786" lon="15.116276"><ele>235.0</ele><time>2026-04-06T13:57:52.482Z</time></trkpt><trkpt lat="37.0209294" lon="15.1166247"><ele>235.0</ele><time>2026-04-06T13:57:53.482Z</time></trkpt><trkpt lat="37.0209798" lon="15.1169707"><ele>235.0</ele><time>2026-04-06T13:57:54.482Z</time></trkpt><trkpt lat="37.0210344" lon="15.1173174"><ele>235.0</ele><time>2026-04-06T13:57:55.483Z</time></trkpt><trkpt lat="37.0210903" lon="15.1176616"><ele>235.0</ele><time>2026-04-06T13:57:56.483Z</time></trkpt><trkpt lat="37.021142" lon="15.1180025"><ele>235.0</ele><time>2026-04-06T13:57:57.482Z</time></trkpt><trkpt lat="37.0211974" lon="15.1183446"><ele>235.0</ele><time>2026-04-06T13:57:58.482Z</time></trkpt><trkpt lat="37.0212522" lon="15.1186885"><ele>235.0</ele><time>2026-04-06T13:57:59.483Z</time></trkpt><trkpt lat="37.0213026" lon="15.1190298"><ele>236.0</ele><time>2026-04-06T13:58:00.482Z</time></trkpt><trkpt lat="37.0213479" lon="15.1193744"><ele>237.0</ele><time>2026-04-06T13:58:01.482Z</time></trkpt><trkpt lat="37.0213924" lon="15.1197172"><ele>236.0</ele><time>2026-04-06T13:58:02.482Z</time></trkpt><trkpt lat="37.0214272" lon="15.1200665"><ele>235.0</ele><time>2026-04-06T13:58:03.483Z</time></trkpt><trkpt lat="37.0214492" lon="15.1204134"><ele>234.5</ele><time>2026-04-06T13:58:04.482Z</time></trkpt><trkpt lat="37.0214546" lon="15.1207613"><ele>234.0</ele><time>2026-04-06T13:58:05.483Z</time></trkpt><trkpt lat="37.0214455" lon="15.1211142"><ele>234.0</ele><time>2026-04-06T13:58:06.482Z</time></trkpt><trkpt lat="37.0214291" lon="15.1214691"><ele>234.0</ele><time>2026-04-06T13:58:07.482Z</time></trkpt><trkpt lat="37.0213986" lon="15.1218229"><ele>233.0</ele><time>2026-04-06T13:58:08.482Z</time></trkpt><trkpt lat="37.0213668" lon="15.1221724"><ele>232.0</ele><time>2026-04-06T13:58:09.483Z</time></trkpt><trkpt lat="37.0213343" lon="15.1225233"><ele>231.5</ele><time>2026-04-06T13:58:10.483Z</time></trkpt><trkpt lat="37.0213041" lon="15.1228731"><ele>231.0</ele><time>2026-04-06T13:58:11.482Z</time></trkpt><trkpt lat="37.021275" lon="15.1232222"><ele>230.5</ele><time>2026-04-06T13:58:12.482Z</time></trkpt><trkpt lat="37.0212453" lon="15.1235676"><ele>230.0</ele><time>2026-04-06T13:58:13.483Z</time></trkpt><trkpt lat="37.0212206" lon="15.123911"><ele>229.0</ele><time>2026-04-06T13:58:14.482Z</time></trkpt><trkpt lat="37.0211886" lon="15.1242514"><ele>228.0</ele><time>2026-04-06T13:58:15.482Z</time></trkpt><trkpt lat="37.0211621" lon="15.1245923"><ele>226.5</ele><time>2026-04-06T13:58:16.482Z</time></trkpt><trkpt lat="37.0211373" lon="15.1249308"><ele>225.0</ele><time>2026-04-06T13:58:17.483Z</time></trkpt><trkpt lat="37.0211092" lon="15.125272"><ele>225.0</ele><time>2026-04-06T13:58:18.482Z</time></trkpt><trkpt lat="37.0210818" lon="15.1256156"><ele>225.0</ele><time>2026-04-06T13:58:19.482Z</time></trkpt><trkpt lat="37.0210475" lon="15.1259578"><ele>225.5</ele><time>2026-04-06T13:58:20.482Z</time></trkpt><trkpt lat="37.0210175" lon="15.1262975"><ele>226.0</ele><time>2026-04-06T13:58:21.482Z</time></trkpt><trkpt lat="37.020986" lon="15.1266357"><ele>225.0</ele><time>2026-04-06T13:58:22.482Z</time></trkpt><trkpt lat="37.020954" lon="15.126976"><ele>224.0</ele><time>2026-04-06T13:58:23.482Z</time></trkpt><trkpt lat="37.0209225" lon="15.1273183"><ele>223.0</ele><time>2026-04-06T13:58:24.483Z</time></trkpt><trkpt lat="37.0208896" lon="15.1276615"><ele>222.0</ele><time>2026-04-06T13:58:25.482Z</time></trkpt><trkpt lat="37.0208616" lon="15.1280021"><ele>221.5</ele><time>2026-04-06T13:58:26.483Z</time></trkpt><trkpt lat="37.0208326" lon="15.1283445"><ele>221.0</ele><time>2026-04-06T13:58:27.482Z</time></trkpt><trkpt lat="37.0208081" lon="15.1286923"><ele>219.5</ele><time>2026-04-06T13:58:28.482Z</time></trkpt><trkpt lat="37.0207832" lon="15.1290436"><ele>218.0</ele><time>2026-04-06T13:58:29.482Z</time></trkpt><trkpt lat="37.0207596" lon="15.1293946"><ele>216.5</ele><time>2026-04-06T13:58:30.483Z</time></trkpt><trkpt lat="37.0207276" lon="15.1297438"><ele>215.0</ele><time>2026-04-06T13:58:31.483Z</time></trkpt><trkpt lat="37.0206991" lon="15.1300916"><ele>214.0</ele><time>2026-04-06T13:58:32.482Z</time></trkpt><trkpt lat="37.0206756" lon="15.1304384"><ele>213.0</ele><time>2026-04-06T13:58:33.483Z</time></trkpt><trkpt lat="37.0206563" lon="15.1307891"><ele>213.0</ele><time>2026-04-06T13:58:34.482Z</time></trkpt><trkpt lat="37.0206351" lon="15.1311419"><ele>213.0</ele><time>2026-04-06T13:58:35.482Z</time></trkpt><trkpt lat="37.0206142" lon="15.1314936"><ele>213.0</ele><time>2026-04-06T13:58:36.482Z</time></trkpt><trkpt lat="37.0205928" lon="15.1318461"><ele>213.0</ele><time>2026-04-06T13:58:37.482Z</time></trkpt><trkpt lat="37.0205713" lon="15.1321978"><ele>212.5</ele><time>2026-04-06T13:58:38.482Z</time></trkpt><trkpt lat="37.0205542" lon="15.1325525"><ele>212.0</ele><time>2026-04-06T13:58:39.482Z</time></trkpt><trkpt lat="37.0205441" lon="15.1329041"><ele>211.5</ele><time>2026-04-06T13:58:40.482Z</time></trkpt><trkpt lat="37.0205381" lon="15.1332581"><ele>211.0</ele><time>2026-04-06T13:58:41.483Z</time></trkpt><trkpt lat="37.0205321" lon="15.1336116"><ele>211.0</ele><time>2026-04-06T13:58:42.482Z</time></trkpt><trkpt lat="37.0205261" lon="15.1339622"><ele>211.0</ele><time>2026-04-06T13:58:43.482Z</time></trkpt><trkpt lat="37.0205195" lon="15.1343149"><ele>210.0</ele><time>2026-04-06T13:58:44.482Z</time></trkpt><trkpt lat="37.0205163" lon="15.1346634"><ele>209.0</ele><time>2026-04-06T13:58:45.482Z</time></trkpt><trkpt lat="37.0205155" lon="15.1350151"><ele>208.5</ele><time>2026-04-06T13:58:46.483Z</time></trkpt><trkpt lat="37.0205137" lon="15.1353608"><ele>208.0</ele><time>2026-04-06T13:58:47.482Z</time></trkpt><trkpt lat="37.0205074" lon="15.1357059"><ele>208.5</ele><time>2026-04-06T13:58:48.483Z</time></trkpt><trkpt lat="37.0205024" lon="15.1360543"><ele>209.0</ele><time>2026-04-06T13:58:49.482Z</time></trkpt><trkpt lat="37.0204946" lon="15.1364025"><ele>209.0</ele><time>2026-04-06T13:58:50.482Z</time></trkpt><trkpt lat="37.0204929" lon="15.1367514"><ele>209.0</ele><time>2026-04-06T13:58:51.482Z</time></trkpt><trkpt lat="37.0205023" lon="15.137104"><ele>211.0</ele><time>2026-04-06T13:58:52.482Z</time></trkpt><trkpt lat="37.0205097" lon="15.137454"><ele>213.0</ele><time>2026-04-06T13:58:53.482Z</time></trkpt><trkpt lat="37.0205136" lon="15.1378019"><ele>213.0</ele><time>2026-04-06T13:58:54.482Z</time></trkpt><trkpt lat="37.0205194" lon="15.1381488"><ele>213.0</ele><time>2026-04-06T13:58:55.482Z</time></trkpt><trkpt lat="37.0205323" lon="15.1384973"><ele>213.5</ele><time>2026-04-06T13:58:56.482Z</time></trkpt><trkpt lat="37.0205596" lon="15.1388455"><ele>214.0</ele><time>2026-04-06T13:58:57.482Z</time></trkpt><trkpt lat="37.0206021" lon="15.1391884"><ele>214.0</ele><time>2026-04-06T13:58:58.482Z</time></trkpt><trkpt lat="37.0206568" lon="15.139527"><ele>214.0</ele><time>2026-04-06T13:58:59.482Z</time></trkpt><trkpt lat="37.0207186" lon="15.1398693"><ele>213.5</ele><time>2026-04-06T13:59:00.482Z</time></trkpt><trkpt lat="37.020777" lon="15.1402118"><ele>213.0</ele><time>2026-04-06T13:59:01.482Z</time></trkpt><trkpt lat="37.0208336" lon="15.1405562"><ele>209.5</ele><time>2026-04-06T13:59:02.482Z</time></trkpt><trkpt lat="37.0208929" lon="15.1409004"><ele>206.0</ele><time>2026-04-06T13:59:03.483Z</time></trkpt><trkpt lat="37.0209524" lon="15.1412483"><ele>204.0</ele><time>2026-04-06T13:59:04.482Z</time></trkpt><trkpt lat="37.0210091" lon="15.1415947"><ele>202.0</ele><time>2026-04-06T13:59:05.482Z</time></trkpt><trkpt lat="37.0210549" lon="15.1419423"><ele>202.0</ele><time>2026-04-06T13:59:06.483Z</time></trkpt><trkpt lat="37.0210909" lon="15.1422885"><ele>202.0</ele><time>2026-04-06T13:59:07.482Z</time></trkpt><trkpt lat="37.0211104" lon="15.1426364"><ele>200.0</ele><time>2026-04-06T13:59:08.482Z</time></trkpt><trkpt lat="37.0211119" lon="15.1429865"><ele>198.0</ele><time>2026-04-06T13:59:09.482Z</time></trkpt><trkpt lat="37.0211015" lon="15.1433348"><ele>196.5</ele><time>2026-04-06T13:59:10.483Z</time></trkpt><trkpt lat="37.0210808" lon="15.1436747"><ele>195.0</ele><time>2026-04-06T13:59:11.482Z</time></trkpt><trkpt lat="37.0210538" lon="15.1440196"><ele>193.5</ele><time>2026-04-06T13:59:12.482Z</time></trkpt><trkpt lat="37.0210211" lon="15.1443677"><ele>192.0</ele><time>2026-04-06T13:59:13.483Z</time></trkpt><trkpt lat="37.020987" lon="15.1447133"><ele>191.0</ele><time>2026-04-06T13:59:14.483Z</time></trkpt><trkpt lat="37.0209544" lon="15.1450595"><ele>190.0</ele><time>2026-04-06T13:59:15.483Z</time></trkpt><trkpt lat="37.0209241" lon="15.1454091"><ele>189.0</ele><time>2026-04-06T13:59:16.482Z</time></trkpt><trkpt lat="37.0208932" lon="15.1457564"><ele>188.0</ele><time>2026-04-06T13:59:17.483Z</time></trkpt><trkpt lat="37.0208651" lon="15.1461045"><ele>188.0</ele><time>2026-04-06T13:59:18.482Z</time></trkpt><trkpt lat="37.0208321" lon="15.1464512"><ele>188.0</ele><time>2026-04-06T13:59:19.482Z</time></trkpt><trkpt lat="37.0208017" lon="15.1467983"><ele>188.0</ele><time>2026-04-06T13:59:20.483Z</time></trkpt><trkpt lat="37.0207804" lon="15.1471456"><ele>188.0</ele><time>2026-04-06T13:59:21.482Z</time></trkpt><trkpt lat="37.0207743" lon="15.1474926"><ele>189.0</ele><time>2026-04-06T13:59:22.482Z</time></trkpt><trkpt lat="37.0207825" lon="15.1478368"><ele>190.0</ele><time>2026-04-06T13:59:23.482Z</time></trkpt><trkpt lat="37.0207955" lon="15.1481813"><ele>189.0</ele><time>2026-04-06T13:59:24.483Z</time></trkpt><trkpt lat="37.0208117" lon="15.1485312"><ele>188.0</ele><time>2026-04-06T13:59:25.482Z</time></trkpt><trkpt lat="37.0208257" lon="15.1488788"><ele>181.5</ele><time>2026-04-06T13:59:26.482Z</time></trkpt><trkpt lat="37.020839" lon="15.1492266"><ele>175.0</ele><time>2026-04-06T13:59:27.482Z</time></trkpt><trkpt lat="37.0208547" lon="15.1495759"><ele>174.0</ele><time>2026-04-06T13:59:28.482Z</time></trkpt><trkpt lat="37.0208691" lon="15.149927"><ele>173.0</ele><time>2026-04-06T13:59:29.482Z</time></trkpt><trkpt lat="37.0208821" lon="15.1502764"><ele>173.0</ele><time>2026-04-06T13:59:30.482Z</time></trkpt><trkpt lat="37.0208969" lon="15.1506265"><ele>173.0</ele><time>2026-04-06T13:59:31.482Z</time></trkpt><trkpt lat="37.0209128" lon="15.1509739"><ele>170.5</ele><time>2026-04-06T13:59:32.482Z</time></trkpt><trkpt lat="37.0209287" lon="15.15132"><ele>168.0</ele><time>2026-04-06T13:59:33.483Z</time></trkpt><trkpt lat="37.0209416" lon="15.1516654"><ele>166.5</ele><time>2026-04-06T13:59:34.482Z</time></trkpt><trkpt lat="37.0209562" lon="15.1520128"><ele>165.0</ele><time>2026-04-06T13:59:35.482Z</time></trkpt><trkpt lat="37.020968" lon="15.1523605"><ele>163.0</ele><time>2026-04-06T13:59:36.482Z</time></trkpt><trkpt lat="37.02098" lon="15.152708"><ele>161.0</ele><time>2026-04-06T13:59:37.482Z</time></trkpt><trkpt lat="37.0209898" lon="15.1530573"><ele>161.5</ele><time>2026-04-06T13:59:38.482Z</time></trkpt><trkpt lat="37.0210066" lon="15.1534064"><ele>162.0</ele><time>2026-04-06T13:59:39.483Z</time></trkpt><trkpt lat="37.0210228" lon="15.1537548"><ele>161.0</ele><time>2026-04-06T13:59:40.482Z</time></trkpt><trkpt lat="37.0210375" lon="15.1541037"><ele>160.0</ele><time>2026-04-06T13:59:41.482Z</time></trkpt><trkpt lat="37.0210475" lon="15.1544506"><ele>160.0</ele><time>2026-04-06T13:59:42.482Z</time></trkpt><trkpt lat="37.0210595" lon="15.1547994"><ele>160.0</ele><time>2026-04-06T13:59:43.482Z</time></trkpt><trkpt lat="37.0210704" lon="15.1551498"><ele>159.0</ele><time>2026-04-06T13:59:44.482Z</time></trkpt><trkpt lat="37.0210823" lon="15.1554976"><ele>158.0</ele><time>2026-04-06T13:59:45.482Z</time></trkpt><trkpt lat="37.0211002" lon="15.1558453"><ele>157.0</ele><time>2026-04-06T13:59:46.482Z</time></trkpt><trkpt lat="37.0211261" lon="15.1561958"><ele>156.0</ele><time>2026-04-06T13:59:47.482Z</time></trkpt><trkpt lat="37.0211662" lon="15.1565396"><ele>155.0</ele><time>2026-04-06T13:59:48.482Z</time></trkpt><trkpt lat="37.0212274" lon="15.1568833"><ele>154.0</ele><time>2026-04-06T13:59:49.482Z</time></trkpt><trkpt lat="37.0213124" lon="15.1572123"><ele>154.0</ele><time>2026-04-06T13:59:50.483Z</time></trkpt><trkpt lat="37.0214204" lon="15.1575351"><ele>154.0</ele><time>2026-04-06T13:59:51.482Z</time></trkpt><trkpt lat="37.0215483" lon="15.1578422"><ele>152.5</ele><time>2026-04-06T13:59:52.482Z</time></trkpt><trkpt lat="37.021698" lon="15.1581316"><ele>151.0</ele><time>2026-04-06T13:59:53.483Z</time></trkpt><trkpt lat="37.0218654" lon="15.1584097"><ele>150.5</ele><time>2026-04-06T13:59:54.482Z</time></trkpt><trkpt lat="37.0220449" lon="15.1586772"><ele>150.0</ele><time>2026-04-06T13:59:55.482Z</time></trkpt><trkpt lat="37.022234" lon="15.1589347"><ele>150.0</ele><time>2026-04-06T13:59:56.483Z</time></trkpt><trkpt lat="37.0224248" lon="15.1591853"><ele>150.0</ele><time>2026-04-06T13:59:57.482Z</time></trkpt><trkpt lat="37.0226163" lon="15.1594348"><ele>146.5</ele><time>2026-04-06T13:59:58.482Z</time></trkpt><trkpt lat="37.0227971" lon="15.1596767"><ele>143.0</ele><time>2026-04-06T13:59:59.482Z</time></trkpt><trkpt lat="37.0229757" lon="15.1599262"><ele>143.0</ele><time>2026-04-06T14:00:00.482Z</time></trkpt><trkpt lat="37.0231473" lon="15.1601996"><ele>143.0</ele><time>2026-04-06T14:00:01.482Z</time></trkpt><trkpt lat="37.02331" lon="15.1604986"><ele>137.0</ele><time>2026-04-06T14:00:02.483Z</time></trkpt><trkpt lat="37.0234598" lon="15.1608168"><ele>131.0</ele><time>2026-04-06T14:00:03.482Z</time></trkpt><trkpt lat="37.0235905" lon="15.1611585"><ele>131.0</ele><time>2026-04-06T14:00:04.482Z</time></trkpt><trkpt lat="37.023697" lon="15.1615198"><ele>131.0</ele><time>2026-04-06T14:00:05.483Z</time></trkpt><trkpt lat="37.023793" lon="15.1618907"><ele>128.5</ele><time>2026-04-06T14:00:06.482Z</time></trkpt><trkpt lat="37.0238849" lon="15.1622614"><ele>126.0</ele><time>2026-04-06T14:00:07.482Z</time></trkpt><trkpt lat="37.0239767" lon="15.1626289"><ele>119.5</ele><time>2026-04-06T14:00:08.482Z</time></trkpt><trkpt lat="37.0240738" lon="15.1629887"><ele>113.0</ele><time>2026-04-06T14:00:09.483Z</time></trkpt><trkpt lat="37.0241679" lon="15.1633485"><ele>109.0</ele><time>2026-04-06T14:00:10.483Z</time></trkpt><trkpt lat="37.0242615" lon="15.1637003"><ele>105.0</ele><time>2026-04-06T14:00:11.482Z</time></trkpt><trkpt lat="37.0243542" lon="15.1640479"><ele>102.5</ele><time>2026-04-06T14:00:12.482Z</time></trkpt><trkpt lat="37.0244455" lon="15.1643919"><ele>100.0</ele><time>2026-04-06T14:00:13.482Z</time></trkpt><trkpt lat="37.0245336" lon="15.1647374"><ele>97.5</ele><time>2026-04-06T14:00:14.483Z</time></trkpt><trkpt lat="37.0246257" lon="15.1650821"><ele>95.0</ele><time>2026-04-06T14:00:15.482Z</time></trkpt><trkpt lat="37.0247159" lon="15.1654249"><ele>93.5</ele><time>2026-04-06T14:00:16.482Z</time></trkpt><trkpt lat="37.0248062" lon="15.1657666"><ele>92.0</ele><time>2026-04-06T14:00:17.482Z</time></trkpt><trkpt lat="37.0248929" lon="15.166108"><ele>92.0</ele><time>2026-04-06T14:00:18.482Z</time></trkpt><trkpt lat="37.0249796" lon="15.1664541"><ele>92.0</ele><time>2026-04-06T14:00:19.482Z</time></trkpt><trkpt lat="37.0250719" lon="15.1668008"><ele>92.0</ele><time>2026-04-06T14:00:20.482Z</time></trkpt><trkpt lat="37.0251618" lon="15.1671452"><ele>92.0</ele><time>2026-04-06T14:00:21.482Z</time></trkpt><trkpt lat="37.0252554" lon="15.1674869"><ele>91.0</ele><time>2026-04-06T14:00:22.482Z</time></trkpt><trkpt lat="37.0253491" lon="15.1678254"><ele>90.0</ele><time>2026-04-06T14:00:23.482Z</time></trkpt><trkpt lat="37.0254423" lon="15.1681623"><ele>87.5</ele><time>2026-04-06T14:00:24.482Z</time></trkpt><trkpt lat="37.0255319" lon="15.1685005"><ele>85.0</ele><time>2026-04-06T14:00:25.482Z</time></trkpt><trkpt lat="37.0256201" lon="15.1688375"><ele>83.0</ele><time>2026-04-06T14:00:26.482Z</time></trkpt><trkpt lat="37.02571" lon="15.1691735"><ele>81.0</ele><time>2026-04-06T14:00:27.482Z</time></trkpt><trkpt lat="37.0258026" lon="15.1695073"><ele>81.5</ele><time>2026-04-06T14:00:28.482Z</time></trkpt><trkpt lat="37.0259055" lon="15.1698372"><ele>82.0</ele><time>2026-04-06T14:00:29.482Z</time></trkpt><trkpt lat="37.0260083" lon="15.1701632"><ele>82.0</ele><time>2026-04-06T14:00:30.482Z</time></trkpt><trkpt lat="37.0261257" lon="15.1704824"><ele>82.0</ele><time>2026-04-06T14:00:31.483Z</time></trkpt><trkpt lat="37.0262445" lon="15.1707996"><ele>80.5</ele><time>2026-04-06T14:00:32.483Z</time></trkpt><trkpt lat="37.0263658" lon="15.1711144"><ele>79.0</ele><time>2026-04-06T14:00:33.482Z</time></trkpt><trkpt lat="37.0264909" lon="15.1714277"><ele>78.0</ele><time>2026-04-06T14:00:34.482Z</time></trkpt><trkpt lat="37.0266199" lon="15.1717392"><ele>77.0</ele><time>2026-04-06T14:00:35.482Z</time></trkpt><trkpt lat="37.0267509" lon="15.1720471"><ele>76.0</ele><time>2026-04-06T14:00:36.482Z</time></trkpt><trkpt lat="37.0268795" lon="15.1723559"><ele>75.0</ele><time>2026-04-06T14:00:37.482Z</time></trkpt><trkpt lat="37.0270011" lon="15.1726661"><ele>75.0</ele><time>2026-04-06T14:00:38.482Z</time></trkpt><trkpt lat="37.0271243" lon="15.1729722"><ele>75.0</ele><time>2026-04-06T14:00:39.482Z</time></trkpt><trkpt lat="37.0272496" lon="15.173279"><ele>73.5</ele><time>2026-04-06T14:00:40.482Z</time></trkpt><trkpt lat="37.027374" lon="15.173585"><ele>72.0</ele><time>2026-04-06T14:00:41.482Z</time></trkpt><trkpt lat="37.0274975" lon="15.1738886"><ele>71.0</ele><time>2026-04-06T14:00:42.483Z</time></trkpt><trkpt lat="37.0276253" lon="15.1741933"><ele>70.0</ele><time>2026-04-06T14:00:43.483Z</time></trkpt><trkpt lat="37.0277499" lon="15.1744963"><ele>70.0</ele><time>2026-04-06T14:00:44.482Z</time></trkpt><trkpt lat="37.0278751" lon="15.1747982"><ele>70.0</ele><time>2026-04-06T14:00:45.482Z</time></trkpt><trkpt lat="37.0279987" lon="15.1750971"><ele>69.0</ele><time>2026-04-06T14:00:46.482Z</time></trkpt><trkpt lat="37.0281248" lon="15.1753929"><ele>68.0</ele><time>2026-04-06T14:00:47.482Z</time></trkpt><trkpt lat="37.0282455" lon="15.1756902"><ele>66.5</ele><time>2026-04-06T14:00:48.482Z</time></trkpt><trkpt lat="37.0283674" lon="15.1759891"><ele>65.0</ele><time>2026-04-06T14:00:49.483Z</time></trkpt><trkpt lat="37.0284879" lon="15.1762904"><ele>63.5</ele><time>2026-04-06T14:00:50.482Z</time></trkpt><trkpt lat="37.028609" lon="15.1765925"><ele>62.0</ele><time>2026-04-06T14:00:51.482Z</time></trkpt><trkpt lat="37.028732" lon="15.1768909"><ele>62.0</ele><time>2026-04-06T14:00:52.483Z</time></trkpt><trkpt lat="37.0288554" lon="15.1771884"><ele>62.0</ele><time>2026-04-06T14:00:53.482Z</time></trkpt><trkpt lat="37.0289808" lon="15.1774913"><ele>61.5</ele><time>2026-04-06T14:00:54.482Z</time></trkpt><trkpt lat="37.0291068" lon="15.1777954"><ele>61.0</ele><time>2026-04-06T14:00:55.482Z</time></trkpt><trkpt lat="37.0292331" lon="15.1780979"><ele>60.0</ele><time>2026-04-06T14:00:56.483Z</time></trkpt><trkpt lat="37.0293619" lon="15.1783983"><ele>59.0</ele><time>2026-04-06T14:00:57.482Z</time></trkpt><trkpt lat="37.029492" lon="15.1786957"><ele>59.0</ele><time>2026-04-06T14:00:58.482Z</time></trkpt><trkpt lat="37.029618" lon="15.1789911"><ele>59.0</ele><time>2026-04-06T14:00:59.482Z</time></trkpt><trkpt lat="37.0297481" lon="15.1792759"><ele>58.5</ele><time>2026-04-06T14:01:00.482Z</time></trkpt><trkpt lat="37.0298964" lon="15.1795484"><ele>58.0</ele><time>2026-04-06T14:01:01.482Z</time></trkpt><trkpt lat="37.0300573" lon="15.1798214"><ele>57.0</ele><time>2026-04-06T14:01:02.482Z</time></trkpt><trkpt lat="37.030224" lon="15.1800895"><ele>56.0</ele><time>2026-04-06T14:01:03.482Z</time></trkpt><trkpt lat="37.0303837" lon="15.1803628"><ele>56.0</ele><time>2026-04-06T14:01:04.482Z</time></trkpt><trkpt lat="37.0305414" lon="15.1806432"><ele>56.0</ele><time>2026-04-06T14:01:05.482Z</time></trkpt><trkpt lat="37.0306952" lon="15.1809184"><ele>56.5</ele><time>2026-04-06T14:01:06.482Z</time></trkpt><trkpt lat="37.0308533" lon="15.1811933"><ele>57.0</ele><time>2026-04-06T14:01:07.482Z</time></trkpt><trkpt lat="37.0310136" lon="15.181465"><ele>55.5</ele><time>2026-04-06T14:01:08.482Z</time></trkpt><trkpt lat="37.0311765" lon="15.1817294"><ele>54.0</ele><time>2026-04-06T14:01:09.482Z</time></trkpt><trkpt lat="37.0313407" lon="15.1819941"><ele>54.0</ele><time>2026-04-06T14:01:10.482Z</time></trkpt><trkpt lat="37.0315021" lon="15.1822606"><ele>54.0</ele><time>2026-04-06T14:01:11.482Z</time></trkpt><trkpt lat="37.0316596" lon="15.182533"><ele>55.0</ele><time>2026-04-06T14:01:12.482Z</time></trkpt><trkpt lat="37.0318095" lon="15.1828062"><ele>56.0</ele><time>2026-04-06T14:01:13.483Z</time></trkpt><trkpt lat="37.0319542" lon="15.1830847"><ele>56.0</ele><time>2026-04-06T14:01:14.482Z</time></trkpt><trkpt lat="37.0320929" lon="15.1833647"><ele>56.0</ele><time>2026-04-06T14:01:15.483Z</time></trkpt><trkpt lat="37.0322235" lon="15.183648"><ele>56.0</ele><time>2026-04-06T14:01:16.482Z</time></trkpt><trkpt lat="37.0323465" lon="15.1839427"><ele>56.0</ele><time>2026-04-06T14:01:17.483Z</time></trkpt><trkpt lat="37.0324563" lon="15.1842396"><ele>56.5</ele><time>2026-04-06T14:01:18.483Z</time></trkpt><trkpt lat="37.0325484" lon="15.184545"><ele>57.0</ele><time>2026-04-06T14:01:19.482Z</time></trkpt><trkpt lat="37.0326342" lon="15.1848614"><ele>57.0</ele><time>2026-04-06T14:01:20.482Z</time></trkpt><trkpt lat="37.0327121" lon="15.1851737"><ele>57.0</ele><time>2026-04-06T14:01:21.482Z</time></trkpt><trkpt lat="37.0327826" lon="15.1854774"><ele>56.0</ele><time>2026-04-06T14:01:22.482Z</time></trkpt><trkpt lat="37.0328465" lon="15.1857646"><ele>55.0</ele><time>2026-04-06T14:01:23.482Z</time></trkpt><trkpt lat="37.0329071" lon="15.186039"><ele>55.0</ele><time>2026-04-06T14:01:24.483Z</time></trkpt><trkpt lat="37.0329651" lon="15.1862993"><ele>55.0</ele><time>2026-04-06T14:01:25.482Z</time></trkpt><trkpt lat="37.0330255" lon="15.1865477"><ele>55.0</ele><time>2026-04-06T14:01:26.482Z</time></trkpt><trkpt lat="37.0330837" lon="15.1867861"><ele>54.666666666666664</ele><time>2026-04-06T14:01:27.483Z</time></trkpt><trkpt lat="37.0331398" lon="15.1870112"><ele>54.33333333333333</ele><time>2026-04-06T14:01:28.483Z</time></trkpt><trkpt lat="37.0332038" lon="15.1872249"><ele>54.0</ele><time>2026-04-06T14:01:29.483Z</time></trkpt><trkpt lat="37.0332863" lon="15.1874386"><ele>52.0</ele><time>2026-04-06T14:01:30.482Z</time></trkpt><trkpt lat="37.0333845" lon="15.1876757"><ele>50.0</ele><time>2026-04-06T14:01:31.482Z</time></trkpt><trkpt lat="37.0334921" lon="15.1879255"><ele>48.0</ele><time>2026-04-06T14:01:32.482Z</time></trkpt><trkpt lat="37.0336042" lon="15.188192"><ele>46.0</ele><time>2026-04-06T14:01:33.483Z</time></trkpt><trkpt lat="37.0337233" lon="15.1884648"><ele>44.0</ele><time>2026-04-06T14:01:34.483Z</time></trkpt><trkpt lat="37.0338533" lon="15.188747"><ele>43.0</ele><time>2026-04-06T14:01:35.482Z</time></trkpt><trkpt lat="37.033985" lon="15.1890369"><ele>42.0</ele><time>2026-04-06T14:01:36.482Z</time></trkpt><trkpt lat="37.0341117" lon="15.1893328"><ele>40.5</ele><time>2026-04-06T14:01:37.482Z</time></trkpt><trkpt lat="37.0342337" lon="15.18963"><ele>39.0</ele><time>2026-04-06T14:01:38.482Z</time></trkpt><trkpt lat="37.0343624" lon="15.189927"><ele>39.0</ele><time>2026-04-06T14:01:39.483Z</time></trkpt><trkpt lat="37.0344989" lon="15.1902234"><ele>39.0</ele><time>2026-04-06T14:01:40.483Z</time></trkpt><trkpt lat="37.0346376" lon="15.1905256"><ele>39.5</ele><time>2026-04-06T14:01:41.483Z</time></trkpt><trkpt lat="37.0347737" lon="15.1908296"><ele>40.0</ele><time>2026-04-06T14:01:42.482Z</time></trkpt><trkpt lat="37.0349142" lon="15.1911345"><ele>40.0</ele><time>2026-04-06T14:01:43.482Z</time></trkpt><trkpt lat="37.0350543" lon="15.1914372"><ele>40.0</ele><time>2026-04-06T14:01:44.483Z</time></trkpt><trkpt lat="37.0351928" lon="15.1917376"><ele>40.0</ele><time>2026-04-06T14:01:45.482Z</time></trkpt><trkpt lat="37.0353333" lon="15.1920427"><ele>40.0</ele><time>2026-04-06T14:01:46.489Z</time></trkpt><trkpt lat="37.0354736" lon="15.1923471"><ele>40.0</ele><time>2026-04-06T14:01:47.489Z</time></trkpt><trkpt lat="37.0356142" lon="15.1926447"><ele>40.0</ele><time>2026-04-06T14:01:48.49Z</time></trkpt><trkpt lat="37.0357598" lon="15.1929383"><ele>41.5</ele><time>2026-04-06T14:01:49.489Z</time></trkpt><trkpt lat="37.0359065" lon="15.1932296"><ele>43.0</ele><time>2026-04-06T14:01:50.49Z</time></trkpt><trkpt lat="37.036047" lon="15.1935184"><ele>43.0</ele><time>2026-04-06T14:01:51.49Z</time></trkpt><trkpt lat="37.0361843" lon="15.1938126"><ele>43.0</ele><time>2026-04-06T14:01:52.49Z</time></trkpt><trkpt lat="37.0363178" lon="15.194108"><ele>44.0</ele><time>2026-04-06T14:01:53.489Z</time></trkpt><trkpt lat="37.0364532" lon="15.1944014"><ele>45.0</ele><time>2026-04-06T14:01:54.489Z</time></trkpt><trkpt lat="37.0365916" lon="15.1946929"><ele>45.0</ele><time>2026-04-06T14:01:55.49Z</time></trkpt><trkpt lat="37.0367315" lon="15.1949766"><ele>45.0</ele><time>2026-04-06T14:01:56.489Z</time></trkpt><trkpt lat="37.0368701" lon="15.1952644"><ele>45.0</ele><time>2026-04-06T14:01:57.489Z</time></trkpt><trkpt lat="37.0370084" lon="15.1955553"><ele>45.0</ele><time>2026-04-06T14:01:58.489Z</time></trkpt><trkpt lat="37.037145" lon="15.1958465"><ele>45.0</ele><time>2026-04-06T14:01:59.49Z</time></trkpt><trkpt lat="37.0372821" lon="15.1961411"><ele>45.0</ele><time>2026-04-06T14:02:00.489Z</time></trkpt><trkpt lat="37.0374181" lon="15.1964338"><ele>45.0</ele><time>2026-04-06T14:02:01.489Z</time></trkpt><trkpt lat="37.0375582" lon="15.1967266"><ele>45.0</ele><time>2026-04-06T14:02:02.489Z</time></trkpt><trkpt lat="37.037697" lon="15.1970247"><ele>45.0</ele><time>2026-04-06T14:02:03.49Z</time></trkpt><trkpt lat="37.0378407" lon="15.1973162"><ele>45.0</ele><time>2026-04-06T14:02:04.489Z</time></trkpt><trkpt lat="37.0379804" lon="15.1976116"><ele>45.5</ele><time>2026-04-06T14:02:05.489Z</time></trkpt><trkpt lat="37.0381212" lon="15.1979062"><ele>46.0</ele><time>2026-04-06T14:02:06.489Z</time></trkpt><trkpt lat="37.038261" lon="15.1982031"><ele>46.0</ele><time>2026-04-06T14:02:07.489Z</time></trkpt><trkpt lat="37.0384004" lon="15.1984971"><ele>46.0</ele><time>2026-04-06T14:02:08.489Z</time></trkpt><trkpt lat="37.0385368" lon="15.1987925"><ele>45.0</ele><time>2026-04-06T14:02:09.49Z</time></trkpt><trkpt lat="37.0386683" lon="15.1990928"><ele>44.0</ele><time>2026-04-06T14:02:10.489Z</time></trkpt><trkpt lat="37.0387988" lon="15.1993934"><ele>44.0</ele><time>2026-04-06T14:02:11.489Z</time></trkpt><trkpt lat="37.0389265" lon="15.1996903"><ele>44.0</ele><time>2026-04-06T14:02:12.49Z</time></trkpt><trkpt lat="37.0390597" lon="15.1999839"><ele>43.5</ele><time>2026-04-06T14:02:13.49Z</time></trkpt><trkpt lat="37.0391964" lon="15.2002822"><ele>43.0</ele><time>2026-04-06T14:02:14.489Z</time></trkpt><trkpt lat="37.0393347" lon="15.2005806"><ele>42.5</ele><time>2026-04-06T14:02:15.489Z</time></trkpt><trkpt lat="37.0394712" lon="15.2008804"><ele>42.0</ele><time>2026-04-06T14:02:16.489Z</time></trkpt><trkpt lat="37.0396064" lon="15.2011799"><ele>42.0</ele><time>2026-04-06T14:02:17.489Z</time></trkpt><trkpt lat="37.0397429" lon="15.2014779"><ele>42.0</ele><time>2026-04-06T14:02:18.489Z</time></trkpt><trkpt lat="37.03988" lon="15.2017775"><ele>41.5</ele><time>2026-04-06T14:02:19.489Z</time></trkpt><trkpt lat="37.0400196" lon="15.2020745"><ele>41.0</ele><time>2026-04-06T14:02:20.489Z</time></trkpt><trkpt lat="37.0401601" lon="15.2023651"><ele>41.0</ele><time>2026-04-06T14:02:21.489Z</time></trkpt><trkpt lat="37.0403158" lon="15.2026407"><ele>41.0</ele><time>2026-04-06T14:02:22.49Z</time></trkpt><trkpt lat="37.0404903" lon="15.2028991"><ele>41.0</ele><time>2026-04-06T14:02:23.489Z</time></trkpt><trkpt lat="37.0406756" lon="15.203149"><ele>41.0</ele><time>2026-04-06T14:02:24.489Z</time></trkpt><trkpt lat="37.0408773" lon="15.2033822"><ele>40.0</ele><time>2026-04-06T14:02:25.49Z</time></trkpt><trkpt lat="37.0410898" lon="15.2036037"><ele>39.0</ele><time>2026-04-06T14:02:26.489Z</time></trkpt><trkpt lat="37.0413078" lon="15.2038199"><ele>39.0</ele><time>2026-04-06T14:02:27.489Z</time></trkpt><trkpt lat="37.0415312" lon="15.2040372"><ele>39.0</ele><time>2026-04-06T14:02:28.489Z</time></trkpt><trkpt lat="37.0417499" lon="15.2042471"><ele>39.0</ele><time>2026-04-06T14:02:29.489Z</time></trkpt><trkpt lat="37.041965" lon="15.2044605"><ele>39.0</ele><time>2026-04-06T14:02:30.49Z</time></trkpt><trkpt lat="37.0421801" lon="15.2046743"><ele>38.5</ele><time>2026-04-06T14:02:31.49Z</time></trkpt><trkpt lat="37.0423952" lon="15.2048958"><ele>38.0</ele><time>2026-04-06T14:02:32.489Z</time></trkpt><trkpt lat="37.0426128" lon="15.2051078"><ele>39.0</ele><time>2026-04-06T14:02:33.49Z</time></trkpt><trkpt lat="37.0428258" lon="15.2053233"><ele>40.0</ele><time>2026-04-06T14:02:34.49Z</time></trkpt><trkpt lat="37.0430404" lon="15.2055384"><ele>40.5</ele><time>2026-04-06T14:02:35.49Z</time></trkpt><trkpt lat="37.0432564" lon="15.2057509"><ele>41.0</ele><time>2026-04-06T14:02:36.489Z</time></trkpt><trkpt lat="37.0434679" lon="15.2059667"><ele>42.0</ele><time>2026-04-06T14:02:37.489Z</time></trkpt><trkpt lat="37.0436803" lon="15.2061823"><ele>43.0</ele><time>2026-04-06T14:02:38.489Z</time></trkpt><trkpt lat="37.0438915" lon="15.2063982"><ele>43.0</ele><time>2026-04-06T14:02:39.489Z</time></trkpt><trkpt lat="37.0440912" lon="15.2066217"><ele>43.0</ele><time>2026-04-06T14:02:40.489Z</time></trkpt><trkpt lat="37.0442925" lon="15.2068481"><ele>43.0</ele><time>2026-04-06T14:02:41.488Z</time></trkpt><trkpt lat="37.0444878" lon="15.2070794"><ele>43.0</ele><time>2026-04-06T14:02:42.488Z</time></trkpt><trkpt lat="37.0446766" lon="15.2073163"><ele>43.0</ele><time>2026-04-06T14:02:43.488Z</time></trkpt><trkpt lat="37.0448634" lon="15.207547"><ele>43.0</ele><time>2026-04-06T14:02:44.488Z</time></trkpt><trkpt lat="37.0450491" lon="15.2077798"><ele>43.5</ele><time>2026-04-06T14:02:45.489Z</time></trkpt><trkpt lat="37.0452371" lon="15.2080082"><ele>44.0</ele><time>2026-04-06T14:02:46.488Z</time></trkpt><trkpt lat="37.0454236" lon="15.2082352"><ele>44.0</ele><time>2026-04-06T14:02:47.488Z</time></trkpt><trkpt lat="37.0456117" lon="15.2084615"><ele>44.0</ele><time>2026-04-06T14:02:48.488Z</time></trkpt><trkpt lat="37.0458022" lon="15.2086925"><ele>44.0</ele><time>2026-04-06T14:02:49.488Z</time></trkpt><trkpt lat="37.0459914" lon="15.2089208"><ele>44.0</ele><time>2026-04-06T14:02:50.488Z</time></trkpt><trkpt lat="37.0461787" lon="15.2091495"><ele>43.5</ele><time>2026-04-06T14:02:51.489Z</time></trkpt><trkpt lat="37.0463678" lon="15.2093785"><ele>43.0</ele><time>2026-04-06T14:02:52.489Z</time></trkpt><trkpt lat="37.0465566" lon="15.2096013"><ele>42.5</ele><time>2026-04-06T14:02:53.488Z</time></trkpt><trkpt lat="37.0467445" lon="15.2098261"><ele>42.0</ele><time>2026-04-06T14:02:54.488Z</time></trkpt><trkpt lat="37.0469328" lon="15.2100579"><ele>42.0</ele><time>2026-04-06T14:02:55.488Z</time></trkpt><trkpt lat="37.0471182" lon="15.2102866"><ele>42.0</ele><time>2026-04-06T14:02:56.488Z</time></trkpt><trkpt lat="37.0473045" lon="15.2105116"><ele>41.5</ele><time>2026-04-06T14:02:57.488Z</time></trkpt><trkpt lat="37.0474933" lon="15.2107367"><ele>41.0</ele><time>2026-04-06T14:02:58.488Z</time></trkpt><trkpt lat="37.0476803" lon="15.2109619"><ele>41.0</ele><time>2026-04-06T14:02:59.488Z</time></trkpt><trkpt lat="37.0478653" lon="15.2111859"><ele>41.0</ele><time>2026-04-06T14:03:00.489Z</time></trkpt><trkpt lat="37.048051" lon="15.2114126"><ele>41.0</ele><time>2026-04-06T14:03:01.488Z</time></trkpt><trkpt lat="37.0482341" lon="15.2116385"><ele>41.0</ele><time>2026-04-06T14:03:02.488Z</time></trkpt><trkpt lat="37.0484217" lon="15.2118644"><ele>41.0</ele><time>2026-04-06T14:03:03.488Z</time></trkpt><trkpt lat="37.0486119" lon="15.2120916"><ele>41.0</ele><time>2026-04-06T14:03:04.489Z</time></trkpt><trkpt lat="37.0488093" lon="15.2123221"><ele>41.0</ele><time>2026-04-06T14:03:05.488Z</time></trkpt><trkpt lat="37.0490057" lon="15.2125581"><ele>41.0</ele><time>2026-04-06T14:03:06.488Z</time></trkpt><trkpt lat="37.0491941" lon="15.212801"><ele>40.5</ele><time>2026-04-06T14:03:07.488Z</time></trkpt><trkpt lat="37.0493774" lon="15.2130456"><ele>40.0</ele><time>2026-04-06T14:03:08.488Z</time></trkpt><trkpt lat="37.0495489" lon="15.213277"><ele>40.0</ele><time>2026-04-06T14:03:09.488Z</time></trkpt><trkpt lat="37.0497127" lon="15.2134929"><ele>40.0</ele><time>2026-04-06T14:03:10.488Z</time></trkpt><trkpt lat="37.0498565" lon="15.2136887"><ele>39.66666666666667</ele><time>2026-04-06T14:03:11.488Z</time></trkpt><trkpt lat="37.0499741" lon="15.2138623"><ele>39.333333333333336</ele><time>2026-04-06T14:03:12.488Z</time></trkpt><trkpt lat="37.0500629" lon="15.2140223"><ele>39.0</ele><time>2026-04-06T14:03:13.488Z</time></trkpt><trkpt lat="37.0501229" lon="15.2141825"><ele>39.666666666666664</ele><time>2026-04-06T14:03:14.489Z</time></trkpt><trkpt lat="37.050193" lon="15.214336"><ele>40.33333333333333</ele><time>2026-04-06T14:03:15.489Z</time></trkpt><trkpt lat="37.0502983" lon="15.214488"><ele>41.0</ele><time>2026-04-06T14:03:16.488Z</time></trkpt><trkpt lat="37.0504117" lon="15.2146577"><ele>40.666666666666664</ele><time>2026-04-06T14:03:17.488Z</time></trkpt><trkpt lat="37.05051" lon="15.2148409"><ele>40.333333333333336</ele><time>2026-04-06T14:03:18.488Z</time></trkpt><trkpt lat="37.0506097" lon="15.2150288"><ele>40.0</ele><time>2026-04-06T14:03:19.488Z</time></trkpt><trkpt lat="37.0507052" lon="15.2152779"><ele>40.0</ele><time>2026-04-06T14:03:20.488Z</time></trkpt><trkpt lat="37.0507759" lon="15.2155764"><ele>40.0</ele><time>2026-04-06T14:03:21.488Z</time></trkpt><trkpt lat="37.0508492" lon="15.2158972"><ele>39.0</ele><time>2026-04-06T14:03:22.488Z</time></trkpt><trkpt lat="37.0509287" lon="15.2162495"><ele>38.0</ele><time>2026-04-06T14:03:23.488Z</time></trkpt><trkpt lat="37.0510156" lon="15.2166145"><ele>38.0</ele><time>2026-04-06T14:03:24.488Z</time></trkpt><trkpt lat="37.0511143" lon="15.2169799"><ele>38.0</ele><time>2026-04-06T14:03:25.488Z</time></trkpt><trkpt lat="37.0512214" lon="15.2173385"><ele>37.0</ele><time>2026-04-06T14:03:26.488Z</time></trkpt><trkpt lat="37.0513425" lon="15.2176818"><ele>36.0</ele><time>2026-04-06T14:03:27.488Z</time></trkpt><trkpt lat="37.0514698" lon="15.2180033"><ele>35.0</ele><time>2026-04-06T14:03:28.488Z</time></trkpt><trkpt lat="37.051615" lon="15.2183057"><ele>34.0</ele><time>2026-04-06T14:03:29.488Z</time></trkpt><trkpt lat="37.0517753" lon="15.2185983"><ele>32.5</ele><time>2026-04-06T14:03:30.489Z</time></trkpt><trkpt lat="37.0519442" lon="15.2188734"><ele>31.0</ele><time>2026-04-06T14:03:31.488Z</time></trkpt><trkpt lat="37.0521202" lon="15.2191342"><ele>29.5</ele><time>2026-04-06T14:03:32.489Z</time></trkpt><trkpt lat="37.052303" lon="15.2193891"><ele>28.0</ele><time>2026-04-06T14:03:33.488Z</time></trkpt><trkpt lat="37.0524924" lon="15.2196358"><ele>24.5</ele><time>2026-04-06T14:03:34.489Z</time></trkpt><trkpt lat="37.0526803" lon="15.2198837"><ele>21.0</ele><time>2026-04-06T14:03:35.488Z</time></trkpt><trkpt lat="37.0528652" lon="15.2201331"><ele>21.0</ele><time>2026-04-06T14:03:36.488Z</time></trkpt><trkpt lat="37.0530456" lon="15.2203899"><ele>21.0</ele><time>2026-04-06T14:03:37.488Z</time></trkpt><trkpt lat="37.0532154" lon="15.2206545"><ele>17.0</ele><time>2026-04-06T14:03:38.489Z</time></trkpt><trkpt lat="37.0533769" lon="15.2209284"><ele>13.0</ele><time>2026-04-06T14:03:39.488Z</time></trkpt><trkpt lat="37.053524" lon="15.2212099"><ele>13.0</ele><time>2026-04-06T14:03:40.488Z</time></trkpt><trkpt lat="37.053663" lon="15.2214942"><ele>13.0</ele><time>2026-04-06T14:03:41.488Z</time></trkpt><trkpt lat="37.0537958" lon="15.2217786"><ele>13.0</ele><time>2026-04-06T14:03:42.489Z</time></trkpt><trkpt lat="37.0539157" lon="15.2220599"><ele>13.0</ele><time>2026-04-06T14:03:43.488Z</time></trkpt><trkpt lat="37.0540055" lon="15.2223339"><ele>12.333333333333332</ele><time>2026-04-06T14:03:44.488Z</time></trkpt><trkpt lat="37.0540683" lon="15.2226095"><ele>11.666666666666666</ele><time>2026-04-06T14:03:45.488Z</time></trkpt><trkpt lat="37.0541112" lon="15.2228806"><ele>11.0</ele><time>2026-04-06T14:03:46.488Z</time></trkpt><trkpt lat="37.054136" lon="15.2231136"><ele>11.0</ele><time>2026-04-06T14:03:47.488Z</time></trkpt><trkpt lat="37.0541343" lon="15.2232969"><ele>11.0</ele><time>2026-04-06T14:03:48.488Z</time></trkpt><trkpt lat="37.0541108" lon="15.2234607"><ele>11.0</ele><time>2026-04-06T14:03:49.488Z</time></trkpt><trkpt lat="37.0540737" lon="15.2235927"><ele>11.0</ele><time>2026-04-06T14:03:50.488Z</time></trkpt><trkpt lat="37.0540283" lon="15.2237167"><ele>11.0</ele><time>2026-04-06T14:03:51.488Z</time></trkpt><trkpt lat="37.0540242" lon="15.2238408"><ele>11.0</ele><time>2026-04-06T14:03:52.488Z</time></trkpt><trkpt lat="37.054058" lon="15.2239451"><ele>11.0</ele><time>2026-04-06T14:03:53.488Z</time></trkpt><trkpt lat="37.0541296" lon="15.2240254"><ele>11.0</ele><time>2026-04-06T14:03:54.488Z</time></trkpt><trkpt lat="37.0542394" lon="15.2240621"><ele>11.0</ele><time>2026-04-06T14:03:55.488Z</time></trkpt><trkpt lat="37.0543652" lon="15.2241085"><ele>11.25</ele><time>2026-04-06T14:03:56.488Z</time></trkpt><trkpt lat="37.054471" lon="15.2241995"><ele>11.5</ele><time>2026-04-06T14:03:57.488Z</time></trkpt><trkpt lat="37.0545583" lon="15.2243298"><ele>11.75</ele><time>2026-04-06T14:03:58.489Z</time></trkpt><trkpt lat="37.0546359" lon="15.2244754"><ele>12.0</ele><time>2026-04-06T14:03:59.488Z</time></trkpt><trkpt lat="37.0546953" lon="15.2246217"><ele>12.0</ele><time>2026-04-06T14:04:00.488Z</time></trkpt><trkpt lat="37.0547429" lon="15.2247572"><ele>12.0</ele><time>2026-04-06T14:04:01.488Z</time></trkpt><trkpt lat="37.0547974" lon="15.224893"><ele>12.0</ele><time>2026-04-06T14:04:02.488Z</time></trkpt><trkpt lat="37.054852" lon="15.225036"><ele>12.0</ele><time>2026-04-06T14:04:03.488Z</time></trkpt><trkpt lat="37.0549111" lon="15.225191"><ele>11.333333333333334</ele><time>2026-04-06T14:04:04.489Z</time></trkpt><trkpt lat="37.0549727" lon="15.2253481"><ele>10.666666666666668</ele><time>2026-04-06T14:04:05.488Z</time></trkpt><trkpt lat="37.0550438" lon="15.225515"><ele>10.0</ele><time>2026-04-06T14:04:06.488Z</time></trkpt><trkpt lat="37.0551226" lon="15.2256887"><ele>10.0</ele><time>2026-04-06T14:04:07.488Z</time></trkpt><trkpt lat="37.0552056" lon="15.2258779"><ele>10.0</ele><time>2026-04-06T14:04:08.488Z</time></trkpt><trkpt lat="37.0552846" lon="15.2260783"><ele>10.0</ele><time>2026-04-06T14:04:09.488Z</time></trkpt><trkpt lat="37.0553615" lon="15.2262707"><ele>10.0</ele><time>2026-04-06T14:04:10.489Z</time></trkpt><trkpt lat="37.0554093" lon="15.2264669"><ele>10.0</ele><time>2026-04-06T14:04:11.488Z</time></trkpt><trkpt lat="37.0554146" lon="15.2266525"><ele>10.0</ele><time>2026-04-06T14:04:12.488Z</time></trkpt><trkpt lat="37.0554134" lon="15.2268275"><ele>10.4</ele><time>2026-04-06T14:04:13.488Z</time></trkpt><trkpt lat="37.0553944" lon="15.2269795"><ele>10.8</ele><time>2026-04-06T14:04:14.488Z</time></trkpt><trkpt lat="37.0553613" lon="15.2271116"><ele>11.2</ele><time>2026-04-06T14:04:15.488Z</time></trkpt><trkpt lat="37.0553063" lon="15.2272058"><ele>11.6</ele><time>2026-04-06T14:04:16.489Z</time></trkpt><trkpt lat="37.0552049" lon="15.2272842"><ele>12.0</ele><time>2026-04-06T14:04:17.488Z</time></trkpt><trkpt lat="37.0550875" lon="15.2273224"><ele>11.666666666666666</ele><time>2026-04-06T14:04:18.488Z</time></trkpt><trkpt lat="37.0549535" lon="15.2273056"><ele>11.333333333333332</ele><time>2026-04-06T14:04:19.489Z</time></trkpt><trkpt lat="37.054798" lon="15.2272247"><ele>11.0</ele><time>2026-04-06T14:04:20.488Z</time></trkpt><trkpt lat="37.0546281" lon="15.2271131"><ele>11.0</ele><time>2026-04-06T14:04:21.489Z</time></trkpt><trkpt lat="37.0544563" lon="15.2269789"><ele>11.0</ele><time>2026-04-06T14:04:22.489Z</time></trkpt><trkpt lat="37.0542877" lon="15.2268462"><ele>11.0</ele><time>2026-04-06T14:04:23.488Z</time></trkpt><trkpt lat="37.0541126" lon="15.2267154"><ele>11.0</ele><time>2026-04-06T14:04:24.489Z</time></trkpt><trkpt lat="37.0539321" lon="15.2266148"><ele>11.0</ele><time>2026-04-06T14:04:25.488Z</time></trkpt><trkpt lat="37.053739" lon="15.2265611"><ele>11.0</ele><time>2026-04-06T14:04:26.488Z</time></trkpt><trkpt lat="37.053539" lon="15.2265644"><ele>11.0</ele><time>2026-04-06T14:04:27.488Z</time></trkpt><trkpt lat="37.0533456" lon="15.2266345"><ele>11.0</ele><time>2026-04-06T14:04:28.488Z</time></trkpt><trkpt lat="37.053164" lon="15.2267607"><ele>11.0</ele><time>2026-04-06T14:04:29.489Z</time></trkpt><trkpt lat="37.053016" lon="15.2269239"><ele>11.0</ele><time>2026-04-06T14:04:30.489Z</time></trkpt><trkpt lat="37.0528834" lon="15.2271341"><ele>11.0</ele><time>2026-04-06T14:04:31.488Z</time></trkpt><trkpt lat="37.0527848" lon="15.2273344"><ele>11.0</ele><time>2026-04-06T14:04:32.488Z</time></trkpt><trkpt lat="37.052698" lon="15.2275012"><ele>11.0</ele><time>2026-04-06T14:04:33.488Z</time></trkpt><trkpt lat="37.052612" lon="15.2276495"><ele>11.0</ele><time>2026-04-06T14:04:34.488Z</time></trkpt><trkpt lat="37.0525243" lon="15.2277718"><ele>11.0</ele><time>2026-04-06T14:04:35.488Z</time></trkpt><trkpt lat="37.0524153" lon="15.227859"><ele>11.0</ele><time>2026-04-06T14:04:36.488Z</time></trkpt><trkpt lat="37.0522901" lon="15.2279168"><ele>10.5</ele><time>2026-04-06T14:04:37.488Z</time></trkpt><trkpt lat="37.0521756" lon="15.2279316"><ele>10.0</ele><time>2026-04-06T14:04:38.488Z</time></trkpt><trkpt lat="37.052047" lon="15.2279202"><ele>9.5</ele><time>2026-04-06T14:04:39.488Z</time></trkpt><trkpt lat="37.0519338" lon="15.2278771"><ele>9.0</ele><time>2026-04-06T14:04:40.488Z</time></trkpt><trkpt lat="37.051829" lon="15.2277911"><ele>9.0</ele><time>2026-04-06T14:04:41.488Z</time></trkpt><trkpt lat="37.0517343" lon="15.2276654"><ele>9.0</ele><time>2026-04-06T14:04:42.489Z</time></trkpt><trkpt lat="37.0516749" lon="15.2275237"><ele>9.0</ele><time>2026-04-06T14:04:43.488Z</time></trkpt><trkpt lat="37.0516397" lon="15.2273778"><ele>9.0</ele><time>2026-04-06T14:04:44.488Z</time></trkpt><trkpt lat="37.0516428" lon="15.2272115"><ele>9.0</ele><time>2026-04-06T14:04:45.488Z</time></trkpt><trkpt lat="37.0516737" lon="15.2270454"><ele>9.0</ele><time>2026-04-06T14:04:46.489Z</time></trkpt><trkpt lat="37.0517382" lon="15.2269049"><ele>9.0</ele><time>2026-04-06T14:04:47.488Z</time></trkpt><trkpt lat="37.0518421" lon="15.2267721"><ele>9.0</ele><time>2026-04-06T14:04:48.488Z</time></trkpt><trkpt lat="37.0519601" lon="15.2266521"><ele>9.0</ele><time>2026-04-06T14:04:49.489Z</time></trkpt><trkpt lat="37.052098" lon="15.2265604"><ele>9.0</ele><time>2026-04-06T14:04:50.488Z</time></trkpt><trkpt lat="37.0522456" lon="15.2265135"><ele>9.0</ele><time>2026-04-06T14:04:51.488Z</time></trkpt><trkpt lat="37.0524064" lon="15.226486"><ele>9.666666666666666</ele><time>2026-04-06T14:04:52.488Z</time></trkpt><trkpt lat="37.0525696" lon="15.2264636"><ele>10.333333333333332</ele><time>2026-04-06T14:04:53.488Z</time></trkpt><trkpt lat="37.0527493" lon="15.2264395"><ele>11.0</ele><time>2026-04-06T14:04:54.488Z</time></trkpt><trkpt lat="37.0529476" lon="15.2264169"><ele>11.0</ele><time>2026-04-06T14:04:55.489Z</time></trkpt><trkpt lat="37.0531796" lon="15.2263901"><ele>11.0</ele><time>2026-04-06T14:04:56.488Z</time></trkpt><trkpt lat="37.0534519" lon="15.2263652"><ele>11.5</ele><time>2026-04-06T14:04:57.488Z</time></trkpt><trkpt lat="37.0537695" lon="15.2263517"><ele>12.0</ele><time>2026-04-06T14:04:58.488Z</time></trkpt><trkpt lat="37.0541088" lon="15.22633"><ele>11.5</ele><time>2026-04-06T14:04:59.488Z</time></trkpt><trkpt lat="37.0544643" lon="15.2263211"><ele>11.0</ele><time>2026-04-06T14:05:00.489Z</time></trkpt><trkpt lat="37.0548288" lon="15.2263165"><ele>10.5</ele><time>2026-04-06T14:05:01.488Z</time></trkpt><trkpt lat="37.0551796" lon="15.2263115"><ele>10.0</ele><time>2026-04-06T14:05:02.488Z</time></trkpt><trkpt lat="37.055522" lon="15.226303"><ele>10.0</ele><time>2026-04-06T14:05:03.488Z</time></trkpt><trkpt lat="37.055858" lon="15.226296"><ele>10.0</ele><time>2026-04-06T14:05:04.489Z</time></trkpt><trkpt lat="37.056187" lon="15.226287"><ele>10.0</ele><time>2026-04-06T14:05:05.488Z</time></trkpt><trkpt lat="37.0565114" lon="15.226283"><ele>10.0</ele><time>2026-04-06T14:05:06.488Z</time></trkpt><trkpt lat="37.056833" lon="15.2262735"><ele>11.5</ele><time>2026-04-06T14:05:07.488Z</time></trkpt><trkpt lat="37.0571508" lon="15.2262642"><ele>13.0</ele><time>2026-04-06T14:05:08.488Z</time></trkpt><trkpt lat="37.0574619" lon="15.2262562"><ele>14.0</ele><time>2026-04-06T14:05:09.488Z</time></trkpt><trkpt lat="37.057772" lon="15.2262462"><ele>15.0</ele><time>2026-04-06T14:05:10.488Z</time></trkpt><trkpt lat="37.058074" lon="15.2262365"><ele>18.0</ele><time>2026-04-06T14:05:11.488Z</time></trkpt><trkpt lat="37.0583745" lon="15.2262198"><ele>21.0</ele><time>2026-04-06T14:05:12.488Z</time></trkpt><trkpt lat="37.0586728" lon="15.2262084"><ele>21.0</ele><time>2026-04-06T14:05:13.488Z</time></trkpt><trkpt lat="37.058966" lon="15.2261984"><ele>21.0</ele><time>2026-04-06T14:05:14.488Z</time></trkpt><trkpt lat="37.0592644" lon="15.2261913"><ele>22.0</ele><time>2026-04-06T14:05:15.488Z</time></trkpt><trkpt lat="37.0595657" lon="15.2261887"><ele>23.0</ele><time>2026-04-06T14:05:16.488Z</time></trkpt><trkpt lat="37.0598679" lon="15.2261781"><ele>24.5</ele><time>2026-04-06T14:05:17.489Z</time></trkpt><trkpt lat="37.0601728" lon="15.2261695"><ele>26.0</ele><time>2026-04-06T14:05:18.488Z</time></trkpt><trkpt lat="37.0604772" lon="15.2261661"><ele>25.5</ele><time>2026-04-06T14:05:19.489Z</time></trkpt><trkpt lat="37.0607849" lon="15.2261556"><ele>25.0</ele><time>2026-04-06T14:05:20.488Z</time></trkpt><trkpt lat="37.0610929" lon="15.2261486"><ele>25.0</ele><time>2026-04-06T14:05:21.488Z</time></trkpt><trkpt lat="37.0614005" lon="15.2261369"><ele>25.0</ele><time>2026-04-06T14:05:22.488Z</time></trkpt><trkpt lat="37.0617064" lon="15.2261268"><ele>23.5</ele><time>2026-04-06T14:05:23.488Z</time></trkpt><trkpt lat="37.062014" lon="15.2261188"><ele>22.0</ele><time>2026-04-06T14:05:24.489Z</time></trkpt><trkpt lat="37.0623193" lon="15.2261094"><ele>20.5</ele><time>2026-04-06T14:05:25.488Z</time></trkpt><trkpt lat="37.0626249" lon="15.2261014"><ele>19.0</ele><time>2026-04-06T14:05:26.488Z</time></trkpt><trkpt lat="37.0629306" lon="15.2260929"><ele>19.0</ele><time>2026-04-06T14:05:27.489Z</time></trkpt><trkpt lat="37.0632356" lon="15.226085"><ele>19.0</ele><time>2026-04-06T14:05:28.488Z</time></trkpt><trkpt lat="37.0635411" lon="15.2260723"><ele>18.5</ele><time>2026-04-06T14:05:29.488Z</time></trkpt><trkpt lat="37.0638448" lon="15.2260607"><ele>18.0</ele><time>2026-04-06T14:05:30.488Z</time></trkpt><trkpt lat="37.0641512" lon="15.2260525"><ele>18.0</ele><time>2026-04-06T14:05:31.488Z</time></trkpt><trkpt lat="37.0644564" lon="15.2260418"><ele>18.0</ele><time>2026-04-06T14:05:32.488Z</time></trkpt><trkpt lat="37.0647599" lon="15.2260327"><ele>18.0</ele><time>2026-04-06T14:05:33.489Z</time></trkpt><trkpt lat="37.0650662" lon="15.2260242"><ele>18.0</ele><time>2026-04-06T14:05:34.488Z</time></trkpt><trkpt lat="37.0653717" lon="15.2260172"><ele>18.0</ele><time>2026-04-06T14:05:35.488Z</time></trkpt><trkpt lat="37.0656763" lon="15.2260124"><ele>18.0</ele><time>2026-04-06T14:05:36.488Z</time></trkpt><trkpt lat="37.0659801" lon="15.2260076"><ele>18.0</ele><time>2026-04-06T14:05:37.489Z</time></trkpt><trkpt lat="37.0662862" lon="15.225999"><ele>18.0</ele><time>2026-04-06T14:05:38.489Z</time></trkpt><trkpt lat="37.0665907" lon="15.225989"><ele>17.0</ele><time>2026-04-06T14:05:39.488Z</time></trkpt><trkpt lat="37.0668949" lon="15.2259777"><ele>16.0</ele><time>2026-04-06T14:05:40.488Z</time></trkpt><trkpt lat="37.0671994" lon="15.2259735"><ele>16.5</ele><time>2026-04-06T14:05:41.488Z</time></trkpt><trkpt lat="37.0675063" lon="15.2259688"><ele>17.0</ele><time>2026-04-06T14:05:42.488Z</time></trkpt><trkpt lat="37.0678104" lon="15.2259665"><ele>17.0</ele><time>2026-04-06T14:05:43.488Z</time></trkpt><trkpt lat="37.068115" lon="15.2259594"><ele>17.0</ele><time>2026-04-06T14:05:44.488Z</time></trkpt><trkpt lat="37.0684183" lon="15.2259414"><ele>17.0</ele><time>2026-04-06T14:05:45.488Z</time></trkpt><trkpt lat="37.0687214" lon="15.2259065"><ele>17.0</ele><time>2026-04-06T14:05:46.489Z</time></trkpt><trkpt lat="37.0690219" lon="15.2258534"><ele>17.5</ele><time>2026-04-06T14:05:47.488Z</time></trkpt><trkpt lat="37.0693199" lon="15.2257922"><ele>18.0</ele><time>2026-04-06T14:05:48.489Z</time></trkpt><trkpt lat="37.0696158" lon="15.2257192"><ele>17.5</ele><time>2026-04-06T14:05:49.488Z</time></trkpt><trkpt lat="37.0699104" lon="15.2256295"><ele>17.0</ele><time>2026-04-06T14:05:50.488Z</time></trkpt><trkpt lat="37.0702051" lon="15.2255258"><ele>18.5</ele><time>2026-04-06T14:05:51.488Z</time></trkpt><trkpt lat="37.0704942" lon="15.2254086"><ele>20.0</ele><time>2026-04-06T14:05:52.488Z</time></trkpt><trkpt lat="37.0707802" lon="15.2252705"><ele>21.5</ele><time>2026-04-06T14:05:53.488Z</time></trkpt><trkpt lat="37.0710605" lon="15.2251229"><ele>23.0</ele><time>2026-04-06T14:05:54.489Z</time></trkpt><trkpt lat="37.0713346" lon="15.2249649"><ele>23.0</ele><time>2026-04-06T14:05:55.489Z</time></trkpt><trkpt lat="37.0716057" lon="15.224799"><ele>23.0</ele><time>2026-04-06T14:05:56.488Z</time></trkpt><trkpt lat="37.0718767" lon="15.2246274"><ele>23.0</ele><time>2026-04-06T14:05:57.489Z</time></trkpt><trkpt lat="37.0721466" lon="15.2244516"><ele>23.0</ele><time>2026-04-06T14:05:58.488Z</time></trkpt><trkpt lat="37.0724174" lon="15.2242762"><ele>25.5</ele><time>2026-04-06T14:05:59.488Z</time></trkpt><trkpt lat="37.0726882" lon="15.2241"><ele>28.0</ele><time>2026-04-06T14:06:00.489Z</time></trkpt><trkpt lat="37.0729571" lon="15.2239228"><ele>29.0</ele><time>2026-04-06T14:06:01.488Z</time></trkpt><trkpt lat="37.073225" lon="15.2237419"><ele>30.0</ele><time>2026-04-06T14:06:02.488Z</time></trkpt><trkpt lat="37.0734937" lon="15.2235621"><ele>31.5</ele><time>2026-04-06T14:06:03.488Z</time></trkpt><trkpt lat="37.0737639" lon="15.2233826"><ele>33.0</ele><time>2026-04-06T14:06:04.488Z</time></trkpt><trkpt lat="37.0740361" lon="15.2232068"><ele>36.0</ele><time>2026-04-06T14:06:05.488Z</time></trkpt><trkpt lat="37.0743066" lon="15.2230297"><ele>39.0</ele><time>2026-04-06T14:06:06.489Z</time></trkpt><trkpt lat="37.0745754" lon="15.2228521"><ele>39.0</ele><time>2026-04-06T14:06:07.488Z</time></trkpt><trkpt lat="37.0748437" lon="15.222673"><ele>39.0</ele><time>2026-04-06T14:06:08.488Z</time></trkpt><trkpt lat="37.0751114" lon="15.2224907"><ele>42.5</ele><time>2026-04-06T14:06:09.489Z</time></trkpt><trkpt lat="37.0753803" lon="15.2223098"><ele>46.0</ele><time>2026-04-06T14:06:10.488Z</time></trkpt><trkpt lat="37.0756512" lon="15.2221345"><ele>46.0</ele><time>2026-04-06T14:06:11.488Z</time></trkpt><trkpt lat="37.0759249" lon="15.2219651"><ele>46.0</ele><time>2026-04-06T14:06:12.488Z</time></trkpt><trkpt lat="37.076196" lon="15.2217966"><ele>46.0</ele><time>2026-04-06T14:06:13.488Z</time></trkpt><trkpt lat="37.0764679" lon="15.2216232"><ele>46.0</ele><time>2026-04-06T14:06:14.488Z</time></trkpt><trkpt lat="37.0767385" lon="15.2214494"><ele>45.5</ele><time>2026-04-06T14:06:15.488Z</time></trkpt><trkpt lat="37.0770066" lon="15.2212702"><ele>45.0</ele><time>2026-04-06T14:06:16.488Z</time></trkpt><trkpt lat="37.0772723" lon="15.2210905"><ele>44.5</ele><time>2026-04-06T14:06:17.488Z</time></trkpt><trkpt lat="37.0775404" lon="15.22091"><ele>44.0</ele><time>2026-04-06T14:06:18.488Z</time></trkpt><trkpt lat="37.0778081" lon="15.2207291"><ele>44.5</ele><time>2026-04-06T14:06:19.488Z</time></trkpt><trkpt lat="37.0780742" lon="15.2205439"><ele>45.0</ele><time>2026-04-06T14:06:20.488Z</time></trkpt><trkpt lat="37.0783384" lon="15.2203558"><ele>47.0</ele><time>2026-04-06T14:06:21.488Z</time></trkpt><trkpt lat="37.0786047" lon="15.2201681"><ele>49.0</ele><time>2026-04-06T14:06:22.488Z</time></trkpt><trkpt lat="37.0788694" lon="15.2199791"><ele>53.5</ele><time>2026-04-06T14:06:23.488Z</time></trkpt><trkpt lat="37.079129" lon="15.219783"><ele>58.0</ele><time>2026-04-06T14:06:24.488Z</time></trkpt><trkpt lat="37.0793756" lon="15.2195608"><ele>58.0</ele><time>2026-04-06T14:06:25.489Z</time></trkpt><trkpt lat="37.0796093" lon="15.2193188"><ele>58.0</ele><time>2026-04-06T14:06:26.489Z</time></trkpt><trkpt lat="37.0798335" lon="15.2190559"><ele>60.0</ele><time>2026-04-06T14:06:27.488Z</time></trkpt><trkpt lat="37.0800434" lon="15.2187783"><ele>62.0</ele><time>2026-04-06T14:06:28.488Z</time></trkpt><trkpt lat="37.0802374" lon="15.2184872"><ele>62.0</ele><time>2026-04-06T14:06:29.488Z</time></trkpt><trkpt lat="37.0804207" lon="15.2181839"><ele>62.0</ele><time>2026-04-06T14:06:30.488Z</time></trkpt><trkpt lat="37.0805933" lon="15.2178677"><ele>63.5</ele><time>2026-04-06T14:06:31.488Z</time></trkpt><trkpt lat="37.080751" lon="15.2175444"><ele>65.0</ele><time>2026-04-06T14:06:32.488Z</time></trkpt><trkpt lat="37.0808933" lon="15.2172103"><ele>65.5</ele><time>2026-04-06T14:06:33.489Z</time></trkpt><trkpt lat="37.0810236" lon="15.2168664"><ele>66.0</ele><time>2026-04-06T14:06:34.488Z</time></trkpt><trkpt lat="37.081146" lon="15.216516"><ele>66.0</ele><time>2026-04-06T14:06:35.488Z</time></trkpt><trkpt lat="37.0812563" lon="15.2161598"><ele>66.0</ele><time>2026-04-06T14:06:36.488Z</time></trkpt><trkpt lat="37.0813591" lon="15.2158022"><ele>64.5</ele><time>2026-04-06T14:06:37.488Z</time></trkpt><trkpt lat="37.0814648" lon="15.2154443"><ele>63.0</ele><time>2026-04-06T14:06:38.488Z</time></trkpt><trkpt lat="37.081566" lon="15.2150829"><ele>65.5</ele><time>2026-04-06T14:06:39.488Z</time></trkpt><trkpt lat="37.0816724" lon="15.2147254"><ele>68.0</ele><time>2026-04-06T14:06:40.488Z</time></trkpt><trkpt lat="37.0817801" lon="15.2143727"><ele>68.0</ele><time>2026-04-06T14:06:41.488Z</time></trkpt><trkpt lat="37.0818902" lon="15.2140168"><ele>68.0</ele><time>2026-04-06T14:06:42.488Z</time></trkpt><trkpt lat="37.0819977" lon="15.2136582"><ele>68.0</ele><time>2026-04-06T14:06:43.488Z</time></trkpt><trkpt lat="37.0821003" lon="15.2132988"><ele>68.0</ele><time>2026-04-06T14:06:44.488Z</time></trkpt><trkpt lat="37.0822011" lon="15.2129436"><ele>68.0</ele><time>2026-04-06T14:06:45.489Z</time></trkpt><trkpt lat="37.0823063" lon="15.2125871"><ele>68.0</ele><time>2026-04-06T14:06:46.489Z</time></trkpt><trkpt lat="37.0824235" lon="15.2122348"><ele>69.5</ele><time>2026-04-06T14:06:47.488Z</time></trkpt><trkpt lat="37.0825486" lon="15.2118878"><ele>71.0</ele><time>2026-04-06T14:06:48.488Z</time></trkpt><trkpt lat="37.0826846" lon="15.2115472"><ele>70.5</ele><time>2026-04-06T14:06:49.489Z</time></trkpt><trkpt lat="37.0828285" lon="15.2112086"><ele>70.0</ele><time>2026-04-06T14:06:50.489Z</time></trkpt><trkpt lat="37.0829775" lon="15.2108801"><ele>69.0</ele><time>2026-04-06T14:06:51.488Z</time></trkpt><trkpt lat="37.0831393" lon="15.2105525"><ele>68.0</ele><time>2026-04-06T14:06:52.488Z</time></trkpt><trkpt lat="37.0833048" lon="15.2102374"><ele>70.0</ele><time>2026-04-06T14:06:53.488Z</time></trkpt><trkpt lat="37.0834805" lon="15.2099271"><ele>72.0</ele><time>2026-04-06T14:06:54.488Z</time></trkpt><trkpt lat="37.0836641" lon="15.2096235"><ele>72.0</ele><time>2026-04-06T14:06:55.488Z</time></trkpt><trkpt lat="37.0838516" lon="15.2093283"><ele>72.0</ele><time>2026-04-06T14:06:56.488Z</time></trkpt><trkpt lat="37.0840469" lon="15.2090361"><ele>73.0</ele><time>2026-04-06T14:06:57.488Z</time></trkpt><trkpt lat="37.0842482" lon="15.2087533"><ele>74.0</ele><time>2026-04-06T14:06:58.488Z</time></trkpt><trkpt lat="37.084455" lon="15.2084777"><ele>74.0</ele><time>2026-04-06T14:06:59.488Z</time></trkpt><trkpt lat="37.0846668" lon="15.2082048"><ele>74.0</ele><time>2026-04-06T14:07:00.488Z</time></trkpt><trkpt lat="37.0848852" lon="15.2079377"><ele>74.5</ele><time>2026-04-06T14:07:01.488Z</time></trkpt><trkpt lat="37.0851058" lon="15.2076695"><ele>75.0</ele><time>2026-04-06T14:07:02.488Z</time></trkpt><trkpt lat="37.0853259" lon="15.2074033"><ele>72.0</ele><time>2026-04-06T14:07:03.489Z</time></trkpt><trkpt lat="37.0855424" lon="15.2071358"><ele>69.0</ele><time>2026-04-06T14:07:04.488Z</time></trkpt><trkpt lat="37.0857572" lon="15.2068677"><ele>70.5</ele><time>2026-04-06T14:07:05.488Z</time></trkpt><trkpt lat="37.0859753" lon="15.2065973"><ele>72.0</ele><time>2026-04-06T14:07:06.488Z</time></trkpt><trkpt lat="37.086192" lon="15.2063309"><ele>72.0</ele><time>2026-04-06T14:07:07.488Z</time></trkpt><trkpt lat="37.08641" lon="15.2060605"><ele>72.0</ele><time>2026-04-06T14:07:08.488Z</time></trkpt><trkpt lat="37.0866281" lon="15.2057938"><ele>77.0</ele><time>2026-04-06T14:07:09.488Z</time></trkpt><trkpt lat="37.0868476" lon="15.2055294"><ele>82.0</ele><time>2026-04-06T14:07:10.488Z</time></trkpt><trkpt lat="37.0870662" lon="15.2052645"><ele>82.0</ele><time>2026-04-06T14:07:11.488Z</time></trkpt><trkpt lat="37.0872829" lon="15.2049984"><ele>82.0</ele><time>2026-04-06T14:07:12.489Z</time></trkpt><trkpt lat="37.0875009" lon="15.2047294"><ele>80.0</ele><time>2026-04-06T14:07:13.489Z</time></trkpt><trkpt lat="37.0877189" lon="15.2044603"><ele>78.0</ele><time>2026-04-06T14:07:14.488Z</time></trkpt><trkpt lat="37.0879364" lon="15.2041926"><ele>78.5</ele><time>2026-04-06T14:07:15.489Z</time></trkpt><trkpt lat="37.0881502" lon="15.2039249"><ele>79.0</ele><time>2026-04-06T14:07:16.488Z</time></trkpt><trkpt lat="37.0883644" lon="15.2036586"><ele>79.0</ele><time>2026-04-06T14:07:17.488Z</time></trkpt><trkpt lat="37.0885795" lon="15.203389"><ele>79.0</ele><time>2026-04-06T14:07:18.489Z</time></trkpt><trkpt lat="37.0887953" lon="15.2031217"><ele>78.0</ele><time>2026-04-06T14:07:19.488Z</time></trkpt><trkpt lat="37.089013" lon="15.2028562"><ele>77.0</ele><time>2026-04-06T14:07:20.489Z</time></trkpt><trkpt lat="37.0892325" lon="15.2025901"><ele>81.0</ele><time>2026-04-06T14:07:21.488Z</time></trkpt><trkpt lat="37.0894485" lon="15.2023236"><ele>85.0</ele><time>2026-04-06T14:07:22.488Z</time></trkpt><trkpt lat="37.0896693" lon="15.2020583"><ele>85.0</ele><time>2026-04-06T14:07:23.488Z</time></trkpt><trkpt lat="37.0898899" lon="15.2017943"><ele>85.0</ele><time>2026-04-06T14:07:24.488Z</time></trkpt><trkpt lat="37.0901118" lon="15.2015335"><ele>85.5</ele><time>2026-04-06T14:07:25.488Z</time></trkpt><trkpt lat="37.0903359" lon="15.2012748"><ele>86.0</ele><time>2026-04-06T14:07:26.488Z</time></trkpt><trkpt lat="37.0905606" lon="15.2010165"><ele>87.0</ele><time>2026-04-06T14:07:27.488Z</time></trkpt><trkpt lat="37.0907868" lon="15.2007624"><ele>88.0</ele><time>2026-04-06T14:07:28.489Z</time></trkpt><trkpt lat="37.0910144" lon="15.2005093"><ele>88.0</ele><time>2026-04-06T14:07:29.488Z</time></trkpt><trkpt lat="37.0912447" lon="15.2002607"><ele>88.0</ele><time>2026-04-06T14:07:30.488Z</time></trkpt><trkpt lat="37.091483" lon="15.200023"><ele>89.0</ele><time>2026-04-06T14:07:31.488Z</time></trkpt><trkpt lat="37.0917272" lon="15.1997929"><ele>90.0</ele><time>2026-04-06T14:07:32.488Z</time></trkpt><trkpt lat="37.0919772" lon="15.1995705"><ele>90.0</ele><time>2026-04-06T14:07:33.488Z</time></trkpt><trkpt lat="37.09223" lon="15.1993597"><ele>90.0</ele><time>2026-04-06T14:07:34.489Z</time></trkpt><trkpt lat="37.0924864" lon="15.1991566"><ele>91.5</ele><time>2026-04-06T14:07:35.489Z</time></trkpt><trkpt lat="37.092749" lon="15.1989665"><ele>93.0</ele><time>2026-04-06T14:07:36.488Z</time></trkpt><trkpt lat="37.0930147" lon="15.1987794"><ele>96.0</ele><time>2026-04-06T14:07:37.488Z</time></trkpt><trkpt lat="37.0932849" lon="15.1985998"><ele>99.0</ele><time>2026-04-06T14:07:38.488Z</time></trkpt><trkpt lat="37.0935579" lon="15.1984338"><ele>99.0</ele><time>2026-04-06T14:07:39.488Z</time></trkpt><trkpt lat="37.0938337" lon="15.1982693"><ele>99.0</ele><time>2026-04-06T14:07:40.488Z</time></trkpt><trkpt lat="37.0941136" lon="15.1981133"><ele>97.0</ele><time>2026-04-06T14:07:41.488Z</time></trkpt><trkpt lat="37.0943954" lon="15.1979677"><ele>95.0</ele><time>2026-04-06T14:07:42.488Z</time></trkpt><trkpt lat="37.0946782" lon="15.1978284"><ele>96.0</ele><time>2026-04-06T14:07:43.489Z</time></trkpt><trkpt lat="37.0949632" lon="15.1977019"><ele>97.0</ele><time>2026-04-06T14:07:44.488Z</time></trkpt><trkpt lat="37.0952487" lon="15.1975789"><ele>97.0</ele><time>2026-04-06T14:07:45.488Z</time></trkpt><trkpt lat="37.0955349" lon="15.1974627"><ele>97.0</ele><time>2026-04-06T14:07:46.488Z</time></trkpt><trkpt lat="37.0958257" lon="15.197355"><ele>98.5</ele><time>2026-04-06T14:07:47.488Z</time></trkpt><trkpt lat="37.096119" lon="15.1972583"><ele>100.0</ele><time>2026-04-06T14:07:48.489Z</time></trkpt><trkpt lat="37.0964109" lon="15.1971788"><ele>102.5</ele><time>2026-04-06T14:07:49.489Z</time></trkpt><trkpt lat="37.0967082" lon="15.1971164"><ele>105.0</ele><time>2026-04-06T14:07:50.488Z</time></trkpt><trkpt lat="37.0970065" lon="15.1970611"><ele>105.0</ele><time>2026-04-06T14:07:51.489Z</time></trkpt><trkpt lat="37.0973095" lon="15.1970115"><ele>105.0</ele><time>2026-04-06T14:07:52.488Z</time></trkpt><trkpt lat="37.0976135" lon="15.1969616"><ele>107.5</ele><time>2026-04-06T14:07:53.488Z</time></trkpt><trkpt lat="37.0979167" lon="15.196921"><ele>110.0</ele><time>2026-04-06T14:07:54.488Z</time></trkpt><trkpt lat="37.0982243" lon="15.1968881"><ele>112.5</ele><time>2026-04-06T14:07:55.488Z</time></trkpt><trkpt lat="37.0985277" lon="15.1968601"><ele>115.0</ele><time>2026-04-06T14:07:56.488Z</time></trkpt><trkpt lat="37.0988338" lon="15.1968479"><ele>117.0</ele><time>2026-04-06T14:07:57.488Z</time></trkpt><trkpt lat="37.0991436" lon="15.1968424"><ele>119.0</ele><time>2026-04-06T14:07:58.488Z</time></trkpt><trkpt lat="37.0994484" lon="15.1968508"><ele>119.0</ele><time>2026-04-06T14:07:59.488Z</time></trkpt><trkpt lat="37.0997503" lon="15.1968718"><ele>119.0</ele><time>2026-04-06T14:08:00.488Z</time></trkpt><trkpt lat="37.1000533" lon="15.1968954"><ele>120.0</ele><time>2026-04-06T14:08:01.489Z</time></trkpt><trkpt lat="37.1003561" lon="15.1969168"><ele>121.0</ele><time>2026-04-06T14:08:02.489Z</time></trkpt><trkpt lat="37.1006584" lon="15.1969485"><ele>123.5</ele><time>2026-04-06T14:08:03.488Z</time></trkpt><trkpt lat="37.10096" lon="15.1969903"><ele>126.0</ele><time>2026-04-06T14:08:04.489Z</time></trkpt><trkpt lat="37.101263" lon="15.1970343"><ele>126.0</ele><time>2026-04-06T14:08:05.488Z</time></trkpt><trkpt lat="37.1015661" lon="15.197086"><ele>126.0</ele><time>2026-04-06T14:08:06.489Z</time></trkpt><trkpt lat="37.1018681" lon="15.1971341"><ele>129.0</ele><time>2026-04-06T14:08:07.488Z</time></trkpt><trkpt lat="37.1021704" lon="15.1971807"><ele>132.0</ele><time>2026-04-06T14:08:08.488Z</time></trkpt><trkpt lat="37.1024713" lon="15.1972264"><ele>137.0</ele><time>2026-04-06T14:08:09.489Z</time></trkpt><trkpt lat="37.102775" lon="15.1972729"><ele>142.0</ele><time>2026-04-06T14:08:10.488Z</time></trkpt><trkpt lat="37.1030801" lon="15.197318"><ele>140.5</ele><time>2026-04-06T14:08:11.488Z</time></trkpt><trkpt lat="37.1033859" lon="15.1973662"><ele>139.0</ele><time>2026-04-06T14:08:12.488Z</time></trkpt><trkpt lat="37.1036912" lon="15.1974099"><ele>139.0</ele><time>2026-04-06T14:08:13.488Z</time></trkpt><trkpt lat="37.1039953" lon="15.1974513"><ele>139.0</ele><time>2026-04-06T14:08:14.488Z</time></trkpt><trkpt lat="37.1042982" lon="15.1974866"><ele>138.5</ele><time>2026-04-06T14:08:15.488Z</time></trkpt><trkpt lat="37.1046036" lon="15.1975167"><ele>138.0</ele><time>2026-04-06T14:08:16.488Z</time></trkpt><trkpt lat="37.1049097" lon="15.1975464"><ele>136.5</ele><time>2026-04-06T14:08:17.488Z</time></trkpt><trkpt lat="37.1052178" lon="15.1975715"><ele>135.0</ele><time>2026-04-06T14:08:18.488Z</time></trkpt><trkpt lat="37.1055274" lon="15.1975974"><ele>135.5</ele><time>2026-04-06T14:08:19.488Z</time></trkpt><trkpt lat="37.105835" lon="15.1976121"><ele>136.0</ele><time>2026-04-06T14:08:20.488Z</time></trkpt><trkpt lat="37.1061414" lon="15.1976156"><ele>136.0</ele><time>2026-04-06T14:08:21.489Z</time></trkpt><trkpt lat="37.1064459" lon="15.1976104"><ele>136.0</ele><time>2026-04-06T14:08:22.488Z</time></trkpt><trkpt lat="37.106752" lon="15.1975969"><ele>134.0</ele><time>2026-04-06T14:08:23.488Z</time></trkpt><trkpt lat="37.1070598" lon="15.1975811"><ele>132.0</ele><time>2026-04-06T14:08:24.488Z</time></trkpt><trkpt lat="37.1073644" lon="15.1975609"><ele>130.5</ele><time>2026-04-06T14:08:25.488Z</time></trkpt><trkpt lat="37.1076702" lon="15.1975352"><ele>129.0</ele><time>2026-04-06T14:08:26.488Z</time></trkpt><trkpt lat="37.1079739" lon="15.1975002"><ele>127.5</ele><time>2026-04-06T14:08:27.495Z</time></trkpt><trkpt lat="37.1082784" lon="15.1974596"><ele>126.0</ele><time>2026-04-06T14:08:28.495Z</time></trkpt><trkpt lat="37.1085797" lon="15.1974132"><ele>126.0</ele><time>2026-04-06T14:08:29.496Z</time></trkpt><trkpt lat="37.108882" lon="15.1973577"><ele>126.0</ele><time>2026-04-06T14:08:30.496Z</time></trkpt><trkpt lat="37.1091845" lon="15.1972932"><ele>124.5</ele><time>2026-04-06T14:08:31.496Z</time></trkpt><trkpt lat="37.1094853" lon="15.1972193"><ele>123.0</ele><time>2026-04-06T14:08:32.495Z</time></trkpt><trkpt lat="37.1097832" lon="15.1971373"><ele>123.0</ele><time>2026-04-06T14:08:33.495Z</time></trkpt><trkpt lat="37.1100811" lon="15.1970556"><ele>123.0</ele><time>2026-04-06T14:08:34.495Z</time></trkpt><trkpt lat="37.1103763" lon="15.1969684"><ele>123.0</ele><time>2026-04-06T14:08:35.495Z</time></trkpt><trkpt lat="37.1106705" lon="15.1968834"><ele>123.0</ele><time>2026-04-06T14:08:36.495Z</time></trkpt><trkpt lat="37.110966" lon="15.196795"><ele>123.5</ele><time>2026-04-06T14:08:37.495Z</time></trkpt><trkpt lat="37.1112632" lon="15.1967026"><ele>124.0</ele><time>2026-04-06T14:08:38.496Z</time></trkpt><trkpt lat="37.1115556" lon="15.1966013"><ele>125.5</ele><time>2026-04-06T14:08:39.495Z</time></trkpt><trkpt lat="37.1118453" lon="15.1964873"><ele>127.0</ele><time>2026-04-06T14:08:40.495Z</time></trkpt><trkpt lat="37.1121336" lon="15.1963652"><ele>125.5</ele><time>2026-04-06T14:08:41.496Z</time></trkpt><trkpt lat="37.1124215" lon="15.1962383"><ele>124.0</ele><time>2026-04-06T14:08:42.495Z</time></trkpt><trkpt lat="37.1127084" lon="15.1961069"><ele>124.0</ele><time>2026-04-06T14:08:43.495Z</time></trkpt><trkpt lat="37.1129924" lon="15.1959666"><ele>124.0</ele><time>2026-04-06T14:08:44.495Z</time></trkpt><trkpt lat="37.1132739" lon="15.1958211"><ele>126.0</ele><time>2026-04-06T14:08:45.495Z</time></trkpt><trkpt lat="37.1135519" lon="15.1956689"><ele>128.0</ele><time>2026-04-06T14:08:46.496Z</time></trkpt><trkpt lat="37.1138294" lon="15.1955109"><ele>125.5</ele><time>2026-04-06T14:08:47.495Z</time></trkpt><trkpt lat="37.1141063" lon="15.1953464"><ele>123.0</ele><time>2026-04-06T14:08:48.495Z</time></trkpt><trkpt lat="37.1143843" lon="15.1951756"><ele>123.0</ele><time>2026-04-06T14:08:49.495Z</time></trkpt><trkpt lat="37.1146575" lon="15.1950027"><ele>123.0</ele><time>2026-04-06T14:08:50.495Z</time></trkpt><trkpt lat="37.1149292" lon="15.1948231"><ele>123.5</ele><time>2026-04-06T14:08:51.495Z</time></trkpt><trkpt lat="37.1151936" lon="15.1946388"><ele>124.0</ele><time>2026-04-06T14:08:52.495Z</time></trkpt><trkpt lat="37.1154577" lon="15.1944536"><ele>124.0</ele><time>2026-04-06T14:08:53.495Z</time></trkpt><trkpt lat="37.1157211" lon="15.1942593"><ele>124.0</ele><time>2026-04-06T14:08:54.495Z</time></trkpt><trkpt lat="37.1159838" lon="15.1940553"><ele>123.5</ele><time>2026-04-06T14:08:55.495Z</time></trkpt><trkpt lat="37.1162458" lon="15.1938466"><ele>123.0</ele><time>2026-04-06T14:08:56.495Z</time></trkpt><trkpt lat="37.1165127" lon="15.1936276"><ele>121.5</ele><time>2026-04-06T14:08:57.495Z</time></trkpt><trkpt lat="37.1167839" lon="15.1934041"><ele>120.0</ele><time>2026-04-06T14:08:58.496Z</time></trkpt><trkpt lat="37.1170587" lon="15.1931771"><ele>120.0</ele><time>2026-04-06T14:08:59.495Z</time></trkpt><trkpt lat="37.1173358" lon="15.1929466"><ele>120.0</ele><time>2026-04-06T14:09:00.495Z</time></trkpt><trkpt lat="37.1176097" lon="15.1927151"><ele>120.0</ele><time>2026-04-06T14:09:01.495Z</time></trkpt><trkpt lat="37.1178836" lon="15.1924826"><ele>120.0</ele><time>2026-04-06T14:09:02.495Z</time></trkpt><trkpt lat="37.1181517" lon="15.1922491"><ele>119.0</ele><time>2026-04-06T14:09:03.495Z</time></trkpt><trkpt lat="37.118419" lon="15.1920103"><ele>118.0</ele><time>2026-04-06T14:09:04.495Z</time></trkpt><trkpt lat="37.1186894" lon="15.1917678"><ele>118.0</ele><time>2026-04-06T14:09:05.495Z</time></trkpt><trkpt lat="37.118957" lon="15.1915264"><ele>118.0</ele><time>2026-04-06T14:09:06.495Z</time></trkpt><trkpt lat="37.1192258" lon="15.1912829"><ele>118.0</ele><time>2026-04-06T14:09:07.496Z</time></trkpt><trkpt lat="37.1194946" lon="15.1910431"><ele>118.0</ele><time>2026-04-06T14:09:08.495Z</time></trkpt><trkpt lat="37.1197607" lon="15.1908022"><ele>118.5</ele><time>2026-04-06T14:09:09.495Z</time></trkpt><trkpt lat="37.1200285" lon="15.1905628"><ele>119.0</ele><time>2026-04-06T14:09:10.495Z</time></trkpt><trkpt lat="37.1202983" lon="15.1903315"><ele>119.0</ele><time>2026-04-06T14:09:11.495Z</time></trkpt><trkpt lat="37.1205611" lon="15.1901039"><ele>119.0</ele><time>2026-04-06T14:09:12.496Z</time></trkpt><trkpt lat="37.1208179" lon="15.1898831"><ele>120.0</ele><time>2026-04-06T14:09:13.495Z</time></trkpt><trkpt lat="37.1210658" lon="15.1896571"><ele>121.0</ele><time>2026-04-06T14:09:14.495Z</time></trkpt><trkpt lat="37.1213123" lon="15.189433"><ele>121.0</ele><time>2026-04-06T14:09:15.496Z</time></trkpt><trkpt lat="37.1215569" lon="15.189206"><ele>121.0</ele><time>2026-04-06T14:09:16.496Z</time></trkpt><trkpt lat="37.121805" lon="15.1889829"><ele>120.5</ele><time>2026-04-06T14:09:17.495Z</time></trkpt><trkpt lat="37.1220526" lon="15.1887569"><ele>120.0</ele><time>2026-04-06T14:09:18.495Z</time></trkpt><trkpt lat="37.1222976" lon="15.1885279"><ele>119.5</ele><time>2026-04-06T14:09:19.495Z</time></trkpt><trkpt lat="37.1225424" lon="15.1883013"><ele>119.0</ele><time>2026-04-06T14:09:20.495Z</time></trkpt><trkpt lat="37.1227907" lon="15.1880774"><ele>119.0</ele><time>2026-04-06T14:09:21.495Z</time></trkpt><trkpt lat="37.1230396" lon="15.1878536"><ele>119.0</ele><time>2026-04-06T14:09:22.496Z</time></trkpt><trkpt lat="37.1232843" lon="15.1876298"><ele>119.5</ele><time>2026-04-06T14:09:23.495Z</time></trkpt><trkpt lat="37.1235297" lon="15.1874029"><ele>120.0</ele><time>2026-04-06T14:09:24.496Z</time></trkpt><trkpt lat="37.1237749" lon="15.1871782"><ele>120.0</ele><time>2026-04-06T14:09:25.495Z</time></trkpt><trkpt lat="37.1240184" lon="15.1869469"><ele>120.0</ele><time>2026-04-06T14:09:26.495Z</time></trkpt><trkpt lat="37.1242607" lon="15.186724"><ele>120.5</ele><time>2026-04-06T14:09:27.495Z</time></trkpt><trkpt lat="37.1245058" lon="15.1864959"><ele>121.0</ele><time>2026-04-06T14:09:28.495Z</time></trkpt><trkpt lat="37.124753" lon="15.1862683"><ele>118.5</ele><time>2026-04-06T14:09:29.495Z</time></trkpt><trkpt lat="37.1250001" lon="15.186042"><ele>116.0</ele><time>2026-04-06T14:09:30.496Z</time></trkpt><trkpt lat="37.125244" lon="15.1858179"><ele>117.5</ele><time>2026-04-06T14:09:31.495Z</time></trkpt><trkpt lat="37.1254916" lon="15.1855942"><ele>119.0</ele><time>2026-04-06T14:09:32.495Z</time></trkpt><trkpt lat="37.1257364" lon="15.1853752"><ele>119.0</ele><time>2026-04-06T14:09:33.495Z</time></trkpt><trkpt lat="37.1259818" lon="15.1851527"><ele>119.0</ele><time>2026-04-06T14:09:34.495Z</time></trkpt><trkpt lat="37.1262288" lon="15.1849291"><ele>118.5</ele><time>2026-04-06T14:09:35.495Z</time></trkpt><trkpt lat="37.1264714" lon="15.1847041"><ele>118.0</ele><time>2026-04-06T14:09:36.495Z</time></trkpt><trkpt lat="37.1267177" lon="15.184476"><ele>118.0</ele><time>2026-04-06T14:09:37.496Z</time></trkpt><trkpt lat="37.1269634" lon="15.1842475"><ele>118.0</ele><time>2026-04-06T14:09:38.496Z</time></trkpt><trkpt lat="37.1272093" lon="15.1840243"><ele>117.5</ele><time>2026-04-06T14:09:39.495Z</time></trkpt><trkpt lat="37.1274586" lon="15.183799"><ele>117.0</ele><time>2026-04-06T14:09:40.495Z</time></trkpt><trkpt lat="37.1277057" lon="15.1835707"><ele>117.0</ele><time>2026-04-06T14:09:41.495Z</time></trkpt><trkpt lat="37.1279517" lon="15.1833439"><ele>117.0</ele><time>2026-04-06T14:09:42.496Z</time></trkpt><trkpt lat="37.1281985" lon="15.1831169"><ele>116.5</ele><time>2026-04-06T14:09:43.496Z</time></trkpt><trkpt lat="37.1284457" lon="15.18289"><ele>116.0</ele><time>2026-04-06T14:09:44.495Z</time></trkpt><trkpt lat="37.1286899" lon="15.1826598"><ele>116.0</ele><time>2026-04-06T14:09:45.496Z</time></trkpt><trkpt lat="37.1289338" lon="15.182431"><ele>116.0</ele><time>2026-04-06T14:09:46.496Z</time></trkpt><trkpt lat="37.1291761" lon="15.1822048"><ele>117.0</ele><time>2026-04-06T14:09:47.495Z</time></trkpt><trkpt lat="37.1294182" lon="15.1819792"><ele>118.0</ele><time>2026-04-06T14:09:48.496Z</time></trkpt><trkpt lat="37.1296628" lon="15.1817477"><ele>118.0</ele><time>2026-04-06T14:09:49.496Z</time></trkpt><trkpt lat="37.1299033" lon="15.1815115"><ele>118.0</ele><time>2026-04-06T14:09:50.496Z</time></trkpt><trkpt lat="37.1301391" lon="15.1812677"><ele>118.0</ele><time>2026-04-06T14:09:51.495Z</time></trkpt><trkpt lat="37.1303691" lon="15.1810151"><ele>118.0</ele><time>2026-04-06T14:09:52.496Z</time></trkpt><trkpt lat="37.1305964" lon="15.1807538"><ele>118.5</ele><time>2026-04-06T14:09:53.495Z</time></trkpt><trkpt lat="37.1308113" lon="15.1804841"><ele>119.0</ele><time>2026-04-06T14:09:54.495Z</time></trkpt><trkpt lat="37.1310163" lon="15.1802028"><ele>119.0</ele><time>2026-04-06T14:09:55.495Z</time></trkpt><trkpt lat="37.1312098" lon="15.1799131"><ele>119.0</ele><time>2026-04-06T14:09:56.496Z</time></trkpt><trkpt lat="37.1313964" lon="15.1796152"><ele>119.0</ele><time>2026-04-06T14:09:57.495Z</time></trkpt><trkpt lat="37.1315809" lon="15.1793143"><ele>119.0</ele><time>2026-04-06T14:09:58.496Z</time></trkpt><trkpt lat="37.131759" lon="15.1790076"><ele>120.0</ele><time>2026-04-06T14:09:59.495Z</time></trkpt><trkpt lat="37.1319301" lon="15.1786965"><ele>121.0</ele><time>2026-04-06T14:10:00.495Z</time></trkpt><trkpt lat="37.1320934" lon="15.1783741"><ele>121.5</ele><time>2026-04-06T14:10:01.495Z</time></trkpt><trkpt lat="37.1322502" lon="15.1780501"><ele>122.0</ele><time>2026-04-06T14:10:02.495Z</time></trkpt><trkpt lat="37.1323996" lon="15.1777191"><ele>122.0</ele><time>2026-04-06T14:10:03.495Z</time></trkpt><trkpt lat="37.1325498" lon="15.1773871"><ele>122.0</ele><time>2026-04-06T14:10:04.496Z</time></trkpt><trkpt lat="37.1326992" lon="15.1770572"><ele>123.5</ele><time>2026-04-06T14:10:05.495Z</time></trkpt><trkpt lat="37.132847" lon="15.176728"><ele>125.0</ele><time>2026-04-06T14:10:06.495Z</time></trkpt><trkpt lat="37.1330006" lon="15.1763964"><ele>125.5</ele><time>2026-04-06T14:10:07.495Z</time></trkpt><trkpt lat="37.1331554" lon="15.1760672"><ele>126.0</ele><time>2026-04-06T14:10:08.495Z</time></trkpt><trkpt lat="37.1333067" lon="15.1757368"><ele>126.5</ele><time>2026-04-06T14:10:09.495Z</time></trkpt><trkpt lat="37.1334599" lon="15.1754137"><ele>127.0</ele><time>2026-04-06T14:10:10.495Z</time></trkpt><trkpt lat="37.1336219" lon="15.1750895"><ele>129.0</ele><time>2026-04-06T14:10:11.495Z</time></trkpt><trkpt lat="37.1337886" lon="15.1747697"><ele>131.0</ele><time>2026-04-06T14:10:12.495Z</time></trkpt><trkpt lat="37.133963" lon="15.1744558"><ele>130.5</ele><time>2026-04-06T14:10:13.495Z</time></trkpt><trkpt lat="37.1341394" lon="15.1741466"><ele>130.0</ele><time>2026-04-06T14:10:14.496Z</time></trkpt><trkpt lat="37.134325" lon="15.1738411"><ele>130.0</ele><time>2026-04-06T14:10:15.495Z</time></trkpt><trkpt lat="37.13451" lon="15.1735383"><ele>130.0</ele><time>2026-04-06T14:10:16.496Z</time></trkpt><trkpt lat="37.134699" lon="15.1732399"><ele>130.5</ele><time>2026-04-06T14:10:17.495Z</time></trkpt><trkpt lat="37.1348937" lon="15.1729445"><ele>131.0</ele><time>2026-04-06T14:10:18.495Z</time></trkpt><trkpt lat="37.1350926" lon="15.1726552"><ele>131.0</ele><time>2026-04-06T14:10:19.495Z</time></trkpt><trkpt lat="37.1352959" lon="15.1723722"><ele>131.0</ele><time>2026-04-06T14:10:20.495Z</time></trkpt><trkpt lat="37.1355032" lon="15.1720932"><ele>131.0</ele><time>2026-04-06T14:10:21.495Z</time></trkpt><trkpt lat="37.1357182" lon="15.1718187"><ele>131.0</ele><time>2026-04-06T14:10:22.495Z</time></trkpt><trkpt lat="37.1359374" lon="15.1715527"><ele>130.5</ele><time>2026-04-06T14:10:23.495Z</time></trkpt><trkpt lat="37.1361597" lon="15.1712899"><ele>130.0</ele><time>2026-04-06T14:10:24.495Z</time></trkpt><trkpt lat="37.1363883" lon="15.1710328"><ele>129.5</ele><time>2026-04-06T14:10:25.495Z</time></trkpt><trkpt lat="37.136621" lon="15.1707863"><ele>129.0</ele><time>2026-04-06T14:10:26.495Z</time></trkpt><trkpt lat="37.1368583" lon="15.1705427"><ele>132.0</ele><time>2026-04-06T14:10:27.495Z</time></trkpt><trkpt lat="37.1370991" lon="15.1703045"><ele>135.0</ele><time>2026-04-06T14:10:28.495Z</time></trkpt><trkpt lat="37.1373427" lon="15.1700709"><ele>134.0</ele><time>2026-04-06T14:10:29.495Z</time></trkpt><trkpt lat="37.1375899" lon="15.1698451"><ele>133.0</ele><time>2026-04-06T14:10:30.495Z</time></trkpt><trkpt lat="37.1378387" lon="15.1696276"><ele>133.0</ele><time>2026-04-06T14:10:31.495Z</time></trkpt><trkpt lat="37.1380946" lon="15.1694189"><ele>133.0</ele><time>2026-04-06T14:10:32.495Z</time></trkpt><trkpt lat="37.1383563" lon="15.169216"><ele>133.0</ele><time>2026-04-06T14:10:33.495Z</time></trkpt><trkpt lat="37.1386224" lon="15.169019"><ele>133.0</ele><time>2026-04-06T14:10:34.495Z</time></trkpt><trkpt lat="37.1388927" lon="15.1688354"><ele>131.0</ele><time>2026-04-06T14:10:35.495Z</time></trkpt><trkpt lat="37.139165" lon="15.1686605"><ele>129.0</ele><time>2026-04-06T14:10:36.495Z</time></trkpt><trkpt lat="37.1394389" lon="15.1684893"><ele>129.0</ele><time>2026-04-06T14:10:37.495Z</time></trkpt><trkpt lat="37.1397153" lon="15.1683239"><ele>129.0</ele><time>2026-04-06T14:10:38.495Z</time></trkpt><trkpt lat="37.1399971" lon="15.1681663"><ele>127.0</ele><time>2026-04-06T14:10:39.495Z</time></trkpt><trkpt lat="37.1402804" lon="15.1680268"><ele>125.0</ele><time>2026-04-06T14:10:40.495Z</time></trkpt><trkpt lat="37.1405672" lon="15.1678977"><ele>118.5</ele><time>2026-04-06T14:10:41.496Z</time></trkpt><trkpt lat="37.1408548" lon="15.1677809"><ele>112.0</ele><time>2026-04-06T14:10:42.495Z</time></trkpt><trkpt lat="37.1411462" lon="15.1676727"><ele>112.0</ele><time>2026-04-06T14:10:43.495Z</time></trkpt><trkpt lat="37.1414384" lon="15.1675745"><ele>112.0</ele><time>2026-04-06T14:10:44.495Z</time></trkpt><trkpt lat="37.1417349" lon="15.1674867"><ele>112.5</ele><time>2026-04-06T14:10:45.495Z</time></trkpt><trkpt lat="37.1420345" lon="15.167412"><ele>113.0</ele><time>2026-04-06T14:10:46.495Z</time></trkpt><trkpt lat="37.1423369" lon="15.1673453"><ele>116.0</ele><time>2026-04-06T14:10:47.495Z</time></trkpt><trkpt lat="37.1426411" lon="15.167289"><ele>119.0</ele><time>2026-04-06T14:10:48.495Z</time></trkpt><trkpt lat="37.1429473" lon="15.1672432"><ele>116.0</ele><time>2026-04-06T14:10:49.495Z</time></trkpt><trkpt lat="37.143251" lon="15.1672001"><ele>113.0</ele><time>2026-04-06T14:10:50.495Z</time></trkpt><trkpt lat="37.1435518" lon="15.167175"><ele>113.0</ele><time>2026-04-06T14:10:51.495Z</time></trkpt><trkpt lat="37.1438561" lon="15.1671589"><ele>113.0</ele><time>2026-04-06T14:10:52.496Z</time></trkpt><trkpt lat="37.1441628" lon="15.167145"><ele>107.5</ele><time>2026-04-06T14:10:53.496Z</time></trkpt><trkpt lat="37.1444709" lon="15.1671369"><ele>102.0</ele><time>2026-04-06T14:10:54.495Z</time></trkpt><trkpt lat="37.1447755" lon="15.1671415"><ele>102.5</ele><time>2026-04-06T14:10:55.495Z</time></trkpt><trkpt lat="37.1450817" lon="15.1671548"><ele>103.0</ele><time>2026-04-06T14:10:56.495Z</time></trkpt><trkpt lat="37.1453878" lon="15.1671768"><ele>103.0</ele><time>2026-04-06T14:10:57.496Z</time></trkpt><trkpt lat="37.1456936" lon="15.1672046"><ele>103.0</ele><time>2026-04-06T14:10:58.496Z</time></trkpt><trkpt lat="37.1459929" lon="15.1672324"><ele>104.0</ele><time>2026-04-06T14:10:59.496Z</time></trkpt><trkpt lat="37.1462975" lon="15.1672591"><ele>105.0</ele><time>2026-04-06T14:11:00.495Z</time></trkpt><trkpt lat="37.1466015" lon="15.1672891"><ele>107.5</ele><time>2026-04-06T14:11:01.496Z</time></trkpt><trkpt lat="37.1469093" lon="15.1673177"><ele>110.0</ele><time>2026-04-06T14:11:02.495Z</time></trkpt><trkpt lat="37.1472138" lon="15.1673413"><ele>108.5</ele><time>2026-04-06T14:11:03.495Z</time></trkpt><trkpt lat="37.1475173" lon="15.1673617"><ele>107.0</ele><time>2026-04-06T14:11:04.496Z</time></trkpt><trkpt lat="37.1478208" lon="15.1673814"><ele>107.0</ele><time>2026-04-06T14:11:05.496Z</time></trkpt><trkpt lat="37.1481251" lon="15.1673892"><ele>107.0</ele><time>2026-04-06T14:11:06.495Z</time></trkpt><trkpt lat="37.1484301" lon="15.1673906"><ele>105.0</ele><time>2026-04-06T14:11:07.495Z</time></trkpt><trkpt lat="37.1487345" lon="15.1673873"><ele>103.0</ele><time>2026-04-06T14:11:08.495Z</time></trkpt><trkpt lat="37.1490395" lon="15.1673687"><ele>103.0</ele><time>2026-04-06T14:11:09.495Z</time></trkpt><trkpt lat="37.1493438" lon="15.1673402"><ele>103.0</ele><time>2026-04-06T14:11:10.496Z</time></trkpt><trkpt lat="37.1496469" lon="15.1673021"><ele>101.5</ele><time>2026-04-06T14:11:11.496Z</time></trkpt><trkpt lat="37.1499493" lon="15.1672611"><ele>100.0</ele><time>2026-04-06T14:11:12.495Z</time></trkpt><trkpt lat="37.1502509" lon="15.1672096"><ele>100.0</ele><time>2026-04-06T14:11:13.495Z</time></trkpt><trkpt lat="37.1505512" lon="15.1671508"><ele>100.0</ele><time>2026-04-06T14:11:14.495Z</time></trkpt><trkpt lat="37.1508488" lon="15.1670785"><ele>99.0</ele><time>2026-04-06T14:11:15.496Z</time></trkpt><trkpt lat="37.1511476" lon="15.1669936"><ele>98.0</ele><time>2026-04-06T14:11:16.495Z</time></trkpt><trkpt lat="37.151445" lon="15.1668991"><ele>96.5</ele><time>2026-04-06T14:11:17.495Z</time></trkpt><trkpt lat="37.1517373" lon="15.1667964"><ele>95.0</ele><time>2026-04-06T14:11:18.495Z</time></trkpt><trkpt lat="37.1520274" lon="15.1666854"><ele>95.0</ele><time>2026-04-06T14:11:19.495Z</time></trkpt><trkpt lat="37.1523191" lon="15.16657"><ele>95.0</ele><time>2026-04-06T14:11:20.496Z</time></trkpt><trkpt lat="37.1526095" lon="15.1664495"><ele>95.0</ele><time>2026-04-06T14:11:21.495Z</time></trkpt><trkpt lat="37.152897" lon="15.1663174"><ele>95.0</ele><time>2026-04-06T14:11:22.495Z</time></trkpt><trkpt lat="37.153178" lon="15.1661739"><ele>95.0</ele><time>2026-04-06T14:11:23.495Z</time></trkpt><trkpt lat="37.1534598" lon="15.1660264"><ele>95.0</ele><time>2026-04-06T14:11:24.495Z</time></trkpt><trkpt lat="37.153748" lon="15.1658631"><ele>94.0</ele><time>2026-04-06T14:11:25.495Z</time></trkpt><trkpt lat="37.15405" lon="15.1656892"><ele>93.0</ele><time>2026-04-06T14:11:26.495Z</time></trkpt><trkpt lat="37.1543528" lon="15.1655033"><ele>93.0</ele><time>2026-04-06T14:11:27.495Z</time></trkpt><trkpt lat="37.1546618" lon="15.1653191"><ele>93.0</ele><time>2026-04-06T14:11:28.495Z</time></trkpt><trkpt lat="37.1549667" lon="15.1651389"><ele>93.0</ele><time>2026-04-06T14:11:29.495Z</time></trkpt><trkpt lat="37.1552688" lon="15.1649716"><ele>93.0</ele><time>2026-04-06T14:11:30.496Z</time></trkpt><trkpt lat="37.1555659" lon="15.1648048"><ele>93.0</ele><time>2026-04-06T14:11:31.496Z</time></trkpt><trkpt lat="37.155857" lon="15.1646443"><ele>93.0</ele><time>2026-04-06T14:11:32.495Z</time></trkpt><trkpt lat="37.1561427" lon="15.1644857"><ele>93.0</ele><time>2026-04-06T14:11:33.495Z</time></trkpt><trkpt lat="37.1564242" lon="15.1643333"><ele>93.0</ele><time>2026-04-06T14:11:34.495Z</time></trkpt><trkpt lat="37.1567072" lon="15.1641916"><ele>93.0</ele><time>2026-04-06T14:11:35.495Z</time></trkpt><trkpt lat="37.1569902" lon="15.1640543"><ele>93.0</ele><time>2026-04-06T14:11:36.496Z</time></trkpt><trkpt lat="37.1572754" lon="15.1639262"><ele>93.5</ele><time>2026-04-06T14:11:37.495Z</time></trkpt><trkpt lat="37.1575641" lon="15.1638084"><ele>94.0</ele><time>2026-04-06T14:11:38.495Z</time></trkpt><trkpt lat="37.1578551" lon="15.1637002"><ele>94.0</ele><time>2026-04-06T14:11:39.496Z</time></trkpt><trkpt lat="37.1581477" lon="15.1635979"><ele>94.0</ele><time>2026-04-06T14:11:40.495Z</time></trkpt><trkpt lat="37.1584451" lon="15.1635108"><ele>93.5</ele><time>2026-04-06T14:11:41.495Z</time></trkpt><trkpt lat="37.1587444" lon="15.1634265"><ele>93.0</ele><time>2026-04-06T14:11:42.495Z</time></trkpt><trkpt lat="37.1590417" lon="15.1633454"><ele>92.0</ele><time>2026-04-06T14:11:43.495Z</time></trkpt><trkpt lat="37.1593417" lon="15.1632647"><ele>91.0</ele><time>2026-04-06T14:11:44.495Z</time></trkpt><trkpt lat="37.1596418" lon="15.1631837"><ele>92.5</ele><time>2026-04-06T14:11:45.495Z</time></trkpt><trkpt lat="37.1599396" lon="15.1631083"><ele>94.0</ele><time>2026-04-06T14:11:46.496Z</time></trkpt><trkpt lat="37.1602399" lon="15.163029"><ele>94.0</ele><time>2026-04-06T14:11:47.495Z</time></trkpt><trkpt lat="37.1605405" lon="15.162945"><ele>94.0</ele><time>2026-04-06T14:11:48.495Z</time></trkpt><trkpt lat="37.1608423" lon="15.1628571"><ele>92.0</ele><time>2026-04-06T14:11:49.495Z</time></trkpt><trkpt lat="37.1611409" lon="15.1627705"><ele>90.0</ele><time>2026-04-06T14:11:50.496Z</time></trkpt><trkpt lat="37.1614373" lon="15.1626885"><ele>90.0</ele><time>2026-04-06T14:11:51.495Z</time></trkpt><trkpt lat="37.161733" lon="15.1626015"><ele>90.0</ele><time>2026-04-06T14:11:52.495Z</time></trkpt><trkpt lat="37.1620295" lon="15.1625132"><ele>90.0</ele><time>2026-04-06T14:11:53.495Z</time></trkpt><trkpt lat="37.1623262" lon="15.1624269"><ele>90.0</ele><time>2026-04-06T14:11:54.495Z</time></trkpt><trkpt lat="37.1626246" lon="15.1623438"><ele>90.0</ele><time>2026-04-06T14:11:55.495Z</time></trkpt><trkpt lat="37.1629207" lon="15.1622575"><ele>90.0</ele><time>2026-04-06T14:11:56.495Z</time></trkpt><trkpt lat="37.1632182" lon="15.1621704"><ele>90.0</ele><time>2026-04-06T14:11:57.495Z</time></trkpt><trkpt lat="37.1635131" lon="15.1620816"><ele>90.0</ele><time>2026-04-06T14:11:58.495Z</time></trkpt><trkpt lat="37.1638062" lon="15.1619907"><ele>86.0</ele><time>2026-04-06T14:11:59.495Z</time></trkpt><trkpt lat="37.1641017" lon="15.1618951"><ele>82.0</ele><time>2026-04-06T14:12:00.495Z</time></trkpt><trkpt lat="37.1643954" lon="15.1617966"><ele>82.0</ele><time>2026-04-06T14:12:01.495Z</time></trkpt><trkpt lat="37.1646886" lon="15.1616878"><ele>82.0</ele><time>2026-04-06T14:12:02.496Z</time></trkpt><trkpt lat="37.164979" lon="15.1615724"><ele>79.0</ele><time>2026-04-06T14:12:03.495Z</time></trkpt><trkpt lat="37.1652672" lon="15.161458"><ele>76.0</ele><time>2026-04-06T14:12:04.495Z</time></trkpt><trkpt lat="37.1655585" lon="15.1613388"><ele>82.5</ele><time>2026-04-06T14:12:05.495Z</time></trkpt><trkpt lat="37.1658484" lon="15.1612182"><ele>89.0</ele><time>2026-04-06T14:12:06.495Z</time></trkpt><trkpt lat="37.1661354" lon="15.1610955"><ele>89.0</ele><time>2026-04-06T14:12:07.496Z</time></trkpt><trkpt lat="37.166423" lon="15.1609657"><ele>89.0</ele><time>2026-04-06T14:12:08.496Z</time></trkpt><trkpt lat="37.1667119" lon="15.1608376"><ele>89.5</ele><time>2026-04-06T14:12:09.495Z</time></trkpt><trkpt lat="37.1670016" lon="15.1607105"><ele>90.0</ele><time>2026-04-06T14:12:10.495Z</time></trkpt><trkpt lat="37.1672911" lon="15.1605783"><ele>92.0</ele><time>2026-04-06T14:12:11.495Z</time></trkpt><trkpt lat="37.1675768" lon="15.160445"><ele>94.0</ele><time>2026-04-06T14:12:12.495Z</time></trkpt><trkpt lat="37.1678618" lon="15.1603115"><ele>94.0</ele><time>2026-04-06T14:12:13.495Z</time></trkpt><trkpt lat="37.1681476" lon="15.1601755"><ele>94.0</ele><time>2026-04-06T14:12:14.495Z</time></trkpt><trkpt lat="37.1684325" lon="15.1600411"><ele>93.5</ele><time>2026-04-06T14:12:15.495Z</time></trkpt><trkpt lat="37.1687183" lon="15.1599075"><ele>93.0</ele><time>2026-04-06T14:12:16.496Z</time></trkpt><trkpt lat="37.1690034" lon="15.1597727"><ele>95.0</ele><time>2026-04-06T14:12:17.495Z</time></trkpt><trkpt lat="37.1692858" lon="15.1596366"><ele>97.0</ele><time>2026-04-06T14:12:18.495Z</time></trkpt><trkpt lat="37.1695677" lon="15.1594993"><ele>97.0</ele><time>2026-04-06T14:12:19.495Z</time></trkpt><trkpt lat="37.1698517" lon="15.1593599"><ele>97.0</ele><time>2026-04-06T14:12:20.496Z</time></trkpt><trkpt lat="37.1701371" lon="15.1592212"><ele>97.0</ele><time>2026-04-06T14:12:21.496Z</time></trkpt><trkpt lat="37.1704242" lon="15.1590897"><ele>97.0</ele><time>2026-04-06T14:12:22.495Z</time></trkpt><trkpt lat="37.1707099" lon="15.1589601"><ele>96.5</ele><time>2026-04-06T14:12:23.495Z</time></trkpt><trkpt lat="37.1709967" lon="15.1588309"><ele>96.0</ele><time>2026-04-06T14:12:24.495Z</time></trkpt><trkpt lat="37.1712842" lon="15.1586961"><ele>96.5</ele><time>2026-04-06T14:12:25.495Z</time></trkpt><trkpt lat="37.1715678" lon="15.1585652"><ele>97.0</ele><time>2026-04-06T14:12:26.495Z</time></trkpt><trkpt lat="37.1718547" lon="15.1584279"><ele>97.0</ele><time>2026-04-06T14:12:27.496Z</time></trkpt><trkpt lat="37.1721393" lon="15.1582948"><ele>97.0</ele><time>2026-04-06T14:12:28.496Z</time></trkpt><trkpt lat="37.1724262" lon="15.1581599"><ele>98.5</ele><time>2026-04-06T14:12:29.495Z</time></trkpt><trkpt lat="37.1727127" lon="15.1580235"><ele>100.0</ele><time>2026-04-06T14:12:30.495Z</time></trkpt><trkpt lat="37.1729978" lon="15.1578886"><ele>100.5</ele><time>2026-04-06T14:12:31.495Z</time></trkpt><trkpt lat="37.1732821" lon="15.1577545"><ele>101.0</ele><time>2026-04-06T14:12:32.495Z</time></trkpt><trkpt lat="37.1735639" lon="15.157621"><ele>101.0</ele><time>2026-04-06T14:12:33.495Z</time></trkpt><trkpt lat="37.1738468" lon="15.1574847"><ele>101.0</ele><time>2026-04-06T14:12:34.495Z</time></trkpt><trkpt lat="37.1741304" lon="15.157346"><ele>101.0</ele><time>2026-04-06T14:12:35.496Z</time></trkpt><trkpt lat="37.1744129" lon="15.1572027"><ele>101.0</ele><time>2026-04-06T14:12:36.495Z</time></trkpt><trkpt lat="37.1746983" lon="15.1570635"><ele>100.5</ele><time>2026-04-06T14:12:37.495Z</time></trkpt><trkpt lat="37.1749872" lon="15.1569268"><ele>100.0</ele><time>2026-04-06T14:12:38.495Z</time></trkpt><trkpt lat="37.1752744" lon="15.1567939"><ele>100.0</ele><time>2026-04-06T14:12:39.495Z</time></trkpt><trkpt lat="37.1755627" lon="15.1566591"><ele>100.0</ele><time>2026-04-06T14:12:40.495Z</time></trkpt><trkpt lat="37.1758489" lon="15.1565259"><ele>101.5</ele><time>2026-04-06T14:12:41.496Z</time></trkpt><trkpt lat="37.1761337" lon="15.1563886"><ele>103.0</ele><time>2026-04-06T14:12:42.495Z</time></trkpt><trkpt lat="37.1764183" lon="15.1562528"><ele>104.0</ele><time>2026-04-06T14:12:43.495Z</time></trkpt><trkpt lat="37.1767021" lon="15.1561221"><ele>105.0</ele><time>2026-04-06T14:12:44.495Z</time></trkpt><trkpt lat="37.1769864" lon="15.1559888"><ele>105.0</ele><time>2026-04-06T14:12:45.495Z</time></trkpt><trkpt lat="37.1772714" lon="15.1558541"><ele>105.0</ele><time>2026-04-06T14:12:46.495Z</time></trkpt><trkpt lat="37.1775558" lon="15.1557199"><ele>104.0</ele><time>2026-04-06T14:12:47.495Z</time></trkpt><trkpt lat="37.1778439" lon="15.1555838"><ele>103.0</ele><time>2026-04-06T14:12:48.495Z</time></trkpt><trkpt lat="37.1781317" lon="15.1554524"><ele>102.0</ele><time>2026-04-06T14:12:49.495Z</time></trkpt><trkpt lat="37.1784147" lon="15.1553226"><ele>101.0</ele><time>2026-04-06T14:12:50.495Z</time></trkpt><trkpt lat="37.1787019" lon="15.1551881"><ele>101.0</ele><time>2026-04-06T14:12:51.496Z</time></trkpt><trkpt lat="37.1789862" lon="15.1550563"><ele>101.0</ele><time>2026-04-06T14:12:52.495Z</time></trkpt><trkpt lat="37.1792719" lon="15.154921"><ele>104.0</ele><time>2026-04-06T14:12:53.496Z</time></trkpt><trkpt lat="37.1795563" lon="15.1547865"><ele>107.0</ele><time>2026-04-06T14:12:54.495Z</time></trkpt><trkpt lat="37.1798414" lon="15.1546524"><ele>105.5</ele><time>2026-04-06T14:12:55.495Z</time></trkpt><trkpt lat="37.1801265" lon="15.1545166"><ele>104.0</ele><time>2026-04-06T14:12:56.496Z</time></trkpt><trkpt lat="37.1804113" lon="15.1543835"><ele>104.5</ele><time>2026-04-06T14:12:57.496Z</time></trkpt><trkpt lat="37.1806963" lon="15.1542471"><ele>105.0</ele><time>2026-04-06T14:12:58.496Z</time></trkpt><trkpt lat="37.1809809" lon="15.1541099"><ele>106.5</ele><time>2026-04-06T14:12:59.496Z</time></trkpt><trkpt lat="37.1812647" lon="15.1539756"><ele>108.0</ele><time>2026-04-06T14:13:00.495Z</time></trkpt><trkpt lat="37.1815509" lon="15.1538349"><ele>108.0</ele><time>2026-04-06T14:13:01.495Z</time></trkpt><trkpt lat="37.1818383" lon="15.1537019"><ele>108.0</ele><time>2026-04-06T14:13:02.495Z</time></trkpt><trkpt lat="37.1821218" lon="15.1535677"><ele>107.5</ele><time>2026-04-06T14:13:03.495Z</time></trkpt><trkpt lat="37.1824056" lon="15.1534369"><ele>107.0</ele><time>2026-04-06T14:13:04.495Z</time></trkpt><trkpt lat="37.1826914" lon="15.1533027"><ele>107.0</ele><time>2026-04-06T14:13:05.495Z</time></trkpt><trkpt lat="37.1829773" lon="15.1531744"><ele>107.0</ele><time>2026-04-06T14:13:06.495Z</time></trkpt><trkpt lat="37.183263" lon="15.1530399"><ele>111.5</ele><time>2026-04-06T14:13:07.495Z</time></trkpt><trkpt lat="37.1835487" lon="15.1529051"><ele>116.0</ele><time>2026-04-06T14:13:08.496Z</time></trkpt><trkpt lat="37.1838351" lon="15.1527709"><ele>117.0</ele><time>2026-04-06T14:13:09.495Z</time></trkpt><trkpt lat="37.1841189" lon="15.1526398"><ele>118.0</ele><time>2026-04-06T14:13:10.495Z</time></trkpt><trkpt lat="37.1844076" lon="15.1525088"><ele>118.0</ele><time>2026-04-06T14:13:11.496Z</time></trkpt><trkpt lat="37.1846928" lon="15.1523746"><ele>118.0</ele><time>2026-04-06T14:13:12.495Z</time></trkpt><trkpt lat="37.1849747" lon="15.1522487"><ele>120.5</ele><time>2026-04-06T14:13:13.495Z</time></trkpt><trkpt lat="37.1852467" lon="15.1521198"><ele>123.0</ele><time>2026-04-06T14:13:14.495Z</time></trkpt><trkpt lat="37.1855207" lon="15.1519929"><ele>123.5</ele><time>2026-04-06T14:13:15.495Z</time></trkpt><trkpt lat="37.1857968" lon="15.151868"><ele>124.0</ele><time>2026-04-06T14:13:16.495Z</time></trkpt><trkpt lat="37.1860826" lon="15.1517289"><ele>124.0</ele><time>2026-04-06T14:13:17.496Z</time></trkpt><trkpt lat="37.18638" lon="15.1515786"><ele>124.0</ele><time>2026-04-06T14:13:18.495Z</time></trkpt><trkpt lat="37.1866855" lon="15.1514306"><ele>127.5</ele><time>2026-04-06T14:13:19.495Z</time></trkpt><trkpt lat="37.1869957" lon="15.1512897"><ele>131.0</ele><time>2026-04-06T14:13:20.495Z</time></trkpt><trkpt lat="37.1873031" lon="15.1511472"><ele>130.0</ele><time>2026-04-06T14:13:21.495Z</time></trkpt><trkpt lat="37.1876092" lon="15.1510071"><ele>129.0</ele><time>2026-04-06T14:13:22.495Z</time></trkpt><trkpt lat="37.1879137" lon="15.1508687"><ele>129.0</ele><time>2026-04-06T14:13:23.495Z</time></trkpt><trkpt lat="37.1882165" lon="15.1507284"><ele>129.0</ele><time>2026-04-06T14:13:24.495Z</time></trkpt><trkpt lat="37.1885163" lon="15.1505922"><ele>129.0</ele><time>2026-04-06T14:13:25.496Z</time></trkpt><trkpt lat="37.1888147" lon="15.1504537"><ele>129.0</ele><time>2026-04-06T14:13:26.495Z</time></trkpt><trkpt lat="37.1891118" lon="15.1503164"><ele>125.5</ele><time>2026-04-06T14:13:27.495Z</time></trkpt><trkpt lat="37.1894043" lon="15.1501754"><ele>122.0</ele><time>2026-04-06T14:13:28.495Z</time></trkpt><trkpt lat="37.1897048" lon="15.1500459"><ele>122.5</ele><time>2026-04-06T14:13:29.495Z</time></trkpt><trkpt lat="37.1900011" lon="15.1499155"><ele>123.0</ele><time>2026-04-06T14:13:30.495Z</time></trkpt><trkpt lat="37.1902984" lon="15.1497843"><ele>123.0</ele><time>2026-04-06T14:13:31.495Z</time></trkpt><trkpt lat="37.1905916" lon="15.1496517"><ele>123.0</ele><time>2026-04-06T14:13:32.495Z</time></trkpt><trkpt lat="37.1908851" lon="15.1495184"><ele>120.0</ele><time>2026-04-06T14:13:33.495Z</time></trkpt><trkpt lat="37.1911783" lon="15.1493824"><ele>117.0</ele><time>2026-04-06T14:13:34.495Z</time></trkpt><trkpt lat="37.1914672" lon="15.1492464"><ele>116.0</ele><time>2026-04-06T14:13:35.496Z</time></trkpt><trkpt lat="37.191755" lon="15.1491141"><ele>115.0</ele><time>2026-04-06T14:13:36.495Z</time></trkpt><trkpt lat="37.1920416" lon="15.1489794"><ele>115.0</ele><time>2026-04-06T14:13:37.495Z</time></trkpt><trkpt lat="37.1923293" lon="15.1488467"><ele>115.0</ele><time>2026-04-06T14:13:38.496Z</time></trkpt><trkpt lat="37.1926182" lon="15.1487205"><ele>113.5</ele><time>2026-04-06T14:13:39.496Z</time></trkpt><trkpt lat="37.1929071" lon="15.1485966"><ele>112.0</ele><time>2026-04-06T14:13:40.495Z</time></trkpt><trkpt lat="37.1931955" lon="15.1484792"><ele>110.5</ele><time>2026-04-06T14:13:41.496Z</time></trkpt><trkpt lat="37.1934893" lon="15.1483662"><ele>109.0</ele><time>2026-04-06T14:13:42.495Z</time></trkpt><trkpt lat="37.1937844" lon="15.1482599"><ele>108.0</ele><time>2026-04-06T14:13:43.495Z</time></trkpt><trkpt lat="37.194082" lon="15.148164"><ele>107.0</ele><time>2026-04-06T14:13:44.496Z</time></trkpt><trkpt lat="37.1943793" lon="15.1480777"><ele>107.0</ele><time>2026-04-06T14:13:45.495Z</time></trkpt><trkpt lat="37.1946759" lon="15.1480059"><ele>107.0</ele><time>2026-04-06T14:13:46.495Z</time></trkpt><trkpt lat="37.1949771" lon="15.1479519"><ele>103.5</ele><time>2026-04-06T14:13:47.495Z</time></trkpt><trkpt lat="37.1952836" lon="15.1479032"><ele>100.0</ele><time>2026-04-06T14:13:48.496Z</time></trkpt><trkpt lat="37.1955856" lon="15.1478635"><ele>98.5</ele><time>2026-04-06T14:13:49.495Z</time></trkpt><trkpt lat="37.1958913" lon="15.1478299"><ele>97.0</ele><time>2026-04-06T14:13:50.496Z</time></trkpt><trkpt lat="37.1961988" lon="15.1478084"><ele>97.0</ele><time>2026-04-06T14:13:51.495Z</time></trkpt><trkpt lat="37.1965034" lon="15.1478001"><ele>97.0</ele><time>2026-04-06T14:13:52.496Z</time></trkpt><trkpt lat="37.1968059" lon="15.1478028"><ele>97.0</ele><time>2026-04-06T14:13:53.496Z</time></trkpt><trkpt lat="37.1971099" lon="15.1478178"><ele>97.0</ele><time>2026-04-06T14:13:54.495Z</time></trkpt><trkpt lat="37.1974126" lon="15.1478441"><ele>94.0</ele><time>2026-04-06T14:13:55.495Z</time></trkpt><trkpt lat="37.1977167" lon="15.1478769"><ele>91.0</ele><time>2026-04-06T14:13:56.495Z</time></trkpt><trkpt lat="37.1980205" lon="15.147926"><ele>87.5</ele><time>2026-04-06T14:13:57.495Z</time></trkpt><trkpt lat="37.1983254" lon="15.1479867"><ele>84.0</ele><time>2026-04-06T14:13:58.495Z</time></trkpt><trkpt lat="37.1986274" lon="15.1480487"><ele>84.0</ele><time>2026-04-06T14:13:59.495Z</time></trkpt><trkpt lat="37.198926" lon="15.1481175"><ele>84.0</ele><time>2026-04-06T14:14:00.495Z</time></trkpt><trkpt lat="37.1992231" lon="15.1481899"><ele>80.0</ele><time>2026-04-06T14:14:01.495Z</time></trkpt><trkpt lat="37.1995189" lon="15.1482676"><ele>76.0</ele><time>2026-04-06T14:14:02.496Z</time></trkpt><trkpt lat="37.1998149" lon="15.1483413"><ele>71.0</ele><time>2026-04-06T14:14:03.495Z</time></trkpt><trkpt lat="37.2001101" lon="15.1484161"><ele>66.0</ele><time>2026-04-06T14:14:04.495Z</time></trkpt><trkpt lat="37.2004037" lon="15.148494"><ele>67.0</ele><time>2026-04-06T14:14:05.495Z</time></trkpt><trkpt lat="37.2006987" lon="15.1485723"><ele>68.0</ele><time>2026-04-06T14:14:06.495Z</time></trkpt><trkpt lat="37.2009929" lon="15.14865"><ele>68.0</ele><time>2026-04-06T14:14:07.495Z</time></trkpt><trkpt lat="37.2012885" lon="15.1487306"><ele>68.0</ele><time>2026-04-06T14:14:08.495Z</time></trkpt><trkpt lat="37.2015882" lon="15.1488093"><ele>75.0</ele><time>2026-04-06T14:14:09.495Z</time></trkpt><trkpt lat="37.2018896" lon="15.1488853"><ele>82.0</ele><time>2026-04-06T14:14:10.495Z</time></trkpt><trkpt lat="37.2021929" lon="15.1489656"><ele>83.5</ele><time>2026-04-06T14:14:11.495Z</time></trkpt><trkpt lat="37.2024934" lon="15.1490449"><ele>85.0</ele><time>2026-04-06T14:14:12.496Z</time></trkpt><trkpt lat="37.2027932" lon="15.1491257"><ele>85.0</ele><time>2026-04-06T14:14:13.495Z</time></trkpt><trkpt lat="37.2030922" lon="15.1492069"><ele>85.0</ele><time>2026-04-06T14:14:14.495Z</time></trkpt><trkpt lat="37.2033898" lon="15.1492891"><ele>83.5</ele><time>2026-04-06T14:14:15.495Z</time></trkpt><trkpt lat="37.2036861" lon="15.1493726"><ele>82.0</ele><time>2026-04-06T14:14:16.495Z</time></trkpt><trkpt lat="37.2039837" lon="15.1494558"><ele>78.5</ele><time>2026-04-06T14:14:17.495Z</time></trkpt><trkpt lat="37.2042823" lon="15.1495354"><ele>75.0</ele><time>2026-04-06T14:14:18.495Z</time></trkpt><trkpt lat="37.2045832" lon="15.1496149"><ele>63.5</ele><time>2026-04-06T14:14:19.495Z</time></trkpt><trkpt lat="37.204882" lon="15.1496923"><ele>52.0</ele><time>2026-04-06T14:14:20.495Z</time></trkpt><trkpt lat="37.2051849" lon="15.1497696"><ele>52.0</ele><time>2026-04-06T14:14:21.495Z</time></trkpt><trkpt lat="37.2054858" lon="15.1498469"><ele>52.0</ele><time>2026-04-06T14:14:22.496Z</time></trkpt><trkpt lat="37.205783" lon="15.149925"><ele>46.5</ele><time>2026-04-06T14:14:23.496Z</time></trkpt><trkpt lat="37.2060795" lon="15.1500055"><ele>41.0</ele><time>2026-04-06T14:14:24.495Z</time></trkpt><trkpt lat="37.2063769" lon="15.1500875"><ele>47.5</ele><time>2026-04-06T14:14:25.496Z</time></trkpt><trkpt lat="37.2066734" lon="15.1501638"><ele>54.0</ele><time>2026-04-06T14:14:26.496Z</time></trkpt><trkpt lat="37.2069715" lon="15.1502415"><ele>54.0</ele><time>2026-04-06T14:14:27.495Z</time></trkpt><trkpt lat="37.2072739" lon="15.1503202"><ele>54.0</ele><time>2026-04-06T14:14:28.495Z</time></trkpt><trkpt lat="37.2075766" lon="15.1503969"><ele>57.0</ele><time>2026-04-06T14:14:29.495Z</time></trkpt><trkpt lat="37.207877" lon="15.1504797"><ele>60.0</ele><time>2026-04-06T14:14:30.495Z</time></trkpt><trkpt lat="37.2081802" lon="15.1505571"><ele>60.0</ele><time>2026-04-06T14:14:31.495Z</time></trkpt><trkpt lat="37.208475" lon="15.1506367"><ele>60.0</ele><time>2026-04-06T14:14:32.495Z</time></trkpt><trkpt lat="37.208775" lon="15.1507134"><ele>55.5</ele><time>2026-04-06T14:14:33.495Z</time></trkpt><trkpt lat="37.2090755" lon="15.1507833"><ele>51.0</ele><time>2026-04-06T14:14:34.495Z</time></trkpt><trkpt lat="37.2093741" lon="15.1508546"><ele>51.0</ele><time>2026-04-06T14:14:35.495Z</time></trkpt><trkpt lat="37.2096737" lon="15.1509175"><ele>51.0</ele><time>2026-04-06T14:14:36.495Z</time></trkpt><trkpt lat="37.2099736" lon="15.1509734"><ele>49.5</ele><time>2026-04-06T14:14:37.495Z</time></trkpt><trkpt lat="37.2102768" lon="15.1510216"><ele>48.0</ele><time>2026-04-06T14:14:38.495Z</time></trkpt><trkpt lat="37.2105787" lon="15.1510633"><ele>46.5</ele><time>2026-04-06T14:14:39.496Z</time></trkpt><trkpt lat="37.2108812" lon="15.1510959"><ele>45.0</ele><time>2026-04-06T14:14:40.495Z</time></trkpt><trkpt lat="37.211184" lon="15.1511124"><ele>41.5</ele><time>2026-04-06T14:14:41.495Z</time></trkpt><trkpt lat="37.2114927" lon="15.1511169"><ele>38.0</ele><time>2026-04-06T14:14:42.495Z</time></trkpt><trkpt lat="37.2117978" lon="15.151106"><ele>38.0</ele><time>2026-04-06T14:14:43.495Z</time></trkpt><trkpt lat="37.2121064" lon="15.1510825"><ele>38.0</ele><time>2026-04-06T14:14:44.496Z</time></trkpt><trkpt lat="37.2124104" lon="15.1510444"><ele>38.5</ele><time>2026-04-06T14:14:45.495Z</time></trkpt><trkpt lat="37.2127118" lon="15.1510023"><ele>39.0</ele><time>2026-04-06T14:14:46.495Z</time></trkpt><trkpt lat="37.2130136" lon="15.1509572"><ele>42.5</ele><time>2026-04-06T14:14:47.496Z</time></trkpt><trkpt lat="37.2133143" lon="15.1509024"><ele>46.0</ele><time>2026-04-06T14:14:48.495Z</time></trkpt><trkpt lat="37.213612" lon="15.1508372"><ele>46.0</ele><time>2026-04-06T14:14:49.495Z</time></trkpt><trkpt lat="37.2139107" lon="15.1507617"><ele>46.0</ele><time>2026-04-06T14:14:50.495Z</time></trkpt><trkpt lat="37.2142105" lon="15.1506776"><ele>48.5</ele><time>2026-04-06T14:14:51.495Z</time></trkpt><trkpt lat="37.2145068" lon="15.1505761"><ele>51.0</ele><time>2026-04-06T14:14:52.495Z</time></trkpt><trkpt lat="37.2147966" lon="15.1504633"><ele>53.0</ele><time>2026-04-06T14:14:53.495Z</time></trkpt><trkpt lat="37.2150843" lon="15.1503456"><ele>55.0</ele><time>2026-04-06T14:14:54.495Z</time></trkpt><trkpt lat="37.2153734" lon="15.1502166"><ele>54.5</ele><time>2026-04-06T14:14:55.495Z</time></trkpt><trkpt lat="37.2156594" lon="15.1500845"><ele>54.0</ele><time>2026-04-06T14:14:56.496Z</time></trkpt><trkpt lat="37.215939" lon="15.1499441"><ele>53.5</ele><time>2026-04-06T14:14:57.495Z</time></trkpt><trkpt lat="37.216219" lon="15.1497983"><ele>53.0</ele><time>2026-04-06T14:14:58.496Z</time></trkpt><trkpt lat="37.2164982" lon="15.1496508"><ele>53.0</ele><time>2026-04-06T14:14:59.496Z</time></trkpt><trkpt lat="37.2167775" lon="15.1494978"><ele>53.0</ele><time>2026-04-06T14:15:00.496Z</time></trkpt><trkpt lat="37.2170562" lon="15.1493423"><ele>53.5</ele><time>2026-04-06T14:15:01.495Z</time></trkpt><trkpt lat="37.2173351" lon="15.1491877"><ele>54.0</ele><time>2026-04-06T14:15:02.494Z</time></trkpt><trkpt lat="37.2176155" lon="15.1490353"><ele>54.0</ele><time>2026-04-06T14:15:03.495Z</time></trkpt><trkpt lat="37.2178951" lon="15.1488786"><ele>54.0</ele><time>2026-04-06T14:15:04.494Z</time></trkpt><trkpt lat="37.2181755" lon="15.1487215"><ele>51.5</ele><time>2026-04-06T14:15:05.494Z</time></trkpt><trkpt lat="37.2184553" lon="15.1485646"><ele>49.0</ele><time>2026-04-06T14:15:06.494Z</time></trkpt><trkpt lat="37.2187357" lon="15.1484091"><ele>48.0</ele><time>2026-04-06T14:15:07.501Z</time></trkpt><trkpt lat="37.2190155" lon="15.1482533"><ele>47.0</ele><time>2026-04-06T14:15:08.501Z</time></trkpt><trkpt lat="37.2192929" lon="15.1480923"><ele>47.5</ele><time>2026-04-06T14:15:09.502Z</time></trkpt><trkpt lat="37.2195722" lon="15.1479372"><ele>48.0</ele><time>2026-04-06T14:15:10.502Z</time></trkpt><trkpt lat="37.2198529" lon="15.1477804"><ele>48.0</ele><time>2026-04-06T14:15:11.501Z</time></trkpt><trkpt lat="37.2201347" lon="15.1476272"><ele>48.0</ele><time>2026-04-06T14:15:12.502Z</time></trkpt><trkpt lat="37.2204173" lon="15.1474831"><ele>46.0</ele><time>2026-04-06T14:15:13.501Z</time></trkpt><trkpt lat="37.2207012" lon="15.1473385"><ele>44.0</ele><time>2026-04-06T14:15:14.502Z</time></trkpt><trkpt lat="37.2209848" lon="15.1471994"><ele>44.0</ele><time>2026-04-06T14:15:15.502Z</time></trkpt><trkpt lat="37.2212696" lon="15.1470624"><ele>44.0</ele><time>2026-04-06T14:15:16.501Z</time></trkpt><trkpt lat="37.2215572" lon="15.1469274"><ele>41.0</ele><time>2026-04-06T14:15:17.502Z</time></trkpt><trkpt lat="37.2218508" lon="15.1467868"><ele>38.0</ele><time>2026-04-06T14:15:18.501Z</time></trkpt><trkpt lat="37.2221468" lon="15.1466567"><ele>35.0</ele><time>2026-04-06T14:15:19.501Z</time></trkpt><trkpt lat="37.2224411" lon="15.1465347"><ele>32.0</ele><time>2026-04-06T14:15:20.501Z</time></trkpt><trkpt lat="37.2227354" lon="15.1464284"><ele>32.0</ele><time>2026-04-06T14:15:21.501Z</time></trkpt><trkpt lat="37.2230303" lon="15.1463323"><ele>32.0</ele><time>2026-04-06T14:15:22.501Z</time></trkpt><trkpt lat="37.2233235" lon="15.146239"><ele>28.5</ele><time>2026-04-06T14:15:23.501Z</time></trkpt><trkpt lat="37.2236177" lon="15.1461533"><ele>25.0</ele><time>2026-04-06T14:15:24.501Z</time></trkpt><trkpt lat="37.2239128" lon="15.146073"><ele>25.0</ele><time>2026-04-06T14:15:25.502Z</time></trkpt><trkpt lat="37.2242102" lon="15.1459992"><ele>25.0</ele><time>2026-04-06T14:15:26.501Z</time></trkpt><trkpt lat="37.224509" lon="15.1459324"><ele>25.0</ele><time>2026-04-06T14:15:27.501Z</time></trkpt><trkpt lat="37.2248114" lon="15.1458777"><ele>25.0</ele><time>2026-04-06T14:15:28.501Z</time></trkpt><trkpt lat="37.2251125" lon="15.1458331"><ele>27.0</ele><time>2026-04-06T14:15:29.501Z</time></trkpt><trkpt lat="37.2254131" lon="15.1458019"><ele>29.0</ele><time>2026-04-06T14:15:30.501Z</time></trkpt><trkpt lat="37.2257144" lon="15.1457659"><ele>33.5</ele><time>2026-04-06T14:15:31.501Z</time></trkpt><trkpt lat="37.2260193" lon="15.1457312"><ele>38.0</ele><time>2026-04-06T14:15:32.501Z</time></trkpt><trkpt lat="37.2263217" lon="15.1457006"><ele>44.0</ele><time>2026-04-06T14:15:33.501Z</time></trkpt><trkpt lat="37.2266252" lon="15.1456743"><ele>50.0</ele><time>2026-04-06T14:15:34.502Z</time></trkpt><trkpt lat="37.226932" lon="15.1456552"><ele>50.0</ele><time>2026-04-06T14:15:35.501Z</time></trkpt><trkpt lat="37.227236" lon="15.1456427"><ele>50.0</ele><time>2026-04-06T14:15:36.502Z</time></trkpt><trkpt lat="37.2275367" lon="15.1456389"><ele>54.0</ele><time>2026-04-06T14:15:37.502Z</time></trkpt><trkpt lat="37.2278415" lon="15.1456441"><ele>58.0</ele><time>2026-04-06T14:15:38.502Z</time></trkpt><trkpt lat="37.2281487" lon="15.1456534"><ele>59.0</ele><time>2026-04-06T14:15:39.502Z</time></trkpt><trkpt lat="37.2284555" lon="15.1456686"><ele>60.0</ele><time>2026-04-06T14:15:40.501Z</time></trkpt><trkpt lat="37.2287565" lon="15.1456936"><ele>54.0</ele><time>2026-04-06T14:15:41.501Z</time></trkpt><trkpt lat="37.2290633" lon="15.145727"><ele>48.0</ele><time>2026-04-06T14:15:42.501Z</time></trkpt><trkpt lat="37.2293636" lon="15.1457796"><ele>48.0</ele><time>2026-04-06T14:15:43.501Z</time></trkpt><trkpt lat="37.2296619" lon="15.1458453"><ele>48.0</ele><time>2026-04-06T14:15:44.501Z</time></trkpt><trkpt lat="37.22996" lon="15.1459099"><ele>50.0</ele><time>2026-04-06T14:15:45.501Z</time></trkpt><trkpt lat="37.2302597" lon="15.1459797"><ele>52.0</ele><time>2026-04-06T14:15:46.502Z</time></trkpt><trkpt lat="37.2305598" lon="15.1460484"><ele>53.5</ele><time>2026-04-06T14:15:47.501Z</time></trkpt><trkpt lat="37.2308625" lon="15.1461128"><ele>55.0</ele><time>2026-04-06T14:15:48.502Z</time></trkpt><trkpt lat="37.2311598" lon="15.1461819"><ele>55.0</ele><time>2026-04-06T14:15:49.501Z</time></trkpt><trkpt lat="37.2314551" lon="15.1462511"><ele>55.0</ele><time>2026-04-06T14:15:50.501Z</time></trkpt><trkpt lat="37.2317524" lon="15.1463227"><ele>57.5</ele><time>2026-04-06T14:15:51.502Z</time></trkpt><trkpt lat="37.2320511" lon="15.1464013"><ele>60.0</ele><time>2026-04-06T14:15:52.501Z</time></trkpt><trkpt lat="37.2323492" lon="15.1464786"><ele>62.5</ele><time>2026-04-06T14:15:53.501Z</time></trkpt><trkpt lat="37.2326489" lon="15.1465562"><ele>65.0</ele><time>2026-04-06T14:15:54.502Z</time></trkpt><trkpt lat="37.2329473" lon="15.1466352"><ele>66.5</ele><time>2026-04-06T14:15:55.501Z</time></trkpt><trkpt lat="37.2332437" lon="15.1467163"><ele>68.0</ele><time>2026-04-06T14:15:56.501Z</time></trkpt><trkpt lat="37.2335401" lon="15.1468014"><ele>68.0</ele><time>2026-04-06T14:15:57.501Z</time></trkpt><trkpt lat="37.2338364" lon="15.1468903"><ele>68.0</ele><time>2026-04-06T14:15:58.501Z</time></trkpt><trkpt lat="37.2341359" lon="15.1469772"><ele>68.5</ele><time>2026-04-06T14:15:59.501Z</time></trkpt><trkpt lat="37.2344354" lon="15.1470604"><ele>69.0</ele><time>2026-04-06T14:16:00.502Z</time></trkpt><trkpt lat="37.2347355" lon="15.1471357"><ele>69.5</ele><time>2026-04-06T14:16:01.502Z</time></trkpt><trkpt lat="37.2350311" lon="15.1472176"><ele>70.0</ele><time>2026-04-06T14:16:02.502Z</time></trkpt><trkpt lat="37.235329" lon="15.1473041"><ele>71.0</ele><time>2026-04-06T14:16:03.502Z</time></trkpt><trkpt lat="37.2356281" lon="15.1473944"><ele>72.0</ele><time>2026-04-06T14:16:04.502Z</time></trkpt><trkpt lat="37.2359287" lon="15.1474798"><ele>73.0</ele><time>2026-04-06T14:16:05.501Z</time></trkpt><trkpt lat="37.2362254" lon="15.1475637"><ele>74.0</ele><time>2026-04-06T14:16:06.501Z</time></trkpt><trkpt lat="37.2365229" lon="15.1476435"><ele>74.0</ele><time>2026-04-06T14:16:07.501Z</time></trkpt><trkpt lat="37.2368215" lon="15.1477213"><ele>74.0</ele><time>2026-04-06T14:16:08.501Z</time></trkpt><trkpt lat="37.2371185" lon="15.1477968"><ele>74.0</ele><time>2026-04-06T14:16:09.501Z</time></trkpt><trkpt lat="37.2374165" lon="15.1478719"><ele>74.0</ele><time>2026-04-06T14:16:10.501Z</time></trkpt><trkpt lat="37.2377141" lon="15.1479548"><ele>74.0</ele><time>2026-04-06T14:16:11.502Z</time></trkpt><trkpt lat="37.238014" lon="15.148036"><ele>74.0</ele><time>2026-04-06T14:16:12.502Z</time></trkpt><trkpt lat="37.2383135" lon="15.1481222"><ele>74.0</ele><time>2026-04-06T14:16:13.501Z</time></trkpt><trkpt lat="37.23861" lon="15.1482083"><ele>74.0</ele><time>2026-04-06T14:16:14.501Z</time></trkpt><trkpt lat="37.238908" lon="15.1482933"><ele>74.5</ele><time>2026-04-06T14:16:15.501Z</time></trkpt><trkpt lat="37.2392087" lon="15.1483786"><ele>75.0</ele><time>2026-04-06T14:16:16.501Z</time></trkpt><trkpt lat="37.2395065" lon="15.1484632"><ele>75.0</ele><time>2026-04-06T14:16:17.501Z</time></trkpt><trkpt lat="37.2398056" lon="15.1485434"><ele>75.0</ele><time>2026-04-06T14:16:18.502Z</time></trkpt><trkpt lat="37.2401033" lon="15.1486295"><ele>75.0</ele><time>2026-04-06T14:16:19.501Z</time></trkpt><trkpt lat="37.2404032" lon="15.1487157"><ele>75.0</ele><time>2026-04-06T14:16:20.501Z</time></trkpt><trkpt lat="37.2407001" lon="15.1488065"><ele>74.5</ele><time>2026-04-06T14:16:21.501Z</time></trkpt><trkpt lat="37.2409983" lon="15.1488936"><ele>74.0</ele><time>2026-04-06T14:16:22.501Z</time></trkpt><trkpt lat="37.2412959" lon="15.1489731"><ele>73.5</ele><time>2026-04-06T14:16:23.502Z</time></trkpt><trkpt lat="37.2415927" lon="15.1490449"><ele>73.0</ele><time>2026-04-06T14:16:24.502Z</time></trkpt><trkpt lat="37.241892" lon="15.1491102"><ele>73.0</ele><time>2026-04-06T14:16:25.502Z</time></trkpt><trkpt lat="37.2421908" lon="15.1491733"><ele>73.0</ele><time>2026-04-06T14:16:26.502Z</time></trkpt><trkpt lat="37.2424947" lon="15.1492268"><ele>74.5</ele><time>2026-04-06T14:16:27.501Z</time></trkpt><trkpt lat="37.242799" lon="15.1492713"><ele>76.0</ele><time>2026-04-06T14:16:28.502Z</time></trkpt><trkpt lat="37.2431015" lon="15.1493075"><ele>77.5</ele><time>2026-04-06T14:16:29.501Z</time></trkpt><trkpt lat="37.2434068" lon="15.1493283"><ele>79.0</ele><time>2026-04-06T14:16:30.502Z</time></trkpt><trkpt lat="37.243711" lon="15.1493375"><ele>80.5</ele><time>2026-04-06T14:16:31.501Z</time></trkpt><trkpt lat="37.2440161" lon="15.1493355"><ele>82.0</ele><time>2026-04-06T14:16:32.502Z</time></trkpt><trkpt lat="37.2443202" lon="15.1493275"><ele>82.0</ele><time>2026-04-06T14:16:33.501Z</time></trkpt><trkpt lat="37.244627" lon="15.1493129"><ele>82.0</ele><time>2026-04-06T14:16:34.501Z</time></trkpt><trkpt lat="37.2449343" lon="15.149298"><ele>82.0</ele><time>2026-04-06T14:16:35.501Z</time></trkpt><trkpt lat="37.2452412" lon="15.1492761"><ele>82.0</ele><time>2026-04-06T14:16:36.501Z</time></trkpt><trkpt lat="37.2455458" lon="15.1492511"><ele>82.0</ele><time>2026-04-06T14:16:37.501Z</time></trkpt><trkpt lat="37.2458509" lon="15.1492225"><ele>82.0</ele><time>2026-04-06T14:16:38.501Z</time></trkpt><trkpt lat="37.2461571" lon="15.149193"><ele>82.0</ele><time>2026-04-06T14:16:39.502Z</time></trkpt><trkpt lat="37.2464598" lon="15.1491607"><ele>82.0</ele><time>2026-04-06T14:16:40.501Z</time></trkpt><trkpt lat="37.246764" lon="15.1491277"><ele>82.0</ele><time>2026-04-06T14:16:41.501Z</time></trkpt><trkpt lat="37.2470678" lon="15.1490971"><ele>82.0</ele><time>2026-04-06T14:16:42.502Z</time></trkpt><trkpt lat="37.2473742" lon="15.1490658"><ele>81.5</ele><time>2026-04-06T14:16:43.501Z</time></trkpt><trkpt lat="37.2476782" lon="15.1490352"><ele>81.0</ele><time>2026-04-06T14:16:44.501Z</time></trkpt><trkpt lat="37.2479838" lon="15.1489992"><ele>78.0</ele><time>2026-04-06T14:16:45.501Z</time></trkpt><trkpt lat="37.2482922" lon="15.1489677"><ele>75.0</ele><time>2026-04-06T14:16:46.501Z</time></trkpt><trkpt lat="37.2485955" lon="15.1489355"><ele>75.0</ele><time>2026-04-06T14:16:47.501Z</time></trkpt><trkpt lat="37.2488992" lon="15.1489035"><ele>75.0</ele><time>2026-04-06T14:16:48.501Z</time></trkpt><trkpt lat="37.2492041" lon="15.1488714"><ele>71.5</ele><time>2026-04-06T14:16:49.501Z</time></trkpt><trkpt lat="37.249507" lon="15.1488388"><ele>68.0</ele><time>2026-04-06T14:16:50.501Z</time></trkpt><trkpt lat="37.2498142" lon="15.1488057"><ele>63.5</ele><time>2026-04-06T14:16:51.502Z</time></trkpt><trkpt lat="37.2501192" lon="15.1487778"><ele>59.0</ele><time>2026-04-06T14:16:52.501Z</time></trkpt><trkpt lat="37.250425" lon="15.1487518"><ele>56.0</ele><time>2026-04-06T14:16:53.501Z</time></trkpt><trkpt lat="37.2507283" lon="15.1487242"><ele>53.0</ele><time>2026-04-06T14:16:54.501Z</time></trkpt><trkpt lat="37.2510334" lon="15.1486929"><ele>53.0</ele><time>2026-04-06T14:16:55.502Z</time></trkpt><trkpt lat="37.2513384" lon="15.1486655"><ele>53.0</ele><time>2026-04-06T14:16:56.501Z</time></trkpt><trkpt lat="37.251645" lon="15.1486296"><ele>51.5</ele><time>2026-04-06T14:16:57.501Z</time></trkpt><trkpt lat="37.2519477" lon="15.1485934"><ele>50.0</ele><time>2026-04-06T14:16:58.501Z</time></trkpt><trkpt lat="37.2522502" lon="15.1485512"><ele>49.5</ele><time>2026-04-06T14:16:59.501Z</time></trkpt><trkpt lat="37.2525523" lon="15.1485108"><ele>49.0</ele><time>2026-04-06T14:17:00.501Z</time></trkpt><trkpt lat="37.2528547" lon="15.1484621"><ele>45.0</ele><time>2026-04-06T14:17:01.501Z</time></trkpt><trkpt lat="37.2531589" lon="15.1484133"><ele>41.0</ele><time>2026-04-06T14:17:02.501Z</time></trkpt><trkpt lat="37.2534601" lon="15.1483668"><ele>41.0</ele><time>2026-04-06T14:17:03.502Z</time></trkpt><trkpt lat="37.2537627" lon="15.1483085"><ele>41.0</ele><time>2026-04-06T14:17:04.502Z</time></trkpt><trkpt lat="37.2540618" lon="15.1482476"><ele>40.0</ele><time>2026-04-06T14:17:05.501Z</time></trkpt><trkpt lat="37.2543578" lon="15.1481772"><ele>39.0</ele><time>2026-04-06T14:17:06.501Z</time></trkpt><trkpt lat="37.2546541" lon="15.1481007"><ele>40.0</ele><time>2026-04-06T14:17:07.501Z</time></trkpt><trkpt lat="37.2549511" lon="15.1480118"><ele>41.0</ele><time>2026-04-06T14:17:08.501Z</time></trkpt><trkpt lat="37.2552455" lon="15.1479151"><ele>41.0</ele><time>2026-04-06T14:17:09.501Z</time></trkpt><trkpt lat="37.2555388" lon="15.1478037"><ele>41.0</ele><time>2026-04-06T14:17:10.501Z</time></trkpt><trkpt lat="37.255826" lon="15.1476761"><ele>43.5</ele><time>2026-04-06T14:17:11.501Z</time></trkpt><trkpt lat="37.2561079" lon="15.1475414"><ele>46.0</ele><time>2026-04-06T14:17:12.501Z</time></trkpt><trkpt lat="37.2563822" lon="15.1473908"><ele>47.5</ele><time>2026-04-06T14:17:13.501Z</time></trkpt><trkpt lat="37.2566573" lon="15.1472284"><ele>49.0</ele><time>2026-04-06T14:17:14.501Z</time></trkpt><trkpt lat="37.2569258" lon="15.1470581"><ele>49.0</ele><time>2026-04-06T14:17:15.501Z</time></trkpt><trkpt lat="37.2571946" lon="15.1468753"><ele>49.0</ele><time>2026-04-06T14:17:16.502Z</time></trkpt><trkpt lat="37.2574525" lon="15.1466805"><ele>50.5</ele><time>2026-04-06T14:17:17.501Z</time></trkpt><trkpt lat="37.2577073" lon="15.146481"><ele>52.0</ele><time>2026-04-06T14:17:18.501Z</time></trkpt><trkpt lat="37.2579589" lon="15.1462606"><ele>54.0</ele><time>2026-04-06T14:17:19.501Z</time></trkpt><trkpt lat="37.2582013" lon="15.1460304"><ele>56.0</ele><time>2026-04-06T14:17:20.501Z</time></trkpt><trkpt lat="37.2584381" lon="15.1457944"><ele>56.5</ele><time>2026-04-06T14:17:21.502Z</time></trkpt><trkpt lat="37.2586695" lon="15.1455447"><ele>57.0</ele><time>2026-04-06T14:17:22.501Z</time></trkpt><trkpt lat="37.2588961" lon="15.1452857"><ele>58.5</ele><time>2026-04-06T14:17:23.502Z</time></trkpt><trkpt lat="37.2591136" lon="15.1450166"><ele>60.0</ele><time>2026-04-06T14:17:24.501Z</time></trkpt><trkpt lat="37.2593225" lon="15.144745"><ele>62.0</ele><time>2026-04-06T14:17:25.501Z</time></trkpt><trkpt lat="37.2595245" lon="15.1444609"><ele>64.0</ele><time>2026-04-06T14:17:26.501Z</time></trkpt><trkpt lat="37.2597247" lon="15.1441706"><ele>71.5</ele><time>2026-04-06T14:17:27.501Z</time></trkpt><trkpt lat="37.2599157" lon="15.143869"><ele>79.0</ele><time>2026-04-06T14:17:28.501Z</time></trkpt><trkpt lat="37.2600986" lon="15.1435667"><ele>79.0</ele><time>2026-04-06T14:17:29.502Z</time></trkpt><trkpt lat="37.2602742" lon="15.1432545"><ele>79.0</ele><time>2026-04-06T14:17:30.501Z</time></trkpt><trkpt lat="37.2604405" lon="15.1429375"><ele>84.5</ele><time>2026-04-06T14:17:31.502Z</time></trkpt><trkpt lat="37.2606062" lon="15.1426154"><ele>90.0</ele><time>2026-04-06T14:17:32.501Z</time></trkpt><trkpt lat="37.2607678" lon="15.1422911"><ele>114.0</ele><time>2026-04-06T14:17:33.501Z</time></trkpt><trkpt lat="37.2647329" lon="15.1351493"><ele>111.0</ele><time>2026-04-06T14:17:56.502Z</time></trkpt><trkpt lat="37.2649816" lon="15.134912"><ele>108.0</ele><time>2026-04-06T14:17:57.501Z</time></trkpt><trkpt lat="37.265237" lon="15.1346871"><ele>108.0</ele><time>2026-04-06T14:17:58.501Z</time></trkpt><trkpt lat="37.2654838" lon="15.1344587"><ele>108.0</ele><time>2026-04-06T14:17:59.501Z</time></trkpt><trkpt lat="37.2657266" lon="15.1342391"><ele>112.0</ele><time>2026-04-06T14:18:00.501Z</time></trkpt><trkpt lat="37.2659751" lon="15.1340304"><ele>116.0</ele><time>2026-04-06T14:18:01.501Z</time></trkpt><trkpt lat="37.2662249" lon="15.1338178"><ele>120.5</ele><time>2026-04-06T14:18:02.501Z</time></trkpt><trkpt lat="37.2664813" lon="15.1336087"><ele>125.0</ele><time>2026-04-06T14:18:03.501Z</time></trkpt><trkpt lat="37.2667387" lon="15.1334013"><ele>126.5</ele><time>2026-04-06T14:18:04.501Z</time></trkpt><trkpt lat="37.2669949" lon="15.1331912"><ele>128.0</ele><time>2026-04-06T14:18:05.501Z</time></trkpt><trkpt lat="37.2672479" lon="15.132978"><ele>130.5</ele><time>2026-04-06T14:18:06.502Z</time></trkpt><trkpt lat="37.2675039" lon="15.1327677"><ele>133.0</ele><time>2026-04-06T14:18:07.502Z</time></trkpt><trkpt lat="37.2677582" lon="15.132554"><ele>133.5</ele><time>2026-04-06T14:18:08.501Z</time></trkpt><trkpt lat="37.2680102" lon="15.1323416"><ele>134.0</ele><time>2026-04-06T14:18:09.501Z</time></trkpt><trkpt lat="37.268266" lon="15.1321309"><ele>137.0</ele><time>2026-04-06T14:18:10.501Z</time></trkpt><trkpt lat="37.2685199" lon="15.131923"><ele>140.0</ele><time>2026-04-06T14:18:11.501Z</time></trkpt><trkpt lat="37.268774" lon="15.1317138"><ele>140.0</ele><time>2026-04-06T14:18:12.502Z</time></trkpt><trkpt lat="37.2690299" lon="15.1315015"><ele>140.0</ele><time>2026-04-06T14:18:13.501Z</time></trkpt><trkpt lat="37.269287" lon="15.1312904"><ele>140.0</ele><time>2026-04-06T14:18:14.501Z</time></trkpt><trkpt lat="37.2695457" lon="15.1310761"><ele>140.0</ele><time>2026-04-06T14:18:15.501Z</time></trkpt><trkpt lat="37.2698017" lon="15.1308637"><ele>145.0</ele><time>2026-04-06T14:18:16.501Z</time></trkpt><trkpt lat="37.2725961" lon="15.1285281"><ele>145.0</ele><time>2026-04-06T14:18:27.502Z</time></trkpt><trkpt lat="37.2728333" lon="15.1283137"><ele>145.0</ele><time>2026-04-06T14:18:28.502Z</time></trkpt><trkpt lat="37.2731034" lon="15.1281231"><ele>143.0</ele><time>2026-04-06T14:18:29.501Z</time></trkpt><trkpt lat="37.2733548" lon="15.1279148"><ele>141.0</ele><time>2026-04-06T14:18:30.502Z</time></trkpt><trkpt lat="37.2736091" lon="15.1277093"><ele>141.0</ele><time>2026-04-06T14:18:31.501Z</time></trkpt><trkpt lat="37.2738575" lon="15.1274956"><ele>141.0</ele><time>2026-04-06T14:18:32.502Z</time></trkpt><trkpt lat="37.2741136" lon="15.1272793"><ele>140.0</ele><time>2026-04-06T14:18:33.501Z</time></trkpt><trkpt lat="37.2743665" lon="15.1270673"><ele>139.0</ele><time>2026-04-06T14:18:34.501Z</time></trkpt><trkpt lat="37.274625" lon="15.1268525"><ele>138.5</ele><time>2026-04-06T14:18:35.501Z</time></trkpt><trkpt lat="37.2748799" lon="15.1266401"><ele>138.0</ele><time>2026-04-06T14:18:36.501Z</time></trkpt><trkpt lat="37.2751357" lon="15.1264236"><ele>138.0</ele><time>2026-04-06T14:18:37.501Z</time></trkpt><trkpt lat="37.2753903" lon="15.1262134"><ele>138.0</ele><time>2026-04-06T14:18:38.501Z</time></trkpt><trkpt lat="37.2756452" lon="15.1260007"><ele>136.5</ele><time>2026-04-06T14:18:39.501Z</time></trkpt><trkpt lat="37.2759013" lon="15.1257893"><ele>135.0</ele><time>2026-04-06T14:18:40.501Z</time></trkpt><trkpt lat="37.2761588" lon="15.1255829"><ele>135.0</ele><time>2026-04-06T14:18:41.501Z</time></trkpt><trkpt lat="37.276417" lon="15.1253775"><ele>135.0</ele><time>2026-04-06T14:18:42.501Z</time></trkpt><trkpt lat="37.2766779" lon="15.1251747"><ele>134.0</ele><time>2026-04-06T14:18:43.501Z</time></trkpt><trkpt lat="37.2769378" lon="15.1249734"><ele>133.0</ele><time>2026-04-06T14:18:44.501Z</time></trkpt><trkpt lat="37.2771978" lon="15.1247688"><ele>131.5</ele><time>2026-04-06T14:18:45.501Z</time></trkpt><trkpt lat="37.2774553" lon="15.1245626"><ele>130.0</ele><time>2026-04-06T14:18:46.501Z</time></trkpt><trkpt lat="37.2777076" lon="15.1243472"><ele>130.0</ele><time>2026-04-06T14:18:47.501Z</time></trkpt><trkpt lat="37.2779632" lon="15.1241338"><ele>130.0</ele><time>2026-04-06T14:18:48.501Z</time></trkpt><trkpt lat="37.2782145" lon="15.1239153"><ele>128.5</ele><time>2026-04-06T14:18:49.501Z</time></trkpt><trkpt lat="37.2784647" lon="15.1236958"><ele>127.0</ele><time>2026-04-06T14:18:50.501Z</time></trkpt><trkpt lat="37.2787082" lon="15.1234702"><ele>126.5</ele><time>2026-04-06T14:18:51.501Z</time></trkpt><trkpt lat="37.2789495" lon="15.1232437"><ele>126.0</ele><time>2026-04-06T14:18:52.501Z</time></trkpt><trkpt lat="37.2791912" lon="15.123012"><ele>125.0</ele><time>2026-04-06T14:18:53.502Z</time></trkpt><trkpt lat="37.279428" lon="15.1227795"><ele>124.0</ele><time>2026-04-06T14:18:54.501Z</time></trkpt><trkpt lat="37.2796645" lon="15.1225404"><ele>120.5</ele><time>2026-04-06T14:18:55.502Z</time></trkpt><trkpt lat="37.2798982" lon="15.1222941"><ele>117.0</ele><time>2026-04-06T14:18:56.501Z</time></trkpt><trkpt lat="37.2801361" lon="15.1220478"><ele>117.0</ele><time>2026-04-06T14:18:57.502Z</time></trkpt><trkpt lat="37.2803671" lon="15.1217963"><ele>117.0</ele><time>2026-04-06T14:18:58.501Z</time></trkpt><trkpt lat="37.2805924" lon="15.1215437"><ele>112.0</ele><time>2026-04-06T14:18:59.501Z</time></trkpt><trkpt lat="37.2808145" lon="15.1212818"><ele>107.0</ele><time>2026-04-06T14:19:00.501Z</time></trkpt><trkpt lat="37.2810333" lon="15.1210177"><ele>107.0</ele><time>2026-04-06T14:19:01.501Z</time></trkpt><trkpt lat="37.2812509" lon="15.1207456"><ele>107.0</ele><time>2026-04-06T14:19:02.501Z</time></trkpt><trkpt lat="37.2814611" lon="15.1204662"><ele>103.0</ele><time>2026-04-06T14:19:03.501Z</time></trkpt><trkpt lat="37.2816678" lon="15.1201865"><ele>99.0</ele><time>2026-04-06T14:19:04.501Z</time></trkpt><trkpt lat="37.2818709" lon="15.1198959"><ele>99.0</ele><time>2026-04-06T14:19:05.501Z</time></trkpt><trkpt lat="37.2820674" lon="15.1196087"><ele>99.0</ele><time>2026-04-06T14:19:06.501Z</time></trkpt><trkpt lat="37.2822624" lon="15.1193199"><ele>99.0</ele><time>2026-04-06T14:19:07.501Z</time></trkpt><trkpt lat="37.2824547" lon="15.1190277"><ele>99.0</ele><time>2026-04-06T14:19:08.501Z</time></trkpt><trkpt lat="37.2826445" lon="15.1187322"><ele>99.0</ele><time>2026-04-06T14:19:09.501Z</time></trkpt><trkpt lat="37.2828296" lon="15.1184248"><ele>99.0</ele><time>2026-04-06T14:19:10.502Z</time></trkpt><trkpt lat="37.283012" lon="15.1181155"><ele>98.5</ele><time>2026-04-06T14:19:11.501Z</time></trkpt><trkpt lat="37.283185" lon="15.1178024"><ele>98.0</ele><time>2026-04-06T14:19:12.501Z</time></trkpt><trkpt lat="37.2833555" lon="15.1174816"><ele>99.0</ele><time>2026-04-06T14:19:13.501Z</time></trkpt><trkpt lat="37.2835259" lon="15.1171637"><ele>100.0</ele><time>2026-04-06T14:19:14.501Z</time></trkpt><trkpt lat="37.283689" lon="15.1168402"><ele>99.5</ele><time>2026-04-06T14:19:15.502Z</time></trkpt><trkpt lat="37.283849" lon="15.1165153"><ele>99.0</ele><time>2026-04-06T14:19:16.501Z</time></trkpt><trkpt lat="37.2840074" lon="15.1161874"><ele>103.0</ele><time>2026-04-06T14:19:17.501Z</time></trkpt><trkpt lat="37.2841592" lon="15.1158564"><ele>107.0</ele><time>2026-04-06T14:19:18.501Z</time></trkpt><trkpt lat="37.2843108" lon="15.1155214"><ele>107.0</ele><time>2026-04-06T14:19:19.502Z</time></trkpt><trkpt lat="37.2844621" lon="15.1151894"><ele>107.0</ele><time>2026-04-06T14:19:20.502Z</time></trkpt><trkpt lat="37.2846134" lon="15.1148533"><ele>107.0</ele><time>2026-04-06T14:19:21.501Z</time></trkpt><trkpt lat="37.2847623" lon="15.1145236"><ele>107.0</ele><time>2026-04-06T14:19:22.501Z</time></trkpt><trkpt lat="37.2849101" lon="15.1141871"><ele>111.0</ele><time>2026-04-06T14:19:23.501Z</time></trkpt><trkpt lat="37.2850615" lon="15.1138475"><ele>115.0</ele><time>2026-04-06T14:19:24.501Z</time></trkpt><trkpt lat="37.2921901" lon="15.0982661"><ele>112.5</ele><time>2026-04-06T14:20:11.501Z</time></trkpt><trkpt lat="37.2923489" lon="15.097941"><ele>110.0</ele><time>2026-04-06T14:20:12.501Z</time></trkpt><trkpt lat="37.2925117" lon="15.0976125"><ele>112.5</ele><time>2026-04-06T14:20:13.501Z</time></trkpt><trkpt lat="37.2926713" lon="15.0972937"><ele>115.0</ele><time>2026-04-06T14:20:14.501Z</time></trkpt><trkpt lat="37.2928282" lon="15.0969729"><ele>115.0</ele><time>2026-04-06T14:20:15.502Z</time></trkpt><trkpt lat="37.2929898" lon="15.0966519"><ele>115.0</ele><time>2026-04-06T14:20:16.501Z</time></trkpt><trkpt lat="37.2931606" lon="15.0963292"><ele>119.0</ele><time>2026-04-06T14:20:17.502Z</time></trkpt><trkpt lat="37.2933241" lon="15.0960118"><ele>123.0</ele><time>2026-04-06T14:20:18.502Z</time></trkpt><trkpt lat="37.2934818" lon="15.0956896"><ele>84.0</ele><time>2026-04-06T14:20:19.502Z</time></trkpt><trkpt lat="37.299055" lon="15.0842616"><ele>89.0</ele><time>2026-04-06T14:20:54.501Z</time></trkpt><trkpt lat="37.2991857" lon="15.0839108"><ele>94.0</ele><time>2026-04-06T14:20:55.501Z</time></trkpt><trkpt lat="37.2993272" lon="15.0835586"><ele>93.5</ele><time>2026-04-06T14:20:56.502Z</time></trkpt><trkpt lat="37.2994507" lon="15.0832148"><ele>93.0</ele><time>2026-04-06T14:20:57.501Z</time></trkpt><trkpt lat="37.2995788" lon="15.0828672"><ele>93.0</ele><time>2026-04-06T14:20:58.501Z</time></trkpt><trkpt lat="37.2997075" lon="15.0825193"><ele>93.0</ele><time>2026-04-06T14:20:59.501Z</time></trkpt><trkpt lat="37.2998238" lon="15.0821692"><ele>93.0</ele><time>2026-04-06T14:21:00.501Z</time></trkpt><trkpt lat="37.2999408" lon="15.0818165"><ele>93.0</ele><time>2026-04-06T14:21:01.502Z</time></trkpt><trkpt lat="37.3000575" lon="15.0814612"><ele>52.0</ele><time>2026-04-06T14:21:02.501Z</time></trkpt><trkpt lat="37.3006381" lon="15.0793168"><ele>55.5</ele><time>2026-04-06T14:21:08.501Z</time></trkpt><trkpt lat="37.3007542" lon="15.0789186"><ele>59.0</ele><time>2026-04-06T14:21:09.501Z</time></trkpt><trkpt lat="37.3008306" lon="15.0785562"><ele>66.0</ele><time>2026-04-06T14:21:10.501Z</time></trkpt><trkpt lat="37.3009166" lon="15.0781961"><ele>73.0</ele><time>2026-04-06T14:21:11.501Z</time></trkpt><trkpt lat="37.3009924" lon="15.0778285"><ele>73.0</ele><time>2026-04-06T14:21:12.501Z</time></trkpt><trkpt lat="37.301072" lon="15.0774621"><ele>73.0</ele><time>2026-04-06T14:21:13.501Z</time></trkpt><trkpt lat="37.3011491" lon="15.0771069"><ele>80.0</ele><time>2026-04-06T14:21:14.501Z</time></trkpt><trkpt lat="37.3012191" lon="15.0767509"><ele>87.0</ele><time>2026-04-06T14:21:15.501Z</time></trkpt><trkpt lat="37.3017367" lon="15.0741129"><ele>61.0</ele><time>2026-04-06T14:21:22.501Z</time></trkpt><trkpt lat="37.3018047" lon="15.073748"><ele>35.0</ele><time>2026-04-06T14:21:23.501Z</time></trkpt><trkpt lat="37.3018763" lon="15.0733706"><ele>35.5</ele><time>2026-04-06T14:21:24.501Z</time></trkpt><trkpt lat="37.301956" lon="15.073001"><ele>36.0</ele><time>2026-04-06T14:21:25.501Z</time></trkpt><trkpt lat="37.3020293" lon="15.0726316"><ele>33.5</ele><time>2026-04-06T14:21:26.501Z</time></trkpt><trkpt lat="37.3021012" lon="15.0722646"><ele>31.0</ele><time>2026-04-06T14:21:27.501Z</time></trkpt><trkpt lat="37.3021714" lon="15.0718922"><ele>30.5</ele><time>2026-04-06T14:21:28.501Z</time></trkpt><trkpt lat="37.302243" lon="15.0715162"><ele>30.0</ele><time>2026-04-06T14:21:29.502Z</time></trkpt><trkpt lat="37.3023148" lon="15.0711448"><ele>28.5</ele><time>2026-04-06T14:21:30.501Z</time></trkpt><trkpt lat="37.3023877" lon="15.0707734"><ele>27.0</ele><time>2026-04-06T14:21:31.502Z</time></trkpt><trkpt lat="37.3024616" lon="15.0704021"><ele>27.0</ele><time>2026-04-06T14:21:32.501Z</time></trkpt><trkpt lat="37.3025391" lon="15.070032"><ele>27.0</ele><time>2026-04-06T14:21:33.501Z</time></trkpt><trkpt lat="37.3026181" lon="15.0696588"><ele>27.0</ele><time>2026-04-06T14:21:34.501Z</time></trkpt><trkpt lat="37.3026988" lon="15.0692883"><ele>27.0</ele><time>2026-04-06T14:21:35.501Z</time></trkpt><trkpt lat="37.3027792" lon="15.0689175"><ele>27.0</ele><time>2026-04-06T14:21:36.501Z</time></trkpt><trkpt lat="37.3028669" lon="15.0685481"><ele>27.0</ele><time>2026-04-06T14:21:37.501Z</time></trkpt><trkpt lat="37.3029532" lon="15.0681822"><ele>27.5</ele><time>2026-04-06T14:21:38.502Z</time></trkpt><trkpt lat="37.3030436" lon="15.0678197"><ele>28.0</ele><time>2026-04-06T14:21:39.502Z</time></trkpt><trkpt lat="37.3031385" lon="15.067459"><ele>25.5</ele><time>2026-04-06T14:21:40.501Z</time></trkpt><trkpt lat="37.3032404" lon="15.0671034"><ele>23.0</ele><time>2026-04-06T14:21:41.501Z</time></trkpt><trkpt lat="37.3033499" lon="15.0667478"><ele>23.0</ele><time>2026-04-06T14:21:42.502Z</time></trkpt><trkpt lat="37.3034705" lon="15.0663933"><ele>23.0</ele><time>2026-04-06T14:21:43.502Z</time></trkpt><trkpt lat="37.3035966" lon="15.0660437"><ele>23.5</ele><time>2026-04-06T14:21:44.502Z</time></trkpt><trkpt lat="37.3037234" lon="15.0656942"><ele>24.0</ele><time>2026-04-06T14:21:45.501Z</time></trkpt><trkpt lat="37.3038514" lon="15.0653492"><ele>24.0</ele><time>2026-04-06T14:21:46.501Z</time></trkpt><trkpt lat="37.3039836" lon="15.0650082"><ele>24.0</ele><time>2026-04-06T14:21:47.502Z</time></trkpt><trkpt lat="37.3041176" lon="15.0646687"><ele>24.0</ele><time>2026-04-06T14:21:48.503Z</time></trkpt><trkpt lat="37.3042552" lon="15.0643311"><ele>24.0</ele><time>2026-04-06T14:21:49.503Z</time></trkpt><trkpt lat="37.3043995" lon="15.0639933"><ele>24.0</ele><time>2026-04-06T14:21:50.503Z</time></trkpt><trkpt lat="37.3045471" lon="15.0636621"><ele>24.0</ele><time>2026-04-06T14:21:51.503Z</time></trkpt><trkpt lat="37.3047021" lon="15.0633309"><ele>24.5</ele><time>2026-04-06T14:21:52.503Z</time></trkpt><trkpt lat="37.3048668" lon="15.0629853"><ele>25.0</ele><time>2026-04-06T14:21:53.503Z</time></trkpt><trkpt lat="37.30504" lon="15.0626287"><ele>25.0</ele><time>2026-04-06T14:21:54.503Z</time></trkpt><trkpt lat="37.3052256" lon="15.0622739"><ele>25.0</ele><time>2026-04-06T14:21:55.503Z</time></trkpt><trkpt lat="37.3054186" lon="15.0619399"><ele>24.0</ele><time>2026-04-06T14:21:56.504Z</time></trkpt><trkpt lat="37.3056128" lon="15.0616199"><ele>23.0</ele><time>2026-04-06T14:21:57.503Z</time></trkpt><trkpt lat="37.3057997" lon="15.0612995"><ele>23.0</ele><time>2026-04-06T14:21:58.503Z</time></trkpt><trkpt lat="37.3059859" lon="15.0609901"><ele>23.0</ele><time>2026-04-06T14:21:59.503Z</time></trkpt><trkpt lat="37.3061675" lon="15.060685"><ele>24.0</ele><time>2026-04-06T14:22:00.503Z</time></trkpt><trkpt lat="37.3063471" lon="15.0603802"><ele>25.0</ele><time>2026-04-06T14:22:01.503Z</time></trkpt><trkpt lat="37.3065266" lon="15.0600772"><ele>30.5</ele><time>2026-04-06T14:22:02.504Z</time></trkpt><trkpt lat="37.3067067" lon="15.0597754"><ele>36.0</ele><time>2026-04-06T14:22:03.504Z</time></trkpt><trkpt lat="37.3068879" lon="15.0594781"><ele>36.0</ele><time>2026-04-06T14:22:04.503Z</time></trkpt><trkpt lat="37.3070736" lon="15.0591729"><ele>36.0</ele><time>2026-04-06T14:22:05.503Z</time></trkpt><trkpt lat="37.3072582" lon="15.0588637"><ele>34.5</ele><time>2026-04-06T14:22:06.503Z</time></trkpt><trkpt lat="37.3074446" lon="15.0585551"><ele>33.0</ele><time>2026-04-06T14:22:07.503Z</time></trkpt><trkpt lat="37.3163478" lon="15.0494419"><ele>27.5</ele><time>2026-04-06T14:22:45.503Z</time></trkpt><trkpt lat="37.3166247" lon="15.0492294"><ele>22.0</ele><time>2026-04-06T14:22:46.504Z</time></trkpt><trkpt lat="37.3168619" lon="15.0490291"><ele>22.0</ele><time>2026-04-06T14:22:47.503Z</time></trkpt><trkpt lat="37.3171211" lon="15.0488286"><ele>22.0</ele><time>2026-04-06T14:22:48.503Z</time></trkpt><trkpt lat="37.3173852" lon="15.0486202"><ele>18.0</ele><time>2026-04-06T14:22:49.504Z</time></trkpt><trkpt lat="37.317643" lon="15.0484148"><ele>14.0</ele><time>2026-04-06T14:22:50.503Z</time></trkpt><trkpt lat="37.3178985" lon="15.0482101"><ele>11.5</ele><time>2026-04-06T14:22:51.503Z</time></trkpt><trkpt lat="37.3181551" lon="15.0480091"><ele>9.0</ele><time>2026-04-06T14:22:52.503Z</time></trkpt><trkpt lat="37.3184107" lon="15.0478053"><ele>9.0</ele><time>2026-04-06T14:22:53.504Z</time></trkpt><trkpt lat="37.3186692" lon="15.0476045"><ele>9.0</ele><time>2026-04-06T14:22:54.503Z</time></trkpt><trkpt lat="37.3189254" lon="15.0474024"><ele>8.0</ele><time>2026-04-06T14:22:55.504Z</time></trkpt><trkpt lat="37.3191843" lon="15.0472013"><ele>7.0</ele><time>2026-04-06T14:22:56.503Z</time></trkpt><trkpt lat="37.3194434" lon="15.0469971"><ele>7.0</ele><time>2026-04-06T14:22:57.503Z</time></trkpt><trkpt lat="37.3197034" lon="15.0467932"><ele>7.0</ele><time>2026-04-06T14:22:58.503Z</time></trkpt><trkpt lat="37.3199653" lon="15.0465905"><ele>10.5</ele><time>2026-04-06T14:22:59.503Z</time></trkpt><trkpt lat="37.3202246" lon="15.0463908"><ele>14.0</ele><time>2026-04-06T14:23:00.503Z</time></trkpt><trkpt lat="37.3204836" lon="15.046192"><ele>20.0</ele><time>2026-04-06T14:23:01.503Z</time></trkpt><trkpt lat="37.3207401" lon="15.0459896"><ele>26.0</ele><time>2026-04-06T14:23:02.503Z</time></trkpt><trkpt lat="37.3210002" lon="15.0457881"><ele>26.5</ele><time>2026-04-06T14:23:03.503Z</time></trkpt><trkpt lat="37.3212607" lon="15.0455864"><ele>27.0</ele><time>2026-04-06T14:23:04.504Z</time></trkpt><trkpt lat="37.3215198" lon="15.0453852"><ele>27.5</ele><time>2026-04-06T14:23:05.503Z</time></trkpt><trkpt lat="37.3217781" lon="15.0451833"><ele>28.0</ele><time>2026-04-06T14:23:06.504Z</time></trkpt><trkpt lat="37.3220441" lon="15.0449872"><ele>27.5</ele><time>2026-04-06T14:23:07.503Z</time></trkpt><trkpt lat="37.3223077" lon="15.0447902"><ele>27.0</ele><time>2026-04-06T14:23:08.503Z</time></trkpt><trkpt lat="37.3225717" lon="15.0446007"><ele>27.0</ele><time>2026-04-06T14:23:09.503Z</time></trkpt><trkpt lat="37.3228352" lon="15.044412"><ele>27.0</ele><time>2026-04-06T14:23:10.503Z</time></trkpt><trkpt lat="37.323103" lon="15.0442344"><ele>25.5</ele><time>2026-04-06T14:23:11.503Z</time></trkpt><trkpt lat="37.3233797" lon="15.0440701"><ele>24.0</ele><time>2026-04-06T14:23:12.503Z</time></trkpt><trkpt lat="37.3236617" lon="15.0439135"><ele>24.0</ele><time>2026-04-06T14:23:13.503Z</time></trkpt><trkpt lat="37.3239459" lon="15.0437727"><ele>24.0</ele><time>2026-04-06T14:23:14.503Z</time></trkpt><trkpt lat="37.3242308" lon="15.043635"><ele>24.0</ele><time>2026-04-06T14:23:15.503Z</time></trkpt><trkpt lat="37.3245176" lon="15.0435094"><ele>24.0</ele><time>2026-04-06T14:23:16.503Z</time></trkpt><trkpt lat="37.3248061" lon="15.043389"><ele>26.0</ele><time>2026-04-06T14:23:17.503Z</time></trkpt><trkpt lat="37.3250992" lon="15.0432824"><ele>28.0</ele><time>2026-04-06T14:23:18.504Z</time></trkpt><trkpt lat="37.3253974" lon="15.0431896"><ele>29.5</ele><time>2026-04-06T14:23:19.503Z</time></trkpt><trkpt lat="37.3256964" lon="15.0431063"><ele>31.0</ele><time>2026-04-06T14:23:20.504Z</time></trkpt><trkpt lat="37.3259918" lon="15.0430254"><ele>31.0</ele><time>2026-04-06T14:23:21.503Z</time></trkpt><trkpt lat="37.3262932" lon="15.0429653"><ele>31.0</ele><time>2026-04-06T14:23:22.503Z</time></trkpt><trkpt lat="37.326592" lon="15.04291"><ele>30.5</ele><time>2026-04-06T14:23:23.503Z</time></trkpt><trkpt lat="37.3268942" lon="15.0428647"><ele>30.0</ele><time>2026-04-06T14:23:24.503Z</time></trkpt><trkpt lat="37.3271993" lon="15.0428213"><ele>30.0</ele><time>2026-04-06T14:23:25.503Z</time></trkpt><trkpt lat="37.3275047" lon="15.0427847"><ele>30.0</ele><time>2026-04-06T14:23:26.503Z</time></trkpt><trkpt lat="37.3278113" lon="15.0427517"><ele>30.0</ele><time>2026-04-06T14:23:27.503Z</time></trkpt><trkpt lat="37.3281156" lon="15.0427264"><ele>30.0</ele><time>2026-04-06T14:23:28.503Z</time></trkpt><trkpt lat="37.3284248" lon="15.0426999"><ele>30.0</ele><time>2026-04-06T14:23:29.503Z</time></trkpt><trkpt lat="37.3287272" lon="15.0426736"><ele>30.0</ele><time>2026-04-06T14:23:30.504Z</time></trkpt><trkpt lat="37.3290292" lon="15.04265"><ele>26.5</ele><time>2026-04-06T14:23:31.504Z</time></trkpt><trkpt lat="37.3293336" lon="15.0426136"><ele>23.0</ele><time>2026-04-06T14:23:32.503Z</time></trkpt><trkpt lat="37.32964" lon="15.0425829"><ele>18.5</ele><time>2026-04-06T14:23:33.503Z</time></trkpt><trkpt lat="37.3299446" lon="15.0425469"><ele>14.0</ele><time>2026-04-06T14:23:34.503Z</time></trkpt><trkpt lat="37.3302509" lon="15.0425203"><ele>14.0</ele><time>2026-04-06T14:23:35.503Z</time></trkpt><trkpt lat="37.3305547" lon="15.0424923"><ele>14.0</ele><time>2026-04-06T14:23:36.503Z</time></trkpt><trkpt lat="37.3308605" lon="15.0424631"><ele>14.0</ele><time>2026-04-06T14:23:37.503Z</time></trkpt><trkpt lat="37.3311662" lon="15.0424333"><ele>14.0</ele><time>2026-04-06T14:23:38.504Z</time></trkpt><trkpt lat="37.3314709" lon="15.0423989"><ele>15.5</ele><time>2026-04-06T14:23:39.503Z</time></trkpt><trkpt lat="37.3317767" lon="15.0423707"><ele>17.0</ele><time>2026-04-06T14:23:40.503Z</time></trkpt><trkpt lat="37.3320782" lon="15.0423405"><ele>15.5</ele><time>2026-04-06T14:23:41.503Z</time></trkpt><trkpt lat="37.3323761" lon="15.042313"><ele>14.0</ele><time>2026-04-06T14:23:42.503Z</time></trkpt><trkpt lat="37.3326798" lon="15.0422814"><ele>14.0</ele><time>2026-04-06T14:23:43.504Z</time></trkpt><trkpt lat="37.3329828" lon="15.0422525"><ele>14.0</ele><time>2026-04-06T14:23:44.503Z</time></trkpt><trkpt lat="37.3332854" lon="15.0422247"><ele>10.5</ele><time>2026-04-06T14:23:45.503Z</time></trkpt><trkpt lat="37.3335883" lon="15.0422022"><ele>7.0</ele><time>2026-04-06T14:23:46.504Z</time></trkpt><trkpt lat="37.3338951" lon="15.0421827"><ele>5.0</ele><time>2026-04-06T14:23:47.504Z</time></trkpt><trkpt lat="37.3342005" lon="15.0421689"><ele>3.0</ele><time>2026-04-06T14:23:48.503Z</time></trkpt><trkpt lat="37.3345058" lon="15.0421546"><ele>2.0</ele><time>2026-04-06T14:23:49.503Z</time></trkpt><trkpt lat="37.3348112" lon="15.0421358"><ele>1.0</ele><time>2026-04-06T14:23:50.504Z</time></trkpt><trkpt lat="37.335114" lon="15.0421118"><ele>1.0</ele><time>2026-04-06T14:23:51.503Z</time></trkpt><trkpt lat="37.3354168" lon="15.0420825"><ele>1.0</ele><time>2026-04-06T14:23:52.503Z</time></trkpt><trkpt lat="37.3357215" lon="15.0420541"><ele>2.0</ele><time>2026-04-06T14:23:53.503Z</time></trkpt><trkpt lat="37.3360249" lon="15.0420242"><ele>3.0</ele><time>2026-04-06T14:23:54.504Z</time></trkpt><trkpt lat="37.3363304" lon="15.0419972"><ele>4.0</ele><time>2026-04-06T14:23:55.503Z</time></trkpt><trkpt lat="37.3366347" lon="15.0419727"><ele>5.0</ele><time>2026-04-06T14:23:56.504Z</time></trkpt><trkpt lat="37.3369373" lon="15.0419434"><ele>4.0</ele><time>2026-04-06T14:23:57.504Z</time></trkpt><trkpt lat="37.3372408" lon="15.0419184"><ele>3.0</ele><time>2026-04-06T14:23:58.504Z</time></trkpt><trkpt lat="37.3375444" lon="15.0418896"><ele>3.0</ele><time>2026-04-06T14:23:59.503Z</time></trkpt><trkpt lat="37.3378455" lon="15.0418596"><ele>3.0</ele><time>2026-04-06T14:24:00.503Z</time></trkpt><trkpt lat="37.3381521" lon="15.0418311"><ele>3.5</ele><time>2026-04-06T14:24:01.504Z</time></trkpt><trkpt lat="37.3384578" lon="15.0418074"><ele>4.0</ele><time>2026-04-06T14:24:02.504Z</time></trkpt><trkpt lat="37.3387618" lon="15.0417851"><ele>4.0</ele><time>2026-04-06T14:24:03.504Z</time></trkpt><trkpt lat="37.3390684" lon="15.0417759"><ele>4.0</ele><time>2026-04-06T14:24:04.503Z</time></trkpt><trkpt lat="37.3393709" lon="15.0417684"><ele>4.0</ele><time>2026-04-06T14:24:05.503Z</time></trkpt><trkpt lat="37.3396753" lon="15.0417701"><ele>4.0</ele><time>2026-04-06T14:24:06.504Z</time></trkpt><trkpt lat="37.3399776" lon="15.0417795"><ele>4.0</ele><time>2026-04-06T14:24:07.504Z</time></trkpt><trkpt lat="37.3402821" lon="15.0417941"><ele>4.0</ele><time>2026-04-06T14:24:08.503Z</time></trkpt><trkpt lat="37.3405847" lon="15.0418131"><ele>3.0</ele><time>2026-04-06T14:24:09.503Z</time></trkpt><trkpt lat="37.3408885" lon="15.0418427"><ele>2.0</ele><time>2026-04-06T14:24:10.504Z</time></trkpt><trkpt lat="37.3411885" lon="15.0418841"><ele>2.0</ele><time>2026-04-06T14:24:11.503Z</time></trkpt><trkpt lat="37.3414876" lon="15.0419373"><ele>2.0</ele><time>2026-04-06T14:24:12.503Z</time></trkpt><trkpt lat="37.3417902" lon="15.0419961"><ele>2.0</ele><time>2026-04-06T14:24:13.504Z</time></trkpt><trkpt lat="37.3420937" lon="15.0420646"><ele>2.0</ele><time>2026-04-06T14:24:14.504Z</time></trkpt><trkpt lat="37.3423941" lon="15.0421427"><ele>3.5</ele><time>2026-04-06T14:24:15.503Z</time></trkpt><trkpt lat="37.3426873" lon="15.0422284"><ele>5.0</ele><time>2026-04-06T14:24:16.504Z</time></trkpt><trkpt lat="37.3429825" lon="15.0423266"><ele>4.0</ele><time>2026-04-06T14:24:17.503Z</time></trkpt><trkpt lat="37.3432767" lon="15.0424313"><ele>3.0</ele><time>2026-04-06T14:24:18.503Z</time></trkpt><trkpt lat="37.3435686" lon="15.0425409"><ele>3.0</ele><time>2026-04-06T14:24:19.503Z</time></trkpt><trkpt lat="37.3438631" lon="15.042657"><ele>3.0</ele><time>2026-04-06T14:24:20.503Z</time></trkpt><trkpt lat="37.3441525" lon="15.0427753"><ele>4.5</ele><time>2026-04-06T14:24:21.504Z</time></trkpt><trkpt lat="37.3444439" lon="15.0428938"><ele>6.0</ele><time>2026-04-06T14:24:22.503Z</time></trkpt><trkpt lat="37.3447288" lon="15.0430184"><ele>6.0</ele><time>2026-04-06T14:24:23.503Z</time></trkpt><trkpt lat="37.3450165" lon="15.0431409"><ele>6.0</ele><time>2026-04-06T14:24:24.503Z</time></trkpt><trkpt lat="37.3452986" lon="15.0432661"><ele>4.5</ele><time>2026-04-06T14:24:25.503Z</time></trkpt><trkpt lat="37.3455858" lon="15.043396"><ele>3.0</ele><time>2026-04-06T14:24:26.503Z</time></trkpt><trkpt lat="37.3458735" lon="15.0435274"><ele>3.0</ele><time>2026-04-06T14:24:27.503Z</time></trkpt><trkpt lat="37.3461656" lon="15.0436604"><ele>3.0</ele><time>2026-04-06T14:24:28.503Z</time></trkpt><trkpt lat="37.3464548" lon="15.0437899"><ele>3.0</ele><time>2026-04-06T14:24:29.503Z</time></trkpt><trkpt lat="37.3467436" lon="15.0439213"><ele>3.0</ele><time>2026-04-06T14:24:30.503Z</time></trkpt><trkpt lat="37.3470309" lon="15.0440467"><ele>3.0</ele><time>2026-04-06T14:24:31.503Z</time></trkpt><trkpt lat="37.3473198" lon="15.0441755"><ele>3.0</ele><time>2026-04-06T14:24:32.503Z</time></trkpt><trkpt lat="37.3476079" lon="15.044302"><ele>3.0</ele><time>2026-04-06T14:24:33.504Z</time></trkpt><trkpt lat="37.3478938" lon="15.044426"><ele>3.0</ele><time>2026-04-06T14:24:34.503Z</time></trkpt><trkpt lat="37.348183" lon="15.0445504"><ele>3.0</ele><time>2026-04-06T14:24:35.504Z</time></trkpt><trkpt lat="37.3484727" lon="15.0446771"><ele>3.0</ele><time>2026-04-06T14:24:36.504Z</time></trkpt><trkpt lat="37.3487638" lon="15.0448005"><ele>3.5</ele><time>2026-04-06T14:24:37.503Z</time></trkpt><trkpt lat="37.349056" lon="15.0449267"><ele>4.0</ele><time>2026-04-06T14:24:38.503Z</time></trkpt><trkpt lat="37.3493448" lon="15.0450527"><ele>4.0</ele><time>2026-04-06T14:24:39.503Z</time></trkpt><trkpt lat="37.3496324" lon="15.0451718"><ele>4.0</ele><time>2026-04-06T14:24:40.504Z</time></trkpt><trkpt lat="37.3499193" lon="15.0452968"><ele>4.0</ele><time>2026-04-06T14:24:41.503Z</time></trkpt><trkpt lat="37.3502068" lon="15.0454213"><ele>4.0</ele><time>2026-04-06T14:24:42.503Z</time></trkpt><trkpt lat="37.3504924" lon="15.0455458"><ele>3.5</ele><time>2026-04-06T14:24:43.503Z</time></trkpt><trkpt lat="37.3507817" lon="15.0456704"><ele>3.0</ele><time>2026-04-06T14:24:44.503Z</time></trkpt><trkpt lat="37.3510692" lon="15.0457907"><ele>2.0</ele><time>2026-04-06T14:24:45.503Z</time></trkpt><trkpt lat="37.351362" lon="15.0459117"><ele>1.0</ele><time>2026-04-06T14:24:46.503Z</time></trkpt><trkpt lat="37.3516518" lon="15.0460326"><ele>3.0</ele><time>2026-04-06T14:24:47.503Z</time></trkpt><trkpt lat="37.3519392" lon="15.0461456"><ele>5.0</ele><time>2026-04-06T14:24:48.504Z</time></trkpt><trkpt lat="37.3522339" lon="15.0462599"><ele>5.0</ele><time>2026-04-06T14:24:49.503Z</time></trkpt><trkpt lat="37.3525252" lon="15.046371"><ele>5.0</ele><time>2026-04-06T14:24:50.503Z</time></trkpt><trkpt lat="37.3528148" lon="15.0464819"><ele>5.5</ele><time>2026-04-06T14:24:51.504Z</time></trkpt><trkpt lat="37.353106" lon="15.0465877"><ele>6.0</ele><time>2026-04-06T14:24:52.503Z</time></trkpt><trkpt lat="37.3533978" lon="15.046692"><ele>5.0</ele><time>2026-04-06T14:24:53.503Z</time></trkpt><trkpt lat="37.3536927" lon="15.0467904"><ele>4.0</ele><time>2026-04-06T14:24:54.503Z</time></trkpt><trkpt lat="37.3539865" lon="15.0468869"><ele>4.0</ele><time>2026-04-06T14:24:55.503Z</time></trkpt><trkpt lat="37.3542814" lon="15.0469781"><ele>4.0</ele><time>2026-04-06T14:24:56.503Z</time></trkpt><trkpt lat="37.3545776" lon="15.0470694"><ele>5.0</ele><time>2026-04-06T14:24:57.503Z</time></trkpt><trkpt lat="37.3548723" lon="15.0471511"><ele>6.0</ele><time>2026-04-06T14:24:58.503Z</time></trkpt><trkpt lat="37.3551689" lon="15.0472319"><ele>6.0</ele><time>2026-04-06T14:24:59.503Z</time></trkpt><trkpt lat="37.3554656" lon="15.0473072"><ele>6.0</ele><time>2026-04-06T14:25:00.503Z</time></trkpt><trkpt lat="37.3557624" lon="15.0473709"><ele>6.5</ele><time>2026-04-06T14:25:01.503Z</time></trkpt><trkpt lat="37.356062" lon="15.047428"><ele>7.0</ele><time>2026-04-06T14:25:02.504Z</time></trkpt><trkpt lat="37.3563635" lon="15.0474728"><ele>6.0</ele><time>2026-04-06T14:25:03.503Z</time></trkpt><trkpt lat="37.3566678" lon="15.047517"><ele>5.0</ele><time>2026-04-06T14:25:04.504Z</time></trkpt><trkpt lat="37.3569735" lon="15.0475534"><ele>6.0</ele><time>2026-04-06T14:25:05.503Z</time></trkpt><trkpt lat="37.3572794" lon="15.0475831"><ele>7.0</ele><time>2026-04-06T14:25:06.503Z</time></trkpt><trkpt lat="37.3575807" lon="15.0476084"><ele>7.0</ele><time>2026-04-06T14:25:07.503Z</time></trkpt><trkpt lat="37.3578868" lon="15.0476278"><ele>7.0</ele><time>2026-04-06T14:25:08.504Z</time></trkpt><trkpt lat="37.3581913" lon="15.0476397"><ele>9.0</ele><time>2026-04-06T14:25:09.503Z</time></trkpt><trkpt lat="37.3584978" lon="15.047648"><ele>11.0</ele><time>2026-04-06T14:25:10.503Z</time></trkpt><trkpt lat="37.3588062" lon="15.0476488"><ele>14.5</ele><time>2026-04-06T14:25:11.504Z</time></trkpt><trkpt lat="37.3591101" lon="15.0476427"><ele>18.0</ele><time>2026-04-06T14:25:12.503Z</time></trkpt><trkpt lat="37.3594181" lon="15.0476309"><ele>20.5</ele><time>2026-04-06T14:25:13.503Z</time></trkpt><trkpt lat="37.359724" lon="15.0476149"><ele>23.0</ele><time>2026-04-06T14:25:14.503Z</time></trkpt><trkpt lat="37.3600274" lon="15.0475947"><ele>23.0</ele><time>2026-04-06T14:25:15.503Z</time></trkpt><trkpt lat="37.3603336" lon="15.0475683"><ele>23.0</ele><time>2026-04-06T14:25:16.503Z</time></trkpt><trkpt lat="37.3606362" lon="15.0475347"><ele>24.0</ele><time>2026-04-06T14:25:17.503Z</time></trkpt><trkpt lat="37.360943" lon="15.0474981"><ele>25.0</ele><time>2026-04-06T14:25:18.503Z</time></trkpt><trkpt lat="37.3612516" lon="15.0474587"><ele>17.0</ele><time>2026-04-06T14:25:19.503Z</time></trkpt><trkpt lat="37.3615597" lon="15.0474206"><ele>9.0</ele><time>2026-04-06T14:25:20.504Z</time></trkpt><trkpt lat="37.3870432" lon="15.0381437"><ele>7.5</ele><time>2026-04-06T14:26:47.503Z</time></trkpt><trkpt lat="37.3873465" lon="15.0380432"><ele>6.0</ele><time>2026-04-06T14:26:48.503Z</time></trkpt><trkpt lat="37.3876549" lon="15.037947"><ele>6.0</ele><time>2026-04-06T14:26:49.503Z</time></trkpt><trkpt lat="37.3879524" lon="15.0378473"><ele>6.0</ele><time>2026-04-06T14:26:50.503Z</time></trkpt><trkpt lat="37.38824" lon="15.0377456"><ele>6.5</ele><time>2026-04-06T14:26:51.503Z</time></trkpt><trkpt lat="37.3885289" lon="15.0376364"><ele>7.0</ele><time>2026-04-06T14:26:52.503Z</time></trkpt><trkpt lat="37.3888185" lon="15.0375344"><ele>7.0</ele><time>2026-04-06T14:26:53.504Z</time></trkpt><trkpt lat="37.3891123" lon="15.0374294"><ele>7.0</ele><time>2026-04-06T14:26:54.503Z</time></trkpt><trkpt lat="37.389405" lon="15.0373184"><ele>7.5</ele><time>2026-04-06T14:26:55.503Z</time></trkpt><trkpt lat="37.3896941" lon="15.0372112"><ele>8.0</ele><time>2026-04-06T14:26:56.503Z</time></trkpt><trkpt lat="37.3899873" lon="15.0371041"><ele>8.0</ele><time>2026-04-06T14:26:57.503Z</time></trkpt><trkpt lat="37.390279" lon="15.0369995"><ele>8.0</ele><time>2026-04-06T14:26:58.503Z</time></trkpt><trkpt lat="37.3905698" lon="15.0368884"><ele>7.5</ele><time>2026-04-06T14:26:59.504Z</time></trkpt><trkpt lat="37.3908609" lon="15.0367775"><ele>7.0</ele><time>2026-04-06T14:27:00.503Z</time></trkpt><trkpt lat="37.3911552" lon="15.0366688"><ele>7.0</ele><time>2026-04-06T14:27:01.503Z</time></trkpt><trkpt lat="37.3914504" lon="15.0365616"><ele>7.0</ele><time>2026-04-06T14:27:02.504Z</time></trkpt><trkpt lat="37.391746" lon="15.0364538"><ele>7.0</ele><time>2026-04-06T14:27:03.504Z</time></trkpt><trkpt lat="37.3920413" lon="15.0363467"><ele>7.0</ele><time>2026-04-06T14:27:04.503Z</time></trkpt><trkpt lat="37.3923319" lon="15.0362389"><ele>6.5</ele><time>2026-04-06T14:27:05.503Z</time></trkpt><trkpt lat="37.3926256" lon="15.0361271"><ele>6.0</ele><time>2026-04-06T14:27:06.503Z</time></trkpt><trkpt lat="37.3929199" lon="15.0360165"><ele>6.5</ele><time>2026-04-06T14:27:07.504Z</time></trkpt><trkpt lat="37.3932124" lon="15.0359081"><ele>7.0</ele><time>2026-04-06T14:27:08.504Z</time></trkpt><trkpt lat="37.3935039" lon="15.0358007"><ele>7.0</ele><time>2026-04-06T14:27:09.503Z</time></trkpt><trkpt lat="37.3937972" lon="15.0356911"><ele>7.0</ele><time>2026-04-06T14:27:10.504Z</time></trkpt><trkpt lat="37.3940906" lon="15.0355843"><ele>7.5</ele><time>2026-04-06T14:27:11.503Z</time></trkpt><trkpt lat="37.3943825" lon="15.0354799"><ele>8.0</ele><time>2026-04-06T14:27:12.503Z</time></trkpt><trkpt lat="37.3946744" lon="15.0353765"><ele>8.5</ele><time>2026-04-06T14:27:13.503Z</time></trkpt><trkpt lat="37.3949701" lon="15.0352749"><ele>9.0</ele><time>2026-04-06T14:27:14.503Z</time></trkpt><trkpt lat="37.3952641" lon="15.0351731"><ele>9.0</ele><time>2026-04-06T14:27:15.503Z</time></trkpt><trkpt lat="37.3955583" lon="15.0350718"><ele>9.0</ele><time>2026-04-06T14:27:16.503Z</time></trkpt><trkpt lat="37.395853" lon="15.0349683"><ele>9.0</ele><time>2026-04-06T14:27:17.503Z</time></trkpt><trkpt lat="37.3961481" lon="15.034863"><ele>9.0</ele><time>2026-04-06T14:27:18.503Z</time></trkpt><trkpt lat="37.3964457" lon="15.0347618"><ele>8.5</ele><time>2026-04-06T14:27:19.503Z</time></trkpt><trkpt lat="37.3967412" lon="15.0346708"><ele>8.0</ele><time>2026-04-06T14:27:20.503Z</time></trkpt><trkpt lat="37.397037" lon="15.0345796"><ele>8.5</ele><time>2026-04-06T14:27:21.503Z</time></trkpt><trkpt lat="37.3973342" lon="15.0344945"><ele>9.0</ele><time>2026-04-06T14:27:22.503Z</time></trkpt><trkpt lat="37.3976307" lon="15.0344114"><ele>9.0</ele><time>2026-04-06T14:27:23.503Z</time></trkpt><trkpt lat="37.3979302" lon="15.034334"><ele>9.0</ele><time>2026-04-06T14:27:24.503Z</time></trkpt><trkpt lat="37.3982289" lon="15.034256"><ele>9.0</ele><time>2026-04-06T14:27:25.503Z</time></trkpt><trkpt lat="37.3985286" lon="15.0341816"><ele>9.0</ele><time>2026-04-06T14:27:26.504Z</time></trkpt><trkpt lat="37.398826" lon="15.0341071"><ele>7.5</ele><time>2026-04-06T14:27:27.503Z</time></trkpt><trkpt lat="37.399125" lon="15.0340276"><ele>6.0</ele><time>2026-04-06T14:27:28.503Z</time></trkpt><trkpt lat="37.3994224" lon="15.0339556"><ele>6.5</ele><time>2026-04-06T14:27:29.503Z</time></trkpt><trkpt lat="37.3997213" lon="15.0338878"><ele>7.0</ele><time>2026-04-06T14:27:30.503Z</time></trkpt><trkpt lat="37.4000223" lon="15.0338222"><ele>7.0</ele><time>2026-04-06T14:27:31.503Z</time></trkpt><trkpt lat="37.400324" lon="15.0337593"><ele>7.0</ele><time>2026-04-06T14:27:32.503Z</time></trkpt><trkpt lat="37.4006257" lon="15.0336955"><ele>8.0</ele><time>2026-04-06T14:27:33.503Z</time></trkpt><trkpt lat="37.4009293" lon="15.0336374"><ele>9.0</ele><time>2026-04-06T14:27:34.503Z</time></trkpt><trkpt lat="37.4012286" lon="15.0335862"><ele>8.5</ele><time>2026-04-06T14:27:35.503Z</time></trkpt><trkpt lat="37.4015319" lon="15.033534"><ele>8.0</ele><time>2026-04-06T14:27:36.503Z</time></trkpt><trkpt lat="37.4018343" lon="15.0334819"><ele>8.0</ele><time>2026-04-06T14:27:37.503Z</time></trkpt><trkpt lat="37.4021388" lon="15.0334323"><ele>8.0</ele><time>2026-04-06T14:27:38.503Z</time></trkpt><trkpt lat="37.4024459" lon="15.0333898"><ele>7.5</ele><time>2026-04-06T14:27:39.504Z</time></trkpt><trkpt lat="37.4027513" lon="15.033349"><ele>7.0</ele><time>2026-04-06T14:27:40.503Z</time></trkpt><trkpt lat="37.4030587" lon="15.0333078"><ele>7.0</ele><time>2026-04-06T14:27:41.503Z</time></trkpt><trkpt lat="37.4033614" lon="15.0332673"><ele>7.0</ele><time>2026-04-06T14:27:42.504Z</time></trkpt><trkpt lat="37.4036628" lon="15.0332234"><ele>7.0</ele><time>2026-04-06T14:27:43.503Z</time></trkpt><trkpt lat="37.4039641" lon="15.0331847"><ele>7.0</ele><time>2026-04-06T14:27:44.503Z</time></trkpt><trkpt lat="37.4042657" lon="15.0331472"><ele>7.0</ele><time>2026-04-06T14:27:45.503Z</time></trkpt><trkpt lat="37.4045668" lon="15.0331105"><ele>7.0</ele><time>2026-04-06T14:27:46.503Z</time></trkpt><trkpt lat="37.4048677" lon="15.0330774"><ele>7.5</ele><time>2026-04-06T14:27:47.503Z</time></trkpt><trkpt lat="37.4051699" lon="15.0330441"><ele>8.0</ele><time>2026-04-06T14:27:48.503Z</time></trkpt><trkpt lat="37.405475" lon="15.0330107"><ele>8.0</ele><time>2026-04-06T14:27:49.504Z</time></trkpt><trkpt lat="37.4057794" lon="15.0329747"><ele>8.0</ele><time>2026-04-06T14:27:50.504Z</time></trkpt><trkpt lat="37.4060858" lon="15.0329412"><ele>8.5</ele><time>2026-04-06T14:27:51.503Z</time></trkpt><trkpt lat="37.4063912" lon="15.0329022"><ele>9.0</ele><time>2026-04-06T14:27:52.503Z</time></trkpt><trkpt lat="37.4066938" lon="15.0328633"><ele>9.0</ele><time>2026-04-06T14:27:53.503Z</time></trkpt><trkpt lat="37.4069974" lon="15.0328256"><ele>9.0</ele><time>2026-04-06T14:27:54.503Z</time></trkpt><trkpt lat="37.4073037" lon="15.0327905"><ele>10.0</ele><time>2026-04-06T14:27:55.503Z</time></trkpt><trkpt lat="37.4076065" lon="15.0327568"><ele>11.0</ele><time>2026-04-06T14:27:56.503Z</time></trkpt><trkpt lat="37.4079104" lon="15.0327217"><ele>12.0</ele><time>2026-04-06T14:27:57.503Z</time></trkpt><trkpt lat="37.4082156" lon="15.032692"><ele>13.0</ele><time>2026-04-06T14:27:58.503Z</time></trkpt><trkpt lat="37.4085218" lon="15.032667"><ele>12.5</ele><time>2026-04-06T14:27:59.503Z</time></trkpt><trkpt lat="37.4088264" lon="15.0326477"><ele>12.0</ele><time>2026-04-06T14:28:00.503Z</time></trkpt><trkpt lat="37.4091294" lon="15.0326299"><ele>12.0</ele><time>2026-04-06T14:28:01.503Z</time></trkpt><trkpt lat="37.4094312" lon="15.0326251"><ele>12.0</ele><time>2026-04-06T14:28:02.504Z</time></trkpt><trkpt lat="37.4097367" lon="15.0326247"><ele>12.5</ele><time>2026-04-06T14:28:03.504Z</time></trkpt><trkpt lat="37.410042" lon="15.0326279"><ele>13.0</ele><time>2026-04-06T14:28:04.504Z</time></trkpt><trkpt lat="37.4103473" lon="15.0326387"><ele>12.5</ele><time>2026-04-06T14:28:05.503Z</time></trkpt><trkpt lat="37.4106479" lon="15.0326527"><ele>12.0</ele><time>2026-04-06T14:28:06.503Z</time></trkpt><trkpt lat="37.4109505" lon="15.0326651"><ele>12.0</ele><time>2026-04-06T14:28:07.504Z</time></trkpt><trkpt lat="37.411253" lon="15.0326833"><ele>12.0</ele><time>2026-04-06T14:28:08.503Z</time></trkpt><trkpt lat="37.4115553" lon="15.0327045"><ele>12.0</ele><time>2026-04-06T14:28:09.503Z</time></trkpt><trkpt lat="37.4118555" lon="15.0327332"><ele>12.0</ele><time>2026-04-06T14:28:10.503Z</time></trkpt><trkpt lat="37.4121549" lon="15.0327695"><ele>11.5</ele><time>2026-04-06T14:28:11.503Z</time></trkpt><trkpt lat="37.4124559" lon="15.0328076"><ele>11.0</ele><time>2026-04-06T14:28:12.503Z</time></trkpt><trkpt lat="37.4127593" lon="15.0328534"><ele>11.0</ele><time>2026-04-06T14:28:13.503Z</time></trkpt><trkpt lat="37.4130654" lon="15.0328999"><ele>11.0</ele><time>2026-04-06T14:28:14.504Z</time></trkpt><trkpt lat="37.4133674" lon="15.0329443"><ele>11.0</ele><time>2026-04-06T14:28:15.503Z</time></trkpt><trkpt lat="37.4136712" lon="15.0329886"><ele>11.0</ele><time>2026-04-06T14:28:16.503Z</time></trkpt><trkpt lat="37.4139778" lon="15.0330295"><ele>10.5</ele><time>2026-04-06T14:28:17.503Z</time></trkpt><trkpt lat="37.414281" lon="15.0330738"><ele>10.0</ele><time>2026-04-06T14:28:18.504Z</time></trkpt><trkpt lat="37.4145832" lon="15.033121"><ele>9.0</ele><time>2026-04-06T14:28:19.503Z</time></trkpt><trkpt lat="37.414885" lon="15.0331677"><ele>8.0</ele><time>2026-04-06T14:28:20.503Z</time></trkpt><trkpt lat="37.415189" lon="15.0332152"><ele>6.0</ele><time>2026-04-06T14:28:21.504Z</time></trkpt><trkpt lat="37.4154909" lon="15.0332629"><ele>4.0</ele><time>2026-04-06T14:28:22.503Z</time></trkpt><trkpt lat="37.4157954" lon="15.0333049"><ele>4.5</ele><time>2026-04-06T14:28:23.503Z</time></trkpt><trkpt lat="37.4160966" lon="15.0333489"><ele>5.0</ele><time>2026-04-06T14:28:24.503Z</time></trkpt><trkpt lat="37.4163984" lon="15.0333949"><ele>7.0</ele><time>2026-04-06T14:28:25.503Z</time></trkpt><trkpt lat="37.4166999" lon="15.0334426"><ele>9.0</ele><time>2026-04-06T14:28:26.503Z</time></trkpt><trkpt lat="37.4170028" lon="15.0334872"><ele>11.5</ele><time>2026-04-06T14:28:27.503Z</time></trkpt><trkpt lat="37.4173077" lon="15.0335365"><ele>14.0</ele><time>2026-04-06T14:28:28.514Z</time></trkpt><trkpt lat="37.4176151" lon="15.0335865"><ele>14.0</ele><time>2026-04-06T14:28:29.515Z</time></trkpt><trkpt lat="37.417919" lon="15.0336365"><ele>14.0</ele><time>2026-04-06T14:28:30.514Z</time></trkpt><trkpt lat="37.4182186" lon="15.0336814"><ele>12.5</ele><time>2026-04-06T14:28:31.514Z</time></trkpt><trkpt lat="37.4185234" lon="15.0337196"><ele>11.0</ele><time>2026-04-06T14:28:32.515Z</time></trkpt><trkpt lat="37.4188298" lon="15.0337634"><ele>11.0</ele><time>2026-04-06T14:28:33.514Z</time></trkpt><trkpt lat="37.4191302" lon="15.0338086"><ele>11.0</ele><time>2026-04-06T14:28:34.514Z</time></trkpt><trkpt lat="37.4194336" lon="15.0338546"><ele>9.5</ele><time>2026-04-06T14:28:35.514Z</time></trkpt><trkpt lat="37.4197361" lon="15.0339037"><ele>8.0</ele><time>2026-04-06T14:28:36.514Z</time></trkpt><trkpt lat="37.4200386" lon="15.0339472"><ele>8.0</ele><time>2026-04-06T14:28:37.515Z</time></trkpt><trkpt lat="37.4203412" lon="15.0339888"><ele>8.0</ele><time>2026-04-06T14:28:38.514Z</time></trkpt><trkpt lat="37.4206447" lon="15.0340264"><ele>8.5</ele><time>2026-04-06T14:28:39.515Z</time></trkpt><trkpt lat="37.420949" lon="15.0340661"><ele>9.0</ele><time>2026-04-06T14:28:40.514Z</time></trkpt><trkpt lat="37.4212532" lon="15.0340947"><ele>9.0</ele><time>2026-04-06T14:28:41.515Z</time></trkpt><trkpt lat="37.4215619" lon="15.0341176"><ele>9.0</ele><time>2026-04-06T14:28:42.514Z</time></trkpt><trkpt lat="37.4218673" lon="15.0341373"><ele>8.5</ele><time>2026-04-06T14:28:43.514Z</time></trkpt><trkpt lat="37.4221719" lon="15.0341471"><ele>8.0</ele><time>2026-04-06T14:28:44.514Z</time></trkpt><trkpt lat="37.4224809" lon="15.0341454"><ele>8.0</ele><time>2026-04-06T14:28:45.514Z</time></trkpt><trkpt lat="37.4227899" lon="15.0341314"><ele>8.0</ele><time>2026-04-06T14:28:46.515Z</time></trkpt><trkpt lat="37.423095" lon="15.0341049"><ele>8.0</ele><time>2026-04-06T14:28:47.514Z</time></trkpt><trkpt lat="37.423397" lon="15.0340631"><ele>8.0</ele><time>2026-04-06T14:28:48.514Z</time></trkpt><trkpt lat="37.4237007" lon="15.0340031"><ele>8.5</ele><time>2026-04-06T14:28:49.514Z</time></trkpt><trkpt lat="37.4240042" lon="15.0339332"><ele>9.0</ele><time>2026-04-06T14:28:50.514Z</time></trkpt><trkpt lat="37.4243026" lon="15.0338546"><ele>9.0</ele><time>2026-04-06T14:28:51.515Z</time></trkpt><trkpt lat="37.4245929" lon="15.0337567"><ele>9.0</ele><time>2026-04-06T14:28:52.515Z</time></trkpt><trkpt lat="37.4248791" lon="15.0336505"><ele>9.5</ele><time>2026-04-06T14:28:53.514Z</time></trkpt><trkpt lat="37.4251653" lon="15.0335338"><ele>10.0</ele><time>2026-04-06T14:28:54.514Z</time></trkpt><trkpt lat="37.4254526" lon="15.0333987"><ele>11.0</ele><time>2026-04-06T14:28:55.514Z</time></trkpt><trkpt lat="37.4257347" lon="15.0332574"><ele>12.0</ele><time>2026-04-06T14:28:56.514Z</time></trkpt><trkpt lat="37.4260131" lon="15.0331009"><ele>12.0</ele><time>2026-04-06T14:28:57.514Z</time></trkpt><trkpt lat="37.4262894" lon="15.0329385"><ele>12.0</ele><time>2026-04-06T14:28:58.514Z</time></trkpt><trkpt lat="37.4265609" lon="15.03277"><ele>11.5</ele><time>2026-04-06T14:28:59.515Z</time></trkpt><trkpt lat="37.4268248" lon="15.032591"><ele>11.0</ele><time>2026-04-06T14:29:00.515Z</time></trkpt><trkpt lat="37.4270865" lon="15.0323968"><ele>11.5</ele><time>2026-04-06T14:29:01.514Z</time></trkpt><trkpt lat="37.4273469" lon="15.0322031"><ele>12.0</ele><time>2026-04-06T14:29:02.515Z</time></trkpt><trkpt lat="37.427611" lon="15.0320053"><ele>12.0</ele><time>2026-04-06T14:29:03.515Z</time></trkpt><trkpt lat="37.4278727" lon="15.0318052"><ele>12.0</ele><time>2026-04-06T14:29:04.515Z</time></trkpt><trkpt lat="37.4281322" lon="15.0316005"><ele>10.5</ele><time>2026-04-06T14:29:05.514Z</time></trkpt><trkpt lat="37.4283889" lon="15.0313981"><ele>9.0</ele><time>2026-04-06T14:29:06.514Z</time></trkpt><trkpt lat="37.4286483" lon="15.0311937"><ele>9.0</ele><time>2026-04-06T14:29:07.514Z</time></trkpt><trkpt lat="37.4289059" lon="15.0309935"><ele>9.0</ele><time>2026-04-06T14:29:08.514Z</time></trkpt><trkpt lat="37.4291653" lon="15.0308014"><ele>9.0</ele><time>2026-04-06T14:29:09.515Z</time></trkpt><trkpt lat="37.4294331" lon="15.0306182"><ele>9.0</ele><time>2026-04-06T14:29:10.515Z</time></trkpt><trkpt lat="37.4297019" lon="15.0304432"><ele>9.5</ele><time>2026-04-06T14:29:11.514Z</time></trkpt><trkpt lat="37.4299765" lon="15.0302737"><ele>10.0</ele><time>2026-04-06T14:29:12.514Z</time></trkpt><trkpt lat="37.4302524" lon="15.0301064"><ele>10.0</ele><time>2026-04-06T14:29:13.514Z</time></trkpt><trkpt lat="37.4305341" lon="15.0299481"><ele>10.0</ele><time>2026-04-06T14:29:14.515Z</time></trkpt><trkpt lat="37.4308132" lon="15.0297958"><ele>10.0</ele><time>2026-04-06T14:29:15.514Z</time></trkpt><trkpt lat="37.4310979" lon="15.0296523"><ele>10.0</ele><time>2026-04-06T14:29:16.515Z</time></trkpt><trkpt lat="37.4313802" lon="15.0295143"><ele>10.0</ele><time>2026-04-06T14:29:17.515Z</time></trkpt><trkpt lat="37.4316638" lon="15.0293824"><ele>10.0</ele><time>2026-04-06T14:29:18.514Z</time></trkpt><trkpt lat="37.4319519" lon="15.0292559"><ele>10.5</ele><time>2026-04-06T14:29:19.514Z</time></trkpt><trkpt lat="37.4322382" lon="15.0291343"><ele>11.0</ele><time>2026-04-06T14:29:20.514Z</time></trkpt><trkpt lat="37.4325292" lon="15.0290191"><ele>11.0</ele><time>2026-04-06T14:29:21.514Z</time></trkpt><trkpt lat="37.4328187" lon="15.0289115"><ele>11.0</ele><time>2026-04-06T14:29:22.515Z</time></trkpt><trkpt lat="37.4331149" lon="15.0288127"><ele>10.5</ele><time>2026-04-06T14:29:23.514Z</time></trkpt><trkpt lat="37.4334124" lon="15.0287201"><ele>10.0</ele><time>2026-04-06T14:29:24.514Z</time></trkpt><trkpt lat="37.4337097" lon="15.0286331"><ele>10.5</ele><time>2026-04-06T14:29:25.514Z</time></trkpt><trkpt lat="37.434007" lon="15.0285546"><ele>11.0</ele><time>2026-04-06T14:29:26.514Z</time></trkpt><trkpt lat="37.4343084" lon="15.0284803"><ele>11.0</ele><time>2026-04-06T14:29:27.514Z</time></trkpt><trkpt lat="37.4346121" lon="15.0284154"><ele>11.0</ele><time>2026-04-06T14:29:28.515Z</time></trkpt><trkpt lat="37.4349161" lon="15.0283562"><ele>10.5</ele><time>2026-04-06T14:29:29.514Z</time></trkpt><trkpt lat="37.4352202" lon="15.0283056"><ele>10.0</ele><time>2026-04-06T14:29:30.515Z</time></trkpt><trkpt lat="37.4355234" lon="15.0282625"><ele>9.0</ele><time>2026-04-06T14:29:31.514Z</time></trkpt><trkpt lat="37.4358265" lon="15.028223"><ele>8.0</ele><time>2026-04-06T14:29:32.514Z</time></trkpt><trkpt lat="37.4361328" lon="15.028187"><ele>10.0</ele><time>2026-04-06T14:29:33.514Z</time></trkpt><trkpt lat="37.4364385" lon="15.0281589"><ele>12.0</ele><time>2026-04-06T14:29:34.515Z</time></trkpt><trkpt lat="37.4367386" lon="15.028135"><ele>12.0</ele><time>2026-04-06T14:29:35.514Z</time></trkpt><trkpt lat="37.4370422" lon="15.0281208"><ele>12.0</ele><time>2026-04-06T14:29:36.514Z</time></trkpt><trkpt lat="37.4373447" lon="15.0281148"><ele>11.5</ele><time>2026-04-06T14:29:37.515Z</time></trkpt><trkpt lat="37.4376511" lon="15.0281184"><ele>11.0</ele><time>2026-04-06T14:29:38.514Z</time></trkpt><trkpt lat="37.4379548" lon="15.0281264"><ele>12.0</ele><time>2026-04-06T14:29:39.515Z</time></trkpt><trkpt lat="37.4382592" lon="15.0281434"><ele>13.0</ele><time>2026-04-06T14:29:40.514Z</time></trkpt><trkpt lat="37.4385637" lon="15.0281665"><ele>12.5</ele><time>2026-04-06T14:29:41.514Z</time></trkpt><trkpt lat="37.4388682" lon="15.0281953"><ele>12.0</ele><time>2026-04-06T14:29:42.515Z</time></trkpt><trkpt lat="37.4391695" lon="15.0282293"><ele>12.0</ele><time>2026-04-06T14:29:43.514Z</time></trkpt><trkpt lat="37.4394729" lon="15.0282669"><ele>12.0</ele><time>2026-04-06T14:29:44.514Z</time></trkpt><trkpt lat="37.4397745" lon="15.0283161"><ele>13.0</ele><time>2026-04-06T14:29:45.514Z</time></trkpt><trkpt lat="37.4400747" lon="15.0283728"><ele>14.0</ele><time>2026-04-06T14:29:46.514Z</time></trkpt><trkpt lat="37.440377" lon="15.0284407"><ele>13.5</ele><time>2026-04-06T14:29:47.514Z</time></trkpt><trkpt lat="37.4406771" lon="15.0285141"><ele>13.0</ele><time>2026-04-06T14:29:48.514Z</time></trkpt><trkpt lat="37.4409762" lon="15.0285933"><ele>13.0</ele><time>2026-04-06T14:29:49.514Z</time></trkpt><trkpt lat="37.4412729" lon="15.0286791"><ele>13.0</ele><time>2026-04-06T14:29:50.514Z</time></trkpt><trkpt lat="37.4415718" lon="15.0287707"><ele>13.5</ele><time>2026-04-06T14:29:51.515Z</time></trkpt><trkpt lat="37.4418672" lon="15.0288586"><ele>14.0</ele><time>2026-04-06T14:29:52.514Z</time></trkpt><trkpt lat="37.44216" lon="15.0289621"><ele>14.5</ele><time>2026-04-06T14:29:53.514Z</time></trkpt><trkpt lat="37.4424508" lon="15.0290598"><ele>15.0</ele><time>2026-04-06T14:29:54.514Z</time></trkpt><trkpt lat="37.4427317" lon="15.0291598"><ele>15.0</ele><time>2026-04-06T14:29:55.515Z</time></trkpt><trkpt lat="37.4429996" lon="15.0292502"><ele>15.0</ele><time>2026-04-06T14:29:56.514Z</time></trkpt><trkpt lat="37.4432675" lon="15.0293416"><ele>15.0</ele><time>2026-04-06T14:29:57.514Z</time></trkpt><trkpt lat="37.4435456" lon="15.0294317"><ele>15.0</ele><time>2026-04-06T14:29:58.515Z</time></trkpt><trkpt lat="37.4438329" lon="15.0295228"><ele>14.0</ele><time>2026-04-06T14:29:59.514Z</time></trkpt><trkpt lat="37.4441266" lon="15.0296279"><ele>13.0</ele><time>2026-04-06T14:30:00.514Z</time></trkpt><trkpt lat="37.4444178" lon="15.0297456"><ele>13.5</ele><time>2026-04-06T14:30:01.514Z</time></trkpt><trkpt lat="37.4447044" lon="15.029885"><ele>14.0</ele><time>2026-04-06T14:30:02.514Z</time></trkpt><trkpt lat="37.4449864" lon="15.0300319"><ele>14.0</ele><time>2026-04-06T14:30:03.514Z</time></trkpt><trkpt lat="37.4452625" lon="15.0301863"><ele>14.0</ele><time>2026-04-06T14:30:04.514Z</time></trkpt><trkpt lat="37.4455342" lon="15.0303443"><ele>14.0</ele><time>2026-04-06T14:30:05.514Z</time></trkpt><trkpt lat="37.445798" lon="15.0305123"><ele>14.0</ele><time>2026-04-06T14:30:06.515Z</time></trkpt><trkpt lat="37.4460614" lon="15.0306875"><ele>14.0</ele><time>2026-04-06T14:30:07.514Z</time></trkpt><trkpt lat="37.4463211" lon="15.0308676"><ele>14.0</ele><time>2026-04-06T14:30:08.514Z</time></trkpt><trkpt lat="37.446576" lon="15.0310551"><ele>14.0</ele><time>2026-04-06T14:30:09.514Z</time></trkpt><trkpt lat="37.4468295" lon="15.0312452"><ele>14.0</ele><time>2026-04-06T14:30:10.514Z</time></trkpt><trkpt lat="37.447086" lon="15.0314429"><ele>15.5</ele><time>2026-04-06T14:30:11.514Z</time></trkpt><trkpt lat="37.4473402" lon="15.0316456"><ele>17.0</ele><time>2026-04-06T14:30:12.514Z</time></trkpt><trkpt lat="37.4475923" lon="15.0318465"><ele>17.0</ele><time>2026-04-06T14:30:13.514Z</time></trkpt><trkpt lat="37.4478449" lon="15.0320539"><ele>17.0</ele><time>2026-04-06T14:30:14.514Z</time></trkpt><trkpt lat="37.4481012" lon="15.0322582"><ele>16.0</ele><time>2026-04-06T14:30:15.514Z</time></trkpt><trkpt lat="37.4483594" lon="15.0324663"><ele>15.0</ele><time>2026-04-06T14:30:16.515Z</time></trkpt><trkpt lat="37.4486197" lon="15.0326671"><ele>15.0</ele><time>2026-04-06T14:30:17.514Z</time></trkpt><trkpt lat="37.4488846" lon="15.0328653"><ele>15.0</ele><time>2026-04-06T14:30:18.514Z</time></trkpt><trkpt lat="37.4491489" lon="15.0330511"><ele>15.0</ele><time>2026-04-06T14:30:19.514Z</time></trkpt><trkpt lat="37.4494262" lon="15.0332191"><ele>15.0</ele><time>2026-04-06T14:30:20.514Z</time></trkpt><trkpt lat="37.4497005" lon="15.0333772"><ele>19.0</ele><time>2026-04-06T14:30:21.514Z</time></trkpt><trkpt lat="37.449984" lon="15.0335205"><ele>23.0</ele><time>2026-04-06T14:30:22.514Z</time></trkpt><trkpt lat="37.4502725" lon="15.0336521"><ele>20.5</ele><time>2026-04-06T14:30:23.515Z</time></trkpt><trkpt lat="37.4505616" lon="15.0337694"><ele>18.0</ele><time>2026-04-06T14:30:24.514Z</time></trkpt><trkpt lat="37.4508568" lon="15.0338669"><ele>18.0</ele><time>2026-04-06T14:30:25.515Z</time></trkpt><trkpt lat="37.4511546" lon="15.0339532"><ele>18.0</ele><time>2026-04-06T14:30:26.515Z</time></trkpt><trkpt lat="37.4514501" lon="15.0340234"><ele>18.5</ele><time>2026-04-06T14:30:27.515Z</time></trkpt><trkpt lat="37.4517447" lon="15.0340772"><ele>19.0</ele><time>2026-04-06T14:30:28.514Z</time></trkpt><trkpt lat="37.4520424" lon="15.0341174"><ele>18.5</ele><time>2026-04-06T14:30:29.514Z</time></trkpt><trkpt lat="37.452338" lon="15.0341445"><ele>18.0</ele><time>2026-04-06T14:30:30.515Z</time></trkpt><trkpt lat="37.4526379" lon="15.0341464"><ele>17.5</ele><time>2026-04-06T14:30:31.514Z</time></trkpt><trkpt lat="37.4529345" lon="15.0341315"><ele>17.0</ele><time>2026-04-06T14:30:32.514Z</time></trkpt><trkpt lat="37.4532316" lon="15.0341044"><ele>18.0</ele><time>2026-04-06T14:30:33.515Z</time></trkpt><trkpt lat="37.4535225" lon="15.0340622"><ele>19.0</ele><time>2026-04-06T14:30:34.514Z</time></trkpt><trkpt lat="37.4538152" lon="15.0340075"><ele>20.0</ele><time>2026-04-06T14:30:35.514Z</time></trkpt><trkpt lat="37.4541048" lon="15.0339331"><ele>21.0</ele><time>2026-04-06T14:30:36.514Z</time></trkpt><trkpt lat="37.4543808" lon="15.0338517"><ele>21.5</ele><time>2026-04-06T14:30:37.514Z</time></trkpt><trkpt lat="37.4546489" lon="15.033771"><ele>22.0</ele><time>2026-04-06T14:30:38.514Z</time></trkpt><trkpt lat="37.4549229" lon="15.0336835"><ele>22.0</ele><time>2026-04-06T14:30:39.514Z</time></trkpt><trkpt lat="37.4552004" lon="15.0335655"><ele>22.0</ele><time>2026-04-06T14:30:40.514Z</time></trkpt><trkpt lat="37.4554728" lon="15.0334164"><ele>23.0</ele><time>2026-04-06T14:30:41.514Z</time></trkpt><trkpt lat="37.4557388" lon="15.033244"><ele>24.0</ele><time>2026-04-06T14:30:42.515Z</time></trkpt><trkpt lat="37.4560061" lon="15.0330618"><ele>24.0</ele><time>2026-04-06T14:30:43.514Z</time></trkpt><trkpt lat="37.456268" lon="15.032872"><ele>24.0</ele><time>2026-04-06T14:30:44.514Z</time></trkpt><trkpt lat="37.4565241" lon="15.0326716"><ele>25.5</ele><time>2026-04-06T14:30:45.515Z</time></trkpt><trkpt lat="37.4567693" lon="15.0324661"><ele>27.0</ele><time>2026-04-06T14:30:46.514Z</time></trkpt><trkpt lat="37.457006" lon="15.0322503"><ele>28.0</ele><time>2026-04-06T14:30:47.514Z</time></trkpt><trkpt lat="37.4572327" lon="15.0320297"><ele>29.0</ele><time>2026-04-06T14:30:48.514Z</time></trkpt><trkpt lat="37.4574468" lon="15.0318031"><ele>28.0</ele><time>2026-04-06T14:30:49.514Z</time></trkpt><trkpt lat="37.4576545" lon="15.031582"><ele>27.0</ele><time>2026-04-06T14:30:50.514Z</time></trkpt><trkpt lat="37.4578594" lon="15.0313582"><ele>29.0</ele><time>2026-04-06T14:30:51.514Z</time></trkpt><trkpt lat="37.4580642" lon="15.0311252"><ele>31.0</ele><time>2026-04-06T14:30:52.514Z</time></trkpt><trkpt lat="37.4582625" lon="15.0308896"><ele>31.0</ele><time>2026-04-06T14:30:53.515Z</time></trkpt><trkpt lat="37.4584581" lon="15.0306546"><ele>31.0</ele><time>2026-04-06T14:30:54.514Z</time></trkpt><trkpt lat="37.4586478" lon="15.0304195"><ele>30.5</ele><time>2026-04-06T14:30:55.514Z</time></trkpt><trkpt lat="37.4588334" lon="15.0301926"><ele>30.0</ele><time>2026-04-06T14:30:56.514Z</time></trkpt><trkpt lat="37.459007" lon="15.0299789"><ele>28.0</ele><time>2026-04-06T14:30:57.514Z</time></trkpt><trkpt lat="37.459175" lon="15.0297725"><ele>26.0</ele><time>2026-04-06T14:30:58.514Z</time></trkpt><trkpt lat="37.4593372" lon="15.0295641"><ele>26.0</ele><time>2026-04-06T14:30:59.514Z</time></trkpt><trkpt lat="37.4595063" lon="15.0293576"><ele>26.0</ele><time>2026-04-06T14:31:00.515Z</time></trkpt><trkpt lat="37.4596778" lon="15.029158"><ele>28.0</ele><time>2026-04-06T14:31:01.514Z</time></trkpt><trkpt lat="37.459847" lon="15.0289557"><ele>30.0</ele><time>2026-04-06T14:31:02.515Z</time></trkpt><trkpt lat="37.4600235" lon="15.0287481"><ele>30.0</ele><time>2026-04-06T14:31:03.514Z</time></trkpt><trkpt lat="37.4602133" lon="15.0285303"><ele>30.0</ele><time>2026-04-06T14:31:04.514Z</time></trkpt><trkpt lat="37.4604086" lon="15.028307"><ele>30.5</ele><time>2026-04-06T14:31:05.514Z</time></trkpt><trkpt lat="37.4605979" lon="15.0280898"><ele>31.0</ele><time>2026-04-06T14:31:06.514Z</time></trkpt><trkpt lat="37.4607811" lon="15.0278805"><ele>31.0</ele><time>2026-04-06T14:31:07.515Z</time></trkpt><trkpt lat="37.4609676" lon="15.027678"><ele>31.0</ele><time>2026-04-06T14:31:08.514Z</time></trkpt><trkpt lat="37.4611618" lon="15.0274758"><ele>31.5</ele><time>2026-04-06T14:31:09.514Z</time></trkpt><trkpt lat="37.4613587" lon="15.0272713"><ele>32.0</ele><time>2026-04-06T14:31:10.514Z</time></trkpt><trkpt lat="37.4615627" lon="15.027061"><ele>32.0</ele><time>2026-04-06T14:31:11.514Z</time></trkpt><trkpt lat="37.4617694" lon="15.0268532"><ele>32.0</ele><time>2026-04-06T14:31:12.514Z</time></trkpt><trkpt lat="37.4619763" lon="15.0266471"><ele>33.0</ele><time>2026-04-06T14:31:13.514Z</time></trkpt><trkpt lat="37.4621808" lon="15.0264457"><ele>34.0</ele><time>2026-04-06T14:31:14.514Z</time></trkpt><trkpt lat="37.4623871" lon="15.0262546"><ele>34.0</ele><time>2026-04-06T14:31:15.514Z</time></trkpt><trkpt lat="37.4625929" lon="15.0260636"><ele>34.0</ele><time>2026-04-06T14:31:16.514Z</time></trkpt><trkpt lat="37.4627966" lon="15.0258767"><ele>35.5</ele><time>2026-04-06T14:31:17.514Z</time></trkpt><trkpt lat="37.4629974" lon="15.0256958"><ele>37.0</ele><time>2026-04-06T14:31:18.514Z</time></trkpt><trkpt lat="37.4631978" lon="15.0255157"><ele>37.0</ele><time>2026-04-06T14:31:19.514Z</time></trkpt><trkpt lat="37.4633975" lon="15.0253372"><ele>37.0</ele><time>2026-04-06T14:31:20.514Z</time></trkpt><trkpt lat="37.4635972" lon="15.025157"><ele>38.0</ele><time>2026-04-06T14:31:21.514Z</time></trkpt><trkpt lat="37.4637927" lon="15.0249747"><ele>39.0</ele><time>2026-04-06T14:31:22.514Z</time></trkpt><trkpt lat="37.4639874" lon="15.0247986"><ele>39.0</ele><time>2026-04-06T14:31:23.514Z</time></trkpt><trkpt lat="37.4641826" lon="15.0246202"><ele>39.0</ele><time>2026-04-06T14:31:24.515Z</time></trkpt><trkpt lat="37.4643815" lon="15.0244456"><ele>39.0</ele><time>2026-04-06T14:31:25.515Z</time></trkpt><trkpt lat="37.4645802" lon="15.0242784"><ele>39.0</ele><time>2026-04-06T14:31:26.514Z</time></trkpt><trkpt lat="37.4647794" lon="15.0241098"><ele>41.0</ele><time>2026-04-06T14:31:27.514Z</time></trkpt><trkpt lat="37.4649727" lon="15.023942"><ele>43.0</ele><time>2026-04-06T14:31:28.514Z</time></trkpt><trkpt lat="37.4651552" lon="15.0237809"><ele>43.0</ele><time>2026-04-06T14:31:29.514Z</time></trkpt><trkpt lat="37.4653235" lon="15.0236312"><ele>43.0</ele><time>2026-04-06T14:31:30.514Z</time></trkpt><trkpt lat="37.4654817" lon="15.0234858"><ele>43.0</ele><time>2026-04-06T14:31:31.514Z</time></trkpt><trkpt lat="37.4656352" lon="15.0233493"><ele>43.0</ele><time>2026-04-06T14:31:32.514Z</time></trkpt><trkpt lat="37.4657752" lon="15.0232203"><ele>43.0</ele><time>2026-04-06T14:31:33.515Z</time></trkpt><trkpt lat="37.4659075" lon="15.0230994"><ele>43.0</ele><time>2026-04-06T14:31:34.514Z</time></trkpt><trkpt lat="37.4660314" lon="15.0229908"><ele>43.0</ele><time>2026-04-06T14:31:35.515Z</time></trkpt><trkpt lat="37.4661534" lon="15.0228892"><ele>43.0</ele><time>2026-04-06T14:31:36.514Z</time></trkpt><trkpt lat="37.4662683" lon="15.0227883"><ele>43.0</ele><time>2026-04-06T14:31:37.514Z</time></trkpt><trkpt lat="37.4663888" lon="15.0226836"><ele>43.0</ele><time>2026-04-06T14:31:38.514Z</time></trkpt><trkpt lat="37.4665126" lon="15.0225696"><ele>42.66666666666667</ele><time>2026-04-06T14:31:39.514Z</time></trkpt><trkpt lat="37.4666376" lon="15.0224538"><ele>42.333333333333336</ele><time>2026-04-06T14:31:40.515Z</time></trkpt><trkpt lat="37.466764" lon="15.0223411"><ele>42.0</ele><time>2026-04-06T14:31:41.514Z</time></trkpt><trkpt lat="37.4668904" lon="15.0222438"><ele>42.0</ele><time>2026-04-06T14:31:42.514Z</time></trkpt><trkpt lat="37.4670145" lon="15.0221808"><ele>42.0</ele><time>2026-04-06T14:31:43.514Z</time></trkpt><trkpt lat="37.4671413" lon="15.0221589"><ele>42.0</ele><time>2026-04-06T14:31:44.514Z</time></trkpt><trkpt lat="37.4672673" lon="15.0222001"><ele>42.0</ele><time>2026-04-06T14:31:45.514Z</time></trkpt><trkpt lat="37.4673863" lon="15.0222744"><ele>42.25</ele><time>2026-04-06T14:31:46.514Z</time></trkpt><trkpt lat="37.4674762" lon="15.0223888"><ele>42.5</ele><time>2026-04-06T14:31:47.514Z</time></trkpt><trkpt lat="37.4675373" lon="15.0225399"><ele>42.75</ele><time>2026-04-06T14:31:48.514Z</time></trkpt><trkpt lat="37.4675614" lon="15.0227097"><ele>43.0</ele><time>2026-04-06T14:31:49.514Z</time></trkpt><trkpt lat="37.4675538" lon="15.0228924"><ele>43.0</ele><time>2026-04-06T14:31:50.514Z</time></trkpt><trkpt lat="37.4675031" lon="15.0230673"><ele>43.0</ele><time>2026-04-06T14:31:51.514Z</time></trkpt><trkpt lat="37.4674168" lon="15.0232171"><ele>43.0</ele><time>2026-04-06T14:31:52.514Z</time></trkpt><trkpt lat="37.4673039" lon="15.0233204"><ele>43.0</ele><time>2026-04-06T14:31:53.514Z</time></trkpt><trkpt lat="37.4671703" lon="15.0233751"><ele>42.5</ele><time>2026-04-06T14:31:54.514Z</time></trkpt><trkpt lat="37.467037" lon="15.0233673"><ele>42.0</ele><time>2026-04-06T14:31:55.514Z</time></trkpt><trkpt lat="37.466912" lon="15.0233208"><ele>41.5</ele><time>2026-04-06T14:31:56.514Z</time></trkpt><trkpt lat="37.4668073" lon="15.0232114"><ele>41.0</ele><time>2026-04-06T14:31:57.514Z</time></trkpt><trkpt lat="37.4667183" lon="15.0230728"><ele>43.0</ele><time>2026-04-06T14:31:58.514Z</time></trkpt><trkpt lat="37.4666506" lon="15.0229071"><ele>45.0</ele><time>2026-04-06T14:31:59.515Z</time></trkpt><trkpt lat="37.466589" lon="15.0227278"><ele>47.0</ele><time>2026-04-06T14:32:00.514Z</time></trkpt><trkpt lat="37.4665226" lon="15.0225283"><ele>45.33333333333333</ele><time>2026-04-06T14:32:01.514Z</time></trkpt><trkpt lat="37.4664503" lon="15.0223234"><ele>43.666666666666664</ele><time>2026-04-06T14:32:02.514Z</time></trkpt><trkpt lat="37.4663578" lon="15.0220994"><ele>42.0</ele><time>2026-04-06T14:32:03.514Z</time></trkpt><trkpt lat="37.4662498" lon="15.0218257"><ele>42.0</ele><time>2026-04-06T14:32:04.514Z</time></trkpt><trkpt lat="37.4661423" lon="15.0215064"><ele>42.0</ele><time>2026-04-06T14:32:05.514Z</time></trkpt><trkpt lat="37.4660424" lon="15.0211736"><ele>42.0</ele><time>2026-04-06T14:32:06.515Z</time></trkpt><trkpt lat="37.4659483" lon="15.0208239"><ele>42.0</ele><time>2026-04-06T14:32:07.514Z</time></trkpt><trkpt lat="37.4658554" lon="15.020455"><ele>43.5</ele><time>2026-04-06T14:32:08.514Z</time></trkpt><trkpt lat="37.4657646" lon="15.0200735"><ele>45.0</ele><time>2026-04-06T14:32:09.514Z</time></trkpt><trkpt lat="37.4656913" lon="15.0196873"><ele>45.0</ele><time>2026-04-06T14:32:10.514Z</time></trkpt><trkpt lat="37.4656257" lon="15.0193038"><ele>45.0</ele><time>2026-04-06T14:32:11.514Z</time></trkpt><trkpt lat="37.4655644" lon="15.0189251"><ele>44.5</ele><time>2026-04-06T14:32:12.514Z</time></trkpt><trkpt lat="37.4654949" lon="15.0185494"><ele>44.0</ele><time>2026-04-06T14:32:13.514Z</time></trkpt><trkpt lat="37.4654269" lon="15.0181723"><ele>40.5</ele><time>2026-04-06T14:32:14.514Z</time></trkpt><trkpt lat="37.4653572" lon="15.0177943"><ele>37.0</ele><time>2026-04-06T14:32:15.514Z</time></trkpt><trkpt lat="37.4652904" lon="15.0174167"><ele>37.0</ele><time>2026-04-06T14:32:16.515Z</time></trkpt><trkpt lat="37.4652257" lon="15.0170367"><ele>37.0</ele><time>2026-04-06T14:32:17.514Z</time></trkpt><trkpt lat="37.4651678" lon="15.0166585"><ele>37.5</ele><time>2026-04-06T14:32:18.514Z</time></trkpt><trkpt lat="37.4651111" lon="15.0162784"><ele>38.0</ele><time>2026-04-06T14:32:19.514Z</time></trkpt><trkpt lat="37.4650476" lon="15.0159003"><ele>38.5</ele><time>2026-04-06T14:32:20.514Z</time></trkpt><trkpt lat="37.4649733" lon="15.0155245"><ele>39.0</ele><time>2026-04-06T14:32:21.515Z</time></trkpt><trkpt lat="37.4648801" lon="15.0151496"><ele>40.0</ele><time>2026-04-06T14:32:22.514Z</time></trkpt><trkpt lat="37.4647752" lon="15.0147836"><ele>41.0</ele><time>2026-04-06T14:32:23.514Z</time></trkpt><trkpt lat="37.4646585" lon="15.0144201"><ele>43.0</ele><time>2026-04-06T14:32:24.515Z</time></trkpt><trkpt lat="37.4645282" lon="15.0140644"><ele>45.0</ele><time>2026-04-06T14:32:25.514Z</time></trkpt><trkpt lat="37.4643836" lon="15.0137128"><ele>45.0</ele><time>2026-04-06T14:32:26.514Z</time></trkpt><trkpt lat="37.4642323" lon="15.0133723"><ele>45.0</ele><time>2026-04-06T14:32:27.514Z</time></trkpt><trkpt lat="37.4640674" lon="15.0130408"><ele>45.5</ele><time>2026-04-06T14:32:28.515Z</time></trkpt><trkpt lat="37.4638936" lon="15.0127161"><ele>46.0</ele><time>2026-04-06T14:32:29.514Z</time></trkpt><trkpt lat="37.4637145" lon="15.0124031"><ele>44.5</ele><time>2026-04-06T14:32:30.514Z</time></trkpt><trkpt lat="37.4635385" lon="15.012083"><ele>43.0</ele><time>2026-04-06T14:32:31.514Z</time></trkpt><trkpt lat="37.4633701" lon="15.0117622"><ele>45.5</ele><time>2026-04-06T14:32:32.514Z</time></trkpt><trkpt lat="37.4632002" lon="15.0114483"><ele>48.0</ele><time>2026-04-06T14:32:33.514Z</time></trkpt><trkpt lat="37.463046" lon="15.0111475"><ele>48.0</ele><time>2026-04-06T14:32:34.514Z</time></trkpt><trkpt lat="37.4629053" lon="15.0108622"><ele>48.0</ele><time>2026-04-06T14:32:35.515Z</time></trkpt><trkpt lat="37.4627748" lon="15.0105877"><ele>48.0</ele><time>2026-04-06T14:32:36.514Z</time></trkpt><trkpt lat="37.4626689" lon="15.0103433"><ele>48.0</ele><time>2026-04-06T14:32:37.514Z</time></trkpt><trkpt lat="37.4625815" lon="15.0101276"><ele>48.0</ele><time>2026-04-06T14:32:38.515Z</time></trkpt><trkpt lat="37.4625122" lon="15.0099287"><ele>48.25</ele><time>2026-04-06T14:32:39.514Z</time></trkpt><trkpt lat="37.4624701" lon="15.0097402"><ele>48.5</ele><time>2026-04-06T14:32:40.514Z</time></trkpt><trkpt lat="37.4624531" lon="15.009558"><ele>48.75</ele><time>2026-04-06T14:32:41.514Z</time></trkpt><trkpt lat="37.4624247" lon="15.0093868"><ele>49.0</ele><time>2026-04-06T14:32:42.514Z</time></trkpt><trkpt lat="37.4623555" lon="15.009215"><ele>49.0</ele><time>2026-04-06T14:32:43.514Z</time></trkpt><trkpt lat="37.4622835" lon="15.0090533"><ele>49.0</ele><time>2026-04-06T14:32:44.514Z</time></trkpt><trkpt lat="37.4622254" lon="15.0088848"><ele>49.0</ele><time>2026-04-06T14:32:45.514Z</time></trkpt><trkpt lat="37.4621713" lon="15.0087082"><ele>49.0</ele><time>2026-04-06T14:32:46.515Z</time></trkpt><trkpt lat="37.4621189" lon="15.0085283"><ele>48.800000000000004</ele><time>2026-04-06T14:32:47.514Z</time></trkpt><trkpt lat="37.4620801" lon="15.0083714"><ele>48.6</ele><time>2026-04-06T14:32:48.514Z</time></trkpt><trkpt lat="37.4620728" lon="15.0082467"><ele>48.4</ele><time>2026-04-06T14:32:49.515Z</time></trkpt><trkpt lat="37.4620941" lon="15.0081337"><ele>48.2</ele><time>2026-04-06T14:32:50.515Z</time></trkpt><trkpt lat="37.4621217" lon="15.0080581"><ele>48.0</ele><time>2026-04-06T14:32:51.515Z</time></trkpt><trkpt lat="37.4621586" lon="15.0079441"><ele>48.0</ele><time>2026-04-06T14:32:53.515Z</time></trkpt><trkpt lat="37.4621695" lon="15.0078508"><ele>48.0</ele><time>2026-04-06T14:32:55.514Z</time></trkpt><trkpt lat="37.462137" lon="15.0077576"><ele>48.0</ele><time>2026-04-06T14:35:15.521Z</time></trkpt><trkpt lat="37.4620822" lon="15.0076608"><ele>48.0</ele><time>2026-04-06T14:35:18.521Z</time></trkpt><trkpt lat="37.4619975" lon="15.0076009"><ele>48.0</ele><time>2026-04-06T14:36:16.522Z</time></trkpt><trkpt lat="37.4619588" lon="15.0074365"><ele>47.0</ele><time>2026-04-06T14:36:18.521Z</time></trkpt><trkpt lat="37.4619414" lon="15.0073134"><ele>46.0</ele><time>2026-04-06T14:36:19.521Z</time></trkpt><trkpt lat="37.4619114" lon="15.0071905"><ele>45.0</ele><time>2026-04-06T14:36:20.521Z</time></trkpt><trkpt lat="37.4618685" lon="15.007063"><ele>44.0</ele><time>2026-04-06T14:36:21.521Z</time></trkpt><trkpt lat="37.4618339" lon="15.0069208"><ele>43.0</ele><time>2026-04-06T14:36:22.521Z</time></trkpt><trkpt lat="37.4617993" lon="15.0067497"><ele>42.0</ele><time>2026-04-06T14:36:23.521Z</time></trkpt><trkpt lat="37.4617831" lon="15.0065413"><ele>41.0</ele><time>2026-04-06T14:36:24.521Z</time></trkpt><trkpt lat="37.4617824" lon="15.0062633"><ele>40.0</ele><time>2026-04-06T14:36:25.521Z</time></trkpt><trkpt lat="37.4617831" lon="15.0059282"><ele>38.0</ele><time>2026-04-06T14:36:26.522Z</time></trkpt><trkpt lat="37.4617872" lon="15.005553"><ele>36.0</ele><time>2026-04-06T14:36:27.522Z</time></trkpt><trkpt lat="37.4618045" lon="15.005144"><ele>36.0</ele><time>2026-04-06T14:36:28.521Z</time></trkpt><trkpt lat="37.4618341" lon="15.0047056"><ele>36.0</ele><time>2026-04-06T14:36:29.521Z</time></trkpt><trkpt lat="37.4618922" lon="15.0042531"><ele>35.5</ele><time>2026-04-06T14:36:30.521Z</time></trkpt><trkpt lat="37.4619798" lon="15.0037863"><ele>35.0</ele><time>2026-04-06T14:36:31.521Z</time></trkpt><trkpt lat="37.4620884" lon="15.0033098"><ele>38.5</ele><time>2026-04-06T14:36:32.521Z</time></trkpt><trkpt lat="37.4622086" lon="15.002847"><ele>42.0</ele><time>2026-04-06T14:36:33.522Z</time></trkpt><trkpt lat="37.46233" lon="15.0024049"><ele>42.0</ele><time>2026-04-06T14:36:34.521Z</time></trkpt><trkpt lat="37.4624423" lon="15.0019823"><ele>42.0</ele><time>2026-04-06T14:36:35.521Z</time></trkpt><trkpt lat="37.4625535" lon="15.0015689"><ele>41.5</ele><time>2026-04-06T14:36:36.521Z</time></trkpt><trkpt lat="37.4626634" lon="15.0011582"><ele>41.0</ele><time>2026-04-06T14:36:37.521Z</time></trkpt><trkpt lat="37.4627697" lon="15.0007562"><ele>40.5</ele><time>2026-04-06T14:36:38.522Z</time></trkpt><trkpt lat="37.462878" lon="15.0003681"><ele>40.0</ele><time>2026-04-06T14:36:39.521Z</time></trkpt><trkpt lat="37.4629879" lon="14.9999898"><ele>43.5</ele><time>2026-04-06T14:36:40.521Z</time></trkpt><trkpt lat="37.4630992" lon="14.999614"><ele>47.0</ele><time>2026-04-06T14:36:41.521Z</time></trkpt><trkpt lat="37.4632061" lon="14.9992436"><ele>45.5</ele><time>2026-04-06T14:36:42.521Z</time></trkpt><trkpt lat="37.4633111" lon="14.9988777"><ele>44.0</ele><time>2026-04-06T14:36:43.521Z</time></trkpt><trkpt lat="37.4634156" lon="14.998516"><ele>43.0</ele><time>2026-04-06T14:36:44.522Z</time></trkpt><trkpt lat="37.4635193" lon="14.9981518"><ele>42.0</ele><time>2026-04-06T14:36:45.522Z</time></trkpt><trkpt lat="37.4636205" lon="14.9977951"><ele>41.5</ele><time>2026-04-06T14:36:46.521Z</time></trkpt><trkpt lat="37.4637201" lon="14.9974415"><ele>41.0</ele><time>2026-04-06T14:36:47.521Z</time></trkpt><trkpt lat="37.4638176" lon="14.9970896"><ele>43.5</ele><time>2026-04-06T14:36:48.521Z</time></trkpt><trkpt lat="37.4639207" lon="14.9967333"><ele>46.0</ele><time>2026-04-06T14:36:49.521Z</time></trkpt><trkpt lat="37.4640192" lon="14.9963748"><ele>46.0</ele><time>2026-04-06T14:36:50.521Z</time></trkpt><trkpt lat="37.4641199" lon="14.9960191"><ele>46.0</ele><time>2026-04-06T14:36:51.521Z</time></trkpt><trkpt lat="37.4642183" lon="14.9956653"><ele>45.5</ele><time>2026-04-06T14:36:52.521Z</time></trkpt><trkpt lat="37.4643173" lon="14.9953069"><ele>45.0</ele><time>2026-04-06T14:36:53.521Z</time></trkpt><trkpt lat="37.4644189" lon="14.9949479"><ele>44.5</ele><time>2026-04-06T14:36:54.521Z</time></trkpt><trkpt lat="37.4645227" lon="14.9945857"><ele>44.0</ele><time>2026-04-06T14:36:55.521Z</time></trkpt><trkpt lat="37.464626" lon="14.9942229"><ele>46.5</ele><time>2026-04-06T14:36:56.521Z</time></trkpt><trkpt lat="37.464735" lon="14.9938564"><ele>49.0</ele><time>2026-04-06T14:36:57.521Z</time></trkpt><trkpt lat="37.4648395" lon="14.993491"><ele>49.0</ele><time>2026-04-06T14:36:58.521Z</time></trkpt><trkpt lat="37.4649411" lon="14.9931257"><ele>49.0</ele><time>2026-04-06T14:36:59.521Z</time></trkpt><trkpt lat="37.4650418" lon="14.9927636"><ele>46.5</ele><time>2026-04-06T14:37:00.521Z</time></trkpt><trkpt lat="37.465142" lon="14.9923965"><ele>44.0</ele><time>2026-04-06T14:37:01.521Z</time></trkpt><trkpt lat="37.4652401" lon="14.9920295"><ele>45.0</ele><time>2026-04-06T14:37:02.521Z</time></trkpt><trkpt lat="37.4653381" lon="14.9916631"><ele>46.0</ele><time>2026-04-06T14:37:03.521Z</time></trkpt><trkpt lat="37.4654354" lon="14.991299"><ele>47.0</ele><time>2026-04-06T14:37:04.521Z</time></trkpt><trkpt lat="37.4655369" lon="14.9909326"><ele>48.0</ele><time>2026-04-06T14:37:05.522Z</time></trkpt><trkpt lat="37.4656377" lon="14.9905724"><ele>48.0</ele><time>2026-04-06T14:37:06.521Z</time></trkpt><trkpt lat="37.4657393" lon="14.9902122"><ele>48.0</ele><time>2026-04-06T14:37:07.521Z</time></trkpt><trkpt lat="37.4658416" lon="14.989851"><ele>48.0</ele><time>2026-04-06T14:37:08.521Z</time></trkpt><trkpt lat="37.4659408" lon="14.9894849"><ele>48.0</ele><time>2026-04-06T14:37:09.521Z</time></trkpt><trkpt lat="37.4660342" lon="14.9891146"><ele>48.0</ele><time>2026-04-06T14:37:10.521Z</time></trkpt><trkpt lat="37.466112" lon="14.9887407"><ele>48.0</ele><time>2026-04-06T14:37:11.521Z</time></trkpt><trkpt lat="37.4661762" lon="14.9883623"><ele>48.5</ele><time>2026-04-06T14:37:12.522Z</time></trkpt><trkpt lat="37.4662277" lon="14.9879864"><ele>49.0</ele><time>2026-04-06T14:37:13.521Z</time></trkpt><trkpt lat="37.4662667" lon="14.9876058"><ele>49.5</ele><time>2026-04-06T14:37:14.521Z</time></trkpt><trkpt lat="37.4662993" lon="14.987221"><ele>50.0</ele><time>2026-04-06T14:37:15.521Z</time></trkpt><trkpt lat="37.466324" lon="14.986835"><ele>51.0</ele><time>2026-04-06T14:37:16.521Z</time></trkpt><trkpt lat="37.4663362" lon="14.9864502"><ele>52.0</ele><time>2026-04-06T14:37:17.521Z</time></trkpt><trkpt lat="37.4663437" lon="14.9860691"><ele>52.5</ele><time>2026-04-06T14:37:18.521Z</time></trkpt><trkpt lat="37.466342" lon="14.9856856"><ele>53.0</ele><time>2026-04-06T14:37:19.522Z</time></trkpt><trkpt lat="37.4663396" lon="14.9853001"><ele>53.0</ele><time>2026-04-06T14:37:20.521Z</time></trkpt><trkpt lat="37.4663384" lon="14.9849166"><ele>53.0</ele><time>2026-04-06T14:37:21.522Z</time></trkpt><trkpt lat="37.4663393" lon="14.9845322"><ele>52.5</ele><time>2026-04-06T14:37:22.521Z</time></trkpt><trkpt lat="37.4663407" lon="14.9841464"><ele>52.0</ele><time>2026-04-06T14:37:23.521Z</time></trkpt><trkpt lat="37.4663437" lon="14.9837606"><ele>52.0</ele><time>2026-04-06T14:37:24.522Z</time></trkpt><trkpt lat="37.4663461" lon="14.983377"><ele>52.0</ele><time>2026-04-06T14:37:25.521Z</time></trkpt><trkpt lat="37.4663472" lon="14.9829959"><ele>53.5</ele><time>2026-04-06T14:37:26.521Z</time></trkpt><trkpt lat="37.4663486" lon="14.9826111"><ele>55.0</ele><time>2026-04-06T14:37:27.521Z</time></trkpt><trkpt lat="37.46635" lon="14.9822294"><ele>59.0</ele><time>2026-04-06T14:37:28.521Z</time></trkpt><trkpt lat="37.4663502" lon="14.9818448"><ele>63.0</ele><time>2026-04-06T14:37:29.521Z</time></trkpt><trkpt lat="37.4663494" lon="14.9814605"><ele>64.5</ele><time>2026-04-06T14:37:30.522Z</time></trkpt><trkpt lat="37.4663499" lon="14.9810777"><ele>66.0</ele><time>2026-04-06T14:37:31.521Z</time></trkpt><trkpt lat="37.4663538" lon="14.9806938"><ele>66.0</ele><time>2026-04-06T14:37:32.521Z</time></trkpt><trkpt lat="37.4663583" lon="14.9803126"><ele>66.0</ele><time>2026-04-06T14:37:33.521Z</time></trkpt><trkpt lat="37.4663588" lon="14.9799313"><ele>65.5</ele><time>2026-04-06T14:37:34.521Z</time></trkpt><trkpt lat="37.4663581" lon="14.9795474"><ele>65.0</ele><time>2026-04-06T14:37:35.521Z</time></trkpt><trkpt lat="37.4663586" lon="14.9791624"><ele>68.0</ele><time>2026-04-06T14:37:36.521Z</time></trkpt><trkpt lat="37.4663586" lon="14.9787765"><ele>71.0</ele><time>2026-04-06T14:37:37.522Z</time></trkpt><trkpt lat="37.4663607" lon="14.9783901"><ele>72.0</ele><time>2026-04-06T14:37:38.521Z</time></trkpt><trkpt lat="37.4663626" lon="14.978004"><ele>73.0</ele><time>2026-04-06T14:37:39.521Z</time></trkpt><trkpt lat="37.4663639" lon="14.9776204"><ele>71.5</ele><time>2026-04-06T14:37:40.521Z</time></trkpt><trkpt lat="37.4663656" lon="14.9772354"><ele>70.0</ele><time>2026-04-06T14:37:41.521Z</time></trkpt><trkpt lat="37.4663695" lon="14.9768511"><ele>69.0</ele><time>2026-04-06T14:37:42.521Z</time></trkpt><trkpt lat="37.4663756" lon="14.9764667"><ele>68.0</ele><time>2026-04-06T14:37:43.521Z</time></trkpt><trkpt lat="37.4663847" lon="14.9760832"><ele>69.5</ele><time>2026-04-06T14:37:44.522Z</time></trkpt><trkpt lat="37.4663935" lon="14.9756971"><ele>71.0</ele><time>2026-04-06T14:37:45.521Z</time></trkpt><trkpt lat="37.4664066" lon="14.9753102"><ele>71.5</ele><time>2026-04-06T14:37:46.521Z</time></trkpt><trkpt lat="37.466424" lon="14.9749225"><ele>72.0</ele><time>2026-04-06T14:37:47.521Z</time></trkpt><trkpt lat="37.4664418" lon="14.9745396"><ele>71.5</ele><time>2026-04-06T14:37:48.521Z</time></trkpt><trkpt lat="37.4664616" lon="14.9741575"><ele>71.0</ele><time>2026-04-06T14:37:49.521Z</time></trkpt><trkpt lat="37.4664834" lon="14.9737762"><ele>71.0</ele><time>2026-04-06T14:37:50.521Z</time></trkpt><trkpt lat="37.4665036" lon="14.9733952"><ele>71.0</ele><time>2026-04-06T14:37:51.522Z</time></trkpt><trkpt lat="37.4665218" lon="14.9730121"><ele>71.5</ele><time>2026-04-06T14:37:52.522Z</time></trkpt><trkpt lat="37.4665388" lon="14.9726205"><ele>72.0</ele><time>2026-04-06T14:37:53.521Z</time></trkpt><trkpt lat="37.4665538" lon="14.972231"><ele>72.0</ele><time>2026-04-06T14:37:54.521Z</time></trkpt><trkpt lat="37.4665714" lon="14.9718461"><ele>72.0</ele><time>2026-04-06T14:37:55.521Z</time></trkpt><trkpt lat="37.4665893" lon="14.9714583"><ele>72.5</ele><time>2026-04-06T14:37:56.522Z</time></trkpt><trkpt lat="37.4666088" lon="14.9710718"><ele>73.0</ele><time>2026-04-06T14:37:57.521Z</time></trkpt><trkpt lat="37.4666267" lon="14.9706888"><ele>73.0</ele><time>2026-04-06T14:37:58.522Z</time></trkpt><trkpt lat="37.4666437" lon="14.9702998"><ele>73.0</ele><time>2026-04-06T14:37:59.521Z</time></trkpt><trkpt lat="37.4666616" lon="14.9699162"><ele>73.0</ele><time>2026-04-06T14:38:00.522Z</time></trkpt><trkpt lat="37.4666795" lon="14.9695301"><ele>73.0</ele><time>2026-04-06T14:38:01.521Z</time></trkpt><trkpt lat="37.4666981" lon="14.9691466"><ele>73.0</ele><time>2026-04-06T14:38:02.521Z</time></trkpt><trkpt lat="37.4667126" lon="14.9687621"><ele>73.0</ele><time>2026-04-06T14:38:03.521Z</time></trkpt><trkpt lat="37.4667313" lon="14.9683743"><ele>72.5</ele><time>2026-04-06T14:38:04.521Z</time></trkpt><trkpt lat="37.4667511" lon="14.9679921"><ele>72.0</ele><time>2026-04-06T14:38:05.521Z</time></trkpt><trkpt lat="37.4667691" lon="14.9676092"><ele>70.0</ele><time>2026-04-06T14:38:06.521Z</time></trkpt><trkpt lat="37.4667905" lon="14.9672261"><ele>68.0</ele><time>2026-04-06T14:38:07.521Z</time></trkpt><trkpt lat="37.4668118" lon="14.9668464"><ele>65.5</ele><time>2026-04-06T14:38:08.521Z</time></trkpt><trkpt lat="37.4668315" lon="14.9664603"><ele>63.0</ele><time>2026-04-06T14:38:09.522Z</time></trkpt><trkpt lat="37.4668473" lon="14.9660773"><ele>62.0</ele><time>2026-04-06T14:38:10.521Z</time></trkpt><trkpt lat="37.466864" lon="14.9656899"><ele>61.0</ele><time>2026-04-06T14:38:11.521Z</time></trkpt><trkpt lat="37.4668766" lon="14.9653053"><ele>61.0</ele><time>2026-04-06T14:38:12.521Z</time></trkpt><trkpt lat="37.4668848" lon="14.9649243"><ele>61.0</ele><time>2026-04-06T14:38:13.521Z</time></trkpt><trkpt lat="37.4668881" lon="14.9645442"><ele>61.0</ele><time>2026-04-06T14:38:14.521Z</time></trkpt><trkpt lat="37.4668922" lon="14.9641631"><ele>61.0</ele><time>2026-04-06T14:38:15.522Z</time></trkpt><trkpt lat="37.4668945" lon="14.9637795"><ele>61.0</ele><time>2026-04-06T14:38:16.521Z</time></trkpt><trkpt lat="37.4668975" lon="14.963397"><ele>61.0</ele><time>2026-04-06T14:38:17.522Z</time></trkpt><trkpt lat="37.4669016" lon="14.9630117"><ele>63.0</ele><time>2026-04-06T14:38:18.521Z</time></trkpt><trkpt lat="37.4669044" lon="14.9626255"><ele>65.0</ele><time>2026-04-06T14:38:19.521Z</time></trkpt><trkpt lat="37.4669119" lon="14.9622396"><ele>65.0</ele><time>2026-04-06T14:38:20.521Z</time></trkpt><trkpt lat="37.4669177" lon="14.9618509"><ele>65.0</ele><time>2026-04-06T14:38:21.521Z</time></trkpt><trkpt lat="37.466922" lon="14.9614624"><ele>65.0</ele><time>2026-04-06T14:38:22.521Z</time></trkpt><trkpt lat="37.4669259" lon="14.9610777"><ele>65.0</ele><time>2026-04-06T14:38:23.522Z</time></trkpt><trkpt lat="37.4669278" lon="14.9606919"><ele>66.5</ele><time>2026-04-06T14:38:24.521Z</time></trkpt><trkpt lat="37.4669325" lon="14.9603103"><ele>68.0</ele><time>2026-04-06T14:38:25.522Z</time></trkpt><trkpt lat="37.4669359" lon="14.9599249"><ele>68.0</ele><time>2026-04-06T14:38:26.521Z</time></trkpt><trkpt lat="37.4669371" lon="14.9595383"><ele>68.0</ele><time>2026-04-06T14:38:27.522Z</time></trkpt><trkpt lat="37.466945" lon="14.9591542"><ele>67.5</ele><time>2026-04-06T14:38:28.521Z</time></trkpt><trkpt lat="37.4669524" lon="14.9587698"><ele>67.0</ele><time>2026-04-06T14:38:29.521Z</time></trkpt><trkpt lat="37.4669554" lon="14.9583811"><ele>67.5</ele><time>2026-04-06T14:38:30.521Z</time></trkpt><trkpt lat="37.4669606" lon="14.9579929"><ele>68.0</ele><time>2026-04-06T14:38:31.521Z</time></trkpt><trkpt lat="37.4669676" lon="14.9576091"><ele>68.5</ele><time>2026-04-06T14:38:32.521Z</time></trkpt><trkpt lat="37.4669729" lon="14.9572255"><ele>69.0</ele><time>2026-04-06T14:38:33.522Z</time></trkpt><trkpt lat="37.4669767" lon="14.9568417"><ele>69.0</ele><time>2026-04-06T14:38:34.522Z</time></trkpt><trkpt lat="37.4669815" lon="14.9564583"><ele>69.0</ele><time>2026-04-06T14:38:35.521Z</time></trkpt><trkpt lat="37.4669855" lon="14.9560763"><ele>66.5</ele><time>2026-04-06T14:38:36.522Z</time></trkpt><trkpt lat="37.4669887" lon="14.9556911"><ele>64.0</ele><time>2026-04-06T14:38:37.521Z</time></trkpt><trkpt lat="37.4669918" lon="14.9553055"><ele>62.0</ele><time>2026-04-06T14:38:38.521Z</time></trkpt><trkpt lat="37.4669991" lon="14.9549206"><ele>60.0</ele><time>2026-04-06T14:38:39.521Z</time></trkpt><trkpt lat="37.4670061" lon="14.9545357"><ele>59.0</ele><time>2026-04-06T14:38:40.521Z</time></trkpt><trkpt lat="37.4670139" lon="14.9541469"><ele>58.0</ele><time>2026-04-06T14:38:41.521Z</time></trkpt><trkpt lat="37.4670209" lon="14.9537617"><ele>58.0</ele><time>2026-04-06T14:38:42.521Z</time></trkpt><trkpt lat="37.4670275" lon="14.9533757"><ele>58.0</ele><time>2026-04-06T14:38:43.521Z</time></trkpt><trkpt lat="37.4670336" lon="14.9529891"><ele>57.5</ele><time>2026-04-06T14:38:44.521Z</time></trkpt><trkpt lat="37.4670408" lon="14.9526003"><ele>57.0</ele><time>2026-04-06T14:38:45.521Z</time></trkpt><trkpt lat="37.4670435" lon="14.9522154"><ele>57.5</ele><time>2026-04-06T14:38:46.522Z</time></trkpt><trkpt lat="37.4670442" lon="14.9518286"><ele>58.0</ele><time>2026-04-06T14:38:47.522Z</time></trkpt><trkpt lat="37.467046" lon="14.9514425"><ele>58.0</ele><time>2026-04-06T14:38:48.521Z</time></trkpt><trkpt lat="37.4670457" lon="14.9510568"><ele>58.0</ele><time>2026-04-06T14:38:49.521Z</time></trkpt><trkpt lat="37.4670454" lon="14.9506727"><ele>58.5</ele><time>2026-04-06T14:38:50.521Z</time></trkpt><trkpt lat="37.467043" lon="14.9502911"><ele>59.0</ele><time>2026-04-06T14:38:51.522Z</time></trkpt><trkpt lat="37.4670353" lon="14.9499079"><ele>57.5</ele><time>2026-04-06T14:38:52.521Z</time></trkpt><trkpt lat="37.4670154" lon="14.9495245"><ele>56.0</ele><time>2026-04-06T14:38:53.522Z</time></trkpt><trkpt lat="37.4669862" lon="14.9491412"><ele>51.5</ele><time>2026-04-06T14:38:54.521Z</time></trkpt><trkpt lat="37.4669447" lon="14.9487599"><ele>47.0</ele><time>2026-04-06T14:38:55.521Z</time></trkpt><trkpt lat="37.4668948" lon="14.9483851"><ele>46.0</ele><time>2026-04-06T14:38:56.521Z</time></trkpt><trkpt lat="37.4668374" lon="14.9480083"><ele>45.0</ele><time>2026-04-06T14:38:57.522Z</time></trkpt><trkpt lat="37.4667778" lon="14.9476341"><ele>43.5</ele><time>2026-04-06T14:38:58.521Z</time></trkpt><trkpt lat="37.4667173" lon="14.9472563"><ele>42.0</ele><time>2026-04-06T14:38:59.521Z</time></trkpt><trkpt lat="37.466661" lon="14.9468764"><ele>40.5</ele><time>2026-04-06T14:39:00.521Z</time></trkpt><trkpt lat="37.4666051" lon="14.9464967"><ele>39.0</ele><time>2026-04-06T14:39:01.522Z</time></trkpt><trkpt lat="37.4665502" lon="14.9461184"><ele>39.5</ele><time>2026-04-06T14:39:02.521Z</time></trkpt><trkpt lat="37.4664971" lon="14.9457382"><ele>40.0</ele><time>2026-04-06T14:39:03.521Z</time></trkpt><trkpt lat="37.4664385" lon="14.9453578"><ele>40.0</ele><time>2026-04-06T14:39:04.522Z</time></trkpt><trkpt lat="37.4663832" lon="14.9449799"><ele>40.0</ele><time>2026-04-06T14:39:05.521Z</time></trkpt><trkpt lat="37.4663273" lon="14.9446009"><ele>39.5</ele><time>2026-04-06T14:39:06.521Z</time></trkpt><trkpt lat="37.4662689" lon="14.9442199"><ele>39.0</ele><time>2026-04-06T14:39:07.521Z</time></trkpt><trkpt lat="37.4662144" lon="14.943845"><ele>40.5</ele><time>2026-04-06T14:39:08.521Z</time></trkpt><trkpt lat="37.4661609" lon="14.9434712"><ele>42.0</ele><time>2026-04-06T14:39:09.521Z</time></trkpt><trkpt lat="37.4661005" lon="14.9430958"><ele>42.5</ele><time>2026-04-06T14:39:10.521Z</time></trkpt><trkpt lat="37.4660434" lon="14.9427203"><ele>43.0</ele><time>2026-04-06T14:39:11.521Z</time></trkpt><trkpt lat="37.4659868" lon="14.9423399"><ele>41.5</ele><time>2026-04-06T14:39:12.521Z</time></trkpt><trkpt lat="37.4659315" lon="14.9419615"><ele>40.0</ele><time>2026-04-06T14:39:13.521Z</time></trkpt><trkpt lat="37.4658756" lon="14.9415787"><ele>40.0</ele><time>2026-04-06T14:39:14.521Z</time></trkpt><trkpt lat="37.4658186" lon="14.9412028"><ele>40.0</ele><time>2026-04-06T14:39:15.522Z</time></trkpt><trkpt lat="37.4657627" lon="14.9408235"><ele>39.5</ele><time>2026-04-06T14:39:16.522Z</time></trkpt><trkpt lat="37.4657044" lon="14.9404463"><ele>39.0</ele><time>2026-04-06T14:39:17.521Z</time></trkpt><trkpt lat="37.4656432" lon="14.9400651"><ele>39.5</ele><time>2026-04-06T14:39:18.521Z</time></trkpt><trkpt lat="37.4655836" lon="14.9396881"><ele>40.0</ele><time>2026-04-06T14:39:19.521Z</time></trkpt><trkpt lat="37.4655249" lon="14.9393119"><ele>39.0</ele><time>2026-04-06T14:39:20.521Z</time></trkpt><trkpt lat="37.4654681" lon="14.9389348"><ele>38.0</ele><time>2026-04-06T14:39:21.521Z</time></trkpt><trkpt lat="37.4654108" lon="14.9385583"><ele>38.0</ele><time>2026-04-06T14:39:22.521Z</time></trkpt><trkpt lat="37.4653552" lon="14.938181"><ele>38.0</ele><time>2026-04-06T14:39:23.522Z</time></trkpt><trkpt lat="37.4652983" lon="14.9378025"><ele>37.5</ele><time>2026-04-06T14:39:24.521Z</time></trkpt><trkpt lat="37.4652434" lon="14.9374244"><ele>37.0</ele><time>2026-04-06T14:39:25.521Z</time></trkpt><trkpt lat="37.4651872" lon="14.9370467"><ele>37.0</ele><time>2026-04-06T14:39:26.521Z</time></trkpt><trkpt lat="37.4651293" lon="14.9366675"><ele>37.0</ele><time>2026-04-06T14:39:27.521Z</time></trkpt><trkpt lat="37.4650727" lon="14.9362889"><ele>37.0</ele><time>2026-04-06T14:39:28.521Z</time></trkpt><trkpt lat="37.4650162" lon="14.9359107"><ele>37.0</ele><time>2026-04-06T14:39:29.521Z</time></trkpt><trkpt lat="37.4649594" lon="14.9355322"><ele>38.5</ele><time>2026-04-06T14:39:30.521Z</time></trkpt><trkpt lat="37.4649031" lon="14.9351525"><ele>40.0</ele><time>2026-04-06T14:39:31.521Z</time></trkpt><trkpt lat="37.4648478" lon="14.9347701"><ele>42.0</ele><time>2026-04-06T14:39:32.521Z</time></trkpt><trkpt lat="37.4647885" lon="14.9343902"><ele>44.0</ele><time>2026-04-06T14:39:33.521Z</time></trkpt><trkpt lat="37.4647326" lon="14.9340093"><ele>44.0</ele><time>2026-04-06T14:39:34.521Z</time></trkpt><trkpt lat="37.4646753" lon="14.9336268"><ele>44.0</ele><time>2026-04-06T14:39:35.521Z</time></trkpt><trkpt lat="37.4646183" lon="14.9332489"><ele>38.5</ele><time>2026-04-06T14:39:36.521Z</time></trkpt><trkpt lat="37.4645611" lon="14.9328721"><ele>33.0</ele><time>2026-04-06T14:39:37.522Z</time></trkpt><trkpt lat="37.4645038" lon="14.9324966"><ele>32.5</ele><time>2026-04-06T14:39:38.521Z</time></trkpt><trkpt lat="37.4644432" lon="14.9321185"><ele>32.0</ele><time>2026-04-06T14:39:39.521Z</time></trkpt><trkpt lat="37.464386" lon="14.9317422"><ele>32.0</ele><time>2026-04-06T14:39:40.521Z</time></trkpt><trkpt lat="37.46433" lon="14.9313652"><ele>32.0</ele><time>2026-04-06T14:39:41.521Z</time></trkpt><trkpt lat="37.4642763" lon="14.9309875"><ele>32.0</ele><time>2026-04-06T14:39:42.521Z</time></trkpt><trkpt lat="37.4642187" lon="14.9306099"><ele>32.0</ele><time>2026-04-06T14:39:43.521Z</time></trkpt><trkpt lat="37.4641633" lon="14.9302305"><ele>31.5</ele><time>2026-04-06T14:39:44.521Z</time></trkpt><trkpt lat="37.464106" lon="14.9298526"><ele>31.0</ele><time>2026-04-06T14:39:45.521Z</time></trkpt><trkpt lat="37.4640491" lon="14.9294723"><ele>32.0</ele><time>2026-04-06T14:39:46.521Z</time></trkpt><trkpt lat="37.4639922" lon="14.9290949"><ele>33.0</ele><time>2026-04-06T14:39:47.521Z</time></trkpt><trkpt lat="37.4639368" lon="14.9287205"><ele>32.0</ele><time>2026-04-06T14:39:48.521Z</time></trkpt><trkpt lat="37.4638801" lon="14.9283429"><ele>31.0</ele><time>2026-04-06T14:39:49.521Z</time></trkpt><trkpt lat="37.4638257" lon="14.9279639"><ele>31.5</ele><time>2026-04-06T14:39:50.521Z</time></trkpt><trkpt lat="37.4637798" lon="14.9275863"><ele>32.0</ele><time>2026-04-06T14:39:51.521Z</time></trkpt><trkpt lat="37.4637403" lon="14.927204"><ele>32.0</ele><time>2026-04-06T14:39:52.521Z</time></trkpt><trkpt lat="37.4637038" lon="14.9268214"><ele>32.0</ele><time>2026-04-06T14:39:53.521Z</time></trkpt><trkpt lat="37.4636717" lon="14.9264381"><ele>31.5</ele><time>2026-04-06T14:39:54.521Z</time></trkpt><trkpt lat="37.4636439" lon="14.9260542"><ele>31.0</ele><time>2026-04-06T14:39:55.522Z</time></trkpt><trkpt lat="37.4636236" lon="14.9256701"><ele>30.5</ele><time>2026-04-06T14:39:56.521Z</time></trkpt><trkpt lat="37.4636109" lon="14.9252811"><ele>30.0</ele><time>2026-04-06T14:39:57.521Z</time></trkpt><trkpt lat="37.4636057" lon="14.9248957"><ele>30.0</ele><time>2026-04-06T14:39:58.522Z</time></trkpt><trkpt lat="37.4636075" lon="14.9245122"><ele>30.0</ele><time>2026-04-06T14:39:59.521Z</time></trkpt><trkpt lat="37.4636136" lon="14.924125"><ele>30.0</ele><time>2026-04-06T14:40:00.521Z</time></trkpt><trkpt lat="37.4636313" lon="14.9237444"><ele>30.0</ele><time>2026-04-06T14:40:01.522Z</time></trkpt><trkpt lat="37.4636524" lon="14.9233609"><ele>30.0</ele><time>2026-04-06T14:40:02.522Z</time></trkpt><trkpt lat="37.4636828" lon="14.9229796"><ele>30.0</ele><time>2026-04-06T14:40:03.522Z</time></trkpt><trkpt lat="37.4637164" lon="14.9225966"><ele>31.0</ele><time>2026-04-06T14:40:04.522Z</time></trkpt><trkpt lat="37.4637565" lon="14.9222153"><ele>32.0</ele><time>2026-04-06T14:40:05.521Z</time></trkpt><trkpt lat="37.4638043" lon="14.9218353"><ele>33.0</ele><time>2026-04-06T14:40:06.521Z</time></trkpt><trkpt lat="37.4638561" lon="14.9214541"><ele>34.0</ele><time>2026-04-06T14:40:07.521Z</time></trkpt><trkpt lat="37.4639143" lon="14.9210765"><ele>34.0</ele><time>2026-04-06T14:40:08.521Z</time></trkpt><trkpt lat="37.4639791" lon="14.9207008"><ele>34.0</ele><time>2026-04-06T14:40:09.521Z</time></trkpt><trkpt lat="37.4640515" lon="14.9203258"><ele>33.0</ele><time>2026-04-06T14:40:10.521Z</time></trkpt><trkpt lat="37.464132" lon="14.9199533"><ele>32.0</ele><time>2026-04-06T14:40:11.521Z</time></trkpt><trkpt lat="37.4642169" lon="14.9195834"><ele>32.5</ele><time>2026-04-06T14:40:12.521Z</time></trkpt><trkpt lat="37.4643075" lon="14.9192148"><ele>33.0</ele><time>2026-04-06T14:40:13.522Z</time></trkpt><trkpt lat="37.4644053" lon="14.9188488"><ele>33.0</ele><time>2026-04-06T14:40:14.521Z</time></trkpt><trkpt lat="37.4645067" lon="14.9184847"><ele>33.0</ele><time>2026-04-06T14:40:15.521Z</time></trkpt><trkpt lat="37.464614" lon="14.9181278"><ele>33.5</ele><time>2026-04-06T14:40:16.522Z</time></trkpt><trkpt lat="37.4647227" lon="14.9177703"><ele>34.0</ele><time>2026-04-06T14:40:17.521Z</time></trkpt><trkpt lat="37.4648316" lon="14.9174122"><ele>35.0</ele><time>2026-04-06T14:40:18.521Z</time></trkpt><trkpt lat="37.4649438" lon="14.9170538"><ele>36.0</ele><time>2026-04-06T14:40:19.521Z</time></trkpt><trkpt lat="37.465055" lon="14.9166956"><ele>36.0</ele><time>2026-04-06T14:40:20.521Z</time></trkpt><trkpt lat="37.4651709" lon="14.9163375"><ele>36.0</ele><time>2026-04-06T14:40:21.521Z</time></trkpt><trkpt lat="37.4652856" lon="14.915978"><ele>35.5</ele><time>2026-04-06T14:40:22.522Z</time></trkpt><trkpt lat="37.4654011" lon="14.9156215"><ele>35.0</ele><time>2026-04-06T14:40:23.521Z</time></trkpt><trkpt lat="37.4655169" lon="14.9152642"><ele>36.5</ele><time>2026-04-06T14:40:24.521Z</time></trkpt><trkpt lat="37.4656305" lon="14.9149096"><ele>38.0</ele><time>2026-04-06T14:40:25.521Z</time></trkpt><trkpt lat="37.4657454" lon="14.9145562"><ele>37.5</ele><time>2026-04-06T14:40:26.521Z</time></trkpt><trkpt lat="37.4658561" lon="14.9142019"><ele>37.0</ele><time>2026-04-06T14:40:27.521Z</time></trkpt><trkpt lat="37.4659694" lon="14.913846"><ele>37.0</ele><time>2026-04-06T14:40:28.522Z</time></trkpt><trkpt lat="37.4660776" lon="14.9134906"><ele>37.0</ele><time>2026-04-06T14:40:29.521Z</time></trkpt><trkpt lat="37.4661899" lon="14.9131336"><ele>38.0</ele><time>2026-04-06T14:40:30.522Z</time></trkpt><trkpt lat="37.4663005" lon="14.9127735"><ele>39.0</ele><time>2026-04-06T14:40:31.521Z</time></trkpt><trkpt lat="37.4664111" lon="14.9124127"><ele>39.5</ele><time>2026-04-06T14:40:32.521Z</time></trkpt><trkpt lat="37.466523" lon="14.9120512"><ele>40.0</ele><time>2026-04-06T14:40:33.521Z</time></trkpt><trkpt lat="37.4666318" lon="14.9116928"><ele>39.0</ele><time>2026-04-06T14:40:34.521Z</time></trkpt><trkpt lat="37.4667406" lon="14.9113333"><ele>38.0</ele><time>2026-04-06T14:40:35.521Z</time></trkpt><trkpt lat="37.4668519" lon="14.9109751"><ele>38.0</ele><time>2026-04-06T14:40:36.522Z</time></trkpt><trkpt lat="37.4669646" lon="14.9106164"><ele>38.0</ele><time>2026-04-06T14:40:37.522Z</time></trkpt><trkpt lat="37.4670755" lon="14.910258"><ele>40.0</ele><time>2026-04-06T14:40:38.522Z</time></trkpt><trkpt lat="37.4671868" lon="14.9099002"><ele>42.0</ele><time>2026-04-06T14:40:39.522Z</time></trkpt><trkpt lat="37.467298" lon="14.9095396"><ele>41.5</ele><time>2026-04-06T14:40:40.521Z</time></trkpt><trkpt lat="37.4674079" lon="14.9091793"><ele>41.0</ele><time>2026-04-06T14:40:41.521Z</time></trkpt><trkpt lat="37.4675152" lon="14.9088169"><ele>41.0</ele><time>2026-04-06T14:40:42.522Z</time></trkpt><trkpt lat="37.4676187" lon="14.9084545"><ele>41.0</ele><time>2026-04-06T14:40:43.521Z</time></trkpt><trkpt lat="37.4677195" lon="14.9080899"><ele>41.5</ele><time>2026-04-06T14:40:44.521Z</time></trkpt><trkpt lat="37.4678128" lon="14.9077252"><ele>42.0</ele><time>2026-04-06T14:40:45.521Z</time></trkpt><trkpt lat="37.4679015" lon="14.9073538"><ele>44.0</ele><time>2026-04-06T14:40:46.522Z</time></trkpt><trkpt lat="37.4679831" lon="14.906981"><ele>46.0</ele><time>2026-04-06T14:40:47.521Z</time></trkpt><trkpt lat="37.4680581" lon="14.9066135"><ele>46.0</ele><time>2026-04-06T14:40:48.521Z</time></trkpt><trkpt lat="37.468127" lon="14.9062434"><ele>46.0</ele><time>2026-04-06T14:40:49.521Z</time></trkpt><trkpt lat="37.4681858" lon="14.9058685"><ele>46.0</ele><time>2026-04-06T14:40:50.521Z</time></trkpt><trkpt lat="37.4682423" lon="14.9054842"><ele>46.0</ele><time>2026-04-06T14:40:51.521Z</time></trkpt><trkpt lat="37.4682895" lon="14.9051015"><ele>46.0</ele><time>2026-04-06T14:40:52.521Z</time></trkpt><trkpt lat="37.4683348" lon="14.9047203"><ele>46.0</ele><time>2026-04-06T14:40:53.522Z</time></trkpt><trkpt lat="37.4683694" lon="14.9043359"><ele>46.0</ele><time>2026-04-06T14:40:54.522Z</time></trkpt><trkpt lat="37.4683958" lon="14.9039514"><ele>46.0</ele><time>2026-04-06T14:40:55.521Z</time></trkpt><trkpt lat="37.4684147" lon="14.9035641"><ele>46.0</ele><time>2026-04-06T14:40:56.521Z</time></trkpt><trkpt lat="37.4684324" lon="14.9031798"><ele>46.0</ele><time>2026-04-06T14:40:57.521Z</time></trkpt><trkpt lat="37.4684487" lon="14.9027952"><ele>46.5</ele><time>2026-04-06T14:40:58.521Z</time></trkpt><trkpt lat="37.46846" lon="14.9024109"><ele>47.0</ele><time>2026-04-06T14:40:59.521Z</time></trkpt><trkpt lat="37.4684678" lon="14.9020261"><ele>48.0</ele><time>2026-04-06T14:41:00.521Z</time></trkpt><trkpt lat="37.4684707" lon="14.9016422"><ele>49.0</ele><time>2026-04-06T14:41:01.521Z</time></trkpt><trkpt lat="37.4684769" lon="14.9012566"><ele>49.0</ele><time>2026-04-06T14:41:02.521Z</time></trkpt><trkpt lat="37.4684857" lon="14.9008714"><ele>49.0</ele><time>2026-04-06T14:41:03.521Z</time></trkpt><trkpt lat="37.4684932" lon="14.9004851"><ele>49.0</ele><time>2026-04-06T14:41:04.521Z</time></trkpt><trkpt lat="37.4684958" lon="14.9000969"><ele>49.0</ele><time>2026-04-06T14:41:05.521Z</time></trkpt><trkpt lat="37.4684993" lon="14.8997135"><ele>45.5</ele><time>2026-04-06T14:41:06.521Z</time></trkpt><trkpt lat="37.468502" lon="14.8993321"><ele>42.0</ele><time>2026-04-06T14:41:07.521Z</time></trkpt><trkpt lat="37.4685043" lon="14.8989797"><ele>39.0</ele><time>2026-04-06T14:41:08.522Z</time></trkpt><trkpt lat="37.468503" lon="14.8986502"><ele>36.0</ele><time>2026-04-06T14:41:09.521Z</time></trkpt><trkpt lat="37.4684997" lon="14.8983201"><ele>35.5</ele><time>2026-04-06T14:41:10.521Z</time></trkpt><trkpt lat="37.4684928" lon="14.8979701"><ele>35.0</ele><time>2026-04-06T14:41:11.522Z</time></trkpt><trkpt lat="37.4684874" lon="14.8976013"><ele>35.5</ele><time>2026-04-06T14:41:12.521Z</time></trkpt><trkpt lat="37.4684873" lon="14.8972171"><ele>36.0</ele><time>2026-04-06T14:41:13.522Z</time></trkpt><trkpt lat="37.4684891" lon="14.896832"><ele>35.5</ele><time>2026-04-06T14:41:14.522Z</time></trkpt><trkpt lat="37.4684962" lon="14.8964461"><ele>35.0</ele><time>2026-04-06T14:41:15.521Z</time></trkpt><trkpt lat="37.4685083" lon="14.8960617"><ele>34.5</ele><time>2026-04-06T14:41:16.521Z</time></trkpt><trkpt lat="37.4685231" lon="14.8956793"><ele>34.0</ele><time>2026-04-06T14:41:17.522Z</time></trkpt><trkpt lat="37.4685354" lon="14.8952979"><ele>34.5</ele><time>2026-04-06T14:41:18.521Z</time></trkpt><trkpt lat="37.4685446" lon="14.8949136"><ele>35.0</ele><time>2026-04-06T14:41:19.521Z</time></trkpt><trkpt lat="37.4685495" lon="14.8945296"><ele>35.0</ele><time>2026-04-06T14:41:20.522Z</time></trkpt><trkpt lat="37.4685521" lon="14.8941473"><ele>35.0</ele><time>2026-04-06T14:41:21.521Z</time></trkpt><trkpt lat="37.4685564" lon="14.8937595"><ele>35.0</ele><time>2026-04-06T14:41:22.521Z</time></trkpt><trkpt lat="37.4685592" lon="14.8933719"><ele>35.0</ele><time>2026-04-06T14:41:23.521Z</time></trkpt><trkpt lat="37.4685641" lon="14.8929902"><ele>35.0</ele><time>2026-04-06T14:41:24.521Z</time></trkpt><trkpt lat="37.46857" lon="14.8926065"><ele>35.0</ele><time>2026-04-06T14:41:25.521Z</time></trkpt><trkpt lat="37.4685733" lon="14.8922212"><ele>35.0</ele><time>2026-04-06T14:41:26.521Z</time></trkpt><trkpt lat="37.468575" lon="14.8918358"><ele>35.0</ele><time>2026-04-06T14:41:27.521Z</time></trkpt><trkpt lat="37.468579" lon="14.891453"><ele>35.0</ele><time>2026-04-06T14:41:28.521Z</time></trkpt><trkpt lat="37.4685805" lon="14.8910666"><ele>35.0</ele><time>2026-04-06T14:41:29.521Z</time></trkpt><trkpt lat="37.4685866" lon="14.8906812"><ele>34.5</ele><time>2026-04-06T14:41:30.521Z</time></trkpt><trkpt lat="37.4685926" lon="14.8902969"><ele>34.0</ele><time>2026-04-06T14:41:31.521Z</time></trkpt><trkpt lat="37.4685979" lon="14.8899104"><ele>34.0</ele><time>2026-04-06T14:41:32.521Z</time></trkpt><trkpt lat="37.4686012" lon="14.8895275"><ele>34.0</ele><time>2026-04-06T14:41:33.521Z</time></trkpt><trkpt lat="37.4686067" lon="14.8891423"><ele>34.0</ele><time>2026-04-06T14:41:34.521Z</time></trkpt><trkpt lat="37.468608" lon="14.8887587"><ele>34.0</ele><time>2026-04-06T14:41:35.521Z</time></trkpt><trkpt lat="37.4686108" lon="14.8883752"><ele>35.0</ele><time>2026-04-06T14:41:36.521Z</time></trkpt><trkpt lat="37.4686092" lon="14.8879923"><ele>36.0</ele><time>2026-04-06T14:41:37.521Z</time></trkpt><trkpt lat="37.4686064" lon="14.8876054"><ele>36.0</ele><time>2026-04-06T14:41:38.521Z</time></trkpt><trkpt lat="37.468602" lon="14.887223"><ele>36.0</ele><time>2026-04-06T14:41:39.521Z</time></trkpt><trkpt lat="37.4685944" lon="14.8868395"><ele>35.5</ele><time>2026-04-06T14:41:40.521Z</time></trkpt><trkpt lat="37.468582" lon="14.8864555"><ele>35.0</ele><time>2026-04-06T14:41:41.521Z</time></trkpt><trkpt lat="37.468566" lon="14.8860705"><ele>36.0</ele><time>2026-04-06T14:41:42.521Z</time></trkpt><trkpt lat="37.4685501" lon="14.8856861"><ele>37.0</ele><time>2026-04-06T14:41:43.521Z</time></trkpt><trkpt lat="37.4685347" lon="14.8853006"><ele>37.0</ele><time>2026-04-06T14:41:44.521Z</time></trkpt><trkpt lat="37.4685204" lon="14.8849169"><ele>37.0</ele><time>2026-04-06T14:41:45.521Z</time></trkpt><trkpt lat="37.4685042" lon="14.8845323"><ele>36.5</ele><time>2026-04-06T14:41:46.521Z</time></trkpt><trkpt lat="37.4684901" lon="14.8841464"><ele>36.0</ele><time>2026-04-06T14:41:47.521Z</time></trkpt><trkpt lat="37.4684746" lon="14.88376"><ele>36.0</ele><time>2026-04-06T14:41:48.521Z</time></trkpt><trkpt lat="37.4684559" lon="14.8833757"><ele>36.0</ele><time>2026-04-06T14:41:49.528Z</time></trkpt><trkpt lat="37.4684405" lon="14.8829903"><ele>36.0</ele><time>2026-04-06T14:41:50.528Z</time></trkpt><trkpt lat="37.4684254" lon="14.882607"><ele>36.0</ele><time>2026-04-06T14:41:51.528Z</time></trkpt><trkpt lat="37.4684076" lon="14.8822195"><ele>36.5</ele><time>2026-04-06T14:41:52.528Z</time></trkpt><trkpt lat="37.4683939" lon="14.8818352"><ele>37.0</ele><time>2026-04-06T14:41:53.528Z</time></trkpt><trkpt lat="37.4683791" lon="14.8814501"><ele>37.0</ele><time>2026-04-06T14:41:54.529Z</time></trkpt><trkpt lat="37.4683626" lon="14.8810651"><ele>37.0</ele><time>2026-04-06T14:41:55.528Z</time></trkpt><trkpt lat="37.4683439" lon="14.8806794"><ele>37.0</ele><time>2026-04-06T14:41:56.528Z</time></trkpt><trkpt lat="37.4683301" lon="14.8802947"><ele>37.0</ele><time>2026-04-06T14:41:57.528Z</time></trkpt><trkpt lat="37.4683141" lon="14.879909"><ele>38.0</ele><time>2026-04-06T14:41:58.528Z</time></trkpt><trkpt lat="37.4682989" lon="14.8795269"><ele>39.0</ele><time>2026-04-06T14:41:59.528Z</time></trkpt><trkpt lat="37.4682811" lon="14.8791423"><ele>39.5</ele><time>2026-04-06T14:42:00.528Z</time></trkpt><trkpt lat="37.4682639" lon="14.8787579"><ele>40.0</ele><time>2026-04-06T14:42:01.528Z</time></trkpt><trkpt lat="37.4682456" lon="14.878371"><ele>40.0</ele><time>2026-04-06T14:42:02.528Z</time></trkpt><trkpt lat="37.4682261" lon="14.8779879"><ele>40.0</ele><time>2026-04-06T14:42:03.529Z</time></trkpt><trkpt lat="37.4682083" lon="14.8776043"><ele>39.5</ele><time>2026-04-06T14:42:04.528Z</time></trkpt><trkpt lat="37.4681925" lon="14.8772216"><ele>39.0</ele><time>2026-04-06T14:42:05.528Z</time></trkpt><trkpt lat="37.4681747" lon="14.8768397"><ele>39.5</ele><time>2026-04-06T14:42:06.528Z</time></trkpt><trkpt lat="37.4681574" lon="14.8764568"><ele>40.0</ele><time>2026-04-06T14:42:07.528Z</time></trkpt><trkpt lat="37.4681449" lon="14.8760712"><ele>40.5</ele><time>2026-04-06T14:42:08.529Z</time></trkpt><trkpt lat="37.4681291" lon="14.8756866"><ele>41.0</ele><time>2026-04-06T14:42:09.528Z</time></trkpt><trkpt lat="37.4681161" lon="14.8753038"><ele>45.0</ele><time>2026-04-06T14:42:10.528Z</time></trkpt><trkpt lat="37.4681001" lon="14.8749186"><ele>49.0</ele><time>2026-04-06T14:42:11.528Z</time></trkpt><trkpt lat="37.4680824" lon="14.8745346"><ele>55.0</ele><time>2026-04-06T14:42:12.528Z</time></trkpt><trkpt lat="37.4680691" lon="14.8741512"><ele>61.0</ele><time>2026-04-06T14:42:13.528Z</time></trkpt><trkpt lat="37.468054" lon="14.8737681"><ele>62.5</ele><time>2026-04-06T14:42:14.529Z</time></trkpt><trkpt lat="37.4680382" lon="14.8733858"><ele>64.0</ele><time>2026-04-06T14:42:15.528Z</time></trkpt><trkpt lat="37.4680233" lon="14.8730046"><ele>64.0</ele><time>2026-04-06T14:42:16.528Z</time></trkpt><trkpt lat="37.4680093" lon="14.8726209"><ele>64.0</ele><time>2026-04-06T14:42:17.528Z</time></trkpt><trkpt lat="37.467997" lon="14.8722362"><ele>64.0</ele><time>2026-04-06T14:42:18.529Z</time></trkpt><trkpt lat="37.4679864" lon="14.8718505"><ele>64.0</ele><time>2026-04-06T14:42:19.528Z</time></trkpt><trkpt lat="37.4679852" lon="14.8714654"><ele>64.5</ele><time>2026-04-06T14:42:20.528Z</time></trkpt><trkpt lat="37.4679897" lon="14.8710805"><ele>65.0</ele><time>2026-04-06T14:42:21.528Z</time></trkpt><trkpt lat="37.4680012" lon="14.8706958"><ele>65.0</ele><time>2026-04-06T14:42:22.528Z</time></trkpt><trkpt lat="37.46802" lon="14.8703118"><ele>65.0</ele><time>2026-04-06T14:42:23.528Z</time></trkpt><trkpt lat="37.4680483" lon="14.8699271"><ele>64.5</ele><time>2026-04-06T14:42:24.528Z</time></trkpt><trkpt lat="37.468084" lon="14.8695426"><ele>64.0</ele><time>2026-04-06T14:42:25.529Z</time></trkpt><trkpt lat="37.4681273" lon="14.8691618"><ele>64.0</ele><time>2026-04-06T14:42:26.528Z</time></trkpt><trkpt lat="37.4681792" lon="14.8687841"><ele>64.0</ele><time>2026-04-06T14:42:27.528Z</time></trkpt><trkpt lat="37.4682362" lon="14.8684062"><ele>63.5</ele><time>2026-04-06T14:42:28.528Z</time></trkpt><trkpt lat="37.4683016" lon="14.86803"><ele>63.0</ele><time>2026-04-06T14:42:29.529Z</time></trkpt><trkpt lat="37.4683708" lon="14.8676556"><ele>64.0</ele><time>2026-04-06T14:42:30.528Z</time></trkpt><trkpt lat="37.4684459" lon="14.8672848"><ele>65.0</ele><time>2026-04-06T14:42:31.528Z</time></trkpt><trkpt lat="37.4685269" lon="14.8669133"><ele>65.0</ele><time>2026-04-06T14:42:32.528Z</time></trkpt><trkpt lat="37.4686108" lon="14.8665436"><ele>65.0</ele><time>2026-04-06T14:42:33.529Z</time></trkpt><trkpt lat="37.4687024" lon="14.8661767"><ele>65.5</ele><time>2026-04-06T14:42:34.528Z</time></trkpt><trkpt lat="37.4688004" lon="14.8658102"><ele>66.0</ele><time>2026-04-06T14:42:35.528Z</time></trkpt><trkpt lat="37.4689061" lon="14.8654466"><ele>67.5</ele><time>2026-04-06T14:42:36.528Z</time></trkpt><trkpt lat="37.4690193" lon="14.8650914"><ele>69.0</ele><time>2026-04-06T14:42:37.529Z</time></trkpt><trkpt lat="37.4691373" lon="14.8647384"><ele>69.0</ele><time>2026-04-06T14:42:38.528Z</time></trkpt><trkpt lat="37.4692641" lon="14.8643859"><ele>69.0</ele><time>2026-04-06T14:42:39.529Z</time></trkpt><trkpt lat="37.46939" lon="14.8640387"><ele>69.0</ele><time>2026-04-06T14:42:40.528Z</time></trkpt><trkpt lat="37.4695198" lon="14.8636916"><ele>69.0</ele><time>2026-04-06T14:42:41.528Z</time></trkpt><trkpt lat="37.4696474" lon="14.8633438"><ele>70.5</ele><time>2026-04-06T14:42:42.529Z</time></trkpt><trkpt lat="37.4697766" lon="14.8629961"><ele>72.0</ele><time>2026-04-06T14:42:43.528Z</time></trkpt><trkpt lat="37.4699063" lon="14.8626466"><ele>72.5</ele><time>2026-04-06T14:42:44.529Z</time></trkpt><trkpt lat="37.470037" lon="14.8623004"><ele>73.0</ele><time>2026-04-06T14:42:45.528Z</time></trkpt><trkpt lat="37.4701699" lon="14.8619516"><ele>73.0</ele><time>2026-04-06T14:42:46.529Z</time></trkpt><trkpt lat="37.4703062" lon="14.8616021"><ele>73.0</ele><time>2026-04-06T14:42:47.528Z</time></trkpt><trkpt lat="37.4704409" lon="14.8612531"><ele>73.5</ele><time>2026-04-06T14:42:48.529Z</time></trkpt><trkpt lat="37.4705742" lon="14.860907"><ele>74.0</ele><time>2026-04-06T14:42:49.528Z</time></trkpt><trkpt lat="37.4707098" lon="14.86056"><ele>74.0</ele><time>2026-04-06T14:42:50.528Z</time></trkpt><trkpt lat="37.4708476" lon="14.8602108"><ele>74.0</ele><time>2026-04-06T14:42:51.529Z</time></trkpt><trkpt lat="37.4709844" lon="14.8598614"><ele>72.5</ele><time>2026-04-06T14:42:52.529Z</time></trkpt><trkpt lat="37.4711156" lon="14.8595128"><ele>71.0</ele><time>2026-04-06T14:42:53.528Z</time></trkpt><trkpt lat="37.4712483" lon="14.8591649"><ele>70.0</ele><time>2026-04-06T14:42:54.529Z</time></trkpt><trkpt lat="37.4713827" lon="14.8588155"><ele>69.0</ele><time>2026-04-06T14:42:55.529Z</time></trkpt><trkpt lat="37.4715146" lon="14.8584703"><ele>69.5</ele><time>2026-04-06T14:42:56.528Z</time></trkpt><trkpt lat="37.4716474" lon="14.8581235"><ele>70.0</ele><time>2026-04-06T14:42:57.528Z</time></trkpt><trkpt lat="37.4717792" lon="14.8577746"><ele>70.0</ele><time>2026-04-06T14:42:58.529Z</time></trkpt><trkpt lat="37.4719122" lon="14.8574262"><ele>70.0</ele><time>2026-04-06T14:42:59.529Z</time></trkpt><trkpt lat="37.4720446" lon="14.8570803"><ele>70.5</ele><time>2026-04-06T14:43:00.528Z</time></trkpt><trkpt lat="37.4721797" lon="14.8567364"><ele>71.0</ele><time>2026-04-06T14:43:01.529Z</time></trkpt><trkpt lat="37.4723146" lon="14.8563899"><ele>71.0</ele><time>2026-04-06T14:43:02.528Z</time></trkpt><trkpt lat="37.472448" lon="14.8560465"><ele>71.0</ele><time>2026-04-06T14:43:03.528Z</time></trkpt><trkpt lat="37.4725821" lon="14.8557039"><ele>70.0</ele><time>2026-04-06T14:43:04.528Z</time></trkpt><trkpt lat="37.472715" lon="14.8553607"><ele>69.0</ele><time>2026-04-06T14:43:05.528Z</time></trkpt><trkpt lat="37.4728515" lon="14.855014"><ele>68.5</ele><time>2026-04-06T14:43:06.528Z</time></trkpt><trkpt lat="37.4729894" lon="14.8546671"><ele>68.0</ele><time>2026-04-06T14:43:07.529Z</time></trkpt><trkpt lat="37.473131" lon="14.8543239"><ele>67.5</ele><time>2026-04-06T14:43:08.529Z</time></trkpt><trkpt lat="37.4732768" lon="14.8539818"><ele>67.0</ele><time>2026-04-06T14:43:09.528Z</time></trkpt><trkpt lat="37.4734352" lon="14.8536475"><ele>67.5</ele><time>2026-04-06T14:43:10.528Z</time></trkpt><trkpt lat="37.4735988" lon="14.8533228"><ele>68.0</ele><time>2026-04-06T14:43:11.528Z</time></trkpt><trkpt lat="37.4737677" lon="14.853004"><ele>67.5</ele><time>2026-04-06T14:43:12.529Z</time></trkpt><trkpt lat="37.4739426" lon="14.8526879"><ele>67.0</ele><time>2026-04-06T14:43:13.528Z</time></trkpt><trkpt lat="37.4741229" lon="14.8523805"><ele>67.0</ele><time>2026-04-06T14:43:14.528Z</time></trkpt><trkpt lat="37.474312" lon="14.8520806"><ele>67.0</ele><time>2026-04-06T14:43:15.529Z</time></trkpt><trkpt lat="37.474509" lon="14.8517895"><ele>66.0</ele><time>2026-04-06T14:43:16.528Z</time></trkpt><trkpt lat="37.4747161" lon="14.8515045"><ele>65.0</ele><time>2026-04-06T14:43:17.528Z</time></trkpt><trkpt lat="37.474928" lon="14.8512204"><ele>66.0</ele><time>2026-04-06T14:43:18.528Z</time></trkpt><trkpt lat="37.4751427" lon="14.8509426"><ele>67.0</ele><time>2026-04-06T14:43:19.528Z</time></trkpt><trkpt lat="37.4753636" lon="14.8506756"><ele>66.0</ele><time>2026-04-06T14:43:20.528Z</time></trkpt><trkpt lat="37.4755898" lon="14.8504147"><ele>65.0</ele><time>2026-04-06T14:43:21.529Z</time></trkpt><trkpt lat="37.4758155" lon="14.8501527"><ele>65.5</ele><time>2026-04-06T14:43:22.528Z</time></trkpt><trkpt lat="37.4760397" lon="14.8498874"><ele>66.0</ele><time>2026-04-06T14:43:23.528Z</time></trkpt><trkpt lat="37.4762633" lon="14.8496221"><ele>65.0</ele><time>2026-04-06T14:43:24.529Z</time></trkpt><trkpt lat="37.4764861" lon="14.8493617"><ele>64.0</ele><time>2026-04-06T14:43:25.528Z</time></trkpt><trkpt lat="37.4767133" lon="14.8491005"><ele>64.0</ele><time>2026-04-06T14:43:26.529Z</time></trkpt><trkpt lat="37.4769417" lon="14.8488407"><ele>64.0</ele><time>2026-04-06T14:43:27.528Z</time></trkpt><trkpt lat="37.47717" lon="14.8485809"><ele>63.5</ele><time>2026-04-06T14:43:28.528Z</time></trkpt><trkpt lat="37.4773966" lon="14.8483207"><ele>63.0</ele><time>2026-04-06T14:43:29.528Z</time></trkpt><trkpt lat="37.4776271" lon="14.8480615"><ele>63.0</ele><time>2026-04-06T14:43:30.528Z</time></trkpt><trkpt lat="37.4778551" lon="14.8478029"><ele>63.0</ele><time>2026-04-06T14:43:31.528Z</time></trkpt><trkpt lat="37.4780834" lon="14.8475428"><ele>63.0</ele><time>2026-04-06T14:43:32.528Z</time></trkpt><trkpt lat="37.4783069" lon="14.8472838"><ele>63.0</ele><time>2026-04-06T14:43:33.528Z</time></trkpt><trkpt lat="37.4785327" lon="14.847024"><ele>63.5</ele><time>2026-04-06T14:43:34.528Z</time></trkpt><trkpt lat="37.4787566" lon="14.8467644"><ele>64.0</ele><time>2026-04-06T14:43:35.529Z</time></trkpt><trkpt lat="37.4789819" lon="14.846505"><ele>64.0</ele><time>2026-04-06T14:43:36.528Z</time></trkpt><trkpt lat="37.4792069" lon="14.8462461"><ele>64.0</ele><time>2026-04-06T14:43:37.528Z</time></trkpt><trkpt lat="37.4794334" lon="14.8459875"><ele>63.0</ele><time>2026-04-06T14:43:38.529Z</time></trkpt><trkpt lat="37.4796604" lon="14.8457304"><ele>62.0</ele><time>2026-04-06T14:43:39.528Z</time></trkpt><trkpt lat="37.4798855" lon="14.8454687"><ele>62.0</ele><time>2026-04-06T14:43:40.528Z</time></trkpt><trkpt lat="37.4801098" lon="14.8452063"><ele>62.0</ele><time>2026-04-06T14:43:41.528Z</time></trkpt><trkpt lat="37.4803344" lon="14.8449409"><ele>62.5</ele><time>2026-04-06T14:43:42.528Z</time></trkpt><trkpt lat="37.4805566" lon="14.8446774"><ele>63.0</ele><time>2026-04-06T14:43:43.528Z</time></trkpt><trkpt lat="37.4807803" lon="14.8444143"><ele>63.0</ele><time>2026-04-06T14:43:44.528Z</time></trkpt><trkpt lat="37.4810029" lon="14.8441516"><ele>63.0</ele><time>2026-04-06T14:43:45.528Z</time></trkpt><trkpt lat="37.4812211" lon="14.8438879"><ele>63.0</ele><time>2026-04-06T14:43:46.528Z</time></trkpt><trkpt lat="37.4814451" lon="14.8436267"><ele>63.0</ele><time>2026-04-06T14:43:47.528Z</time></trkpt><trkpt lat="37.4816701" lon="14.8433659"><ele>63.0</ele><time>2026-04-06T14:43:48.529Z</time></trkpt><trkpt lat="37.4818962" lon="14.8431063"><ele>63.0</ele><time>2026-04-06T14:43:49.529Z</time></trkpt><trkpt lat="37.4821223" lon="14.8428504"><ele>63.5</ele><time>2026-04-06T14:43:50.528Z</time></trkpt><trkpt lat="37.4823497" lon="14.8425972"><ele>64.0</ele><time>2026-04-06T14:43:51.528Z</time></trkpt><trkpt lat="37.4825798" lon="14.8423395"><ele>64.0</ele><time>2026-04-06T14:43:52.528Z</time></trkpt><trkpt lat="37.4828091" lon="14.8420824"><ele>64.0</ele><time>2026-04-06T14:43:53.528Z</time></trkpt><trkpt lat="37.4830358" lon="14.8418238"><ele>64.5</ele><time>2026-04-06T14:43:54.528Z</time></trkpt><trkpt lat="37.4832618" lon="14.8415652"><ele>65.0</ele><time>2026-04-06T14:43:55.529Z</time></trkpt><trkpt lat="37.4834892" lon="14.8413036"><ele>65.0</ele><time>2026-04-06T14:43:56.528Z</time></trkpt><trkpt lat="37.4837141" lon="14.8410414"><ele>65.0</ele><time>2026-04-06T14:43:57.528Z</time></trkpt><trkpt lat="37.4839388" lon="14.8407771"><ele>65.5</ele><time>2026-04-06T14:43:58.528Z</time></trkpt><trkpt lat="37.4841628" lon="14.8405141"><ele>66.0</ele><time>2026-04-06T14:43:59.528Z</time></trkpt><trkpt lat="37.4843854" lon="14.8402483"><ele>65.5</ele><time>2026-04-06T14:44:00.529Z</time></trkpt><trkpt lat="37.4846028" lon="14.8399775"><ele>65.0</ele><time>2026-04-06T14:44:01.528Z</time></trkpt><trkpt lat="37.4848218" lon="14.8397042"><ele>65.0</ele><time>2026-04-06T14:44:02.528Z</time></trkpt><trkpt lat="37.4850424" lon="14.8394355"><ele>65.0</ele><time>2026-04-06T14:44:03.529Z</time></trkpt><trkpt lat="37.485262" lon="14.8391669"><ele>65.0</ele><time>2026-04-06T14:44:04.528Z</time></trkpt><trkpt lat="37.4854779" lon="14.8388917"><ele>65.0</ele><time>2026-04-06T14:44:05.528Z</time></trkpt><trkpt lat="37.4856891" lon="14.8386076"><ele>66.0</ele><time>2026-04-06T14:44:06.528Z</time></trkpt><trkpt lat="37.4858938" lon="14.8383176"><ele>67.0</ele><time>2026-04-06T14:44:07.528Z</time></trkpt><trkpt lat="37.4860937" lon="14.8380209"><ele>66.5</ele><time>2026-04-06T14:44:08.528Z</time></trkpt><trkpt lat="37.4862916" lon="14.8377307"><ele>66.0</ele><time>2026-04-06T14:44:09.529Z</time></trkpt><trkpt lat="37.4864901" lon="14.8374356"><ele>66.0</ele><time>2026-04-06T14:44:10.528Z</time></trkpt><trkpt lat="37.4868708" lon="14.8368247"><ele>66.5</ele><time>2026-04-06T14:44:12.528Z</time></trkpt><trkpt lat="37.4870532" lon="14.8365157"><ele>67.0</ele><time>2026-04-06T14:44:13.529Z</time></trkpt><trkpt lat="37.4872357" lon="14.8362087"><ele>67.5</ele><time>2026-04-06T14:44:14.528Z</time></trkpt><trkpt lat="37.4874169" lon="14.8358975"><ele>68.0</ele><time>2026-04-06T14:44:15.529Z</time></trkpt><trkpt lat="37.4875922" lon="14.8355841"><ele>68.0</ele><time>2026-04-06T14:44:16.528Z</time></trkpt><trkpt lat="37.4877622" lon="14.8352616"><ele>68.0</ele><time>2026-04-06T14:44:17.529Z</time></trkpt><trkpt lat="37.4879292" lon="14.8349358"><ele>68.0</ele><time>2026-04-06T14:44:18.528Z</time></trkpt><trkpt lat="37.4880914" lon="14.8346068"><ele>68.0</ele><time>2026-04-06T14:44:19.529Z</time></trkpt><trkpt lat="37.4882507" lon="14.8342765"><ele>68.5</ele><time>2026-04-06T14:44:20.528Z</time></trkpt><trkpt lat="37.4884046" lon="14.8339425"><ele>69.0</ele><time>2026-04-06T14:44:21.528Z</time></trkpt><trkpt lat="37.4885542" lon="14.8336115"><ele>69.0</ele><time>2026-04-06T14:44:22.528Z</time></trkpt><trkpt lat="37.4886988" lon="14.8332729"><ele>69.0</ele><time>2026-04-06T14:44:23.529Z</time></trkpt><trkpt lat="37.4888363" lon="14.832931"><ele>69.0</ele><time>2026-04-06T14:44:24.528Z</time></trkpt><trkpt lat="37.4889719" lon="14.8325907"><ele>69.0</ele><time>2026-04-06T14:44:25.528Z</time></trkpt><trkpt lat="37.4891038" lon="14.8322404"><ele>69.0</ele><time>2026-04-06T14:44:26.528Z</time></trkpt><trkpt lat="37.4892359" lon="14.8318927"><ele>69.0</ele><time>2026-04-06T14:44:27.528Z</time></trkpt><trkpt lat="37.4893657" lon="14.831542"><ele>69.0</ele><time>2026-04-06T14:44:28.528Z</time></trkpt><trkpt lat="37.4894934" lon="14.8311889"><ele>69.0</ele><time>2026-04-06T14:44:29.528Z</time></trkpt><trkpt lat="37.4896151" lon="14.8308356"><ele>69.0</ele><time>2026-04-06T14:44:30.529Z</time></trkpt><trkpt lat="37.489733" lon="14.8304834"><ele>69.0</ele><time>2026-04-06T14:44:31.529Z</time></trkpt><trkpt lat="37.4898497" lon="14.8301252"><ele>69.0</ele><time>2026-04-06T14:44:32.528Z</time></trkpt><trkpt lat="37.4899634" lon="14.829773"><ele>69.0</ele><time>2026-04-06T14:44:33.528Z</time></trkpt><trkpt lat="37.4900803" lon="14.8294189"><ele>68.5</ele><time>2026-04-06T14:44:34.528Z</time></trkpt><trkpt lat="37.4901998" lon="14.8290602"><ele>68.0</ele><time>2026-04-06T14:44:35.528Z</time></trkpt><trkpt lat="37.490319" lon="14.8287052"><ele>68.0</ele><time>2026-04-06T14:44:36.528Z</time></trkpt><trkpt lat="37.4904379" lon="14.8283535"><ele>68.0</ele><time>2026-04-06T14:44:37.529Z</time></trkpt><trkpt lat="37.4905543" lon="14.8279962"><ele>67.5</ele><time>2026-04-06T14:44:38.529Z</time></trkpt><trkpt lat="37.4906678" lon="14.8276402"><ele>67.0</ele><time>2026-04-06T14:44:39.528Z</time></trkpt><trkpt lat="37.4907855" lon="14.8272881"><ele>67.0</ele><time>2026-04-06T14:44:40.529Z</time></trkpt><trkpt lat="37.4909026" lon="14.8269305"><ele>67.0</ele><time>2026-04-06T14:44:41.528Z</time></trkpt><trkpt lat="37.4910212" lon="14.826576"><ele>67.5</ele><time>2026-04-06T14:44:42.528Z</time></trkpt><trkpt lat="37.4911391" lon="14.8262228"><ele>68.0</ele><time>2026-04-06T14:44:43.528Z</time></trkpt><trkpt lat="37.4912564" lon="14.8258637"><ele>69.5</ele><time>2026-04-06T14:44:44.529Z</time></trkpt><trkpt lat="37.4913745" lon="14.8255083"><ele>71.0</ele><time>2026-04-06T14:44:45.528Z</time></trkpt><trkpt lat="37.4914926" lon="14.8251526"><ele>71.0</ele><time>2026-04-06T14:44:46.528Z</time></trkpt><trkpt lat="37.4916104" lon="14.824796"><ele>71.0</ele><time>2026-04-06T14:44:47.528Z</time></trkpt><trkpt lat="37.4917312" lon="14.8244387"><ele>71.0</ele><time>2026-04-06T14:44:48.528Z</time></trkpt><trkpt lat="37.4918488" lon="14.8240806"><ele>71.0</ele><time>2026-04-06T14:44:49.528Z</time></trkpt><trkpt lat="37.4919666" lon="14.8237178"><ele>71.0</ele><time>2026-04-06T14:44:50.528Z</time></trkpt><trkpt lat="37.4920832" lon="14.8233629"><ele>71.0</ele><time>2026-04-06T14:44:51.528Z</time></trkpt><trkpt lat="37.4921999" lon="14.8230053"><ele>71.0</ele><time>2026-04-06T14:44:52.529Z</time></trkpt><trkpt lat="37.4923152" lon="14.8226485"><ele>71.0</ele><time>2026-04-06T14:44:53.528Z</time></trkpt><trkpt lat="37.49243" lon="14.8222943"><ele>72.0</ele><time>2026-04-06T14:44:54.528Z</time></trkpt><trkpt lat="37.492547" lon="14.8219412"><ele>73.0</ele><time>2026-04-06T14:44:55.528Z</time></trkpt><trkpt lat="37.4926656" lon="14.8215843"><ele>73.0</ele><time>2026-04-06T14:44:56.528Z</time></trkpt><trkpt lat="37.4927883" lon="14.8212299"><ele>73.0</ele><time>2026-04-06T14:44:57.528Z</time></trkpt><trkpt lat="37.4929097" lon="14.8208722"><ele>73.5</ele><time>2026-04-06T14:44:58.528Z</time></trkpt><trkpt lat="37.4930278" lon="14.8205163"><ele>74.0</ele><time>2026-04-06T14:44:59.528Z</time></trkpt><trkpt lat="37.4931454" lon="14.8201591"><ele>73.5</ele><time>2026-04-06T14:45:00.529Z</time></trkpt><trkpt lat="37.4932601" lon="14.819801"><ele>73.0</ele><time>2026-04-06T14:45:01.528Z</time></trkpt><trkpt lat="37.493375" lon="14.8194447"><ele>73.0</ele><time>2026-04-06T14:45:02.529Z</time></trkpt><trkpt lat="37.4934908" lon="14.8190853"><ele>73.0</ele><time>2026-04-06T14:45:03.529Z</time></trkpt><trkpt lat="37.4936073" lon="14.8187272"><ele>73.5</ele><time>2026-04-06T14:45:04.528Z</time></trkpt><trkpt lat="37.4937243" lon="14.8183704"><ele>74.0</ele><time>2026-04-06T14:45:05.529Z</time></trkpt><trkpt lat="37.4938431" lon="14.8180158"><ele>74.5</ele><time>2026-04-06T14:45:06.528Z</time></trkpt><trkpt lat="37.493962" lon="14.8176633"><ele>75.0</ele><time>2026-04-06T14:45:07.529Z</time></trkpt><trkpt lat="37.4940803" lon="14.8173093"><ele>75.0</ele><time>2026-04-06T14:45:08.528Z</time></trkpt><trkpt lat="37.4942009" lon="14.8169535"><ele>75.0</ele><time>2026-04-06T14:45:09.528Z</time></trkpt><trkpt lat="37.4943187" lon="14.8165985"><ele>75.0</ele><time>2026-04-06T14:45:10.529Z</time></trkpt><trkpt lat="37.4944351" lon="14.8162416"><ele>75.0</ele><time>2026-04-06T14:45:11.528Z</time></trkpt><trkpt lat="37.4945521" lon="14.8158891"><ele>75.5</ele><time>2026-04-06T14:45:12.528Z</time></trkpt><trkpt lat="37.4946676" lon="14.8155335"><ele>76.0</ele><time>2026-04-06T14:45:13.528Z</time></trkpt><trkpt lat="37.4947824" lon="14.8151778"><ele>76.0</ele><time>2026-04-06T14:45:14.529Z</time></trkpt><trkpt lat="37.4949001" lon="14.8148212"><ele>76.0</ele><time>2026-04-06T14:45:15.529Z</time></trkpt><trkpt lat="37.4950192" lon="14.8144684"><ele>75.5</ele><time>2026-04-06T14:45:16.528Z</time></trkpt><trkpt lat="37.4951408" lon="14.8141151"><ele>75.0</ele><time>2026-04-06T14:45:17.528Z</time></trkpt><trkpt lat="37.4952625" lon="14.8137633"><ele>73.0</ele><time>2026-04-06T14:45:18.529Z</time></trkpt><trkpt lat="37.4953807" lon="14.8134104"><ele>71.0</ele><time>2026-04-06T14:45:19.528Z</time></trkpt><trkpt lat="37.4954981" lon="14.813052"><ele>69.0</ele><time>2026-04-06T14:45:20.528Z</time></trkpt><trkpt lat="37.4956151" lon="14.8126949"><ele>67.0</ele><time>2026-04-06T14:45:21.528Z</time></trkpt><trkpt lat="37.495733" lon="14.8123358"><ele>66.5</ele><time>2026-04-06T14:45:22.528Z</time></trkpt><trkpt lat="37.4958548" lon="14.8119824"><ele>66.0</ele><time>2026-04-06T14:45:23.528Z</time></trkpt><trkpt lat="37.4959786" lon="14.811632"><ele>68.0</ele><time>2026-04-06T14:45:24.528Z</time></trkpt><trkpt lat="37.4961054" lon="14.8112801"><ele>70.0</ele><time>2026-04-06T14:45:25.529Z</time></trkpt><trkpt lat="37.4962353" lon="14.8109306"><ele>73.0</ele><time>2026-04-06T14:45:26.529Z</time></trkpt><trkpt lat="37.4963692" lon="14.810588"><ele>76.0</ele><time>2026-04-06T14:45:27.528Z</time></trkpt><trkpt lat="37.496511" lon="14.8102464"><ele>76.5</ele><time>2026-04-06T14:45:28.528Z</time></trkpt><trkpt lat="37.4966602" lon="14.8099144"><ele>77.0</ele><time>2026-04-06T14:45:29.528Z</time></trkpt><trkpt lat="37.4968157" lon="14.809585"><ele>76.5</ele><time>2026-04-06T14:45:30.528Z</time></trkpt><trkpt lat="37.4969791" lon="14.8092591"><ele>76.0</ele><time>2026-04-06T14:45:31.529Z</time></trkpt><trkpt lat="37.4971449" lon="14.8089326"><ele>76.0</ele><time>2026-04-06T14:45:32.528Z</time></trkpt><trkpt lat="37.4973163" lon="14.8086122"><ele>76.0</ele><time>2026-04-06T14:45:33.528Z</time></trkpt><trkpt lat="37.497495" lon="14.8082937"><ele>77.0</ele><time>2026-04-06T14:45:34.528Z</time></trkpt><trkpt lat="37.4976796" lon="14.8079836"><ele>78.0</ele><time>2026-04-06T14:45:35.528Z</time></trkpt><trkpt lat="37.4978665" lon="14.8076787"><ele>78.0</ele><time>2026-04-06T14:45:36.528Z</time></trkpt><trkpt lat="37.4980548" lon="14.8073809"><ele>78.0</ele><time>2026-04-06T14:45:37.528Z</time></trkpt><trkpt lat="37.498249" lon="14.8070844"><ele>77.5</ele><time>2026-04-06T14:45:38.528Z</time></trkpt><trkpt lat="37.498448" lon="14.8067938"><ele>77.0</ele><time>2026-04-06T14:45:39.528Z</time></trkpt><trkpt lat="37.4986508" lon="14.8065093"><ele>77.5</ele><time>2026-04-06T14:45:40.528Z</time></trkpt><trkpt lat="37.4988582" lon="14.80623"><ele>78.0</ele><time>2026-04-06T14:45:41.528Z</time></trkpt><trkpt lat="37.4990672" lon="14.8059485"><ele>78.0</ele><time>2026-04-06T14:45:42.528Z</time></trkpt><trkpt lat="37.4992787" lon="14.8056726"><ele>78.0</ele><time>2026-04-06T14:45:43.529Z</time></trkpt><trkpt lat="37.4994904" lon="14.8053939"><ele>80.0</ele><time>2026-04-06T14:45:44.528Z</time></trkpt><trkpt lat="37.4997049" lon="14.8051161"><ele>82.0</ele><time>2026-04-06T14:45:45.528Z</time></trkpt><trkpt lat="37.4999225" lon="14.804842"><ele>82.0</ele><time>2026-04-06T14:45:46.528Z</time></trkpt><trkpt lat="37.5001364" lon="14.8045631"><ele>82.0</ele><time>2026-04-06T14:45:47.529Z</time></trkpt><trkpt lat="37.5003454" lon="14.8042829"><ele>83.0</ele><time>2026-04-06T14:45:48.528Z</time></trkpt><trkpt lat="37.5005597" lon="14.8040048"><ele>84.0</ele><time>2026-04-06T14:45:49.528Z</time></trkpt><trkpt lat="37.5007707" lon="14.8037214"><ele>82.5</ele><time>2026-04-06T14:45:50.528Z</time></trkpt><trkpt lat="37.5009785" lon="14.8034307"><ele>81.0</ele><time>2026-04-06T14:45:51.528Z</time></trkpt><trkpt lat="37.5011739" lon="14.8031339"><ele>81.5</ele><time>2026-04-06T14:45:52.529Z</time></trkpt><trkpt lat="37.5013603" lon="14.8028302"><ele>82.0</ele><time>2026-04-06T14:45:53.528Z</time></trkpt><trkpt lat="37.5015438" lon="14.8025205"><ele>82.0</ele><time>2026-04-06T14:45:54.528Z</time></trkpt><trkpt lat="37.5017161" lon="14.8022026"><ele>82.0</ele><time>2026-04-06T14:45:55.528Z</time></trkpt><trkpt lat="37.5018797" lon="14.8018763"><ele>82.5</ele><time>2026-04-06T14:45:56.528Z</time></trkpt><trkpt lat="37.5020262" lon="14.8015412"><ele>83.0</ele><time>2026-04-06T14:45:57.528Z</time></trkpt><trkpt lat="37.5021646" lon="14.8011977"><ele>83.5</ele><time>2026-04-06T14:45:58.529Z</time></trkpt><trkpt lat="37.5022936" lon="14.8008514"><ele>84.0</ele><time>2026-04-06T14:45:59.528Z</time></trkpt><trkpt lat="37.5024236" lon="14.8005036"><ele>84.0</ele><time>2026-04-06T14:46:00.528Z</time></trkpt><trkpt lat="37.5025479" lon="14.8001475"><ele>84.0</ele><time>2026-04-06T14:46:01.529Z</time></trkpt><trkpt lat="37.5026686" lon="14.7997938"><ele>84.0</ele><time>2026-04-06T14:46:02.529Z</time></trkpt><trkpt lat="37.5027857" lon="14.7994361"><ele>84.0</ele><time>2026-04-06T14:46:03.528Z</time></trkpt><trkpt lat="37.5028947" lon="14.7990773"><ele>85.0</ele><time>2026-04-06T14:46:04.528Z</time></trkpt><trkpt lat="37.5030035" lon="14.7987176"><ele>86.0</ele><time>2026-04-06T14:46:05.528Z</time></trkpt><trkpt lat="37.5031148" lon="14.7983565"><ele>86.0</ele><time>2026-04-06T14:46:06.528Z</time></trkpt><trkpt lat="37.5032237" lon="14.798"><ele>86.0</ele><time>2026-04-06T14:46:07.528Z</time></trkpt><trkpt lat="37.5033349" lon="14.7976386"><ele>85.5</ele><time>2026-04-06T14:46:08.529Z</time></trkpt><trkpt lat="37.5034444" lon="14.7972811"><ele>85.0</ele><time>2026-04-06T14:46:09.528Z</time></trkpt><trkpt lat="37.5035575" lon="14.7969236"><ele>85.0</ele><time>2026-04-06T14:46:10.528Z</time></trkpt><trkpt lat="37.5036758" lon="14.7965681"><ele>85.0</ele><time>2026-04-06T14:46:11.528Z</time></trkpt><trkpt lat="37.5037924" lon="14.79621"><ele>85.5</ele><time>2026-04-06T14:46:12.529Z</time></trkpt><trkpt lat="37.5039062" lon="14.7958477"><ele>86.0</ele><time>2026-04-06T14:46:13.528Z</time></trkpt><trkpt lat="37.5040179" lon="14.7954891"><ele>86.0</ele><time>2026-04-06T14:46:14.528Z</time></trkpt><trkpt lat="37.5041268" lon="14.7951321"><ele>86.0</ele><time>2026-04-06T14:46:15.528Z</time></trkpt><trkpt lat="37.5042393" lon="14.7947765"><ele>86.0</ele><time>2026-04-06T14:46:16.528Z</time></trkpt><trkpt lat="37.5043512" lon="14.7944191"><ele>86.0</ele><time>2026-04-06T14:46:17.528Z</time></trkpt><trkpt lat="37.5044648" lon="14.7940604"><ele>86.5</ele><time>2026-04-06T14:46:18.528Z</time></trkpt><trkpt lat="37.5045757" lon="14.7937037"><ele>87.0</ele><time>2026-04-06T14:46:19.528Z</time></trkpt><trkpt lat="37.5046832" lon="14.7933465"><ele>87.0</ele><time>2026-04-06T14:46:20.529Z</time></trkpt><trkpt lat="37.5047936" lon="14.7929881"><ele>87.0</ele><time>2026-04-06T14:46:21.528Z</time></trkpt><trkpt lat="37.5049063" lon="14.7926266"><ele>88.0</ele><time>2026-04-06T14:46:22.529Z</time></trkpt><trkpt lat="37.5050192" lon="14.7922665"><ele>89.0</ele><time>2026-04-06T14:46:23.528Z</time></trkpt><trkpt lat="37.5051302" lon="14.7919075"><ele>86.5</ele><time>2026-04-06T14:46:24.529Z</time></trkpt><trkpt lat="37.5052419" lon="14.7915439"><ele>84.0</ele><time>2026-04-06T14:46:25.528Z</time></trkpt><trkpt lat="37.505352" lon="14.7911813"><ele>82.5</ele><time>2026-04-06T14:46:26.528Z</time></trkpt><trkpt lat="37.5054602" lon="14.790821"><ele>81.0</ele><time>2026-04-06T14:46:27.528Z</time></trkpt><trkpt lat="37.5055708" lon="14.7904612"><ele>81.0</ele><time>2026-04-06T14:46:28.529Z</time></trkpt><trkpt lat="37.505681" lon="14.7900989"><ele>81.0</ele><time>2026-04-06T14:46:29.529Z</time></trkpt><trkpt lat="37.5057922" lon="14.7897412"><ele>81.0</ele><time>2026-04-06T14:46:30.528Z</time></trkpt><trkpt lat="37.5059063" lon="14.7893865"><ele>81.0</ele><time>2026-04-06T14:46:31.528Z</time></trkpt><trkpt lat="37.5060219" lon="14.7890253"><ele>80.0</ele><time>2026-04-06T14:46:32.528Z</time></trkpt><trkpt lat="37.506138" lon="14.788672"><ele>79.0</ele><time>2026-04-06T14:46:33.528Z</time></trkpt><trkpt lat="37.5062542" lon="14.7883118"><ele>79.0</ele><time>2026-04-06T14:46:34.528Z</time></trkpt><trkpt lat="37.5063748" lon="14.7879608"><ele>79.0</ele><time>2026-04-06T14:46:35.528Z</time></trkpt><trkpt lat="37.5065007" lon="14.787609"><ele>80.0</ele><time>2026-04-06T14:46:36.528Z</time></trkpt><trkpt lat="37.5066327" lon="14.7872598"><ele>81.0</ele><time>2026-04-06T14:46:37.528Z</time></trkpt><trkpt lat="37.5067717" lon="14.786915"><ele>82.0</ele><time>2026-04-06T14:46:38.528Z</time></trkpt><trkpt lat="37.5069178" lon="14.7865781"><ele>83.0</ele><time>2026-04-06T14:46:39.528Z</time></trkpt><trkpt lat="37.5070665" lon="14.7862398"><ele>86.0</ele><time>2026-04-06T14:46:40.528Z</time></trkpt><trkpt lat="37.507221" lon="14.7859068"><ele>89.0</ele><time>2026-04-06T14:46:41.528Z</time></trkpt><trkpt lat="37.5073798" lon="14.7855811"><ele>89.0</ele><time>2026-04-06T14:46:42.527Z</time></trkpt><trkpt lat="37.5075471" lon="14.7852589"><ele>89.0</ele><time>2026-04-06T14:46:43.528Z</time></trkpt><trkpt lat="37.50772" lon="14.7849415"><ele>87.0</ele><time>2026-04-06T14:46:44.527Z</time></trkpt><trkpt lat="37.5078976" lon="14.7846255"><ele>85.0</ele><time>2026-04-06T14:46:45.527Z</time></trkpt><trkpt lat="37.5080804" lon="14.7843135"><ele>85.0</ele><time>2026-04-06T14:46:46.527Z</time></trkpt><trkpt lat="37.5082683" lon="14.7840056"><ele>85.0</ele><time>2026-04-06T14:46:47.528Z</time></trkpt><trkpt lat="37.5084604" lon="14.7837022"><ele>84.5</ele><time>2026-04-06T14:46:48.527Z</time></trkpt><trkpt lat="37.508648" lon="14.783397"><ele>84.0</ele><time>2026-04-06T14:46:49.527Z</time></trkpt><trkpt lat="37.5088361" lon="14.78309"><ele>84.0</ele><time>2026-04-06T14:46:50.527Z</time></trkpt><trkpt lat="37.5090267" lon="14.7827857"><ele>84.0</ele><time>2026-04-06T14:46:51.527Z</time></trkpt><trkpt lat="37.5092143" lon="14.7824826"><ele>84.0</ele><time>2026-04-06T14:46:52.528Z</time></trkpt><trkpt lat="37.5094027" lon="14.7821778"><ele>84.0</ele><time>2026-04-06T14:46:53.527Z</time></trkpt><trkpt lat="37.5095937" lon="14.7818754"><ele>85.0</ele><time>2026-04-06T14:46:54.527Z</time></trkpt><trkpt lat="37.5097841" lon="14.781577"><ele>86.0</ele><time>2026-04-06T14:46:55.528Z</time></trkpt><trkpt lat="37.509971" lon="14.781268"><ele>84.5</ele><time>2026-04-06T14:46:56.527Z</time></trkpt><trkpt lat="37.5101568" lon="14.7809582"><ele>83.0</ele><time>2026-04-06T14:46:57.528Z</time></trkpt><trkpt lat="37.5103378" lon="14.7806473"><ele>83.0</ele><time>2026-04-06T14:46:58.527Z</time></trkpt><trkpt lat="37.510514" lon="14.7803347"><ele>83.0</ele><time>2026-04-06T14:46:59.527Z</time></trkpt><trkpt lat="37.510688" lon="14.7800157"><ele>83.0</ele><time>2026-04-06T14:47:00.528Z</time></trkpt><trkpt lat="37.5108603" lon="14.7796944"><ele>83.0</ele><time>2026-04-06T14:47:01.527Z</time></trkpt><trkpt lat="37.5110257" lon="14.7793698"><ele>82.5</ele><time>2026-04-06T14:47:02.527Z</time></trkpt><trkpt lat="37.5111809" lon="14.7790396"><ele>82.0</ele><time>2026-04-06T14:47:03.528Z</time></trkpt><trkpt lat="37.5113307" lon="14.7787059"><ele>84.5</ele><time>2026-04-06T14:47:04.527Z</time></trkpt><trkpt lat="37.5114732" lon="14.7783663"><ele>87.0</ele><time>2026-04-06T14:47:05.527Z</time></trkpt><trkpt lat="37.5116113" lon="14.7780222"><ele>83.5</ele><time>2026-04-06T14:47:06.527Z</time></trkpt><trkpt lat="37.5117385" lon="14.7776748"><ele>80.0</ele><time>2026-04-06T14:47:07.527Z</time></trkpt><trkpt lat="37.5118567" lon="14.7773168"><ele>80.0</ele><time>2026-04-06T14:47:08.527Z</time></trkpt><trkpt lat="37.5119688" lon="14.7769621"><ele>80.0</ele><time>2026-04-06T14:47:09.528Z</time></trkpt><trkpt lat="37.5120741" lon="14.7766042"><ele>79.0</ele><time>2026-04-06T14:47:10.528Z</time></trkpt><trkpt lat="37.512176" lon="14.7762419"><ele>78.0</ele><time>2026-04-06T14:47:11.528Z</time></trkpt><trkpt lat="37.5122746" lon="14.7758715"><ele>78.0</ele><time>2026-04-06T14:47:12.527Z</time></trkpt><trkpt lat="37.5123672" lon="14.7755056"><ele>78.0</ele><time>2026-04-06T14:47:13.528Z</time></trkpt><trkpt lat="37.5124553" lon="14.7751337"><ele>78.0</ele><time>2026-04-06T14:47:14.527Z</time></trkpt><trkpt lat="37.5125379" lon="14.7747614"><ele>78.0</ele><time>2026-04-06T14:47:15.527Z</time></trkpt><trkpt lat="37.5126136" lon="14.7743873"><ele>77.5</ele><time>2026-04-06T14:47:16.527Z</time></trkpt><trkpt lat="37.5126884" lon="14.7740142"><ele>77.0</ele><time>2026-04-06T14:47:17.527Z</time></trkpt><trkpt lat="37.5127651" lon="14.7736415"><ele>77.0</ele><time>2026-04-06T14:47:18.527Z</time></trkpt><trkpt lat="37.5128412" lon="14.7732643"><ele>77.0</ele><time>2026-04-06T14:47:19.527Z</time></trkpt><trkpt lat="37.5129127" lon="14.7728886"><ele>77.5</ele><time>2026-04-06T14:47:20.527Z</time></trkpt><trkpt lat="37.5129838" lon="14.7725154"><ele>78.0</ele><time>2026-04-06T14:47:21.527Z</time></trkpt><trkpt lat="37.5130571" lon="14.7721412"><ele>78.0</ele><time>2026-04-06T14:47:22.528Z</time></trkpt><trkpt lat="37.5131322" lon="14.77177"><ele>78.0</ele><time>2026-04-06T14:47:23.527Z</time></trkpt><trkpt lat="37.5132034" lon="14.7713949"><ele>78.0</ele><time>2026-04-06T14:47:24.527Z</time></trkpt><trkpt lat="37.5132753" lon="14.7710215"><ele>78.0</ele><time>2026-04-06T14:47:25.527Z</time></trkpt><trkpt lat="37.5133475" lon="14.7706477"><ele>78.0</ele><time>2026-04-06T14:47:26.527Z</time></trkpt><trkpt lat="37.5134213" lon="14.7702759"><ele>78.0</ele><time>2026-04-06T14:47:27.527Z</time></trkpt><trkpt lat="37.5134985" lon="14.7699045"><ele>79.0</ele><time>2026-04-06T14:47:28.527Z</time></trkpt><trkpt lat="37.5135727" lon="14.7695313"><ele>80.0</ele><time>2026-04-06T14:47:29.527Z</time></trkpt><trkpt lat="37.5136451" lon="14.7691549"><ele>80.0</ele><time>2026-04-06T14:47:30.528Z</time></trkpt><trkpt lat="37.5137174" lon="14.7687794"><ele>80.0</ele><time>2026-04-06T14:47:31.527Z</time></trkpt><trkpt lat="37.5137892" lon="14.7684039"><ele>80.0</ele><time>2026-04-06T14:47:32.527Z</time></trkpt><trkpt lat="37.5138676" lon="14.768033"><ele>80.0</ele><time>2026-04-06T14:47:33.528Z</time></trkpt><trkpt lat="37.5139545" lon="14.7676643"><ele>80.0</ele><time>2026-04-06T14:47:34.527Z</time></trkpt><trkpt lat="37.5140499" lon="14.7672962"><ele>80.0</ele><time>2026-04-06T14:47:35.527Z</time></trkpt><trkpt lat="37.5141514" lon="14.7669343"><ele>79.5</ele><time>2026-04-06T14:47:36.527Z</time></trkpt><trkpt lat="37.5142578" lon="14.7665758"><ele>79.0</ele><time>2026-04-06T14:47:37.528Z</time></trkpt><trkpt lat="37.5143708" lon="14.7662156"><ele>79.0</ele><time>2026-04-06T14:47:38.528Z</time></trkpt><trkpt lat="37.514498" lon="14.7658661"><ele>79.0</ele><time>2026-04-06T14:47:39.527Z</time></trkpt><trkpt lat="37.5146316" lon="14.7655215"><ele>81.0</ele><time>2026-04-06T14:47:40.527Z</time></trkpt><trkpt lat="37.5147698" lon="14.7651803"><ele>83.0</ele><time>2026-04-06T14:47:41.527Z</time></trkpt><trkpt lat="37.5149199" lon="14.7648432"><ele>83.0</ele><time>2026-04-06T14:47:42.527Z</time></trkpt><trkpt lat="37.5150757" lon="14.7645099"><ele>83.0</ele><time>2026-04-06T14:47:43.527Z</time></trkpt><trkpt lat="37.5152349" lon="14.7641819"><ele>83.5</ele><time>2026-04-06T14:47:44.527Z</time></trkpt><trkpt lat="37.5154026" lon="14.7638588"><ele>84.0</ele><time>2026-04-06T14:47:45.528Z</time></trkpt><trkpt lat="37.5155754" lon="14.7635389"><ele>83.5</ele><time>2026-04-06T14:47:46.527Z</time></trkpt><trkpt lat="37.5157574" lon="14.7632342"><ele>83.0</ele><time>2026-04-06T14:47:47.527Z</time></trkpt><trkpt lat="37.5159484" lon="14.7629317"><ele>83.0</ele><time>2026-04-06T14:47:48.527Z</time></trkpt><trkpt lat="37.5161468" lon="14.7626361"><ele>83.0</ele><time>2026-04-06T14:47:49.527Z</time></trkpt><trkpt lat="37.5163482" lon="14.7623437"><ele>84.5</ele><time>2026-04-06T14:47:50.527Z</time></trkpt><trkpt lat="37.5165436" lon="14.7620543"><ele>86.0</ele><time>2026-04-06T14:47:51.528Z</time></trkpt><trkpt lat="37.5167467" lon="14.7617652"><ele>86.5</ele><time>2026-04-06T14:47:52.527Z</time></trkpt><trkpt lat="37.5169562" lon="14.7614843"><ele>87.0</ele><time>2026-04-06T14:47:53.527Z</time></trkpt><trkpt lat="37.5171638" lon="14.761202"><ele>86.0</ele><time>2026-04-06T14:47:54.527Z</time></trkpt><trkpt lat="37.5173753" lon="14.7609181"><ele>85.0</ele><time>2026-04-06T14:47:55.527Z</time></trkpt><trkpt lat="37.5175809" lon="14.760635"><ele>85.0</ele><time>2026-04-06T14:47:56.528Z</time></trkpt><trkpt lat="37.5177873" lon="14.7603488"><ele>85.0</ele><time>2026-04-06T14:47:57.527Z</time></trkpt><trkpt lat="37.5179956" lon="14.7600642"><ele>86.5</ele><time>2026-04-06T14:47:58.527Z</time></trkpt><trkpt lat="37.5182057" lon="14.7597789"><ele>88.0</ele><time>2026-04-06T14:47:59.527Z</time></trkpt><trkpt lat="37.5184166" lon="14.7594966"><ele>87.0</ele><time>2026-04-06T14:48:00.527Z</time></trkpt><trkpt lat="37.5186245" lon="14.759213"><ele>86.0</ele><time>2026-04-06T14:48:01.527Z</time></trkpt><trkpt lat="37.5188311" lon="14.758927"><ele>86.0</ele><time>2026-04-06T14:48:02.528Z</time></trkpt><trkpt lat="37.5190376" lon="14.7586453"><ele>86.0</ele><time>2026-04-06T14:48:03.527Z</time></trkpt><trkpt lat="37.5192453" lon="14.7583616"><ele>86.5</ele><time>2026-04-06T14:48:04.527Z</time></trkpt><trkpt lat="37.5194522" lon="14.7580758"><ele>87.0</ele><time>2026-04-06T14:48:05.527Z</time></trkpt><trkpt lat="37.5196648" lon="14.7577911"><ele>88.0</ele><time>2026-04-06T14:48:06.527Z</time></trkpt><trkpt lat="37.5198757" lon="14.7575063"><ele>89.0</ele><time>2026-04-06T14:48:07.528Z</time></trkpt><trkpt lat="37.5200841" lon="14.7572214"><ele>89.0</ele><time>2026-04-06T14:48:08.527Z</time></trkpt><trkpt lat="37.520292" lon="14.7569393"><ele>89.0</ele><time>2026-04-06T14:48:09.527Z</time></trkpt><trkpt lat="37.5205006" lon="14.7566587"><ele>88.0</ele><time>2026-04-06T14:48:10.527Z</time></trkpt><trkpt lat="37.5207089" lon="14.7563761"><ele>87.0</ele><time>2026-04-06T14:48:11.527Z</time></trkpt><trkpt lat="37.5209179" lon="14.7560945"><ele>86.5</ele><time>2026-04-06T14:48:12.527Z</time></trkpt><trkpt lat="37.5211253" lon="14.7558136"><ele>86.0</ele><time>2026-04-06T14:48:13.527Z</time></trkpt><trkpt lat="37.521332" lon="14.7555294"><ele>87.0</ele><time>2026-04-06T14:48:14.528Z</time></trkpt><trkpt lat="37.5215391" lon="14.7552472"><ele>88.0</ele><time>2026-04-06T14:48:15.527Z</time></trkpt><trkpt lat="37.5217457" lon="14.7549659"><ele>88.0</ele><time>2026-04-06T14:48:16.528Z</time></trkpt><trkpt lat="37.521954" lon="14.7546861"><ele>88.0</ele><time>2026-04-06T14:48:17.527Z</time></trkpt><trkpt lat="37.5221671" lon="14.7544021"><ele>89.0</ele><time>2026-04-06T14:48:18.527Z</time></trkpt><trkpt lat="37.5223761" lon="14.7541234"><ele>90.0</ele><time>2026-04-06T14:48:19.527Z</time></trkpt><trkpt lat="37.5225866" lon="14.7538464"><ele>90.0</ele><time>2026-04-06T14:48:20.527Z</time></trkpt><trkpt lat="37.5227988" lon="14.7535707"><ele>90.0</ele><time>2026-04-06T14:48:21.527Z</time></trkpt><trkpt lat="37.523009" lon="14.7532951"><ele>90.0</ele><time>2026-04-06T14:48:22.528Z</time></trkpt><trkpt lat="37.5232174" lon="14.7530187"><ele>90.0</ele><time>2026-04-06T14:48:23.527Z</time></trkpt><trkpt lat="37.5234258" lon="14.7527383"><ele>90.0</ele><time>2026-04-06T14:48:24.527Z</time></trkpt><trkpt lat="37.5236366" lon="14.7524586"><ele>90.0</ele><time>2026-04-06T14:48:25.527Z</time></trkpt><trkpt lat="37.5238483" lon="14.7521788"><ele>90.5</ele><time>2026-04-06T14:48:26.527Z</time></trkpt><trkpt lat="37.5240627" lon="14.7518969"><ele>91.0</ele><time>2026-04-06T14:48:27.527Z</time></trkpt><trkpt lat="37.524272" lon="14.7516159"><ele>91.0</ele><time>2026-04-06T14:48:28.528Z</time></trkpt><trkpt lat="37.5244816" lon="14.751333"><ele>91.0</ele><time>2026-04-06T14:48:29.527Z</time></trkpt><trkpt lat="37.5246911" lon="14.7510529"><ele>92.5</ele><time>2026-04-06T14:48:30.534Z</time></trkpt><trkpt lat="37.5249001" lon="14.7507708"><ele>94.0</ele><time>2026-04-06T14:48:31.534Z</time></trkpt><trkpt lat="37.5251088" lon="14.7504889"><ele>93.5</ele><time>2026-04-06T14:48:32.534Z</time></trkpt><trkpt lat="37.5253207" lon="14.7502053"><ele>93.0</ele><time>2026-04-06T14:48:33.534Z</time></trkpt><trkpt lat="37.5255274" lon="14.7499237"><ele>93.0</ele><time>2026-04-06T14:48:34.535Z</time></trkpt><trkpt lat="37.5257365" lon="14.7496443"><ele>93.0</ele><time>2026-04-06T14:48:35.534Z</time></trkpt><trkpt lat="37.5259458" lon="14.7493628"><ele>93.0</ele><time>2026-04-06T14:48:36.534Z</time></trkpt><trkpt lat="37.5261535" lon="14.7490774"><ele>93.0</ele><time>2026-04-06T14:48:37.535Z</time></trkpt><trkpt lat="37.5263612" lon="14.7487925"><ele>95.0</ele><time>2026-04-06T14:48:38.534Z</time></trkpt><trkpt lat="37.5265676" lon="14.7485086"><ele>97.0</ele><time>2026-04-06T14:48:39.534Z</time></trkpt><trkpt lat="37.5267785" lon="14.7482278"><ele>97.0</ele><time>2026-04-06T14:48:40.534Z</time></trkpt><trkpt lat="37.5269922" lon="14.7479474"><ele>97.0</ele><time>2026-04-06T14:48:41.535Z</time></trkpt><trkpt lat="37.5272066" lon="14.7476698"><ele>96.5</ele><time>2026-04-06T14:48:42.534Z</time></trkpt><trkpt lat="37.5274211" lon="14.7473944"><ele>96.0</ele><time>2026-04-06T14:48:43.535Z</time></trkpt><trkpt lat="37.527637" lon="14.7471231"><ele>97.0</ele><time>2026-04-06T14:48:44.534Z</time></trkpt><trkpt lat="37.5278575" lon="14.7468554"><ele>98.0</ele><time>2026-04-06T14:48:45.534Z</time></trkpt><trkpt lat="37.5280825" lon="14.7465937"><ele>98.5</ele><time>2026-04-06T14:48:46.534Z</time></trkpt><trkpt lat="37.5283089" lon="14.7463336"><ele>99.0</ele><time>2026-04-06T14:48:47.534Z</time></trkpt><trkpt lat="37.5285411" lon="14.7460789"><ele>99.5</ele><time>2026-04-06T14:48:48.534Z</time></trkpt><trkpt lat="37.5287718" lon="14.7458305"><ele>100.0</ele><time>2026-04-06T14:48:49.534Z</time></trkpt><trkpt lat="37.5290049" lon="14.7455882"><ele>100.0</ele><time>2026-04-06T14:48:50.535Z</time></trkpt><trkpt lat="37.5292391" lon="14.7453447"><ele>100.0</ele><time>2026-04-06T14:48:51.534Z</time></trkpt><trkpt lat="37.5294748" lon="14.7450989"><ele>101.0</ele><time>2026-04-06T14:48:52.535Z</time></trkpt><trkpt lat="37.5297158" lon="14.7448625"><ele>102.0</ele><time>2026-04-06T14:48:53.534Z</time></trkpt><trkpt lat="37.5299569" lon="14.7446244"><ele>102.0</ele><time>2026-04-06T14:48:54.534Z</time></trkpt><trkpt lat="37.5301983" lon="14.7443893"><ele>102.0</ele><time>2026-04-06T14:48:55.534Z</time></trkpt><trkpt lat="37.5304391" lon="14.7441494"><ele>104.0</ele><time>2026-04-06T14:48:56.535Z</time></trkpt><trkpt lat="37.53068" lon="14.7439133"><ele>106.0</ele><time>2026-04-06T14:48:57.534Z</time></trkpt><trkpt lat="37.530922" lon="14.7436755"><ele>106.0</ele><time>2026-04-06T14:48:58.534Z</time></trkpt><trkpt lat="37.5311656" lon="14.7434397"><ele>106.0</ele><time>2026-04-06T14:48:59.534Z</time></trkpt><trkpt lat="37.5314103" lon="14.7432078"><ele>108.5</ele><time>2026-04-06T14:49:00.534Z</time></trkpt><trkpt lat="37.5316573" lon="14.7429773"><ele>111.0</ele><time>2026-04-06T14:49:01.534Z</time></trkpt><trkpt lat="37.5318998" lon="14.7427437"><ele>113.0</ele><time>2026-04-06T14:49:02.534Z</time></trkpt><trkpt lat="37.5321425" lon="14.7425066"><ele>115.0</ele><time>2026-04-06T14:49:03.534Z</time></trkpt><trkpt lat="37.5323841" lon="14.7422702"><ele>115.0</ele><time>2026-04-06T14:49:04.535Z</time></trkpt><trkpt lat="37.5326237" lon="14.7420297"><ele>115.0</ele><time>2026-04-06T14:49:05.534Z</time></trkpt><trkpt lat="37.5328626" lon="14.7417818"><ele>116.5</ele><time>2026-04-06T14:49:06.534Z</time></trkpt><trkpt lat="37.5330988" lon="14.7415332"><ele>118.0</ele><time>2026-04-06T14:49:07.535Z</time></trkpt><trkpt lat="37.5333316" lon="14.7412871"><ele>116.5</ele><time>2026-04-06T14:49:08.534Z</time></trkpt><trkpt lat="37.5335659" lon="14.7410413"><ele>115.0</ele><time>2026-04-06T14:49:09.534Z</time></trkpt><trkpt lat="37.533799" lon="14.7407833"><ele>118.5</ele><time>2026-04-06T14:49:10.534Z</time></trkpt><trkpt lat="37.5340284" lon="14.7405242"><ele>122.0</ele><time>2026-04-06T14:49:11.534Z</time></trkpt><trkpt lat="37.5342512" lon="14.7402576"><ele>120.0</ele><time>2026-04-06T14:49:12.534Z</time></trkpt><trkpt lat="37.5344663" lon="14.7399769"><ele>118.0</ele><time>2026-04-06T14:49:13.534Z</time></trkpt><trkpt lat="37.534678" lon="14.7396914"><ele>118.0</ele><time>2026-04-06T14:49:14.534Z</time></trkpt><trkpt lat="37.5348822" lon="14.7394024"><ele>118.0</ele><time>2026-04-06T14:49:15.534Z</time></trkpt><trkpt lat="37.5350814" lon="14.7391047"><ele>117.0</ele><time>2026-04-06T14:49:16.534Z</time></trkpt><trkpt lat="37.5352753" lon="14.7388082"><ele>116.0</ele><time>2026-04-06T14:49:17.534Z</time></trkpt><trkpt lat="37.5354627" lon="14.7385113"><ele>116.0</ele><time>2026-04-06T14:49:18.534Z</time></trkpt><trkpt lat="37.535653" lon="14.7382099"><ele>116.0</ele><time>2026-04-06T14:49:19.534Z</time></trkpt><trkpt lat="37.5358469" lon="14.7379069"><ele>113.5</ele><time>2026-04-06T14:49:20.535Z</time></trkpt><trkpt lat="37.5360395" lon="14.7376025"><ele>111.0</ele><time>2026-04-06T14:49:21.534Z</time></trkpt><trkpt lat="37.5362337" lon="14.7373017"><ele>111.0</ele><time>2026-04-06T14:49:22.534Z</time></trkpt><trkpt lat="37.5364209" lon="14.7369974"><ele>111.0</ele><time>2026-04-06T14:49:23.535Z</time></trkpt><trkpt lat="37.5366129" lon="14.7366984"><ele>109.5</ele><time>2026-04-06T14:49:24.534Z</time></trkpt><trkpt lat="37.5368002" lon="14.7363986"><ele>108.0</ele><time>2026-04-06T14:49:25.534Z</time></trkpt><trkpt lat="37.5369866" lon="14.7360973"><ele>108.0</ele><time>2026-04-06T14:49:26.534Z</time></trkpt><trkpt lat="37.5371754" lon="14.7357955"><ele>108.0</ele><time>2026-04-06T14:49:27.535Z</time></trkpt><trkpt lat="37.5373627" lon="14.7354956"><ele>109.5</ele><time>2026-04-06T14:49:28.534Z</time></trkpt><trkpt lat="37.5375531" lon="14.7351925"><ele>111.0</ele><time>2026-04-06T14:49:29.534Z</time></trkpt><trkpt lat="37.5377463" lon="14.7348917"><ele>111.5</ele><time>2026-04-06T14:49:30.534Z</time></trkpt><trkpt lat="37.5379383" lon="14.7345908"><ele>112.0</ele><time>2026-04-06T14:49:31.534Z</time></trkpt><trkpt lat="37.538133" lon="14.734289"><ele>112.5</ele><time>2026-04-06T14:49:32.534Z</time></trkpt><trkpt lat="37.5383249" lon="14.7339869"><ele>113.0</ele><time>2026-04-06T14:49:33.535Z</time></trkpt><trkpt lat="37.5385156" lon="14.7336879"><ele>114.0</ele><time>2026-04-06T14:49:34.534Z</time></trkpt><trkpt lat="37.5387061" lon="14.7333879"><ele>115.0</ele><time>2026-04-06T14:49:35.534Z</time></trkpt><trkpt lat="37.5388986" lon="14.7330885"><ele>115.5</ele><time>2026-04-06T14:49:36.535Z</time></trkpt><trkpt lat="37.5390942" lon="14.7327946"><ele>116.0</ele><time>2026-04-06T14:49:37.534Z</time></trkpt><trkpt lat="37.5392881" lon="14.7324992"><ele>115.0</ele><time>2026-04-06T14:49:38.534Z</time></trkpt><trkpt lat="37.5394855" lon="14.7322039"><ele>114.0</ele><time>2026-04-06T14:49:39.535Z</time></trkpt><trkpt lat="37.5396786" lon="14.7319049"><ele>113.5</ele><time>2026-04-06T14:49:40.534Z</time></trkpt><trkpt lat="37.5398725" lon="14.7316043"><ele>113.0</ele><time>2026-04-06T14:49:41.535Z</time></trkpt><trkpt lat="37.5400686" lon="14.7313062"><ele>112.0</ele><time>2026-04-06T14:49:42.534Z</time></trkpt><trkpt lat="37.5402642" lon="14.73101"><ele>111.0</ele><time>2026-04-06T14:49:43.535Z</time></trkpt><trkpt lat="37.5404584" lon="14.7307154"><ele>111.0</ele><time>2026-04-06T14:49:44.534Z</time></trkpt><trkpt lat="37.540657" lon="14.7304221"><ele>111.0</ele><time>2026-04-06T14:49:45.534Z</time></trkpt><trkpt lat="37.5408618" lon="14.7301325"><ele>112.5</ele><time>2026-04-06T14:49:46.535Z</time></trkpt><trkpt lat="37.5410705" lon="14.7298507"><ele>114.0</ele><time>2026-04-06T14:49:47.534Z</time></trkpt><trkpt lat="37.5412809" lon="14.7295718"><ele>115.5</ele><time>2026-04-06T14:49:48.535Z</time></trkpt><trkpt lat="37.5414935" lon="14.7292926"><ele>117.0</ele><time>2026-04-06T14:49:49.535Z</time></trkpt><trkpt lat="37.5417125" lon="14.7290229"><ele>117.0</ele><time>2026-04-06T14:49:50.535Z</time></trkpt><trkpt lat="37.5419397" lon="14.728762"><ele>117.0</ele><time>2026-04-06T14:49:51.534Z</time></trkpt><trkpt lat="37.5421677" lon="14.7285054"><ele>116.5</ele><time>2026-04-06T14:49:52.535Z</time></trkpt><trkpt lat="37.5423957" lon="14.7282524"><ele>116.0</ele><time>2026-04-06T14:49:53.535Z</time></trkpt><trkpt lat="37.5426285" lon="14.7280001"><ele>116.0</ele><time>2026-04-06T14:49:54.534Z</time></trkpt><trkpt lat="37.542862" lon="14.7277542"><ele>116.0</ele><time>2026-04-06T14:49:55.534Z</time></trkpt><trkpt lat="37.5430945" lon="14.7275089"><ele>115.0</ele><time>2026-04-06T14:49:56.535Z</time></trkpt><trkpt lat="37.5433319" lon="14.7272616"><ele>114.0</ele><time>2026-04-06T14:49:57.534Z</time></trkpt><trkpt lat="37.5435671" lon="14.7270143"><ele>114.0</ele><time>2026-04-06T14:49:58.535Z</time></trkpt><trkpt lat="37.5438008" lon="14.7267658"><ele>114.0</ele><time>2026-04-06T14:49:59.534Z</time></trkpt><trkpt lat="37.5440328" lon="14.7265185"><ele>114.0</ele><time>2026-04-06T14:50:00.534Z</time></trkpt><trkpt lat="37.5442675" lon="14.7262669"><ele>114.0</ele><time>2026-04-06T14:50:01.535Z</time></trkpt><trkpt lat="37.5445016" lon="14.72602"><ele>114.5</ele><time>2026-04-06T14:50:02.534Z</time></trkpt><trkpt lat="37.5447369" lon="14.7257707"><ele>115.0</ele><time>2026-04-06T14:50:03.534Z</time></trkpt><trkpt lat="37.5449709" lon="14.7255178"><ele>115.0</ele><time>2026-04-06T14:50:04.534Z</time></trkpt><trkpt lat="37.5452042" lon="14.7252622"><ele>115.0</ele><time>2026-04-06T14:50:05.534Z</time></trkpt><trkpt lat="37.5454369" lon="14.7250074"><ele>116.5</ele><time>2026-04-06T14:50:06.534Z</time></trkpt><trkpt lat="37.5456671" lon="14.7247507"><ele>118.0</ele><time>2026-04-06T14:50:07.534Z</time></trkpt><trkpt lat="37.5458989" lon="14.7244978"><ele>118.0</ele><time>2026-04-06T14:50:08.534Z</time></trkpt><trkpt lat="37.5461334" lon="14.7242478"><ele>118.0</ele><time>2026-04-06T14:50:09.534Z</time></trkpt><trkpt lat="37.5463669" lon="14.7239982"><ele>118.0</ele><time>2026-04-06T14:50:10.534Z</time></trkpt><trkpt lat="37.5466011" lon="14.7237501"><ele>118.0</ele><time>2026-04-06T14:50:11.534Z</time></trkpt><trkpt lat="37.5468358" lon="14.7235009"><ele>119.5</ele><time>2026-04-06T14:50:12.534Z</time></trkpt><trkpt lat="37.5470696" lon="14.7232502"><ele>121.0</ele><time>2026-04-06T14:50:13.534Z</time></trkpt><trkpt lat="37.5473039" lon="14.7229999"><ele>121.0</ele><time>2026-04-06T14:50:14.534Z</time></trkpt><trkpt lat="37.5475387" lon="14.7227484"><ele>121.0</ele><time>2026-04-06T14:50:15.534Z</time></trkpt><trkpt lat="37.5477735" lon="14.7224951"><ele>122.0</ele><time>2026-04-06T14:50:16.534Z</time></trkpt><trkpt lat="37.54801" lon="14.7222443"><ele>123.0</ele><time>2026-04-06T14:50:17.534Z</time></trkpt><trkpt lat="37.5482474" lon="14.7219969"><ele>122.0</ele><time>2026-04-06T14:50:18.534Z</time></trkpt><trkpt lat="37.5484825" lon="14.7217471"><ele>121.0</ele><time>2026-04-06T14:50:19.534Z</time></trkpt><trkpt lat="37.5487178" lon="14.7214996"><ele>120.0</ele><time>2026-04-06T14:50:20.534Z</time></trkpt><trkpt lat="37.5489545" lon="14.7212532"><ele>119.0</ele><time>2026-04-06T14:50:21.534Z</time></trkpt><trkpt lat="37.54919" lon="14.7210066"><ele>118.5</ele><time>2026-04-06T14:50:22.534Z</time></trkpt><trkpt lat="37.5494208" lon="14.7207576"><ele>118.0</ele><time>2026-04-06T14:50:23.534Z</time></trkpt><trkpt lat="37.5496527" lon="14.7205044"><ele>118.0</ele><time>2026-04-06T14:50:24.534Z</time></trkpt><trkpt lat="37.5498826" lon="14.7202495"><ele>118.0</ele><time>2026-04-06T14:50:25.534Z</time></trkpt><trkpt lat="37.5501065" lon="14.7199896"><ele>118.0</ele><time>2026-04-06T14:50:26.534Z</time></trkpt><trkpt lat="37.5503228" lon="14.7197199"><ele>118.0</ele><time>2026-04-06T14:50:27.534Z</time></trkpt><trkpt lat="37.5505313" lon="14.7194398"><ele>119.5</ele><time>2026-04-06T14:50:28.534Z</time></trkpt><trkpt lat="37.5507289" lon="14.7191483"><ele>121.0</ele><time>2026-04-06T14:50:29.534Z</time></trkpt><trkpt lat="37.5509215" lon="14.7188479"><ele>121.0</ele><time>2026-04-06T14:50:30.534Z</time></trkpt><trkpt lat="37.5511082" lon="14.7185372"><ele>121.0</ele><time>2026-04-06T14:50:31.534Z</time></trkpt><trkpt lat="37.5512814" lon="14.7182162"><ele>120.5</ele><time>2026-04-06T14:50:32.534Z</time></trkpt><trkpt lat="37.5514375" lon="14.7178893"><ele>120.0</ele><time>2026-04-06T14:50:33.534Z</time></trkpt><trkpt lat="37.5515828" lon="14.7175516"><ele>121.0</ele><time>2026-04-06T14:50:34.535Z</time></trkpt><trkpt lat="37.5517192" lon="14.7172067"><ele>122.0</ele><time>2026-04-06T14:50:35.534Z</time></trkpt><trkpt lat="37.5518474" lon="14.7168544"><ele>122.0</ele><time>2026-04-06T14:50:36.534Z</time></trkpt><trkpt lat="37.5519612" lon="14.7164951"><ele>122.0</ele><time>2026-04-06T14:50:37.535Z</time></trkpt><trkpt lat="37.5520564" lon="14.7161326"><ele>123.0</ele><time>2026-04-06T14:50:38.534Z</time></trkpt><trkpt lat="37.5521402" lon="14.7157664"><ele>124.0</ele><time>2026-04-06T14:50:39.534Z</time></trkpt><trkpt lat="37.5522136" lon="14.7153939"><ele>124.5</ele><time>2026-04-06T14:50:40.534Z</time></trkpt><trkpt lat="37.5522743" lon="14.7150174"><ele>125.0</ele><time>2026-04-06T14:50:41.534Z</time></trkpt><trkpt lat="37.552321" lon="14.7146372"><ele>124.0</ele><time>2026-04-06T14:50:42.534Z</time></trkpt><trkpt lat="37.5523552" lon="14.7142575"><ele>123.0</ele><time>2026-04-06T14:50:43.534Z</time></trkpt><trkpt lat="37.5523754" lon="14.713874"><ele>123.0</ele><time>2026-04-06T14:50:44.534Z</time></trkpt><trkpt lat="37.5523891" lon="14.7134933"><ele>123.0</ele><time>2026-04-06T14:50:45.534Z</time></trkpt><trkpt lat="37.5524016" lon="14.7131089"><ele>123.0</ele><time>2026-04-06T14:50:46.534Z</time></trkpt><trkpt lat="37.5524129" lon="14.712724"><ele>123.0</ele><time>2026-04-06T14:50:47.534Z</time></trkpt><trkpt lat="37.5524242" lon="14.7123355"><ele>123.0</ele><time>2026-04-06T14:50:48.534Z</time></trkpt><trkpt lat="37.5524308" lon="14.7119517"><ele>123.0</ele><time>2026-04-06T14:50:49.534Z</time></trkpt><trkpt lat="37.5524372" lon="14.7115646"><ele>122.5</ele><time>2026-04-06T14:50:50.535Z</time></trkpt><trkpt lat="37.5524429" lon="14.7111779"><ele>122.0</ele><time>2026-04-06T14:50:51.534Z</time></trkpt><trkpt lat="37.5524511" lon="14.7107929"><ele>123.0</ele><time>2026-04-06T14:50:52.534Z</time></trkpt><trkpt lat="37.5524588" lon="14.7104064"><ele>124.0</ele><time>2026-04-06T14:50:53.534Z</time></trkpt><trkpt lat="37.5524666" lon="14.7100233"><ele>124.0</ele><time>2026-04-06T14:50:54.534Z</time></trkpt><trkpt lat="37.5524741" lon="14.7096387"><ele>124.0</ele><time>2026-04-06T14:50:55.534Z</time></trkpt><trkpt lat="37.5524809" lon="14.7092559"><ele>124.0</ele><time>2026-04-06T14:50:56.534Z</time></trkpt><trkpt lat="37.552488" lon="14.7088711"><ele>124.0</ele><time>2026-04-06T14:50:57.535Z</time></trkpt><trkpt lat="37.5525002" lon="14.7084893"><ele>124.5</ele><time>2026-04-06T14:50:58.534Z</time></trkpt><trkpt lat="37.5525142" lon="14.7081036"><ele>125.0</ele><time>2026-04-06T14:50:59.535Z</time></trkpt><trkpt lat="37.5525312" lon="14.7077196"><ele>125.0</ele><time>2026-04-06T14:51:00.535Z</time></trkpt><trkpt lat="37.5525497" lon="14.7073324"><ele>125.0</ele><time>2026-04-06T14:51:01.535Z</time></trkpt><trkpt lat="37.552574" lon="14.7069492"><ele>124.5</ele><time>2026-04-06T14:51:02.534Z</time></trkpt><trkpt lat="37.5526" lon="14.7065613"><ele>124.0</ele><time>2026-04-06T14:51:03.535Z</time></trkpt><trkpt lat="37.5526287" lon="14.7061758"><ele>123.5</ele><time>2026-04-06T14:51:04.534Z</time></trkpt><trkpt lat="37.5526621" lon="14.7057904"><ele>123.0</ele><time>2026-04-06T14:51:05.534Z</time></trkpt><trkpt lat="37.5527005" lon="14.7054061"><ele>122.0</ele><time>2026-04-06T14:51:06.534Z</time></trkpt><trkpt lat="37.5527408" lon="14.705024"><ele>121.0</ele><time>2026-04-06T14:51:07.534Z</time></trkpt><trkpt lat="37.5527871" lon="14.7046414"><ele>121.5</ele><time>2026-04-06T14:51:08.534Z</time></trkpt><trkpt lat="37.5528375" lon="14.7042626"><ele>122.0</ele><time>2026-04-06T14:51:09.534Z</time></trkpt><trkpt lat="37.5528929" lon="14.7038832"><ele>121.5</ele><time>2026-04-06T14:51:10.535Z</time></trkpt><trkpt lat="37.5529566" lon="14.7035061"><ele>121.0</ele><time>2026-04-06T14:51:11.534Z</time></trkpt><trkpt lat="37.5530219" lon="14.7031315"><ele>121.0</ele><time>2026-04-06T14:51:12.534Z</time></trkpt><trkpt lat="37.5530905" lon="14.7027585"><ele>121.0</ele><time>2026-04-06T14:51:13.534Z</time></trkpt><trkpt lat="37.5531612" lon="14.7023876"><ele>120.0</ele><time>2026-04-06T14:51:14.535Z</time></trkpt><trkpt lat="37.5532328" lon="14.7020152"><ele>119.0</ele><time>2026-04-06T14:51:15.534Z</time></trkpt><trkpt lat="37.5533116" lon="14.701642"><ele>117.5</ele><time>2026-04-06T14:51:16.534Z</time></trkpt><trkpt lat="37.5533947" lon="14.7012694"><ele>116.0</ele><time>2026-04-06T14:51:17.535Z</time></trkpt><trkpt lat="37.5534818" lon="14.7009014"><ele>115.0</ele><time>2026-04-06T14:51:18.534Z</time></trkpt><trkpt lat="37.553573" lon="14.7005355"><ele>114.0</ele><time>2026-04-06T14:51:19.534Z</time></trkpt><trkpt lat="37.5536704" lon="14.7001678"><ele>114.5</ele><time>2026-04-06T14:51:20.534Z</time></trkpt><trkpt lat="37.553773" lon="14.6998052"><ele>115.0</ele><time>2026-04-06T14:51:21.534Z</time></trkpt><trkpt lat="37.553878" lon="14.6994427"><ele>115.0</ele><time>2026-04-06T14:51:22.535Z</time></trkpt><trkpt lat="37.5539845" lon="14.6990829"><ele>115.0</ele><time>2026-04-06T14:51:23.534Z</time></trkpt><trkpt lat="37.5540925" lon="14.6987345"><ele>116.0</ele><time>2026-04-06T14:51:24.534Z</time></trkpt><trkpt lat="37.5542003" lon="14.6984095"><ele>117.0</ele><time>2026-04-06T14:51:25.534Z</time></trkpt><trkpt lat="37.5543029" lon="14.6981056"><ele>117.0</ele><time>2026-04-06T14:51:26.534Z</time></trkpt><trkpt lat="37.5544002" lon="14.6978191"><ele>117.0</ele><time>2026-04-06T14:51:27.534Z</time></trkpt><trkpt lat="37.5544942" lon="14.6975544"><ele>116.0</ele><time>2026-04-06T14:51:28.534Z</time></trkpt><trkpt lat="37.5545852" lon="14.6973023"><ele>115.0</ele><time>2026-04-06T14:51:29.534Z</time></trkpt><trkpt lat="37.5546741" lon="14.6970672"><ele>114.0</ele><time>2026-04-06T14:51:30.534Z</time></trkpt><trkpt lat="37.5547639" lon="14.6968306"><ele>114.0</ele><time>2026-04-06T14:51:31.534Z</time></trkpt><trkpt lat="37.5548553" lon="14.6965896"><ele>114.0</ele><time>2026-04-06T14:51:32.534Z</time></trkpt><trkpt lat="37.5549514" lon="14.6963493"><ele>114.0</ele><time>2026-04-06T14:51:33.535Z</time></trkpt><trkpt lat="37.5550505" lon="14.6961094"><ele>115.0</ele><time>2026-04-06T14:51:34.534Z</time></trkpt><trkpt lat="37.5551545" lon="14.6958729"><ele>116.0</ele><time>2026-04-06T14:51:35.534Z</time></trkpt><trkpt lat="37.5552612" lon="14.695636"><ele>117.0</ele><time>2026-04-06T14:51:36.535Z</time></trkpt><trkpt lat="37.5553682" lon="14.6953961"><ele>117.33333333333334</ele><time>2026-04-06T14:51:37.534Z</time></trkpt><trkpt lat="37.5554773" lon="14.6951505"><ele>117.66666666666667</ele><time>2026-04-06T14:51:38.534Z</time></trkpt><trkpt lat="37.5555845" lon="14.6949076"><ele>118.0</ele><time>2026-04-06T14:51:39.534Z</time></trkpt><trkpt lat="37.5556857" lon="14.6946653"><ele>118.0</ele><time>2026-04-06T14:51:40.534Z</time></trkpt><trkpt lat="37.5557861" lon="14.6944321"><ele>118.0</ele><time>2026-04-06T14:51:41.534Z</time></trkpt><trkpt lat="37.5558867" lon="14.6942053"><ele>118.0</ele><time>2026-04-06T14:51:42.535Z</time></trkpt><trkpt lat="37.5559905" lon="14.6939743"><ele>119.33333333333334</ele><time>2026-04-06T14:51:43.534Z</time></trkpt><trkpt lat="37.5560965" lon="14.6937362"><ele>120.66666666666666</ele><time>2026-04-06T14:51:44.534Z</time></trkpt><trkpt lat="37.5562061" lon="14.6934995"><ele>122.0</ele><time>2026-04-06T14:51:45.535Z</time></trkpt><trkpt lat="37.5563163" lon="14.6932604"><ele>122.33333333333333</ele><time>2026-04-06T14:51:46.534Z</time></trkpt><trkpt lat="37.5564258" lon="14.6930203"><ele>122.66666666666666</ele><time>2026-04-06T14:51:47.534Z</time></trkpt><trkpt lat="37.5565347" lon="14.6927788"><ele>123.0</ele><time>2026-04-06T14:51:48.534Z</time></trkpt><trkpt lat="37.5566452" lon="14.6925387"><ele>123.66666666666666</ele><time>2026-04-06T14:51:49.534Z</time></trkpt><trkpt lat="37.5567552" lon="14.6922958"><ele>124.33333333333333</ele><time>2026-04-06T14:51:50.534Z</time></trkpt><trkpt lat="37.5568681" lon="14.6920496"><ele>125.0</ele><time>2026-04-06T14:51:51.535Z</time></trkpt><trkpt lat="37.5569784" lon="14.6918008"><ele>126.33333333333333</ele><time>2026-04-06T14:51:52.534Z</time></trkpt><trkpt lat="37.5570902" lon="14.6915588"><ele>127.66666666666666</ele><time>2026-04-06T14:51:53.535Z</time></trkpt><trkpt lat="37.5572077" lon="14.6913147"><ele>129.0</ele><time>2026-04-06T14:51:54.534Z</time></trkpt><trkpt lat="37.5573222" lon="14.6910625"><ele>129.0</ele><time>2026-04-06T14:51:55.535Z</time></trkpt><trkpt lat="37.5574338" lon="14.6908121"><ele>129.0</ele><time>2026-04-06T14:51:56.534Z</time></trkpt><trkpt lat="37.5575463" lon="14.6905563"><ele>129.0</ele><time>2026-04-06T14:51:57.535Z</time></trkpt><trkpt lat="37.557665" lon="14.6902922"><ele>129.0</ele><time>2026-04-06T14:51:58.535Z</time></trkpt><trkpt lat="37.5577844" lon="14.6900257"><ele>130.0</ele><time>2026-04-06T14:51:59.534Z</time></trkpt><trkpt lat="37.5579063" lon="14.6897518"><ele>131.0</ele><time>2026-04-06T14:52:00.534Z</time></trkpt><trkpt lat="37.5580317" lon="14.6894706"><ele>131.0</ele><time>2026-04-06T14:52:01.534Z</time></trkpt><trkpt lat="37.55816" lon="14.6891863"><ele>131.0</ele><time>2026-04-06T14:52:02.534Z</time></trkpt><trkpt lat="37.5582917" lon="14.6888919"><ele>131.0</ele><time>2026-04-06T14:52:03.534Z</time></trkpt><trkpt lat="37.5584263" lon="14.6885874"><ele>131.0</ele><time>2026-04-06T14:52:04.535Z</time></trkpt><trkpt lat="37.5585634" lon="14.6882685"><ele>131.0</ele><time>2026-04-06T14:52:05.535Z</time></trkpt><trkpt lat="37.5587101" lon="14.6879484"><ele>131.0</ele><time>2026-04-06T14:52:06.534Z</time></trkpt><trkpt lat="37.5588604" lon="14.6876236"><ele>131.0</ele><time>2026-04-06T14:52:07.535Z</time></trkpt><trkpt lat="37.5590107" lon="14.6872971"><ele>131.0</ele><time>2026-04-06T14:52:08.535Z</time></trkpt><trkpt lat="37.5591592" lon="14.6869675"><ele>130.5</ele><time>2026-04-06T14:52:09.534Z</time></trkpt><trkpt lat="37.5593035" lon="14.6866342"><ele>130.0</ele><time>2026-04-06T14:52:10.534Z</time></trkpt><trkpt lat="37.5594414" lon="14.6862965"><ele>131.0</ele><time>2026-04-06T14:52:11.534Z</time></trkpt><trkpt lat="37.5595775" lon="14.6859586"><ele>132.0</ele><time>2026-04-06T14:52:12.535Z</time></trkpt><trkpt lat="37.5597066" lon="14.685614"><ele>132.0</ele><time>2026-04-06T14:52:13.534Z</time></trkpt><trkpt lat="37.5598278" lon="14.6852641"><ele>132.0</ele><time>2026-04-06T14:52:14.534Z</time></trkpt><trkpt lat="37.5599495" lon="14.6849123"><ele>132.0</ele><time>2026-04-06T14:52:15.535Z</time></trkpt><trkpt lat="37.5600677" lon="14.6845581"><ele>132.0</ele><time>2026-04-06T14:52:16.534Z</time></trkpt><trkpt lat="37.5601819" lon="14.6842037"><ele>131.5</ele><time>2026-04-06T14:52:17.534Z</time></trkpt><trkpt lat="37.5602901" lon="14.6838438"><ele>131.0</ele><time>2026-04-06T14:52:18.534Z</time></trkpt><trkpt lat="37.5603931" lon="14.6834818"><ele>130.5</ele><time>2026-04-06T14:52:19.534Z</time></trkpt><trkpt lat="37.5604874" lon="14.6831122"><ele>130.0</ele><time>2026-04-06T14:52:20.534Z</time></trkpt><trkpt lat="37.5605699" lon="14.6827411"><ele>130.0</ele><time>2026-04-06T14:52:21.534Z</time></trkpt><trkpt lat="37.5606498" lon="14.6823724"><ele>130.0</ele><time>2026-04-06T14:52:22.534Z</time></trkpt><trkpt lat="37.5607205" lon="14.6819986"><ele>128.5</ele><time>2026-04-06T14:52:23.534Z</time></trkpt><trkpt lat="37.5607907" lon="14.6816222"><ele>127.0</ele><time>2026-04-06T14:52:24.534Z</time></trkpt><trkpt lat="37.5608583" lon="14.6812449"><ele>128.0</ele><time>2026-04-06T14:52:25.534Z</time></trkpt><trkpt lat="37.5609181" lon="14.680866"><ele>129.0</ele><time>2026-04-06T14:52:26.534Z</time></trkpt><trkpt lat="37.5609766" lon="14.6804896"><ele>129.0</ele><time>2026-04-06T14:52:27.534Z</time></trkpt><trkpt lat="37.5610289" lon="14.6801114"><ele>129.0</ele><time>2026-04-06T14:52:28.534Z</time></trkpt><trkpt lat="37.5610775" lon="14.6797298"><ele>129.5</ele><time>2026-04-06T14:52:29.534Z</time></trkpt><trkpt lat="37.5611234" lon="14.6793465"><ele>130.0</ele><time>2026-04-06T14:52:30.534Z</time></trkpt><trkpt lat="37.56117" lon="14.6789674"><ele>130.5</ele><time>2026-04-06T14:52:31.534Z</time></trkpt><trkpt lat="37.5612196" lon="14.6785871"><ele>131.0</ele><time>2026-04-06T14:52:32.534Z</time></trkpt><trkpt lat="37.5612722" lon="14.6782069"><ele>131.0</ele><time>2026-04-06T14:52:33.534Z</time></trkpt><trkpt lat="37.5613255" lon="14.6778276"><ele>131.0</ele><time>2026-04-06T14:52:34.534Z</time></trkpt><trkpt lat="37.5613832" lon="14.6774493"><ele>131.5</ele><time>2026-04-06T14:52:35.534Z</time></trkpt><trkpt lat="37.5614431" lon="14.6770753"><ele>132.0</ele><time>2026-04-06T14:52:36.534Z</time></trkpt><trkpt lat="37.5615084" lon="14.6766996"><ele>132.0</ele><time>2026-04-06T14:52:37.534Z</time></trkpt><trkpt lat="37.5615791" lon="14.6763266"><ele>132.0</ele><time>2026-04-06T14:52:38.535Z</time></trkpt><trkpt lat="37.561655" lon="14.6759553"><ele>132.5</ele><time>2026-04-06T14:52:39.534Z</time></trkpt><trkpt lat="37.5617419" lon="14.6755846"><ele>133.0</ele><time>2026-04-06T14:52:40.534Z</time></trkpt><trkpt lat="37.5618317" lon="14.6752171"><ele>133.0</ele><time>2026-04-06T14:52:41.535Z</time></trkpt><trkpt lat="37.5619301" lon="14.674848"><ele>133.0</ele><time>2026-04-06T14:52:42.534Z</time></trkpt><trkpt lat="37.5620364" lon="14.6744892"><ele>134.5</ele><time>2026-04-06T14:52:43.534Z</time></trkpt><trkpt lat="37.5621514" lon="14.6741376"><ele>136.0</ele><time>2026-04-06T14:52:44.535Z</time></trkpt><trkpt lat="37.5622762" lon="14.6737852"><ele>137.0</ele><time>2026-04-06T14:52:45.535Z</time></trkpt><trkpt lat="37.562411" lon="14.6734409"><ele>138.0</ele><time>2026-04-06T14:52:46.534Z</time></trkpt><trkpt lat="37.562553" lon="14.6731012"><ele>138.5</ele><time>2026-04-06T14:52:47.534Z</time></trkpt><trkpt lat="37.5627009" lon="14.6727624"><ele>139.0</ele><time>2026-04-06T14:52:48.535Z</time></trkpt><trkpt lat="37.5628526" lon="14.672424"><ele>138.0</ele><time>2026-04-06T14:52:49.534Z</time></trkpt><trkpt lat="37.5630077" lon="14.6720892"><ele>137.0</ele><time>2026-04-06T14:52:50.535Z</time></trkpt><trkpt lat="37.563167" lon="14.6717608"><ele>137.0</ele><time>2026-04-06T14:52:51.534Z</time></trkpt><trkpt lat="37.5633334" lon="14.6714392"><ele>137.0</ele><time>2026-04-06T14:52:52.534Z</time></trkpt><trkpt lat="37.5635074" lon="14.6711221"><ele>138.0</ele><time>2026-04-06T14:52:53.534Z</time></trkpt><trkpt lat="37.5636851" lon="14.6708049"><ele>139.0</ele><time>2026-04-06T14:52:54.535Z</time></trkpt><trkpt lat="37.5638649" lon="14.670491"><ele>140.0</ele><time>2026-04-06T14:52:55.535Z</time></trkpt><trkpt lat="37.5640466" lon="14.6701752"><ele>141.0</ele><time>2026-04-06T14:52:56.535Z</time></trkpt><trkpt lat="37.56423" lon="14.669866"><ele>141.0</ele><time>2026-04-06T14:52:57.534Z</time></trkpt><trkpt lat="37.5644161" lon="14.6695564"><ele>141.0</ele><time>2026-04-06T14:52:58.534Z</time></trkpt><trkpt lat="37.5646009" lon="14.6692447"><ele>141.0</ele><time>2026-04-06T14:52:59.534Z</time></trkpt><trkpt lat="37.5647856" lon="14.668937"><ele>141.0</ele><time>2026-04-06T14:53:00.534Z</time></trkpt><trkpt lat="37.5649685" lon="14.6686295"><ele>141.5</ele><time>2026-04-06T14:53:01.534Z</time></trkpt><trkpt lat="37.5651537" lon="14.6683228"><ele>142.0</ele><time>2026-04-06T14:53:02.534Z</time></trkpt><trkpt lat="37.5653363" lon="14.6680107"><ele>141.0</ele><time>2026-04-06T14:53:03.534Z</time></trkpt><trkpt lat="37.5655196" lon="14.6677037"><ele>140.0</ele><time>2026-04-06T14:53:04.535Z</time></trkpt><trkpt lat="37.5657055" lon="14.6673913"><ele>140.0</ele><time>2026-04-06T14:53:05.534Z</time></trkpt><trkpt lat="37.5658902" lon="14.6670803"><ele>140.0</ele><time>2026-04-06T14:53:06.534Z</time></trkpt><trkpt lat="37.5660715" lon="14.6667709"><ele>140.0</ele><time>2026-04-06T14:53:07.534Z</time></trkpt><trkpt lat="37.5662521" lon="14.6664579"><ele>140.0</ele><time>2026-04-06T14:53:08.535Z</time></trkpt><trkpt lat="37.5664255" lon="14.6661422"><ele>141.0</ele><time>2026-04-06T14:53:09.534Z</time></trkpt><trkpt lat="37.5665986" lon="14.6658225"><ele>142.0</ele><time>2026-04-06T14:53:10.534Z</time></trkpt><trkpt lat="37.5667627" lon="14.6655004"><ele>142.0</ele><time>2026-04-06T14:53:11.534Z</time></trkpt><trkpt lat="37.5669246" lon="14.6651736"><ele>142.0</ele><time>2026-04-06T14:53:12.535Z</time></trkpt><trkpt lat="37.5670816" lon="14.6648425"><ele>140.5</ele><time>2026-04-06T14:53:13.534Z</time></trkpt><trkpt lat="37.5672347" lon="14.6645054"><ele>139.0</ele><time>2026-04-06T14:53:14.534Z</time></trkpt><trkpt lat="37.567386" lon="14.6641699"><ele>138.5</ele><time>2026-04-06T14:53:15.535Z</time></trkpt><trkpt lat="37.567532" lon="14.6638294"><ele>138.0</ele><time>2026-04-06T14:53:16.534Z</time></trkpt><trkpt lat="37.5676802" lon="14.6634897"><ele>138.0</ele><time>2026-04-06T14:53:17.534Z</time></trkpt><trkpt lat="37.5678221" lon="14.6631477"><ele>138.0</ele><time>2026-04-06T14:53:18.534Z</time></trkpt><trkpt lat="37.5679589" lon="14.6628056"><ele>138.0</ele><time>2026-04-06T14:53:19.534Z</time></trkpt><trkpt lat="37.5680908" lon="14.6624615"><ele>138.0</ele><time>2026-04-06T14:53:20.534Z</time></trkpt><trkpt lat="37.5682219" lon="14.6621085"><ele>138.5</ele><time>2026-04-06T14:53:21.534Z</time></trkpt><trkpt lat="37.5683508" lon="14.6617549"><ele>139.0</ele><time>2026-04-06T14:53:22.534Z</time></trkpt><trkpt lat="37.5684726" lon="14.6614051"><ele>139.0</ele><time>2026-04-06T14:53:23.535Z</time></trkpt><trkpt lat="37.56859" lon="14.6610522"><ele>139.0</ele><time>2026-04-06T14:53:24.535Z</time></trkpt><trkpt lat="37.5687059" lon="14.6606946"><ele>140.0</ele><time>2026-04-06T14:53:25.534Z</time></trkpt><trkpt lat="37.56882" lon="14.6603371"><ele>141.0</ele><time>2026-04-06T14:53:26.535Z</time></trkpt><trkpt lat="37.5689281" lon="14.6599791"><ele>141.0</ele><time>2026-04-06T14:53:27.534Z</time></trkpt><trkpt lat="37.5690322" lon="14.6596161"><ele>141.0</ele><time>2026-04-06T14:53:28.534Z</time></trkpt><trkpt lat="37.5691317" lon="14.6592476"><ele>141.0</ele><time>2026-04-06T14:53:29.534Z</time></trkpt><trkpt lat="37.5692259" lon="14.6588799"><ele>141.0</ele><time>2026-04-06T14:53:30.535Z</time></trkpt><trkpt lat="37.5693149" lon="14.6585107"><ele>141.0</ele><time>2026-04-06T14:53:31.534Z</time></trkpt><trkpt lat="37.5694002" lon="14.6581424"><ele>141.0</ele><time>2026-04-06T14:53:32.534Z</time></trkpt><trkpt lat="37.5694804" lon="14.6577713"><ele>141.0</ele><time>2026-04-06T14:53:33.535Z</time></trkpt><trkpt lat="37.5695611" lon="14.6573984"><ele>141.0</ele><time>2026-04-06T14:53:34.535Z</time></trkpt><trkpt lat="37.569642" lon="14.6570269"><ele>141.0</ele><time>2026-04-06T14:53:35.534Z</time></trkpt><trkpt lat="37.5697221" lon="14.6566572"><ele>141.0</ele><time>2026-04-06T14:53:36.534Z</time></trkpt><trkpt lat="37.5697953" lon="14.6562845"><ele>141.5</ele><time>2026-04-06T14:53:37.534Z</time></trkpt><trkpt lat="37.5698653" lon="14.6559098"><ele>142.0</ele><time>2026-04-06T14:53:38.534Z</time></trkpt><trkpt lat="37.5699283" lon="14.6555324"><ele>142.5</ele><time>2026-04-06T14:53:39.534Z</time></trkpt><trkpt lat="37.5699841" lon="14.6551523"><ele>143.0</ele><time>2026-04-06T14:53:40.535Z</time></trkpt><trkpt lat="37.5700348" lon="14.6547716"><ele>143.0</ele><time>2026-04-06T14:53:41.534Z</time></trkpt><trkpt lat="37.5700843" lon="14.654393"><ele>143.0</ele><time>2026-04-06T14:53:42.534Z</time></trkpt><trkpt lat="37.5701302" lon="14.6540107"><ele>143.0</ele><time>2026-04-06T14:53:43.535Z</time></trkpt><trkpt lat="37.5701716" lon="14.6536313"><ele>143.0</ele><time>2026-04-06T14:53:44.535Z</time></trkpt><trkpt lat="37.5702078" lon="14.6532503"><ele>143.0</ele><time>2026-04-06T14:53:45.534Z</time></trkpt><trkpt lat="37.5702406" lon="14.6528702"><ele>143.0</ele><time>2026-04-06T14:53:46.535Z</time></trkpt><trkpt lat="37.570268" lon="14.6524882"><ele>143.0</ele><time>2026-04-06T14:53:47.535Z</time></trkpt><trkpt lat="37.5702906" lon="14.6521036"><ele>143.0</ele><time>2026-04-06T14:53:48.535Z</time></trkpt><trkpt lat="37.57031" lon="14.6517188"><ele>142.5</ele><time>2026-04-06T14:53:49.535Z</time></trkpt><trkpt lat="37.5703231" lon="14.6513303"><ele>142.0</ele><time>2026-04-06T14:53:50.535Z</time></trkpt><trkpt lat="37.5703394" lon="14.6509419"><ele>142.0</ele><time>2026-04-06T14:53:51.534Z</time></trkpt><trkpt lat="37.5703522" lon="14.6505587"><ele>142.0</ele><time>2026-04-06T14:53:52.535Z</time></trkpt><trkpt lat="37.5703597" lon="14.6501735"><ele>142.0</ele><time>2026-04-06T14:53:53.535Z</time></trkpt><trkpt lat="37.570364" lon="14.6497892"><ele>142.0</ele><time>2026-04-06T14:53:54.535Z</time></trkpt><trkpt lat="37.5703599" lon="14.6494048"><ele>144.0</ele><time>2026-04-06T14:53:55.534Z</time></trkpt><trkpt lat="37.5703506" lon="14.6490161"><ele>146.0</ele><time>2026-04-06T14:53:56.534Z</time></trkpt><trkpt lat="37.5703325" lon="14.6486332"><ele>145.5</ele><time>2026-04-06T14:53:57.534Z</time></trkpt><trkpt lat="37.5703161" lon="14.6482522"><ele>145.0</ele><time>2026-04-06T14:53:58.534Z</time></trkpt><trkpt lat="37.5702961" lon="14.6478688"><ele>144.5</ele><time>2026-04-06T14:53:59.535Z</time></trkpt><trkpt lat="37.5702738" lon="14.6474832"><ele>144.0</ele><time>2026-04-06T14:54:00.534Z</time></trkpt><trkpt lat="37.5702447" lon="14.6470968"><ele>145.0</ele><time>2026-04-06T14:54:01.534Z</time></trkpt><trkpt lat="37.5702138" lon="14.6467126"><ele>146.0</ele><time>2026-04-06T14:54:02.534Z</time></trkpt><trkpt lat="37.570179" lon="14.6463281"><ele>148.5</ele><time>2026-04-06T14:54:03.534Z</time></trkpt><trkpt lat="37.5701398" lon="14.6459459"><ele>151.0</ele><time>2026-04-06T14:54:04.534Z</time></trkpt><trkpt lat="37.570093" lon="14.6455648"><ele>152.0</ele><time>2026-04-06T14:54:05.534Z</time></trkpt><trkpt lat="37.5700422" lon="14.6451865"><ele>153.0</ele><time>2026-04-06T14:54:06.534Z</time></trkpt><trkpt lat="37.5699875" lon="14.6448047"><ele>153.0</ele><time>2026-04-06T14:54:07.534Z</time></trkpt><trkpt lat="37.5699304" lon="14.6444269"><ele>153.0</ele><time>2026-04-06T14:54:08.535Z</time></trkpt><trkpt lat="37.5698691" lon="14.6440502"><ele>153.0</ele><time>2026-04-06T14:54:09.535Z</time></trkpt><trkpt lat="37.5698041" lon="14.643673"><ele>153.0</ele><time>2026-04-06T14:54:10.534Z</time></trkpt><trkpt lat="37.5697349" lon="14.6432972"><ele>153.0</ele><time>2026-04-06T14:54:11.534Z</time></trkpt><trkpt lat="37.5696621" lon="14.6429222"><ele>153.0</ele><time>2026-04-06T14:54:12.534Z</time></trkpt><trkpt lat="37.5695862" lon="14.6425483"><ele>154.0</ele><time>2026-04-06T14:54:13.534Z</time></trkpt><trkpt lat="37.5695089" lon="14.64218"><ele>155.0</ele><time>2026-04-06T14:54:14.534Z</time></trkpt><trkpt lat="37.5694278" lon="14.6418119"><ele>155.5</ele><time>2026-04-06T14:54:15.534Z</time></trkpt><trkpt lat="37.569342" lon="14.6414444"><ele>156.0</ele><time>2026-04-06T14:54:16.535Z</time></trkpt><trkpt lat="37.56925" lon="14.6410782"><ele>156.5</ele><time>2026-04-06T14:54:17.534Z</time></trkpt><trkpt lat="37.5691525" lon="14.6407123"><ele>157.0</ele><time>2026-04-06T14:54:18.534Z</time></trkpt><trkpt lat="37.5690508" lon="14.6403444"><ele>156.5</ele><time>2026-04-06T14:54:19.534Z</time></trkpt><trkpt lat="37.5689457" lon="14.6399772"><ele>156.0</ele><time>2026-04-06T14:54:20.534Z</time></trkpt><trkpt lat="37.5688394" lon="14.6396166"><ele>154.5</ele><time>2026-04-06T14:54:21.535Z</time></trkpt><trkpt lat="37.568727" lon="14.6392581"><ele>153.0</ele><time>2026-04-06T14:54:22.534Z</time></trkpt><trkpt lat="37.5686117" lon="14.6389033"><ele>153.5</ele><time>2026-04-06T14:54:23.535Z</time></trkpt><trkpt lat="37.5684945" lon="14.6385463"><ele>154.0</ele><time>2026-04-06T14:54:24.534Z</time></trkpt><trkpt lat="37.5683729" lon="14.6381915"><ele>154.0</ele><time>2026-04-06T14:54:25.534Z</time></trkpt><trkpt lat="37.5682558" lon="14.6378359"><ele>154.0</ele><time>2026-04-06T14:54:26.534Z</time></trkpt><trkpt lat="37.5681345" lon="14.6374832"><ele>153.5</ele><time>2026-04-06T14:54:27.534Z</time></trkpt><trkpt lat="37.5680138" lon="14.6371317"><ele>153.0</ele><time>2026-04-06T14:54:28.534Z</time></trkpt><trkpt lat="37.5678873" lon="14.6367772"><ele>153.5</ele><time>2026-04-06T14:54:29.534Z</time></trkpt><trkpt lat="37.5677649" lon="14.6364238"><ele>154.0</ele><time>2026-04-06T14:54:30.535Z</time></trkpt><trkpt lat="37.5676421" lon="14.6360752"><ele>155.0</ele><time>2026-04-06T14:54:31.534Z</time></trkpt><trkpt lat="37.5675209" lon="14.6357249"><ele>156.0</ele><time>2026-04-06T14:54:32.534Z</time></trkpt><trkpt lat="37.5674013" lon="14.6353713"><ele>156.0</ele><time>2026-04-06T14:54:33.535Z</time></trkpt><trkpt lat="37.5672832" lon="14.6350156"><ele>156.0</ele><time>2026-04-06T14:54:34.534Z</time></trkpt><trkpt lat="37.567162" lon="14.6346596"><ele>156.5</ele><time>2026-04-06T14:54:35.534Z</time></trkpt><trkpt lat="37.5670454" lon="14.6343031"><ele>157.0</ele><time>2026-04-06T14:54:36.535Z</time></trkpt><trkpt lat="37.5669246" lon="14.6339499"><ele>158.0</ele><time>2026-04-06T14:54:37.534Z</time></trkpt><trkpt lat="37.5668019" lon="14.6335949"><ele>159.0</ele><time>2026-04-06T14:54:38.534Z</time></trkpt><trkpt lat="37.5666823" lon="14.6332374"><ele>159.0</ele><time>2026-04-06T14:54:39.534Z</time></trkpt><trkpt lat="37.5665608" lon="14.6328862"><ele>159.0</ele><time>2026-04-06T14:54:40.535Z</time></trkpt><trkpt lat="37.5664385" lon="14.6325337"><ele>159.0</ele><time>2026-04-06T14:54:41.534Z</time></trkpt><trkpt lat="37.5663151" lon="14.6321831"><ele>159.0</ele><time>2026-04-06T14:54:42.535Z</time></trkpt><trkpt lat="37.566193" lon="14.6318314"><ele>159.0</ele><time>2026-04-06T14:54:43.534Z</time></trkpt><trkpt lat="37.5660733" lon="14.6314802"><ele>159.0</ele><time>2026-04-06T14:54:44.534Z</time></trkpt><trkpt lat="37.5659491" lon="14.6311266"><ele>159.0</ele><time>2026-04-06T14:54:45.534Z</time></trkpt><trkpt lat="37.5658242" lon="14.6307714"><ele>159.0</ele><time>2026-04-06T14:54:46.535Z</time></trkpt><trkpt lat="37.5657056" lon="14.6304129"><ele>158.5</ele><time>2026-04-06T14:54:47.534Z</time></trkpt><trkpt lat="37.5655837" lon="14.630059"><ele>158.0</ele><time>2026-04-06T14:54:48.534Z</time></trkpt><trkpt lat="37.5654579" lon="14.6297081"><ele>160.0</ele><time>2026-04-06T14:54:49.534Z</time></trkpt><trkpt lat="37.5653316" lon="14.6293591"><ele>162.0</ele><time>2026-04-06T14:54:50.534Z</time></trkpt><trkpt lat="37.5652049" lon="14.6290111"><ele>162.0</ele><time>2026-04-06T14:54:51.534Z</time></trkpt><trkpt lat="37.5650814" lon="14.6286607"><ele>162.0</ele><time>2026-04-06T14:54:52.535Z</time></trkpt><trkpt lat="37.5649557" lon="14.628308"><ele>161.0</ele><time>2026-04-06T14:54:53.534Z</time></trkpt><trkpt lat="37.5648343" lon="14.6279517"><ele>160.0</ele><time>2026-04-06T14:54:54.535Z</time></trkpt><trkpt lat="37.5647121" lon="14.6275968"><ele>159.5</ele><time>2026-04-06T14:54:55.534Z</time></trkpt><trkpt lat="37.5645853" lon="14.6272447"><ele>159.0</ele><time>2026-04-06T14:54:56.535Z</time></trkpt><trkpt lat="37.5644598" lon="14.6268929"><ele>160.5</ele><time>2026-04-06T14:54:57.534Z</time></trkpt><trkpt lat="37.564336" lon="14.6265401"><ele>162.0</ele><time>2026-04-06T14:54:58.534Z</time></trkpt><trkpt lat="37.5642105" lon="14.6261889"><ele>161.5</ele><time>2026-04-06T14:54:59.534Z</time></trkpt><trkpt lat="37.5640854" lon="14.6258395"><ele>161.0</ele><time>2026-04-06T14:55:00.535Z</time></trkpt><trkpt lat="37.5639668" lon="14.6254854"><ele>162.0</ele><time>2026-04-06T14:55:01.534Z</time></trkpt><trkpt lat="37.5638467" lon="14.6251311"><ele>163.0</ele><time>2026-04-06T14:55:02.535Z</time></trkpt><trkpt lat="37.563727" lon="14.6247739"><ele>164.5</ele><time>2026-04-06T14:55:03.534Z</time></trkpt><trkpt lat="37.5636075" lon="14.6244222"><ele>166.0</ele><time>2026-04-06T14:55:04.535Z</time></trkpt><trkpt lat="37.563486" lon="14.6240733"><ele>166.0</ele><time>2026-04-06T14:55:05.535Z</time></trkpt><trkpt lat="37.563365" lon="14.6237209"><ele>166.0</ele><time>2026-04-06T14:55:06.534Z</time></trkpt><trkpt lat="37.5632427" lon="14.6233637"><ele>166.5</ele><time>2026-04-06T14:55:07.535Z</time></trkpt><trkpt lat="37.5631233" lon="14.6230129"><ele>167.0</ele><time>2026-04-06T14:55:08.534Z</time></trkpt><trkpt lat="37.5630011" lon="14.6226642"><ele>166.5</ele><time>2026-04-06T14:55:09.534Z</time></trkpt><trkpt lat="37.5628791" lon="14.6223112"><ele>166.0</ele><time>2026-04-06T14:55:10.541Z</time></trkpt><trkpt lat="37.5627568" lon="14.6219582"><ele>166.0</ele><time>2026-04-06T14:55:11.541Z</time></trkpt><trkpt lat="37.5626351" lon="14.6216066"><ele>166.0</ele><time>2026-04-06T14:55:12.541Z</time></trkpt><trkpt lat="37.562512" lon="14.6212517"><ele>165.5</ele><time>2026-04-06T14:55:13.542Z</time></trkpt><trkpt lat="37.5623881" lon="14.6208984"><ele>165.0</ele><time>2026-04-06T14:55:14.541Z</time></trkpt><trkpt lat="37.5622647" lon="14.6205441"><ele>164.0</ele><time>2026-04-06T14:55:15.541Z</time></trkpt><trkpt lat="37.5621406" lon="14.6201925"><ele>163.0</ele><time>2026-04-06T14:55:16.541Z</time></trkpt><trkpt lat="37.5620198" lon="14.6198438"><ele>167.0</ele><time>2026-04-06T14:55:17.541Z</time></trkpt><trkpt lat="37.5618976" lon="14.6194921"><ele>171.0</ele><time>2026-04-06T14:55:18.542Z</time></trkpt><trkpt lat="37.5617761" lon="14.6191397"><ele>173.5</ele><time>2026-04-06T14:55:19.542Z</time></trkpt><trkpt lat="37.5616494" lon="14.6187856"><ele>176.0</ele><time>2026-04-06T14:55:20.541Z</time></trkpt><trkpt lat="37.5615172" lon="14.6184349"><ele>178.0</ele><time>2026-04-06T14:55:21.542Z</time></trkpt><trkpt lat="37.5613768" lon="14.6180843"><ele>180.0</ele><time>2026-04-06T14:55:22.542Z</time></trkpt><trkpt lat="37.5612419" lon="14.6177392"><ele>182.0</ele><time>2026-04-06T14:55:23.542Z</time></trkpt><trkpt lat="37.561107" lon="14.6173961"><ele>184.0</ele><time>2026-04-06T14:55:24.542Z</time></trkpt><trkpt lat="37.560972" lon="14.6170522"><ele>183.0</ele><time>2026-04-06T14:55:25.542Z</time></trkpt><trkpt lat="37.5608364" lon="14.6167077"><ele>182.0</ele><time>2026-04-06T14:55:26.541Z</time></trkpt><trkpt lat="37.5606892" lon="14.6163646"><ele>184.0</ele><time>2026-04-06T14:55:27.542Z</time></trkpt><trkpt lat="37.5605357" lon="14.6160264"><ele>186.0</ele><time>2026-04-06T14:55:28.541Z</time></trkpt><trkpt lat="37.5603791" lon="14.615693"><ele>185.5</ele><time>2026-04-06T14:55:29.542Z</time></trkpt><trkpt lat="37.560219" lon="14.6153667"><ele>185.0</ele><time>2026-04-06T14:55:30.541Z</time></trkpt><trkpt lat="37.5600604" lon="14.6150386"><ele>185.0</ele><time>2026-04-06T14:55:31.541Z</time></trkpt><trkpt lat="37.5598948" lon="14.6147114"><ele>185.0</ele><time>2026-04-06T14:55:32.541Z</time></trkpt><trkpt lat="37.5597304" lon="14.6143847"><ele>182.5</ele><time>2026-04-06T14:55:33.542Z</time></trkpt><trkpt lat="37.5595643" lon="14.6140589"><ele>180.0</ele><time>2026-04-06T14:55:34.541Z</time></trkpt><trkpt lat="37.5593989" lon="14.6137398"><ele>176.5</ele><time>2026-04-06T14:55:35.542Z</time></trkpt><trkpt lat="37.5592344" lon="14.6134183"><ele>173.0</ele><time>2026-04-06T14:55:36.541Z</time></trkpt><trkpt lat="37.5590696" lon="14.6130935"><ele>171.0</ele><time>2026-04-06T14:55:37.541Z</time></trkpt><trkpt lat="37.5589076" lon="14.6127654"><ele>169.0</ele><time>2026-04-06T14:55:38.541Z</time></trkpt><trkpt lat="37.5587451" lon="14.6124402"><ele>170.5</ele><time>2026-04-06T14:55:39.541Z</time></trkpt><trkpt lat="37.5585806" lon="14.6121119"><ele>172.0</ele><time>2026-04-06T14:55:40.541Z</time></trkpt><trkpt lat="37.558412" lon="14.6117867"><ele>174.0</ele><time>2026-04-06T14:55:41.542Z</time></trkpt><trkpt lat="37.5582438" lon="14.6114642"><ele>176.0</ele><time>2026-04-06T14:55:42.541Z</time></trkpt><trkpt lat="37.558074" lon="14.6111412"><ele>176.0</ele><time>2026-04-06T14:55:43.541Z</time></trkpt><trkpt lat="37.5579035" lon="14.6108231"><ele>176.0</ele><time>2026-04-06T14:55:44.541Z</time></trkpt><trkpt lat="37.5577344" lon="14.6105053"><ele>175.5</ele><time>2026-04-06T14:55:45.541Z</time></trkpt><trkpt lat="37.5575661" lon="14.6101813"><ele>175.0</ele><time>2026-04-06T14:55:46.542Z</time></trkpt><trkpt lat="37.557397" lon="14.6098587"><ele>175.0</ele><time>2026-04-06T14:55:47.541Z</time></trkpt><trkpt lat="37.5572287" lon="14.6095349"><ele>175.0</ele><time>2026-04-06T14:55:48.541Z</time></trkpt><trkpt lat="37.5570592" lon="14.6092114"><ele>175.5</ele><time>2026-04-06T14:55:49.541Z</time></trkpt><trkpt lat="37.5568888" lon="14.6088924"><ele>176.0</ele><time>2026-04-06T14:55:50.541Z</time></trkpt><trkpt lat="37.5567213" lon="14.6085681"><ele>176.0</ele><time>2026-04-06T14:55:51.541Z</time></trkpt><trkpt lat="37.5565511" lon="14.6082451"><ele>176.0</ele><time>2026-04-06T14:55:52.541Z</time></trkpt><trkpt lat="37.5563849" lon="14.6079226"><ele>176.0</ele><time>2026-04-06T14:55:53.541Z</time></trkpt><trkpt lat="37.5562175" lon="14.6076017"><ele>176.0</ele><time>2026-04-06T14:55:54.542Z</time></trkpt><trkpt lat="37.5560508" lon="14.60728"><ele>175.5</ele><time>2026-04-06T14:55:55.542Z</time></trkpt><trkpt lat="37.5558828" lon="14.6069602"><ele>175.0</ele><time>2026-04-06T14:55:56.541Z</time></trkpt><trkpt lat="37.5557151" lon="14.6066422"><ele>175.0</ele><time>2026-04-06T14:55:57.542Z</time></trkpt><trkpt lat="37.5555468" lon="14.6063239"><ele>175.0</ele><time>2026-04-06T14:55:58.541Z</time></trkpt><trkpt lat="37.5553809" lon="14.6060051"><ele>177.0</ele><time>2026-04-06T14:55:59.542Z</time></trkpt><trkpt lat="37.5552156" lon="14.6056799"><ele>179.0</ele><time>2026-04-06T14:56:00.541Z</time></trkpt><trkpt lat="37.5550522" lon="14.6053566"><ele>179.0</ele><time>2026-04-06T14:56:01.541Z</time></trkpt><trkpt lat="37.5548939" lon="14.6050297"><ele>179.0</ele><time>2026-04-06T14:56:02.542Z</time></trkpt><trkpt lat="37.5547364" lon="14.604699"><ele>180.5</ele><time>2026-04-06T14:56:03.541Z</time></trkpt><trkpt lat="37.5545827" lon="14.6043666"><ele>182.0</ele><time>2026-04-06T14:56:04.541Z</time></trkpt><trkpt lat="37.5544324" lon="14.604026"><ele>182.0</ele><time>2026-04-06T14:56:05.541Z</time></trkpt><trkpt lat="37.5542846" lon="14.603685"><ele>182.0</ele><time>2026-04-06T14:56:06.542Z</time></trkpt><trkpt lat="37.5541413" lon="14.6033415"><ele>181.5</ele><time>2026-04-06T14:56:07.541Z</time></trkpt><trkpt lat="37.5540035" lon="14.6029978"><ele>181.0</ele><time>2026-04-06T14:56:08.542Z</time></trkpt><trkpt lat="37.5538763" lon="14.6026505"><ele>182.5</ele><time>2026-04-06T14:56:09.541Z</time></trkpt><trkpt lat="37.5537582" lon="14.6022959"><ele>184.0</ele><time>2026-04-06T14:56:10.542Z</time></trkpt><trkpt lat="37.5536513" lon="14.6019339"><ele>184.0</ele><time>2026-04-06T14:56:11.542Z</time></trkpt><trkpt lat="37.5535476" lon="14.6015692"><ele>184.0</ele><time>2026-04-06T14:56:12.541Z</time></trkpt><trkpt lat="37.5534539" lon="14.6012043"><ele>183.5</ele><time>2026-04-06T14:56:13.541Z</time></trkpt><trkpt lat="37.5533647" lon="14.6008355"><ele>183.0</ele><time>2026-04-06T14:56:14.541Z</time></trkpt><trkpt lat="37.553285" lon="14.600463"><ele>181.0</ele><time>2026-04-06T14:56:15.542Z</time></trkpt><trkpt lat="37.5532129" lon="14.6000879"><ele>179.0</ele><time>2026-04-06T14:56:16.541Z</time></trkpt><trkpt lat="37.5531519" lon="14.5997097"><ele>177.0</ele><time>2026-04-06T14:56:17.542Z</time></trkpt><trkpt lat="37.5530944" lon="14.5993302"><ele>175.0</ele><time>2026-04-06T14:56:18.541Z</time></trkpt><trkpt lat="37.5530417" lon="14.5989512"><ele>174.5</ele><time>2026-04-06T14:56:19.541Z</time></trkpt><trkpt lat="37.5529904" lon="14.5985732"><ele>174.0</ele><time>2026-04-06T14:56:20.541Z</time></trkpt><trkpt lat="37.5529355" lon="14.5981915"><ele>175.0</ele><time>2026-04-06T14:56:21.542Z</time></trkpt><trkpt lat="37.5528821" lon="14.5978115"><ele>176.0</ele><time>2026-04-06T14:56:22.541Z</time></trkpt><trkpt lat="37.5528297" lon="14.5974352"><ele>177.0</ele><time>2026-04-06T14:56:23.541Z</time></trkpt><trkpt lat="37.552774" lon="14.597055"><ele>178.0</ele><time>2026-04-06T14:56:24.541Z</time></trkpt><trkpt lat="37.5527196" lon="14.5966794"><ele>179.0</ele><time>2026-04-06T14:56:25.541Z</time></trkpt><trkpt lat="37.5526684" lon="14.5962995"><ele>180.0</ele><time>2026-04-06T14:56:26.542Z</time></trkpt><trkpt lat="37.5526186" lon="14.5959157"><ele>180.0</ele><time>2026-04-06T14:56:27.541Z</time></trkpt><trkpt lat="37.5525668" lon="14.5955331"><ele>180.0</ele><time>2026-04-06T14:56:28.541Z</time></trkpt><trkpt lat="37.5525145" lon="14.5951509"><ele>179.5</ele><time>2026-04-06T14:56:29.542Z</time></trkpt><trkpt lat="37.552461" lon="14.5947685"><ele>179.0</ele><time>2026-04-06T14:56:30.541Z</time></trkpt><trkpt lat="37.5524064" lon="14.5943896"><ele>177.5</ele><time>2026-04-06T14:56:31.542Z</time></trkpt><trkpt lat="37.5523518" lon="14.5940125"><ele>176.0</ele><time>2026-04-06T14:56:32.541Z</time></trkpt><trkpt lat="37.5522955" lon="14.5936318"><ele>175.5</ele><time>2026-04-06T14:56:33.541Z</time></trkpt><trkpt lat="37.5522387" lon="14.5932525"><ele>175.0</ele><time>2026-04-06T14:56:34.541Z</time></trkpt><trkpt lat="37.5521804" lon="14.5928717"><ele>176.0</ele><time>2026-04-06T14:56:35.541Z</time></trkpt><trkpt lat="37.5521183" lon="14.5924938"><ele>177.0</ele><time>2026-04-06T14:56:36.541Z</time></trkpt><trkpt lat="37.5520586" lon="14.5921141"><ele>177.5</ele><time>2026-04-06T14:56:37.541Z</time></trkpt><trkpt lat="37.5520015" lon="14.5917341"><ele>178.0</ele><time>2026-04-06T14:56:38.542Z</time></trkpt><trkpt lat="37.5519483" lon="14.5913593"><ele>179.0</ele><time>2026-04-06T14:56:39.541Z</time></trkpt><trkpt lat="37.5518965" lon="14.5909803"><ele>180.0</ele><time>2026-04-06T14:56:40.541Z</time></trkpt><trkpt lat="37.5518481" lon="14.5905985"><ele>180.5</ele><time>2026-04-06T14:56:41.541Z</time></trkpt><trkpt lat="37.5517993" lon="14.5902171"><ele>181.0</ele><time>2026-04-06T14:56:42.541Z</time></trkpt><trkpt lat="37.5517511" lon="14.5898356"><ele>181.0</ele><time>2026-04-06T14:56:43.541Z</time></trkpt><trkpt lat="37.5516995" lon="14.5894526"><ele>181.0</ele><time>2026-04-06T14:56:44.541Z</time></trkpt><trkpt lat="37.5516479" lon="14.5890727"><ele>181.0</ele><time>2026-04-06T14:56:45.541Z</time></trkpt><trkpt lat="37.5515953" lon="14.5886933"><ele>181.0</ele><time>2026-04-06T14:56:46.541Z</time></trkpt><trkpt lat="37.5515393" lon="14.5883161"><ele>182.0</ele><time>2026-04-06T14:56:47.541Z</time></trkpt><trkpt lat="37.5514843" lon="14.5879401"><ele>183.0</ele><time>2026-04-06T14:56:48.541Z</time></trkpt><trkpt lat="37.551432" lon="14.5875621"><ele>183.0</ele><time>2026-04-06T14:56:49.541Z</time></trkpt><trkpt lat="37.5513811" lon="14.5871819"><ele>183.0</ele><time>2026-04-06T14:56:50.541Z</time></trkpt><trkpt lat="37.5513313" lon="14.5868045"><ele>184.0</ele><time>2026-04-06T14:56:51.542Z</time></trkpt><trkpt lat="37.5512795" lon="14.5864254"><ele>185.0</ele><time>2026-04-06T14:56:52.541Z</time></trkpt><trkpt lat="37.5512265" lon="14.5860429"><ele>184.0</ele><time>2026-04-06T14:56:53.541Z</time></trkpt><trkpt lat="37.5511711" lon="14.585665"><ele>183.0</ele><time>2026-04-06T14:56:54.541Z</time></trkpt><trkpt lat="37.551114" lon="14.5852899"><ele>185.0</ele><time>2026-04-06T14:56:55.541Z</time></trkpt><trkpt lat="37.5510594" lon="14.5849085"><ele>187.0</ele><time>2026-04-06T14:56:56.541Z</time></trkpt><trkpt lat="37.5510061" lon="14.5845292"><ele>188.0</ele><time>2026-04-06T14:56:57.542Z</time></trkpt><trkpt lat="37.5509552" lon="14.584146"><ele>189.0</ele><time>2026-04-06T14:56:58.541Z</time></trkpt><trkpt lat="37.5509041" lon="14.5837664"><ele>189.0</ele><time>2026-04-06T14:56:59.542Z</time></trkpt><trkpt lat="37.5508522" lon="14.5833878"><ele>189.0</ele><time>2026-04-06T14:57:00.541Z</time></trkpt><trkpt lat="37.550801" lon="14.5830089"><ele>191.0</ele><time>2026-04-06T14:57:01.541Z</time></trkpt><trkpt lat="37.5507455" lon="14.5826323"><ele>193.0</ele><time>2026-04-06T14:57:02.542Z</time></trkpt><trkpt lat="37.5506884" lon="14.5822541"><ele>193.0</ele><time>2026-04-06T14:57:03.541Z</time></trkpt><trkpt lat="37.5506291" lon="14.5818731"><ele>193.0</ele><time>2026-04-06T14:57:04.541Z</time></trkpt><trkpt lat="37.5505707" lon="14.5814976"><ele>194.5</ele><time>2026-04-06T14:57:05.542Z</time></trkpt><trkpt lat="37.550515" lon="14.5811157"><ele>196.0</ele><time>2026-04-06T14:57:06.541Z</time></trkpt><trkpt lat="37.5504628" lon="14.5807365"><ele>196.0</ele><time>2026-04-06T14:57:07.541Z</time></trkpt><trkpt lat="37.5504119" lon="14.580358"><ele>196.0</ele><time>2026-04-06T14:57:08.541Z</time></trkpt><trkpt lat="37.5503641" lon="14.5799792"><ele>196.5</ele><time>2026-04-06T14:57:09.541Z</time></trkpt><trkpt lat="37.5503115" lon="14.5796007"><ele>197.0</ele><time>2026-04-06T14:57:10.542Z</time></trkpt><trkpt lat="37.5502537" lon="14.5792204"><ele>197.0</ele><time>2026-04-06T14:57:11.541Z</time></trkpt><trkpt lat="37.5501954" lon="14.5788404"><ele>197.0</ele><time>2026-04-06T14:57:12.542Z</time></trkpt><trkpt lat="37.550134" lon="14.5784625"><ele>198.0</ele><time>2026-04-06T14:57:13.542Z</time></trkpt><trkpt lat="37.5500675" lon="14.5780865"><ele>199.0</ele><time>2026-04-06T14:57:14.541Z</time></trkpt><trkpt lat="37.5500022" lon="14.5777123"><ele>199.0</ele><time>2026-04-06T14:57:15.541Z</time></trkpt><trkpt lat="37.5499261" lon="14.577338"><ele>199.0</ele><time>2026-04-06T14:57:16.541Z</time></trkpt><trkpt lat="37.5498464" lon="14.5769656"><ele>200.0</ele><time>2026-04-06T14:57:17.541Z</time></trkpt><trkpt lat="37.5497663" lon="14.5765928"><ele>201.0</ele><time>2026-04-06T14:57:18.542Z</time></trkpt><trkpt lat="37.5496769" lon="14.5762216"><ele>200.0</ele><time>2026-04-06T14:57:19.542Z</time></trkpt><trkpt lat="37.5495819" lon="14.5758529"><ele>199.0</ele><time>2026-04-06T14:57:20.541Z</time></trkpt><trkpt lat="37.5494806" lon="14.5754859"><ele>199.5</ele><time>2026-04-06T14:57:21.541Z</time></trkpt><trkpt lat="37.5493723" lon="14.5751232"><ele>200.0</ele><time>2026-04-06T14:57:22.541Z</time></trkpt><trkpt lat="37.5492573" lon="14.5747664"><ele>201.0</ele><time>2026-04-06T14:57:23.541Z</time></trkpt><trkpt lat="37.5491391" lon="14.574411"><ele>202.0</ele><time>2026-04-06T14:57:24.541Z</time></trkpt><trkpt lat="37.5490193" lon="14.5740572"><ele>202.0</ele><time>2026-04-06T14:57:25.541Z</time></trkpt><trkpt lat="37.5489007" lon="14.5737069"><ele>202.0</ele><time>2026-04-06T14:57:26.541Z</time></trkpt><trkpt lat="37.5487822" lon="14.5733532"><ele>199.5</ele><time>2026-04-06T14:57:27.541Z</time></trkpt><trkpt lat="37.5486647" lon="14.5729981"><ele>197.0</ele><time>2026-04-06T14:57:28.541Z</time></trkpt><trkpt lat="37.5485459" lon="14.5726444"><ele>196.5</ele><time>2026-04-06T14:57:29.542Z</time></trkpt><trkpt lat="37.5484262" lon="14.5722862"><ele>196.0</ele><time>2026-04-06T14:57:30.541Z</time></trkpt><trkpt lat="37.5483121" lon="14.571931"><ele>197.0</ele><time>2026-04-06T14:57:31.541Z</time></trkpt><trkpt lat="37.5482033" lon="14.5715733"><ele>198.0</ele><time>2026-04-06T14:57:32.542Z</time></trkpt><trkpt lat="37.5480888" lon="14.5712175"><ele>198.5</ele><time>2026-04-06T14:57:33.541Z</time></trkpt><trkpt lat="37.5479733" lon="14.5708602"><ele>199.0</ele><time>2026-04-06T14:57:34.542Z</time></trkpt><trkpt lat="37.5478585" lon="14.5705013"><ele>198.5</ele><time>2026-04-06T14:57:35.541Z</time></trkpt><trkpt lat="37.5477416" lon="14.5701476"><ele>198.0</ele><time>2026-04-06T14:57:36.542Z</time></trkpt><trkpt lat="37.547623" lon="14.5697958"><ele>198.5</ele><time>2026-04-06T14:57:37.542Z</time></trkpt><trkpt lat="37.5475033" lon="14.5694397"><ele>199.0</ele><time>2026-04-06T14:57:38.541Z</time></trkpt><trkpt lat="37.5473838" lon="14.5690881"><ele>199.0</ele><time>2026-04-06T14:57:39.541Z</time></trkpt><trkpt lat="37.5472651" lon="14.5687367"><ele>199.0</ele><time>2026-04-06T14:57:40.541Z</time></trkpt><trkpt lat="37.547145" lon="14.5683821"><ele>198.5</ele><time>2026-04-06T14:57:41.541Z</time></trkpt><trkpt lat="37.5470272" lon="14.5680261"><ele>198.0</ele><time>2026-04-06T14:57:42.541Z</time></trkpt><trkpt lat="37.54691" lon="14.5676695"><ele>198.0</ele><time>2026-04-06T14:57:43.541Z</time></trkpt><trkpt lat="37.5467928" lon="14.5673113"><ele>198.0</ele><time>2026-04-06T14:57:44.541Z</time></trkpt><trkpt lat="37.5466737" lon="14.566956"><ele>199.0</ele><time>2026-04-06T14:57:45.541Z</time></trkpt><trkpt lat="37.5465589" lon="14.5665998"><ele>200.0</ele><time>2026-04-06T14:57:46.541Z</time></trkpt><trkpt lat="37.5464408" lon="14.5662439"><ele>200.0</ele><time>2026-04-06T14:57:47.541Z</time></trkpt><trkpt lat="37.546322" lon="14.5658888"><ele>200.0</ele><time>2026-04-06T14:57:48.541Z</time></trkpt><trkpt lat="37.5462043" lon="14.5655338"><ele>199.5</ele><time>2026-04-06T14:57:49.541Z</time></trkpt><trkpt lat="37.5460849" lon="14.5651782"><ele>199.0</ele><time>2026-04-06T14:57:50.541Z</time></trkpt><trkpt lat="37.5459685" lon="14.5648233"><ele>202.5</ele><time>2026-04-06T14:57:51.541Z</time></trkpt><trkpt lat="37.545849" lon="14.5644747"><ele>206.0</ele><time>2026-04-06T14:57:52.541Z</time></trkpt><trkpt lat="37.5457281" lon="14.5641234"><ele>206.0</ele><time>2026-04-06T14:57:53.541Z</time></trkpt><trkpt lat="37.5456101" lon="14.5637708"><ele>206.0</ele><time>2026-04-06T14:57:54.541Z</time></trkpt><trkpt lat="37.5454868" lon="14.5634147"><ele>205.5</ele><time>2026-04-06T14:57:55.541Z</time></trkpt><trkpt lat="37.5453649" lon="14.5630598"><ele>205.0</ele><time>2026-04-06T14:57:56.542Z</time></trkpt><trkpt lat="37.5452451" lon="14.5627049"><ele>205.0</ele><time>2026-04-06T14:57:57.541Z</time></trkpt><trkpt lat="37.5451248" lon="14.5623465"><ele>205.0</ele><time>2026-04-06T14:57:58.541Z</time></trkpt><trkpt lat="37.5450054" lon="14.5619921"><ele>205.0</ele><time>2026-04-06T14:57:59.541Z</time></trkpt><trkpt lat="37.544886" lon="14.5616395"><ele>205.0</ele><time>2026-04-06T14:58:00.541Z</time></trkpt><trkpt lat="37.5447667" lon="14.5612859"><ele>205.5</ele><time>2026-04-06T14:58:01.542Z</time></trkpt><trkpt lat="37.5446467" lon="14.5609326"><ele>206.0</ele><time>2026-04-06T14:58:02.541Z</time></trkpt><trkpt lat="37.5445294" lon="14.5605751"><ele>206.5</ele><time>2026-04-06T14:58:03.541Z</time></trkpt><trkpt lat="37.5444147" lon="14.5602165"><ele>207.0</ele><time>2026-04-06T14:58:04.541Z</time></trkpt><trkpt lat="37.5442963" lon="14.5598603"><ele>208.5</ele><time>2026-04-06T14:58:05.542Z</time></trkpt><trkpt lat="37.5441754" lon="14.5595059"><ele>210.0</ele><time>2026-04-06T14:58:06.541Z</time></trkpt><trkpt lat="37.5440536" lon="14.5591533"><ele>210.0</ele><time>2026-04-06T14:58:07.541Z</time></trkpt><trkpt lat="37.5439352" lon="14.5588003"><ele>210.0</ele><time>2026-04-06T14:58:08.541Z</time></trkpt><trkpt lat="37.5438148" lon="14.5584463"><ele>209.5</ele><time>2026-04-06T14:58:09.542Z</time></trkpt><trkpt lat="37.5436933" lon="14.5580965"><ele>209.0</ele><time>2026-04-06T14:58:10.541Z</time></trkpt><trkpt lat="37.5435722" lon="14.5577396"><ele>209.0</ele><time>2026-04-06T14:58:11.541Z</time></trkpt><trkpt lat="37.5434569" lon="14.5573841"><ele>209.0</ele><time>2026-04-06T14:58:12.541Z</time></trkpt><trkpt lat="37.5433431" lon="14.5570254"><ele>209.0</ele><time>2026-04-06T14:58:13.541Z</time></trkpt><trkpt lat="37.5432258" lon="14.5566685"><ele>209.0</ele><time>2026-04-06T14:58:14.541Z</time></trkpt><trkpt lat="37.5431087" lon="14.5563133"><ele>208.5</ele><time>2026-04-06T14:58:15.541Z</time></trkpt><trkpt lat="37.5429857" lon="14.5559575"><ele>208.0</ele><time>2026-04-06T14:58:16.541Z</time></trkpt><trkpt lat="37.5428695" lon="14.5555986"><ele>208.0</ele><time>2026-04-06T14:58:17.542Z</time></trkpt><trkpt lat="37.5427581" lon="14.5552394"><ele>208.0</ele><time>2026-04-06T14:58:18.542Z</time></trkpt><trkpt lat="37.5426528" lon="14.5548766"><ele>207.0</ele><time>2026-04-06T14:58:19.541Z</time></trkpt><trkpt lat="37.5425565" lon="14.5545072"><ele>206.0</ele><time>2026-04-06T14:58:20.542Z</time></trkpt><trkpt lat="37.5424731" lon="14.5541366"><ele>206.0</ele><time>2026-04-06T14:58:21.541Z</time></trkpt><trkpt lat="37.5424026" lon="14.5537628"><ele>206.0</ele><time>2026-04-06T14:58:22.541Z</time></trkpt><trkpt lat="37.5423421" lon="14.5533853"><ele>206.5</ele><time>2026-04-06T14:58:23.541Z</time></trkpt><trkpt lat="37.5422953" lon="14.5530049"><ele>207.0</ele><time>2026-04-06T14:58:24.541Z</time></trkpt><trkpt lat="37.5422575" lon="14.5526213"><ele>207.0</ele><time>2026-04-06T14:58:25.541Z</time></trkpt><trkpt lat="37.5422325" lon="14.5522394"><ele>207.0</ele><time>2026-04-06T14:58:26.541Z</time></trkpt><trkpt lat="37.542217" lon="14.5518524"><ele>206.5</ele><time>2026-04-06T14:58:27.541Z</time></trkpt><trkpt lat="37.5422105" lon="14.5514641"><ele>206.0</ele><time>2026-04-06T14:58:28.541Z</time></trkpt><trkpt lat="37.5422146" lon="14.5510795"><ele>206.0</ele><time>2026-04-06T14:58:29.541Z</time></trkpt><trkpt lat="37.5422289" lon="14.5506965"><ele>206.0</ele><time>2026-04-06T14:58:30.541Z</time></trkpt><trkpt lat="37.5422576" lon="14.5503135"><ele>206.0</ele><time>2026-04-06T14:58:31.541Z</time></trkpt><trkpt lat="37.542298" lon="14.5499295"><ele>206.0</ele><time>2026-04-06T14:58:32.541Z</time></trkpt><trkpt lat="37.5423493" lon="14.5495516"><ele>208.0</ele><time>2026-04-06T14:58:33.541Z</time></trkpt><trkpt lat="37.542413" lon="14.5491774"><ele>210.0</ele><time>2026-04-06T14:58:34.541Z</time></trkpt><trkpt lat="37.542493" lon="14.5488044"><ele>211.5</ele><time>2026-04-06T14:58:35.541Z</time></trkpt><trkpt lat="37.5425841" lon="14.5484343"><ele>213.0</ele><time>2026-04-06T14:58:36.541Z</time></trkpt><trkpt lat="37.5426837" lon="14.5480668"><ele>214.0</ele><time>2026-04-06T14:58:37.541Z</time></trkpt><trkpt lat="37.5427848" lon="14.5477031"><ele>215.0</ele><time>2026-04-06T14:58:38.541Z</time></trkpt><trkpt lat="37.5428849" lon="14.5473346"><ele>216.0</ele><time>2026-04-06T14:58:39.541Z</time></trkpt><trkpt lat="37.5429833" lon="14.5469656"><ele>217.0</ele><time>2026-04-06T14:58:40.541Z</time></trkpt><trkpt lat="37.5430818" lon="14.5465987"><ele>217.0</ele><time>2026-04-06T14:58:41.541Z</time></trkpt><trkpt lat="37.54318" lon="14.5462357"><ele>217.0</ele><time>2026-04-06T14:58:42.541Z</time></trkpt><trkpt lat="37.5432805" lon="14.5458736"><ele>217.0</ele><time>2026-04-06T14:58:43.542Z</time></trkpt><trkpt lat="37.5433836" lon="14.5455105"><ele>217.0</ele><time>2026-04-06T14:58:44.541Z</time></trkpt><trkpt lat="37.5434854" lon="14.5451484"><ele>215.0</ele><time>2026-04-06T14:58:45.541Z</time></trkpt><trkpt lat="37.5435868" lon="14.5447868"><ele>213.0</ele><time>2026-04-06T14:58:46.541Z</time></trkpt><trkpt lat="37.5436862" lon="14.5444219"><ele>215.0</ele><time>2026-04-06T14:58:47.541Z</time></trkpt><trkpt lat="37.5437871" lon="14.544059"><ele>217.0</ele><time>2026-04-06T14:58:48.542Z</time></trkpt><trkpt lat="37.5438871" lon="14.5436971"><ele>217.0</ele><time>2026-04-06T14:58:49.541Z</time></trkpt><trkpt lat="37.5439861" lon="14.5433317"><ele>217.0</ele><time>2026-04-06T14:58:50.541Z</time></trkpt><trkpt lat="37.5440859" lon="14.5429694"><ele>215.5</ele><time>2026-04-06T14:58:51.541Z</time></trkpt><trkpt lat="37.5441859" lon="14.5426083"><ele>214.0</ele><time>2026-04-06T14:58:52.541Z</time></trkpt><trkpt lat="37.5442867" lon="14.5422476"><ele>216.0</ele><time>2026-04-06T14:58:53.541Z</time></trkpt><trkpt lat="37.5443879" lon="14.5418842"><ele>218.0</ele><time>2026-04-06T14:58:54.541Z</time></trkpt><trkpt lat="37.5444897" lon="14.5415213"><ele>225.5</ele><time>2026-04-06T14:58:55.542Z</time></trkpt><trkpt lat="37.544591" lon="14.5411584"><ele>233.0</ele><time>2026-04-06T14:58:56.541Z</time></trkpt><trkpt lat="37.5446929" lon="14.5407944"><ele>233.0</ele><time>2026-04-06T14:58:57.541Z</time></trkpt><trkpt lat="37.5447933" lon="14.5404316"><ele>233.0</ele><time>2026-04-06T14:58:58.541Z</time></trkpt><trkpt lat="37.5448949" lon="14.5400686"><ele>232.0</ele><time>2026-04-06T14:58:59.541Z</time></trkpt><trkpt lat="37.544995" lon="14.5397056"><ele>231.0</ele><time>2026-04-06T14:59:00.541Z</time></trkpt><trkpt lat="37.5450957" lon="14.5393391"><ele>229.5</ele><time>2026-04-06T14:59:01.541Z</time></trkpt><trkpt lat="37.5451952" lon="14.538971"><ele>228.0</ele><time>2026-04-06T14:59:02.541Z</time></trkpt><trkpt lat="37.545296" lon="14.5386048"><ele>226.0</ele><time>2026-04-06T14:59:03.541Z</time></trkpt><trkpt lat="37.5454035" lon="14.5382446"><ele>224.0</ele><time>2026-04-06T14:59:04.542Z</time></trkpt><trkpt lat="37.5455184" lon="14.5378896"><ele>222.5</ele><time>2026-04-06T14:59:05.541Z</time></trkpt><trkpt lat="37.5456373" lon="14.5375387"><ele>221.0</ele><time>2026-04-06T14:59:06.541Z</time></trkpt><trkpt lat="37.5457621" lon="14.5371849"><ele>220.5</ele><time>2026-04-06T14:59:07.541Z</time></trkpt><trkpt lat="37.5458917" lon="14.5368393"><ele>220.0</ele><time>2026-04-06T14:59:08.541Z</time></trkpt><trkpt lat="37.546024" lon="14.5364929"><ele>219.5</ele><time>2026-04-06T14:59:09.541Z</time></trkpt><trkpt lat="37.5461568" lon="14.5361458"><ele>219.0</ele><time>2026-04-06T14:59:10.541Z</time></trkpt><trkpt lat="37.5462973" lon="14.5358036"><ele>219.0</ele><time>2026-04-06T14:59:11.541Z</time></trkpt><trkpt lat="37.5464439" lon="14.5354662"><ele>219.0</ele><time>2026-04-06T14:59:12.541Z</time></trkpt><trkpt lat="37.5465939" lon="14.5351289"><ele>219.0</ele><time>2026-04-06T14:59:13.542Z</time></trkpt><trkpt lat="37.5467467" lon="14.5347948"><ele>219.0</ele><time>2026-04-06T14:59:14.541Z</time></trkpt><trkpt lat="37.5469052" lon="14.5344636"><ele>220.0</ele><time>2026-04-06T14:59:15.542Z</time></trkpt><trkpt lat="37.5470651" lon="14.534136"><ele>221.0</ele><time>2026-04-06T14:59:16.541Z</time></trkpt><trkpt lat="37.5472306" lon="14.5338115"><ele>222.0</ele><time>2026-04-06T14:59:17.541Z</time></trkpt><trkpt lat="37.5474" lon="14.533489"><ele>223.0</ele><time>2026-04-06T14:59:18.541Z</time></trkpt><trkpt lat="37.5475724" lon="14.5331744"><ele>223.0</ele><time>2026-04-06T14:59:19.541Z</time></trkpt><trkpt lat="37.5477503" lon="14.5328611"><ele>223.0</ele><time>2026-04-06T14:59:20.542Z</time></trkpt><trkpt lat="37.5479298" lon="14.53255"><ele>222.5</ele><time>2026-04-06T14:59:21.541Z</time></trkpt><trkpt lat="37.5481082" lon="14.5322413"><ele>222.0</ele><time>2026-04-06T14:59:22.541Z</time></trkpt><trkpt lat="37.5482889" lon="14.5319321"><ele>223.0</ele><time>2026-04-06T14:59:23.542Z</time></trkpt><trkpt lat="37.5484718" lon="14.5316251"><ele>224.0</ele><time>2026-04-06T14:59:24.542Z</time></trkpt><trkpt lat="37.548654" lon="14.5313134"><ele>223.5</ele><time>2026-04-06T14:59:25.542Z</time></trkpt><trkpt lat="37.5488345" lon="14.531004"><ele>223.0</ele><time>2026-04-06T14:59:26.541Z</time></trkpt><trkpt lat="37.5490173" lon="14.5306934"><ele>222.5</ele><time>2026-04-06T14:59:27.541Z</time></trkpt><trkpt lat="37.5491984" lon="14.5303835"><ele>222.0</ele><time>2026-04-06T14:59:28.541Z</time></trkpt><trkpt lat="37.549379" lon="14.5300742"><ele>221.0</ele><time>2026-04-06T14:59:29.541Z</time></trkpt><trkpt lat="37.5495602" lon="14.5297616"><ele>220.0</ele><time>2026-04-06T14:59:30.542Z</time></trkpt><trkpt lat="37.5497419" lon="14.5294517"><ele>222.0</ele><time>2026-04-06T14:59:31.541Z</time></trkpt><trkpt lat="37.5499247" lon="14.5291429"><ele>224.0</ele><time>2026-04-06T14:59:32.541Z</time></trkpt><trkpt lat="37.5501082" lon="14.5288321"><ele>224.0</ele><time>2026-04-06T14:59:33.541Z</time></trkpt><trkpt lat="37.5502901" lon="14.5285258"><ele>224.0</ele><time>2026-04-06T14:59:34.542Z</time></trkpt><trkpt lat="37.5504711" lon="14.5282178"><ele>223.5</ele><time>2026-04-06T14:59:35.541Z</time></trkpt><trkpt lat="37.5506554" lon="14.5279053"><ele>223.0</ele><time>2026-04-06T14:59:36.542Z</time></trkpt><trkpt lat="37.5508362" lon="14.5275915"><ele>225.0</ele><time>2026-04-06T14:59:37.541Z</time></trkpt><trkpt lat="37.5510164" lon="14.5272805"><ele>227.0</ele><time>2026-04-06T14:59:38.541Z</time></trkpt><trkpt lat="37.5511978" lon="14.5269708"><ele>227.5</ele><time>2026-04-06T14:59:39.541Z</time></trkpt><trkpt lat="37.5513795" lon="14.5266598"><ele>228.0</ele><time>2026-04-06T14:59:40.542Z</time></trkpt><trkpt lat="37.5515542" lon="14.5263446"><ele>229.0</ele><time>2026-04-06T14:59:41.541Z</time></trkpt><trkpt lat="37.5517237" lon="14.5260247"><ele>230.0</ele><time>2026-04-06T14:59:42.541Z</time></trkpt><trkpt lat="37.551895" lon="14.5257033"><ele>229.5</ele><time>2026-04-06T14:59:43.541Z</time></trkpt><trkpt lat="37.5520681" lon="14.5253786"><ele>229.0</ele><time>2026-04-06T14:59:44.541Z</time></trkpt><trkpt lat="37.5522379" lon="14.5250578"><ele>229.0</ele><time>2026-04-06T14:59:45.542Z</time></trkpt><trkpt lat="37.5524009" lon="14.5247317"><ele>229.0</ele><time>2026-04-06T14:59:46.542Z</time></trkpt><trkpt lat="37.5525601" lon="14.5244036"><ele>228.5</ele><time>2026-04-06T14:59:47.542Z</time></trkpt><trkpt lat="37.5527172" lon="14.5240719"><ele>228.0</ele><time>2026-04-06T14:59:48.541Z</time></trkpt><trkpt lat="37.5528723" lon="14.5237398"><ele>228.5</ele><time>2026-04-06T14:59:49.542Z</time></trkpt><trkpt lat="37.5530285" lon="14.5234046"><ele>229.0</ele><time>2026-04-06T14:59:50.541Z</time></trkpt><trkpt lat="37.55318" lon="14.5230703"><ele>228.5</ele><time>2026-04-06T14:59:51.541Z</time></trkpt><trkpt lat="37.5533309" lon="14.5227309"><ele>228.0</ele><time>2026-04-06T14:59:52.541Z</time></trkpt><trkpt lat="37.5534768" lon="14.5223916"><ele>228.0</ele><time>2026-04-06T14:59:53.541Z</time></trkpt><trkpt lat="37.5536199" lon="14.5220508"><ele>228.0</ele><time>2026-04-06T14:59:54.541Z</time></trkpt><trkpt lat="37.5537642" lon="14.521714"><ele>228.5</ele><time>2026-04-06T14:59:55.541Z</time></trkpt><trkpt lat="37.5539054" lon="14.5213716"><ele>229.0</ele><time>2026-04-06T14:59:56.542Z</time></trkpt><trkpt lat="37.5540456" lon="14.5210301"><ele>229.0</ele><time>2026-04-06T14:59:57.542Z</time></trkpt><trkpt lat="37.5541853" lon="14.5206851"><ele>229.0</ele><time>2026-04-06T14:59:58.542Z</time></trkpt><trkpt lat="37.5543241" lon="14.5203485"><ele>228.5</ele><time>2026-04-06T14:59:59.542Z</time></trkpt><trkpt lat="37.5544653" lon="14.5200083"><ele>228.0</ele><time>2026-04-06T15:00:00.541Z</time></trkpt><trkpt lat="37.5546086" lon="14.5196704"><ele>229.5</ele><time>2026-04-06T15:00:01.542Z</time></trkpt><trkpt lat="37.5547517" lon="14.5193327"><ele>231.0</ele><time>2026-04-06T15:00:02.541Z</time></trkpt><trkpt lat="37.5548898" lon="14.5189932"><ele>230.5</ele><time>2026-04-06T15:00:03.541Z</time></trkpt><trkpt lat="37.5550307" lon="14.5186519"><ele>230.0</ele><time>2026-04-06T15:00:04.541Z</time></trkpt><trkpt lat="37.5551727" lon="14.5183069"><ele>230.0</ele><time>2026-04-06T15:00:05.542Z</time></trkpt><trkpt lat="37.555315" lon="14.5179683"><ele>230.0</ele><time>2026-04-06T15:00:06.541Z</time></trkpt><trkpt lat="37.5554564" lon="14.5176297"><ele>232.0</ele><time>2026-04-06T15:00:07.541Z</time></trkpt><trkpt lat="37.555599" lon="14.5172932"><ele>234.0</ele><time>2026-04-06T15:00:08.542Z</time></trkpt><trkpt lat="37.5557406" lon="14.5169483"><ele>234.0</ele><time>2026-04-06T15:00:09.541Z</time></trkpt><trkpt lat="37.5558831" lon="14.5166067"><ele>234.0</ele><time>2026-04-06T15:00:10.542Z</time></trkpt><trkpt lat="37.5560244" lon="14.5162592"><ele>231.5</ele><time>2026-04-06T15:00:11.542Z</time></trkpt><trkpt lat="37.556164" lon="14.5159185"><ele>229.0</ele><time>2026-04-06T15:00:12.541Z</time></trkpt><trkpt lat="37.5563068" lon="14.5155756"><ele>231.5</ele><time>2026-04-06T15:00:13.541Z</time></trkpt><trkpt lat="37.5564472" lon="14.5152335"><ele>234.0</ele><time>2026-04-06T15:00:14.542Z</time></trkpt><trkpt lat="37.5565875" lon="14.5148899"><ele>231.5</ele><time>2026-04-06T15:00:15.541Z</time></trkpt><trkpt lat="37.5567275" lon="14.5145484"><ele>229.0</ele><time>2026-04-06T15:00:16.541Z</time></trkpt><trkpt lat="37.5568679" lon="14.514206"><ele>229.0</ele><time>2026-04-06T15:00:17.542Z</time></trkpt><trkpt lat="37.5570122" lon="14.5138694"><ele>229.0</ele><time>2026-04-06T15:00:18.541Z</time></trkpt><trkpt lat="37.5571582" lon="14.5135273"><ele>229.0</ele><time>2026-04-06T15:00:19.542Z</time></trkpt><trkpt lat="37.5573052" lon="14.513187"><ele>229.0</ele><time>2026-04-06T15:00:20.541Z</time></trkpt><trkpt lat="37.5574501" lon="14.5128458"><ele>229.0</ele><time>2026-04-06T15:00:21.541Z</time></trkpt><trkpt lat="37.5575908" lon="14.5125033"><ele>229.0</ele><time>2026-04-06T15:00:22.541Z</time></trkpt><trkpt lat="37.5577313" lon="14.5121605"><ele>233.0</ele><time>2026-04-06T15:00:23.541Z</time></trkpt><trkpt lat="37.5578738" lon="14.511819"><ele>237.0</ele><time>2026-04-06T15:00:24.541Z</time></trkpt><trkpt lat="37.5580168" lon="14.5114799"><ele>233.5</ele><time>2026-04-06T15:00:25.541Z</time></trkpt><trkpt lat="37.5581612" lon="14.5111407"><ele>230.0</ele><time>2026-04-06T15:00:26.541Z</time></trkpt><trkpt lat="37.5583037" lon="14.5108013"><ele>230.0</ele><time>2026-04-06T15:00:27.542Z</time></trkpt><trkpt lat="37.5584447" lon="14.5104592"><ele>230.0</ele><time>2026-04-06T15:00:28.541Z</time></trkpt><trkpt lat="37.5585853" lon="14.5101178"><ele>229.0</ele><time>2026-04-06T15:00:29.541Z</time></trkpt><trkpt lat="37.5587281" lon="14.5097741"><ele>228.0</ele><time>2026-04-06T15:00:30.541Z</time></trkpt><trkpt lat="37.5588705" lon="14.5094316"><ele>230.5</ele><time>2026-04-06T15:00:31.542Z</time></trkpt><trkpt lat="37.5590103" lon="14.5090898"><ele>233.0</ele><time>2026-04-06T15:00:32.541Z</time></trkpt><trkpt lat="37.559151" lon="14.5087462"><ele>235.5</ele><time>2026-04-06T15:00:33.541Z</time></trkpt><trkpt lat="37.5592937" lon="14.5084022"><ele>238.0</ele><time>2026-04-06T15:00:34.541Z</time></trkpt><trkpt lat="37.5594342" lon="14.5080576"><ele>236.0</ele><time>2026-04-06T15:00:35.542Z</time></trkpt><trkpt lat="37.5595757" lon="14.5077179"><ele>234.0</ele><time>2026-04-06T15:00:36.541Z</time></trkpt><trkpt lat="37.5597161" lon="14.5073772"><ele>235.0</ele><time>2026-04-06T15:00:37.541Z</time></trkpt><trkpt lat="37.5598602" lon="14.5070411"><ele>236.0</ele><time>2026-04-06T15:00:38.541Z</time></trkpt><trkpt lat="37.5600005" lon="14.506699"><ele>236.0</ele><time>2026-04-06T15:00:39.542Z</time></trkpt><trkpt lat="37.5601402" lon="14.5063529"><ele>236.0</ele><time>2026-04-06T15:00:40.541Z</time></trkpt><trkpt lat="37.56028" lon="14.5060145"><ele>237.0</ele><time>2026-04-06T15:00:41.541Z</time></trkpt><trkpt lat="37.5604233" lon="14.5056723"><ele>238.0</ele><time>2026-04-06T15:00:42.541Z</time></trkpt><trkpt lat="37.5605685" lon="14.5053299"><ele>238.0</ele><time>2026-04-06T15:00:43.541Z</time></trkpt><trkpt lat="37.5607112" lon="14.5049876"><ele>238.0</ele><time>2026-04-06T15:00:44.542Z</time></trkpt><trkpt lat="37.5608554" lon="14.5046487"><ele>238.0</ele><time>2026-04-06T15:00:45.541Z</time></trkpt><trkpt lat="37.5609993" lon="14.5043075"><ele>238.0</ele><time>2026-04-06T15:00:46.541Z</time></trkpt><trkpt lat="37.5611418" lon="14.5039628"><ele>238.0</ele><time>2026-04-06T15:00:47.541Z</time></trkpt><trkpt lat="37.5612834" lon="14.5036174"><ele>238.0</ele><time>2026-04-06T15:00:48.541Z</time></trkpt><trkpt lat="37.5614247" lon="14.503276"><ele>238.0</ele><time>2026-04-06T15:00:49.541Z</time></trkpt><trkpt lat="37.5615638" lon="14.5029342"><ele>238.0</ele><time>2026-04-06T15:00:50.541Z</time></trkpt><trkpt lat="37.561704" lon="14.5025896"><ele>238.0</ele><time>2026-04-06T15:00:51.541Z</time></trkpt><trkpt lat="37.5618437" lon="14.5022467"><ele>238.0</ele><time>2026-04-06T15:00:52.541Z</time></trkpt><trkpt lat="37.5619836" lon="14.5019036"><ele>237.0</ele><time>2026-04-06T15:00:53.541Z</time></trkpt><trkpt lat="37.5621248" lon="14.5015603"><ele>236.0</ele><time>2026-04-06T15:00:54.541Z</time></trkpt><trkpt lat="37.5622632" lon="14.5012215"><ele>235.5</ele><time>2026-04-06T15:00:55.541Z</time></trkpt><trkpt lat="37.5624023" lon="14.50088"><ele>235.0</ele><time>2026-04-06T15:00:56.541Z</time></trkpt><trkpt lat="37.5625416" lon="14.5005405"><ele>236.0</ele><time>2026-04-06T15:00:57.541Z</time></trkpt><trkpt lat="37.5626835" lon="14.500199"><ele>237.0</ele><time>2026-04-06T15:00:58.541Z</time></trkpt><trkpt lat="37.5628261" lon="14.4998628"><ele>239.5</ele><time>2026-04-06T15:00:59.541Z</time></trkpt><trkpt lat="37.5629726" lon="14.4995246"><ele>242.0</ele><time>2026-04-06T15:01:00.541Z</time></trkpt><trkpt lat="37.5631263" lon="14.4991899"><ele>242.0</ele><time>2026-04-06T15:01:01.541Z</time></trkpt><trkpt lat="37.5632834" lon="14.4988563"><ele>242.0</ele><time>2026-04-06T15:01:02.542Z</time></trkpt><trkpt lat="37.5634403" lon="14.4985246"><ele>243.0</ele><time>2026-04-06T15:01:03.541Z</time></trkpt><trkpt lat="37.5635985" lon="14.4981929"><ele>244.0</ele><time>2026-04-06T15:01:04.542Z</time></trkpt><trkpt lat="37.5637553" lon="14.4978615"><ele>244.0</ele><time>2026-04-06T15:01:05.541Z</time></trkpt><trkpt lat="37.5639209" lon="14.4975347"><ele>244.0</ele><time>2026-04-06T15:01:06.541Z</time></trkpt><trkpt lat="37.564088" lon="14.4972124"><ele>244.5</ele><time>2026-04-06T15:01:07.541Z</time></trkpt><trkpt lat="37.5642581" lon="14.4968899"><ele>245.0</ele><time>2026-04-06T15:01:08.542Z</time></trkpt><trkpt lat="37.5644295" lon="14.4965738"><ele>245.5</ele><time>2026-04-06T15:01:09.541Z</time></trkpt><trkpt lat="37.5646051" lon="14.4962611"><ele>246.0</ele><time>2026-04-06T15:01:10.541Z</time></trkpt><trkpt lat="37.5647848" lon="14.4959444"><ele>246.0</ele><time>2026-04-06T15:01:11.542Z</time></trkpt><trkpt lat="37.5649668" lon="14.4956308"><ele>246.0</ele><time>2026-04-06T15:01:12.541Z</time></trkpt><trkpt lat="37.5651485" lon="14.4953188"><ele>246.5</ele><time>2026-04-06T15:01:13.541Z</time></trkpt><trkpt lat="37.5653382" lon="14.4950182"><ele>247.0</ele><time>2026-04-06T15:01:14.541Z</time></trkpt><trkpt lat="37.5655327" lon="14.4947183"><ele>247.0</ele><time>2026-04-06T15:01:15.542Z</time></trkpt><trkpt lat="37.565729" lon="14.4944237"><ele>247.0</ele><time>2026-04-06T15:01:16.542Z</time></trkpt><trkpt lat="37.5659281" lon="14.494134"><ele>247.0</ele><time>2026-04-06T15:01:17.541Z</time></trkpt><trkpt lat="37.566129" lon="14.4938451"><ele>247.0</ele><time>2026-04-06T15:01:18.541Z</time></trkpt><trkpt lat="37.566331" lon="14.4935574"><ele>247.5</ele><time>2026-04-06T15:01:19.542Z</time></trkpt><trkpt lat="37.5665331" lon="14.493267"><ele>248.0</ele><time>2026-04-06T15:01:20.541Z</time></trkpt><trkpt lat="37.5667356" lon="14.492984"><ele>248.0</ele><time>2026-04-06T15:01:21.541Z</time></trkpt><trkpt lat="37.5669392" lon="14.4927019"><ele>248.0</ele><time>2026-04-06T15:01:22.542Z</time></trkpt><trkpt lat="37.5671426" lon="14.492419"><ele>248.0</ele><time>2026-04-06T15:01:23.541Z</time></trkpt><trkpt lat="37.5673479" lon="14.492132"><ele>248.0</ele><time>2026-04-06T15:01:24.541Z</time></trkpt><trkpt lat="37.5675519" lon="14.491843"><ele>248.0</ele><time>2026-04-06T15:01:25.541Z</time></trkpt><trkpt lat="37.567755" lon="14.491555"><ele>248.0</ele><time>2026-04-06T15:01:26.541Z</time></trkpt><trkpt lat="37.5679563" lon="14.4912659"><ele>248.0</ele><time>2026-04-06T15:01:27.542Z</time></trkpt><trkpt lat="37.5681579" lon="14.4909727"><ele>248.0</ele><time>2026-04-06T15:01:28.541Z</time></trkpt><trkpt lat="37.5683601" lon="14.4906828"><ele>247.0</ele><time>2026-04-06T15:01:29.541Z</time></trkpt><trkpt lat="37.5685653" lon="14.4903958"><ele>246.0</ele><time>2026-04-06T15:01:30.541Z</time></trkpt><trkpt lat="37.5687711" lon="14.4901106"><ele>246.0</ele><time>2026-04-06T15:01:31.541Z</time></trkpt><trkpt lat="37.5689747" lon="14.4898226"><ele>246.0</ele><time>2026-04-06T15:01:32.541Z</time></trkpt><trkpt lat="37.569174" lon="14.4895318"><ele>246.5</ele><time>2026-04-06T15:01:33.541Z</time></trkpt><trkpt lat="37.5693689" lon="14.4892372"><ele>247.0</ele><time>2026-04-06T15:01:34.541Z</time></trkpt><trkpt lat="37.5695587" lon="14.4889331"><ele>247.5</ele><time>2026-04-06T15:01:35.541Z</time></trkpt><trkpt lat="37.5697398" lon="14.4886197"><ele>248.0</ele><time>2026-04-06T15:01:36.542Z</time></trkpt><trkpt lat="37.569909" lon="14.488299"><ele>248.0</ele><time>2026-04-06T15:01:37.541Z</time></trkpt><trkpt lat="37.5700639" lon="14.4879684"><ele>248.0</ele><time>2026-04-06T15:01:38.541Z</time></trkpt><trkpt lat="37.5702058" lon="14.4876317"><ele>246.5</ele><time>2026-04-06T15:01:39.541Z</time></trkpt><trkpt lat="37.5703396" lon="14.4872871"><ele>245.0</ele><time>2026-04-06T15:01:40.541Z</time></trkpt><trkpt lat="37.5704637" lon="14.4869302"><ele>248.0</ele><time>2026-04-06T15:01:41.542Z</time></trkpt><trkpt lat="37.5705767" lon="14.4865724"><ele>251.0</ele><time>2026-04-06T15:01:42.541Z</time></trkpt><trkpt lat="37.5706793" lon="14.4862143"><ele>251.5</ele><time>2026-04-06T15:01:43.541Z</time></trkpt><trkpt lat="37.5707717" lon="14.4858499"><ele>252.0</ele><time>2026-04-06T15:01:44.541Z</time></trkpt><trkpt lat="37.5708524" lon="14.4854752"><ele>252.5</ele><time>2026-04-06T15:01:45.541Z</time></trkpt><trkpt lat="37.5709186" lon="14.4850966"><ele>253.0</ele><time>2026-04-06T15:01:46.541Z</time></trkpt><trkpt lat="37.5709705" lon="14.4847177"><ele>252.5</ele><time>2026-04-06T15:01:47.541Z</time></trkpt><trkpt lat="37.5710069" lon="14.484336"><ele>252.0</ele><time>2026-04-06T15:01:48.541Z</time></trkpt><trkpt lat="37.5710306" lon="14.4839539"><ele>251.0</ele><time>2026-04-06T15:01:49.541Z</time></trkpt><trkpt lat="37.5710428" lon="14.4835692"><ele>250.0</ele><time>2026-04-06T15:01:50.548Z</time></trkpt><trkpt lat="37.5710437" lon="14.4831842"><ele>250.0</ele><time>2026-04-06T15:01:51.548Z</time></trkpt><trkpt lat="37.5710342" lon="14.4827994"><ele>250.0</ele><time>2026-04-06T15:01:52.549Z</time></trkpt><trkpt lat="37.5710156" lon="14.4824162"><ele>250.5</ele><time>2026-04-06T15:01:53.548Z</time></trkpt><trkpt lat="37.5709941" lon="14.4820319"><ele>251.0</ele><time>2026-04-06T15:01:54.548Z</time></trkpt><trkpt lat="37.5709719" lon="14.4816475"><ele>250.0</ele><time>2026-04-06T15:01:55.548Z</time></trkpt><trkpt lat="37.5709538" lon="14.4812629"><ele>249.0</ele><time>2026-04-06T15:01:56.548Z</time></trkpt><trkpt lat="37.5709376" lon="14.4808782"><ele>249.0</ele><time>2026-04-06T15:01:57.548Z</time></trkpt><trkpt lat="37.570921" lon="14.4804957"><ele>249.0</ele><time>2026-04-06T15:01:58.548Z</time></trkpt><trkpt lat="37.5709015" lon="14.4801125"><ele>249.0</ele><time>2026-04-06T15:01:59.548Z</time></trkpt><trkpt lat="37.5708801" lon="14.4797289"><ele>249.0</ele><time>2026-04-06T15:02:00.548Z</time></trkpt><trkpt lat="37.5708598" lon="14.4793426"><ele>249.5</ele><time>2026-04-06T15:02:01.548Z</time></trkpt><trkpt lat="37.5708403" lon="14.4789574"><ele>250.0</ele><time>2026-04-06T15:02:02.549Z</time></trkpt><trkpt lat="37.5708211" lon="14.4785739"><ele>251.0</ele><time>2026-04-06T15:02:03.548Z</time></trkpt><trkpt lat="37.5708018" lon="14.4781888"><ele>252.0</ele><time>2026-04-06T15:02:04.548Z</time></trkpt><trkpt lat="37.5707817" lon="14.4778056"><ele>253.0</ele><time>2026-04-06T15:02:05.548Z</time></trkpt><trkpt lat="37.5707634" lon="14.4774194"><ele>254.0</ele><time>2026-04-06T15:02:06.548Z</time></trkpt><trkpt lat="37.5707451" lon="14.4770353"><ele>254.5</ele><time>2026-04-06T15:02:07.549Z</time></trkpt><trkpt lat="37.5707282" lon="14.4766515"><ele>255.0</ele><time>2026-04-06T15:02:08.548Z</time></trkpt><trkpt lat="37.5707084" lon="14.476269"><ele>256.0</ele><time>2026-04-06T15:02:09.548Z</time></trkpt><trkpt lat="37.5706885" lon="14.4758854"><ele>257.0</ele><time>2026-04-06T15:02:10.548Z</time></trkpt><trkpt lat="37.5706702" lon="14.4754996"><ele>256.5</ele><time>2026-04-06T15:02:11.548Z</time></trkpt><trkpt lat="37.570653" lon="14.4751146"><ele>256.0</ele><time>2026-04-06T15:02:12.549Z</time></trkpt><trkpt lat="37.5706341" lon="14.4747289"><ele>255.5</ele><time>2026-04-06T15:02:13.548Z</time></trkpt><trkpt lat="37.570615" lon="14.4743442"><ele>255.0</ele><time>2026-04-06T15:02:14.548Z</time></trkpt><trkpt lat="37.5705941" lon="14.4739606"><ele>256.5</ele><time>2026-04-06T15:02:15.549Z</time></trkpt><trkpt lat="37.5705724" lon="14.473578"><ele>258.0</ele><time>2026-04-06T15:02:16.548Z</time></trkpt><trkpt lat="37.5705477" lon="14.4731949"><ele>261.0</ele><time>2026-04-06T15:02:17.548Z</time></trkpt><trkpt lat="37.5705258" lon="14.4728124"><ele>264.0</ele><time>2026-04-06T15:02:18.548Z</time></trkpt><trkpt lat="37.5705091" lon="14.4724276"><ele>264.5</ele><time>2026-04-06T15:02:19.548Z</time></trkpt><trkpt lat="37.5704944" lon="14.4720426"><ele>265.0</ele><time>2026-04-06T15:02:20.548Z</time></trkpt><trkpt lat="37.5704829" lon="14.4716569"><ele>265.0</ele><time>2026-04-06T15:02:21.549Z</time></trkpt><trkpt lat="37.5704704" lon="14.4712743"><ele>265.0</ele><time>2026-04-06T15:02:22.548Z</time></trkpt><trkpt lat="37.5704625" lon="14.4708924"><ele>265.0</ele><time>2026-04-06T15:02:23.548Z</time></trkpt><trkpt lat="37.5704607" lon="14.470507"><ele>265.0</ele><time>2026-04-06T15:02:24.548Z</time></trkpt><trkpt lat="37.5704675" lon="14.4701259"><ele>265.5</ele><time>2026-04-06T15:02:25.548Z</time></trkpt><trkpt lat="37.5704812" lon="14.4697427"><ele>266.0</ele><time>2026-04-06T15:02:26.549Z</time></trkpt><trkpt lat="37.5705049" lon="14.4693602"><ele>267.0</ele><time>2026-04-06T15:02:27.548Z</time></trkpt><trkpt lat="37.5705382" lon="14.4689766"><ele>268.0</ele><time>2026-04-06T15:02:28.548Z</time></trkpt><trkpt lat="37.5705776" lon="14.4685932"><ele>269.0</ele><time>2026-04-06T15:02:29.549Z</time></trkpt><trkpt lat="37.5706209" lon="14.4682102"><ele>270.0</ele><time>2026-04-06T15:02:30.548Z</time></trkpt><trkpt lat="37.5706685" lon="14.4678261"><ele>270.0</ele><time>2026-04-06T15:02:31.548Z</time></trkpt><trkpt lat="37.5707242" lon="14.4674463"><ele>270.0</ele><time>2026-04-06T15:02:32.548Z</time></trkpt><trkpt lat="37.5707856" lon="14.4670694"><ele>267.0</ele><time>2026-04-06T15:02:33.548Z</time></trkpt><trkpt lat="37.5708557" lon="14.4666978"><ele>264.0</ele><time>2026-04-06T15:02:34.548Z</time></trkpt><trkpt lat="37.5709339" lon="14.4663284"><ele>264.5</ele><time>2026-04-06T15:02:35.548Z</time></trkpt><trkpt lat="37.5710157" lon="14.465958"><ele>265.0</ele><time>2026-04-06T15:02:36.548Z</time></trkpt><trkpt lat="37.5711042" lon="14.4655902"><ele>263.5</ele><time>2026-04-06T15:02:37.548Z</time></trkpt><trkpt lat="37.571198" lon="14.4652229"><ele>262.0</ele><time>2026-04-06T15:02:38.548Z</time></trkpt><trkpt lat="37.5712959" lon="14.4648578"><ele>266.5</ele><time>2026-04-06T15:02:39.549Z</time></trkpt><trkpt lat="37.5713933" lon="14.4644902"><ele>271.0</ele><time>2026-04-06T15:02:40.548Z</time></trkpt><trkpt lat="37.5714903" lon="14.4641222"><ele>276.0</ele><time>2026-04-06T15:02:41.548Z</time></trkpt><trkpt lat="37.5715884" lon="14.4637586"><ele>281.0</ele><time>2026-04-06T15:02:42.549Z</time></trkpt><trkpt lat="37.5716837" lon="14.4633925"><ele>281.0</ele><time>2026-04-06T15:02:43.548Z</time></trkpt><trkpt lat="37.5717703" lon="14.4630207"><ele>281.0</ele><time>2026-04-06T15:02:44.548Z</time></trkpt><trkpt lat="37.5718536" lon="14.462647"><ele>281.5</ele><time>2026-04-06T15:02:45.549Z</time></trkpt><trkpt lat="37.5719329" lon="14.4622739"><ele>282.0</ele><time>2026-04-06T15:02:46.548Z</time></trkpt><trkpt lat="37.5720097" lon="14.4619011"><ele>285.5</ele><time>2026-04-06T15:02:47.548Z</time></trkpt><trkpt lat="37.5720786" lon="14.461527"><ele>289.0</ele><time>2026-04-06T15:02:48.548Z</time></trkpt><trkpt lat="37.5721444" lon="14.4611514"><ele>289.5</ele><time>2026-04-06T15:02:49.549Z</time></trkpt><trkpt lat="37.5722055" lon="14.4607743"><ele>290.0</ele><time>2026-04-06T15:02:50.549Z</time></trkpt><trkpt lat="37.5722688" lon="14.4603966"><ele>289.0</ele><time>2026-04-06T15:02:51.548Z</time></trkpt><trkpt lat="37.5723321" lon="14.4600189"><ele>288.0</ele><time>2026-04-06T15:02:52.548Z</time></trkpt><trkpt lat="37.572393" lon="14.4596422"><ele>287.5</ele><time>2026-04-06T15:02:53.548Z</time></trkpt><trkpt lat="37.5724522" lon="14.459264"><ele>287.0</ele><time>2026-04-06T15:02:54.549Z</time></trkpt><trkpt lat="37.5725045" lon="14.4588825"><ele>286.5</ele><time>2026-04-06T15:02:55.548Z</time></trkpt><trkpt lat="37.5725628" lon="14.4585029"><ele>286.0</ele><time>2026-04-06T15:02:56.548Z</time></trkpt><trkpt lat="37.5726175" lon="14.4581262"><ele>284.0</ele><time>2026-04-06T15:02:57.548Z</time></trkpt><trkpt lat="37.5726762" lon="14.4577491"><ele>282.0</ele><time>2026-04-06T15:02:58.548Z</time></trkpt><trkpt lat="37.5727318" lon="14.4573711"><ele>282.5</ele><time>2026-04-06T15:02:59.548Z</time></trkpt><trkpt lat="37.5727858" lon="14.4569929"><ele>283.0</ele><time>2026-04-06T15:03:00.548Z</time></trkpt><trkpt lat="37.5728401" lon="14.4566141"><ele>284.0</ele><time>2026-04-06T15:03:01.548Z</time></trkpt><trkpt lat="37.5728965" lon="14.456234"><ele>285.0</ele><time>2026-04-06T15:03:02.548Z</time></trkpt><trkpt lat="37.5729532" lon="14.4558546"><ele>285.0</ele><time>2026-04-06T15:03:03.549Z</time></trkpt><trkpt lat="37.5730108" lon="14.4554793"><ele>285.0</ele><time>2026-04-06T15:03:04.548Z</time></trkpt><trkpt lat="37.5730665" lon="14.4551015"><ele>284.5</ele><time>2026-04-06T15:03:05.548Z</time></trkpt><trkpt lat="37.5731204" lon="14.4547212"><ele>284.0</ele><time>2026-04-06T15:03:06.548Z</time></trkpt><trkpt lat="37.5731736" lon="14.454347"><ele>284.0</ele><time>2026-04-06T15:03:07.548Z</time></trkpt><trkpt lat="37.5732292" lon="14.4539695"><ele>284.0</ele><time>2026-04-06T15:03:08.548Z</time></trkpt><trkpt lat="37.5732849" lon="14.453591"><ele>281.0</ele><time>2026-04-06T15:03:09.548Z</time></trkpt><trkpt lat="37.5733434" lon="14.4532107"><ele>278.0</ele><time>2026-04-06T15:03:10.548Z</time></trkpt><trkpt lat="37.5734006" lon="14.4528301"><ele>273.5</ele><time>2026-04-06T15:03:11.548Z</time></trkpt><trkpt lat="37.573455" lon="14.4524504"><ele>269.0</ele><time>2026-04-06T15:03:12.548Z</time></trkpt><trkpt lat="37.5735073" lon="14.4520715"><ele>268.5</ele><time>2026-04-06T15:03:13.548Z</time></trkpt><trkpt lat="37.5735613" lon="14.4516949"><ele>268.0</ele><time>2026-04-06T15:03:14.548Z</time></trkpt><trkpt lat="37.5736154" lon="14.4513185"><ele>267.5</ele><time>2026-04-06T15:03:15.548Z</time></trkpt><trkpt lat="37.5736683" lon="14.4509397"><ele>267.0</ele><time>2026-04-06T15:03:16.548Z</time></trkpt><trkpt lat="37.5737211" lon="14.4505659"><ele>265.0</ele><time>2026-04-06T15:03:17.548Z</time></trkpt><trkpt lat="37.5737715" lon="14.4501882"><ele>263.0</ele><time>2026-04-06T15:03:18.548Z</time></trkpt><trkpt lat="37.5738241" lon="14.4498054"><ele>261.5</ele><time>2026-04-06T15:03:19.548Z</time></trkpt><trkpt lat="37.5738772" lon="14.4494255"><ele>260.0</ele><time>2026-04-06T15:03:20.548Z</time></trkpt><trkpt lat="37.573932" lon="14.4490433"><ele>260.0</ele><time>2026-04-06T15:03:21.548Z</time></trkpt><trkpt lat="37.5739907" lon="14.4486647"><ele>260.0</ele><time>2026-04-06T15:03:22.548Z</time></trkpt><trkpt lat="37.5740475" lon="14.4482857"><ele>261.5</ele><time>2026-04-06T15:03:23.549Z</time></trkpt><trkpt lat="37.5741064" lon="14.4479079"><ele>263.0</ele><time>2026-04-06T15:03:24.549Z</time></trkpt><trkpt lat="37.5741713" lon="14.4475309"><ele>263.0</ele><time>2026-04-06T15:03:25.548Z</time></trkpt><trkpt lat="37.5742446" lon="14.4471558"><ele>263.0</ele><time>2026-04-06T15:03:26.548Z</time></trkpt><trkpt lat="37.5743262" lon="14.4467881"><ele>265.0</ele><time>2026-04-06T15:03:27.549Z</time></trkpt><trkpt lat="37.5744066" lon="14.4464471"><ele>267.0</ele><time>2026-04-06T15:03:28.548Z</time></trkpt><trkpt lat="37.5744864" lon="14.4461234"><ele>267.5</ele><time>2026-04-06T15:03:29.548Z</time></trkpt><trkpt lat="37.574562" lon="14.4458317"><ele>268.0</ele><time>2026-04-06T15:03:30.548Z</time></trkpt><trkpt lat="37.5746361" lon="14.4455474"><ele>268.5</ele><time>2026-04-06T15:03:31.548Z</time></trkpt><trkpt lat="37.574712" lon="14.4452558"><ele>269.0</ele><time>2026-04-06T15:03:32.548Z</time></trkpt><trkpt lat="37.5747863" lon="14.4449679"><ele>269.0</ele><time>2026-04-06T15:03:33.548Z</time></trkpt><trkpt lat="37.574863" lon="14.4446805"><ele>269.0</ele><time>2026-04-06T15:03:34.549Z</time></trkpt><trkpt lat="37.5749396" lon="14.4443908"><ele>272.0</ele><time>2026-04-06T15:03:35.548Z</time></trkpt><trkpt lat="37.575018" lon="14.444104"><ele>275.0</ele><time>2026-04-06T15:03:36.548Z</time></trkpt><trkpt lat="37.5750984" lon="14.4438209"><ele>273.0</ele><time>2026-04-06T15:03:37.548Z</time></trkpt><trkpt lat="37.5751751" lon="14.4435349"><ele>271.0</ele><time>2026-04-06T15:03:38.548Z</time></trkpt><trkpt lat="37.5752542" lon="14.4432508"><ele>270.0</ele><time>2026-04-06T15:03:39.549Z</time></trkpt><trkpt lat="37.5753319" lon="14.4429603"><ele>269.0</ele><time>2026-04-06T15:03:40.549Z</time></trkpt><trkpt lat="37.575409" lon="14.4426704"><ele>267.5</ele><time>2026-04-06T15:03:41.548Z</time></trkpt><trkpt lat="37.5754859" lon="14.4423788"><ele>266.0</ele><time>2026-04-06T15:03:42.548Z</time></trkpt><trkpt lat="37.5755647" lon="14.4420855"><ele>266.0</ele><time>2026-04-06T15:03:43.548Z</time></trkpt><trkpt lat="37.575643" lon="14.441793"><ele>266.0</ele><time>2026-04-06T15:03:44.549Z</time></trkpt><trkpt lat="37.5757229" lon="14.4414998"><ele>266.5</ele><time>2026-04-06T15:03:45.548Z</time></trkpt><trkpt lat="37.5758041" lon="14.4412084"><ele>267.0</ele><time>2026-04-06T15:03:46.548Z</time></trkpt><trkpt lat="37.5758837" lon="14.440926"><ele>267.0</ele><time>2026-04-06T15:03:47.548Z</time></trkpt><trkpt lat="37.5759568" lon="14.4406436"><ele>267.0</ele><time>2026-04-06T15:03:48.549Z</time></trkpt><trkpt lat="37.5760297" lon="14.4403617"><ele>267.0</ele><time>2026-04-06T15:03:49.549Z</time></trkpt><trkpt lat="37.5761012" lon="14.4400843"><ele>267.0</ele><time>2026-04-06T15:03:50.548Z</time></trkpt><trkpt lat="37.5761738" lon="14.4398105"><ele>267.0</ele><time>2026-04-06T15:03:51.548Z</time></trkpt><trkpt lat="37.5762485" lon="14.4395368"><ele>267.0</ele><time>2026-04-06T15:03:52.549Z</time></trkpt><trkpt lat="37.5763245" lon="14.4392583"><ele>267.0</ele><time>2026-04-06T15:03:53.548Z</time></trkpt><trkpt lat="37.5763997" lon="14.4389716"><ele>267.0</ele><time>2026-04-06T15:03:54.548Z</time></trkpt><trkpt lat="37.5764737" lon="14.438682"><ele>267.0</ele><time>2026-04-06T15:03:55.548Z</time></trkpt><trkpt lat="37.5765452" lon="14.4383823"><ele>267.0</ele><time>2026-04-06T15:03:56.549Z</time></trkpt><trkpt lat="37.5766118" lon="14.4380786"><ele>268.5</ele><time>2026-04-06T15:03:57.548Z</time></trkpt><trkpt lat="37.5766716" lon="14.4377759"><ele>270.0</ele><time>2026-04-06T15:03:58.549Z</time></trkpt><trkpt lat="37.576725" lon="14.4374753"><ele>270.0</ele><time>2026-04-06T15:03:59.549Z</time></trkpt><trkpt lat="37.5767721" lon="14.4371692"><ele>270.0</ele><time>2026-04-06T15:04:00.548Z</time></trkpt><trkpt lat="37.5768177" lon="14.4368608"><ele>272.5</ele><time>2026-04-06T15:04:01.548Z</time></trkpt><trkpt lat="37.5768573" lon="14.4365511"><ele>275.0</ele><time>2026-04-06T15:04:02.548Z</time></trkpt><trkpt lat="37.5768936" lon="14.436236"><ele>278.5</ele><time>2026-04-06T15:04:03.548Z</time></trkpt><trkpt lat="37.5769247" lon="14.4359116"><ele>282.0</ele><time>2026-04-06T15:04:04.548Z</time></trkpt><trkpt lat="37.5769514" lon="14.4355771"><ele>282.0</ele><time>2026-04-06T15:04:05.548Z</time></trkpt><trkpt lat="37.5769725" lon="14.435234"><ele>282.0</ele><time>2026-04-06T15:04:06.549Z</time></trkpt><trkpt lat="37.5769886" lon="14.4348848"><ele>281.0</ele><time>2026-04-06T15:04:07.548Z</time></trkpt><trkpt lat="37.5769961" lon="14.4345281"><ele>280.0</ele><time>2026-04-06T15:04:08.548Z</time></trkpt><trkpt lat="37.5769961" lon="14.434164"><ele>281.0</ele><time>2026-04-06T15:04:09.548Z</time></trkpt><trkpt lat="37.5769932" lon="14.4337938"><ele>282.0</ele><time>2026-04-06T15:04:10.549Z</time></trkpt><trkpt lat="37.5769867" lon="14.4334147"><ele>282.0</ele><time>2026-04-06T15:04:11.548Z</time></trkpt><trkpt lat="37.5769749" lon="14.4330354"><ele>282.0</ele><time>2026-04-06T15:04:12.548Z</time></trkpt><trkpt lat="37.5769528" lon="14.4326515"><ele>282.5</ele><time>2026-04-06T15:04:13.548Z</time></trkpt><trkpt lat="37.5769196" lon="14.4322703"><ele>283.0</ele><time>2026-04-06T15:04:14.549Z</time></trkpt><trkpt lat="37.576877" lon="14.4318897"><ele>283.0</ele><time>2026-04-06T15:04:15.549Z</time></trkpt><trkpt lat="37.5768242" lon="14.4315119"><ele>283.0</ele><time>2026-04-06T15:04:16.548Z</time></trkpt><trkpt lat="37.5767636" lon="14.431132"><ele>282.5</ele><time>2026-04-06T15:04:17.548Z</time></trkpt><trkpt lat="37.5766973" lon="14.4307562"><ele>282.0</ele><time>2026-04-06T15:04:18.548Z</time></trkpt><trkpt lat="37.5766297" lon="14.4303824"><ele>281.5</ele><time>2026-04-06T15:04:19.548Z</time></trkpt><trkpt lat="37.5765621" lon="14.4300074"><ele>281.0</ele><time>2026-04-06T15:04:20.548Z</time></trkpt><trkpt lat="37.5764933" lon="14.4296322"><ele>279.5</ele><time>2026-04-06T15:04:21.548Z</time></trkpt><trkpt lat="37.576428" lon="14.42926"><ele>278.0</ele><time>2026-04-06T15:04:22.548Z</time></trkpt><trkpt lat="37.5763563" lon="14.4288876"><ele>278.5</ele><time>2026-04-06T15:04:23.548Z</time></trkpt><trkpt lat="37.57628" lon="14.4285178"><ele>279.0</ele><time>2026-04-06T15:04:24.549Z</time></trkpt><trkpt lat="37.5761954" lon="14.4281468"><ele>285.0</ele><time>2026-04-06T15:04:25.548Z</time></trkpt><trkpt lat="37.5761063" lon="14.4277766"><ele>291.0</ele><time>2026-04-06T15:04:26.548Z</time></trkpt><trkpt lat="37.5760121" lon="14.4274086"><ele>291.5</ele><time>2026-04-06T15:04:27.549Z</time></trkpt><trkpt lat="37.5759084" lon="14.4270432"><ele>292.0</ele><time>2026-04-06T15:04:28.548Z</time></trkpt><trkpt lat="37.5757962" lon="14.4266867"><ele>292.0</ele><time>2026-04-06T15:04:29.548Z</time></trkpt><trkpt lat="37.5756768" lon="14.4263319"><ele>292.0</ele><time>2026-04-06T15:04:30.548Z</time></trkpt><trkpt lat="37.5755468" lon="14.4259825"><ele>294.5</ele><time>2026-04-06T15:04:31.548Z</time></trkpt><trkpt lat="37.5754087" lon="14.4256385"><ele>297.0</ele><time>2026-04-06T15:04:32.549Z</time></trkpt><trkpt lat="37.5752597" lon="14.4253036"><ele>297.0</ele><time>2026-04-06T15:04:33.548Z</time></trkpt><trkpt lat="37.575107" lon="14.4249704"><ele>297.0</ele><time>2026-04-06T15:04:34.548Z</time></trkpt><trkpt lat="37.5749458" lon="14.4246442"><ele>299.0</ele><time>2026-04-06T15:04:35.549Z</time></trkpt><trkpt lat="37.5747817" lon="14.4243203"><ele>301.0</ele><time>2026-04-06T15:04:36.549Z</time></trkpt><trkpt lat="37.5746165" lon="14.4239972"><ele>296.5</ele><time>2026-04-06T15:04:37.548Z</time></trkpt><trkpt lat="37.5744445" lon="14.4236775"><ele>292.0</ele><time>2026-04-06T15:04:38.548Z</time></trkpt><trkpt lat="37.5742731" lon="14.423358"><ele>292.0</ele><time>2026-04-06T15:04:39.548Z</time></trkpt><trkpt lat="37.5740981" lon="14.4230386"><ele>292.0</ele><time>2026-04-06T15:04:40.548Z</time></trkpt><trkpt lat="37.5739207" lon="14.4227272"><ele>294.0</ele><time>2026-04-06T15:04:41.548Z</time></trkpt><trkpt lat="37.5737436" lon="14.4224138"><ele>296.0</ele><time>2026-04-06T15:04:42.549Z</time></trkpt><trkpt lat="37.5735659" lon="14.4220978"><ele>299.0</ele><time>2026-04-06T15:04:43.549Z</time></trkpt><trkpt lat="37.5733846" lon="14.4217793"><ele>302.0</ele><time>2026-04-06T15:04:44.548Z</time></trkpt><trkpt lat="37.5732076" lon="14.4214601"><ele>303.5</ele><time>2026-04-06T15:04:45.548Z</time></trkpt><trkpt lat="37.5730289" lon="14.4211449"><ele>305.0</ele><time>2026-04-06T15:04:46.548Z</time></trkpt><trkpt lat="37.5728539" lon="14.4208264"><ele>301.5</ele><time>2026-04-06T15:04:47.548Z</time></trkpt><trkpt lat="37.5726762" lon="14.4205124"><ele>298.0</ele><time>2026-04-06T15:04:48.548Z</time></trkpt><trkpt lat="37.5724995" lon="14.4202002"><ele>298.0</ele><time>2026-04-06T15:04:49.548Z</time></trkpt><trkpt lat="37.572324" lon="14.4198884"><ele>298.0</ele><time>2026-04-06T15:04:50.548Z</time></trkpt><trkpt lat="37.5721461" lon="14.4195781"><ele>293.0</ele><time>2026-04-06T15:04:51.548Z</time></trkpt><trkpt lat="37.5717992" lon="14.4189416"><ele>294.0</ele><time>2026-04-06T15:04:53.549Z</time></trkpt><trkpt lat="37.5716238" lon="14.4186238"><ele>295.0</ele><time>2026-04-06T15:04:54.549Z</time></trkpt><trkpt lat="37.5714508" lon="14.4183062"><ele>295.0</ele><time>2026-04-06T15:04:55.548Z</time></trkpt><trkpt lat="37.5712761" lon="14.4179934"><ele>295.0</ele><time>2026-04-06T15:04:56.548Z</time></trkpt><trkpt lat="37.5711064" lon="14.4177011"><ele>297.0</ele><time>2026-04-06T15:04:57.548Z</time></trkpt><trkpt lat="37.5709471" lon="14.4174241"><ele>299.0</ele><time>2026-04-06T15:04:58.548Z</time></trkpt><trkpt lat="37.5707963" lon="14.4171633"><ele>299.5</ele><time>2026-04-06T15:04:59.548Z</time></trkpt><trkpt lat="37.5706555" lon="14.4169142"><ele>300.0</ele><time>2026-04-06T15:05:00.548Z</time></trkpt><trkpt lat="37.5705193" lon="14.4166693"><ele>300.0</ele><time>2026-04-06T15:05:01.548Z</time></trkpt><trkpt lat="37.5703812" lon="14.4164282"><ele>300.0</ele><time>2026-04-06T15:05:02.548Z</time></trkpt><trkpt lat="37.570244" lon="14.4161901"><ele>302.0</ele><time>2026-04-06T15:05:03.548Z</time></trkpt><trkpt lat="37.5701093" lon="14.4159549"><ele>304.0</ele><time>2026-04-06T15:05:04.548Z</time></trkpt><trkpt lat="37.5699753" lon="14.415722"><ele>307.5</ele><time>2026-04-06T15:05:05.548Z</time></trkpt><trkpt lat="37.5698445" lon="14.415483"><ele>311.0</ele><time>2026-04-06T15:05:06.548Z</time></trkpt><trkpt lat="37.5697139" lon="14.4152423"><ele>311.0</ele><time>2026-04-06T15:05:07.548Z</time></trkpt><trkpt lat="37.5695811" lon="14.4149976"><ele>311.0</ele><time>2026-04-06T15:05:08.548Z</time></trkpt><trkpt lat="37.5694445" lon="14.4147481"><ele>304.0</ele><time>2026-04-06T15:05:09.548Z</time></trkpt><trkpt lat="37.5693016" lon="14.4144922"><ele>297.0</ele><time>2026-04-06T15:05:10.548Z</time></trkpt><trkpt lat="37.569152" lon="14.4142261"><ele>297.0</ele><time>2026-04-06T15:05:11.548Z</time></trkpt><trkpt lat="37.5689971" lon="14.413949"><ele>297.0</ele><time>2026-04-06T15:05:12.548Z</time></trkpt><trkpt lat="37.5688403" lon="14.4136727"><ele>299.5</ele><time>2026-04-06T15:05:13.548Z</time></trkpt><trkpt lat="37.5686864" lon="14.4133897"><ele>302.0</ele><time>2026-04-06T15:05:14.549Z</time></trkpt><trkpt lat="37.5685363" lon="14.4131029"><ele>303.0</ele><time>2026-04-06T15:05:15.548Z</time></trkpt><trkpt lat="37.5683889" lon="14.4128039"><ele>304.0</ele><time>2026-04-06T15:05:16.548Z</time></trkpt><trkpt lat="37.5682441" lon="14.4124959"><ele>304.0</ele><time>2026-04-06T15:05:17.549Z</time></trkpt><trkpt lat="37.5681058" lon="14.4121742"><ele>304.0</ele><time>2026-04-06T15:05:18.548Z</time></trkpt><trkpt lat="37.5679771" lon="14.4118378"><ele>307.0</ele><time>2026-04-06T15:05:19.548Z</time></trkpt><trkpt lat="37.567859" lon="14.4114862"><ele>310.0</ele><time>2026-04-06T15:05:20.548Z</time></trkpt><trkpt lat="37.5677469" lon="14.4111322"><ele>310.0</ele><time>2026-04-06T15:05:21.548Z</time></trkpt><trkpt lat="37.5676478" lon="14.4107729"><ele>310.0</ele><time>2026-04-06T15:05:22.548Z</time></trkpt><trkpt lat="37.5675578" lon="14.4104053"><ele>310.0</ele><time>2026-04-06T15:05:23.548Z</time></trkpt><trkpt lat="37.5674679" lon="14.4100352"><ele>310.0</ele><time>2026-04-06T15:05:24.548Z</time></trkpt><trkpt lat="37.5673788" lon="14.4096659"><ele>309.0</ele><time>2026-04-06T15:05:25.549Z</time></trkpt><trkpt lat="37.5672936" lon="14.4092959"><ele>308.0</ele><time>2026-04-06T15:05:26.549Z</time></trkpt><trkpt lat="37.5672112" lon="14.4089229"><ele>310.0</ele><time>2026-04-06T15:05:27.549Z</time></trkpt><trkpt lat="37.5671289" lon="14.4085494"><ele>312.0</ele><time>2026-04-06T15:05:28.548Z</time></trkpt><trkpt lat="37.5670436" lon="14.4081792"><ele>312.0</ele><time>2026-04-06T15:05:29.548Z</time></trkpt><trkpt lat="37.566956" lon="14.4078073"><ele>312.0</ele><time>2026-04-06T15:05:30.548Z</time></trkpt><trkpt lat="37.5668698" lon="14.4074389"><ele>312.0</ele><time>2026-04-06T15:05:31.548Z</time></trkpt><trkpt lat="37.5667817" lon="14.4070703"><ele>312.0</ele><time>2026-04-06T15:05:32.548Z</time></trkpt><trkpt lat="37.5666968" lon="14.4066999"><ele>312.0</ele><time>2026-04-06T15:05:33.548Z</time></trkpt><trkpt lat="37.5666165" lon="14.4063305"><ele>312.0</ele><time>2026-04-06T15:05:34.549Z</time></trkpt><trkpt lat="37.566536" lon="14.405959"><ele>312.0</ele><time>2026-04-06T15:05:35.548Z</time></trkpt><trkpt lat="37.5664531" lon="14.4055865"><ele>312.0</ele><time>2026-04-06T15:05:36.549Z</time></trkpt><trkpt lat="37.5663689" lon="14.4052146"><ele>311.5</ele><time>2026-04-06T15:05:37.548Z</time></trkpt><trkpt lat="37.5662818" lon="14.4048469"><ele>311.0</ele><time>2026-04-06T15:05:38.548Z</time></trkpt><trkpt lat="37.5661935" lon="14.4044754"><ele>311.0</ele><time>2026-04-06T15:05:39.548Z</time></trkpt><trkpt lat="37.5661084" lon="14.4041071"><ele>311.0</ele><time>2026-04-06T15:05:40.548Z</time></trkpt><trkpt lat="37.566027" lon="14.4037387"><ele>312.0</ele><time>2026-04-06T15:05:41.548Z</time></trkpt><trkpt lat="37.5659435" lon="14.4033695"><ele>313.0</ele><time>2026-04-06T15:05:42.548Z</time></trkpt><trkpt lat="37.5658615" lon="14.4030031"><ele>316.5</ele><time>2026-04-06T15:05:43.548Z</time></trkpt><trkpt lat="37.5657801" lon="14.4026331"><ele>320.0</ele><time>2026-04-06T15:05:44.548Z</time></trkpt><trkpt lat="37.5656986" lon="14.4022576"><ele>321.0</ele><time>2026-04-06T15:05:45.548Z</time></trkpt><trkpt lat="37.5656124" lon="14.4018813"><ele>322.0</ele><time>2026-04-06T15:05:46.549Z</time></trkpt><trkpt lat="37.5655264" lon="14.4015086"><ele>321.5</ele><time>2026-04-06T15:05:47.549Z</time></trkpt><trkpt lat="37.5654388" lon="14.4011392"><ele>321.0</ele><time>2026-04-06T15:05:48.549Z</time></trkpt><trkpt lat="37.5653525" lon="14.4007711"><ele>322.0</ele><time>2026-04-06T15:05:49.548Z</time></trkpt><trkpt lat="37.5652684" lon="14.4003983"><ele>323.0</ele><time>2026-04-06T15:05:50.548Z</time></trkpt><trkpt lat="37.5651847" lon="14.4000296"><ele>323.0</ele><time>2026-04-06T15:05:51.549Z</time></trkpt><trkpt lat="37.5651041" lon="14.3996588"><ele>323.0</ele><time>2026-04-06T15:05:52.548Z</time></trkpt><trkpt lat="37.5650214" lon="14.3992865"><ele>323.0</ele><time>2026-04-06T15:05:53.548Z</time></trkpt><trkpt lat="37.5649377" lon="14.398916"><ele>323.0</ele><time>2026-04-06T15:05:54.548Z</time></trkpt><trkpt lat="37.564856" lon="14.3985489"><ele>324.0</ele><time>2026-04-06T15:05:55.548Z</time></trkpt><trkpt lat="37.5647746" lon="14.3981809"><ele>325.0</ele><time>2026-04-06T15:05:56.549Z</time></trkpt><trkpt lat="37.5646903" lon="14.3978102"><ele>325.5</ele><time>2026-04-06T15:05:57.548Z</time></trkpt><trkpt lat="37.5646059" lon="14.397438"><ele>326.0</ele><time>2026-04-06T15:05:58.549Z</time></trkpt><trkpt lat="37.5645253" lon="14.3970644"><ele>325.0</ele><time>2026-04-06T15:05:59.548Z</time></trkpt><trkpt lat="37.5644403" lon="14.3966941"><ele>324.0</ele><time>2026-04-06T15:06:00.548Z</time></trkpt><trkpt lat="37.5643612" lon="14.3963194"><ele>327.0</ele><time>2026-04-06T15:06:01.549Z</time></trkpt><trkpt lat="37.5642801" lon="14.3959494"><ele>330.0</ele><time>2026-04-06T15:06:02.548Z</time></trkpt><trkpt lat="37.5642036" lon="14.3955777"><ele>332.5</ele><time>2026-04-06T15:06:03.549Z</time></trkpt><trkpt lat="37.5641254" lon="14.3952037"><ele>335.0</ele><time>2026-04-06T15:06:04.549Z</time></trkpt><trkpt lat="37.564043" lon="14.3948329"><ele>333.5</ele><time>2026-04-06T15:06:05.548Z</time></trkpt><trkpt lat="37.5639596" lon="14.3944606"><ele>332.0</ele><time>2026-04-06T15:06:06.549Z</time></trkpt><trkpt lat="37.5638745" lon="14.3940917"><ele>332.5</ele><time>2026-04-06T15:06:07.548Z</time></trkpt><trkpt lat="37.5637882" lon="14.3937193"><ele>333.0</ele><time>2026-04-06T15:06:08.549Z</time></trkpt><trkpt lat="37.5637063" lon="14.3933451"><ele>334.0</ele><time>2026-04-06T15:06:09.548Z</time></trkpt><trkpt lat="37.5636214" lon="14.392974"><ele>335.0</ele><time>2026-04-06T15:06:10.549Z</time></trkpt><trkpt lat="37.5635361" lon="14.3926044"><ele>335.0</ele><time>2026-04-06T15:06:11.549Z</time></trkpt><trkpt lat="37.5634487" lon="14.3922381"><ele>335.0</ele><time>2026-04-06T15:06:12.548Z</time></trkpt><trkpt lat="37.5633613" lon="14.3918743"><ele>336.0</ele><time>2026-04-06T15:06:13.548Z</time></trkpt><trkpt lat="37.5632743" lon="14.3915099"><ele>337.0</ele><time>2026-04-06T15:06:14.548Z</time></trkpt><trkpt lat="37.5631857" lon="14.3911414"><ele>338.5</ele><time>2026-04-06T15:06:15.548Z</time></trkpt><trkpt lat="37.5631019" lon="14.3907752"><ele>340.0</ele><time>2026-04-06T15:06:16.549Z</time></trkpt><trkpt lat="37.5630182" lon="14.3904065"><ele>340.5</ele><time>2026-04-06T15:06:17.549Z</time></trkpt><trkpt lat="37.562936" lon="14.3900386"><ele>341.0</ele><time>2026-04-06T15:06:18.549Z</time></trkpt><trkpt lat="37.5628541" lon="14.3896705"><ele>341.0</ele><time>2026-04-06T15:06:19.548Z</time></trkpt><trkpt lat="37.5627721" lon="14.3892998"><ele>341.0</ele><time>2026-04-06T15:06:20.549Z</time></trkpt><trkpt lat="37.5626892" lon="14.3889279"><ele>344.0</ele><time>2026-04-06T15:06:21.548Z</time></trkpt><trkpt lat="37.5626071" lon="14.3885568"><ele>347.0</ele><time>2026-04-06T15:06:22.548Z</time></trkpt><trkpt lat="37.5625241" lon="14.3881836"><ele>346.5</ele><time>2026-04-06T15:06:23.548Z</time></trkpt><trkpt lat="37.5624425" lon="14.3878098"><ele>346.0</ele><time>2026-04-06T15:06:24.548Z</time></trkpt><trkpt lat="37.5623603" lon="14.3874388"><ele>347.0</ele><time>2026-04-06T15:06:25.548Z</time></trkpt><trkpt lat="37.5622798" lon="14.3870688"><ele>348.0</ele><time>2026-04-06T15:06:26.549Z</time></trkpt><trkpt lat="37.5621965" lon="14.3866983"><ele>349.0</ele><time>2026-04-06T15:06:27.548Z</time></trkpt><trkpt lat="37.5621164" lon="14.3863272"><ele>350.0</ele><time>2026-04-06T15:06:28.548Z</time></trkpt><trkpt lat="37.5620377" lon="14.3859549"><ele>353.0</ele><time>2026-04-06T15:06:29.548Z</time></trkpt><trkpt lat="37.5619583" lon="14.3855851"><ele>356.0</ele><time>2026-04-06T15:06:30.548Z</time></trkpt><trkpt lat="37.5618785" lon="14.3852152"><ele>357.5</ele><time>2026-04-06T15:06:31.549Z</time></trkpt><trkpt lat="37.561797" lon="14.3848453"><ele>359.0</ele><time>2026-04-06T15:06:32.548Z</time></trkpt><trkpt lat="37.5617161" lon="14.3844771"><ele>362.0</ele><time>2026-04-06T15:06:33.548Z</time></trkpt><trkpt lat="37.5616315" lon="14.3841092"><ele>365.0</ele><time>2026-04-06T15:06:34.548Z</time></trkpt><trkpt lat="37.5615478" lon="14.383738"><ele>367.0</ele><time>2026-04-06T15:06:35.548Z</time></trkpt><trkpt lat="37.5614677" lon="14.3833638"><ele>369.0</ele><time>2026-04-06T15:06:36.548Z</time></trkpt><trkpt lat="37.5613881" lon="14.3829897"><ele>372.5</ele><time>2026-04-06T15:06:37.548Z</time></trkpt><trkpt lat="37.5613091" lon="14.3826136"><ele>376.0</ele><time>2026-04-06T15:06:38.548Z</time></trkpt><trkpt lat="37.5612274" lon="14.3822409"><ele>372.0</ele><time>2026-04-06T15:06:39.548Z</time></trkpt><trkpt lat="37.5611401" lon="14.3818706"><ele>368.0</ele><time>2026-04-06T15:06:40.548Z</time></trkpt><trkpt lat="37.5610547" lon="14.3814987"><ele>367.0</ele><time>2026-04-06T15:06:41.548Z</time></trkpt><trkpt lat="37.5609724" lon="14.381128"><ele>366.0</ele><time>2026-04-06T15:06:42.548Z</time></trkpt><trkpt lat="37.560896" lon="14.3807562"><ele>369.5</ele><time>2026-04-06T15:06:43.548Z</time></trkpt><trkpt lat="37.560826" lon="14.3803825"><ele>373.0</ele><time>2026-04-06T15:06:44.548Z</time></trkpt><trkpt lat="37.560771" lon="14.380005"><ele>375.5</ele><time>2026-04-06T15:06:45.548Z</time></trkpt><trkpt lat="37.5607301" lon="14.3796238"><ele>378.0</ele><time>2026-04-06T15:06:46.548Z</time></trkpt><trkpt lat="37.5607071" lon="14.3792392"><ele>378.0</ele><time>2026-04-06T15:06:47.548Z</time></trkpt><trkpt lat="37.5606968" lon="14.37885"><ele>378.0</ele><time>2026-04-06T15:06:48.548Z</time></trkpt><trkpt lat="37.5606975" lon="14.3784652"><ele>378.0</ele><time>2026-04-06T15:06:49.548Z</time></trkpt><trkpt lat="37.5607111" lon="14.3780834"><ele>378.0</ele><time>2026-04-06T15:06:50.549Z</time></trkpt><trkpt lat="37.5607391" lon="14.3777013"><ele>380.5</ele><time>2026-04-06T15:06:51.548Z</time></trkpt><trkpt lat="37.560786" lon="14.3773247"><ele>383.0</ele><time>2026-04-06T15:06:52.548Z</time></trkpt><trkpt lat="37.5608413" lon="14.3769468"><ele>384.0</ele><time>2026-04-06T15:06:53.549Z</time></trkpt><trkpt lat="37.5609114" lon="14.3765698"><ele>385.0</ele><time>2026-04-06T15:06:54.549Z</time></trkpt><trkpt lat="37.5609968" lon="14.3762081"><ele>385.0</ele><time>2026-04-06T15:06:55.548Z</time></trkpt><trkpt lat="37.5610933" lon="14.3758396"><ele>385.0</ele><time>2026-04-06T15:06:56.548Z</time></trkpt><trkpt lat="37.5612028" lon="14.3754801"><ele>386.0</ele><time>2026-04-06T15:06:57.548Z</time></trkpt><trkpt lat="37.5613221" lon="14.3751251"><ele>387.0</ele><time>2026-04-06T15:06:58.548Z</time></trkpt><trkpt lat="37.5614452" lon="14.3747722"><ele>385.0</ele><time>2026-04-06T15:06:59.549Z</time></trkpt><trkpt lat="37.5615683" lon="14.3744257"><ele>383.0</ele><time>2026-04-06T15:07:00.548Z</time></trkpt><trkpt lat="37.5616921" lon="14.3740755"><ele>379.0</ele><time>2026-04-06T15:07:01.548Z</time></trkpt><trkpt lat="37.5618159" lon="14.3737227"><ele>375.0</ele><time>2026-04-06T15:07:02.548Z</time></trkpt><trkpt lat="37.5619404" lon="14.3733731"><ele>375.5</ele><time>2026-04-06T15:07:03.548Z</time></trkpt><trkpt lat="37.5620625" lon="14.3730229"><ele>376.0</ele><time>2026-04-06T15:07:04.548Z</time></trkpt><trkpt lat="37.5621864" lon="14.3726689"><ele>376.0</ele><time>2026-04-06T15:07:05.549Z</time></trkpt><trkpt lat="37.5623064" lon="14.3723203"><ele>376.0</ele><time>2026-04-06T15:07:06.548Z</time></trkpt><trkpt lat="37.562427" lon="14.3719672"><ele>379.5</ele><time>2026-04-06T15:07:07.549Z</time></trkpt><trkpt lat="37.562552" lon="14.3716155"><ele>383.0</ele><time>2026-04-06T15:07:08.548Z</time></trkpt><trkpt lat="37.5626801" lon="14.3712646"><ele>385.5</ele><time>2026-04-06T15:07:09.549Z</time></trkpt><trkpt lat="37.562807" lon="14.3709096"><ele>388.0</ele><time>2026-04-06T15:07:10.549Z</time></trkpt><trkpt lat="37.562935" lon="14.3705561"><ele>391.0</ele><time>2026-04-06T15:07:11.548Z</time></trkpt><trkpt lat="37.5630628" lon="14.370207"><ele>394.0</ele><time>2026-04-06T15:07:12.549Z</time></trkpt><trkpt lat="37.5631871" lon="14.3698558"><ele>395.5</ele><time>2026-04-06T15:07:13.548Z</time></trkpt><trkpt lat="37.5633136" lon="14.3695084"><ele>397.0</ele><time>2026-04-06T15:07:14.549Z</time></trkpt><trkpt lat="37.563443" lon="14.369155"><ele>396.5</ele><time>2026-04-06T15:07:15.549Z</time></trkpt><trkpt lat="37.5635693" lon="14.3688075"><ele>396.0</ele><time>2026-04-06T15:07:16.548Z</time></trkpt><trkpt lat="37.5637006" lon="14.3684635"><ele>396.0</ele><time>2026-04-06T15:07:17.548Z</time></trkpt><trkpt lat="37.5638277" lon="14.3681133"><ele>396.0</ele><time>2026-04-06T15:07:18.549Z</time></trkpt><trkpt lat="37.5639533" lon="14.3677649"><ele>394.5</ele><time>2026-04-06T15:07:19.549Z</time></trkpt><trkpt lat="37.5640796" lon="14.3674149"><ele>393.0</ele><time>2026-04-06T15:07:20.548Z</time></trkpt><trkpt lat="37.564203" lon="14.3670616"><ele>396.5</ele><time>2026-04-06T15:07:21.548Z</time></trkpt><trkpt lat="37.5643258" lon="14.3667161"><ele>400.0</ele><time>2026-04-06T15:07:22.548Z</time></trkpt><trkpt lat="37.5644541" lon="14.3663702"><ele>399.0</ele><time>2026-04-06T15:07:23.548Z</time></trkpt><trkpt lat="37.5645837" lon="14.3660227"><ele>398.0</ele><time>2026-04-06T15:07:24.548Z</time></trkpt><trkpt lat="37.5647099" lon="14.3656724"><ele>396.5</ele><time>2026-04-06T15:07:25.548Z</time></trkpt><trkpt lat="37.5648346" lon="14.3653203"><ele>395.0</ele><time>2026-04-06T15:07:26.548Z</time></trkpt><trkpt lat="37.5649582" lon="14.3649699"><ele>395.5</ele><time>2026-04-06T15:07:27.549Z</time></trkpt><trkpt lat="37.5650808" lon="14.3646219"><ele>396.0</ele><time>2026-04-06T15:07:28.549Z</time></trkpt><trkpt lat="37.5652063" lon="14.3642751"><ele>396.0</ele><time>2026-04-06T15:07:29.548Z</time></trkpt><trkpt lat="37.5653321" lon="14.3639273"><ele>396.0</ele><time>2026-04-06T15:07:30.548Z</time></trkpt><trkpt lat="37.5654622" lon="14.3635782"><ele>401.5</ele><time>2026-04-06T15:07:31.548Z</time></trkpt><trkpt lat="37.5655879" lon="14.3632296"><ele>407.0</ele><time>2026-04-06T15:07:32.548Z</time></trkpt><trkpt lat="37.5657019" lon="14.3629058"><ele>407.0</ele><time>2026-04-06T15:07:33.548Z</time></trkpt><trkpt lat="37.5658157" lon="14.3626052"><ele>407.0</ele><time>2026-04-06T15:07:34.548Z</time></trkpt><trkpt lat="37.565921" lon="14.3623132"><ele>408.5</ele><time>2026-04-06T15:07:35.549Z</time></trkpt><trkpt lat="37.5660299" lon="14.3620266"><ele>410.0</ele><time>2026-04-06T15:07:36.548Z</time></trkpt><trkpt lat="37.5661451" lon="14.3617472"><ele>416.0</ele><time>2026-04-06T15:07:37.548Z</time></trkpt><trkpt lat="37.566267" lon="14.3614683"><ele>422.0</ele><time>2026-04-06T15:07:38.548Z</time></trkpt><trkpt lat="37.5663911" lon="14.3611977"><ele>422.0</ele><time>2026-04-06T15:07:39.548Z</time></trkpt><trkpt lat="37.5665206" lon="14.3609336"><ele>422.0</ele><time>2026-04-06T15:07:40.549Z</time></trkpt><trkpt lat="37.5666606" lon="14.3606748"><ele>420.0</ele><time>2026-04-06T15:07:41.548Z</time></trkpt><trkpt lat="37.5668076" lon="14.3604173"><ele>418.0</ele><time>2026-04-06T15:07:42.548Z</time></trkpt><trkpt lat="37.5669619" lon="14.360157"><ele>419.5</ele><time>2026-04-06T15:07:43.548Z</time></trkpt><trkpt lat="37.5671176" lon="14.3599015"><ele>421.0</ele><time>2026-04-06T15:07:44.549Z</time></trkpt><trkpt lat="37.5672827" lon="14.3596491"><ele>421.0</ele><time>2026-04-06T15:07:45.548Z</time></trkpt><trkpt lat="37.5674497" lon="14.3594003"><ele>421.0</ele><time>2026-04-06T15:07:46.548Z</time></trkpt><trkpt lat="37.5676205" lon="14.3591613"><ele>421.0</ele><time>2026-04-06T15:07:47.548Z</time></trkpt><trkpt lat="37.5678007" lon="14.358936"><ele>421.0</ele><time>2026-04-06T15:07:48.548Z</time></trkpt><trkpt lat="37.5679825" lon="14.358715"><ele>426.0</ele><time>2026-04-06T15:07:49.548Z</time></trkpt><trkpt lat="37.5681715" lon="14.3584975"><ele>431.0</ele><time>2026-04-06T15:07:50.549Z</time></trkpt><trkpt lat="37.5683674" lon="14.3582777"><ele>431.0</ele><time>2026-04-06T15:07:51.548Z</time></trkpt><trkpt lat="37.5685614" lon="14.3580588"><ele>431.0</ele><time>2026-04-06T15:07:52.549Z</time></trkpt><trkpt lat="37.5687573" lon="14.3578341"><ele>437.5</ele><time>2026-04-06T15:07:53.548Z</time></trkpt><trkpt lat="37.5689538" lon="14.3576071"><ele>444.0</ele><time>2026-04-06T15:07:54.548Z</time></trkpt><trkpt lat="37.5691578" lon="14.3573756"><ele>444.5</ele><time>2026-04-06T15:07:55.548Z</time></trkpt><trkpt lat="37.5693649" lon="14.3571416"><ele>445.0</ele><time>2026-04-06T15:07:56.548Z</time></trkpt><trkpt lat="37.5695759" lon="14.3569098"><ele>451.5</ele><time>2026-04-06T15:07:57.548Z</time></trkpt><trkpt lat="37.5697947" lon="14.3566677"><ele>458.0</ele><time>2026-04-06T15:07:58.548Z</time></trkpt><trkpt lat="37.5700166" lon="14.356426"><ele>458.0</ele><time>2026-04-06T15:07:59.548Z</time></trkpt><trkpt lat="37.5702368" lon="14.3561825"><ele>458.0</ele><time>2026-04-06T15:08:00.548Z</time></trkpt><trkpt lat="37.5704625" lon="14.3559314"><ele>458.0</ele><time>2026-04-06T15:08:01.548Z</time></trkpt><trkpt lat="37.5706929" lon="14.3556797"><ele>458.0</ele><time>2026-04-06T15:08:02.548Z</time></trkpt><trkpt lat="37.5709261" lon="14.355428"><ele>461.0</ele><time>2026-04-06T15:08:03.548Z</time></trkpt><trkpt lat="37.5711539" lon="14.3551775"><ele>464.0</ele><time>2026-04-06T15:08:04.549Z</time></trkpt><trkpt lat="37.5713821" lon="14.3549236"><ele>457.5</ele><time>2026-04-06T15:08:05.549Z</time></trkpt><trkpt lat="37.5716098" lon="14.3546675"><ele>451.0</ele><time>2026-04-06T15:08:06.548Z</time></trkpt><trkpt lat="37.5718401" lon="14.3544125"><ele>458.0</ele><time>2026-04-06T15:08:07.548Z</time></trkpt><trkpt lat="37.5720714" lon="14.3541606"><ele>465.0</ele><time>2026-04-06T15:08:08.549Z</time></trkpt><trkpt lat="37.5723027" lon="14.3539088"><ele>459.5</ele><time>2026-04-06T15:08:09.548Z</time></trkpt><trkpt lat="37.5725326" lon="14.3536547"><ele>454.0</ele><time>2026-04-06T15:08:10.549Z</time></trkpt><trkpt lat="37.5727645" lon="14.3534016"><ele>458.0</ele><time>2026-04-06T15:08:11.548Z</time></trkpt><trkpt lat="37.5729977" lon="14.3531507"><ele>462.0</ele><time>2026-04-06T15:08:12.549Z</time></trkpt><trkpt lat="37.5732324" lon="14.3529015"><ele>462.0</ele><time>2026-04-06T15:08:13.548Z</time></trkpt><trkpt lat="37.5734651" lon="14.3526531"><ele>462.0</ele><time>2026-04-06T15:08:14.548Z</time></trkpt><trkpt lat="37.5736981" lon="14.3524006"><ele>464.5</ele><time>2026-04-06T15:08:15.548Z</time></trkpt><trkpt lat="37.5739302" lon="14.3521492"><ele>467.0</ele><time>2026-04-06T15:08:16.548Z</time></trkpt><trkpt lat="37.5741634" lon="14.3518952"><ele>467.0</ele><time>2026-04-06T15:08:17.549Z</time></trkpt><trkpt lat="37.5743929" lon="14.3516409"><ele>467.0</ele><time>2026-04-06T15:08:18.549Z</time></trkpt><trkpt lat="37.5746209" lon="14.3513847"><ele>465.5</ele><time>2026-04-06T15:08:19.548Z</time></trkpt><trkpt lat="37.5748511" lon="14.3511281"><ele>464.0</ele><time>2026-04-06T15:08:20.549Z</time></trkpt><trkpt lat="37.5750805" lon="14.3508702"><ele>464.0</ele><time>2026-04-06T15:08:21.548Z</time></trkpt><trkpt lat="37.5753084" lon="14.3506093"><ele>464.0</ele><time>2026-04-06T15:08:22.548Z</time></trkpt><trkpt lat="37.5755302" lon="14.3503467"><ele>462.0</ele><time>2026-04-06T15:08:23.549Z</time></trkpt><trkpt lat="37.5757487" lon="14.3500764"><ele>460.0</ele><time>2026-04-06T15:08:24.548Z</time></trkpt><trkpt lat="37.5759562" lon="14.3497962"><ele>461.5</ele><time>2026-04-06T15:08:25.548Z</time></trkpt><trkpt lat="37.5761537" lon="14.3495093"><ele>463.0</ele><time>2026-04-06T15:08:26.549Z</time></trkpt><trkpt lat="37.5763436" lon="14.349211"><ele>467.0</ele><time>2026-04-06T15:08:27.549Z</time></trkpt><trkpt lat="37.5765223" lon="14.3489002"><ele>471.0</ele><time>2026-04-06T15:08:28.548Z</time></trkpt><trkpt lat="37.5766948" lon="14.3485816"><ele>471.5</ele><time>2026-04-06T15:08:29.549Z</time></trkpt><trkpt lat="37.5768568" lon="14.3482511"><ele>472.0</ele><time>2026-04-06T15:08:30.548Z</time></trkpt><trkpt lat="37.5770106" lon="14.3479173"><ele>470.5</ele><time>2026-04-06T15:08:31.557Z</time></trkpt><trkpt lat="37.5771536" lon="14.3475775"><ele>469.0</ele><time>2026-04-06T15:08:32.556Z</time></trkpt><trkpt lat="37.5772821" lon="14.3472266"><ele>467.5</ele><time>2026-04-06T15:08:33.556Z</time></trkpt><trkpt lat="37.577401" lon="14.3468735"><ele>466.0</ele><time>2026-04-06T15:08:34.557Z</time></trkpt><trkpt lat="37.5775077" lon="14.3465179"><ele>466.5</ele><time>2026-04-06T15:08:35.557Z</time></trkpt><trkpt lat="37.5775947" lon="14.3461485"><ele>467.0</ele><time>2026-04-06T15:08:36.557Z</time></trkpt><trkpt lat="37.5776707" lon="14.3457789"><ele>469.5</ele><time>2026-04-06T15:08:37.556Z</time></trkpt><trkpt lat="37.577734" lon="14.3454052"><ele>472.0</ele><time>2026-04-06T15:08:38.556Z</time></trkpt><trkpt lat="37.5777806" lon="14.3450236"><ele>474.5</ele><time>2026-04-06T15:08:39.556Z</time></trkpt><trkpt lat="37.5778218" lon="14.3446408"><ele>477.0</ele><time>2026-04-06T15:08:40.556Z</time></trkpt><trkpt lat="37.5778475" lon="14.3442597"><ele>475.0</ele><time>2026-04-06T15:08:41.557Z</time></trkpt><trkpt lat="37.5778608" lon="14.3438774"><ele>473.0</ele><time>2026-04-06T15:08:42.556Z</time></trkpt><trkpt lat="37.5778607" lon="14.3434906"><ele>473.0</ele><time>2026-04-06T15:08:43.556Z</time></trkpt><trkpt lat="37.5778633" lon="14.3431076"><ele>473.0</ele><time>2026-04-06T15:08:44.556Z</time></trkpt><trkpt lat="37.5778625" lon="14.3427421"><ele>476.5</ele><time>2026-04-06T15:08:45.556Z</time></trkpt><trkpt lat="37.5778586" lon="14.3424104"><ele>480.0</ele><time>2026-04-06T15:08:46.557Z</time></trkpt><trkpt lat="37.5778569" lon="14.3421076"><ele>481.33333333333337</ele><time>2026-04-06T15:08:47.556Z</time></trkpt><trkpt lat="37.5778577" lon="14.3418408"><ele>482.6666666666667</ele><time>2026-04-06T15:08:48.557Z</time></trkpt><trkpt lat="37.5778613" lon="14.3416062"><ele>484.0</ele><time>2026-04-06T15:08:49.556Z</time></trkpt><trkpt lat="37.577863" lon="14.3414176"><ele>484.5</ele><time>2026-04-06T15:08:50.556Z</time></trkpt><trkpt lat="37.5778823" lon="14.341264"><ele>485.0</ele><time>2026-04-06T15:08:51.556Z</time></trkpt><trkpt lat="37.5779225" lon="14.341135"><ele>485.5</ele><time>2026-04-06T15:08:52.556Z</time></trkpt><trkpt lat="37.5779853" lon="14.3410246"><ele>486.0</ele><time>2026-04-06T15:08:53.557Z</time></trkpt><trkpt lat="37.5780692" lon="14.340925"><ele>486.0</ele><time>2026-04-06T15:08:54.556Z</time></trkpt><trkpt lat="37.5781663" lon="14.3408564"><ele>486.0</ele><time>2026-04-06T15:08:55.556Z</time></trkpt><trkpt lat="37.5782759" lon="14.3408155"><ele>486.0</ele><time>2026-04-06T15:08:56.556Z</time></trkpt><trkpt lat="37.578394" lon="14.3407928"><ele>486.0</ele><time>2026-04-06T15:08:57.556Z</time></trkpt><trkpt lat="37.5785151" lon="14.3407711"><ele>486.0</ele><time>2026-04-06T15:08:58.556Z</time></trkpt><trkpt lat="37.5786252" lon="14.3407452"><ele>486.0</ele><time>2026-04-06T15:08:59.556Z</time></trkpt><trkpt lat="37.5787219" lon="14.3407048"><ele>486.0</ele><time>2026-04-06T15:09:00.556Z</time></trkpt><trkpt lat="37.5788064" lon="14.3406208"><ele>486.0</ele><time>2026-04-06T15:09:01.557Z</time></trkpt><trkpt lat="37.5788656" lon="14.3404893"><ele>486.0</ele><time>2026-04-06T15:09:02.556Z</time></trkpt><trkpt lat="37.5788999" lon="14.3403346"><ele>485.75</ele><time>2026-04-06T15:09:03.557Z</time></trkpt><trkpt lat="37.5789153" lon="14.3401677"><ele>485.5</ele><time>2026-04-06T15:09:04.556Z</time></trkpt><trkpt lat="37.5789195" lon="14.3399985"><ele>485.25</ele><time>2026-04-06T15:09:05.556Z</time></trkpt><trkpt lat="37.5789265" lon="14.3398426"><ele>485.0</ele><time>2026-04-06T15:09:06.556Z</time></trkpt><trkpt lat="37.5789329" lon="14.3397112"><ele>485.0</ele><time>2026-04-06T15:09:07.556Z</time></trkpt><trkpt lat="37.5789245" lon="14.3396188"><ele>485.0</ele><time>2026-04-06T15:09:08.556Z</time></trkpt><trkpt lat="37.5788298" lon="14.3395576"><ele>485.0</ele><time>2026-04-06T15:09:10.556Z</time></trkpt><trkpt lat="37.578738" lon="14.3396439"><ele>485.0</ele><time>2026-04-06T15:09:12.556Z</time></trkpt><trkpt lat="37.5787112" lon="14.3397369"><ele>485.0</ele><time>2026-04-06T15:09:13.556Z</time></trkpt><trkpt lat="37.5786126" lon="14.3398294"><ele>484.8333333333333</ele><time>2026-04-06T15:09:15.557Z</time></trkpt><trkpt lat="37.5785429" lon="14.3398124"><ele>484.66666666666663</ele><time>2026-04-06T15:09:16.556Z</time></trkpt><trkpt lat="37.5784952" lon="14.339752"><ele>484.5</ele><time>2026-04-06T15:09:17.557Z</time></trkpt><trkpt lat="37.5784474" lon="14.339658"><ele>484.33333333333337</ele><time>2026-04-06T15:09:18.556Z</time></trkpt><trkpt lat="37.5784105" lon="14.3395514"><ele>484.1666666666667</ele><time>2026-04-06T15:09:19.556Z</time></trkpt><trkpt lat="37.5783852" lon="14.33946"><ele>484.0</ele><time>2026-04-06T15:09:20.556Z</time></trkpt><trkpt lat="37.5783868" lon="14.3393315"><ele>484.0</ele><time>2026-04-06T15:09:22.556Z</time></trkpt><trkpt lat="37.5784453" lon="14.3392567"><ele>484.0</ele><time>2026-04-06T15:09:24.556Z</time></trkpt></trkseg><trkseg><trkpt lat="37.5785117" lon="14.3392714"><ele>484.0</ele><time>2026-04-06T15:19:58.563Z</time></trkpt><trkpt lat="37.578629" lon="14.3392897"><ele>484.0</ele><time>2026-04-06T15:20:00.564Z</time></trkpt><trkpt lat="37.5786931" lon="14.3392875"><ele>484.0</ele><time>2026-04-06T15:20:01.563Z</time></trkpt><trkpt lat="37.5787875" lon="14.339337"><ele>484.0</ele><time>2026-04-06T15:20:03.563Z</time></trkpt><trkpt lat="37.5787709" lon="14.3394859"><ele>484.0</ele><time>2026-04-06T15:20:05.563Z</time></trkpt><trkpt lat="37.5787424" lon="14.3395652"><ele>484.00000000000006</ele><time>2026-04-06T15:20:06.563Z</time></trkpt><trkpt lat="37.5787264" lon="14.3396444"><ele>484.0</ele><time>2026-04-06T15:20:07.563Z</time></trkpt><trkpt lat="37.5787217" lon="14.3397278"><ele>484.0</ele><time>2026-04-06T15:20:08.564Z</time></trkpt><trkpt lat="37.5787046" lon="14.3398904"><ele>484.0</ele><time>2026-04-06T15:20:10.563Z</time></trkpt><trkpt lat="37.5786911" lon="14.3399756"><ele>484.00000000000006</ele><time>2026-04-06T15:20:11.563Z</time></trkpt><trkpt lat="37.5786664" lon="14.340062"><ele>484.0</ele><time>2026-04-06T15:20:12.563Z</time></trkpt><trkpt lat="37.5786364" lon="14.3401479"><ele>484.00000000000006</ele><time>2026-04-06T15:20:13.563Z</time></trkpt><trkpt lat="37.5786042" lon="14.3402375"><ele>484.0</ele><time>2026-04-06T15:20:14.563Z</time></trkpt><trkpt lat="37.5785658" lon="14.340315"><ele>484.0</ele><time>2026-04-06T15:20:15.563Z</time></trkpt><trkpt lat="37.5785182" lon="14.3403921"><ele>484.0</ele><time>2026-04-06T15:20:16.564Z</time></trkpt><trkpt lat="37.5784546" lon="14.3404723"><ele>484.00000000000006</ele><time>2026-04-06T15:20:17.563Z</time></trkpt><trkpt lat="37.5783764" lon="14.3405414"><ele>484.0</ele><time>2026-04-06T15:20:18.563Z</time></trkpt><trkpt lat="37.578284" lon="14.3405954"><ele>484.0</ele><time>2026-04-06T15:20:19.563Z</time></trkpt><trkpt lat="37.5781788" lon="14.3406374"><ele>484.0</ele><time>2026-04-06T15:20:20.563Z</time></trkpt><trkpt lat="37.5780782" lon="14.3406584"><ele>484.0</ele><time>2026-04-06T15:20:21.563Z</time></trkpt><trkpt lat="37.5779864" lon="14.3406471"><ele>484.0</ele><time>2026-04-06T15:20:22.564Z</time></trkpt><trkpt lat="37.577905" lon="14.3405864"><ele>484.0</ele><time>2026-04-06T15:20:23.564Z</time></trkpt><trkpt lat="37.5778669" lon="14.3404962"><ele>484.75</ele><time>2026-04-06T15:20:24.563Z</time></trkpt><trkpt lat="37.5778437" lon="14.3403639"><ele>485.5</ele><time>2026-04-06T15:20:25.563Z</time></trkpt><trkpt lat="37.5778356" lon="14.3402183"><ele>486.25</ele><time>2026-04-06T15:20:26.562Z</time></trkpt><trkpt lat="37.5778294" lon="14.3400368"><ele>487.0</ele><time>2026-04-06T15:20:27.563Z</time></trkpt><trkpt lat="37.5778188" lon="14.3398088"><ele>486.6666666666667</ele><time>2026-04-06T15:20:28.562Z</time></trkpt><trkpt lat="37.5778002" lon="14.3395481"><ele>486.33333333333337</ele><time>2026-04-06T15:20:29.562Z</time></trkpt><trkpt lat="37.5777891" lon="14.3392634"><ele>486.0</ele><time>2026-04-06T15:20:30.562Z</time></trkpt><trkpt lat="37.5777789" lon="14.3389561"><ele>484.0</ele><time>2026-04-06T15:20:31.562Z</time></trkpt><trkpt lat="37.5777643" lon="14.3386146"><ele>482.0</ele><time>2026-04-06T15:20:32.562Z</time></trkpt><trkpt lat="37.5777455" lon="14.338265"><ele>483.0</ele><time>2026-04-06T15:20:33.562Z</time></trkpt><trkpt lat="37.5777339" lon="14.3378921"><ele>484.0</ele><time>2026-04-06T15:20:34.562Z</time></trkpt><trkpt lat="37.5777291" lon="14.3375188"><ele>487.0</ele><time>2026-04-06T15:20:35.563Z</time></trkpt><trkpt lat="37.577734" lon="14.3371389"><ele>490.0</ele><time>2026-04-06T15:20:36.562Z</time></trkpt><trkpt lat="37.5777343" lon="14.3367669"><ele>490.0</ele><time>2026-04-06T15:20:37.562Z</time></trkpt><trkpt lat="37.577737" lon="14.3363979"><ele>490.0</ele><time>2026-04-06T15:20:38.562Z</time></trkpt><trkpt lat="37.5777312" lon="14.3360458"><ele>491.0</ele><time>2026-04-06T15:20:39.563Z</time></trkpt><trkpt lat="37.5777253" lon="14.3356961"><ele>492.0</ele><time>2026-04-06T15:20:40.562Z</time></trkpt><trkpt lat="37.5777189" lon="14.3353445"><ele>492.0</ele><time>2026-04-06T15:20:41.562Z</time></trkpt><trkpt lat="37.5777158" lon="14.3349852"><ele>492.0</ele><time>2026-04-06T15:20:42.562Z</time></trkpt><trkpt lat="37.5777101" lon="14.3346199"><ele>491.5</ele><time>2026-04-06T15:20:43.562Z</time></trkpt><trkpt lat="37.5777002" lon="14.3342595"><ele>491.0</ele><time>2026-04-06T15:20:44.562Z</time></trkpt><trkpt lat="37.5776903" lon="14.3338914"><ele>490.5</ele><time>2026-04-06T15:20:45.563Z</time></trkpt><trkpt lat="37.5776767" lon="14.3335188"><ele>490.0</ele><time>2026-04-06T15:20:46.562Z</time></trkpt><trkpt lat="37.577666" lon="14.3331435"><ele>486.5</ele><time>2026-04-06T15:20:47.562Z</time></trkpt><trkpt lat="37.5776579" lon="14.3327658"><ele>483.0</ele><time>2026-04-06T15:20:48.562Z</time></trkpt><trkpt lat="37.5776498" lon="14.3323855"><ele>479.5</ele><time>2026-04-06T15:20:49.562Z</time></trkpt><trkpt lat="37.5776462" lon="14.3320032"><ele>476.0</ele><time>2026-04-06T15:20:50.562Z</time></trkpt><trkpt lat="37.5776401" lon="14.3316202"><ele>473.5</ele><time>2026-04-06T15:20:51.562Z</time></trkpt><trkpt lat="37.5776339" lon="14.331236"><ele>471.0</ele><time>2026-04-06T15:20:52.562Z</time></trkpt><trkpt lat="37.5776262" lon="14.3308516"><ele>474.0</ele><time>2026-04-06T15:20:53.562Z</time></trkpt><trkpt lat="37.5776225" lon="14.3304677"><ele>477.0</ele><time>2026-04-06T15:20:54.562Z</time></trkpt><trkpt lat="37.5776158" lon="14.3300794"><ele>478.5</ele><time>2026-04-06T15:20:55.562Z</time></trkpt><trkpt lat="37.5776079" lon="14.3296953"><ele>480.0</ele><time>2026-04-06T15:20:56.563Z</time></trkpt><trkpt lat="37.5775992" lon="14.3293116"><ele>480.0</ele><time>2026-04-06T15:20:57.562Z</time></trkpt><trkpt lat="37.5775933" lon="14.3289304"><ele>480.0</ele><time>2026-04-06T15:20:58.563Z</time></trkpt><trkpt lat="37.5775885" lon="14.3285446"><ele>482.0</ele><time>2026-04-06T15:20:59.562Z</time></trkpt><trkpt lat="37.5775802" lon="14.3281621"><ele>484.0</ele><time>2026-04-06T15:21:00.563Z</time></trkpt><trkpt lat="37.5775711" lon="14.3277811"><ele>486.5</ele><time>2026-04-06T15:21:01.562Z</time></trkpt><trkpt lat="37.5775535" lon="14.3273989"><ele>489.0</ele><time>2026-04-06T15:21:02.562Z</time></trkpt><trkpt lat="37.5775297" lon="14.3270228"><ele>491.5</ele><time>2026-04-06T15:21:03.563Z</time></trkpt><trkpt lat="37.5774932" lon="14.3266395"><ele>494.0</ele><time>2026-04-06T15:21:04.562Z</time></trkpt><trkpt lat="37.5774485" lon="14.3262574"><ele>496.5</ele><time>2026-04-06T15:21:05.562Z</time></trkpt><trkpt lat="37.5773917" lon="14.325884"><ele>499.0</ele><time>2026-04-06T15:21:06.563Z</time></trkpt><trkpt lat="37.5773246" lon="14.3255102"><ele>500.5</ele><time>2026-04-06T15:21:07.562Z</time></trkpt><trkpt lat="37.5772515" lon="14.3251341"><ele>502.0</ele><time>2026-04-06T15:21:08.562Z</time></trkpt><trkpt lat="37.5771716" lon="14.3247643"><ele>502.5</ele><time>2026-04-06T15:21:09.562Z</time></trkpt><trkpt lat="37.577091" lon="14.3243918"><ele>503.0</ele><time>2026-04-06T15:21:10.562Z</time></trkpt><trkpt lat="37.577002" lon="14.3240238"><ele>508.0</ele><time>2026-04-06T15:21:11.562Z</time></trkpt><trkpt lat="37.5769212" lon="14.3236579"><ele>513.0</ele><time>2026-04-06T15:21:12.563Z</time></trkpt><trkpt lat="37.5768422" lon="14.3232913"><ele>510.0</ele><time>2026-04-06T15:21:13.562Z</time></trkpt><trkpt lat="37.576768" lon="14.3229195"><ele>507.0</ele><time>2026-04-06T15:21:14.562Z</time></trkpt><trkpt lat="37.5766982" lon="14.3225459"><ele>505.5</ele><time>2026-04-06T15:21:15.562Z</time></trkpt><trkpt lat="37.5766313" lon="14.3221752"><ele>504.0</ele><time>2026-04-06T15:21:16.563Z</time></trkpt><trkpt lat="37.5765625" lon="14.3218011"><ele>504.0</ele><time>2026-04-06T15:21:17.562Z</time></trkpt><trkpt lat="37.5764844" lon="14.3214331"><ele>504.0</ele><time>2026-04-06T15:21:18.562Z</time></trkpt><trkpt lat="37.5764048" lon="14.3210646"><ele>500.0</ele><time>2026-04-06T15:21:19.562Z</time></trkpt><trkpt lat="37.5763278" lon="14.3206914"><ele>496.0</ele><time>2026-04-06T15:21:20.562Z</time></trkpt><trkpt lat="37.5762539" lon="14.320318"><ele>498.0</ele><time>2026-04-06T15:21:21.562Z</time></trkpt><trkpt lat="37.5761771" lon="14.3199481"><ele>500.0</ele><time>2026-04-06T15:21:22.562Z</time></trkpt><trkpt lat="37.5760995" lon="14.3195812"><ele>501.0</ele><time>2026-04-06T15:21:23.562Z</time></trkpt><trkpt lat="37.5760236" lon="14.3192113"><ele>502.0</ele><time>2026-04-06T15:21:24.562Z</time></trkpt><trkpt lat="37.5759464" lon="14.3188391"><ele>504.5</ele><time>2026-04-06T15:21:25.562Z</time></trkpt><trkpt lat="37.5758671" lon="14.3184691"><ele>507.0</ele><time>2026-04-06T15:21:26.562Z</time></trkpt><trkpt lat="37.5757921" lon="14.3180986"><ele>510.5</ele><time>2026-04-06T15:21:27.563Z</time></trkpt><trkpt lat="37.575719" lon="14.3177269"><ele>514.0</ele><time>2026-04-06T15:21:28.562Z</time></trkpt><trkpt lat="37.5756405" lon="14.3173558"><ele>516.0</ele><time>2026-04-06T15:21:29.562Z</time></trkpt><trkpt lat="37.5755651" lon="14.3169856"><ele>518.0</ele><time>2026-04-06T15:21:30.562Z</time></trkpt><trkpt lat="37.5754864" lon="14.3166178"><ele>521.5</ele><time>2026-04-06T15:21:31.562Z</time></trkpt><trkpt lat="37.5754064" lon="14.316249"><ele>525.0</ele><time>2026-04-06T15:21:32.562Z</time></trkpt><trkpt lat="37.5753296" lon="14.3158773"><ele>529.0</ele><time>2026-04-06T15:21:33.562Z</time></trkpt><trkpt lat="37.5752536" lon="14.3155015"><ele>533.0</ele><time>2026-04-06T15:21:34.562Z</time></trkpt><trkpt lat="37.5751791" lon="14.3151284"><ele>533.0</ele><time>2026-04-06T15:21:35.562Z</time></trkpt><trkpt lat="37.5751027" lon="14.314759"><ele>533.0</ele><time>2026-04-06T15:21:36.562Z</time></trkpt><trkpt lat="37.5750216" lon="14.3143907"><ele>530.0</ele><time>2026-04-06T15:21:37.562Z</time></trkpt><trkpt lat="37.574937" lon="14.3140256"><ele>527.0</ele><time>2026-04-06T15:21:38.563Z</time></trkpt><trkpt lat="37.5748535" lon="14.3136575"><ele>528.0</ele><time>2026-04-06T15:21:39.562Z</time></trkpt><trkpt lat="37.5747717" lon="14.3132907"><ele>529.0</ele><time>2026-04-06T15:21:40.563Z</time></trkpt><trkpt lat="37.574697" lon="14.3129219"><ele>529.0</ele><time>2026-04-06T15:21:41.563Z</time></trkpt><trkpt lat="37.5746299" lon="14.3125443"><ele>529.0</ele><time>2026-04-06T15:21:42.563Z</time></trkpt><trkpt lat="37.5745756" lon="14.3121683"><ele>532.0</ele><time>2026-04-06T15:21:43.562Z</time></trkpt><trkpt lat="37.5745352" lon="14.311786"><ele>535.0</ele><time>2026-04-06T15:21:44.562Z</time></trkpt><trkpt lat="37.5745146" lon="14.3114041"><ele>534.0</ele><time>2026-04-06T15:21:45.562Z</time></trkpt><trkpt lat="37.5745177" lon="14.3110214"><ele>533.0</ele><time>2026-04-06T15:21:46.563Z</time></trkpt><trkpt lat="37.5745375" lon="14.3106389"><ele>531.0</ele><time>2026-04-06T15:21:47.562Z</time></trkpt><trkpt lat="37.5745724" lon="14.3102579"><ele>529.0</ele><time>2026-04-06T15:21:48.562Z</time></trkpt><trkpt lat="37.5746224" lon="14.3098779"><ele>529.5</ele><time>2026-04-06T15:21:49.562Z</time></trkpt><trkpt lat="37.5746957" lon="14.3095033"><ele>530.0</ele><time>2026-04-06T15:21:50.563Z</time></trkpt><trkpt lat="37.5747811" lon="14.3091369"><ele>537.5</ele><time>2026-04-06T15:21:51.563Z</time></trkpt><trkpt lat="37.5748852" lon="14.3087868"><ele>545.0</ele><time>2026-04-06T15:21:52.57Z</time></trkpt><trkpt lat="37.5750052" lon="14.308435"><ele>545.0</ele><time>2026-04-06T15:21:53.569Z</time></trkpt><trkpt lat="37.5751371" lon="14.3080908"><ele>545.0</ele><time>2026-04-06T15:21:54.57Z</time></trkpt><trkpt lat="37.5752808" lon="14.3077531"><ele>541.5</ele><time>2026-04-06T15:21:55.569Z</time></trkpt><trkpt lat="37.5754388" lon="14.3074286"><ele>538.0</ele><time>2026-04-06T15:21:56.569Z</time></trkpt><trkpt lat="37.5756063" lon="14.3071113"><ele>534.0</ele><time>2026-04-06T15:21:57.57Z</time></trkpt><trkpt lat="37.5757801" lon="14.3067945"><ele>530.0</ele><time>2026-04-06T15:21:58.569Z</time></trkpt><trkpt lat="37.5759514" lon="14.3064771"><ele>529.5</ele><time>2026-04-06T15:21:59.57Z</time></trkpt><trkpt lat="37.5761183" lon="14.3061626"><ele>529.0</ele><time>2026-04-06T15:22:00.569Z</time></trkpt><trkpt lat="37.5762867" lon="14.3058469"><ele>533.0</ele><time>2026-04-06T15:22:01.569Z</time></trkpt><trkpt lat="37.576455" lon="14.3055297"><ele>537.0</ele><time>2026-04-06T15:22:02.569Z</time></trkpt><trkpt lat="37.5766242" lon="14.3052164"><ele>537.0</ele><time>2026-04-06T15:22:03.57Z</time></trkpt><trkpt lat="37.576794" lon="14.3049"><ele>537.0</ele><time>2026-04-06T15:22:04.569Z</time></trkpt><trkpt lat="37.5769667" lon="14.3045869"><ele>547.0</ele><time>2026-04-06T15:22:05.569Z</time></trkpt><trkpt lat="37.5771449" lon="14.304278"><ele>557.0</ele><time>2026-04-06T15:22:06.57Z</time></trkpt><trkpt lat="37.5773226" lon="14.303964"><ele>563.0</ele><time>2026-04-06T15:22:07.569Z</time></trkpt><trkpt lat="37.5774934" lon="14.3036458"><ele>569.0</ele><time>2026-04-06T15:22:08.569Z</time></trkpt><trkpt lat="37.5776665" lon="14.3033278"><ele>570.0</ele><time>2026-04-06T15:22:09.569Z</time></trkpt><trkpt lat="37.5778275" lon="14.3030004"><ele>571.0</ele><time>2026-04-06T15:22:10.569Z</time></trkpt><trkpt lat="37.577983" lon="14.3026656"><ele>571.0</ele><time>2026-04-06T15:22:11.569Z</time></trkpt><trkpt lat="37.5781334" lon="14.3023201"><ele>571.0</ele><time>2026-04-06T15:22:12.569Z</time></trkpt><trkpt lat="37.5782675" lon="14.3019793"><ele>574.5</ele><time>2026-04-06T15:22:13.569Z</time></trkpt><trkpt lat="37.5783836" lon="14.3016258"><ele>578.0</ele><time>2026-04-06T15:22:14.569Z</time></trkpt><trkpt lat="37.5784844" lon="14.3012666"><ele>581.0</ele><time>2026-04-06T15:22:15.57Z</time></trkpt><trkpt lat="37.5785725" lon="14.300897"><ele>584.0</ele><time>2026-04-06T15:22:16.57Z</time></trkpt><trkpt lat="37.5786436" lon="14.3005262"><ele>581.0</ele><time>2026-04-06T15:22:17.569Z</time></trkpt><trkpt lat="37.578696" lon="14.3001577"><ele>578.0</ele><time>2026-04-06T15:22:18.569Z</time></trkpt><trkpt lat="37.5787436" lon="14.2997879"><ele>576.5</ele><time>2026-04-06T15:22:19.569Z</time></trkpt><trkpt lat="37.5787758" lon="14.2994056"><ele>575.0</ele><time>2026-04-06T15:22:20.569Z</time></trkpt><trkpt lat="37.5787995" lon="14.2990235"><ele>577.0</ele><time>2026-04-06T15:22:21.569Z</time></trkpt><trkpt lat="37.5788033" lon="14.2986424"><ele>579.0</ele><time>2026-04-06T15:22:22.569Z</time></trkpt><trkpt lat="37.5787923" lon="14.2982646"><ele>578.5</ele><time>2026-04-06T15:22:23.57Z</time></trkpt><trkpt lat="37.5787729" lon="14.2978816"><ele>578.0</ele><time>2026-04-06T15:22:24.569Z</time></trkpt><trkpt lat="37.5787493" lon="14.2975022"><ele>576.5</ele><time>2026-04-06T15:22:25.569Z</time></trkpt><trkpt lat="37.5787242" lon="14.2971217"><ele>575.0</ele><time>2026-04-06T15:22:26.569Z</time></trkpt><trkpt lat="37.5786999" lon="14.2967401"><ele>585.0</ele><time>2026-04-06T15:22:27.569Z</time></trkpt><trkpt lat="37.5786768" lon="14.2963603"><ele>595.0</ele><time>2026-04-06T15:22:28.569Z</time></trkpt><trkpt lat="37.5786602" lon="14.2959782"><ele>595.0</ele><time>2026-04-06T15:22:29.569Z</time></trkpt><trkpt lat="37.5786527" lon="14.295597"><ele>595.0</ele><time>2026-04-06T15:22:30.569Z</time></trkpt><trkpt lat="37.5786537" lon="14.2952186"><ele>597.0</ele><time>2026-04-06T15:22:31.569Z</time></trkpt><trkpt lat="37.5786691" lon="14.2948391"><ele>599.0</ele><time>2026-04-06T15:22:32.569Z</time></trkpt><trkpt lat="37.5787009" lon="14.2944552"><ele>595.0</ele><time>2026-04-06T15:22:33.569Z</time></trkpt><trkpt lat="37.5787513" lon="14.2940734"><ele>591.0</ele><time>2026-04-06T15:22:34.569Z</time></trkpt><trkpt lat="37.5788065" lon="14.2936959"><ele>591.0</ele><time>2026-04-06T15:22:35.57Z</time></trkpt><trkpt lat="37.5788589" lon="14.2933199"><ele>591.0</ele><time>2026-04-06T15:22:36.57Z</time></trkpt><trkpt lat="37.5789053" lon="14.2929411"><ele>593.5</ele><time>2026-04-06T15:22:37.569Z</time></trkpt><trkpt lat="37.5789568" lon="14.2925639"><ele>596.0</ele><time>2026-04-06T15:22:38.57Z</time></trkpt><trkpt lat="37.5790185" lon="14.2921875"><ele>598.0</ele><time>2026-04-06T15:22:39.569Z</time></trkpt><trkpt lat="37.5790807" lon="14.2918141"><ele>600.0</ele><time>2026-04-06T15:22:40.569Z</time></trkpt><trkpt lat="37.579143" lon="14.2914436"><ele>606.0</ele><time>2026-04-06T15:22:41.569Z</time></trkpt><trkpt lat="37.5791962" lon="14.2910908"><ele>612.0</ele><time>2026-04-06T15:22:42.569Z</time></trkpt><trkpt lat="37.5792516" lon="14.2907541"><ele>618.0</ele><time>2026-04-06T15:22:43.569Z</time></trkpt><trkpt lat="37.5793035" lon="14.2904225"><ele>624.0</ele><time>2026-04-06T15:22:44.569Z</time></trkpt><trkpt lat="37.579353" lon="14.2901043"><ele>624.0</ele><time>2026-04-06T15:22:45.569Z</time></trkpt><trkpt lat="37.579407" lon="14.2897985"><ele>624.0</ele><time>2026-04-06T15:22:46.569Z</time></trkpt><trkpt lat="37.5794591" lon="14.2895045"><ele>626.5</ele><time>2026-04-06T15:22:47.57Z</time></trkpt><trkpt lat="37.5794991" lon="14.2892247"><ele>629.0</ele><time>2026-04-06T15:22:48.569Z</time></trkpt><trkpt lat="37.5795466" lon="14.2889437"><ele>625.0</ele><time>2026-04-06T15:22:49.569Z</time></trkpt><trkpt lat="37.5795928" lon="14.2886756"><ele>621.0</ele><time>2026-04-06T15:22:50.57Z</time></trkpt><trkpt lat="37.5796337" lon="14.2884096"><ele>617.0</ele><time>2026-04-06T15:22:51.569Z</time></trkpt><trkpt lat="37.5796717" lon="14.2881475"><ele>621.6666666666666</ele><time>2026-04-06T15:22:52.57Z</time></trkpt><trkpt lat="37.5797106" lon="14.2878942"><ele>626.3333333333334</ele><time>2026-04-06T15:22:53.57Z</time></trkpt><trkpt lat="37.5797485" lon="14.287649"><ele>631.0</ele><time>2026-04-06T15:22:54.57Z</time></trkpt><trkpt lat="37.5797874" lon="14.2874076"><ele>634.0</ele><time>2026-04-06T15:22:55.569Z</time></trkpt><trkpt lat="37.5798259" lon="14.2871596"><ele>637.0</ele><time>2026-04-06T15:22:56.569Z</time></trkpt><trkpt lat="37.5798663" lon="14.2869088"><ele>640.0</ele><time>2026-04-06T15:22:57.569Z</time></trkpt><trkpt lat="37.5798958" lon="14.286653"><ele>643.0</ele><time>2026-04-06T15:22:58.569Z</time></trkpt><trkpt lat="37.5799221" lon="14.2863944"><ele>646.0</ele><time>2026-04-06T15:22:59.569Z</time></trkpt><trkpt lat="37.5799428" lon="14.286129"><ele>649.0</ele><time>2026-04-06T15:23:00.569Z</time></trkpt><trkpt lat="37.5799562" lon="14.2858555"><ele>646.0</ele><time>2026-04-06T15:23:01.569Z</time></trkpt><trkpt lat="37.5795123" lon="14.2810088"><ele>646.0</ele><time>2026-04-06T15:23:20.569Z</time></trkpt><trkpt lat="37.5795082" lon="14.2807723"><ele>646.0</ele><time>2026-04-06T15:23:21.569Z</time></trkpt><trkpt lat="37.5794833" lon="14.280561"><ele>646.0</ele><time>2026-04-06T15:23:22.57Z</time></trkpt><trkpt lat="37.5794638" lon="14.2803534"><ele>646.0</ele><time>2026-04-06T15:23:23.57Z</time></trkpt><trkpt lat="37.5794398" lon="14.2801564"><ele>646.0</ele><time>2026-04-06T15:23:24.569Z</time></trkpt><trkpt lat="37.5794212" lon="14.2799705"><ele>646.0</ele><time>2026-04-06T15:23:25.569Z</time></trkpt><trkpt lat="37.5793961" lon="14.2797914"><ele>645.5</ele><time>2026-04-06T15:23:26.569Z</time></trkpt><trkpt lat="37.5793766" lon="14.2796224"><ele>645.0</ele><time>2026-04-06T15:23:27.57Z</time></trkpt><trkpt lat="37.5793574" lon="14.2794626"><ele>644.5</ele><time>2026-04-06T15:23:28.569Z</time></trkpt><trkpt lat="37.5793412" lon="14.2793156"><ele>644.0</ele><time>2026-04-06T15:23:29.569Z</time></trkpt><trkpt lat="37.5793132" lon="14.2791788"><ele>644.0</ele><time>2026-04-06T15:23:30.569Z</time></trkpt><trkpt lat="37.5792666" lon="14.279053"><ele>644.0</ele><time>2026-04-06T15:23:31.569Z</time></trkpt><trkpt lat="37.5792034" lon="14.2789351"><ele>644.0</ele><time>2026-04-06T15:23:32.57Z</time></trkpt><trkpt lat="37.5791345" lon="14.2788114"><ele>644.0</ele><time>2026-04-06T15:23:33.569Z</time></trkpt><trkpt lat="37.5790779" lon="14.2786545"><ele>643.6666666666666</ele><time>2026-04-06T15:23:34.57Z</time></trkpt><trkpt lat="37.5790436" lon="14.2784648"><ele>643.3333333333334</ele><time>2026-04-06T15:23:35.569Z</time></trkpt><trkpt lat="37.5790274" lon="14.2782602"><ele>643.0</ele><time>2026-04-06T15:23:36.569Z</time></trkpt><trkpt lat="37.5790153" lon="14.2780627"><ele>643.75</ele><time>2026-04-06T15:23:37.569Z</time></trkpt><trkpt lat="37.5790099" lon="14.2778766"><ele>644.5</ele><time>2026-04-06T15:23:38.569Z</time></trkpt><trkpt lat="37.5790045" lon="14.2777085"><ele>645.25</ele><time>2026-04-06T15:23:39.569Z</time></trkpt><trkpt lat="37.5790117" lon="14.2775438"><ele>646.0</ele><time>2026-04-06T15:23:40.569Z</time></trkpt><trkpt lat="37.5790142" lon="14.2773801"><ele>646.0</ele><time>2026-04-06T15:23:41.569Z</time></trkpt><trkpt lat="37.579019" lon="14.2772146"><ele>646.0</ele><time>2026-04-06T15:23:42.569Z</time></trkpt><trkpt lat="37.5790259" lon="14.277045"><ele>646.0</ele><time>2026-04-06T15:23:43.569Z</time></trkpt><trkpt lat="37.5790377" lon="14.2768617"><ele>646.0</ele><time>2026-04-06T15:23:44.569Z</time></trkpt><trkpt lat="37.5790496" lon="14.2766762"><ele>646.0</ele><time>2026-04-06T15:23:45.57Z</time></trkpt><trkpt lat="37.5790643" lon="14.2764821"><ele>646.0</ele><time>2026-04-06T15:23:46.569Z</time></trkpt><trkpt lat="37.579079" lon="14.2762849"><ele>646.0</ele><time>2026-04-06T15:23:47.57Z</time></trkpt><trkpt lat="37.5790986" lon="14.2760794"><ele>645.0</ele><time>2026-04-06T15:23:48.569Z</time></trkpt><trkpt lat="37.5791263" lon="14.2758733"><ele>644.0</ele><time>2026-04-06T15:23:49.569Z</time></trkpt><trkpt lat="37.5791549" lon="14.2756631"><ele>643.0</ele><time>2026-04-06T15:23:50.569Z</time></trkpt><trkpt lat="37.5791849" lon="14.2754557"><ele>640.0</ele><time>2026-04-06T15:23:51.569Z</time></trkpt><trkpt lat="37.5792213" lon="14.2752525"><ele>637.0</ele><time>2026-04-06T15:23:52.57Z</time></trkpt><trkpt lat="37.5792522" lon="14.2750554"><ele>634.0</ele><time>2026-04-06T15:23:53.569Z</time></trkpt><trkpt lat="37.5792852" lon="14.2748564"><ele>628.6666666666667</ele><time>2026-04-06T15:23:54.569Z</time></trkpt><trkpt lat="37.5793205" lon="14.2746546"><ele>623.3333333333334</ele><time>2026-04-06T15:23:55.569Z</time></trkpt><trkpt lat="37.5793503" lon="14.2744512"><ele>618.0</ele><time>2026-04-06T15:23:56.57Z</time></trkpt><trkpt lat="37.5793819" lon="14.2742477"><ele>618.0</ele><time>2026-04-06T15:23:57.569Z</time></trkpt><trkpt lat="37.5794152" lon="14.2740483"><ele>618.0</ele><time>2026-04-06T15:23:58.569Z</time></trkpt><trkpt lat="37.5794468" lon="14.2738525"><ele>618.0</ele><time>2026-04-06T15:23:59.569Z</time></trkpt><trkpt lat="37.579479" lon="14.2736525"><ele>619.0</ele><time>2026-04-06T15:24:00.57Z</time></trkpt><trkpt lat="37.5795146" lon="14.273457"><ele>620.0</ele><time>2026-04-06T15:24:01.569Z</time></trkpt><trkpt lat="37.5795455" lon="14.2732618"><ele>621.0</ele><time>2026-04-06T15:24:02.569Z</time></trkpt><trkpt lat="37.57958" lon="14.2730725"><ele>621.0</ele><time>2026-04-06T15:24:03.569Z</time></trkpt><trkpt lat="37.579615" lon="14.2728862"><ele>621.0</ele><time>2026-04-06T15:24:04.569Z</time></trkpt><trkpt lat="37.5796442" lon="14.2726961"><ele>621.0</ele><time>2026-04-06T15:24:05.569Z</time></trkpt><trkpt lat="37.5796748" lon="14.2725105"><ele>621.0</ele><time>2026-04-06T15:24:06.569Z</time></trkpt><trkpt lat="37.5797021" lon="14.2723223"><ele>621.0</ele><time>2026-04-06T15:24:07.569Z</time></trkpt><trkpt lat="37.5797266" lon="14.272136"><ele>621.0</ele><time>2026-04-06T15:24:08.57Z</time></trkpt><trkpt lat="37.579751" lon="14.2719464"><ele>620.0</ele><time>2026-04-06T15:24:09.57Z</time></trkpt><trkpt lat="37.5797683" lon="14.2717457"><ele>619.0</ele><time>2026-04-06T15:24:10.569Z</time></trkpt><trkpt lat="37.5797924" lon="14.2715473"><ele>618.0</ele><time>2026-04-06T15:24:11.57Z</time></trkpt><trkpt lat="37.5798096" lon="14.271356"><ele>618.0</ele><time>2026-04-06T15:24:12.569Z</time></trkpt><trkpt lat="37.5798179" lon="14.2711744"><ele>618.0</ele><time>2026-04-06T15:24:13.569Z</time></trkpt><trkpt lat="37.579821" lon="14.2709965"><ele>618.0</ele><time>2026-04-06T15:24:14.569Z</time></trkpt><trkpt lat="37.579829" lon="14.2708235"><ele>618.0</ele><time>2026-04-06T15:24:15.569Z</time></trkpt><trkpt lat="37.5798348" lon="14.27066"><ele>617.75</ele><time>2026-04-06T15:24:16.57Z</time></trkpt><trkpt lat="37.5798489" lon="14.2705047"><ele>617.5</ele><time>2026-04-06T15:24:17.569Z</time></trkpt><trkpt lat="37.5798823" lon="14.2703592"><ele>617.25</ele><time>2026-04-06T15:24:18.569Z</time></trkpt><trkpt lat="37.5799406" lon="14.2702286"><ele>617.0</ele><time>2026-04-06T15:24:19.569Z</time></trkpt><trkpt lat="37.5799908" lon="14.270099"><ele>617.0</ele><time>2026-04-06T15:24:20.569Z</time></trkpt><trkpt lat="37.5800165" lon="14.2699513"><ele>617.0</ele><time>2026-04-06T15:24:21.569Z</time></trkpt><trkpt lat="37.5800287" lon="14.2697873"><ele>617.0</ele><time>2026-04-06T15:24:22.569Z</time></trkpt><trkpt lat="37.5800343" lon="14.2696131"><ele>617.0</ele><time>2026-04-06T15:24:23.569Z</time></trkpt><trkpt lat="37.5800322" lon="14.2694383"><ele>617.75</ele><time>2026-04-06T15:24:24.57Z</time></trkpt><trkpt lat="37.5800303" lon="14.2692629"><ele>618.5</ele><time>2026-04-06T15:24:25.57Z</time></trkpt><trkpt lat="37.580031" lon="14.2690814"><ele>619.25</ele><time>2026-04-06T15:24:26.569Z</time></trkpt><trkpt lat="37.5800389" lon="14.2688971"><ele>620.0</ele><time>2026-04-06T15:24:27.569Z</time></trkpt><trkpt lat="37.5801284" lon="14.2654043"><ele>620.0</ele><time>2026-04-06T15:24:45.569Z</time></trkpt><trkpt lat="37.5801197" lon="14.2651789"><ele>620.0</ele><time>2026-04-06T15:24:46.569Z</time></trkpt><trkpt lat="37.5801165" lon="14.2649537"><ele>620.0</ele><time>2026-04-06T15:24:47.569Z</time></trkpt><trkpt lat="37.5801037" lon="14.264708"><ele>620.0</ele><time>2026-04-06T15:24:48.569Z</time></trkpt><trkpt lat="37.5800956" lon="14.2644723"><ele>620.0</ele><time>2026-04-06T15:24:49.569Z</time></trkpt><trkpt lat="37.5801464" lon="14.2604096"><ele>610.6666666666666</ele><time>2026-04-06T15:25:06.569Z</time></trkpt><trkpt lat="37.5801538" lon="14.2602084"><ele>601.3333333333334</ele><time>2026-04-06T15:25:07.569Z</time></trkpt><trkpt lat="37.5801591" lon="14.2600151"><ele>592.0</ele><time>2026-04-06T15:25:08.569Z</time></trkpt><trkpt lat="37.5801602" lon="14.259814"><ele>596.3333333333334</ele><time>2026-04-06T15:25:09.569Z</time></trkpt><trkpt lat="37.5801483" lon="14.2596232"><ele>600.6666666666666</ele><time>2026-04-06T15:25:10.569Z</time></trkpt><trkpt lat="37.5801472" lon="14.2594176"><ele>605.0</ele><time>2026-04-06T15:25:11.569Z</time></trkpt><trkpt lat="37.5801547" lon="14.259212"><ele>540.0</ele><time>2026-04-06T15:25:12.569Z</time></trkpt><trkpt lat="37.5795265" lon="14.2423193"><ele>537.6666666666666</ele><time>2026-04-06T15:25:54.904Z</time></trkpt><trkpt lat="37.5797102" lon="14.2421261"><ele>535.3333333333333</ele><time>2026-04-06T15:26:35.569Z</time></trkpt><trkpt lat="37.5797058" lon="14.241955"><ele>533.0</ele><time>2026-04-06T15:26:36.569Z</time></trkpt><trkpt lat="37.5796778" lon="14.2417663"><ele>533.0</ele><time>2026-04-06T15:26:37.569Z</time></trkpt><trkpt lat="37.5796463" lon="14.2415758"><ele>533.0</ele><time>2026-04-06T15:26:38.57Z</time></trkpt><trkpt lat="37.579611" lon="14.2413898"><ele>533.0</ele><time>2026-04-06T15:26:39.57Z</time></trkpt><trkpt lat="37.5795602" lon="14.2411956"><ele>533.0</ele><time>2026-04-06T15:26:40.569Z</time></trkpt><trkpt lat="37.5794935" lon="14.241"><ele>533.0</ele><time>2026-04-06T15:26:41.569Z</time></trkpt><trkpt lat="37.5794286" lon="14.240796"><ele>533.0</ele><time>2026-04-06T15:26:42.569Z</time></trkpt><trkpt lat="37.5793565" lon="14.240587"><ele>533.0</ele><time>2026-04-06T15:26:43.569Z</time></trkpt><trkpt lat="37.5792685" lon="14.2403638"><ele>533.0</ele><time>2026-04-06T15:26:44.57Z</time></trkpt><trkpt lat="37.5791621" lon="14.2401227"><ele>533.0</ele><time>2026-04-06T15:26:45.569Z</time></trkpt><trkpt lat="37.5790336" lon="14.2398824"><ele>527.5</ele><time>2026-04-06T15:26:46.57Z</time></trkpt><trkpt lat="37.578879" lon="14.239636"><ele>522.0</ele><time>2026-04-06T15:26:47.569Z</time></trkpt><trkpt lat="37.5787054" lon="14.2393735"><ele>519.5</ele><time>2026-04-06T15:26:48.569Z</time></trkpt><trkpt lat="37.5785103" lon="14.2390965"><ele>517.0</ele><time>2026-04-06T15:26:49.569Z</time></trkpt><trkpt lat="37.5782949" lon="14.238826"><ele>517.0</ele><time>2026-04-06T15:26:50.569Z</time></trkpt><trkpt lat="37.5780519" lon="14.2385646"><ele>517.0</ele><time>2026-04-06T15:26:51.569Z</time></trkpt><trkpt lat="37.5777952" lon="14.2383154"><ele>513.5</ele><time>2026-04-06T15:26:52.569Z</time></trkpt><trkpt lat="37.5775321" lon="14.2380735"><ele>510.0</ele><time>2026-04-06T15:26:53.57Z</time></trkpt><trkpt lat="37.5772696" lon="14.2378346"><ele>510.0</ele><time>2026-04-06T15:26:54.57Z</time></trkpt><trkpt lat="37.5770078" lon="14.2375945"><ele>510.0</ele><time>2026-04-06T15:26:55.569Z</time></trkpt><trkpt lat="37.5767503" lon="14.2373535"><ele>498.5</ele><time>2026-04-06T15:26:56.57Z</time></trkpt><trkpt lat="37.5764947" lon="14.2371087"><ele>487.0</ele><time>2026-04-06T15:26:57.569Z</time></trkpt><trkpt lat="37.5762337" lon="14.2368636"><ele>482.0</ele><time>2026-04-06T15:26:58.569Z</time></trkpt><trkpt lat="37.5759784" lon="14.2366185"><ele>477.0</ele><time>2026-04-06T15:26:59.57Z</time></trkpt><trkpt lat="37.5757149" lon="14.236369"><ele>477.0</ele><time>2026-04-06T15:27:00.569Z</time></trkpt><trkpt lat="37.5754501" lon="14.2361242"><ele>477.0</ele><time>2026-04-06T15:27:01.569Z</time></trkpt><trkpt lat="37.575186" lon="14.2358799"><ele>471.0</ele><time>2026-04-06T15:27:02.569Z</time></trkpt><trkpt lat="37.57492" lon="14.2356348"><ele>465.0</ele><time>2026-04-06T15:27:03.57Z</time></trkpt><trkpt lat="37.5746542" lon="14.2353906"><ele>472.5</ele><time>2026-04-06T15:27:04.57Z</time></trkpt><trkpt lat="37.5743929" lon="14.2351441"><ele>480.0</ele><time>2026-04-06T15:27:05.569Z</time></trkpt><trkpt lat="37.5741326" lon="14.2348949"><ele>475.0</ele><time>2026-04-06T15:27:06.569Z</time></trkpt><trkpt lat="37.5738687" lon="14.234641"><ele>470.0</ele><time>2026-04-06T15:27:07.569Z</time></trkpt><trkpt lat="37.5736067" lon="14.2343908"><ele>470.0</ele><time>2026-04-06T15:27:08.569Z</time></trkpt><trkpt lat="37.5733383" lon="14.2341463"><ele>470.0</ele><time>2026-04-06T15:27:09.57Z</time></trkpt><trkpt lat="37.5730717" lon="14.2339004"><ele>469.5</ele><time>2026-04-06T15:27:10.57Z</time></trkpt><trkpt lat="37.5728041" lon="14.233653"><ele>469.0</ele><time>2026-04-06T15:27:11.569Z</time></trkpt><trkpt lat="37.5725394" lon="14.2334046"><ele>469.0</ele><time>2026-04-06T15:27:12.569Z</time></trkpt><trkpt lat="37.5722711" lon="14.2331545"><ele>469.0</ele><time>2026-04-06T15:27:13.569Z</time></trkpt><trkpt lat="37.5719896" lon="14.2328978"><ele>476.0</ele><time>2026-04-06T15:27:14.57Z</time></trkpt><trkpt lat="37.5716873" lon="14.2326274"><ele>483.0</ele><time>2026-04-06T15:27:15.569Z</time></trkpt><trkpt lat="37.5713795" lon="14.2323459"><ele>483.0</ele><time>2026-04-06T15:27:16.569Z</time></trkpt><trkpt lat="37.5710863" lon="14.2320734"><ele>483.0</ele><time>2026-04-06T15:27:17.57Z</time></trkpt><trkpt lat="37.5708163" lon="14.2318052"><ele>483.0</ele><time>2026-04-06T15:27:18.569Z</time></trkpt><trkpt lat="37.5705526" lon="14.231544"><ele>483.0</ele><time>2026-04-06T15:27:19.569Z</time></trkpt><trkpt lat="37.570293" lon="14.231285"><ele>483.5</ele><time>2026-04-06T15:27:20.569Z</time></trkpt><trkpt lat="37.5700397" lon="14.2310289"><ele>484.0</ele><time>2026-04-06T15:27:21.57Z</time></trkpt><trkpt lat="37.569795" lon="14.2307681"><ele>487.0</ele><time>2026-04-06T15:27:22.569Z</time></trkpt><trkpt lat="37.5695569" lon="14.2305007"><ele>490.0</ele><time>2026-04-06T15:27:23.569Z</time></trkpt><trkpt lat="37.5693272" lon="14.230228"><ele>477.5</ele><time>2026-04-06T15:27:24.57Z</time></trkpt><trkpt lat="37.5691085" lon="14.229947"><ele>465.0</ele><time>2026-04-06T15:27:25.569Z</time></trkpt><trkpt lat="37.5689067" lon="14.2296583"><ele>465.0</ele><time>2026-04-06T15:27:26.569Z</time></trkpt><trkpt lat="37.5687111" lon="14.2293613"><ele>465.0</ele><time>2026-04-06T15:27:27.569Z</time></trkpt><trkpt lat="37.5685202" lon="14.229055"><ele>466.0</ele><time>2026-04-06T15:27:28.569Z</time></trkpt><trkpt lat="37.5683371" lon="14.228739"><ele>467.0</ele><time>2026-04-06T15:27:29.569Z</time></trkpt><trkpt lat="37.5681595" lon="14.228416"><ele>466.0</ele><time>2026-04-06T15:27:30.57Z</time></trkpt><trkpt lat="37.5679946" lon="14.2280902"><ele>465.0</ele><time>2026-04-06T15:27:31.569Z</time></trkpt><trkpt lat="37.5678323" lon="14.2277466"><ele>463.5</ele><time>2026-04-06T15:27:32.569Z</time></trkpt><trkpt lat="37.567683" lon="14.2273978"><ele>462.0</ele><time>2026-04-06T15:27:33.569Z</time></trkpt><trkpt lat="37.5675432" lon="14.2270481"><ele>460.5</ele><time>2026-04-06T15:27:34.57Z</time></trkpt><trkpt lat="37.5674118" lon="14.2266927"><ele>459.0</ele><time>2026-04-06T15:27:35.57Z</time></trkpt><trkpt lat="37.5672801" lon="14.2263391"><ele>451.5</ele><time>2026-04-06T15:27:36.569Z</time></trkpt><trkpt lat="37.5671479" lon="14.2259839"><ele>444.0</ele><time>2026-04-06T15:27:37.569Z</time></trkpt><trkpt lat="37.5670173" lon="14.2256309"><ele>437.5</ele><time>2026-04-06T15:27:38.569Z</time></trkpt><trkpt lat="37.5668884" lon="14.2252748"><ele>431.0</ele><time>2026-04-06T15:27:39.569Z</time></trkpt><trkpt lat="37.5667579" lon="14.2249212"><ele>427.0</ele><time>2026-04-06T15:27:40.569Z</time></trkpt><trkpt lat="37.5666291" lon="14.2245678"><ele>423.0</ele><time>2026-04-06T15:27:41.569Z</time></trkpt><trkpt lat="37.5665012" lon="14.2242194"><ele>423.0</ele><time>2026-04-06T15:27:42.569Z</time></trkpt><trkpt lat="37.5663742" lon="14.223869"><ele>423.0</ele><time>2026-04-06T15:27:43.57Z</time></trkpt><trkpt lat="37.5662474" lon="14.2235174"><ele>421.0</ele><time>2026-04-06T15:27:44.569Z</time></trkpt><trkpt lat="37.5661228" lon="14.2231668"><ele>419.0</ele><time>2026-04-06T15:27:45.569Z</time></trkpt><trkpt lat="37.5659988" lon="14.2228196"><ele>419.0</ele><time>2026-04-06T15:27:46.569Z</time></trkpt><trkpt lat="37.565876" lon="14.2224713"><ele>419.0</ele><time>2026-04-06T15:27:47.569Z</time></trkpt><trkpt lat="37.5657517" lon="14.2221205"><ele>419.0</ele><time>2026-04-06T15:27:48.569Z</time></trkpt><trkpt lat="37.5656244" lon="14.2217756"><ele>419.0</ele><time>2026-04-06T15:27:49.569Z</time></trkpt><trkpt lat="37.5655002" lon="14.2214269"><ele>419.5</ele><time>2026-04-06T15:27:50.569Z</time></trkpt><trkpt lat="37.5653746" lon="14.2210746"><ele>420.0</ele><time>2026-04-06T15:27:51.569Z</time></trkpt><trkpt lat="37.5652476" lon="14.2207254"><ele>421.0</ele><time>2026-04-06T15:27:52.569Z</time></trkpt><trkpt lat="37.5651192" lon="14.2203746"><ele>422.0</ele><time>2026-04-06T15:27:53.57Z</time></trkpt><trkpt lat="37.5649915" lon="14.2200254"><ele>423.5</ele><time>2026-04-06T15:27:54.569Z</time></trkpt><trkpt lat="37.564865" lon="14.2196754"><ele>425.0</ele><time>2026-04-06T15:27:55.569Z</time></trkpt><trkpt lat="37.5647403" lon="14.2193281"><ele>422.0</ele><time>2026-04-06T15:27:56.57Z</time></trkpt><trkpt lat="37.5646127" lon="14.2189805"><ele>419.0</ele><time>2026-04-06T15:27:57.569Z</time></trkpt><trkpt lat="37.5644827" lon="14.2186294"><ele>419.0</ele><time>2026-04-06T15:27:58.569Z</time></trkpt><trkpt lat="37.5643543" lon="14.2182765"><ele>419.0</ele><time>2026-04-06T15:27:59.569Z</time></trkpt><trkpt lat="37.5642293" lon="14.2179235"><ele>420.0</ele><time>2026-04-06T15:28:00.569Z</time></trkpt><trkpt lat="37.5641042" lon="14.2175765"><ele>421.0</ele><time>2026-04-06T15:28:01.57Z</time></trkpt><trkpt lat="37.5639757" lon="14.2172292"><ele>421.0</ele><time>2026-04-06T15:28:02.57Z</time></trkpt><trkpt lat="37.5638506" lon="14.2168759"><ele>421.0</ele><time>2026-04-06T15:28:03.57Z</time></trkpt><trkpt lat="37.5637259" lon="14.2165259"><ele>413.5</ele><time>2026-04-06T15:28:04.57Z</time></trkpt><trkpt lat="37.5636012" lon="14.2161709"><ele>406.0</ele><time>2026-04-06T15:28:05.57Z</time></trkpt><trkpt lat="37.5634881" lon="14.2158146"><ele>406.5</ele><time>2026-04-06T15:28:06.57Z</time></trkpt><trkpt lat="37.5633781" lon="14.2154551"><ele>407.0</ele><time>2026-04-06T15:28:07.569Z</time></trkpt><trkpt lat="37.5632679" lon="14.215095"><ele>406.5</ele><time>2026-04-06T15:28:08.569Z</time></trkpt><trkpt lat="37.563166" lon="14.2147312"><ele>406.0</ele><time>2026-04-06T15:28:09.57Z</time></trkpt><trkpt lat="37.5630663" lon="14.2143667"><ele>406.0</ele><time>2026-04-06T15:28:10.569Z</time></trkpt><trkpt lat="37.5629754" lon="14.2140047"><ele>406.0</ele><time>2026-04-06T15:28:11.57Z</time></trkpt><trkpt lat="37.5628875" lon="14.213639"><ele>397.0</ele><time>2026-04-06T15:28:12.569Z</time></trkpt><trkpt lat="37.5628032" lon="14.2132661"><ele>388.0</ele><time>2026-04-06T15:28:13.57Z</time></trkpt><trkpt lat="37.5627266" lon="14.2128937"><ele>384.0</ele><time>2026-04-06T15:28:14.569Z</time></trkpt><trkpt lat="37.5626538" lon="14.2125207"><ele>380.0</ele><time>2026-04-06T15:28:15.57Z</time></trkpt><trkpt lat="37.5625801" lon="14.2121483"><ele>377.0</ele><time>2026-04-06T15:28:16.569Z</time></trkpt><trkpt lat="37.5625167" lon="14.2117733"><ele>374.0</ele><time>2026-04-06T15:28:17.569Z</time></trkpt><trkpt lat="37.5624628" lon="14.2113942"><ele>374.0</ele><time>2026-04-06T15:28:18.569Z</time></trkpt><trkpt lat="37.5624155" lon="14.2110142"><ele>374.0</ele><time>2026-04-06T15:28:19.569Z</time></trkpt><trkpt lat="37.562368" lon="14.2106334"><ele>374.5</ele><time>2026-04-06T15:28:20.569Z</time></trkpt><trkpt lat="37.562332" lon="14.2102559"><ele>375.0</ele><time>2026-04-06T15:28:21.569Z</time></trkpt><trkpt lat="37.5622946" lon="14.2098756"><ele>372.0</ele><time>2026-04-06T15:28:22.569Z</time></trkpt><trkpt lat="37.5622591" lon="14.2094959"><ele>369.0</ele><time>2026-04-06T15:28:23.57Z</time></trkpt><trkpt lat="37.5622305" lon="14.2091145"><ele>370.0</ele><time>2026-04-06T15:28:24.569Z</time></trkpt><trkpt lat="37.5622081" lon="14.2087306"><ele>371.0</ele><time>2026-04-06T15:28:25.569Z</time></trkpt><trkpt lat="37.5621915" lon="14.2083442"><ele>368.5</ele><time>2026-04-06T15:28:26.569Z</time></trkpt><trkpt lat="37.5621803" lon="14.2079619"><ele>366.0</ele><time>2026-04-06T15:28:27.569Z</time></trkpt><trkpt lat="37.5621736" lon="14.2075773"><ele>365.0</ele><time>2026-04-06T15:28:28.569Z</time></trkpt><trkpt lat="37.5621675" lon="14.2071937"><ele>364.0</ele><time>2026-04-06T15:28:29.569Z</time></trkpt><trkpt lat="37.562169" lon="14.2068096"><ele>363.5</ele><time>2026-04-06T15:28:30.569Z</time></trkpt><trkpt lat="37.5621698" lon="14.2064259"><ele>363.0</ele><time>2026-04-06T15:28:31.569Z</time></trkpt><trkpt lat="37.5621713" lon="14.2060447"><ele>362.5</ele><time>2026-04-06T15:28:32.576Z</time></trkpt><trkpt lat="37.5621728" lon="14.2056616"><ele>362.0</ele><time>2026-04-06T15:28:33.576Z</time></trkpt><trkpt lat="37.5621731" lon="14.2052787"><ele>362.0</ele><time>2026-04-06T15:28:34.577Z</time></trkpt><trkpt lat="37.562178" lon="14.2048949"><ele>362.0</ele><time>2026-04-06T15:28:35.576Z</time></trkpt><trkpt lat="37.5621823" lon="14.2045081"><ele>361.0</ele><time>2026-04-06T15:28:36.576Z</time></trkpt><trkpt lat="37.5621847" lon="14.2041217"><ele>360.0</ele><time>2026-04-06T15:28:37.576Z</time></trkpt><trkpt lat="37.5621895" lon="14.2037381"><ele>359.5</ele><time>2026-04-06T15:28:38.576Z</time></trkpt><trkpt lat="37.5621941" lon="14.2033576"><ele>359.0</ele><time>2026-04-06T15:28:39.576Z</time></trkpt><trkpt lat="37.5621938" lon="14.2029739"><ele>358.0</ele><time>2026-04-06T15:28:40.576Z</time></trkpt><trkpt lat="37.5621999" lon="14.2025903"><ele>357.0</ele><time>2026-04-06T15:28:41.576Z</time></trkpt><trkpt lat="37.5622033" lon="14.202204"><ele>355.5</ele><time>2026-04-06T15:28:42.577Z</time></trkpt><trkpt lat="37.5622061" lon="14.2018206"><ele>354.0</ele><time>2026-04-06T15:28:43.577Z</time></trkpt><trkpt lat="37.5622091" lon="14.2014382"><ele>353.0</ele><time>2026-04-06T15:28:44.577Z</time></trkpt><trkpt lat="37.562216" lon="14.2010541"><ele>352.0</ele><time>2026-04-06T15:28:45.576Z</time></trkpt><trkpt lat="37.5622194" lon="14.2006704"><ele>352.5</ele><time>2026-04-06T15:28:46.576Z</time></trkpt><trkpt lat="37.5622188" lon="14.200282"><ele>353.0</ele><time>2026-04-06T15:28:47.576Z</time></trkpt><trkpt lat="37.5622045" lon="14.1998972"><ele>352.0</ele><time>2026-04-06T15:28:48.576Z</time></trkpt><trkpt lat="37.5621761" lon="14.1995163"><ele>351.0</ele><time>2026-04-06T15:28:49.576Z</time></trkpt><trkpt lat="37.5621433" lon="14.1991389"><ele>350.0</ele><time>2026-04-06T15:28:50.577Z</time></trkpt><trkpt lat="37.5620988" lon="14.1987595"><ele>349.0</ele><time>2026-04-06T15:28:51.577Z</time></trkpt><trkpt lat="37.5620516" lon="14.1983782"><ele>349.5</ele><time>2026-04-06T15:28:52.576Z</time></trkpt><trkpt lat="37.5619969" lon="14.1980016"><ele>350.0</ele><time>2026-04-06T15:28:53.576Z</time></trkpt><trkpt lat="37.561935" lon="14.1976278"><ele>349.0</ele><time>2026-04-06T15:28:54.576Z</time></trkpt><trkpt lat="37.5618669" lon="14.197255"><ele>348.0</ele><time>2026-04-06T15:28:55.576Z</time></trkpt><trkpt lat="37.5617851" lon="14.1968867"><ele>348.0</ele><time>2026-04-06T15:28:56.576Z</time></trkpt><trkpt lat="37.5616911" lon="14.1965184"><ele>348.0</ele><time>2026-04-06T15:28:57.576Z</time></trkpt><trkpt lat="37.5615895" lon="14.1961595"><ele>348.0</ele><time>2026-04-06T15:28:58.576Z</time></trkpt><trkpt lat="37.5614777" lon="14.1957993"><ele>348.0</ele><time>2026-04-06T15:28:59.576Z</time></trkpt><trkpt lat="37.5613573" lon="14.195446"><ele>347.5</ele><time>2026-04-06T15:29:00.576Z</time></trkpt><trkpt lat="37.5612269" lon="14.1950971"><ele>347.0</ele><time>2026-04-06T15:29:01.576Z</time></trkpt><trkpt lat="37.5610909" lon="14.1947524"><ele>346.5</ele><time>2026-04-06T15:29:02.577Z</time></trkpt><trkpt lat="37.5609472" lon="14.1944105"><ele>346.0</ele><time>2026-04-06T15:29:03.576Z</time></trkpt><trkpt lat="37.5607954" lon="14.1940795"><ele>346.5</ele><time>2026-04-06T15:29:04.577Z</time></trkpt><trkpt lat="37.560635" lon="14.1937514"><ele>347.0</ele><time>2026-04-06T15:29:05.577Z</time></trkpt><trkpt lat="37.5604671" lon="14.193434"><ele>347.5</ele><time>2026-04-06T15:29:06.577Z</time></trkpt><trkpt lat="37.5602891" lon="14.193122"><ele>348.0</ele><time>2026-04-06T15:29:07.576Z</time></trkpt><trkpt lat="37.5601071" lon="14.192814"><ele>348.0</ele><time>2026-04-06T15:29:08.576Z</time></trkpt><trkpt lat="37.5599193" lon="14.1925145"><ele>348.0</ele><time>2026-04-06T15:29:09.576Z</time></trkpt><trkpt lat="37.559724" lon="14.1922213"><ele>349.0</ele><time>2026-04-06T15:29:10.576Z</time></trkpt><trkpt lat="37.5595192" lon="14.1919396"><ele>350.0</ele><time>2026-04-06T15:29:11.576Z</time></trkpt><trkpt lat="37.5593095" lon="14.1916625"><ele>349.0</ele><time>2026-04-06T15:29:12.576Z</time></trkpt><trkpt lat="37.5590919" lon="14.1913935"><ele>348.0</ele><time>2026-04-06T15:29:13.577Z</time></trkpt><trkpt lat="37.5588643" lon="14.191134"><ele>347.5</ele><time>2026-04-06T15:29:14.576Z</time></trkpt><trkpt lat="37.558635" lon="14.1908854"><ele>347.0</ele><time>2026-04-06T15:29:15.577Z</time></trkpt><trkpt lat="37.5583984" lon="14.1906428"><ele>346.5</ele><time>2026-04-06T15:29:16.576Z</time></trkpt><trkpt lat="37.5581563" lon="14.190413"><ele>346.0</ele><time>2026-04-06T15:29:17.576Z</time></trkpt><trkpt lat="37.5579117" lon="14.1901858"><ele>345.5</ele><time>2026-04-06T15:29:18.576Z</time></trkpt><trkpt lat="37.5576643" lon="14.1899605"><ele>345.0</ele><time>2026-04-06T15:29:19.576Z</time></trkpt><trkpt lat="37.5574157" lon="14.1897393"><ele>344.5</ele><time>2026-04-06T15:29:20.576Z</time></trkpt><trkpt lat="37.5571627" lon="14.1895199"><ele>344.0</ele><time>2026-04-06T15:29:21.576Z</time></trkpt><trkpt lat="37.5569125" lon="14.1892965"><ele>345.0</ele><time>2026-04-06T15:29:22.577Z</time></trkpt><trkpt lat="37.5566604" lon="14.189076"><ele>346.0</ele><time>2026-04-06T15:29:23.576Z</time></trkpt><trkpt lat="37.5564107" lon="14.1888553"><ele>346.5</ele><time>2026-04-06T15:29:24.576Z</time></trkpt><trkpt lat="37.5561617" lon="14.1886342"><ele>347.0</ele><time>2026-04-06T15:29:25.576Z</time></trkpt><trkpt lat="37.5559124" lon="14.1884129"><ele>347.0</ele><time>2026-04-06T15:29:26.576Z</time></trkpt><trkpt lat="37.5556624" lon="14.1881913"><ele>347.0</ele><time>2026-04-06T15:29:27.576Z</time></trkpt><trkpt lat="37.5554125" lon="14.1879671"><ele>346.0</ele><time>2026-04-06T15:29:28.576Z</time></trkpt><trkpt lat="37.5551667" lon="14.1877448"><ele>345.0</ele><time>2026-04-06T15:29:29.576Z</time></trkpt><trkpt lat="37.5549307" lon="14.1875331"><ele>345.5</ele><time>2026-04-06T15:29:30.577Z</time></trkpt><trkpt lat="37.5547041" lon="14.1873322"><ele>346.0</ele><time>2026-04-06T15:29:31.576Z</time></trkpt><trkpt lat="37.5544905" lon="14.187146"><ele>342.5</ele><time>2026-04-06T15:29:32.576Z</time></trkpt><trkpt lat="37.5542822" lon="14.1869644"><ele>339.0</ele><time>2026-04-06T15:29:33.576Z</time></trkpt><trkpt lat="37.5540782" lon="14.1867813"><ele>339.0</ele><time>2026-04-06T15:29:34.576Z</time></trkpt><trkpt lat="37.5538758" lon="14.1866004"><ele>339.0</ele><time>2026-04-06T15:29:35.577Z</time></trkpt><trkpt lat="37.5536795" lon="14.1864274"><ele>338.0</ele><time>2026-04-06T15:29:36.576Z</time></trkpt><trkpt lat="37.55349" lon="14.1862598"><ele>337.0</ele><time>2026-04-06T15:29:37.576Z</time></trkpt><trkpt lat="37.5533047" lon="14.1860902"><ele>337.0</ele><time>2026-04-06T15:29:38.576Z</time></trkpt><trkpt lat="37.5531227" lon="14.1859198"><ele>337.0</ele><time>2026-04-06T15:29:39.576Z</time></trkpt><trkpt lat="37.5529502" lon="14.1857526"><ele>337.0</ele><time>2026-04-06T15:29:40.576Z</time></trkpt><trkpt lat="37.5527825" lon="14.185591"><ele>337.3333333333333</ele><time>2026-04-06T15:29:41.576Z</time></trkpt><trkpt lat="37.5526244" lon="14.1854274"><ele>337.6666666666667</ele><time>2026-04-06T15:29:42.577Z</time></trkpt><trkpt lat="37.5524672" lon="14.1852743"><ele>338.0</ele><time>2026-04-06T15:29:43.577Z</time></trkpt><trkpt lat="37.5523186" lon="14.1851285"><ele>338.0</ele><time>2026-04-06T15:29:44.576Z</time></trkpt><trkpt lat="37.55217" lon="14.1849857"><ele>338.0</ele><time>2026-04-06T15:29:45.576Z</time></trkpt><trkpt lat="37.5520222" lon="14.18484"><ele>338.0</ele><time>2026-04-06T15:29:46.577Z</time></trkpt><trkpt lat="37.5518747" lon="14.1846894"><ele>337.0</ele><time>2026-04-06T15:29:47.576Z</time></trkpt><trkpt lat="37.5517327" lon="14.1845434"><ele>336.0</ele><time>2026-04-06T15:29:48.576Z</time></trkpt><trkpt lat="37.5515875" lon="14.1843995"><ele>335.0</ele><time>2026-04-06T15:29:49.576Z</time></trkpt><trkpt lat="37.5514469" lon="14.1842508"><ele>335.0</ele><time>2026-04-06T15:29:50.576Z</time></trkpt><trkpt lat="37.5513127" lon="14.1841004"><ele>335.0</ele><time>2026-04-06T15:29:51.576Z</time></trkpt><trkpt lat="37.551175" lon="14.1839524"><ele>335.0</ele><time>2026-04-06T15:29:52.576Z</time></trkpt><trkpt lat="37.5510424" lon="14.1838033"><ele>335.33333333333337</ele><time>2026-04-06T15:29:53.576Z</time></trkpt><trkpt lat="37.5508998" lon="14.1836564"><ele>335.6666666666667</ele><time>2026-04-06T15:29:54.577Z</time></trkpt><trkpt lat="37.5507646" lon="14.1835019"><ele>336.0</ele><time>2026-04-06T15:29:55.577Z</time></trkpt><trkpt lat="37.550625" lon="14.183345"><ele>336.0</ele><time>2026-04-06T15:29:56.576Z</time></trkpt><trkpt lat="37.5504836" lon="14.1831866"><ele>336.0</ele><time>2026-04-06T15:29:57.576Z</time></trkpt><trkpt lat="37.550343" lon="14.1830275"><ele>336.0</ele><time>2026-04-06T15:29:58.577Z</time></trkpt><trkpt lat="37.5502061" lon="14.1828713"><ele>336.3333333333333</ele><time>2026-04-06T15:29:59.577Z</time></trkpt><trkpt lat="37.5500667" lon="14.182708"><ele>336.66666666666663</ele><time>2026-04-06T15:30:00.576Z</time></trkpt><trkpt lat="37.5499279" lon="14.1825484"><ele>337.0</ele><time>2026-04-06T15:30:01.576Z</time></trkpt><trkpt lat="37.5497911" lon="14.1823855"><ele>338.0</ele><time>2026-04-06T15:30:02.577Z</time></trkpt><trkpt lat="37.5496525" lon="14.1822195"><ele>339.0</ele><time>2026-04-06T15:30:03.576Z</time></trkpt><trkpt lat="37.5495131" lon="14.182044"><ele>340.0</ele><time>2026-04-06T15:30:04.577Z</time></trkpt><trkpt lat="37.5493757" lon="14.1818684"><ele>340.0</ele><time>2026-04-06T15:30:05.576Z</time></trkpt><trkpt lat="37.5492389" lon="14.1816979"><ele>340.0</ele><time>2026-04-06T15:30:06.576Z</time></trkpt><trkpt lat="37.5491066" lon="14.181528"><ele>340.0</ele><time>2026-04-06T15:30:07.576Z</time></trkpt><trkpt lat="37.5489714" lon="14.1813584"><ele>340.0</ele><time>2026-04-06T15:30:08.576Z</time></trkpt><trkpt lat="37.5488405" lon="14.1811899"><ele>340.0</ele><time>2026-04-06T15:30:09.576Z</time></trkpt><trkpt lat="37.5487197" lon="14.1810236"><ele>340.0</ele><time>2026-04-06T15:30:10.576Z</time></trkpt><trkpt lat="37.5485978" lon="14.1808679"><ele>338.66666666666663</ele><time>2026-04-06T15:30:11.576Z</time></trkpt><trkpt lat="37.5484772" lon="14.1807097"><ele>337.3333333333333</ele><time>2026-04-06T15:30:12.576Z</time></trkpt><trkpt lat="37.5483534" lon="14.1805549"><ele>336.0</ele><time>2026-04-06T15:30:13.576Z</time></trkpt><trkpt lat="37.5482296" lon="14.1803931"><ele>335.6666666666667</ele><time>2026-04-06T15:30:14.576Z</time></trkpt><trkpt lat="37.5481081" lon="14.1802259"><ele>335.33333333333337</ele><time>2026-04-06T15:30:15.577Z</time></trkpt><trkpt lat="37.5479904" lon="14.1800496"><ele>335.0</ele><time>2026-04-06T15:30:16.577Z</time></trkpt><trkpt lat="37.5478671" lon="14.1798787"><ele>334.0</ele><time>2026-04-06T15:30:17.576Z</time></trkpt><trkpt lat="37.5477434" lon="14.1796994"><ele>333.0</ele><time>2026-04-06T15:30:18.577Z</time></trkpt><trkpt lat="37.5476139" lon="14.1795184"><ele>332.0</ele><time>2026-04-06T15:30:19.576Z</time></trkpt><trkpt lat="37.5474851" lon="14.1793285"><ele>332.0</ele><time>2026-04-06T15:30:20.576Z</time></trkpt><trkpt lat="37.5473556" lon="14.1791375"><ele>332.0</ele><time>2026-04-06T15:30:21.576Z</time></trkpt><trkpt lat="37.5472241" lon="14.1789453"><ele>332.0</ele><time>2026-04-06T15:30:22.577Z</time></trkpt><trkpt lat="37.5470927" lon="14.1787532"><ele>332.0</ele><time>2026-04-06T15:30:23.576Z</time></trkpt><trkpt lat="37.5469648" lon="14.1785578"><ele>332.0</ele><time>2026-04-06T15:30:24.576Z</time></trkpt><trkpt lat="37.5468375" lon="14.1783573"><ele>332.0</ele><time>2026-04-06T15:30:25.576Z</time></trkpt><trkpt lat="37.5467077" lon="14.1781579"><ele>332.0</ele><time>2026-04-06T15:30:26.576Z</time></trkpt><trkpt lat="37.5465769" lon="14.1779563"><ele>332.0</ele><time>2026-04-06T15:30:27.576Z</time></trkpt><trkpt lat="37.5464497" lon="14.1777528"><ele>332.0</ele><time>2026-04-06T15:30:28.576Z</time></trkpt><trkpt lat="37.5463243" lon="14.1775513"><ele>334.0</ele><time>2026-04-06T15:30:29.576Z</time></trkpt><trkpt lat="37.5461979" lon="14.1773518"><ele>336.0</ele><time>2026-04-06T15:30:30.576Z</time></trkpt><trkpt lat="37.5460735" lon="14.1771536"><ele>338.0</ele><time>2026-04-06T15:30:31.576Z</time></trkpt><trkpt lat="37.5459517" lon="14.1769592"><ele>338.0</ele><time>2026-04-06T15:30:32.576Z</time></trkpt><trkpt lat="37.5458332" lon="14.1767703"><ele>338.0</ele><time>2026-04-06T15:30:33.577Z</time></trkpt><trkpt lat="37.5457161" lon="14.1765866"><ele>338.0</ele><time>2026-04-06T15:30:34.576Z</time></trkpt><trkpt lat="37.5456014" lon="14.1764042"><ele>338.6666666666667</ele><time>2026-04-06T15:30:35.577Z</time></trkpt><trkpt lat="37.5454839" lon="14.1762257"><ele>339.3333333333333</ele><time>2026-04-06T15:30:36.576Z</time></trkpt><trkpt lat="37.5453692" lon="14.1760459"><ele>340.0</ele><time>2026-04-06T15:30:37.576Z</time></trkpt><trkpt lat="37.5452572" lon="14.175865"><ele>340.66666666666663</ele><time>2026-04-06T15:30:38.576Z</time></trkpt><trkpt lat="37.5451464" lon="14.1756867"><ele>341.3333333333333</ele><time>2026-04-06T15:30:39.577Z</time></trkpt><trkpt lat="37.5450339" lon="14.1755096"><ele>342.0</ele><time>2026-04-06T15:30:40.576Z</time></trkpt><trkpt lat="37.5449251" lon="14.1753308"><ele>342.0</ele><time>2026-04-06T15:30:41.576Z</time></trkpt><trkpt lat="37.544814" lon="14.1751524"><ele>342.0</ele><time>2026-04-06T15:30:42.576Z</time></trkpt><trkpt lat="37.5447015" lon="14.1749751"><ele>342.0</ele><time>2026-04-06T15:30:43.576Z</time></trkpt><trkpt lat="37.5445902" lon="14.1747963"><ele>344.0</ele><time>2026-04-06T15:30:44.577Z</time></trkpt><trkpt lat="37.5444795" lon="14.174617"><ele>346.0</ele><time>2026-04-06T15:30:45.577Z</time></trkpt><trkpt lat="37.544372" lon="14.1744374"><ele>348.0</ele><time>2026-04-06T15:30:46.576Z</time></trkpt><trkpt lat="37.5442587" lon="14.1742545"><ele>348.0</ele><time>2026-04-06T15:30:47.577Z</time></trkpt><trkpt lat="37.5441418" lon="14.1740659"><ele>348.0</ele><time>2026-04-06T15:30:48.577Z</time></trkpt><trkpt lat="37.5440222" lon="14.173876"><ele>348.0</ele><time>2026-04-06T15:30:49.576Z</time></trkpt><trkpt lat="37.5439047" lon="14.1736813"><ele>347.6666666666667</ele><time>2026-04-06T15:30:50.576Z</time></trkpt><trkpt lat="37.5437842" lon="14.173489"><ele>347.33333333333337</ele><time>2026-04-06T15:30:51.577Z</time></trkpt><trkpt lat="37.5436637" lon="14.1732948"><ele>347.0</ele><time>2026-04-06T15:30:52.576Z</time></trkpt><trkpt lat="37.5435414" lon="14.1731015"><ele>347.6666666666667</ele><time>2026-04-06T15:30:53.576Z</time></trkpt><trkpt lat="37.5434173" lon="14.1729096"><ele>348.3333333333333</ele><time>2026-04-06T15:30:54.576Z</time></trkpt><trkpt lat="37.5432929" lon="14.1727163"><ele>349.0</ele><time>2026-04-06T15:30:55.576Z</time></trkpt><trkpt lat="37.5431703" lon="14.1725225"><ele>349.0</ele><time>2026-04-06T15:30:56.576Z</time></trkpt><trkpt lat="37.5430506" lon="14.1723251"><ele>349.0</ele><time>2026-04-06T15:30:57.576Z</time></trkpt><trkpt lat="37.5429306" lon="14.1721306"><ele>349.0</ele><time>2026-04-06T15:30:58.576Z</time></trkpt><trkpt lat="37.5428134" lon="14.1719348"><ele>349.66666666666663</ele><time>2026-04-06T15:30:59.576Z</time></trkpt><trkpt lat="37.5426964" lon="14.171745"><ele>350.3333333333333</ele><time>2026-04-06T15:31:00.576Z</time></trkpt><trkpt lat="37.5425798" lon="14.1715628"><ele>351.0</ele><time>2026-04-06T15:31:01.576Z</time></trkpt><trkpt lat="37.5424607" lon="14.1713777"><ele>351.0</ele><time>2026-04-06T15:31:02.576Z</time></trkpt><trkpt lat="37.5423436" lon="14.1711887"><ele>351.0</ele><time>2026-04-06T15:31:03.576Z</time></trkpt><trkpt lat="37.5422259" lon="14.1710039"><ele>351.0</ele><time>2026-04-06T15:31:04.576Z</time></trkpt><trkpt lat="37.5421125" lon="14.1708166"><ele>354.0</ele><time>2026-04-06T15:31:05.576Z</time></trkpt><trkpt lat="37.5419992" lon="14.1706315"><ele>357.0</ele><time>2026-04-06T15:31:06.576Z</time></trkpt><trkpt lat="37.5418865" lon="14.1704465"><ele>360.0</ele><time>2026-04-06T15:31:07.576Z</time></trkpt><trkpt lat="37.5417751" lon="14.1702615"><ele>360.0</ele><time>2026-04-06T15:31:08.577Z</time></trkpt><trkpt lat="37.5416634" lon="14.1700741"><ele>360.0</ele><time>2026-04-06T15:31:09.576Z</time></trkpt><trkpt lat="37.5415559" lon="14.169884"><ele>360.0</ele><time>2026-04-06T15:31:10.576Z</time></trkpt><trkpt lat="37.5414456" lon="14.1696926"><ele>358.3333333333333</ele><time>2026-04-06T15:31:11.576Z</time></trkpt><trkpt lat="37.5413377" lon="14.1694926"><ele>356.66666666666663</ele><time>2026-04-06T15:31:12.576Z</time></trkpt><trkpt lat="37.5412313" lon="14.169286"><ele>355.0</ele><time>2026-04-06T15:31:13.576Z</time></trkpt><trkpt lat="37.5411291" lon="14.1690776"><ele>357.3333333333333</ele><time>2026-04-06T15:31:14.576Z</time></trkpt><trkpt lat="37.5410304" lon="14.1688616"><ele>359.6666666666667</ele><time>2026-04-06T15:31:15.577Z</time></trkpt><trkpt lat="37.5409316" lon="14.168644"><ele>362.0</ele><time>2026-04-06T15:31:16.576Z</time></trkpt><trkpt lat="37.5408342" lon="14.1684213"><ele>362.0</ele><time>2026-04-06T15:31:17.576Z</time></trkpt><trkpt lat="37.5407362" lon="14.168196"><ele>362.0</ele><time>2026-04-06T15:31:18.576Z</time></trkpt><trkpt lat="37.5406456" lon="14.167968"><ele>362.0</ele><time>2026-04-06T15:31:19.576Z</time></trkpt><trkpt lat="37.5405595" lon="14.1677323"><ele>361.6666666666667</ele><time>2026-04-06T15:31:20.576Z</time></trkpt><trkpt lat="37.5404737" lon="14.1674916"><ele>361.3333333333333</ele><time>2026-04-06T15:31:21.577Z</time></trkpt><trkpt lat="37.5403915" lon="14.1672515"><ele>361.0</ele><time>2026-04-06T15:31:22.576Z</time></trkpt><trkpt lat="37.5403117" lon="14.1670051"><ele>363.3333333333333</ele><time>2026-04-06T15:31:23.576Z</time></trkpt><trkpt lat="37.5402327" lon="14.1667544"><ele>365.6666666666667</ele><time>2026-04-06T15:31:24.576Z</time></trkpt><trkpt lat="37.5401614" lon="14.1665058"><ele>368.0</ele><time>2026-04-06T15:31:25.576Z</time></trkpt><trkpt lat="37.5400857" lon="14.1662508"><ele>368.33333333333337</ele><time>2026-04-06T15:31:26.576Z</time></trkpt><trkpt lat="37.5400178" lon="14.1659919"><ele>368.6666666666667</ele><time>2026-04-06T15:31:27.576Z</time></trkpt><trkpt lat="37.5399539" lon="14.1657305"><ele>369.0</ele><time>2026-04-06T15:31:28.577Z</time></trkpt><trkpt lat="37.5398963" lon="14.1654651"><ele>370.6666666666667</ele><time>2026-04-06T15:31:29.576Z</time></trkpt><trkpt lat="37.5398425" lon="14.165199"><ele>372.33333333333337</ele><time>2026-04-06T15:31:30.577Z</time></trkpt><trkpt lat="37.539794" lon="14.1649308"><ele>374.0</ele><time>2026-04-06T15:31:31.576Z</time></trkpt><trkpt lat="37.5397509" lon="14.16466"><ele>376.6666666666667</ele><time>2026-04-06T15:31:32.577Z</time></trkpt><trkpt lat="37.5397084" lon="14.1643878"><ele>379.3333333333333</ele><time>2026-04-06T15:31:33.576Z</time></trkpt><trkpt lat="37.5396696" lon="14.1641178"><ele>382.0</ele><time>2026-04-06T15:31:34.576Z</time></trkpt><trkpt lat="37.5396374" lon="14.1638459"><ele>388.5</ele><time>2026-04-06T15:31:35.577Z</time></trkpt><trkpt lat="37.539615" lon="14.1635643"><ele>395.0</ele><time>2026-04-06T15:31:36.576Z</time></trkpt><trkpt lat="37.5441327" lon="14.1467855"><ele>382.0</ele><time>2026-04-06T15:33:00.576Z</time></trkpt><trkpt lat="37.5442379" lon="14.1466313"><ele>369.0</ele><time>2026-04-06T15:33:01.576Z</time></trkpt><trkpt lat="37.5443333" lon="14.146471"><ele>356.0</ele><time>2026-04-06T15:33:02.576Z</time></trkpt><trkpt lat="37.5444339" lon="14.1463167"><ele>354.0</ele><time>2026-04-06T15:33:03.576Z</time></trkpt><trkpt lat="37.544545" lon="14.1461641"><ele>352.0</ele><time>2026-04-06T15:33:04.577Z</time></trkpt><trkpt lat="37.5446669" lon="14.1460103"><ele>350.0</ele><time>2026-04-06T15:33:05.576Z</time></trkpt><trkpt lat="37.5447953" lon="14.1458553"><ele>349.33333333333337</ele><time>2026-04-06T15:33:06.576Z</time></trkpt><trkpt lat="37.5449282" lon="14.1456974"><ele>348.6666666666667</ele><time>2026-04-06T15:33:07.577Z</time></trkpt><trkpt lat="37.5450665" lon="14.1455377"><ele>348.0</ele><time>2026-04-06T15:33:08.576Z</time></trkpt><trkpt lat="37.5452005" lon="14.145386"><ele>348.0</ele><time>2026-04-06T15:33:09.576Z</time></trkpt><trkpt lat="37.5453352" lon="14.1452451"><ele>348.0</ele><time>2026-04-06T15:33:10.576Z</time></trkpt><trkpt lat="37.5454711" lon="14.1451081"><ele>348.0</ele><time>2026-04-06T15:33:11.576Z</time></trkpt><trkpt lat="37.5456077" lon="14.1449763"><ele>348.6666666666667</ele><time>2026-04-06T15:33:12.576Z</time></trkpt><trkpt lat="37.5457449" lon="14.1448451"><ele>349.33333333333337</ele><time>2026-04-06T15:33:13.576Z</time></trkpt><trkpt lat="37.5458806" lon="14.1447024"><ele>350.0</ele><time>2026-04-06T15:33:14.576Z</time></trkpt><trkpt lat="37.5460205" lon="14.144553"><ele>350.0</ele><time>2026-04-06T15:33:15.576Z</time></trkpt><trkpt lat="37.5461709" lon="14.1444061"><ele>350.0</ele><time>2026-04-06T15:33:16.576Z</time></trkpt><trkpt lat="37.5463321" lon="14.1442716"><ele>350.0</ele><time>2026-04-06T15:33:17.576Z</time></trkpt><trkpt lat="37.5465024" lon="14.1441417"><ele>349.0</ele><time>2026-04-06T15:33:18.576Z</time></trkpt><trkpt lat="37.5466751" lon="14.1440221"><ele>348.0</ele><time>2026-04-06T15:33:19.577Z</time></trkpt><trkpt lat="37.546859" lon="14.1439034"><ele>347.0</ele><time>2026-04-06T15:33:20.576Z</time></trkpt><trkpt lat="37.5470445" lon="14.1437915"><ele>346.6666666666667</ele><time>2026-04-06T15:33:21.577Z</time></trkpt><trkpt lat="37.5472339" lon="14.1436859"><ele>346.3333333333333</ele><time>2026-04-06T15:33:22.577Z</time></trkpt><trkpt lat="37.5474287" lon="14.1435765"><ele>346.0</ele><time>2026-04-06T15:33:23.576Z</time></trkpt><trkpt lat="37.5476428" lon="14.143461"><ele>346.0</ele><time>2026-04-06T15:33:24.576Z</time></trkpt><trkpt lat="37.5478687" lon="14.1433468"><ele>346.0</ele><time>2026-04-06T15:33:25.576Z</time></trkpt><trkpt lat="37.5481029" lon="14.1432409"><ele>341.5</ele><time>2026-04-06T15:33:26.576Z</time></trkpt><trkpt lat="37.5483475" lon="14.1431418"><ele>337.0</ele><time>2026-04-06T15:33:27.576Z</time></trkpt><trkpt lat="37.5485931" lon="14.1430562"><ele>338.0</ele><time>2026-04-06T15:33:28.577Z</time></trkpt><trkpt lat="37.5488397" lon="14.1429708"><ele>339.0</ele><time>2026-04-06T15:33:29.576Z</time></trkpt><trkpt lat="37.5490839" lon="14.142886"><ele>339.0</ele><time>2026-04-06T15:33:30.576Z</time></trkpt><trkpt lat="37.5493224" lon="14.1428043"><ele>339.0</ele><time>2026-04-06T15:33:31.576Z</time></trkpt><trkpt lat="37.5495469" lon="14.1427252"><ele>338.0</ele><time>2026-04-06T15:33:32.576Z</time></trkpt><trkpt lat="37.5497618" lon="14.1426537"><ele>337.0</ele><time>2026-04-06T15:33:33.576Z</time></trkpt><trkpt lat="37.5499714" lon="14.1425831"><ele>336.0</ele><time>2026-04-06T15:33:34.576Z</time></trkpt><trkpt lat="37.5501847" lon="14.1425093"><ele>335.6666666666667</ele><time>2026-04-06T15:33:35.577Z</time></trkpt><trkpt lat="37.5503944" lon="14.1424387"><ele>335.33333333333337</ele><time>2026-04-06T15:33:36.576Z</time></trkpt><trkpt lat="37.5506064" lon="14.1423632"><ele>335.0</ele><time>2026-04-06T15:33:37.576Z</time></trkpt><trkpt lat="37.5508199" lon="14.1422924"><ele>330.6666666666667</ele><time>2026-04-06T15:33:38.577Z</time></trkpt><trkpt lat="37.5510323" lon="14.1422225"><ele>326.3333333333333</ele><time>2026-04-06T15:33:39.577Z</time></trkpt><trkpt lat="37.5512523" lon="14.1421485"><ele>322.0</ele><time>2026-04-06T15:33:40.576Z</time></trkpt><trkpt lat="37.5514742" lon="14.14207"><ele>318.5</ele><time>2026-04-06T15:33:41.576Z</time></trkpt><trkpt lat="37.551703" lon="14.1419926"><ele>315.0</ele><time>2026-04-06T15:33:42.576Z</time></trkpt><trkpt lat="37.5519317" lon="14.1419163"><ele>313.0</ele><time>2026-04-06T15:33:43.576Z</time></trkpt><trkpt lat="37.5521646" lon="14.141837"><ele>311.0</ele><time>2026-04-06T15:33:44.577Z</time></trkpt><trkpt lat="37.5523978" lon="14.141757"><ele>311.0</ele><time>2026-04-06T15:33:45.577Z</time></trkpt><trkpt lat="37.5526337" lon="14.1416785"><ele>311.0</ele><time>2026-04-06T15:33:46.577Z</time></trkpt><trkpt lat="37.5528662" lon="14.1416023"><ele>311.0</ele><time>2026-04-06T15:33:47.576Z</time></trkpt><trkpt lat="37.5531007" lon="14.1415248"><ele>311.0</ele><time>2026-04-06T15:33:48.576Z</time></trkpt><trkpt lat="37.5533324" lon="14.1414461"><ele>311.0</ele><time>2026-04-06T15:33:49.576Z</time></trkpt><trkpt lat="37.5535653" lon="14.1413659"><ele>311.0</ele><time>2026-04-06T15:33:50.576Z</time></trkpt><trkpt lat="37.5537985" lon="14.1412842"><ele>312.5</ele><time>2026-04-06T15:33:51.576Z</time></trkpt><trkpt lat="37.5540314" lon="14.141197"><ele>314.0</ele><time>2026-04-06T15:33:52.576Z</time></trkpt><trkpt lat="37.5542607" lon="14.1411171"><ele>314.0</ele><time>2026-04-06T15:33:53.576Z</time></trkpt><trkpt lat="37.5544915" lon="14.1410371"><ele>314.0</ele><time>2026-04-06T15:33:54.576Z</time></trkpt><trkpt lat="37.5547129" lon="14.1409596"><ele>314.5</ele><time>2026-04-06T15:33:55.576Z</time></trkpt><trkpt lat="37.5549303" lon="14.1408837"><ele>315.0</ele><time>2026-04-06T15:33:56.576Z</time></trkpt><trkpt lat="37.5551489" lon="14.1408093"><ele>315.0</ele><time>2026-04-06T15:33:57.576Z</time></trkpt><trkpt lat="37.5553642" lon="14.1407387"><ele>315.0</ele><time>2026-04-06T15:33:58.576Z</time></trkpt><trkpt lat="37.5555786" lon="14.1406648"><ele>315.0</ele><time>2026-04-06T15:33:59.577Z</time></trkpt><trkpt lat="37.5557976" lon="14.1405953"><ele>313.5</ele><time>2026-04-06T15:34:00.576Z</time></trkpt><trkpt lat="37.5560221" lon="14.1405199"><ele>312.0</ele><time>2026-04-06T15:34:01.576Z</time></trkpt><trkpt lat="37.5562426" lon="14.1404419"><ele>311.5</ele><time>2026-04-06T15:34:02.576Z</time></trkpt><trkpt lat="37.5564634" lon="14.1403699"><ele>311.0</ele><time>2026-04-06T15:34:03.577Z</time></trkpt><trkpt lat="37.556681" lon="14.1402951"><ele>311.0</ele><time>2026-04-06T15:34:04.576Z</time></trkpt><trkpt lat="37.5568892" lon="14.1402245"><ele>311.0</ele><time>2026-04-06T15:34:05.576Z</time></trkpt><trkpt lat="37.5570901" lon="14.140158"><ele>311.0</ele><time>2026-04-06T15:34:06.576Z</time></trkpt><trkpt lat="37.5572868" lon="14.1400899"><ele>311.6666666666667</ele><time>2026-04-06T15:34:07.577Z</time></trkpt><trkpt lat="37.5574823" lon="14.1400237"><ele>312.3333333333333</ele><time>2026-04-06T15:34:08.576Z</time></trkpt><trkpt lat="37.557677" lon="14.1399554"><ele>313.0</ele><time>2026-04-06T15:34:09.576Z</time></trkpt><trkpt lat="37.557872" lon="14.1398957"><ele>313.3333333333333</ele><time>2026-04-06T15:34:10.576Z</time></trkpt><trkpt lat="37.5580673" lon="14.1398221"><ele>313.6666666666667</ele><time>2026-04-06T15:34:11.576Z</time></trkpt><trkpt lat="37.5582652" lon="14.139749"><ele>314.0</ele><time>2026-04-06T15:34:12.576Z</time></trkpt><trkpt lat="37.558467" lon="14.1396822"><ele>314.0</ele><time>2026-04-06T15:34:13.576Z</time></trkpt><trkpt lat="37.558663" lon="14.1396054"><ele>314.0</ele><time>2026-04-06T15:34:14.576Z</time></trkpt><trkpt lat="37.5588622" lon="14.1395341"><ele>314.0</ele><time>2026-04-06T15:34:15.576Z</time></trkpt><trkpt lat="37.5590683" lon="14.1394728"><ele>314.33333333333337</ele><time>2026-04-06T15:34:16.577Z</time></trkpt><trkpt lat="37.55927" lon="14.139404"><ele>314.6666666666667</ele><time>2026-04-06T15:34:17.576Z</time></trkpt><trkpt lat="37.5594713" lon="14.1393269"><ele>315.0</ele><time>2026-04-06T15:34:18.576Z</time></trkpt><trkpt lat="37.5596688" lon="14.1392605"><ele>315.6666666666667</ele><time>2026-04-06T15:34:19.576Z</time></trkpt><trkpt lat="37.5598593" lon="14.1391975"><ele>316.33333333333337</ele><time>2026-04-06T15:34:20.576Z</time></trkpt><trkpt lat="37.5600512" lon="14.1391284"><ele>317.0</ele><time>2026-04-06T15:34:21.576Z</time></trkpt><trkpt lat="37.5602414" lon="14.1390625"><ele>316.6666666666667</ele><time>2026-04-06T15:34:22.576Z</time></trkpt><trkpt lat="37.5604344" lon="14.1389966"><ele>316.3333333333333</ele><time>2026-04-06T15:34:23.576Z</time></trkpt><trkpt lat="37.5606245" lon="14.1389306"><ele>316.0</ele><time>2026-04-06T15:34:24.576Z</time></trkpt><trkpt lat="37.5608148" lon="14.1388662"><ele>316.0</ele><time>2026-04-06T15:34:25.576Z</time></trkpt><trkpt lat="37.5610032" lon="14.1388003"><ele>316.0</ele><time>2026-04-06T15:34:26.576Z</time></trkpt><trkpt lat="37.5611947" lon="14.1387326"><ele>316.0</ele><time>2026-04-06T15:34:27.576Z</time></trkpt><trkpt lat="37.5613868" lon="14.138667"><ele>316.0</ele><time>2026-04-06T15:34:28.577Z</time></trkpt><trkpt lat="37.5615814" lon="14.1386046"><ele>316.0</ele><time>2026-04-06T15:34:29.576Z</time></trkpt><trkpt lat="37.5617793" lon="14.1385406"><ele>316.0</ele><time>2026-04-06T15:34:30.576Z</time></trkpt><trkpt lat="37.5619811" lon="14.138472"><ele>316.0</ele><time>2026-04-06T15:34:31.576Z</time></trkpt><trkpt lat="37.5621809" lon="14.1384027"><ele>316.0</ele><time>2026-04-06T15:34:32.576Z</time></trkpt><trkpt lat="37.5623843" lon="14.1383328"><ele>316.0</ele><time>2026-04-06T15:34:33.577Z</time></trkpt><trkpt lat="37.5625883" lon="14.13826"><ele>316.3333333333333</ele><time>2026-04-06T15:34:34.576Z</time></trkpt><trkpt lat="37.5627936" lon="14.1381799"><ele>316.6666666666667</ele><time>2026-04-06T15:34:35.576Z</time></trkpt><trkpt lat="37.5630018" lon="14.1381083"><ele>317.0</ele><time>2026-04-06T15:34:36.577Z</time></trkpt><trkpt lat="37.5632118" lon="14.13804"><ele>317.6666666666667</ele><time>2026-04-06T15:34:37.576Z</time></trkpt><trkpt lat="37.5634202" lon="14.1379722"><ele>318.3333333333333</ele><time>2026-04-06T15:34:38.577Z</time></trkpt><trkpt lat="37.5636322" lon="14.1379056"><ele>319.0</ele><time>2026-04-06T15:34:39.576Z</time></trkpt><trkpt lat="37.5638444" lon="14.1378345"><ele>319.3333333333333</ele><time>2026-04-06T15:34:40.576Z</time></trkpt><trkpt lat="37.564057" lon="14.1377557"><ele>319.6666666666667</ele><time>2026-04-06T15:34:41.576Z</time></trkpt><trkpt lat="37.5642713" lon="14.1376837"><ele>320.0</ele><time>2026-04-06T15:34:42.576Z</time></trkpt><trkpt lat="37.5644854" lon="14.137608"><ele>320.0</ele><time>2026-04-06T15:34:43.576Z</time></trkpt><trkpt lat="37.5646955" lon="14.1375344"><ele>320.0</ele><time>2026-04-06T15:34:44.576Z</time></trkpt><trkpt lat="37.5649072" lon="14.1374605"><ele>320.0</ele><time>2026-04-06T15:34:45.576Z</time></trkpt><trkpt lat="37.5651187" lon="14.1373869"><ele>319.6666666666667</ele><time>2026-04-06T15:34:46.577Z</time></trkpt><trkpt lat="37.5653296" lon="14.1373158"><ele>319.3333333333333</ele><time>2026-04-06T15:34:47.576Z</time></trkpt><trkpt lat="37.5655392" lon="14.1372424"><ele>319.0</ele><time>2026-04-06T15:34:48.576Z</time></trkpt><trkpt lat="37.5657482" lon="14.1371696"><ele>319.0</ele><time>2026-04-06T15:34:49.576Z</time></trkpt><trkpt lat="37.5659532" lon="14.1370966"><ele>319.0</ele><time>2026-04-06T15:34:50.576Z</time></trkpt><trkpt lat="37.566155" lon="14.1370264"><ele>319.0</ele><time>2026-04-06T15:34:51.576Z</time></trkpt><trkpt lat="37.5663528" lon="14.1369579"><ele>319.66666666666663</ele><time>2026-04-06T15:34:52.576Z</time></trkpt><trkpt lat="37.5665501" lon="14.136887"><ele>320.3333333333333</ele><time>2026-04-06T15:34:53.576Z</time></trkpt><trkpt lat="37.5667499" lon="14.1368183"><ele>321.0</ele><time>2026-04-06T15:34:54.576Z</time></trkpt><trkpt lat="37.5669472" lon="14.1367562"><ele>321.6666666666667</ele><time>2026-04-06T15:34:55.576Z</time></trkpt><trkpt lat="37.5671466" lon="14.1366922"><ele>322.33333333333337</ele><time>2026-04-06T15:34:56.577Z</time></trkpt><trkpt lat="37.5673463" lon="14.1366228"><ele>323.0</ele><time>2026-04-06T15:34:57.576Z</time></trkpt><trkpt lat="37.5675481" lon="14.1365591"><ele>322.6666666666667</ele><time>2026-04-06T15:34:58.576Z</time></trkpt><trkpt lat="37.5677486" lon="14.1364911"><ele>322.3333333333333</ele><time>2026-04-06T15:34:59.576Z</time></trkpt><trkpt lat="37.5679531" lon="14.1364249"><ele>322.0</ele><time>2026-04-06T15:35:00.576Z</time></trkpt><trkpt lat="37.5681585" lon="14.1363576"><ele>322.0</ele><time>2026-04-06T15:35:01.576Z</time></trkpt><trkpt lat="37.5683556" lon="14.136282"><ele>322.0</ele><time>2026-04-06T15:35:02.576Z</time></trkpt><trkpt lat="37.5685466" lon="14.1362173"><ele>322.0</ele><time>2026-04-06T15:35:03.576Z</time></trkpt><trkpt lat="37.5687318" lon="14.1361556"><ele>322.0</ele><time>2026-04-06T15:35:04.577Z</time></trkpt><trkpt lat="37.5689165" lon="14.1360972"><ele>322.0</ele><time>2026-04-06T15:35:05.576Z</time></trkpt><trkpt lat="37.5691004" lon="14.1360399"><ele>322.0</ele><time>2026-04-06T15:35:06.576Z</time></trkpt><trkpt lat="37.56929" lon="14.1359877"><ele>322.0</ele><time>2026-04-06T15:35:07.576Z</time></trkpt><trkpt lat="37.5694969" lon="14.1359321"><ele>322.0</ele><time>2026-04-06T15:35:08.577Z</time></trkpt><trkpt lat="37.5697186" lon="14.1358733"><ele>322.0</ele><time>2026-04-06T15:35:09.577Z</time></trkpt><trkpt lat="37.569954" lon="14.1358228"><ele>323.5</ele><time>2026-04-06T15:35:10.576Z</time></trkpt><trkpt lat="37.5702062" lon="14.1357805"><ele>325.0</ele><time>2026-04-06T15:35:11.576Z</time></trkpt><trkpt lat="37.5704642" lon="14.1357489"><ele>325.0</ele><time>2026-04-06T15:35:12.584Z</time></trkpt><trkpt lat="37.5707285" lon="14.1357233"><ele>325.0</ele><time>2026-04-06T15:35:13.584Z</time></trkpt><trkpt lat="37.5710015" lon="14.1357178"><ele>325.0</ele><time>2026-04-06T15:35:14.585Z</time></trkpt><trkpt lat="37.5712671" lon="14.1357153"><ele>325.0</ele><time>2026-04-06T15:35:15.585Z</time></trkpt><trkpt lat="37.5715379" lon="14.1357182"><ele>324.5</ele><time>2026-04-06T15:35:16.584Z</time></trkpt><trkpt lat="37.5718106" lon="14.1357369"><ele>324.0</ele><time>2026-04-06T15:35:17.585Z</time></trkpt><trkpt lat="37.5720908" lon="14.1357699"><ele>325.0</ele><time>2026-04-06T15:35:18.584Z</time></trkpt><trkpt lat="37.5723711" lon="14.1358119"><ele>326.0</ele><time>2026-04-06T15:35:19.585Z</time></trkpt><trkpt lat="37.5726567" lon="14.1358715"><ele>328.0</ele><time>2026-04-06T15:35:20.584Z</time></trkpt><trkpt lat="37.5729468" lon="14.13594"><ele>330.0</ele><time>2026-04-06T15:35:21.584Z</time></trkpt><trkpt lat="37.5732333" lon="14.1360192"><ele>330.0</ele><time>2026-04-06T15:35:22.584Z</time></trkpt><trkpt lat="37.573523" lon="14.1361124"><ele>330.0</ele><time>2026-04-06T15:35:23.584Z</time></trkpt><trkpt lat="37.5738168" lon="14.1362107"><ele>331.5</ele><time>2026-04-06T15:35:24.584Z</time></trkpt><trkpt lat="37.5741126" lon="14.1363156"><ele>333.0</ele><time>2026-04-06T15:35:25.585Z</time></trkpt><trkpt lat="37.5744066" lon="14.1364242"><ele>332.0</ele><time>2026-04-06T15:35:26.584Z</time></trkpt><trkpt lat="37.5746984" lon="14.13653"><ele>331.0</ele><time>2026-04-06T15:35:27.584Z</time></trkpt><trkpt lat="37.5749913" lon="14.1366394"><ele>330.0</ele><time>2026-04-06T15:35:28.584Z</time></trkpt><trkpt lat="37.5752843" lon="14.1367461"><ele>329.0</ele><time>2026-04-06T15:35:29.584Z</time></trkpt><trkpt lat="37.5755781" lon="14.1368533"><ele>328.0</ele><time>2026-04-06T15:35:30.584Z</time></trkpt><trkpt lat="37.5758749" lon="14.136965"><ele>327.0</ele><time>2026-04-06T15:35:31.585Z</time></trkpt><trkpt lat="37.5761666" lon="14.1370737"><ele>328.5</ele><time>2026-04-06T15:35:32.584Z</time></trkpt><trkpt lat="37.5764589" lon="14.1371805"><ele>330.0</ele><time>2026-04-06T15:35:33.584Z</time></trkpt><trkpt lat="37.5767508" lon="14.1372871"><ele>326.5</ele><time>2026-04-06T15:35:34.585Z</time></trkpt><trkpt lat="37.5770478" lon="14.1373886"><ele>323.0</ele><time>2026-04-06T15:35:35.585Z</time></trkpt><trkpt lat="37.577343" lon="14.1374827"><ele>323.0</ele><time>2026-04-06T15:35:36.584Z</time></trkpt><trkpt lat="37.577645" lon="14.1375619"><ele>323.0</ele><time>2026-04-06T15:35:37.584Z</time></trkpt><trkpt lat="37.5779469" lon="14.1376289"><ele>324.5</ele><time>2026-04-06T15:35:38.584Z</time></trkpt><trkpt lat="37.5782492" lon="14.1376913"><ele>326.0</ele><time>2026-04-06T15:35:39.584Z</time></trkpt><trkpt lat="37.5785535" lon="14.1377428"><ele>327.5</ele><time>2026-04-06T15:35:40.585Z</time></trkpt><trkpt lat="37.578852" lon="14.1377902"><ele>329.0</ele><time>2026-04-06T15:35:41.584Z</time></trkpt><trkpt lat="37.579156" lon="14.1378222"><ele>329.0</ele><time>2026-04-06T15:35:42.584Z</time></trkpt><trkpt lat="37.579459" lon="14.1378381"><ele>329.0</ele><time>2026-04-06T15:35:43.584Z</time></trkpt><trkpt lat="37.5797621" lon="14.1378434"><ele>328.5</ele><time>2026-04-06T15:35:44.584Z</time></trkpt><trkpt lat="37.5800666" lon="14.1378402"><ele>328.0</ele><time>2026-04-06T15:35:45.585Z</time></trkpt><trkpt lat="37.5803685" lon="14.1378309"><ele>327.5</ele><time>2026-04-06T15:35:46.584Z</time></trkpt><trkpt lat="37.5806705" lon="14.1378076"><ele>327.0</ele><time>2026-04-06T15:35:47.584Z</time></trkpt><trkpt lat="37.5809736" lon="14.1377734"><ele>328.5</ele><time>2026-04-06T15:35:48.584Z</time></trkpt><trkpt lat="37.5812768" lon="14.1377283"><ele>330.0</ele><time>2026-04-06T15:35:49.584Z</time></trkpt><trkpt lat="37.5815836" lon="14.137677"><ele>330.0</ele><time>2026-04-06T15:35:50.585Z</time></trkpt><trkpt lat="37.5818837" lon="14.1376102"><ele>330.0</ele><time>2026-04-06T15:35:51.585Z</time></trkpt><trkpt lat="37.582185" lon="14.1375346"><ele>330.0</ele><time>2026-04-06T15:35:52.584Z</time></trkpt><trkpt lat="37.5824839" lon="14.137448"><ele>330.0</ele><time>2026-04-06T15:35:53.584Z</time></trkpt><trkpt lat="37.5827822" lon="14.1373434"><ele>330.5</ele><time>2026-04-06T15:35:54.584Z</time></trkpt><trkpt lat="37.5830731" lon="14.1372371"><ele>331.0</ele><time>2026-04-06T15:35:55.584Z</time></trkpt><trkpt lat="37.5833642" lon="14.1371201"><ele>331.0</ele><time>2026-04-06T15:35:56.585Z</time></trkpt><trkpt lat="37.5836446" lon="14.1369962"><ele>331.0</ele><time>2026-04-06T15:35:57.584Z</time></trkpt><trkpt lat="37.5839026" lon="14.1368771"><ele>330.0</ele><time>2026-04-06T15:35:58.584Z</time></trkpt><trkpt lat="37.5841443" lon="14.1367517"><ele>329.0</ele><time>2026-04-06T15:35:59.585Z</time></trkpt><trkpt lat="37.5843513" lon="14.1366435"><ele>330.0</ele><time>2026-04-06T15:36:00.584Z</time></trkpt><trkpt lat="37.5845265" lon="14.1365441"><ele>331.0</ele><time>2026-04-06T15:36:01.584Z</time></trkpt><trkpt lat="37.5846937" lon="14.1364363"><ele>332.0</ele><time>2026-04-06T15:36:02.584Z</time></trkpt><trkpt lat="37.5848492" lon="14.1363364"><ele>332.0</ele><time>2026-04-06T15:36:03.584Z</time></trkpt><trkpt lat="37.5849989" lon="14.1362418"><ele>332.0</ele><time>2026-04-06T15:36:04.584Z</time></trkpt><trkpt lat="37.585148" lon="14.136138"><ele>332.0</ele><time>2026-04-06T15:36:05.584Z</time></trkpt><trkpt lat="37.585305" lon="14.1360326"><ele>333.6666666666667</ele><time>2026-04-06T15:36:06.584Z</time></trkpt><trkpt lat="37.5854662" lon="14.135933"><ele>335.3333333333333</ele><time>2026-04-06T15:36:07.585Z</time></trkpt><trkpt lat="37.5856331" lon="14.1358349"><ele>337.0</ele><time>2026-04-06T15:36:08.585Z</time></trkpt><trkpt lat="37.5858042" lon="14.1357271"><ele>336.66666666666663</ele><time>2026-04-06T15:36:09.584Z</time></trkpt><trkpt lat="37.5859801" lon="14.1356143"><ele>336.3333333333333</ele><time>2026-04-06T15:36:10.584Z</time></trkpt><trkpt lat="37.5861665" lon="14.1355003"><ele>336.0</ele><time>2026-04-06T15:36:11.584Z</time></trkpt><trkpt lat="37.5863546" lon="14.135385"><ele>337.6666666666667</ele><time>2026-04-06T15:36:12.584Z</time></trkpt><trkpt lat="37.5865508" lon="14.1352723"><ele>339.33333333333337</ele><time>2026-04-06T15:36:13.585Z</time></trkpt><trkpt lat="37.5867444" lon="14.13514"><ele>341.0</ele><time>2026-04-06T15:36:14.584Z</time></trkpt><trkpt lat="37.5869454" lon="14.1350175"><ele>339.0</ele><time>2026-04-06T15:36:15.584Z</time></trkpt><trkpt lat="37.5871481" lon="14.1348878"><ele>337.0</ele><time>2026-04-06T15:36:16.584Z</time></trkpt><trkpt lat="37.5873622" lon="14.1347503"><ele>337.0</ele><time>2026-04-06T15:36:17.584Z</time></trkpt><trkpt lat="37.5875902" lon="14.134608"><ele>337.0</ele><time>2026-04-06T15:36:18.584Z</time></trkpt><trkpt lat="37.5878324" lon="14.1344653"><ele>338.0</ele><time>2026-04-06T15:36:19.584Z</time></trkpt><trkpt lat="37.5880752" lon="14.1343037"><ele>339.0</ele><time>2026-04-06T15:36:20.584Z</time></trkpt><trkpt lat="37.5883333" lon="14.1341337"><ele>339.0</ele><time>2026-04-06T15:36:21.584Z</time></trkpt><trkpt lat="37.5885939" lon="14.1339722"><ele>339.0</ele><time>2026-04-06T15:36:22.584Z</time></trkpt><trkpt lat="37.5888552" lon="14.1338087"><ele>339.0</ele><time>2026-04-06T15:36:23.585Z</time></trkpt><trkpt lat="37.5891173" lon="14.1336471"><ele>339.0</ele><time>2026-04-06T15:36:24.585Z</time></trkpt><trkpt lat="37.58938" lon="14.1334931"><ele>339.0</ele><time>2026-04-06T15:36:25.585Z</time></trkpt><trkpt lat="37.5896453" lon="14.1333282"><ele>339.0</ele><time>2026-04-06T15:36:26.584Z</time></trkpt><trkpt lat="37.5899101" lon="14.1331614"><ele>339.0</ele><time>2026-04-06T15:36:27.584Z</time></trkpt><trkpt lat="37.5901805" lon="14.1329921"><ele>339.0</ele><time>2026-04-06T15:36:28.584Z</time></trkpt><trkpt lat="37.590453" lon="14.132825"><ele>340.0</ele><time>2026-04-06T15:36:29.584Z</time></trkpt><trkpt lat="37.5907261" lon="14.1326547"><ele>341.0</ele><time>2026-04-06T15:36:30.584Z</time></trkpt><trkpt lat="37.5909989" lon="14.1324835"><ele>341.0</ele><time>2026-04-06T15:36:31.584Z</time></trkpt><trkpt lat="37.5912715" lon="14.132316"><ele>341.0</ele><time>2026-04-06T15:36:32.584Z</time></trkpt><trkpt lat="37.5915455" lon="14.1321477"><ele>341.0</ele><time>2026-04-06T15:36:33.584Z</time></trkpt><trkpt lat="37.5918221" lon="14.1319808"><ele>341.0</ele><time>2026-04-06T15:36:34.584Z</time></trkpt><trkpt lat="37.5920997" lon="14.1318167"><ele>341.5</ele><time>2026-04-06T15:36:35.584Z</time></trkpt><trkpt lat="37.5923765" lon="14.1316618"><ele>342.0</ele><time>2026-04-06T15:36:36.584Z</time></trkpt><trkpt lat="37.5926566" lon="14.1315147"><ele>343.5</ele><time>2026-04-06T15:36:37.584Z</time></trkpt><trkpt lat="37.5929397" lon="14.1313829"><ele>345.0</ele><time>2026-04-06T15:36:38.584Z</time></trkpt><trkpt lat="37.5932315" lon="14.1312629"><ele>345.0</ele><time>2026-04-06T15:36:39.584Z</time></trkpt><trkpt lat="37.5935249" lon="14.1311492"><ele>345.0</ele><time>2026-04-06T15:36:40.585Z</time></trkpt><trkpt lat="37.5938196" lon="14.1310419"><ele>344.5</ele><time>2026-04-06T15:36:41.584Z</time></trkpt><trkpt lat="37.5941116" lon="14.1309559"><ele>344.0</ele><time>2026-04-06T15:36:42.584Z</time></trkpt><trkpt lat="37.5944083" lon="14.1308848"><ele>344.5</ele><time>2026-04-06T15:36:43.584Z</time></trkpt><trkpt lat="37.594709" lon="14.1308336"><ele>345.0</ele><time>2026-04-06T15:36:44.585Z</time></trkpt><trkpt lat="37.595014" lon="14.1307986"><ele>345.0</ele><time>2026-04-06T15:36:45.585Z</time></trkpt><trkpt lat="37.5953213" lon="14.1307672"><ele>345.0</ele><time>2026-04-06T15:36:46.584Z</time></trkpt><trkpt lat="37.5956277" lon="14.1307402"><ele>345.0</ele><time>2026-04-06T15:36:47.585Z</time></trkpt><trkpt lat="37.595932" lon="14.1307279"><ele>345.0</ele><time>2026-04-06T15:36:48.584Z</time></trkpt><trkpt lat="37.5962376" lon="14.1307287"><ele>345.0</ele><time>2026-04-06T15:36:49.585Z</time></trkpt><trkpt lat="37.5965448" lon="14.1307533"><ele>345.0</ele><time>2026-04-06T15:36:50.584Z</time></trkpt><trkpt lat="37.5968465" lon="14.1307784"><ele>345.5</ele><time>2026-04-06T15:36:51.584Z</time></trkpt><trkpt lat="37.5971532" lon="14.1308127"><ele>346.0</ele><time>2026-04-06T15:36:52.584Z</time></trkpt><trkpt lat="37.5974595" lon="14.1308608"><ele>346.0</ele><time>2026-04-06T15:36:53.584Z</time></trkpt><trkpt lat="37.597765" lon="14.130911"><ele>346.0</ele><time>2026-04-06T15:36:54.584Z</time></trkpt><trkpt lat="37.5980675" lon="14.1309649"><ele>347.0</ele><time>2026-04-06T15:36:55.585Z</time></trkpt><trkpt lat="37.5983668" lon="14.1310255"><ele>348.0</ele><time>2026-04-06T15:36:56.584Z</time></trkpt><trkpt lat="37.5986659" lon="14.131089"><ele>348.0</ele><time>2026-04-06T15:36:57.585Z</time></trkpt><trkpt lat="37.5989642" lon="14.1311542"><ele>348.0</ele><time>2026-04-06T15:36:58.584Z</time></trkpt><trkpt lat="37.5992636" lon="14.1312202"><ele>348.5</ele><time>2026-04-06T15:36:59.584Z</time></trkpt><trkpt lat="37.5995589" lon="14.1312842"><ele>349.0</ele><time>2026-04-06T15:37:00.584Z</time></trkpt><trkpt lat="37.5998415" lon="14.1313468"><ele>349.0</ele><time>2026-04-06T15:37:01.584Z</time></trkpt><trkpt lat="37.6001012" lon="14.1314023"><ele>349.0</ele><time>2026-04-06T15:37:02.584Z</time></trkpt><trkpt lat="37.6003303" lon="14.1314504"><ele>349.0</ele><time>2026-04-06T15:37:03.585Z</time></trkpt><trkpt lat="37.6005459" lon="14.1314984"><ele>349.0</ele><time>2026-04-06T15:37:04.585Z</time></trkpt><trkpt lat="37.6007313" lon="14.1315434"><ele>349.0</ele><time>2026-04-06T15:37:05.584Z</time></trkpt><trkpt lat="37.6008936" lon="14.1315727"><ele>349.0</ele><time>2026-04-06T15:37:06.584Z</time></trkpt><trkpt lat="37.601037" lon="14.1315888"><ele>349.0</ele><time>2026-04-06T15:37:07.584Z</time></trkpt><trkpt lat="37.6011713" lon="14.1315528"><ele>349.0</ele><time>2026-04-06T15:37:08.584Z</time></trkpt><trkpt lat="37.6013212" lon="14.1314861"><ele>349.0</ele><time>2026-04-06T15:37:09.584Z</time></trkpt><trkpt lat="37.6014697" lon="14.1314425"><ele>348.3333333333333</ele><time>2026-04-06T15:37:10.584Z</time></trkpt><trkpt lat="37.6016193" lon="14.1314369"><ele>347.6666666666667</ele><time>2026-04-06T15:37:11.584Z</time></trkpt><trkpt lat="37.6017942" lon="14.1314715"><ele>347.0</ele><time>2026-04-06T15:37:12.584Z</time></trkpt><trkpt lat="37.6019908" lon="14.1315246"><ele>345.0</ele><time>2026-04-06T15:37:13.584Z</time></trkpt><trkpt lat="37.6022173" lon="14.1315719"><ele>343.0</ele><time>2026-04-06T15:37:14.584Z</time></trkpt><trkpt lat="37.6024587" lon="14.1316142"><ele>343.0</ele><time>2026-04-06T15:37:15.584Z</time></trkpt><trkpt lat="37.6027162" lon="14.1316642"><ele>343.0</ele><time>2026-04-06T15:37:16.585Z</time></trkpt><trkpt lat="37.6029832" lon="14.1317247"><ele>342.5</ele><time>2026-04-06T15:37:17.584Z</time></trkpt><trkpt lat="37.6032543" lon="14.1317731"><ele>342.0</ele><time>2026-04-06T15:37:18.584Z</time></trkpt><trkpt lat="37.6035185" lon="14.1318209"><ele>342.5</ele><time>2026-04-06T15:37:19.585Z</time></trkpt><trkpt lat="37.6037778" lon="14.1318531"><ele>343.0</ele><time>2026-04-06T15:37:20.584Z</time></trkpt><trkpt lat="37.6040403" lon="14.131858"><ele>343.0</ele><time>2026-04-06T15:37:21.584Z</time></trkpt><trkpt lat="37.6042921" lon="14.1318448"><ele>343.0</ele><time>2026-04-06T15:37:22.584Z</time></trkpt><trkpt lat="37.6045494" lon="14.1318054"><ele>343.5</ele><time>2026-04-06T15:37:23.584Z</time></trkpt><trkpt lat="37.6048065" lon="14.1317484"><ele>344.0</ele><time>2026-04-06T15:37:24.584Z</time></trkpt><trkpt lat="37.6050631" lon="14.1316769"><ele>344.0</ele><time>2026-04-06T15:37:25.584Z</time></trkpt><trkpt lat="37.6053155" lon="14.1315907"><ele>344.0</ele><time>2026-04-06T15:37:26.584Z</time></trkpt><trkpt lat="37.6055628" lon="14.1314847"><ele>345.0</ele><time>2026-04-06T15:37:27.584Z</time></trkpt><trkpt lat="37.6058039" lon="14.131363"><ele>346.0</ele><time>2026-04-06T15:37:28.584Z</time></trkpt><trkpt lat="37.6060391" lon="14.1312272"><ele>344.0</ele><time>2026-04-06T15:37:29.584Z</time></trkpt><trkpt lat="37.6062733" lon="14.1310703"><ele>342.0</ele><time>2026-04-06T15:37:30.584Z</time></trkpt><trkpt lat="37.606503" lon="14.1308923"><ele>347.5</ele><time>2026-04-06T15:37:31.584Z</time></trkpt><trkpt lat="37.6067226" lon="14.1306969"><ele>353.0</ele><time>2026-04-06T15:37:32.585Z</time></trkpt><trkpt lat="37.6069384" lon="14.1304969"><ele>350.5</ele><time>2026-04-06T15:37:33.584Z</time></trkpt><trkpt lat="37.607155" lon="14.130301"><ele>348.0</ele><time>2026-04-06T15:37:34.584Z</time></trkpt><trkpt lat="37.6073731" lon="14.1301006"><ele>348.0</ele><time>2026-04-06T15:37:35.584Z</time></trkpt><trkpt lat="37.6075908" lon="14.1298954"><ele>348.0</ele><time>2026-04-06T15:37:36.584Z</time></trkpt><trkpt lat="37.6078061" lon="14.1296954"><ele>349.0</ele><time>2026-04-06T15:37:37.584Z</time></trkpt><trkpt lat="37.6080192" lon="14.1294921"><ele>350.0</ele><time>2026-04-06T15:37:38.584Z</time></trkpt><trkpt lat="37.6082314" lon="14.129289"><ele>350.0</ele><time>2026-04-06T15:37:39.585Z</time></trkpt><trkpt lat="37.6084407" lon="14.1290858"><ele>350.0</ele><time>2026-04-06T15:37:40.584Z</time></trkpt><trkpt lat="37.6086508" lon="14.1288857"><ele>350.0</ele><time>2026-04-06T15:37:41.584Z</time></trkpt><trkpt lat="37.6088624" lon="14.1286861"><ele>350.0</ele><time>2026-04-06T15:37:42.584Z</time></trkpt><trkpt lat="37.6090744" lon="14.128485"><ele>350.0</ele><time>2026-04-06T15:37:43.585Z</time></trkpt><trkpt lat="37.6092825" lon="14.1282846"><ele>350.0</ele><time>2026-04-06T15:37:44.584Z</time></trkpt><trkpt lat="37.6094956" lon="14.1280826"><ele>349.5</ele><time>2026-04-06T15:37:45.584Z</time></trkpt><trkpt lat="37.6096971" lon="14.1278881"><ele>349.0</ele><time>2026-04-06T15:37:46.584Z</time></trkpt><trkpt lat="37.6098888" lon="14.1277007"><ele>349.0</ele><time>2026-04-06T15:37:47.584Z</time></trkpt><trkpt lat="37.610068" lon="14.1275263"><ele>349.0</ele><time>2026-04-06T15:37:48.584Z</time></trkpt><trkpt lat="37.6102463" lon="14.1273636"><ele>349.0</ele><time>2026-04-06T15:37:49.585Z</time></trkpt><trkpt lat="37.6104204" lon="14.1272061"><ele>348.66666666666663</ele><time>2026-04-06T15:37:50.584Z</time></trkpt><trkpt lat="37.6105966" lon="14.1270552"><ele>348.3333333333333</ele><time>2026-04-06T15:37:51.585Z</time></trkpt><trkpt lat="37.6107746" lon="14.1269039"><ele>348.0</ele><time>2026-04-06T15:37:52.584Z</time></trkpt><trkpt lat="37.6109553" lon="14.1267565"><ele>348.0</ele><time>2026-04-06T15:37:53.584Z</time></trkpt><trkpt lat="37.6111355" lon="14.1266133"><ele>348.0</ele><time>2026-04-06T15:37:54.584Z</time></trkpt><trkpt lat="37.6113171" lon="14.1264755"><ele>348.0</ele><time>2026-04-06T15:37:55.585Z</time></trkpt><trkpt lat="37.6115007" lon="14.1263499"><ele>348.0</ele><time>2026-04-06T15:37:56.584Z</time></trkpt><trkpt lat="37.6116842" lon="14.1262293"><ele>348.0</ele><time>2026-04-06T15:37:57.585Z</time></trkpt><trkpt lat="37.6118676" lon="14.1261075"><ele>348.0</ele><time>2026-04-06T15:37:58.585Z</time></trkpt><trkpt lat="37.6120545" lon="14.1259959"><ele>347.6666666666667</ele><time>2026-04-06T15:37:59.585Z</time></trkpt><trkpt lat="37.612245" lon="14.125887"><ele>347.33333333333337</ele><time>2026-04-06T15:38:00.584Z</time></trkpt><trkpt lat="37.6124343" lon="14.1257834"><ele>347.0</ele><time>2026-04-06T15:38:01.585Z</time></trkpt><trkpt lat="37.6126278" lon="14.1256851"><ele>347.6666666666667</ele><time>2026-04-06T15:38:02.585Z</time></trkpt><trkpt lat="37.6128245" lon="14.1255955"><ele>348.3333333333333</ele><time>2026-04-06T15:38:03.584Z</time></trkpt><trkpt lat="37.6130291" lon="14.1255091"><ele>349.0</ele><time>2026-04-06T15:38:04.584Z</time></trkpt><trkpt lat="37.6132312" lon="14.1254335"><ele>349.0</ele><time>2026-04-06T15:38:05.585Z</time></trkpt><trkpt lat="37.6134369" lon="14.1253563"><ele>349.0</ele><time>2026-04-06T15:38:06.585Z</time></trkpt><trkpt lat="37.6136363" lon="14.125282"><ele>349.0</ele><time>2026-04-06T15:38:07.584Z</time></trkpt><trkpt lat="37.6138298" lon="14.1252136"><ele>350.66666666666663</ele><time>2026-04-06T15:38:08.584Z</time></trkpt><trkpt lat="37.6140046" lon="14.1251504"><ele>352.3333333333333</ele><time>2026-04-06T15:38:09.585Z</time></trkpt><trkpt lat="37.6141704" lon="14.1250968"><ele>354.0</ele><time>2026-04-06T15:38:10.584Z</time></trkpt><trkpt lat="37.6143161" lon="14.1250516"><ele>354.0</ele><time>2026-04-06T15:38:11.584Z</time></trkpt><trkpt lat="37.6144404" lon="14.1250101"><ele>354.0</ele><time>2026-04-06T15:38:12.584Z</time></trkpt><trkpt lat="37.6145436" lon="14.1249708"><ele>354.0</ele><time>2026-04-06T15:38:13.585Z</time></trkpt><trkpt lat="37.6146338" lon="14.1249512"><ele>354.0</ele><time>2026-04-06T15:38:14.584Z</time></trkpt><trkpt lat="37.6147277" lon="14.1249696"><ele>354.0</ele><time>2026-04-06T15:38:15.584Z</time></trkpt><trkpt lat="37.614817" lon="14.1250076"><ele>354.25</ele><time>2026-04-06T15:38:16.584Z</time></trkpt><trkpt lat="37.6149192" lon="14.1250261"><ele>354.5</ele><time>2026-04-06T15:38:17.584Z</time></trkpt><trkpt lat="37.6150328" lon="14.1249894"><ele>354.75</ele><time>2026-04-06T15:38:18.584Z</time></trkpt><trkpt lat="37.6151889" lon="14.1249334"><ele>355.0</ele><time>2026-04-06T15:38:19.584Z</time></trkpt><trkpt lat="37.6153786" lon="14.1248624"><ele>355.0</ele><time>2026-04-06T15:38:20.585Z</time></trkpt><trkpt lat="37.6156064" lon="14.1248"><ele>355.0</ele><time>2026-04-06T15:38:21.584Z</time></trkpt><trkpt lat="37.6158718" lon="14.1247205"><ele>355.5</ele><time>2026-04-06T15:38:22.584Z</time></trkpt><trkpt lat="37.6161568" lon="14.1246207"><ele>356.0</ele><time>2026-04-06T15:38:23.584Z</time></trkpt><trkpt lat="37.6164619" lon="14.1245148"><ele>356.0</ele><time>2026-04-06T15:38:24.584Z</time></trkpt><trkpt lat="37.6167744" lon="14.1244103"><ele>356.0</ele><time>2026-04-06T15:38:25.584Z</time></trkpt><trkpt lat="37.6170877" lon="14.1243156"><ele>355.0</ele><time>2026-04-06T15:38:26.585Z</time></trkpt><trkpt lat="37.6173878" lon="14.1242263"><ele>354.0</ele><time>2026-04-06T15:38:27.585Z</time></trkpt><trkpt lat="37.6176886" lon="14.1241398"><ele>353.5</ele><time>2026-04-06T15:38:28.584Z</time></trkpt><trkpt lat="37.6179826" lon="14.1240449"><ele>353.0</ele><time>2026-04-06T15:38:29.584Z</time></trkpt><trkpt lat="37.6182738" lon="14.1239515"><ele>353.0</ele><time>2026-04-06T15:38:30.584Z</time></trkpt><trkpt lat="37.6185659" lon="14.1238533"><ele>353.0</ele><time>2026-04-06T15:38:31.584Z</time></trkpt><trkpt lat="37.6188573" lon="14.1237532"><ele>354.5</ele><time>2026-04-06T15:38:32.584Z</time></trkpt><trkpt lat="37.6191508" lon="14.1236506"><ele>356.0</ele><time>2026-04-06T15:38:33.585Z</time></trkpt><trkpt lat="37.6194471" lon="14.1235508"><ele>356.0</ele><time>2026-04-06T15:38:34.584Z</time></trkpt><trkpt lat="37.6197398" lon="14.123454"><ele>356.0</ele><time>2026-04-06T15:38:35.584Z</time></trkpt><trkpt lat="37.620033" lon="14.1233445"><ele>355.5</ele><time>2026-04-06T15:38:36.585Z</time></trkpt><trkpt lat="37.6203256" lon="14.123239"><ele>355.0</ele><time>2026-04-06T15:38:37.585Z</time></trkpt><trkpt lat="37.6206215" lon="14.123137"><ele>356.0</ele><time>2026-04-06T15:38:38.584Z</time></trkpt><trkpt lat="37.6209172" lon="14.1230366"><ele>357.0</ele><time>2026-04-06T15:38:39.584Z</time></trkpt><trkpt lat="37.6212095" lon="14.1229298"><ele>357.5</ele><time>2026-04-06T15:38:40.584Z</time></trkpt><trkpt lat="37.6215017" lon="14.1228223"><ele>358.0</ele><time>2026-04-06T15:38:41.584Z</time></trkpt><trkpt lat="37.6217937" lon="14.122705"><ele>357.5</ele><time>2026-04-06T15:38:42.584Z</time></trkpt><trkpt lat="37.6220841" lon="14.1225756"><ele>357.0</ele><time>2026-04-06T15:38:43.585Z</time></trkpt><trkpt lat="37.6223734" lon="14.1224371"><ele>359.5</ele><time>2026-04-06T15:38:44.584Z</time></trkpt><trkpt lat="37.6226572" lon="14.122289"><ele>362.0</ele><time>2026-04-06T15:38:45.584Z</time></trkpt><trkpt lat="37.622936" lon="14.1221394"><ele>362.5</ele><time>2026-04-06T15:38:46.585Z</time></trkpt><trkpt lat="37.6232164" lon="14.1219896"><ele>363.0</ele><time>2026-04-06T15:38:47.585Z</time></trkpt><trkpt lat="37.6234956" lon="14.1218386"><ele>361.5</ele><time>2026-04-06T15:38:48.584Z</time></trkpt><trkpt lat="37.623774" lon="14.1216941"><ele>360.0</ele><time>2026-04-06T15:38:49.584Z</time></trkpt><trkpt lat="37.6240545" lon="14.1215465"><ele>361.5</ele><time>2026-04-06T15:38:50.584Z</time></trkpt><trkpt lat="37.6243369" lon="14.121397"><ele>363.0</ele><time>2026-04-06T15:38:51.584Z</time></trkpt><trkpt lat="37.6246196" lon="14.1212476"><ele>363.0</ele><time>2026-04-06T15:38:52.584Z</time></trkpt><trkpt lat="37.6249034" lon="14.1211001"><ele>363.0</ele><time>2026-04-06T15:38:53.584Z</time></trkpt><trkpt lat="37.6251853" lon="14.1209499"><ele>364.0</ele><time>2026-04-06T15:38:54.584Z</time></trkpt><trkpt lat="37.6254656" lon="14.1208028"><ele>365.0</ele><time>2026-04-06T15:38:55.584Z</time></trkpt><trkpt lat="37.625745" lon="14.1206552"><ele>365.0</ele><time>2026-04-06T15:38:56.584Z</time></trkpt><trkpt lat="37.6260236" lon="14.1205082"><ele>365.0</ele><time>2026-04-06T15:38:57.585Z</time></trkpt><trkpt lat="37.6263054" lon="14.1203609"><ele>365.0</ele><time>2026-04-06T15:38:58.584Z</time></trkpt><trkpt lat="37.6265883" lon="14.120214"><ele>365.0</ele><time>2026-04-06T15:38:59.584Z</time></trkpt><trkpt lat="37.6268696" lon="14.1200714"><ele>363.5</ele><time>2026-04-06T15:39:00.585Z</time></trkpt><trkpt lat="37.627155" lon="14.1199308"><ele>362.0</ele><time>2026-04-06T15:39:01.584Z</time></trkpt><trkpt lat="37.627434" lon="14.1197835"><ele>363.5</ele><time>2026-04-06T15:39:02.585Z</time></trkpt><trkpt lat="37.6277174" lon="14.1196322"><ele>365.0</ele><time>2026-04-06T15:39:03.584Z</time></trkpt><trkpt lat="37.6279989" lon="14.1194801"><ele>365.0</ele><time>2026-04-06T15:39:04.585Z</time></trkpt><trkpt lat="37.6282819" lon="14.1193298"><ele>365.0</ele><time>2026-04-06T15:39:05.584Z</time></trkpt><trkpt lat="37.6285666" lon="14.1191831"><ele>364.0</ele><time>2026-04-06T15:39:06.584Z</time></trkpt><trkpt lat="37.6288492" lon="14.1190369"><ele>363.0</ele><time>2026-04-06T15:39:07.584Z</time></trkpt><trkpt lat="37.6291292" lon="14.1188851"><ele>363.0</ele><time>2026-04-06T15:39:08.584Z</time></trkpt><trkpt lat="37.6294073" lon="14.1187303"><ele>363.0</ele><time>2026-04-06T15:39:09.585Z</time></trkpt><trkpt lat="37.6296889" lon="14.1185815"><ele>362.0</ele><time>2026-04-06T15:39:10.584Z</time></trkpt><trkpt lat="37.6299591" lon="14.1184378"><ele>361.0</ele><time>2026-04-06T15:39:11.585Z</time></trkpt><trkpt lat="37.6302111" lon="14.1182987"><ele>361.5</ele><time>2026-04-06T15:39:12.584Z</time></trkpt><trkpt lat="37.630456" lon="14.1181626"><ele>362.0</ele><time>2026-04-06T15:39:13.584Z</time></trkpt><trkpt lat="37.6307029" lon="14.1180266"><ele>362.0</ele><time>2026-04-06T15:39:14.584Z</time></trkpt><trkpt lat="37.6309443" lon="14.1178952"><ele>362.0</ele><time>2026-04-06T15:39:15.585Z</time></trkpt><trkpt lat="37.631188" lon="14.1177671"><ele>363.5</ele><time>2026-04-06T15:39:16.584Z</time></trkpt><trkpt lat="37.631431" lon="14.1176389"><ele>365.0</ele><time>2026-04-06T15:39:17.584Z</time></trkpt><trkpt lat="37.6316725" lon="14.1175111"><ele>365.5</ele><time>2026-04-06T15:39:18.585Z</time></trkpt><trkpt lat="37.6319177" lon="14.1173787"><ele>366.0</ele><time>2026-04-06T15:39:19.584Z</time></trkpt><trkpt lat="37.6321697" lon="14.1172455"><ele>366.0</ele><time>2026-04-06T15:39:20.584Z</time></trkpt><trkpt lat="37.6324245" lon="14.1171108"><ele>366.0</ele><time>2026-04-06T15:39:21.584Z</time></trkpt><trkpt lat="37.6326845" lon="14.1169825"><ele>368.0</ele><time>2026-04-06T15:39:22.584Z</time></trkpt><trkpt lat="37.6329458" lon="14.1168569"><ele>370.0</ele><time>2026-04-06T15:39:23.584Z</time></trkpt><trkpt lat="37.6332156" lon="14.1167319"><ele>370.0</ele><time>2026-04-06T15:39:24.585Z</time></trkpt><trkpt lat="37.6334856" lon="14.1166087"><ele>370.0</ele><time>2026-04-06T15:39:25.584Z</time></trkpt><trkpt lat="37.6337636" lon="14.1164919"><ele>372.5</ele><time>2026-04-06T15:39:26.584Z</time></trkpt><trkpt lat="37.6340465" lon="14.1163646"><ele>375.0</ele><time>2026-04-06T15:39:27.584Z</time></trkpt><trkpt lat="37.634331" lon="14.1162381"><ele>377.0</ele><time>2026-04-06T15:39:28.584Z</time></trkpt><trkpt lat="37.634616" lon="14.1161045"><ele>379.0</ele><time>2026-04-06T15:39:29.584Z</time></trkpt><trkpt lat="37.6349012" lon="14.1159734"><ele>379.0</ele><time>2026-04-06T15:39:30.584Z</time></trkpt><trkpt lat="37.6351898" lon="14.1158424"><ele>379.0</ele><time>2026-04-06T15:39:31.585Z</time></trkpt><trkpt lat="37.6354787" lon="14.1157157"><ele>376.0</ele><time>2026-04-06T15:39:32.584Z</time></trkpt><trkpt lat="37.6357676" lon="14.1155935"><ele>373.0</ele><time>2026-04-06T15:39:33.584Z</time></trkpt><trkpt lat="37.6360547" lon="14.11547"><ele>372.0</ele><time>2026-04-06T15:39:34.585Z</time></trkpt><trkpt lat="37.6363429" lon="14.115344"><ele>371.0</ele><time>2026-04-06T15:39:35.584Z</time></trkpt><trkpt lat="37.6366348" lon="14.1152114"><ele>371.0</ele><time>2026-04-06T15:39:36.584Z</time></trkpt><trkpt lat="37.636926" lon="14.1150845"><ele>371.0</ele><time>2026-04-06T15:39:37.584Z</time></trkpt><trkpt lat="37.637217" lon="14.1149576"><ele>369.5</ele><time>2026-04-06T15:39:38.584Z</time></trkpt><trkpt lat="37.6375053" lon="14.1148348"><ele>368.0</ele><time>2026-04-06T15:39:39.584Z</time></trkpt><trkpt lat="37.6377983" lon="14.1147151"><ele>369.5</ele><time>2026-04-06T15:39:40.584Z</time></trkpt><trkpt lat="37.6380887" lon="14.1145955"><ele>371.0</ele><time>2026-04-06T15:39:41.584Z</time></trkpt><trkpt lat="37.6383811" lon="14.1144764"><ele>374.0</ele><time>2026-04-06T15:39:42.584Z</time></trkpt><trkpt lat="37.638674" lon="14.114364"><ele>377.0</ele><time>2026-04-06T15:39:43.584Z</time></trkpt><trkpt lat="37.6389667" lon="14.1142593"><ele>377.0</ele><time>2026-04-06T15:39:44.584Z</time></trkpt><trkpt lat="37.6392618" lon="14.1141507"><ele>377.0</ele><time>2026-04-06T15:39:45.584Z</time></trkpt><trkpt lat="37.6395576" lon="14.1140511"><ele>379.0</ele><time>2026-04-06T15:39:46.584Z</time></trkpt><trkpt lat="37.639855" lon="14.1139583"><ele>381.0</ele><time>2026-04-06T15:39:47.584Z</time></trkpt><trkpt lat="37.6401499" lon="14.1138679"><ele>381.0</ele><time>2026-04-06T15:39:48.584Z</time></trkpt><trkpt lat="37.6404463" lon="14.1137796"><ele>381.0</ele><time>2026-04-06T15:39:49.584Z</time></trkpt><trkpt lat="37.6407414" lon="14.1136888"><ele>381.0</ele><time>2026-04-06T15:39:50.585Z</time></trkpt><trkpt lat="37.6410367" lon="14.1136013"><ele>381.0</ele><time>2026-04-06T15:39:51.585Z</time></trkpt><trkpt lat="37.6413334" lon="14.1135084"><ele>380.0</ele><time>2026-04-06T15:39:52.584Z</time></trkpt><trkpt lat="37.6416323" lon="14.1134195"><ele>379.0</ele><time>2026-04-06T15:39:53.585Z</time></trkpt><trkpt lat="37.641928" lon="14.1133275"><ele>380.0</ele><time>2026-04-06T15:39:54.584Z</time></trkpt><trkpt lat="37.6422245" lon="14.113231"><ele>381.0</ele><time>2026-04-06T15:39:55.584Z</time></trkpt><trkpt lat="37.6425218" lon="14.1131324"><ele>379.5</ele><time>2026-04-06T15:39:56.584Z</time></trkpt><trkpt lat="37.6428178" lon="14.1130386"><ele>378.0</ele><time>2026-04-06T15:39:57.584Z</time></trkpt><trkpt lat="37.6431181" lon="14.1129428"><ele>378.0</ele><time>2026-04-06T15:39:58.585Z</time></trkpt><trkpt lat="37.6434144" lon="14.112847"><ele>378.0</ele><time>2026-04-06T15:39:59.584Z</time></trkpt><trkpt lat="37.6437148" lon="14.1127502"><ele>379.0</ele><time>2026-04-06T15:40:00.585Z</time></trkpt><trkpt lat="37.6440126" lon="14.1126579"><ele>380.0</ele><time>2026-04-06T15:40:01.584Z</time></trkpt><trkpt lat="37.6443101" lon="14.1125665"><ele>379.5</ele><time>2026-04-06T15:40:02.585Z</time></trkpt><trkpt lat="37.6446089" lon="14.1124817"><ele>379.0</ele><time>2026-04-06T15:40:03.584Z</time></trkpt><trkpt lat="37.6449071" lon="14.1124101"><ele>378.0</ele><time>2026-04-06T15:40:04.584Z</time></trkpt><trkpt lat="37.6452052" lon="14.1123361"><ele>377.0</ele><time>2026-04-06T15:40:05.584Z</time></trkpt><trkpt lat="37.6455076" lon="14.11227"><ele>377.0</ele><time>2026-04-06T15:40:06.584Z</time></trkpt><trkpt lat="37.6458081" lon="14.1122052"><ele>377.0</ele><time>2026-04-06T15:40:07.584Z</time></trkpt><trkpt lat="37.6461059" lon="14.1121411"><ele>378.0</ele><time>2026-04-06T15:40:08.584Z</time></trkpt><trkpt lat="37.6464042" lon="14.1120767"><ele>379.0</ele><time>2026-04-06T15:40:09.585Z</time></trkpt><trkpt lat="37.6467055" lon="14.1120076"><ele>381.5</ele><time>2026-04-06T15:40:10.584Z</time></trkpt><trkpt lat="37.6470071" lon="14.1119392"><ele>384.0</ele><time>2026-04-06T15:40:11.584Z</time></trkpt><trkpt lat="37.6473061" lon="14.1118697"><ele>384.0</ele><time>2026-04-06T15:40:12.584Z</time></trkpt><trkpt lat="37.6476071" lon="14.111798"><ele>384.0</ele><time>2026-04-06T15:40:13.584Z</time></trkpt><trkpt lat="37.6479059" lon="14.1117319"><ele>384.5</ele><time>2026-04-06T15:40:14.584Z</time></trkpt><trkpt lat="37.6482047" lon="14.1116666"><ele>385.0</ele><time>2026-04-06T15:40:15.584Z</time></trkpt><trkpt lat="37.6485078" lon="14.1116004"><ele>384.5</ele><time>2026-04-06T15:40:16.584Z</time></trkpt><trkpt lat="37.6488081" lon="14.1115409"><ele>384.0</ele><time>2026-04-06T15:40:17.584Z</time></trkpt><trkpt lat="37.6491119" lon="14.1114788"><ele>384.0</ele><time>2026-04-06T15:40:18.585Z</time></trkpt><trkpt lat="37.6494132" lon="14.1114141"><ele>384.0</ele><time>2026-04-06T15:40:19.584Z</time></trkpt><trkpt lat="37.6497164" lon="14.1113496"><ele>386.5</ele><time>2026-04-06T15:40:20.584Z</time></trkpt><trkpt lat="37.6500176" lon="14.1112841"><ele>389.0</ele><time>2026-04-06T15:40:21.584Z</time></trkpt><trkpt lat="37.6503184" lon="14.1112196"><ele>389.0</ele><time>2026-04-06T15:40:22.584Z</time></trkpt><trkpt lat="37.6506181" lon="14.1111541"><ele>389.0</ele><time>2026-04-06T15:40:23.585Z</time></trkpt><trkpt lat="37.6509184" lon="14.1110808"><ele>388.5</ele><time>2026-04-06T15:40:24.584Z</time></trkpt><trkpt lat="37.6512197" lon="14.111006"><ele>388.0</ele><time>2026-04-06T15:40:25.584Z</time></trkpt><trkpt lat="37.6515184" lon="14.1109233"><ele>388.0</ele><time>2026-04-06T15:40:26.585Z</time></trkpt><trkpt lat="37.6518158" lon="14.1108296"><ele>388.0</ele><time>2026-04-06T15:40:27.584Z</time></trkpt><trkpt lat="37.6521117" lon="14.1107189"><ele>388.5</ele><time>2026-04-06T15:40:28.584Z</time></trkpt><trkpt lat="37.652404" lon="14.1106012"><ele>389.0</ele><time>2026-04-06T15:40:29.584Z</time></trkpt><trkpt lat="37.6526904" lon="14.1104721"><ele>389.5</ele><time>2026-04-06T15:40:30.584Z</time></trkpt><trkpt lat="37.6529689" lon="14.1103298"><ele>390.0</ele><time>2026-04-06T15:40:31.584Z</time></trkpt><trkpt lat="37.6532482" lon="14.1101709"><ele>390.0</ele><time>2026-04-06T15:40:32.584Z</time></trkpt><trkpt lat="37.6535196" lon="14.1099979"><ele>390.0</ele><time>2026-04-06T15:40:33.584Z</time></trkpt><trkpt lat="37.6537934" lon="14.1098202"><ele>391.5</ele><time>2026-04-06T15:40:34.584Z</time></trkpt><trkpt lat="37.6540554" lon="14.1096312"><ele>393.0</ele><time>2026-04-06T15:40:35.584Z</time></trkpt><trkpt lat="37.6543177" lon="14.1094392"><ele>391.0</ele><time>2026-04-06T15:40:36.584Z</time></trkpt><trkpt lat="37.6545826" lon="14.1092439"><ele>389.0</ele><time>2026-04-06T15:40:37.585Z</time></trkpt><trkpt lat="37.654846" lon="14.1090527"><ele>389.0</ele><time>2026-04-06T15:40:38.584Z</time></trkpt><trkpt lat="37.6551078" lon="14.1088565"><ele>389.0</ele><time>2026-04-06T15:40:39.584Z</time></trkpt><trkpt lat="37.6553684" lon="14.10866"><ele>389.5</ele><time>2026-04-06T15:40:40.584Z</time></trkpt><trkpt lat="37.6556342" lon="14.1084647"><ele>390.0</ele><time>2026-04-06T15:40:41.585Z</time></trkpt><trkpt lat="37.6558992" lon="14.1082725"><ele>392.5</ele><time>2026-04-06T15:40:42.584Z</time></trkpt><trkpt lat="37.6561636" lon="14.1080797"><ele>395.0</ele><time>2026-04-06T15:40:43.584Z</time></trkpt><trkpt lat="37.656425" lon="14.1078816"><ele>395.0</ele><time>2026-04-06T15:40:44.584Z</time></trkpt><trkpt lat="37.6566892" lon="14.1076854"><ele>395.0</ele><time>2026-04-06T15:40:45.584Z</time></trkpt><trkpt lat="37.6569511" lon="14.1074829"><ele>395.5</ele><time>2026-04-06T15:40:46.584Z</time></trkpt><trkpt lat="37.6572097" lon="14.1072771"><ele>396.0</ele><time>2026-04-06T15:40:47.584Z</time></trkpt><trkpt lat="37.6574624" lon="14.1070599"><ele>396.0</ele><time>2026-04-06T15:40:48.584Z</time></trkpt><trkpt lat="37.6577081" lon="14.1068332"><ele>396.0</ele><time>2026-04-06T15:40:49.584Z</time></trkpt><trkpt lat="37.6579453" lon="14.1066004"><ele>396.5</ele><time>2026-04-06T15:40:50.584Z</time></trkpt><trkpt lat="37.6581807" lon="14.1063488"><ele>397.0</ele><time>2026-04-06T15:40:51.584Z</time></trkpt><trkpt lat="37.6584032" lon="14.1060879"><ele>396.5</ele><time>2026-04-06T15:40:52.584Z</time></trkpt><trkpt lat="37.658624" lon="14.1058183"><ele>396.0</ele><time>2026-04-06T15:40:53.584Z</time></trkpt><trkpt lat="37.6588321" lon="14.105535"><ele>396.0</ele><time>2026-04-06T15:40:54.584Z</time></trkpt><trkpt lat="37.6590306" lon="14.1052449"><ele>396.0</ele><time>2026-04-06T15:40:55.585Z</time></trkpt><trkpt lat="37.6592194" lon="14.1049408"><ele>396.5</ele><time>2026-04-06T15:40:56.584Z</time></trkpt><trkpt lat="37.6593981" lon="14.1046245"><ele>397.0</ele><time>2026-04-06T15:40:57.585Z</time></trkpt><trkpt lat="37.6595634" lon="14.1043057"><ele>398.0</ele><time>2026-04-06T15:40:58.584Z</time></trkpt><trkpt lat="37.6597165" lon="14.1039739"><ele>399.0</ele><time>2026-04-06T15:40:59.584Z</time></trkpt><trkpt lat="37.6598588" lon="14.1036351"><ele>399.0</ele><time>2026-04-06T15:41:00.584Z</time></trkpt><trkpt lat="37.6599925" lon="14.1032904"><ele>399.0</ele><time>2026-04-06T15:41:01.584Z</time></trkpt><trkpt lat="37.6601129" lon="14.1029385"><ele>399.0</ele><time>2026-04-06T15:41:02.584Z</time></trkpt><trkpt lat="37.6602207" lon="14.1025831"><ele>399.0</ele><time>2026-04-06T15:41:03.585Z</time></trkpt><trkpt lat="37.6603218" lon="14.1022198"><ele>398.5</ele><time>2026-04-06T15:41:04.585Z</time></trkpt><trkpt lat="37.6604085" lon="14.1018487"><ele>398.0</ele><time>2026-04-06T15:41:05.584Z</time></trkpt><trkpt lat="37.6604846" lon="14.1014786"><ele>398.0</ele><time>2026-04-06T15:41:06.584Z</time></trkpt><trkpt lat="37.6605459" lon="14.1011063"><ele>398.0</ele><time>2026-04-06T15:41:07.584Z</time></trkpt><trkpt lat="37.6605957" lon="14.1007259"><ele>397.5</ele><time>2026-04-06T15:41:08.585Z</time></trkpt><trkpt lat="37.6606361" lon="14.1003476"><ele>397.0</ele><time>2026-04-06T15:41:09.585Z</time></trkpt><trkpt lat="37.6606684" lon="14.0999653"><ele>397.5</ele><time>2026-04-06T15:41:10.584Z</time></trkpt><trkpt lat="37.6606938" lon="14.0995818"><ele>398.0</ele><time>2026-04-06T15:41:11.584Z</time></trkpt><trkpt lat="37.6607182" lon="14.0991995"><ele>400.0</ele><time>2026-04-06T15:41:12.584Z</time></trkpt><trkpt lat="37.6607429" lon="14.0988185"><ele>402.0</ele><time>2026-04-06T15:41:13.584Z</time></trkpt><trkpt lat="37.6607672" lon="14.0984358"><ele>402.0</ele><time>2026-04-06T15:41:14.584Z</time></trkpt><trkpt lat="37.6607892" lon="14.0980529"><ele>402.0</ele><time>2026-04-06T15:41:15.584Z</time></trkpt><trkpt lat="37.6608146" lon="14.0976702"><ele>401.0</ele><time>2026-04-06T15:41:16.585Z</time></trkpt><trkpt lat="37.660841" lon="14.0972877"><ele>400.0</ele><time>2026-04-06T15:41:17.584Z</time></trkpt><trkpt lat="37.6608635" lon="14.0969033"><ele>400.5</ele><time>2026-04-06T15:41:18.585Z</time></trkpt><trkpt lat="37.6608872" lon="14.0965187"><ele>401.0</ele><time>2026-04-06T15:41:19.584Z</time></trkpt><trkpt lat="37.660913" lon="14.0961372"><ele>402.5</ele><time>2026-04-06T15:41:20.584Z</time></trkpt><trkpt lat="37.66094" lon="14.0957516"><ele>404.0</ele><time>2026-04-06T15:41:21.584Z</time></trkpt><trkpt lat="37.6609681" lon="14.0953676"><ele>404.0</ele><time>2026-04-06T15:41:22.584Z</time></trkpt><trkpt lat="37.6609987" lon="14.0949852"><ele>404.0</ele><time>2026-04-06T15:41:23.584Z</time></trkpt><trkpt lat="37.6610264" lon="14.0946029"><ele>403.5</ele><time>2026-04-06T15:41:24.584Z</time></trkpt><trkpt lat="37.6610538" lon="14.0942236"><ele>403.0</ele><time>2026-04-06T15:41:25.585Z</time></trkpt><trkpt lat="37.6610816" lon="14.0938406"><ele>404.0</ele><time>2026-04-06T15:41:26.585Z</time></trkpt><trkpt lat="37.6611075" lon="14.0934556"><ele>405.0</ele><time>2026-04-06T15:41:27.584Z</time></trkpt><trkpt lat="37.661135" lon="14.0930739"><ele>410.0</ele><time>2026-04-06T15:41:28.584Z</time></trkpt><trkpt lat="37.6611616" lon="14.0926896"><ele>415.0</ele><time>2026-04-06T15:41:29.584Z</time></trkpt><trkpt lat="37.6611929" lon="14.0923092"><ele>416.0</ele><time>2026-04-06T15:41:30.584Z</time></trkpt><trkpt lat="37.6612295" lon="14.0919316"><ele>417.0</ele><time>2026-04-06T15:41:31.584Z</time></trkpt><trkpt lat="37.66127" lon="14.0915518"><ele>417.5</ele><time>2026-04-06T15:41:32.584Z</time></trkpt><trkpt lat="37.6613155" lon="14.0911703"><ele>418.0</ele><time>2026-04-06T15:41:33.584Z</time></trkpt><trkpt lat="37.6613489" lon="14.0907929"><ele>417.0</ele><time>2026-04-06T15:41:34.584Z</time></trkpt><trkpt lat="37.66138" lon="14.0904122"><ele>416.0</ele><time>2026-04-06T15:41:35.585Z</time></trkpt><trkpt lat="37.6614085" lon="14.0900289"><ele>415.5</ele><time>2026-04-06T15:41:36.584Z</time></trkpt><trkpt lat="37.6614382" lon="14.0896464"><ele>415.0</ele><time>2026-04-06T15:41:37.584Z</time></trkpt><trkpt lat="37.6614669" lon="14.0892632"><ele>415.0</ele><time>2026-04-06T15:41:38.584Z</time></trkpt><trkpt lat="37.6614952" lon="14.0888784"><ele>415.0</ele><time>2026-04-06T15:41:39.584Z</time></trkpt><trkpt lat="37.6615197" lon="14.0884928"><ele>414.0</ele><time>2026-04-06T15:41:40.585Z</time></trkpt><trkpt lat="37.661546" lon="14.0881078"><ele>413.0</ele><time>2026-04-06T15:41:41.584Z</time></trkpt><trkpt lat="37.661567" lon="14.087719"><ele>413.0</ele><time>2026-04-06T15:41:42.584Z</time></trkpt><trkpt lat="37.6615861" lon="14.0873351"><ele>413.0</ele><time>2026-04-06T15:41:43.584Z</time></trkpt><trkpt lat="37.6615985" lon="14.0869513"><ele>411.5</ele><time>2026-04-06T15:41:44.585Z</time></trkpt><trkpt lat="37.6616014" lon="14.0865662"><ele>410.0</ele><time>2026-04-06T15:41:45.584Z</time></trkpt><trkpt lat="37.6615963" lon="14.0861811"><ele>410.0</ele><time>2026-04-06T15:41:46.585Z</time></trkpt><trkpt lat="37.6615815" lon="14.0858033"><ele>410.0</ele><time>2026-04-06T15:41:47.584Z</time></trkpt><trkpt lat="37.661564" lon="14.0854183"><ele>410.0</ele><time>2026-04-06T15:41:48.585Z</time></trkpt><trkpt lat="37.6615394" lon="14.0850352"><ele>410.0</ele><time>2026-04-06T15:41:49.584Z</time></trkpt><trkpt lat="37.6615132" lon="14.0846543"><ele>410.0</ele><time>2026-04-06T15:41:50.584Z</time></trkpt><trkpt lat="37.6614888" lon="14.0842701"><ele>410.0</ele><time>2026-04-06T15:41:51.584Z</time></trkpt><trkpt lat="37.6614598" lon="14.0838878"><ele>410.0</ele><time>2026-04-06T15:41:52.585Z</time></trkpt><trkpt lat="37.6614364" lon="14.0835033"><ele>410.0</ele><time>2026-04-06T15:41:53.59Z</time></trkpt><trkpt lat="37.66141" lon="14.0831227"><ele>409.5</ele><time>2026-04-06T15:41:54.59Z</time></trkpt><trkpt lat="37.6613857" lon="14.082742"><ele>409.0</ele><time>2026-04-06T15:41:55.591Z</time></trkpt><trkpt lat="37.6613614" lon="14.082359"><ele>408.5</ele><time>2026-04-06T15:41:56.59Z</time></trkpt><trkpt lat="37.6613319" lon="14.0819766"><ele>408.0</ele><time>2026-04-06T15:41:57.591Z</time></trkpt><trkpt lat="37.6613031" lon="14.0815957"><ele>409.0</ele><time>2026-04-06T15:41:58.59Z</time></trkpt><trkpt lat="37.6612769" lon="14.0812131"><ele>410.0</ele><time>2026-04-06T15:41:59.59Z</time></trkpt><trkpt lat="37.6612451" lon="14.0808294"><ele>412.5</ele><time>2026-04-06T15:42:00.59Z</time></trkpt><trkpt lat="37.6612136" lon="14.0804462"><ele>415.0</ele><time>2026-04-06T15:42:01.59Z</time></trkpt><trkpt lat="37.6611855" lon="14.0800645"><ele>419.5</ele><time>2026-04-06T15:42:02.591Z</time></trkpt><trkpt lat="37.6611564" lon="14.0796837"><ele>424.0</ele><time>2026-04-06T15:42:03.59Z</time></trkpt><trkpt lat="37.6611321" lon="14.0793174"><ele>419.0</ele><time>2026-04-06T15:42:04.59Z</time></trkpt><trkpt lat="37.6611139" lon="14.0789805"><ele>414.0</ele><time>2026-04-06T15:42:05.591Z</time></trkpt><trkpt lat="37.6610878" lon="14.078673"><ele>414.0</ele><time>2026-04-06T15:42:06.59Z</time></trkpt><trkpt lat="37.661064" lon="14.078381"><ele>414.0</ele><time>2026-04-06T15:42:07.59Z</time></trkpt><trkpt lat="37.6610447" lon="14.0781084"><ele>414.0</ele><time>2026-04-06T15:42:08.59Z</time></trkpt><trkpt lat="37.6610278" lon="14.0778411"><ele>414.66666666666663</ele><time>2026-04-06T15:42:09.59Z</time></trkpt><trkpt lat="37.6610086" lon="14.0775735"><ele>415.3333333333333</ele><time>2026-04-06T15:42:10.59Z</time></trkpt><trkpt lat="37.6609907" lon="14.0773069"><ele>416.0</ele><time>2026-04-06T15:42:11.591Z</time></trkpt><trkpt lat="37.6609724" lon="14.077043"><ele>416.0</ele><time>2026-04-06T15:42:12.59Z</time></trkpt><trkpt lat="37.6609541" lon="14.0767778"><ele>416.0</ele><time>2026-04-06T15:42:13.59Z</time></trkpt><trkpt lat="37.6609384" lon="14.0765137"><ele>416.0</ele><time>2026-04-06T15:42:14.59Z</time></trkpt><trkpt lat="37.660928" lon="14.0762441"><ele>415.0</ele><time>2026-04-06T15:42:15.591Z</time></trkpt><trkpt lat="37.660918" lon="14.0759696"><ele>414.0</ele><time>2026-04-06T15:42:16.59Z</time></trkpt><trkpt lat="37.6609196" lon="14.0756913"><ele>413.0</ele><time>2026-04-06T15:42:17.59Z</time></trkpt><trkpt lat="37.6609254" lon="14.0754076"><ele>413.0</ele><time>2026-04-06T15:42:18.59Z</time></trkpt><trkpt lat="37.6609337" lon="14.0751237"><ele>413.0</ele><time>2026-04-06T15:42:19.591Z</time></trkpt><trkpt lat="37.660947" lon="14.074836"><ele>415.0</ele><time>2026-04-06T15:42:20.591Z</time></trkpt><trkpt lat="37.6609671" lon="14.0745476"><ele>417.0</ele><time>2026-04-06T15:42:21.59Z</time></trkpt><trkpt lat="37.6609925" lon="14.0742526"><ele>420.5</ele><time>2026-04-06T15:42:22.59Z</time></trkpt><trkpt lat="37.6610252" lon="14.0739666"><ele>424.0</ele><time>2026-04-06T15:42:23.59Z</time></trkpt><trkpt lat="37.6610646" lon="14.0736859"><ele>424.0</ele><time>2026-04-06T15:42:24.59Z</time></trkpt><trkpt lat="37.6611067" lon="14.0734126"><ele>424.0</ele><time>2026-04-06T15:42:25.591Z</time></trkpt><trkpt lat="37.6611497" lon="14.0731467"><ele>424.0</ele><time>2026-04-06T15:42:26.59Z</time></trkpt><trkpt lat="37.6612013" lon="14.0728836"><ele>422.0</ele><time>2026-04-06T15:42:27.591Z</time></trkpt><trkpt lat="37.6612565" lon="14.0726182"><ele>420.0</ele><time>2026-04-06T15:42:28.59Z</time></trkpt><trkpt lat="37.661315" lon="14.0723586"><ele>418.0</ele><time>2026-04-06T15:42:29.59Z</time></trkpt><trkpt lat="37.6613763" lon="14.072093"><ele>418.0</ele><time>2026-04-06T15:42:30.59Z</time></trkpt><trkpt lat="37.6614363" lon="14.0718301"><ele>418.0</ele><time>2026-04-06T15:42:31.59Z</time></trkpt><trkpt lat="37.6615034" lon="14.0715722"><ele>418.0</ele><time>2026-04-06T15:42:32.59Z</time></trkpt><trkpt lat="37.6615696" lon="14.0713127"><ele>418.6666666666667</ele><time>2026-04-06T15:42:33.59Z</time></trkpt><trkpt lat="37.6616385" lon="14.0710557"><ele>419.33333333333337</ele><time>2026-04-06T15:42:34.591Z</time></trkpt><trkpt lat="37.6617034" lon="14.0707962"><ele>420.0</ele><time>2026-04-06T15:42:35.591Z</time></trkpt><trkpt lat="37.6617656" lon="14.0705353"><ele>420.33333333333337</ele><time>2026-04-06T15:42:36.59Z</time></trkpt><trkpt lat="37.6618278" lon="14.0702763"><ele>420.6666666666667</ele><time>2026-04-06T15:42:37.59Z</time></trkpt><trkpt lat="37.6618899" lon="14.070018"><ele>421.0</ele><time>2026-04-06T15:42:38.59Z</time></trkpt><trkpt lat="37.6619533" lon="14.0697545"><ele>421.0</ele><time>2026-04-06T15:42:39.59Z</time></trkpt><trkpt lat="37.6620179" lon="14.0694868"><ele>421.0</ele><time>2026-04-06T15:42:40.59Z</time></trkpt><trkpt lat="37.6620827" lon="14.0692245"><ele>421.0</ele><time>2026-04-06T15:42:41.59Z</time></trkpt><trkpt lat="37.6621472" lon="14.0689651"><ele>421.33333333333337</ele><time>2026-04-06T15:42:42.59Z</time></trkpt><trkpt lat="37.6622099" lon="14.0687029"><ele>421.66666666666663</ele><time>2026-04-06T15:42:43.591Z</time></trkpt><trkpt lat="37.6622748" lon="14.0684395"><ele>422.0</ele><time>2026-04-06T15:42:44.59Z</time></trkpt><trkpt lat="37.6623421" lon="14.0681783"><ele>422.0</ele><time>2026-04-06T15:42:45.59Z</time></trkpt><trkpt lat="37.6624075" lon="14.0679167"><ele>422.0</ele><time>2026-04-06T15:42:46.591Z</time></trkpt><trkpt lat="37.6624752" lon="14.0676568"><ele>422.0</ele><time>2026-04-06T15:42:47.59Z</time></trkpt><trkpt lat="37.6625382" lon="14.0673982"><ele>422.3333333333333</ele><time>2026-04-06T15:42:48.59Z</time></trkpt><trkpt lat="37.6626044" lon="14.0671398"><ele>422.66666666666663</ele><time>2026-04-06T15:42:49.59Z</time></trkpt><trkpt lat="37.662673" lon="14.0668821"><ele>423.0</ele><time>2026-04-06T15:42:50.59Z</time></trkpt><trkpt lat="37.6627477" lon="14.0666275"><ele>424.66666666666663</ele><time>2026-04-06T15:42:51.59Z</time></trkpt><trkpt lat="37.6628314" lon="14.0663743"><ele>426.3333333333333</ele><time>2026-04-06T15:42:52.59Z</time></trkpt><trkpt lat="37.6629206" lon="14.0661227"><ele>428.0</ele><time>2026-04-06T15:42:53.591Z</time></trkpt><trkpt lat="37.6630164" lon="14.065876"><ele>427.66666666666663</ele><time>2026-04-06T15:42:54.591Z</time></trkpt><trkpt lat="37.6631178" lon="14.0656314"><ele>427.33333333333337</ele><time>2026-04-06T15:42:55.59Z</time></trkpt><trkpt lat="37.6632267" lon="14.0653969"><ele>427.0</ele><time>2026-04-06T15:42:56.59Z</time></trkpt><trkpt lat="37.6633416" lon="14.065166"><ele>427.0</ele><time>2026-04-06T15:42:57.591Z</time></trkpt><trkpt lat="37.6634629" lon="14.0649401"><ele>427.0</ele><time>2026-04-06T15:42:58.59Z</time></trkpt><trkpt lat="37.6635924" lon="14.0647267"><ele>427.0</ele><time>2026-04-06T15:42:59.59Z</time></trkpt><trkpt lat="37.6637211" lon="14.0645143"><ele>427.6666666666667</ele><time>2026-04-06T15:43:00.59Z</time></trkpt><trkpt lat="37.6638538" lon="14.0643097"><ele>428.33333333333337</ele><time>2026-04-06T15:43:01.59Z</time></trkpt><trkpt lat="37.6639946" lon="14.0641148"><ele>429.0</ele><time>2026-04-06T15:43:02.59Z</time></trkpt><trkpt lat="37.6641398" lon="14.0639258"><ele>428.33333333333337</ele><time>2026-04-06T15:43:03.59Z</time></trkpt><trkpt lat="37.6642907" lon="14.0637388"><ele>427.6666666666667</ele><time>2026-04-06T15:43:04.59Z</time></trkpt><trkpt lat="37.6644391" lon="14.0635581"><ele>427.0</ele><time>2026-04-06T15:43:05.591Z</time></trkpt><trkpt lat="37.6645924" lon="14.0633786"><ele>426.33333333333337</ele><time>2026-04-06T15:43:06.591Z</time></trkpt><trkpt lat="37.6647456" lon="14.0631965"><ele>425.66666666666663</ele><time>2026-04-06T15:43:07.591Z</time></trkpt><trkpt lat="37.6649009" lon="14.0630101"><ele>425.0</ele><time>2026-04-06T15:43:08.591Z</time></trkpt><trkpt lat="37.6650608" lon="14.062826"><ele>425.0</ele><time>2026-04-06T15:43:09.591Z</time></trkpt><trkpt lat="37.6652194" lon="14.0626425"><ele>425.0</ele><time>2026-04-06T15:43:10.59Z</time></trkpt><trkpt lat="37.6653816" lon="14.0624588"><ele>425.0</ele><time>2026-04-06T15:43:11.59Z</time></trkpt><trkpt lat="37.6655445" lon="14.0622713"><ele>426.0</ele><time>2026-04-06T15:43:12.591Z</time></trkpt><trkpt lat="37.6657057" lon="14.0620853"><ele>427.0</ele><time>2026-04-06T15:43:13.591Z</time></trkpt><trkpt lat="37.6658656" lon="14.0619041"><ele>428.0</ele><time>2026-04-06T15:43:14.59Z</time></trkpt><trkpt lat="37.6660268" lon="14.0617214"><ele>428.0</ele><time>2026-04-06T15:43:15.59Z</time></trkpt><trkpt lat="37.6661896" lon="14.0615359"><ele>428.0</ele><time>2026-04-06T15:43:16.59Z</time></trkpt><trkpt lat="37.6663527" lon="14.0613499"><ele>428.0</ele><time>2026-04-06T15:43:17.591Z</time></trkpt><trkpt lat="37.6665127" lon="14.0611593"><ele>428.0</ele><time>2026-04-06T15:43:18.591Z</time></trkpt><trkpt lat="37.6666752" lon="14.0609711"><ele>428.0</ele><time>2026-04-06T15:43:19.59Z</time></trkpt><trkpt lat="37.6668377" lon="14.0607885"><ele>428.0</ele><time>2026-04-06T15:43:20.59Z</time></trkpt><trkpt lat="37.6669993" lon="14.0606017"><ele>428.66666666666663</ele><time>2026-04-06T15:43:21.59Z</time></trkpt><trkpt lat="37.6671584" lon="14.0604138"><ele>429.33333333333337</ele><time>2026-04-06T15:43:22.59Z</time></trkpt><trkpt lat="37.6673185" lon="14.06023"><ele>430.0</ele><time>2026-04-06T15:43:23.59Z</time></trkpt><trkpt lat="37.6674781" lon="14.0600509"><ele>430.0</ele><time>2026-04-06T15:43:24.59Z</time></trkpt><trkpt lat="37.6676383" lon="14.059866"><ele>430.0</ele><time>2026-04-06T15:43:25.591Z</time></trkpt><trkpt lat="37.6677959" lon="14.0596803"><ele>430.0</ele><time>2026-04-06T15:43:26.59Z</time></trkpt><trkpt lat="37.6679512" lon="14.0594976"><ele>430.0</ele><time>2026-04-06T15:43:27.59Z</time></trkpt><trkpt lat="37.6681092" lon="14.0593185"><ele>430.0</ele><time>2026-04-06T15:43:28.59Z</time></trkpt><trkpt lat="37.6682667" lon="14.0591411"><ele>430.0</ele><time>2026-04-06T15:43:29.59Z</time></trkpt><trkpt lat="37.6684227" lon="14.058962"><ele>430.33333333333337</ele><time>2026-04-06T15:43:30.59Z</time></trkpt><trkpt lat="37.6685802" lon="14.0587863"><ele>430.66666666666663</ele><time>2026-04-06T15:43:31.591Z</time></trkpt><trkpt lat="37.6687347" lon="14.0586033"><ele>431.0</ele><time>2026-04-06T15:43:32.59Z</time></trkpt><trkpt lat="37.6688882" lon="14.058424"><ele>431.66666666666663</ele><time>2026-04-06T15:43:33.59Z</time></trkpt><trkpt lat="37.6690445" lon="14.0582456"><ele>432.33333333333337</ele><time>2026-04-06T15:43:34.591Z</time></trkpt><trkpt lat="37.6692026" lon="14.0580693"><ele>433.0</ele><time>2026-04-06T15:43:35.59Z</time></trkpt><trkpt lat="37.6693612" lon="14.0578946"><ele>433.0</ele><time>2026-04-06T15:43:36.591Z</time></trkpt><trkpt lat="37.6695164" lon="14.0577235"><ele>433.0</ele><time>2026-04-06T15:43:37.591Z</time></trkpt><trkpt lat="37.6696741" lon="14.0575447"><ele>433.0</ele><time>2026-04-06T15:43:38.59Z</time></trkpt><trkpt lat="37.6698305" lon="14.0573617"><ele>433.0</ele><time>2026-04-06T15:43:39.591Z</time></trkpt><trkpt lat="37.6699864" lon="14.0571782"><ele>433.0</ele><time>2026-04-06T15:43:40.59Z</time></trkpt><trkpt lat="37.6701453" lon="14.0569964"><ele>433.0</ele><time>2026-04-06T15:43:41.59Z</time></trkpt><trkpt lat="37.6703033" lon="14.0568167"><ele>433.6666666666667</ele><time>2026-04-06T15:43:42.59Z</time></trkpt><trkpt lat="37.6704572" lon="14.0566353"><ele>434.33333333333337</ele><time>2026-04-06T15:43:43.59Z</time></trkpt><trkpt lat="37.6706148" lon="14.0564566"><ele>435.0</ele><time>2026-04-06T15:43:44.59Z</time></trkpt><trkpt lat="37.6707723" lon="14.056273"><ele>435.66666666666663</ele><time>2026-04-06T15:43:45.591Z</time></trkpt><trkpt lat="37.6709285" lon="14.0560883"><ele>436.3333333333333</ele><time>2026-04-06T15:43:46.59Z</time></trkpt><trkpt lat="37.6710893" lon="14.0559065"><ele>437.0</ele><time>2026-04-06T15:43:47.59Z</time></trkpt><trkpt lat="37.6712515" lon="14.0557234"><ele>438.3333333333333</ele><time>2026-04-06T15:43:48.59Z</time></trkpt><trkpt lat="37.6714157" lon="14.0555408"><ele>439.66666666666663</ele><time>2026-04-06T15:43:49.59Z</time></trkpt><trkpt lat="37.6715843" lon="14.0553636"><ele>441.0</ele><time>2026-04-06T15:43:50.59Z</time></trkpt><trkpt lat="37.6717555" lon="14.0552026"><ele>441.0</ele><time>2026-04-06T15:43:51.591Z</time></trkpt><trkpt lat="37.6719288" lon="14.0550454"><ele>441.0</ele><time>2026-04-06T15:43:52.59Z</time></trkpt><trkpt lat="37.6721069" lon="14.0548925"><ele>441.0</ele><time>2026-04-06T15:43:53.59Z</time></trkpt><trkpt lat="37.6722921" lon="14.0547397"><ele>439.66666666666663</ele><time>2026-04-06T15:43:54.59Z</time></trkpt><trkpt lat="37.6724808" lon="14.0545985"><ele>438.3333333333333</ele><time>2026-04-06T15:43:55.59Z</time></trkpt><trkpt lat="37.6726745" lon="14.0544629"><ele>437.0</ele><time>2026-04-06T15:43:56.591Z</time></trkpt><trkpt lat="37.6728728" lon="14.0543303"><ele>436.5</ele><time>2026-04-06T15:43:57.59Z</time></trkpt><trkpt lat="37.673074" lon="14.0542052"><ele>436.0</ele><time>2026-04-06T15:43:58.591Z</time></trkpt><trkpt lat="37.6732807" lon="14.0540869"><ele>436.0</ele><time>2026-04-06T15:43:59.591Z</time></trkpt><trkpt lat="37.6734897" lon="14.0539725"><ele>436.0</ele><time>2026-04-06T15:44:00.59Z</time></trkpt><trkpt lat="37.6737004" lon="14.0538696"><ele>436.5</ele><time>2026-04-06T15:44:01.59Z</time></trkpt><trkpt lat="37.673917" lon="14.0537785"><ele>437.0</ele><time>2026-04-06T15:44:02.591Z</time></trkpt><trkpt lat="37.6741355" lon="14.0537008"><ele>437.0</ele><time>2026-04-06T15:44:03.59Z</time></trkpt><trkpt lat="37.6743585" lon="14.0536288"><ele>437.0</ele><time>2026-04-06T15:44:04.59Z</time></trkpt><trkpt lat="37.6745821" lon="14.0535649"><ele>437.5</ele><time>2026-04-06T15:44:05.59Z</time></trkpt><trkpt lat="37.674808" lon="14.0535061"><ele>438.0</ele><time>2026-04-06T15:44:06.591Z</time></trkpt><trkpt lat="37.6750369" lon="14.053454"><ele>438.0</ele><time>2026-04-06T15:44:07.59Z</time></trkpt><trkpt lat="37.6752642" lon="14.0534185"><ele>438.0</ele><time>2026-04-06T15:44:08.59Z</time></trkpt><trkpt lat="37.6754988" lon="14.0533861"><ele>437.5</ele><time>2026-04-06T15:44:09.591Z</time></trkpt><trkpt lat="37.6757327" lon="14.0533695"><ele>437.0</ele><time>2026-04-06T15:44:10.59Z</time></trkpt><trkpt lat="37.6759698" lon="14.0533566"><ele>437.5</ele><time>2026-04-06T15:44:11.59Z</time></trkpt><trkpt lat="37.6761993" lon="14.0533572"><ele>438.0</ele><time>2026-04-06T15:44:12.591Z</time></trkpt><trkpt lat="37.6764335" lon="14.053352"><ele>438.0</ele><time>2026-04-06T15:44:13.59Z</time></trkpt><trkpt lat="37.6766618" lon="14.0533467"><ele>438.0</ele><time>2026-04-06T15:44:14.59Z</time></trkpt><trkpt lat="37.6768967" lon="14.053345"><ele>439.5</ele><time>2026-04-06T15:44:15.59Z</time></trkpt><trkpt lat="37.6771342" lon="14.0533426"><ele>441.0</ele><time>2026-04-06T15:44:16.59Z</time></trkpt><trkpt lat="37.6773743" lon="14.0533371"><ele>441.0</ele><time>2026-04-06T15:44:17.59Z</time></trkpt><trkpt lat="37.6776117" lon="14.0533285"><ele>441.0</ele><time>2026-04-06T15:44:18.59Z</time></trkpt><trkpt lat="37.6778479" lon="14.0533242"><ele>443.0</ele><time>2026-04-06T15:44:19.59Z</time></trkpt><trkpt lat="37.6780829" lon="14.0533201"><ele>445.0</ele><time>2026-04-06T15:44:20.59Z</time></trkpt><trkpt lat="37.6783204" lon="14.0533192"><ele>445.0</ele><time>2026-04-06T15:44:21.59Z</time></trkpt><trkpt lat="37.6785538" lon="14.0533216"><ele>445.0</ele><time>2026-04-06T15:44:22.591Z</time></trkpt><trkpt lat="37.678787" lon="14.0533237"><ele>448.0</ele><time>2026-04-06T15:44:23.59Z</time></trkpt><trkpt lat="37.6790216" lon="14.0533233"><ele>451.0</ele><time>2026-04-06T15:44:24.59Z</time></trkpt><trkpt lat="37.6792592" lon="14.0533183"><ele>452.0</ele><time>2026-04-06T15:44:25.59Z</time></trkpt><trkpt lat="37.6794933" lon="14.0533166"><ele>453.0</ele><time>2026-04-06T15:44:26.59Z</time></trkpt><trkpt lat="37.679734" lon="14.0533196"><ele>453.0</ele><time>2026-04-06T15:44:27.59Z</time></trkpt><trkpt lat="37.6799785" lon="14.0533187"><ele>453.0</ele><time>2026-04-06T15:44:28.59Z</time></trkpt><trkpt lat="37.6802278" lon="14.0533134"><ele>454.0</ele><time>2026-04-06T15:44:29.591Z</time></trkpt><trkpt lat="37.6804777" lon="14.0533083"><ele>455.0</ele><time>2026-04-06T15:44:30.59Z</time></trkpt><trkpt lat="37.680731" lon="14.0533047"><ele>455.0</ele><time>2026-04-06T15:44:31.591Z</time></trkpt><trkpt lat="37.6809851" lon="14.0532983"><ele>455.0</ele><time>2026-04-06T15:44:32.59Z</time></trkpt><trkpt lat="37.681237" lon="14.053296"><ele>458.5</ele><time>2026-04-06T15:44:33.591Z</time></trkpt><trkpt lat="37.6814868" lon="14.0532925"><ele>462.0</ele><time>2026-04-06T15:44:34.59Z</time></trkpt><trkpt lat="37.6817343" lon="14.0532856"><ele>469.5</ele><time>2026-04-06T15:44:35.59Z</time></trkpt><trkpt lat="37.6819771" lon="14.0532786"><ele>477.0</ele><time>2026-04-06T15:44:36.59Z</time></trkpt><trkpt lat="37.682223" lon="14.0532731"><ele>477.0</ele><time>2026-04-06T15:44:37.59Z</time></trkpt><trkpt lat="37.6824672" lon="14.0532736"><ele>477.0</ele><time>2026-04-06T15:44:38.59Z</time></trkpt><trkpt lat="37.6827167" lon="14.0532618"><ele>471.5</ele><time>2026-04-06T15:44:39.59Z</time></trkpt><trkpt lat="37.6829616" lon="14.0532495"><ele>466.0</ele><time>2026-04-06T15:44:40.59Z</time></trkpt><trkpt lat="37.6832039" lon="14.05325"><ele>466.0</ele><time>2026-04-06T15:44:41.591Z</time></trkpt><trkpt lat="37.6834518" lon="14.0532566"><ele>466.0</ele><time>2026-04-06T15:44:42.59Z</time></trkpt><trkpt lat="37.6836992" lon="14.053258"><ele>463.5</ele><time>2026-04-06T15:44:43.59Z</time></trkpt><trkpt lat="37.6839389" lon="14.0532574"><ele>461.0</ele><time>2026-04-06T15:44:44.591Z</time></trkpt><trkpt lat="37.6841828" lon="14.0532562"><ele>461.0</ele><time>2026-04-06T15:44:45.59Z</time></trkpt><trkpt lat="37.6844255" lon="14.0532542"><ele>461.0</ele><time>2026-04-06T15:44:46.59Z</time></trkpt><trkpt lat="37.6846716" lon="14.0532529"><ele>459.5</ele><time>2026-04-06T15:44:47.59Z</time></trkpt><trkpt lat="37.6849178" lon="14.0532512"><ele>458.0</ele><time>2026-04-06T15:44:48.59Z</time></trkpt><trkpt lat="37.6851647" lon="14.053253"><ele>459.5</ele><time>2026-04-06T15:44:49.59Z</time></trkpt><trkpt lat="37.6854106" lon="14.0532515"><ele>461.0</ele><time>2026-04-06T15:44:50.59Z</time></trkpt><trkpt lat="37.6856574" lon="14.0532484"><ele>461.0</ele><time>2026-04-06T15:44:51.59Z</time></trkpt><trkpt lat="37.6859024" lon="14.053248"><ele>461.0</ele><time>2026-04-06T15:44:52.59Z</time></trkpt><trkpt lat="37.6861491" lon="14.0532496"><ele>465.5</ele><time>2026-04-06T15:44:53.591Z</time></trkpt><trkpt lat="37.6863937" lon="14.053239"><ele>470.0</ele><time>2026-04-06T15:44:54.591Z</time></trkpt><trkpt lat="37.6866399" lon="14.0532314"><ele>470.0</ele><time>2026-04-06T15:44:55.59Z</time></trkpt><trkpt lat="37.6868897" lon="14.0532181"><ele>470.0</ele><time>2026-04-06T15:44:56.591Z</time></trkpt><trkpt lat="37.6871477" lon="14.0531961"><ele>472.0</ele><time>2026-04-06T15:44:57.59Z</time></trkpt><trkpt lat="37.6874094" lon="14.0531672"><ele>474.0</ele><time>2026-04-06T15:44:58.591Z</time></trkpt><trkpt lat="37.6876779" lon="14.0531352"><ele>477.0</ele><time>2026-04-06T15:44:59.59Z</time></trkpt><trkpt lat="37.6879468" lon="14.0531009"><ele>480.0</ele><time>2026-04-06T15:45:00.59Z</time></trkpt><trkpt lat="37.6882142" lon="14.0530612"><ele>480.0</ele><time>2026-04-06T15:45:01.59Z</time></trkpt><trkpt lat="37.6884878" lon="14.0530184"><ele>480.0</ele><time>2026-04-06T15:45:02.59Z</time></trkpt><trkpt lat="37.688763" lon="14.0529685"><ele>480.0</ele><time>2026-04-06T15:45:03.59Z</time></trkpt><trkpt lat="37.6890369" lon="14.0529128"><ele>480.0</ele><time>2026-04-06T15:45:04.59Z</time></trkpt><trkpt lat="37.6893118" lon="14.0528564"><ele>477.0</ele><time>2026-04-06T15:45:05.59Z</time></trkpt><trkpt lat="37.6895855" lon="14.0527907"><ele>474.0</ele><time>2026-04-06T15:45:06.591Z</time></trkpt><trkpt lat="37.6898609" lon="14.0527233"><ele>474.0</ele><time>2026-04-06T15:45:07.59Z</time></trkpt><trkpt lat="37.6901396" lon="14.052656"><ele>474.0</ele><time>2026-04-06T15:45:08.59Z</time></trkpt><trkpt lat="37.6906935" lon="14.0525148"><ele>475.0</ele><time>2026-04-06T15:45:10.59Z</time></trkpt><trkpt lat="37.6909782" lon="14.0524423"><ele>476.0</ele><time>2026-04-06T15:45:11.591Z</time></trkpt><trkpt lat="37.6912602" lon="14.0523709"><ele>473.0</ele><time>2026-04-06T15:45:12.59Z</time></trkpt><trkpt lat="37.6915423" lon="14.0523016"><ele>470.0</ele><time>2026-04-06T15:45:13.591Z</time></trkpt><trkpt lat="37.6918248" lon="14.0522286"><ele>468.5</ele><time>2026-04-06T15:45:14.59Z</time></trkpt><trkpt lat="37.6921074" lon="14.0521572"><ele>467.0</ele><time>2026-04-06T15:45:15.59Z</time></trkpt><trkpt lat="37.6923902" lon="14.0520909"><ele>467.0</ele><time>2026-04-06T15:45:16.59Z</time></trkpt><trkpt lat="37.6926749" lon="14.0520264"><ele>467.0</ele><time>2026-04-06T15:45:17.59Z</time></trkpt><trkpt lat="37.6929599" lon="14.0519552"><ele>466.0</ele><time>2026-04-06T15:45:18.59Z</time></trkpt><trkpt lat="37.6932454" lon="14.0518899"><ele>465.0</ele><time>2026-04-06T15:45:19.59Z</time></trkpt><trkpt lat="37.6935316" lon="14.0518264"><ele>465.5</ele><time>2026-04-06T15:45:20.591Z</time></trkpt><trkpt lat="37.6938112" lon="14.0517677"><ele>466.0</ele><time>2026-04-06T15:45:21.59Z</time></trkpt><trkpt lat="37.6940917" lon="14.0517076"><ele>466.0</ele><time>2026-04-06T15:45:22.59Z</time></trkpt><trkpt lat="37.694369" lon="14.0516493"><ele>466.0</ele><time>2026-04-06T15:45:23.59Z</time></trkpt><trkpt lat="37.6946486" lon="14.0515869"><ele>469.5</ele><time>2026-04-06T15:45:24.59Z</time></trkpt><trkpt lat="37.6949296" lon="14.0515143"><ele>473.0</ele><time>2026-04-06T15:45:25.59Z</time></trkpt><trkpt lat="37.6952157" lon="14.0514439"><ele>470.5</ele><time>2026-04-06T15:45:26.59Z</time></trkpt><trkpt lat="37.6955007" lon="14.051373"><ele>468.0</ele><time>2026-04-06T15:45:27.59Z</time></trkpt><trkpt lat="37.6957858" lon="14.0513033"><ele>468.0</ele><time>2026-04-06T15:45:28.59Z</time></trkpt><trkpt lat="37.6960693" lon="14.0512375"><ele>468.0</ele><time>2026-04-06T15:45:29.59Z</time></trkpt><trkpt lat="37.6963595" lon="14.0511701"><ele>468.5</ele><time>2026-04-06T15:45:30.59Z</time></trkpt><trkpt lat="37.69665" lon="14.051104"><ele>469.0</ele><time>2026-04-06T15:45:31.591Z</time></trkpt><trkpt lat="37.6969467" lon="14.0510418"><ele>472.5</ele><time>2026-04-06T15:45:32.59Z</time></trkpt><trkpt lat="37.6972432" lon="14.0509807"><ele>476.0</ele><time>2026-04-06T15:45:33.59Z</time></trkpt><trkpt lat="37.697545" lon="14.0509135"><ele>476.0</ele><time>2026-04-06T15:45:34.59Z</time></trkpt><trkpt lat="37.6978417" lon="14.0508373"><ele>476.0</ele><time>2026-04-06T15:45:35.59Z</time></trkpt><trkpt lat="37.6981391" lon="14.0507443"><ele>476.0</ele><time>2026-04-06T15:45:36.59Z</time></trkpt><trkpt lat="37.6984342" lon="14.0506426"><ele>476.0</ele><time>2026-04-06T15:45:37.59Z</time></trkpt><trkpt lat="37.6987265" lon="14.050525"><ele>475.0</ele><time>2026-04-06T15:45:38.59Z</time></trkpt><trkpt lat="37.6990199" lon="14.050403"><ele>474.0</ele><time>2026-04-06T15:45:39.591Z</time></trkpt><trkpt lat="37.6993082" lon="14.0502778"><ele>477.5</ele><time>2026-04-06T15:45:40.59Z</time></trkpt><trkpt lat="37.6995956" lon="14.0501521"><ele>481.0</ele><time>2026-04-06T15:45:41.591Z</time></trkpt><trkpt lat="37.6998807" lon="14.0500183"><ele>481.0</ele><time>2026-04-06T15:45:42.59Z</time></trkpt><trkpt lat="37.7001617" lon="14.0498818"><ele>481.0</ele><time>2026-04-06T15:45:43.59Z</time></trkpt><trkpt lat="37.7004405" lon="14.0497369"><ele>482.0</ele><time>2026-04-06T15:45:44.591Z</time></trkpt><trkpt lat="37.7007158" lon="14.0495789"><ele>483.0</ele><time>2026-04-06T15:45:45.59Z</time></trkpt><trkpt lat="37.7009885" lon="14.0494113"><ele>482.0</ele><time>2026-04-06T15:45:46.591Z</time></trkpt><trkpt lat="37.7012621" lon="14.0492397"><ele>481.0</ele><time>2026-04-06T15:45:47.59Z</time></trkpt><trkpt lat="37.7015273" lon="14.0490566"><ele>480.5</ele><time>2026-04-06T15:45:48.59Z</time></trkpt><trkpt lat="37.7017929" lon="14.0488637"><ele>480.0</ele><time>2026-04-06T15:45:49.59Z</time></trkpt><trkpt lat="37.7020566" lon="14.0486697"><ele>480.0</ele><time>2026-04-06T15:45:50.59Z</time></trkpt><trkpt lat="37.7023165" lon="14.0484734"><ele>480.0</ele><time>2026-04-06T15:45:51.59Z</time></trkpt><trkpt lat="37.7025799" lon="14.0482674"><ele>482.5</ele><time>2026-04-06T15:45:52.59Z</time></trkpt><trkpt lat="37.7028373" lon="14.0480567"><ele>485.0</ele><time>2026-04-06T15:45:53.59Z</time></trkpt><trkpt lat="37.7030916" lon="14.0478395"><ele>485.0</ele><time>2026-04-06T15:45:54.59Z</time></trkpt><trkpt lat="37.7033403" lon="14.047616"><ele>485.0</ele><time>2026-04-06T15:45:55.59Z</time></trkpt><trkpt lat="37.7035807" lon="14.0473863"><ele>491.5</ele><time>2026-04-06T15:45:56.59Z</time></trkpt><trkpt lat="37.7038211" lon="14.0471486"><ele>498.0</ele><time>2026-04-06T15:45:57.59Z</time></trkpt><trkpt lat="37.7040601" lon="14.0469122"><ele>498.0</ele><time>2026-04-06T15:45:58.59Z</time></trkpt><trkpt lat="37.7043002" lon="14.0466714"><ele>498.0</ele><time>2026-04-06T15:45:59.591Z</time></trkpt><trkpt lat="37.7045402" lon="14.0464276"><ele>500.5</ele><time>2026-04-06T15:46:00.59Z</time></trkpt><trkpt lat="37.7047776" lon="14.0461897"><ele>503.0</ele><time>2026-04-06T15:46:01.59Z</time></trkpt><trkpt lat="37.7050183" lon="14.0459543"><ele>504.5</ele><time>2026-04-06T15:46:02.59Z</time></trkpt><trkpt lat="37.7052564" lon="14.045719"><ele>506.0</ele><time>2026-04-06T15:46:03.59Z</time></trkpt><trkpt lat="37.7054938" lon="14.0454796"><ele>506.0</ele><time>2026-04-06T15:46:04.59Z</time></trkpt><trkpt lat="37.7057319" lon="14.0452426"><ele>506.0</ele><time>2026-04-06T15:46:05.59Z</time></trkpt><trkpt lat="37.705972" lon="14.0450052"><ele>506.5</ele><time>2026-04-06T15:46:06.59Z</time></trkpt><trkpt lat="37.706214" lon="14.0447658"><ele>507.0</ele><time>2026-04-06T15:46:07.59Z</time></trkpt><trkpt lat="37.706457" lon="14.04453"><ele>507.0</ele><time>2026-04-06T15:46:08.59Z</time></trkpt><trkpt lat="37.7066986" lon="14.0442846"><ele>507.0</ele><time>2026-04-06T15:46:09.59Z</time></trkpt><trkpt lat="37.7069372" lon="14.0440403"><ele>503.5</ele><time>2026-04-06T15:46:10.59Z</time></trkpt><trkpt lat="37.7071755" lon="14.043798"><ele>500.0</ele><time>2026-04-06T15:46:11.59Z</time></trkpt><trkpt lat="37.7074104" lon="14.0435556"><ele>500.0</ele><time>2026-04-06T15:46:12.59Z</time></trkpt><trkpt lat="37.7076458" lon="14.0433141"><ele>500.0</ele><time>2026-04-06T15:46:13.591Z</time></trkpt><trkpt lat="37.7078825" lon="14.0430738"><ele>500.5</ele><time>2026-04-06T15:46:14.59Z</time></trkpt><trkpt lat="37.7081203" lon="14.0428349"><ele>501.0</ele><time>2026-04-06T15:46:15.59Z</time></trkpt><trkpt lat="37.7083596" lon="14.0425986"><ele>499.5</ele><time>2026-04-06T15:46:16.59Z</time></trkpt><trkpt lat="37.708599" lon="14.0423581"><ele>498.0</ele><time>2026-04-06T15:46:17.591Z</time></trkpt><trkpt lat="37.7088378" lon="14.0421169"><ele>498.0</ele><time>2026-04-06T15:46:18.59Z</time></trkpt><trkpt lat="37.7090789" lon="14.0418795"><ele>498.0</ele><time>2026-04-06T15:46:19.59Z</time></trkpt><trkpt lat="37.7093194" lon="14.0416411"><ele>495.5</ele><time>2026-04-06T15:46:20.59Z</time></trkpt><trkpt lat="37.7095606" lon="14.0414067"><ele>493.0</ele><time>2026-04-06T15:46:21.59Z</time></trkpt><trkpt lat="37.7098064" lon="14.0411797"><ele>493.0</ele><time>2026-04-06T15:46:22.59Z</time></trkpt><trkpt lat="37.7100568" lon="14.0409623"><ele>493.0</ele><time>2026-04-06T15:46:23.59Z</time></trkpt><trkpt lat="37.710314" lon="14.0407532"><ele>494.0</ele><time>2026-04-06T15:46:24.59Z</time></trkpt><trkpt lat="37.7105771" lon="14.0405572"><ele>495.0</ele><time>2026-04-06T15:46:25.59Z</time></trkpt><trkpt lat="37.7108419" lon="14.0403698"><ele>495.0</ele><time>2026-04-06T15:46:26.59Z</time></trkpt><trkpt lat="37.7111146" lon="14.0401996"><ele>495.0</ele><time>2026-04-06T15:46:27.591Z</time></trkpt><trkpt lat="37.7113907" lon="14.0400333"><ele>496.5</ele><time>2026-04-06T15:46:28.59Z</time></trkpt><trkpt lat="37.7116743" lon="14.039884"><ele>498.0</ele><time>2026-04-06T15:46:29.591Z</time></trkpt><trkpt lat="37.7119556" lon="14.0397445"><ele>499.0</ele><time>2026-04-06T15:46:30.59Z</time></trkpt><trkpt lat="37.7122419" lon="14.0396141"><ele>500.0</ele><time>2026-04-06T15:46:31.59Z</time></trkpt><trkpt lat="37.7125322" lon="14.0395006"><ele>500.0</ele><time>2026-04-06T15:46:32.59Z</time></trkpt><trkpt lat="37.7128233" lon="14.0393934"><ele>500.0</ele><time>2026-04-06T15:46:33.59Z</time></trkpt><trkpt lat="37.7131137" lon="14.0393028"><ele>500.0</ele><time>2026-04-06T15:46:34.59Z</time></trkpt><trkpt lat="37.7134131" lon="14.0392224"><ele>500.0</ele><time>2026-04-06T15:46:35.59Z</time></trkpt><trkpt lat="37.7137145" lon="14.0391503"><ele>499.5</ele><time>2026-04-06T15:46:36.59Z</time></trkpt><trkpt lat="37.7140157" lon="14.0390874"><ele>499.0</ele><time>2026-04-06T15:46:37.591Z</time></trkpt><trkpt lat="37.714317" lon="14.0390278"><ele>501.0</ele><time>2026-04-06T15:46:38.59Z</time></trkpt><trkpt lat="37.7146196" lon="14.0389676"><ele>503.0</ele><time>2026-04-06T15:46:39.59Z</time></trkpt><trkpt lat="37.7149228" lon="14.0389044"><ele>503.0</ele><time>2026-04-06T15:46:40.59Z</time></trkpt><trkpt lat="37.715227" lon="14.038837"><ele>503.0</ele><time>2026-04-06T15:46:41.59Z</time></trkpt><trkpt lat="37.7155275" lon="14.0387795"><ele>508.5</ele><time>2026-04-06T15:46:42.59Z</time></trkpt><trkpt lat="37.7158296" lon="14.0387285"><ele>514.0</ele><time>2026-04-06T15:46:43.59Z</time></trkpt><trkpt lat="37.7161306" lon="14.0386815"><ele>518.0</ele><time>2026-04-06T15:46:44.59Z</time></trkpt><trkpt lat="37.7164336" lon="14.0386233"><ele>522.0</ele><time>2026-04-06T15:46:45.59Z</time></trkpt><trkpt lat="37.7167287" lon="14.0385658"><ele>524.5</ele><time>2026-04-06T15:46:46.591Z</time></trkpt><trkpt lat="37.7170316" lon="14.0385089"><ele>527.0</ele><time>2026-04-06T15:46:47.59Z</time></trkpt><trkpt lat="37.717335" lon="14.0384507"><ele>527.0</ele><time>2026-04-06T15:46:48.59Z</time></trkpt><trkpt lat="37.7176365" lon="14.0383901"><ele>527.0</ele><time>2026-04-06T15:46:49.591Z</time></trkpt><trkpt lat="37.7179402" lon="14.0383278"><ele>523.0</ele><time>2026-04-06T15:46:50.59Z</time></trkpt><trkpt lat="37.7182444" lon="14.0382676"><ele>519.0</ele><time>2026-04-06T15:46:51.59Z</time></trkpt><trkpt lat="37.7185462" lon="14.0382016"><ele>520.0</ele><time>2026-04-06T15:46:52.591Z</time></trkpt><trkpt lat="37.7188503" lon="14.0381207"><ele>521.0</ele><time>2026-04-06T15:46:53.591Z</time></trkpt><trkpt lat="37.7191448" lon="14.0380289"><ele>521.0</ele><time>2026-04-06T15:46:54.59Z</time></trkpt><trkpt lat="37.7194393" lon="14.0379321"><ele>521.0</ele><time>2026-04-06T15:46:55.59Z</time></trkpt><trkpt lat="37.7197331" lon="14.0378211"><ele>521.0</ele><time>2026-04-06T15:46:56.59Z</time></trkpt><trkpt lat="37.7200244" lon="14.0376958"><ele>521.0</ele><time>2026-04-06T15:46:57.59Z</time></trkpt><trkpt lat="37.720312" lon="14.037563"><ele>516.5</ele><time>2026-04-06T15:46:58.59Z</time></trkpt><trkpt lat="37.7205934" lon="14.0374158"><ele>512.0</ele><time>2026-04-06T15:46:59.59Z</time></trkpt><trkpt lat="37.7208688" lon="14.0372535"><ele>512.0</ele><time>2026-04-06T15:47:00.591Z</time></trkpt><trkpt lat="37.7211354" lon="14.037082"><ele>512.0</ele><time>2026-04-06T15:47:01.59Z</time></trkpt><trkpt lat="37.7214063" lon="14.0369095"><ele>512.0</ele><time>2026-04-06T15:47:02.59Z</time></trkpt><trkpt lat="37.7216718" lon="14.0367186"><ele>512.0</ele><time>2026-04-06T15:47:03.59Z</time></trkpt><trkpt lat="37.7219342" lon="14.0365219"><ele>514.5</ele><time>2026-04-06T15:47:04.591Z</time></trkpt><trkpt lat="37.7221895" lon="14.03631"><ele>517.0</ele><time>2026-04-06T15:47:05.59Z</time></trkpt><trkpt lat="37.7224414" lon="14.0360911"><ele>517.0</ele><time>2026-04-06T15:47:06.59Z</time></trkpt><trkpt lat="37.7226897" lon="14.0358589"><ele>517.0</ele><time>2026-04-06T15:47:07.59Z</time></trkpt><trkpt lat="37.7229289" lon="14.0356213"><ele>517.5</ele><time>2026-04-06T15:47:08.59Z</time></trkpt><trkpt lat="37.7231651" lon="14.0353782"><ele>518.0</ele><time>2026-04-06T15:47:09.591Z</time></trkpt><trkpt lat="37.7233978" lon="14.0351231"><ele>518.0</ele><time>2026-04-06T15:47:10.59Z</time></trkpt><trkpt lat="37.7236231" lon="14.0348695"><ele>518.0</ele><time>2026-04-06T15:47:11.59Z</time></trkpt><trkpt lat="37.7238351" lon="14.0346131"><ele>518.0</ele><time>2026-04-06T15:47:12.591Z</time></trkpt><trkpt lat="37.7240303" lon="14.034367"><ele>518.0</ele><time>2026-04-06T15:47:13.59Z</time></trkpt><trkpt lat="37.7242211" lon="14.0341263"><ele>519.0</ele><time>2026-04-06T15:47:14.59Z</time></trkpt><trkpt lat="37.7244109" lon="14.0338844"><ele>520.0</ele><time>2026-04-06T15:47:15.59Z</time></trkpt><trkpt lat="37.7246041" lon="14.0336416"><ele>520.0</ele><time>2026-04-06T15:47:16.591Z</time></trkpt><trkpt lat="37.7248002" lon="14.0334071"><ele>520.0</ele><time>2026-04-06T15:47:17.59Z</time></trkpt><trkpt lat="37.7250023" lon="14.0331614"><ele>519.5</ele><time>2026-04-06T15:47:18.59Z</time></trkpt><trkpt lat="37.7252062" lon="14.0329196"><ele>519.0</ele><time>2026-04-06T15:47:19.59Z</time></trkpt><trkpt lat="37.7254049" lon="14.0326759"><ele>520.0</ele><time>2026-04-06T15:47:20.59Z</time></trkpt><trkpt lat="37.7256057" lon="14.0324236"><ele>521.0</ele><time>2026-04-06T15:47:21.59Z</time></trkpt><trkpt lat="37.7258115" lon="14.0321785"><ele>521.0</ele><time>2026-04-06T15:47:22.591Z</time></trkpt><trkpt lat="37.7260199" lon="14.0319312"><ele>521.0</ele><time>2026-04-06T15:47:23.59Z</time></trkpt><trkpt lat="37.7262234" lon="14.0316871"><ele>522.0</ele><time>2026-04-06T15:47:24.59Z</time></trkpt><trkpt lat="37.7264253" lon="14.0314405"><ele>523.0</ele><time>2026-04-06T15:47:25.59Z</time></trkpt><trkpt lat="37.7266259" lon="14.0311889"><ele>523.0</ele><time>2026-04-06T15:47:26.59Z</time></trkpt><trkpt lat="37.7268297" lon="14.0309348"><ele>523.0</ele><time>2026-04-06T15:47:27.59Z</time></trkpt><trkpt lat="37.7270354" lon="14.0306802"><ele>523.5</ele><time>2026-04-06T15:47:28.59Z</time></trkpt><trkpt lat="37.7272424" lon="14.0304348"><ele>524.0</ele><time>2026-04-06T15:47:29.59Z</time></trkpt><trkpt lat="37.7274547" lon="14.0301985"><ele>524.0</ele><time>2026-04-06T15:47:30.59Z</time></trkpt><trkpt lat="37.7276694" lon="14.0299817"><ele>524.0</ele><time>2026-04-06T15:47:31.591Z</time></trkpt><trkpt lat="37.7278971" lon="14.0297756"><ele>523.5</ele><time>2026-04-06T15:47:32.591Z</time></trkpt><trkpt lat="37.7281336" lon="14.0295941"><ele>523.0</ele><time>2026-04-06T15:47:33.59Z</time></trkpt><trkpt lat="37.728382" lon="14.0294352"><ele>527.5</ele><time>2026-04-06T15:47:34.591Z</time></trkpt><trkpt lat="37.7286309" lon="14.0292911"><ele>532.0</ele><time>2026-04-06T15:47:35.59Z</time></trkpt><trkpt lat="37.7288882" lon="14.0291636"><ele>530.0</ele><time>2026-04-06T15:47:36.59Z</time></trkpt><trkpt lat="37.7291431" lon="14.0290512"><ele>528.0</ele><time>2026-04-06T15:47:37.591Z</time></trkpt><trkpt lat="37.729402" lon="14.0289618"><ele>528.0</ele><time>2026-04-06T15:47:38.59Z</time></trkpt><trkpt lat="37.7296552" lon="14.0288909"><ele>528.0</ele><time>2026-04-06T15:47:39.59Z</time></trkpt><trkpt lat="37.7298922" lon="14.0288372"><ele>528.0</ele><time>2026-04-06T15:47:40.591Z</time></trkpt><trkpt lat="37.7301182" lon="14.0287884"><ele>528.0</ele><time>2026-04-06T15:47:41.59Z</time></trkpt><trkpt lat="37.7303389" lon="14.028743"><ele>529.5</ele><time>2026-04-06T15:47:42.59Z</time></trkpt><trkpt lat="37.7305675" lon="14.028699"><ele>531.0</ele><time>2026-04-06T15:47:43.59Z</time></trkpt><trkpt lat="37.730791" lon="14.0286557"><ele>531.0</ele><time>2026-04-06T15:47:44.591Z</time></trkpt><trkpt lat="37.7310124" lon="14.0286073"><ele>531.0</ele><time>2026-04-06T15:47:45.591Z</time></trkpt><trkpt lat="37.731228" lon="14.0285675"><ele>531.0</ele><time>2026-04-06T15:47:46.59Z</time></trkpt><trkpt lat="37.7314387" lon="14.028524"><ele>532.3333333333334</ele><time>2026-04-06T15:47:47.59Z</time></trkpt><trkpt lat="37.7316471" lon="14.0284752"><ele>533.6666666666667</ele><time>2026-04-06T15:47:48.591Z</time></trkpt><trkpt lat="37.7318553" lon="14.0284243"><ele>535.0</ele><time>2026-04-06T15:47:49.59Z</time></trkpt><trkpt lat="37.7320663" lon="14.028356"><ele>537.6666666666667</ele><time>2026-04-06T15:47:50.59Z</time></trkpt><trkpt lat="37.7322763" lon="14.0282812"><ele>540.3333333333334</ele><time>2026-04-06T15:47:51.591Z</time></trkpt><trkpt lat="37.7324872" lon="14.0281958"><ele>543.0</ele><time>2026-04-06T15:47:52.59Z</time></trkpt><trkpt lat="37.7326943" lon="14.0280924"><ele>541.0</ele><time>2026-04-06T15:47:53.59Z</time></trkpt><trkpt lat="37.7328925" lon="14.0279699"><ele>539.0</ele><time>2026-04-06T15:47:54.59Z</time></trkpt><trkpt lat="37.7330885" lon="14.027836"><ele>537.0</ele><time>2026-04-06T15:47:55.59Z</time></trkpt><trkpt lat="37.7332848" lon="14.0276906"><ele>537.0</ele><time>2026-04-06T15:47:56.59Z</time></trkpt><trkpt lat="37.7334752" lon="14.0275365"><ele>537.0</ele><time>2026-04-06T15:47:57.591Z</time></trkpt><trkpt lat="37.7336608" lon="14.02737"><ele>541.0</ele><time>2026-04-06T15:47:58.59Z</time></trkpt><trkpt lat="37.7338391" lon="14.0271965"><ele>545.0</ele><time>2026-04-06T15:47:59.59Z</time></trkpt><trkpt lat="37.734013" lon="14.0270134"><ele>545.0</ele><time>2026-04-06T15:48:00.59Z</time></trkpt><trkpt lat="37.7341722" lon="14.0268155"><ele>545.0</ele><time>2026-04-06T15:48:01.59Z</time></trkpt><trkpt lat="37.7343211" lon="14.0266107"><ele>545.0</ele><time>2026-04-06T15:48:02.59Z</time></trkpt><trkpt lat="37.7344612" lon="14.0263955"><ele>551.0</ele><time>2026-04-06T15:48:03.59Z</time></trkpt><trkpt lat="37.7345941" lon="14.0261694"><ele>557.0</ele><time>2026-04-06T15:48:04.591Z</time></trkpt><trkpt lat="37.7347211" lon="14.0259282"><ele>552.5</ele><time>2026-04-06T15:48:05.59Z</time></trkpt><trkpt lat="37.7348363" lon="14.0256648"><ele>548.0</ele><time>2026-04-06T15:48:06.59Z</time></trkpt><trkpt lat="37.7349539" lon="14.0253886"><ele>548.0</ele><time>2026-04-06T15:48:07.59Z</time></trkpt><trkpt lat="37.7350788" lon="14.0250986"><ele>548.0</ele><time>2026-04-06T15:48:08.591Z</time></trkpt><trkpt lat="37.735211" lon="14.0247793"><ele>548.5</ele><time>2026-04-06T15:48:09.591Z</time></trkpt><trkpt lat="37.7353434" lon="14.0244472"><ele>549.0</ele><time>2026-04-06T15:48:10.59Z</time></trkpt><trkpt lat="37.7354764" lon="14.0241186"><ele>549.0</ele><time>2026-04-06T15:48:11.59Z</time></trkpt><trkpt lat="37.7356106" lon="14.0237792"><ele>549.0</ele><time>2026-04-06T15:48:12.591Z</time></trkpt><trkpt lat="37.7357483" lon="14.023453"><ele>548.5</ele><time>2026-04-06T15:48:13.59Z</time></trkpt><trkpt lat="37.7358783" lon="14.0231432"><ele>548.0</ele><time>2026-04-06T15:48:14.59Z</time></trkpt><trkpt lat="37.7360047" lon="14.0228274"><ele>548.5</ele><time>2026-04-06T15:48:15.59Z</time></trkpt><trkpt lat="37.7361341" lon="14.0225028"><ele>549.0</ele><time>2026-04-06T15:48:16.59Z</time></trkpt><trkpt lat="37.7362607" lon="14.0221845"><ele>549.5</ele><time>2026-04-06T15:48:17.59Z</time></trkpt><trkpt lat="37.7363927" lon="14.0218732"><ele>550.0</ele><time>2026-04-06T15:48:18.591Z</time></trkpt><trkpt lat="37.7365193" lon="14.0215718"><ele>550.5</ele><time>2026-04-06T15:48:19.59Z</time></trkpt><trkpt lat="37.7366379" lon="14.0212697"><ele>551.0</ele><time>2026-04-06T15:48:20.591Z</time></trkpt><trkpt lat="37.736754" lon="14.0209733"><ele>550.5</ele><time>2026-04-06T15:48:21.591Z</time></trkpt><trkpt lat="37.7368643" lon="14.0206727"><ele>550.0</ele><time>2026-04-06T15:48:22.591Z</time></trkpt><trkpt lat="37.7369712" lon="14.0203665"><ele>554.5</ele><time>2026-04-06T15:48:23.59Z</time></trkpt><trkpt lat="37.737073" lon="14.0200603"><ele>559.0</ele><time>2026-04-06T15:48:24.591Z</time></trkpt><trkpt lat="37.7371688" lon="14.0197555"><ele>559.0</ele><time>2026-04-06T15:48:25.59Z</time></trkpt><trkpt lat="37.7372604" lon="14.0194464"><ele>559.0</ele><time>2026-04-06T15:48:26.59Z</time></trkpt><trkpt lat="37.7373427" lon="14.0191372"><ele>558.5</ele><time>2026-04-06T15:48:27.59Z</time></trkpt><trkpt lat="37.7374174" lon="14.0188315"><ele>558.0</ele><time>2026-04-06T15:48:28.59Z</time></trkpt><trkpt lat="37.7374852" lon="14.0185272"><ele>557.0</ele><time>2026-04-06T15:48:29.591Z</time></trkpt><trkpt lat="37.7375506" lon="14.0182357"><ele>556.0</ele><time>2026-04-06T15:48:30.59Z</time></trkpt><trkpt lat="37.737601" lon="14.0179606"><ele>556.0</ele><time>2026-04-06T15:48:31.59Z</time></trkpt><trkpt lat="37.7376483" lon="14.0176924"><ele>556.0</ele><time>2026-04-06T15:48:32.59Z</time></trkpt><trkpt lat="37.7376949" lon="14.0174227"><ele>556.0</ele><time>2026-04-06T15:48:33.598Z</time></trkpt><trkpt lat="37.7377356" lon="14.0171419"><ele>558.5</ele><time>2026-04-06T15:48:34.598Z</time></trkpt><trkpt lat="37.7377665" lon="14.0168403"><ele>561.0</ele><time>2026-04-06T15:48:35.598Z</time></trkpt><trkpt lat="37.737789" lon="14.0165146"><ele>563.0</ele><time>2026-04-06T15:48:36.598Z</time></trkpt><trkpt lat="37.7378152" lon="14.0161675"><ele>565.0</ele><time>2026-04-06T15:48:37.598Z</time></trkpt><trkpt lat="37.7378443" lon="14.0158134"><ele>565.0</ele><time>2026-04-06T15:48:38.598Z</time></trkpt><trkpt lat="37.7378739" lon="14.0154544"><ele>565.0</ele><time>2026-04-06T15:48:39.598Z</time></trkpt><trkpt lat="37.7379006" lon="14.0150895"><ele>565.0</ele><time>2026-04-06T15:48:40.598Z</time></trkpt><trkpt lat="37.7379261" lon="14.0147276"><ele>565.0</ele><time>2026-04-06T15:48:41.599Z</time></trkpt><trkpt lat="37.7379541" lon="14.0143764"><ele>566.0</ele><time>2026-04-06T15:48:42.598Z</time></trkpt><trkpt lat="37.7379854" lon="14.0140378"><ele>567.0</ele><time>2026-04-06T15:48:43.598Z</time></trkpt><trkpt lat="37.7380128" lon="14.013709"><ele>567.0</ele><time>2026-04-06T15:48:44.598Z</time></trkpt><trkpt lat="37.7380425" lon="14.0133804"><ele>567.0</ele><time>2026-04-06T15:48:45.599Z</time></trkpt><trkpt lat="37.7380704" lon="14.0130417"><ele>567.0</ele><time>2026-04-06T15:48:46.599Z</time></trkpt><trkpt lat="37.7380965" lon="14.0127093"><ele>567.0</ele><time>2026-04-06T15:48:47.598Z</time></trkpt><trkpt lat="37.7381213" lon="14.0123771"><ele>568.0</ele><time>2026-04-06T15:48:48.598Z</time></trkpt><trkpt lat="37.7381463" lon="14.0120428"><ele>569.0</ele><time>2026-04-06T15:48:49.598Z</time></trkpt><trkpt lat="37.7381714" lon="14.0116903"><ele>570.5</ele><time>2026-04-06T15:48:50.598Z</time></trkpt><trkpt lat="37.7381962" lon="14.0113289"><ele>572.0</ele><time>2026-04-06T15:48:51.599Z</time></trkpt><trkpt lat="37.7382287" lon="14.0109567"><ele>572.5</ele><time>2026-04-06T15:48:52.598Z</time></trkpt><trkpt lat="37.7382669" lon="14.0105734"><ele>573.0</ele><time>2026-04-06T15:48:53.598Z</time></trkpt><trkpt lat="37.738307" lon="14.0101923"><ele>573.5</ele><time>2026-04-06T15:48:54.598Z</time></trkpt><trkpt lat="37.7383538" lon="14.0098152"><ele>574.0</ele><time>2026-04-06T15:48:55.598Z</time></trkpt><trkpt lat="37.7384073" lon="14.0094236"><ele>575.0</ele><time>2026-04-06T15:48:56.598Z</time></trkpt><trkpt lat="37.7384713" lon="14.00901"><ele>576.0</ele><time>2026-04-06T15:48:57.598Z</time></trkpt><trkpt lat="37.738546" lon="14.0085849"><ele>577.5</ele><time>2026-04-06T15:48:58.598Z</time></trkpt><trkpt lat="37.7386294" lon="14.008172"><ele>579.0</ele><time>2026-04-06T15:48:59.599Z</time></trkpt><trkpt lat="37.7387141" lon="14.0077649"><ele>578.5</ele><time>2026-04-06T15:49:00.598Z</time></trkpt><trkpt lat="37.7388087" lon="14.007371"><ele>578.0</ele><time>2026-04-06T15:49:01.598Z</time></trkpt><trkpt lat="37.7389071" lon="14.0069887"><ele>579.0</ele><time>2026-04-06T15:49:02.598Z</time></trkpt><trkpt lat="37.7390039" lon="14.0066066"><ele>580.0</ele><time>2026-04-06T15:49:03.599Z</time></trkpt><trkpt lat="37.7391048" lon="14.0062327"><ele>580.0</ele><time>2026-04-06T15:49:04.599Z</time></trkpt><trkpt lat="37.7392079" lon="14.0058667"><ele>580.0</ele><time>2026-04-06T15:49:05.598Z</time></trkpt><trkpt lat="37.7393071" lon="14.0055056"><ele>583.5</ele><time>2026-04-06T15:49:06.598Z</time></trkpt><trkpt lat="37.7394071" lon="14.0051452"><ele>587.0</ele><time>2026-04-06T15:49:07.598Z</time></trkpt><trkpt lat="37.7395027" lon="14.004782"><ele>587.0</ele><time>2026-04-06T15:49:08.598Z</time></trkpt><trkpt lat="37.7396027" lon="14.0044172"><ele>587.0</ele><time>2026-04-06T15:49:09.599Z</time></trkpt><trkpt lat="37.7396981" lon="14.0040549"><ele>587.5</ele><time>2026-04-06T15:49:10.599Z</time></trkpt><trkpt lat="37.7397967" lon="14.0036921"><ele>588.0</ele><time>2026-04-06T15:49:11.598Z</time></trkpt><trkpt lat="37.7398993" lon="14.0033306"><ele>588.5</ele><time>2026-04-06T15:49:12.598Z</time></trkpt><trkpt lat="37.7399981" lon="14.0029685"><ele>589.0</ele><time>2026-04-06T15:49:13.598Z</time></trkpt><trkpt lat="37.7400958" lon="14.0026069"><ele>589.0</ele><time>2026-04-06T15:49:14.598Z</time></trkpt><trkpt lat="37.7401946" lon="14.002243"><ele>589.0</ele><time>2026-04-06T15:49:15.598Z</time></trkpt><trkpt lat="37.7402916" lon="14.0018809"><ele>595.0</ele><time>2026-04-06T15:49:16.598Z</time></trkpt><trkpt lat="37.740393" lon="14.0015196"><ele>601.0</ele><time>2026-04-06T15:49:17.598Z</time></trkpt><trkpt lat="37.7404941" lon="14.0011585"><ele>600.5</ele><time>2026-04-06T15:49:18.598Z</time></trkpt><trkpt lat="37.7405974" lon="14.0007956"><ele>600.0</ele><time>2026-04-06T15:49:19.598Z</time></trkpt><trkpt lat="37.7406975" lon="14.0004386"><ele>600.0</ele><time>2026-04-06T15:49:20.598Z</time></trkpt><trkpt lat="37.7407942" lon="14.0000775"><ele>600.0</ele><time>2026-04-06T15:49:21.598Z</time></trkpt><trkpt lat="37.7408936" lon="13.9997145"><ele>600.0</ele><time>2026-04-06T15:49:22.598Z</time></trkpt><trkpt lat="37.7409939" lon="13.9993505"><ele>600.0</ele><time>2026-04-06T15:49:23.598Z</time></trkpt><trkpt lat="37.7410959" lon="13.9989885"><ele>605.0</ele><time>2026-04-06T15:49:24.598Z</time></trkpt><trkpt lat="37.7412011" lon="13.9986295"><ele>610.0</ele><time>2026-04-06T15:49:25.598Z</time></trkpt><trkpt lat="37.741303" lon="13.9982692"><ele>610.0</ele><time>2026-04-06T15:49:26.598Z</time></trkpt><trkpt lat="37.7414103" lon="13.9979085"><ele>610.0</ele><time>2026-04-06T15:49:27.599Z</time></trkpt><trkpt lat="37.741518" lon="13.997547"><ele>607.0</ele><time>2026-04-06T15:49:28.598Z</time></trkpt><trkpt lat="37.7416296" lon="13.9971825"><ele>604.0</ele><time>2026-04-06T15:49:29.598Z</time></trkpt><trkpt lat="37.7417447" lon="13.9968241"><ele>606.0</ele><time>2026-04-06T15:49:30.599Z</time></trkpt><trkpt lat="37.7418702" lon="13.9964703"><ele>608.0</ele><time>2026-04-06T15:49:31.599Z</time></trkpt><trkpt lat="37.7419969" lon="13.9961255"><ele>604.5</ele><time>2026-04-06T15:49:32.598Z</time></trkpt><trkpt lat="37.7421247" lon="13.9957741"><ele>601.0</ele><time>2026-04-06T15:49:33.598Z</time></trkpt><trkpt lat="37.7422437" lon="13.9954228"><ele>601.0</ele><time>2026-04-06T15:49:34.598Z</time></trkpt><trkpt lat="37.7423645" lon="13.9950683"><ele>601.0</ele><time>2026-04-06T15:49:35.599Z</time></trkpt><trkpt lat="37.7424883" lon="13.9947199"><ele>601.0</ele><time>2026-04-06T15:49:36.598Z</time></trkpt><trkpt lat="37.7426104" lon="13.9943698"><ele>601.0</ele><time>2026-04-06T15:49:37.598Z</time></trkpt><trkpt lat="37.7427324" lon="13.994018"><ele>603.5</ele><time>2026-04-06T15:49:38.598Z</time></trkpt><trkpt lat="37.7428553" lon="13.9936655"><ele>606.0</ele><time>2026-04-06T15:49:39.598Z</time></trkpt><trkpt lat="37.7429741" lon="13.9933128"><ele>606.0</ele><time>2026-04-06T15:49:40.598Z</time></trkpt><trkpt lat="37.743092" lon="13.9929563"><ele>606.0</ele><time>2026-04-06T15:49:41.598Z</time></trkpt><trkpt lat="37.7432012" lon="13.9925955"><ele>605.5</ele><time>2026-04-06T15:49:42.598Z</time></trkpt><trkpt lat="37.7432999" lon="13.9922347"><ele>605.0</ele><time>2026-04-06T15:49:43.598Z</time></trkpt><trkpt lat="37.7433901" lon="13.9918695"><ele>607.0</ele><time>2026-04-06T15:49:44.599Z</time></trkpt><trkpt lat="37.7434716" lon="13.9915053"><ele>609.0</ele><time>2026-04-06T15:49:45.599Z</time></trkpt><trkpt lat="37.7435439" lon="13.9911303"><ele>611.0</ele><time>2026-04-06T15:49:46.598Z</time></trkpt><trkpt lat="37.7436117" lon="13.990757"><ele>613.0</ele><time>2026-04-06T15:49:47.599Z</time></trkpt><trkpt lat="37.7436758" lon="13.9903829"><ele>613.0</ele><time>2026-04-06T15:49:48.598Z</time></trkpt><trkpt lat="37.743742" lon="13.990007"><ele>613.0</ele><time>2026-04-06T15:49:49.598Z</time></trkpt><trkpt lat="37.7438095" lon="13.9896325"><ele>613.0</ele><time>2026-04-06T15:49:50.599Z</time></trkpt><trkpt lat="37.7438769" lon="13.9892583"><ele>613.0</ele><time>2026-04-06T15:49:51.598Z</time></trkpt><trkpt lat="37.7439456" lon="13.9888845"><ele>616.5</ele><time>2026-04-06T15:49:52.598Z</time></trkpt><trkpt lat="37.7440147" lon="13.9885089"><ele>620.0</ele><time>2026-04-06T15:49:53.598Z</time></trkpt><trkpt lat="37.7440795" lon="13.9881338"><ele>620.5</ele><time>2026-04-06T15:49:54.599Z</time></trkpt><trkpt lat="37.7441375" lon="13.9877526"><ele>621.0</ele><time>2026-04-06T15:49:55.598Z</time></trkpt><trkpt lat="37.7441837" lon="13.9873707"><ele>623.0</ele><time>2026-04-06T15:49:56.598Z</time></trkpt><trkpt lat="37.7442165" lon="13.9869863"><ele>625.0</ele><time>2026-04-06T15:49:57.599Z</time></trkpt><trkpt lat="37.7442265" lon="13.9866061"><ele>625.0</ele><time>2026-04-06T15:49:58.598Z</time></trkpt><trkpt lat="37.7442201" lon="13.9862245"><ele>625.0</ele><time>2026-04-06T15:49:59.598Z</time></trkpt><trkpt lat="37.7441936" lon="13.985841"><ele>625.0</ele><time>2026-04-06T15:50:00.599Z</time></trkpt><trkpt lat="37.7441528" lon="13.9854631"><ele>625.0</ele><time>2026-04-06T15:50:01.599Z</time></trkpt><trkpt lat="37.7441026" lon="13.9850805"><ele>625.0</ele><time>2026-04-06T15:50:02.599Z</time></trkpt><trkpt lat="37.7440543" lon="13.9846997"><ele>625.0</ele><time>2026-04-06T15:50:03.599Z</time></trkpt><trkpt lat="37.7440029" lon="13.9843235"><ele>625.5</ele><time>2026-04-06T15:50:04.599Z</time></trkpt><trkpt lat="37.74395" lon="13.9839415"><ele>626.0</ele><time>2026-04-06T15:50:05.598Z</time></trkpt><trkpt lat="37.7438951" lon="13.9835621"><ele>626.5</ele><time>2026-04-06T15:50:06.598Z</time></trkpt><trkpt lat="37.7438486" lon="13.9831943"><ele>627.0</ele><time>2026-04-06T15:50:07.598Z</time></trkpt><trkpt lat="37.7438104" lon="13.9828511"><ele>627.0</ele><time>2026-04-06T15:50:08.598Z</time></trkpt><trkpt lat="37.7437686" lon="13.982533"><ele>627.0</ele><time>2026-04-06T15:50:09.599Z</time></trkpt><trkpt lat="37.7437301" lon="13.9822224"><ele>627.5</ele><time>2026-04-06T15:50:10.598Z</time></trkpt><trkpt lat="37.7436951" lon="13.9819177"><ele>628.0</ele><time>2026-04-06T15:50:11.599Z</time></trkpt><trkpt lat="37.7436693" lon="13.9816073"><ele>628.0</ele><time>2026-04-06T15:50:12.599Z</time></trkpt><trkpt lat="37.7436464" lon="13.981299"><ele>628.0</ele><time>2026-04-06T15:50:13.598Z</time></trkpt><trkpt lat="37.7436303" lon="13.9809841"><ele>629.5</ele><time>2026-04-06T15:50:14.598Z</time></trkpt><trkpt lat="37.7436261" lon="13.9806751"><ele>631.0</ele><time>2026-04-06T15:50:15.598Z</time></trkpt><trkpt lat="37.7436286" lon="13.9803681"><ele>631.0</ele><time>2026-04-06T15:50:16.598Z</time></trkpt><trkpt lat="37.7436425" lon="13.9800714"><ele>631.0</ele><time>2026-04-06T15:50:17.599Z</time></trkpt><trkpt lat="37.7436641" lon="13.9797811"><ele>631.0</ele><time>2026-04-06T15:50:18.599Z</time></trkpt><trkpt lat="37.7436934" lon="13.9794908"><ele>631.0</ele><time>2026-04-06T15:50:19.598Z</time></trkpt><trkpt lat="37.7437314" lon="13.9791977"><ele>632.0</ele><time>2026-04-06T15:50:20.598Z</time></trkpt><trkpt lat="37.7437846" lon="13.9789038"><ele>633.0</ele><time>2026-04-06T15:50:21.598Z</time></trkpt><trkpt lat="37.7438519" lon="13.9786128"><ele>633.0</ele><time>2026-04-06T15:50:22.598Z</time></trkpt><trkpt lat="37.7439303" lon="13.9783216"><ele>633.0</ele><time>2026-04-06T15:50:23.598Z</time></trkpt><trkpt lat="37.7440191" lon="13.9780325"><ele>633.0</ele><time>2026-04-06T15:50:24.598Z</time></trkpt><trkpt lat="37.7441192" lon="13.9777409"><ele>633.0</ele><time>2026-04-06T15:50:25.598Z</time></trkpt><trkpt lat="37.7442301" lon="13.9774522"><ele>633.5</ele><time>2026-04-06T15:50:26.598Z</time></trkpt><trkpt lat="37.7443513" lon="13.9771617"><ele>634.0</ele><time>2026-04-06T15:50:27.598Z</time></trkpt><trkpt lat="37.7444724" lon="13.9768734"><ele>634.5</ele><time>2026-04-06T15:50:28.598Z</time></trkpt><trkpt lat="37.7445896" lon="13.9765811"><ele>635.0</ele><time>2026-04-06T15:50:29.598Z</time></trkpt><trkpt lat="37.744704" lon="13.9762884"><ele>635.0</ele><time>2026-04-06T15:50:30.599Z</time></trkpt><trkpt lat="37.7448205" lon="13.9759963"><ele>635.0</ele><time>2026-04-06T15:50:31.598Z</time></trkpt><trkpt lat="37.7449424" lon="13.9757066"><ele>636.0</ele><time>2026-04-06T15:50:32.598Z</time></trkpt><trkpt lat="37.7450658" lon="13.975419"><ele>637.0</ele><time>2026-04-06T15:50:33.598Z</time></trkpt><trkpt lat="37.7451878" lon="13.9751293"><ele>640.0</ele><time>2026-04-06T15:50:34.598Z</time></trkpt><trkpt lat="37.7453106" lon="13.9748384"><ele>643.0</ele><time>2026-04-06T15:50:35.598Z</time></trkpt><trkpt lat="37.7454287" lon="13.9745498"><ele>643.0</ele><time>2026-04-06T15:50:36.598Z</time></trkpt><trkpt lat="37.7455497" lon="13.9742618"><ele>643.0</ele><time>2026-04-06T15:50:37.598Z</time></trkpt><trkpt lat="37.7456678" lon="13.9739749"><ele>643.5</ele><time>2026-04-06T15:50:38.598Z</time></trkpt><trkpt lat="37.7457956" lon="13.9736752"><ele>644.0</ele><time>2026-04-06T15:50:39.598Z</time></trkpt><trkpt lat="37.7459226" lon="13.9733632"><ele>648.5</ele><time>2026-04-06T15:50:40.599Z</time></trkpt><trkpt lat="37.7460526" lon="13.9730425"><ele>653.0</ele><time>2026-04-06T15:50:41.599Z</time></trkpt><trkpt lat="37.7461886" lon="13.9727186"><ele>653.0</ele><time>2026-04-06T15:50:42.598Z</time></trkpt><trkpt lat="37.746329" lon="13.9723874"><ele>653.0</ele><time>2026-04-06T15:50:43.599Z</time></trkpt><trkpt lat="37.7464704" lon="13.9720443"><ele>653.0</ele><time>2026-04-06T15:50:44.598Z</time></trkpt><trkpt lat="37.7466092" lon="13.9717013"><ele>653.0</ele><time>2026-04-06T15:50:45.599Z</time></trkpt><trkpt lat="37.7467508" lon="13.9713602"><ele>656.5</ele><time>2026-04-06T15:50:46.598Z</time></trkpt><trkpt lat="37.7468922" lon="13.9710235"><ele>660.0</ele><time>2026-04-06T15:50:47.599Z</time></trkpt><trkpt lat="37.7470323" lon="13.9706812"><ele>660.0</ele><time>2026-04-06T15:50:48.598Z</time></trkpt><trkpt lat="37.7471736" lon="13.9703407"><ele>660.0</ele><time>2026-04-06T15:50:49.598Z</time></trkpt><trkpt lat="37.7473102" lon="13.9700026"><ele>658.5</ele><time>2026-04-06T15:50:50.598Z</time></trkpt><trkpt lat="37.7474504" lon="13.969661"><ele>657.0</ele><time>2026-04-06T15:50:51.598Z</time></trkpt><trkpt lat="37.7475942" lon="13.9693209"><ele>663.0</ele><time>2026-04-06T15:50:52.598Z</time></trkpt><trkpt lat="37.7477333" lon="13.9689792"><ele>669.0</ele><time>2026-04-06T15:50:53.599Z</time></trkpt><trkpt lat="37.7478732" lon="13.9686374"><ele>669.0</ele><time>2026-04-06T15:50:54.598Z</time></trkpt><trkpt lat="37.7480126" lon="13.9682978"><ele>669.0</ele><time>2026-04-06T15:50:55.598Z</time></trkpt><trkpt lat="37.7481549" lon="13.9679542"><ele>669.0</ele><time>2026-04-06T15:50:56.598Z</time></trkpt><trkpt lat="37.7482993" lon="13.9676167"><ele>669.0</ele><time>2026-04-06T15:50:57.598Z</time></trkpt><trkpt lat="37.748441" lon="13.9672784"><ele>672.5</ele><time>2026-04-06T15:50:58.598Z</time></trkpt><trkpt lat="37.7485831" lon="13.9669369"><ele>676.0</ele><time>2026-04-06T15:50:59.598Z</time></trkpt><trkpt lat="37.7487289" lon="13.9665966"><ele>676.0</ele><time>2026-04-06T15:51:00.598Z</time></trkpt><trkpt lat="37.7488755" lon="13.9662587"><ele>676.0</ele><time>2026-04-06T15:51:01.599Z</time></trkpt><trkpt lat="37.7490218" lon="13.9659204"><ele>674.5</ele><time>2026-04-06T15:51:02.599Z</time></trkpt><trkpt lat="37.7491697" lon="13.9655849"><ele>673.0</ele><time>2026-04-06T15:51:03.598Z</time></trkpt><trkpt lat="37.7493228" lon="13.9652499"><ele>676.0</ele><time>2026-04-06T15:51:04.598Z</time></trkpt><trkpt lat="37.7494748" lon="13.9649144"><ele>679.0</ele><time>2026-04-06T15:51:05.598Z</time></trkpt><trkpt lat="37.7496243" lon="13.9645757"><ele>679.0</ele><time>2026-04-06T15:51:06.598Z</time></trkpt><trkpt lat="37.7497745" lon="13.964236"><ele>679.0</ele><time>2026-04-06T15:51:07.599Z</time></trkpt><trkpt lat="37.7499236" lon="13.9638963"><ele>680.5</ele><time>2026-04-06T15:51:08.598Z</time></trkpt><trkpt lat="37.7500758" lon="13.963564"><ele>682.0</ele><time>2026-04-06T15:51:09.598Z</time></trkpt><trkpt lat="37.7502332" lon="13.9632366"><ele>682.0</ele><time>2026-04-06T15:51:10.598Z</time></trkpt><trkpt lat="37.7503975" lon="13.9629145"><ele>682.0</ele><time>2026-04-06T15:51:11.599Z</time></trkpt><trkpt lat="37.7505562" lon="13.9626041"><ele>645.0</ele><time>2026-04-06T15:51:12.598Z</time></trkpt><trkpt lat="37.763387" lon="13.9668382"><ele>645.0</ele><time>2026-04-06T15:52:32.598Z</time></trkpt><trkpt lat="37.7635175" lon="13.9669523"><ele>645.0</ele><time>2026-04-06T15:52:33.598Z</time></trkpt><trkpt lat="37.7636611" lon="13.9670519"><ele>645.0</ele><time>2026-04-06T15:52:34.598Z</time></trkpt><trkpt lat="37.7638053" lon="13.9671623"><ele>643.0</ele><time>2026-04-06T15:52:35.598Z</time></trkpt><trkpt lat="37.7639543" lon="13.9672829"><ele>641.0</ele><time>2026-04-06T15:52:36.599Z</time></trkpt><trkpt lat="37.7641028" lon="13.9674026"><ele>639.0</ele><time>2026-04-06T15:52:37.598Z</time></trkpt><trkpt lat="37.7642509" lon="13.9675206"><ele>637.0</ele><time>2026-04-06T15:52:38.598Z</time></trkpt><trkpt lat="37.7643962" lon="13.9676416"><ele>635.0</ele><time>2026-04-06T15:52:39.598Z</time></trkpt><trkpt lat="37.7645438" lon="13.9677559"><ele>633.0</ele><time>2026-04-06T15:52:40.598Z</time></trkpt><trkpt lat="37.7646927" lon="13.9678686"><ele>633.0</ele><time>2026-04-06T15:52:41.598Z</time></trkpt><trkpt lat="37.7648433" lon="13.9679816"><ele>633.0</ele><time>2026-04-06T15:52:42.598Z</time></trkpt><trkpt lat="37.7649902" lon="13.9681005"><ele>633.0</ele><time>2026-04-06T15:52:43.599Z</time></trkpt><trkpt lat="37.7651389" lon="13.9682178"><ele>630.6666666666666</ele><time>2026-04-06T15:52:44.598Z</time></trkpt><trkpt lat="37.7652925" lon="13.968338"><ele>628.3333333333333</ele><time>2026-04-06T15:52:45.599Z</time></trkpt><trkpt lat="37.7654486" lon="13.9684641"><ele>626.0</ele><time>2026-04-06T15:52:46.598Z</time></trkpt><trkpt lat="37.7656028" lon="13.9686104"><ele>626.0</ele><time>2026-04-06T15:52:47.598Z</time></trkpt><trkpt lat="37.7657523" lon="13.9687685"><ele>626.0</ele><time>2026-04-06T15:52:48.598Z</time></trkpt><trkpt lat="37.7659002" lon="13.968935"><ele>626.0</ele><time>2026-04-06T15:52:49.599Z</time></trkpt><trkpt lat="37.7660523" lon="13.9691082"><ele>623.3333333333333</ele><time>2026-04-06T15:52:50.599Z</time></trkpt><trkpt lat="37.7662094" lon="13.9692842"><ele>620.6666666666666</ele><time>2026-04-06T15:52:51.598Z</time></trkpt><trkpt lat="37.7663687" lon="13.9694593"><ele>618.0</ele><time>2026-04-06T15:52:52.599Z</time></trkpt><trkpt lat="37.7665291" lon="13.969639"><ele>618.0</ele><time>2026-04-06T15:52:53.598Z</time></trkpt><trkpt lat="37.7666896" lon="13.9698143"><ele>618.0</ele><time>2026-04-06T15:52:54.598Z</time></trkpt><trkpt lat="37.7668515" lon="13.9699902"><ele>618.0</ele><time>2026-04-06T15:52:55.599Z</time></trkpt><trkpt lat="37.7670157" lon="13.970154"><ele>615.3333333333334</ele><time>2026-04-06T15:52:56.599Z</time></trkpt><trkpt lat="37.7671848" lon="13.9703028"><ele>612.6666666666667</ele><time>2026-04-06T15:52:57.598Z</time></trkpt><trkpt lat="37.7673616" lon="13.9704421"><ele>610.0</ele><time>2026-04-06T15:52:58.598Z</time></trkpt><trkpt lat="37.7675476" lon="13.9705768"><ele>610.0</ele><time>2026-04-06T15:52:59.598Z</time></trkpt><trkpt lat="37.7677402" lon="13.9707051"><ele>610.0</ele><time>2026-04-06T15:53:00.598Z</time></trkpt><trkpt lat="37.7679354" lon="13.9708395"><ele>610.0</ele><time>2026-04-06T15:53:01.599Z</time></trkpt><trkpt lat="37.7681272" lon="13.9709771"><ele>610.0</ele><time>2026-04-06T15:53:02.598Z</time></trkpt><trkpt lat="37.7683225" lon="13.9711179"><ele>610.0</ele><time>2026-04-06T15:53:03.598Z</time></trkpt><trkpt lat="37.7685213" lon="13.9712642"><ele>605.5</ele><time>2026-04-06T15:53:04.598Z</time></trkpt><trkpt lat="37.7687279" lon="13.9714089"><ele>601.0</ele><time>2026-04-06T15:53:05.598Z</time></trkpt><trkpt lat="37.768957" lon="13.9715534"><ele>597.0</ele><time>2026-04-06T15:53:06.598Z</time></trkpt><trkpt lat="37.7692058" lon="13.9717058"><ele>593.0</ele><time>2026-04-06T15:53:07.598Z</time></trkpt><trkpt lat="37.7694581" lon="13.9718726"><ele>593.0</ele><time>2026-04-06T15:53:08.598Z</time></trkpt><trkpt lat="37.7697145" lon="13.9720461"><ele>593.0</ele><time>2026-04-06T15:53:09.599Z</time></trkpt><trkpt lat="37.7699763" lon="13.9722136"><ele>592.0</ele><time>2026-04-06T15:53:10.598Z</time></trkpt><trkpt lat="37.7702434" lon="13.9723713"><ele>591.0</ele><time>2026-04-06T15:53:11.598Z</time></trkpt><trkpt lat="37.7705215" lon="13.9725014"><ele>588.0</ele><time>2026-04-06T15:53:12.598Z</time></trkpt><trkpt lat="37.770808" lon="13.9726047"><ele>585.0</ele><time>2026-04-06T15:53:13.599Z</time></trkpt><trkpt lat="37.7710984" lon="13.9726864"><ele>585.0</ele><time>2026-04-06T15:53:14.599Z</time></trkpt><trkpt lat="37.7713857" lon="13.9727463"><ele>585.0</ele><time>2026-04-06T15:53:15.598Z</time></trkpt><trkpt lat="37.7716808" lon="13.9727814"><ele>584.5</ele><time>2026-04-06T15:53:16.599Z</time></trkpt><trkpt lat="37.7719741" lon="13.9727831"><ele>584.0</ele><time>2026-04-06T15:53:17.599Z</time></trkpt><trkpt lat="37.7722649" lon="13.9727753"><ele>584.0</ele><time>2026-04-06T15:53:18.599Z</time></trkpt><trkpt lat="37.7725538" lon="13.9727569"><ele>584.0</ele><time>2026-04-06T15:53:19.598Z</time></trkpt><trkpt lat="37.7728483" lon="13.9727301"><ele>583.5</ele><time>2026-04-06T15:53:20.598Z</time></trkpt><trkpt lat="37.7731386" lon="13.9726975"><ele>583.0</ele><time>2026-04-06T15:53:21.598Z</time></trkpt><trkpt lat="37.7734238" lon="13.9726718"><ele>582.5</ele><time>2026-04-06T15:53:22.598Z</time></trkpt><trkpt lat="37.7737045" lon="13.9726421"><ele>582.0</ele><time>2026-04-06T15:53:23.599Z</time></trkpt><trkpt lat="37.7739815" lon="13.9726152"><ele>582.0</ele><time>2026-04-06T15:53:24.598Z</time></trkpt><trkpt lat="37.7742565" lon="13.9725855"><ele>582.0</ele><time>2026-04-06T15:53:25.598Z</time></trkpt><trkpt lat="37.7745304" lon="13.9725517"><ele>575.0</ele><time>2026-04-06T15:53:26.598Z</time></trkpt><trkpt lat="37.774805" lon="13.9725224"><ele>568.0</ele><time>2026-04-06T15:53:27.599Z</time></trkpt><trkpt lat="37.7750807" lon="13.9724923"><ele>566.0</ele><time>2026-04-06T15:53:28.598Z</time></trkpt><trkpt lat="37.7753575" lon="13.9724614"><ele>564.0</ele><time>2026-04-06T15:53:29.598Z</time></trkpt><trkpt lat="37.7756369" lon="13.9724256"><ele>564.0</ele><time>2026-04-06T15:53:30.598Z</time></trkpt><trkpt lat="37.7759182" lon="13.9723872"><ele>564.0</ele><time>2026-04-06T15:53:31.598Z</time></trkpt><trkpt lat="37.7761977" lon="13.9723413"><ele>562.0</ele><time>2026-04-06T15:53:32.599Z</time></trkpt><trkpt lat="37.7764701" lon="13.9722904"><ele>560.0</ele><time>2026-04-06T15:53:33.598Z</time></trkpt><trkpt lat="37.7767479" lon="13.9722373"><ele>559.0</ele><time>2026-04-06T15:53:34.598Z</time></trkpt><trkpt lat="37.7770292" lon="13.9721744"><ele>558.0</ele><time>2026-04-06T15:53:35.598Z</time></trkpt><trkpt lat="37.7773158" lon="13.9721101"><ele>558.0</ele><time>2026-04-06T15:53:36.598Z</time></trkpt><trkpt lat="37.7776159" lon="13.9720443"><ele>558.0</ele><time>2026-04-06T15:53:37.598Z</time></trkpt><trkpt lat="37.7779207" lon="13.9719635"><ele>558.0</ele><time>2026-04-06T15:53:38.598Z</time></trkpt><trkpt lat="37.7782202" lon="13.9718814"><ele>558.0</ele><time>2026-04-06T15:53:39.599Z</time></trkpt><trkpt lat="37.7785173" lon="13.9717962"><ele>558.0</ele><time>2026-04-06T15:53:40.598Z</time></trkpt><trkpt lat="37.7788154" lon="13.9717055"><ele>558.0</ele><time>2026-04-06T15:53:41.599Z</time></trkpt><trkpt lat="37.7791115" lon="13.9716123"><ele>555.0</ele><time>2026-04-06T15:53:42.598Z</time></trkpt><trkpt lat="37.7794096" lon="13.9715222"><ele>552.0</ele><time>2026-04-06T15:53:43.599Z</time></trkpt><trkpt lat="37.7797061" lon="13.971432"><ele>552.0</ele><time>2026-04-06T15:53:44.598Z</time></trkpt><trkpt lat="37.7800028" lon="13.9713545"><ele>552.0</ele><time>2026-04-06T15:53:45.599Z</time></trkpt><trkpt lat="37.7802985" lon="13.971284"><ele>550.0</ele><time>2026-04-06T15:53:46.599Z</time></trkpt><trkpt lat="37.7805969" lon="13.9712457"><ele>548.0</ele><time>2026-04-06T15:53:47.598Z</time></trkpt><trkpt lat="37.7809004" lon="13.971229"><ele>544.5</ele><time>2026-04-06T15:53:48.598Z</time></trkpt><trkpt lat="37.7812063" lon="13.9712376"><ele>541.0</ele><time>2026-04-06T15:53:49.598Z</time></trkpt><trkpt lat="37.7815145" lon="13.9712695"><ele>541.0</ele><time>2026-04-06T15:53:50.598Z</time></trkpt><trkpt lat="37.7818125" lon="13.9713339"><ele>541.0</ele><time>2026-04-06T15:53:51.598Z</time></trkpt><trkpt lat="37.7821139" lon="13.9714181"><ele>541.0</ele><time>2026-04-06T15:53:52.599Z</time></trkpt><trkpt lat="37.7824086" lon="13.9715277"><ele>541.0</ele><time>2026-04-06T15:53:53.599Z</time></trkpt><trkpt lat="37.7826986" lon="13.9716537"><ele>541.5</ele><time>2026-04-06T15:53:54.598Z</time></trkpt><trkpt lat="37.7829841" lon="13.9717837"><ele>542.0</ele><time>2026-04-06T15:53:55.598Z</time></trkpt><trkpt lat="37.783272" lon="13.9719113"><ele>538.5</ele><time>2026-04-06T15:53:56.598Z</time></trkpt><trkpt lat="37.7835584" lon="13.9720471"><ele>535.0</ele><time>2026-04-06T15:53:57.599Z</time></trkpt><trkpt lat="37.7838447" lon="13.9721911"><ele>535.0</ele><time>2026-04-06T15:53:58.599Z</time></trkpt><trkpt lat="37.78413" lon="13.9723247"><ele>535.0</ele><time>2026-04-06T15:53:59.598Z</time></trkpt><trkpt lat="37.7844132" lon="13.9724551"><ele>538.0</ele><time>2026-04-06T15:54:00.598Z</time></trkpt><trkpt lat="37.7846983" lon="13.9725814"><ele>541.0</ele><time>2026-04-06T15:54:01.598Z</time></trkpt><trkpt lat="37.7849817" lon="13.9727084"><ele>538.0</ele><time>2026-04-06T15:54:02.598Z</time></trkpt><trkpt lat="37.7852662" lon="13.9728388"><ele>535.0</ele><time>2026-04-06T15:54:03.598Z</time></trkpt><trkpt lat="37.7855573" lon="13.9729527"><ele>535.0</ele><time>2026-04-06T15:54:04.598Z</time></trkpt><trkpt lat="37.7858482" lon="13.9730646"><ele>535.0</ele><time>2026-04-06T15:54:05.599Z</time></trkpt><trkpt lat="37.7861441" lon="13.9731545"><ele>529.0</ele><time>2026-04-06T15:54:06.598Z</time></trkpt><trkpt lat="37.786442" lon="13.9732136"><ele>523.0</ele><time>2026-04-06T15:54:07.599Z</time></trkpt><trkpt lat="37.7867484" lon="13.9732449"><ele>521.5</ele><time>2026-04-06T15:54:08.599Z</time></trkpt><trkpt lat="37.7870554" lon="13.9732618"><ele>520.0</ele><time>2026-04-06T15:54:09.599Z</time></trkpt><trkpt lat="37.7873571" lon="13.973251"><ele>520.0</ele><time>2026-04-06T15:54:10.598Z</time></trkpt><trkpt lat="37.7876644" lon="13.973212"><ele>520.0</ele><time>2026-04-06T15:54:11.599Z</time></trkpt><trkpt lat="37.7879687" lon="13.9731434"><ele>520.5</ele><time>2026-04-06T15:54:12.598Z</time></trkpt><trkpt lat="37.788262" lon="13.9730503"><ele>521.0</ele><time>2026-04-06T15:54:13.599Z</time></trkpt><trkpt lat="37.7885529" lon="13.9729359"><ele>523.0</ele><time>2026-04-06T15:54:14.598Z</time></trkpt><trkpt lat="37.7888424" lon="13.9728032"><ele>525.0</ele><time>2026-04-06T15:54:15.599Z</time></trkpt><trkpt lat="37.7891262" lon="13.9726602"><ele>520.0</ele><time>2026-04-06T15:54:16.598Z</time></trkpt><trkpt lat="37.7894102" lon="13.9725075"><ele>515.0</ele><time>2026-04-06T15:54:17.599Z</time></trkpt><trkpt lat="37.7896898" lon="13.9723472"><ele>515.0</ele><time>2026-04-06T15:54:18.598Z</time></trkpt><trkpt lat="37.7899707" lon="13.9721904"><ele>515.0</ele><time>2026-04-06T15:54:19.598Z</time></trkpt><trkpt lat="37.79025" lon="13.972035"><ele>520.0</ele><time>2026-04-06T15:54:20.598Z</time></trkpt><trkpt lat="37.7905276" lon="13.9718833"><ele>525.0</ele><time>2026-04-06T15:54:21.598Z</time></trkpt><trkpt lat="37.7908082" lon="13.9717281"><ele>520.0</ele><time>2026-04-06T15:54:22.598Z</time></trkpt><trkpt lat="37.7910889" lon="13.9715758"><ele>515.0</ele><time>2026-04-06T15:54:23.599Z</time></trkpt><trkpt lat="37.7913697" lon="13.9714222"><ele>515.0</ele><time>2026-04-06T15:54:24.598Z</time></trkpt><trkpt lat="37.7916467" lon="13.9712575"><ele>515.0</ele><time>2026-04-06T15:54:25.598Z</time></trkpt><trkpt lat="37.7919202" lon="13.9710866"><ele>514.5</ele><time>2026-04-06T15:54:26.598Z</time></trkpt><trkpt lat="37.7921904" lon="13.9709151"><ele>514.0</ele><time>2026-04-06T15:54:27.598Z</time></trkpt><trkpt lat="37.7924612" lon="13.9707375"><ele>506.5</ele><time>2026-04-06T15:54:28.598Z</time></trkpt><trkpt lat="37.7927296" lon="13.9705575"><ele>499.0</ele><time>2026-04-06T15:54:29.599Z</time></trkpt><trkpt lat="37.7930024" lon="13.9703724"><ele>499.0</ele><time>2026-04-06T15:54:30.598Z</time></trkpt><trkpt lat="37.7932689" lon="13.970179"><ele>499.0</ele><time>2026-04-06T15:54:31.598Z</time></trkpt><trkpt lat="37.793534" lon="13.9699842"><ele>498.0</ele><time>2026-04-06T15:54:32.598Z</time></trkpt><trkpt lat="37.7937938" lon="13.9697893"><ele>497.0</ele><time>2026-04-06T15:54:33.598Z</time></trkpt><trkpt lat="37.7940514" lon="13.9695852"><ele>497.0</ele><time>2026-04-06T15:54:34.598Z</time></trkpt><trkpt lat="37.7943074" lon="13.9693764"><ele>497.0</ele><time>2026-04-06T15:54:35.598Z</time></trkpt><trkpt lat="37.7945625" lon="13.9691585"><ele>495.5</ele><time>2026-04-06T15:54:36.598Z</time></trkpt><trkpt lat="37.7948155" lon="13.968938"><ele>494.0</ele><time>2026-04-06T15:54:37.598Z</time></trkpt><trkpt lat="37.7950684" lon="13.968722"><ele>493.5</ele><time>2026-04-06T15:54:38.598Z</time></trkpt><trkpt lat="37.7953178" lon="13.9684987"><ele>493.0</ele><time>2026-04-06T15:54:39.599Z</time></trkpt><trkpt lat="37.7955669" lon="13.9682706"><ele>491.5</ele><time>2026-04-06T15:54:40.598Z</time></trkpt><trkpt lat="37.7958093" lon="13.9680385"><ele>490.0</ele><time>2026-04-06T15:54:41.598Z</time></trkpt><trkpt lat="37.7960485" lon="13.9678012"><ele>490.0</ele><time>2026-04-06T15:54:42.598Z</time></trkpt><trkpt lat="37.7962904" lon="13.9675667"><ele>490.0</ele><time>2026-04-06T15:54:43.598Z</time></trkpt><trkpt lat="37.7965311" lon="13.9673325"><ele>489.5</ele><time>2026-04-06T15:54:44.598Z</time></trkpt><trkpt lat="37.7967743" lon="13.9670997"><ele>489.0</ele><time>2026-04-06T15:54:45.598Z</time></trkpt><trkpt lat="37.7970178" lon="13.9668684"><ele>486.0</ele><time>2026-04-06T15:54:46.598Z</time></trkpt><trkpt lat="37.7972651" lon="13.9666441"><ele>483.0</ele><time>2026-04-06T15:54:47.598Z</time></trkpt><trkpt lat="37.7975185" lon="13.9664291"><ele>483.5</ele><time>2026-04-06T15:54:48.598Z</time></trkpt><trkpt lat="37.7977849" lon="13.966239"><ele>484.0</ele><time>2026-04-06T15:54:49.599Z</time></trkpt><trkpt lat="37.7980666" lon="13.9660736"><ele>484.0</ele><time>2026-04-06T15:54:50.598Z</time></trkpt><trkpt lat="37.7983485" lon="13.9659389"><ele>484.0</ele><time>2026-04-06T15:54:51.598Z</time></trkpt><trkpt lat="37.7986386" lon="13.9658206"><ele>480.5</ele><time>2026-04-06T15:54:52.598Z</time></trkpt><trkpt lat="37.7989345" lon="13.9657306"><ele>477.0</ele><time>2026-04-06T15:54:53.598Z</time></trkpt><trkpt lat="37.7992316" lon="13.9656643"><ele>475.0</ele><time>2026-04-06T15:54:54.599Z</time></trkpt><trkpt lat="37.7995322" lon="13.9656249"><ele>473.0</ele><time>2026-04-06T15:54:55.599Z</time></trkpt><trkpt lat="37.7998349" lon="13.965608"><ele>473.0</ele><time>2026-04-06T15:54:56.598Z</time></trkpt><trkpt lat="37.8001406" lon="13.9656207"><ele>473.0</ele><time>2026-04-06T15:54:57.598Z</time></trkpt><trkpt lat="37.8004447" lon="13.965667"><ele>472.5</ele><time>2026-04-06T15:54:58.599Z</time></trkpt><trkpt lat="37.8007481" lon="13.9657274"><ele>472.0</ele><time>2026-04-06T15:54:59.598Z</time></trkpt><trkpt lat="37.8010456" lon="13.9658163"><ele>471.5</ele><time>2026-04-06T15:55:00.598Z</time></trkpt><trkpt lat="37.801338" lon="13.9659289"><ele>471.0</ele><time>2026-04-06T15:55:01.599Z</time></trkpt><trkpt lat="37.8016228" lon="13.9660638"><ele>469.0</ele><time>2026-04-06T15:55:02.598Z</time></trkpt><trkpt lat="37.8018949" lon="13.9662276"><ele>467.0</ele><time>2026-04-06T15:55:03.598Z</time></trkpt><trkpt lat="37.8021631" lon="13.9664067"><ele>467.0</ele><time>2026-04-06T15:55:04.599Z</time></trkpt><trkpt lat="37.8024294" lon="13.9665949"><ele>467.0</ele><time>2026-04-06T15:55:05.598Z</time></trkpt><trkpt lat="37.8026952" lon="13.9667809"><ele>464.0</ele><time>2026-04-06T15:55:06.598Z</time></trkpt><trkpt lat="37.802966" lon="13.9669662"><ele>461.0</ele><time>2026-04-06T15:55:07.598Z</time></trkpt><trkpt lat="37.8032365" lon="13.9671461"><ele>462.0</ele><time>2026-04-06T15:55:08.598Z</time></trkpt><trkpt lat="37.8035047" lon="13.967329"><ele>463.0</ele><time>2026-04-06T15:55:09.598Z</time></trkpt><trkpt lat="37.8037741" lon="13.9675146"><ele>459.5</ele><time>2026-04-06T15:55:10.598Z</time></trkpt><trkpt lat="37.8040439" lon="13.9677014"><ele>456.0</ele><time>2026-04-06T15:55:11.598Z</time></trkpt><trkpt lat="37.8043154" lon="13.9678897"><ele>455.5</ele><time>2026-04-06T15:55:12.598Z</time></trkpt><trkpt lat="37.8045814" lon="13.9680859"><ele>455.0</ele><time>2026-04-06T15:55:13.604Z</time></trkpt><trkpt lat="37.804837" lon="13.9682917"><ele>454.5</ele><time>2026-04-06T15:55:14.604Z</time></trkpt><trkpt lat="37.8050807" lon="13.9685151"><ele>454.0</ele><time>2026-04-06T15:55:15.604Z</time></trkpt><trkpt lat="37.8053146" lon="13.9687614"><ele>453.0</ele><time>2026-04-06T15:55:16.604Z</time></trkpt><trkpt lat="37.8055313" lon="13.9690264"><ele>452.0</ele><time>2026-04-06T15:55:17.604Z</time></trkpt><trkpt lat="37.8057327" lon="13.9693099"><ele>450.0</ele><time>2026-04-06T15:55:18.604Z</time></trkpt><trkpt lat="37.8059245" lon="13.9696066"><ele>448.0</ele><time>2026-04-06T15:55:19.605Z</time></trkpt><trkpt lat="37.8061131" lon="13.9699061"><ele>448.0</ele><time>2026-04-06T15:55:20.604Z</time></trkpt><trkpt lat="37.8063066" lon="13.9702026"><ele>448.0</ele><time>2026-04-06T15:55:21.604Z</time></trkpt><trkpt lat="37.8065015" lon="13.9704999"><ele>448.0</ele><time>2026-04-06T15:55:22.604Z</time></trkpt><trkpt lat="37.8066971" lon="13.9707947"><ele>448.0</ele><time>2026-04-06T15:55:23.604Z</time></trkpt><trkpt lat="37.8068991" lon="13.9710832"><ele>448.0</ele><time>2026-04-06T15:55:24.604Z</time></trkpt><trkpt lat="37.8071099" lon="13.9713637"><ele>448.0</ele><time>2026-04-06T15:55:25.604Z</time></trkpt><trkpt lat="37.8073338" lon="13.9716248"><ele>446.0</ele><time>2026-04-06T15:55:26.604Z</time></trkpt><trkpt lat="37.8075651" lon="13.971865"><ele>444.0</ele><time>2026-04-06T15:55:27.604Z</time></trkpt><trkpt lat="37.8078256" lon="13.9720689"><ele>443.5</ele><time>2026-04-06T15:55:28.604Z</time></trkpt><trkpt lat="37.8080976" lon="13.9722331"><ele>443.0</ele><time>2026-04-06T15:55:29.604Z</time></trkpt><trkpt lat="37.8083774" lon="13.9723694"><ele>441.0</ele><time>2026-04-06T15:55:30.604Z</time></trkpt><trkpt lat="37.8086655" lon="13.9724805"><ele>439.0</ele><time>2026-04-06T15:55:31.604Z</time></trkpt><trkpt lat="37.8089594" lon="13.9725672"><ele>439.0</ele><time>2026-04-06T15:55:32.605Z</time></trkpt><trkpt lat="37.8092593" lon="13.9726209"><ele>439.0</ele><time>2026-04-06T15:55:33.604Z</time></trkpt><trkpt lat="37.8095644" lon="13.9726453"><ele>436.0</ele><time>2026-04-06T15:55:34.604Z</time></trkpt><trkpt lat="37.8098636" lon="13.9726366"><ele>433.0</ele><time>2026-04-06T15:55:35.605Z</time></trkpt><trkpt lat="37.8101656" lon="13.9725955"><ele>432.5</ele><time>2026-04-06T15:55:36.604Z</time></trkpt><trkpt lat="37.8104618" lon="13.9725203"><ele>432.0</ele><time>2026-04-06T15:55:37.604Z</time></trkpt><trkpt lat="37.8107542" lon="13.9724226"><ele>431.5</ele><time>2026-04-06T15:55:38.605Z</time></trkpt><trkpt lat="37.8110377" lon="13.9722901"><ele>431.0</ele><time>2026-04-06T15:55:39.605Z</time></trkpt><trkpt lat="37.8113171" lon="13.9721298"><ele>431.0</ele><time>2026-04-06T15:55:40.605Z</time></trkpt><trkpt lat="37.8115794" lon="13.9719441"><ele>431.0</ele><time>2026-04-06T15:55:41.605Z</time></trkpt><trkpt lat="37.8118354" lon="13.9717372"><ele>434.0</ele><time>2026-04-06T15:55:42.605Z</time></trkpt><trkpt lat="37.8120913" lon="13.9715298"><ele>437.0</ele><time>2026-04-06T15:55:43.604Z</time></trkpt><trkpt lat="37.8123475" lon="13.9713263"><ele>437.0</ele><time>2026-04-06T15:55:44.604Z</time></trkpt><trkpt lat="37.8126088" lon="13.9711266"><ele>437.0</ele><time>2026-04-06T15:55:45.604Z</time></trkpt><trkpt lat="37.8128725" lon="13.9709203"><ele>433.5</ele><time>2026-04-06T15:55:46.604Z</time></trkpt><trkpt lat="37.8131338" lon="13.9707206"><ele>430.0</ele><time>2026-04-06T15:55:47.604Z</time></trkpt><trkpt lat="37.8133977" lon="13.9705262"><ele>433.0</ele><time>2026-04-06T15:55:48.604Z</time></trkpt><trkpt lat="37.8136695" lon="13.9703521"><ele>436.0</ele><time>2026-04-06T15:55:49.604Z</time></trkpt><trkpt lat="37.8139515" lon="13.9702057"><ele>436.0</ele><time>2026-04-06T15:55:50.604Z</time></trkpt><trkpt lat="37.8142391" lon="13.9700861"><ele>436.0</ele><time>2026-04-06T15:55:51.604Z</time></trkpt><trkpt lat="37.8145374" lon="13.9699932"><ele>428.5</ele><time>2026-04-06T15:55:52.604Z</time></trkpt><trkpt lat="37.8148384" lon="13.9699272"><ele>421.0</ele><time>2026-04-06T15:55:53.605Z</time></trkpt><trkpt lat="37.8151386" lon="13.9698831"><ele>420.0</ele><time>2026-04-06T15:55:54.604Z</time></trkpt><trkpt lat="37.8154418" lon="13.969854"><ele>419.0</ele><time>2026-04-06T15:55:55.604Z</time></trkpt><trkpt lat="37.8157418" lon="13.9698382"><ele>418.5</ele><time>2026-04-06T15:55:56.604Z</time></trkpt><trkpt lat="37.8160488" lon="13.9698304"><ele>418.0</ele><time>2026-04-06T15:55:57.605Z</time></trkpt><trkpt lat="37.8163548" lon="13.9698266"><ele>418.0</ele><time>2026-04-06T15:55:58.604Z</time></trkpt><trkpt lat="37.8166628" lon="13.969821"><ele>418.0</ele><time>2026-04-06T15:55:59.605Z</time></trkpt><trkpt lat="37.8169713" lon="13.9698051"><ele>416.0</ele><time>2026-04-06T15:56:00.604Z</time></trkpt><trkpt lat="37.8172777" lon="13.9697972"><ele>414.0</ele><time>2026-04-06T15:56:01.605Z</time></trkpt><trkpt lat="37.8175809" lon="13.9697911"><ele>409.0</ele><time>2026-04-06T15:56:02.604Z</time></trkpt><trkpt lat="37.8178861" lon="13.9697804"><ele>404.0</ele><time>2026-04-06T15:56:03.604Z</time></trkpt><trkpt lat="37.818191" lon="13.969769"><ele>405.0</ele><time>2026-04-06T15:56:04.604Z</time></trkpt><trkpt lat="37.8184951" lon="13.9697583"><ele>406.0</ele><time>2026-04-06T15:56:05.604Z</time></trkpt><trkpt lat="37.8188009" lon="13.9697433"><ele>406.0</ele><time>2026-04-06T15:56:06.604Z</time></trkpt><trkpt lat="37.8191076" lon="13.9697201"><ele>406.0</ele><time>2026-04-06T15:56:07.604Z</time></trkpt><trkpt lat="37.8194116" lon="13.9696846"><ele>407.5</ele><time>2026-04-06T15:56:08.604Z</time></trkpt><trkpt lat="37.8197128" lon="13.9696235"><ele>409.0</ele><time>2026-04-06T15:56:09.605Z</time></trkpt><trkpt lat="37.8200102" lon="13.9695439"><ele>406.0</ele><time>2026-04-06T15:56:10.605Z</time></trkpt><trkpt lat="37.8203013" lon="13.9694379"><ele>403.0</ele><time>2026-04-06T15:56:11.604Z</time></trkpt><trkpt lat="37.8205857" lon="13.9693049"><ele>401.5</ele><time>2026-04-06T15:56:12.604Z</time></trkpt><trkpt lat="37.820866" lon="13.9691596"><ele>400.0</ele><time>2026-04-06T15:56:13.604Z</time></trkpt><trkpt lat="37.8211392" lon="13.9689896"><ele>399.0</ele><time>2026-04-06T15:56:14.604Z</time></trkpt><trkpt lat="37.8213939" lon="13.9688159"><ele>398.0</ele><time>2026-04-06T15:56:15.604Z</time></trkpt><trkpt lat="37.821618" lon="13.968644"><ele>398.0</ele><time>2026-04-06T15:56:16.604Z</time></trkpt><trkpt lat="37.821814" lon="13.9685061"><ele>398.0</ele><time>2026-04-06T15:56:17.604Z</time></trkpt><trkpt lat="37.8219851" lon="13.9683925"><ele>398.0</ele><time>2026-04-06T15:56:18.604Z</time></trkpt><trkpt lat="37.8221479" lon="13.9682773"><ele>397.0</ele><time>2026-04-06T15:56:19.604Z</time></trkpt><trkpt lat="37.8222985" lon="13.9681567"><ele>396.0</ele><time>2026-04-06T15:56:20.604Z</time></trkpt><trkpt lat="37.8224377" lon="13.9680157"><ele>395.0</ele><time>2026-04-06T15:56:21.604Z</time></trkpt><trkpt lat="37.8225694" lon="13.9678694"><ele>396.0</ele><time>2026-04-06T15:56:22.604Z</time></trkpt><trkpt lat="37.8227331" lon="13.9677264"><ele>397.0</ele><time>2026-04-06T15:56:23.604Z</time></trkpt><trkpt lat="37.8229385" lon="13.9675795"><ele>398.0</ele><time>2026-04-06T15:56:24.605Z</time></trkpt><trkpt lat="37.8231576" lon="13.9674276"><ele>398.0</ele><time>2026-04-06T15:56:25.604Z</time></trkpt><trkpt lat="37.8233876" lon="13.9672621"><ele>398.0</ele><time>2026-04-06T15:56:26.605Z</time></trkpt><trkpt lat="37.8236127" lon="13.9670924"><ele>404.0</ele><time>2026-04-06T15:56:27.605Z</time></trkpt><trkpt lat="37.8238434" lon="13.9669279"><ele>410.0</ele><time>2026-04-06T15:56:28.605Z</time></trkpt><trkpt lat="37.8240847" lon="13.966767"><ele>403.0</ele><time>2026-04-06T15:56:29.604Z</time></trkpt><trkpt lat="37.8243398" lon="13.9666119"><ele>396.0</ele><time>2026-04-06T15:56:30.604Z</time></trkpt><trkpt lat="37.8246017" lon="13.9664646"><ele>396.0</ele><time>2026-04-06T15:56:31.605Z</time></trkpt><trkpt lat="37.824872" lon="13.9663287"><ele>396.0</ele><time>2026-04-06T15:56:32.604Z</time></trkpt><trkpt lat="37.82514" lon="13.966199"><ele>399.0</ele><time>2026-04-06T15:56:33.605Z</time></trkpt><trkpt lat="37.8254065" lon="13.9660694"><ele>402.0</ele><time>2026-04-06T15:56:34.604Z</time></trkpt><trkpt lat="37.8256676" lon="13.965938"><ele>397.0</ele><time>2026-04-06T15:56:35.605Z</time></trkpt><trkpt lat="37.8259234" lon="13.9658075"><ele>392.0</ele><time>2026-04-06T15:56:36.604Z</time></trkpt><trkpt lat="37.8261822" lon="13.9656787"><ele>392.0</ele><time>2026-04-06T15:56:37.604Z</time></trkpt><trkpt lat="37.8264348" lon="13.9655458"><ele>392.0</ele><time>2026-04-06T15:56:38.604Z</time></trkpt><trkpt lat="37.8266842" lon="13.9654142"><ele>394.0</ele><time>2026-04-06T15:56:39.604Z</time></trkpt><trkpt lat="37.8269268" lon="13.9652763"><ele>396.0</ele><time>2026-04-06T15:56:40.604Z</time></trkpt><trkpt lat="37.827163" lon="13.9651333"><ele>394.5</ele><time>2026-04-06T15:56:41.605Z</time></trkpt><trkpt lat="37.8273935" lon="13.964974"><ele>393.0</ele><time>2026-04-06T15:56:42.604Z</time></trkpt><trkpt lat="37.8276158" lon="13.9648024"><ele>394.5</ele><time>2026-04-06T15:56:43.604Z</time></trkpt><trkpt lat="37.8278328" lon="13.9646341"><ele>396.0</ele><time>2026-04-06T15:56:44.604Z</time></trkpt><trkpt lat="37.8280434" lon="13.9644664"><ele>396.0</ele><time>2026-04-06T15:56:45.605Z</time></trkpt><trkpt lat="37.8282436" lon="13.9642965"><ele>396.0</ele><time>2026-04-06T15:56:46.604Z</time></trkpt><trkpt lat="37.8284376" lon="13.9641226"><ele>393.0</ele><time>2026-04-06T15:56:47.605Z</time></trkpt><trkpt lat="37.8286203" lon="13.9639444"><ele>390.0</ele><time>2026-04-06T15:56:48.604Z</time></trkpt><trkpt lat="37.8287953" lon="13.963767"><ele>390.0</ele><time>2026-04-06T15:56:49.605Z</time></trkpt><trkpt lat="37.8289675" lon="13.9635889"><ele>390.0</ele><time>2026-04-06T15:56:50.604Z</time></trkpt><trkpt lat="37.829133" lon="13.9634062"><ele>390.0</ele><time>2026-04-06T15:56:51.604Z</time></trkpt><trkpt lat="37.8292939" lon="13.9632106"><ele>391.33333333333337</ele><time>2026-04-06T15:56:52.604Z</time></trkpt><trkpt lat="37.829449" lon="13.9630107"><ele>392.6666666666667</ele><time>2026-04-06T15:56:53.604Z</time></trkpt><trkpt lat="37.8296026" lon="13.9628085"><ele>394.0</ele><time>2026-04-06T15:56:54.604Z</time></trkpt><trkpt lat="37.8297526" lon="13.9625957"><ele>389.5</ele><time>2026-04-06T15:56:55.604Z</time></trkpt><trkpt lat="37.8299036" lon="13.9623805"><ele>385.0</ele><time>2026-04-06T15:56:56.604Z</time></trkpt><trkpt lat="37.8300487" lon="13.9621602"><ele>385.5</ele><time>2026-04-06T15:56:57.604Z</time></trkpt><trkpt lat="37.8301914" lon="13.9619386"><ele>386.0</ele><time>2026-04-06T15:56:58.604Z</time></trkpt><trkpt lat="37.8303296" lon="13.9617137"><ele>381.5</ele><time>2026-04-06T15:56:59.604Z</time></trkpt><trkpt lat="37.8304587" lon="13.96148"><ele>377.0</ele><time>2026-04-06T15:57:00.604Z</time></trkpt><trkpt lat="37.8305854" lon="13.9612401"><ele>377.0</ele><time>2026-04-06T15:57:01.604Z</time></trkpt><trkpt lat="37.8307081" lon="13.9609957"><ele>377.0</ele><time>2026-04-06T15:57:02.604Z</time></trkpt><trkpt lat="37.8308196" lon="13.9607604"><ele>377.0</ele><time>2026-04-06T15:57:03.604Z</time></trkpt><trkpt lat="37.8309266" lon="13.9605224"><ele>374.6666666666667</ele><time>2026-04-06T15:57:04.604Z</time></trkpt><trkpt lat="37.831027" lon="13.960285"><ele>372.3333333333333</ele><time>2026-04-06T15:57:05.604Z</time></trkpt><trkpt lat="37.8311237" lon="13.9600406"><ele>370.0</ele><time>2026-04-06T15:57:06.604Z</time></trkpt><trkpt lat="37.8312157" lon="13.9597948"><ele>369.3333333333333</ele><time>2026-04-06T15:57:07.604Z</time></trkpt><trkpt lat="37.8313042" lon="13.959549"><ele>368.6666666666667</ele><time>2026-04-06T15:57:08.605Z</time></trkpt><trkpt lat="37.8313903" lon="13.959298"><ele>368.0</ele><time>2026-04-06T15:57:09.605Z</time></trkpt><trkpt lat="37.8314699" lon="13.9590402"><ele>368.0</ele><time>2026-04-06T15:57:10.604Z</time></trkpt><trkpt lat="37.8315486" lon="13.9587781"><ele>368.0</ele><time>2026-04-06T15:57:11.604Z</time></trkpt><trkpt lat="37.8316243" lon="13.9585155"><ele>368.0</ele><time>2026-04-06T15:57:12.604Z</time></trkpt><trkpt lat="37.8316999" lon="13.9582445"><ele>368.0</ele><time>2026-04-06T15:57:13.604Z</time></trkpt><trkpt lat="37.8317805" lon="13.9579726"><ele>368.0</ele><time>2026-04-06T15:57:14.604Z</time></trkpt><trkpt lat="37.8318586" lon="13.9576923"><ele>373.5</ele><time>2026-04-06T15:57:15.605Z</time></trkpt><trkpt lat="37.8319417" lon="13.9574081"><ele>379.0</ele><time>2026-04-06T15:57:16.604Z</time></trkpt><trkpt lat="37.8320262" lon="13.9571187"><ele>379.0</ele><time>2026-04-06T15:57:17.605Z</time></trkpt><trkpt lat="37.8321134" lon="13.9568324"><ele>379.0</ele><time>2026-04-06T15:57:18.604Z</time></trkpt><trkpt lat="37.8321998" lon="13.956544"><ele>374.0</ele><time>2026-04-06T15:57:19.604Z</time></trkpt><trkpt lat="37.8322867" lon="13.9562522"><ele>369.0</ele><time>2026-04-06T15:57:20.604Z</time></trkpt><trkpt lat="37.8323733" lon="13.95596"><ele>364.0</ele><time>2026-04-06T15:57:21.604Z</time></trkpt><trkpt lat="37.8324593" lon="13.9556637"><ele>359.0</ele><time>2026-04-06T15:57:22.604Z</time></trkpt><trkpt lat="37.8325462" lon="13.9553658"><ele>359.0</ele><time>2026-04-06T15:57:23.604Z</time></trkpt><trkpt lat="37.8326312" lon="13.9550642"><ele>359.0</ele><time>2026-04-06T15:57:24.604Z</time></trkpt><trkpt lat="37.8327176" lon="13.9547664"><ele>359.0</ele><time>2026-04-06T15:57:25.605Z</time></trkpt><trkpt lat="37.832807" lon="13.9544682"><ele>359.0</ele><time>2026-04-06T15:57:26.604Z</time></trkpt><trkpt lat="37.8328926" lon="13.9541716"><ele>359.0</ele><time>2026-04-06T15:57:27.604Z</time></trkpt><trkpt lat="37.832979" lon="13.9538771"><ele>359.0</ele><time>2026-04-06T15:57:28.605Z</time></trkpt><trkpt lat="37.8330626" lon="13.9535776"><ele>356.5</ele><time>2026-04-06T15:57:29.604Z</time></trkpt><trkpt lat="37.8331388" lon="13.9532759"><ele>354.0</ele><time>2026-04-06T15:57:30.605Z</time></trkpt><trkpt lat="37.8332075" lon="13.9529743"><ele>354.0</ele><time>2026-04-06T15:57:31.604Z</time></trkpt><trkpt lat="37.8332697" lon="13.9526766"><ele>354.0</ele><time>2026-04-06T15:57:32.604Z</time></trkpt><trkpt lat="37.8333242" lon="13.9523683"><ele>352.5</ele><time>2026-04-06T15:57:33.604Z</time></trkpt><trkpt lat="37.8333728" lon="13.9520638"><ele>351.0</ele><time>2026-04-06T15:57:34.604Z</time></trkpt><trkpt lat="37.8334156" lon="13.9517551"><ele>353.5</ele><time>2026-04-06T15:57:35.604Z</time></trkpt><trkpt lat="37.8334503" lon="13.951443"><ele>356.0</ele><time>2026-04-06T15:57:36.604Z</time></trkpt><trkpt lat="37.8334698" lon="13.9511292"><ele>352.5</ele><time>2026-04-06T15:57:37.604Z</time></trkpt><trkpt lat="37.8334846" lon="13.9508184"><ele>349.0</ele><time>2026-04-06T15:57:38.604Z</time></trkpt><trkpt lat="37.8334994" lon="13.9505126"><ele>349.0</ele><time>2026-04-06T15:57:39.605Z</time></trkpt><trkpt lat="37.833507" lon="13.9502218"><ele>349.0</ele><time>2026-04-06T15:57:40.604Z</time></trkpt><trkpt lat="37.8335122" lon="13.9499278"><ele>350.0</ele><time>2026-04-06T15:57:41.604Z</time></trkpt><trkpt lat="37.8335083" lon="13.9496335"><ele>351.0</ele><time>2026-04-06T15:57:42.604Z</time></trkpt><trkpt lat="37.8335028" lon="13.9493374"><ele>348.5</ele><time>2026-04-06T15:57:43.604Z</time></trkpt><trkpt lat="37.8334978" lon="13.9490396"><ele>346.0</ele><time>2026-04-06T15:57:44.604Z</time></trkpt><trkpt lat="37.8334907" lon="13.9487487"><ele>346.0</ele><time>2026-04-06T15:57:45.604Z</time></trkpt><trkpt lat="37.833486" lon="13.9484578"><ele>346.0</ele><time>2026-04-06T15:57:46.604Z</time></trkpt><trkpt lat="37.8334814" lon="13.9481752"><ele>345.3333333333333</ele><time>2026-04-06T15:57:47.604Z</time></trkpt><trkpt lat="37.8334787" lon="13.9479008"><ele>344.6666666666667</ele><time>2026-04-06T15:57:48.605Z</time></trkpt><trkpt lat="37.8334733" lon="13.9476266"><ele>344.0</ele><time>2026-04-06T15:57:49.604Z</time></trkpt><trkpt lat="37.8334722" lon="13.9473529"><ele>344.0</ele><time>2026-04-06T15:57:50.605Z</time></trkpt><trkpt lat="37.8334805" lon="13.9470749"><ele>344.0</ele><time>2026-04-06T15:57:51.604Z</time></trkpt><trkpt lat="37.8334947" lon="13.9467923"><ele>344.0</ele><time>2026-04-06T15:57:52.604Z</time></trkpt><trkpt lat="37.8335135" lon="13.946508"><ele>341.0</ele><time>2026-04-06T15:57:53.604Z</time></trkpt><trkpt lat="37.8335346" lon="13.9462243"><ele>338.0</ele><time>2026-04-06T15:57:54.604Z</time></trkpt><trkpt lat="37.8335654" lon="13.9459386"><ele>335.5</ele><time>2026-04-06T15:57:55.604Z</time></trkpt><trkpt lat="37.8336009" lon="13.9456533"><ele>333.0</ele><time>2026-04-06T15:57:56.604Z</time></trkpt><trkpt lat="37.8336414" lon="13.9453632"><ele>333.0</ele><time>2026-04-06T15:57:57.604Z</time></trkpt><trkpt lat="37.8336905" lon="13.9450769"><ele>333.0</ele><time>2026-04-06T15:57:58.605Z</time></trkpt><trkpt lat="37.8337431" lon="13.9447851"><ele>331.5</ele><time>2026-04-06T15:57:59.604Z</time></trkpt><trkpt lat="37.8338047" lon="13.9444997"><ele>330.0</ele><time>2026-04-06T15:58:00.605Z</time></trkpt><trkpt lat="37.8338687" lon="13.9442175"><ele>330.0</ele><time>2026-04-06T15:58:01.604Z</time></trkpt><trkpt lat="37.8339405" lon="13.9439374"><ele>330.0</ele><time>2026-04-06T15:58:02.604Z</time></trkpt><trkpt lat="37.8340147" lon="13.9436601"><ele>330.0</ele><time>2026-04-06T15:58:03.604Z</time></trkpt><trkpt lat="37.8340929" lon="13.9433889"><ele>330.0</ele><time>2026-04-06T15:58:04.605Z</time></trkpt><trkpt lat="37.8341759" lon="13.94312"><ele>328.5</ele><time>2026-04-06T15:58:05.604Z</time></trkpt><trkpt lat="37.8342675" lon="13.9428498"><ele>327.0</ele><time>2026-04-06T15:58:06.604Z</time></trkpt><trkpt lat="37.8343644" lon="13.9425895"><ele>329.5</ele><time>2026-04-06T15:58:07.604Z</time></trkpt><trkpt lat="37.8344708" lon="13.9423292"><ele>332.0</ele><time>2026-04-06T15:58:08.605Z</time></trkpt><trkpt lat="37.8345808" lon="13.9420692"><ele>332.0</ele><time>2026-04-06T15:58:09.604Z</time></trkpt><trkpt lat="37.8346877" lon="13.9418058"><ele>332.0</ele><time>2026-04-06T15:58:10.604Z</time></trkpt><trkpt lat="37.8347947" lon="13.9415412"><ele>327.5</ele><time>2026-04-06T15:58:11.604Z</time></trkpt><trkpt lat="37.8349018" lon="13.9412683"><ele>323.0</ele><time>2026-04-06T15:58:12.604Z</time></trkpt><trkpt lat="37.8350081" lon="13.9409954"><ele>322.5</ele><time>2026-04-06T15:58:13.604Z</time></trkpt><trkpt lat="37.8351165" lon="13.9407236"><ele>322.0</ele><time>2026-04-06T15:58:14.604Z</time></trkpt><trkpt lat="37.8352186" lon="13.9404458"><ele>322.0</ele><time>2026-04-06T15:58:15.605Z</time></trkpt><trkpt lat="37.8353142" lon="13.9401649"><ele>322.0</ele><time>2026-04-06T15:58:16.604Z</time></trkpt><trkpt lat="37.8353984" lon="13.9398777"><ele>317.5</ele><time>2026-04-06T15:58:17.604Z</time></trkpt><trkpt lat="37.8354742" lon="13.9395879"><ele>313.0</ele><time>2026-04-06T15:58:18.604Z</time></trkpt><trkpt lat="37.8355415" lon="13.9392953"><ele>312.0</ele><time>2026-04-06T15:58:19.604Z</time></trkpt><trkpt lat="37.8355972" lon="13.9390072"><ele>311.0</ele><time>2026-04-06T15:58:20.605Z</time></trkpt><trkpt lat="37.8356465" lon="13.9387228"><ele>311.0</ele><time>2026-04-06T15:58:21.604Z</time></trkpt><trkpt lat="37.8356918" lon="13.9384296"><ele>311.0</ele><time>2026-04-06T15:58:22.604Z</time></trkpt><trkpt lat="37.8357314" lon="13.9381286"><ele>311.0</ele><time>2026-04-06T15:58:23.604Z</time></trkpt><trkpt lat="37.8357638" lon="13.9378254"><ele>311.0</ele><time>2026-04-06T15:58:24.605Z</time></trkpt><trkpt lat="37.8357893" lon="13.9375143"><ele>310.0</ele><time>2026-04-06T15:58:25.605Z</time></trkpt><trkpt lat="37.8358091" lon="13.937208"><ele>309.0</ele><time>2026-04-06T15:58:26.604Z</time></trkpt><trkpt lat="37.8358224" lon="13.9369143"><ele>307.3333333333333</ele><time>2026-04-06T15:58:27.604Z</time></trkpt><trkpt lat="37.8358336" lon="13.9366353"><ele>305.66666666666663</ele><time>2026-04-06T15:58:28.605Z</time></trkpt><trkpt lat="37.8358407" lon="13.9363651"><ele>304.0</ele><time>2026-04-06T15:58:29.604Z</time></trkpt><trkpt lat="37.8358396" lon="13.9361118"><ele>303.66666666666663</ele><time>2026-04-06T15:58:30.604Z</time></trkpt><trkpt lat="37.8358398" lon="13.935879"><ele>303.3333333333333</ele><time>2026-04-06T15:58:31.604Z</time></trkpt><trkpt lat="37.8358416" lon="13.9356634"><ele>303.0</ele><time>2026-04-06T15:58:32.604Z</time></trkpt><trkpt lat="37.8358409" lon="13.9354578"><ele>303.0</ele><time>2026-04-06T15:58:33.604Z</time></trkpt><trkpt lat="37.8358404" lon="13.9352645"><ele>303.0</ele><time>2026-04-06T15:58:34.604Z</time></trkpt><trkpt lat="37.8358367" lon="13.9350746"><ele>303.0</ele><time>2026-04-06T15:58:35.604Z</time></trkpt><trkpt lat="37.8358318" lon="13.9348964"><ele>303.0</ele><time>2026-04-06T15:58:36.604Z</time></trkpt><trkpt lat="37.8358294" lon="13.9347285"><ele>302.5</ele><time>2026-04-06T15:58:37.605Z</time></trkpt><trkpt lat="37.8358288" lon="13.9345534"><ele>302.0</ele><time>2026-04-06T15:58:38.605Z</time></trkpt><trkpt lat="37.8358383" lon="13.9343826"><ele>301.5</ele><time>2026-04-06T15:58:39.604Z</time></trkpt><trkpt lat="37.8358598" lon="13.9342177"><ele>301.0</ele><time>2026-04-06T15:58:40.604Z</time></trkpt><trkpt lat="37.8358794" lon="13.9340427"><ele>300.66666666666663</ele><time>2026-04-06T15:58:41.605Z</time></trkpt><trkpt lat="37.8358859" lon="13.9338631"><ele>300.3333333333333</ele><time>2026-04-06T15:58:42.604Z</time></trkpt><trkpt lat="37.8358835" lon="13.9336746"><ele>300.0</ele><time>2026-04-06T15:58:43.605Z</time></trkpt><trkpt lat="37.8358791" lon="13.9334716"><ele>299.0</ele><time>2026-04-06T15:58:44.604Z</time></trkpt><trkpt lat="37.8358754" lon="13.9332549"><ele>298.0</ele><time>2026-04-06T15:58:45.605Z</time></trkpt><trkpt lat="37.8358701" lon="13.9330163"><ele>297.0</ele><time>2026-04-06T15:58:46.604Z</time></trkpt><trkpt lat="37.8358672" lon="13.9327607"><ele>295.5</ele><time>2026-04-06T15:58:47.604Z</time></trkpt><trkpt lat="37.8358609" lon="13.9324714"><ele>294.0</ele><time>2026-04-06T15:58:48.604Z</time></trkpt><trkpt lat="37.8358681" lon="13.9321552"><ele>294.0</ele><time>2026-04-06T15:58:49.605Z</time></trkpt><trkpt lat="37.8358741" lon="13.9318109"><ele>294.0</ele><time>2026-04-06T15:58:50.604Z</time></trkpt><trkpt lat="37.8358778" lon="13.9314497"><ele>291.5</ele><time>2026-04-06T15:58:51.604Z</time></trkpt><trkpt lat="37.8358883" lon="13.93107"><ele>289.0</ele><time>2026-04-06T15:58:52.604Z</time></trkpt><trkpt lat="37.8358976" lon="13.9306784"><ele>285.5</ele><time>2026-04-06T15:58:53.604Z</time></trkpt><trkpt lat="37.8359211" lon="13.9302869"><ele>282.0</ele><time>2026-04-06T15:58:54.604Z</time></trkpt><trkpt lat="37.8359547" lon="13.9298874"><ele>283.0</ele><time>2026-04-06T15:58:55.604Z</time></trkpt><trkpt lat="37.8359943" lon="13.9294982"><ele>284.0</ele><time>2026-04-06T15:58:56.605Z</time></trkpt><trkpt lat="37.8360428" lon="13.9291181"><ele>284.0</ele><time>2026-04-06T15:58:57.605Z</time></trkpt><trkpt lat="37.8360933" lon="13.9287484"><ele>284.0</ele><time>2026-04-06T15:58:58.604Z</time></trkpt><trkpt lat="37.8361495" lon="13.9283828"><ele>279.5</ele><time>2026-04-06T15:58:59.604Z</time></trkpt><trkpt lat="37.8362142" lon="13.9280181"><ele>275.0</ele><time>2026-04-06T15:59:00.605Z</time></trkpt><trkpt lat="37.8362868" lon="13.9276537"><ele>272.5</ele><time>2026-04-06T15:59:01.604Z</time></trkpt><trkpt lat="37.8363685" lon="13.9272923"><ele>270.0</ele><time>2026-04-06T15:59:02.604Z</time></trkpt><trkpt lat="37.8364597" lon="13.9269348"><ele>270.5</ele><time>2026-04-06T15:59:03.604Z</time></trkpt><trkpt lat="37.8365612" lon="13.9265756"><ele>271.0</ele><time>2026-04-06T15:59:04.604Z</time></trkpt><trkpt lat="37.8366741" lon="13.9262191"><ele>270.5</ele><time>2026-04-06T15:59:05.605Z</time></trkpt><trkpt lat="37.8367947" lon="13.9258663"><ele>270.0</ele><time>2026-04-06T15:59:06.604Z</time></trkpt><trkpt lat="37.8369208" lon="13.9255172"><ele>270.0</ele><time>2026-04-06T15:59:07.604Z</time></trkpt><trkpt lat="37.8370546" lon="13.9251733"><ele>270.0</ele><time>2026-04-06T15:59:08.604Z</time></trkpt><trkpt lat="37.8371975" lon="13.9248312"><ele>271.0</ele><time>2026-04-06T15:59:09.604Z</time></trkpt><trkpt lat="37.8373496" lon="13.9244993"><ele>272.0</ele><time>2026-04-06T15:59:10.604Z</time></trkpt><trkpt lat="37.8375108" lon="13.9241761"><ele>264.5</ele><time>2026-04-06T15:59:11.604Z</time></trkpt><trkpt lat="37.8376846" lon="13.9238548"><ele>257.0</ele><time>2026-04-06T15:59:12.604Z</time></trkpt><trkpt lat="37.8378655" lon="13.9235454"><ele>259.5</ele><time>2026-04-06T15:59:13.604Z</time></trkpt><trkpt lat="37.838058" lon="13.9232446"><ele>262.0</ele><time>2026-04-06T15:59:14.605Z</time></trkpt><trkpt lat="37.8382593" lon="13.9229602"><ele>262.5</ele><time>2026-04-06T15:59:15.604Z</time></trkpt><trkpt lat="37.8384715" lon="13.9226799"><ele>263.0</ele><time>2026-04-06T15:59:16.604Z</time></trkpt><trkpt lat="37.8386958" lon="13.9224231"><ele>261.5</ele><time>2026-04-06T15:59:17.604Z</time></trkpt><trkpt lat="37.8389284" lon="13.9221776"><ele>260.0</ele><time>2026-04-06T15:59:18.604Z</time></trkpt><trkpt lat="37.8391646" lon="13.9219324"><ele>260.5</ele><time>2026-04-06T15:59:19.604Z</time></trkpt><trkpt lat="37.8394045" lon="13.9216887"><ele>261.0</ele><time>2026-04-06T15:59:20.604Z</time></trkpt><trkpt lat="37.8396424" lon="13.9214472"><ele>261.0</ele><time>2026-04-06T15:59:21.604Z</time></trkpt><trkpt lat="37.8398795" lon="13.9211982"><ele>261.0</ele><time>2026-04-06T15:59:22.604Z</time></trkpt><trkpt lat="37.840113" lon="13.92095"><ele>257.5</ele><time>2026-04-06T15:59:23.605Z</time></trkpt><trkpt lat="37.8403465" lon="13.920704"><ele>254.0</ele><time>2026-04-06T15:59:24.604Z</time></trkpt><trkpt lat="37.8405856" lon="13.9204593"><ele>254.0</ele><time>2026-04-06T15:59:25.604Z</time></trkpt><trkpt lat="37.8408219" lon="13.9202216"><ele>254.0</ele><time>2026-04-06T15:59:26.605Z</time></trkpt><trkpt lat="37.84106" lon="13.9199795"><ele>252.5</ele><time>2026-04-06T15:59:27.604Z</time></trkpt><trkpt lat="37.8413002" lon="13.9197375"><ele>251.0</ele><time>2026-04-06T15:59:28.604Z</time></trkpt><trkpt lat="37.8415407" lon="13.9195052"><ele>251.0</ele><time>2026-04-06T15:59:29.604Z</time></trkpt><trkpt lat="37.8417889" lon="13.9192787"><ele>251.0</ele><time>2026-04-06T15:59:30.604Z</time></trkpt><trkpt lat="37.8420429" lon="13.9190614"><ele>248.0</ele><time>2026-04-06T15:59:31.604Z</time></trkpt><trkpt lat="37.8422984" lon="13.9188565"><ele>245.0</ele><time>2026-04-06T15:59:32.604Z</time></trkpt><trkpt lat="37.8425618" lon="13.9186499"><ele>244.5</ele><time>2026-04-06T15:59:33.604Z</time></trkpt><trkpt lat="37.8428194" lon="13.9184488"><ele>244.0</ele><time>2026-04-06T15:59:34.604Z</time></trkpt><trkpt lat="37.8430782" lon="13.9182438"><ele>244.0</ele><time>2026-04-06T15:59:35.604Z</time></trkpt><trkpt lat="37.8433384" lon="13.9180413"><ele>244.0</ele><time>2026-04-06T15:59:36.604Z</time></trkpt><trkpt lat="37.8435967" lon="13.9178312"><ele>246.5</ele><time>2026-04-06T15:59:37.604Z</time></trkpt><trkpt lat="37.8438548" lon="13.9176265"><ele>249.0</ele><time>2026-04-06T15:59:38.604Z</time></trkpt><trkpt lat="37.8441118" lon="13.9174203"><ele>246.5</ele><time>2026-04-06T15:59:39.604Z</time></trkpt><trkpt lat="37.8443695" lon="13.9172173"><ele>244.0</ele><time>2026-04-06T15:59:40.605Z</time></trkpt><trkpt lat="37.8446315" lon="13.9170152"><ele>244.0</ele><time>2026-04-06T15:59:41.604Z</time></trkpt><trkpt lat="37.8448906" lon="13.9168133"><ele>244.0</ele><time>2026-04-06T15:59:42.604Z</time></trkpt><trkpt lat="37.8451511" lon="13.9166109"><ele>239.5</ele><time>2026-04-06T15:59:43.604Z</time></trkpt><trkpt lat="37.8454129" lon="13.9164105"><ele>235.0</ele><time>2026-04-06T15:59:44.604Z</time></trkpt><trkpt lat="37.8456754" lon="13.9162171"><ele>235.0</ele><time>2026-04-06T15:59:45.604Z</time></trkpt><trkpt lat="37.8459413" lon="13.9160284"><ele>235.0</ele><time>2026-04-06T15:59:46.604Z</time></trkpt><trkpt lat="37.84621" lon="13.9158459"><ele>235.0</ele><time>2026-04-06T15:59:47.604Z</time></trkpt><trkpt lat="37.84648" lon="13.9156622"><ele>235.0</ele><time>2026-04-06T15:59:48.605Z</time></trkpt><trkpt lat="37.8467496" lon="13.9154824"><ele>243.5</ele><time>2026-04-06T15:59:49.604Z</time></trkpt><trkpt lat="37.8470214" lon="13.9152984"><ele>252.0</ele><time>2026-04-06T15:59:50.604Z</time></trkpt><trkpt lat="37.8472924" lon="13.9151123"><ele>249.5</ele><time>2026-04-06T15:59:51.605Z</time></trkpt><trkpt lat="37.8475636" lon="13.9149213"><ele>247.0</ele><time>2026-04-06T15:59:52.604Z</time></trkpt><trkpt lat="37.8483571" lon="13.9143815"><ele>238.5</ele><time>2026-04-06T15:59:55.605Z</time></trkpt><trkpt lat="37.8486229" lon="13.9141948"><ele>230.0</ele><time>2026-04-06T15:59:56.604Z</time></trkpt><trkpt lat="37.8488843" lon="13.9139692"><ele>230.0</ele><time>2026-04-06T15:59:57.604Z</time></trkpt><trkpt lat="37.8491228" lon="13.91375"><ele>230.0</ele><time>2026-04-06T15:59:58.604Z</time></trkpt><trkpt lat="37.8493648" lon="13.9135206"><ele>231.5</ele><time>2026-04-06T15:59:59.604Z</time></trkpt><trkpt lat="37.8496025" lon="13.9132737"><ele>233.0</ele><time>2026-04-06T16:00:00.605Z</time></trkpt><trkpt lat="37.8498319" lon="13.9130199"><ele>233.0</ele><time>2026-04-06T16:00:01.605Z</time></trkpt><trkpt lat="37.8500559" lon="13.9127595"><ele>233.0</ele><time>2026-04-06T16:00:02.604Z</time></trkpt><trkpt lat="37.8502748" lon="13.9124912"><ele>235.0</ele><time>2026-04-06T16:00:03.605Z</time></trkpt><trkpt lat="37.8504846" lon="13.9122123"><ele>237.0</ele><time>2026-04-06T16:00:04.604Z</time></trkpt><trkpt lat="37.8506854" lon="13.9119244"><ele>233.5</ele><time>2026-04-06T16:00:05.604Z</time></trkpt><trkpt lat="37.8508775" lon="13.9116264"><ele>230.0</ele><time>2026-04-06T16:00:06.604Z</time></trkpt><trkpt lat="37.8510646" lon="13.9113203"><ele>230.0</ele><time>2026-04-06T16:00:07.604Z</time></trkpt><trkpt lat="37.8512493" lon="13.911015"><ele>230.0</ele><time>2026-04-06T16:00:08.604Z</time></trkpt><trkpt lat="37.8514305" lon="13.9107018"><ele>232.5</ele><time>2026-04-06T16:00:09.604Z</time></trkpt><trkpt lat="37.8516149" lon="13.9103934"><ele>235.0</ele><time>2026-04-06T16:00:10.605Z</time></trkpt><trkpt lat="37.8517988" lon="13.9100852"><ele>231.5</ele><time>2026-04-06T16:00:11.605Z</time></trkpt><trkpt lat="37.8519838" lon="13.909778"><ele>228.0</ele><time>2026-04-06T16:00:12.605Z</time></trkpt><trkpt lat="37.8521692" lon="13.9094734"><ele>224.5</ele><time>2026-04-06T16:00:13.604Z</time></trkpt><trkpt lat="37.8523536" lon="13.9091692"><ele>221.0</ele><time>2026-04-06T16:00:14.604Z</time></trkpt><trkpt lat="37.8525341" lon="13.9088601"><ele>221.5</ele><time>2026-04-06T16:00:15.604Z</time></trkpt><trkpt lat="37.8527148" lon="13.9085512"><ele>222.0</ele><time>2026-04-06T16:00:16.605Z</time></trkpt><trkpt lat="37.8528955" lon="13.9082398"><ele>222.0</ele><time>2026-04-06T16:00:17.604Z</time></trkpt><trkpt lat="37.8530743" lon="13.9079298"><ele>222.0</ele><time>2026-04-06T16:00:18.605Z</time></trkpt><trkpt lat="37.8532541" lon="13.9076165"><ele>220.0</ele><time>2026-04-06T16:00:19.604Z</time></trkpt><trkpt lat="37.853434" lon="13.9073014"><ele>218.0</ele><time>2026-04-06T16:00:20.605Z</time></trkpt><trkpt lat="37.8536112" lon="13.9069855"><ele>218.0</ele><time>2026-04-06T16:00:21.604Z</time></trkpt><trkpt lat="37.8537863" lon="13.9066688"><ele>218.0</ele><time>2026-04-06T16:00:22.604Z</time></trkpt><trkpt lat="37.8539606" lon="13.9063539"><ele>218.0</ele><time>2026-04-06T16:00:23.604Z</time></trkpt><trkpt lat="37.8541408" lon="13.906042"><ele>218.0</ele><time>2026-04-06T16:00:24.604Z</time></trkpt><trkpt lat="37.8543247" lon="13.9057281"><ele>217.5</ele><time>2026-04-06T16:00:25.604Z</time></trkpt><trkpt lat="37.8545078" lon="13.9054159"><ele>217.0</ele><time>2026-04-06T16:00:26.604Z</time></trkpt><trkpt lat="37.8546917" lon="13.9051036"><ele>213.0</ele><time>2026-04-06T16:00:27.605Z</time></trkpt><trkpt lat="37.8548755" lon="13.9047964"><ele>209.0</ele><time>2026-04-06T16:00:28.604Z</time></trkpt><trkpt lat="37.855061" lon="13.9044895"><ele>208.0</ele><time>2026-04-06T16:00:29.604Z</time></trkpt><trkpt lat="37.8552422" lon="13.9041752"><ele>207.0</ele><time>2026-04-06T16:00:30.604Z</time></trkpt><trkpt lat="37.8554254" lon="13.9038695"><ele>207.0</ele><time>2026-04-06T16:00:31.604Z</time></trkpt><trkpt lat="37.8556133" lon="13.9035688"><ele>207.0</ele><time>2026-04-06T16:00:32.604Z</time></trkpt><trkpt lat="37.8558039" lon="13.9032695"><ele>206.0</ele><time>2026-04-06T16:00:33.605Z</time></trkpt><trkpt lat="37.8560042" lon="13.9029789"><ele>205.0</ele><time>2026-04-06T16:00:34.604Z</time></trkpt><trkpt lat="37.8562096" lon="13.9026933"><ele>201.5</ele><time>2026-04-06T16:00:35.605Z</time></trkpt><trkpt lat="37.8564259" lon="13.9024248"><ele>198.0</ele><time>2026-04-06T16:00:36.605Z</time></trkpt><trkpt lat="37.8566519" lon="13.9021699"><ele>198.0</ele><time>2026-04-06T16:00:37.606Z</time></trkpt><trkpt lat="37.8568864" lon="13.9019256"><ele>198.0</ele><time>2026-04-06T16:00:38.605Z</time></trkpt><trkpt lat="37.8571276" lon="13.9016898"><ele>198.0</ele><time>2026-04-06T16:00:39.606Z</time></trkpt><trkpt lat="37.857369" lon="13.9014542"><ele>198.0</ele><time>2026-04-06T16:00:40.605Z</time></trkpt><trkpt lat="37.8576154" lon="13.9012253"><ele>199.5</ele><time>2026-04-06T16:00:41.605Z</time></trkpt><trkpt lat="37.8578662" lon="13.9010004"><ele>201.0</ele><time>2026-04-06T16:00:42.605Z</time></trkpt><trkpt lat="37.8581166" lon="13.9007752"><ele>200.0</ele><time>2026-04-06T16:00:43.605Z</time></trkpt><trkpt lat="37.858364" lon="13.9005492"><ele>199.0</ele><time>2026-04-06T16:00:44.606Z</time></trkpt><trkpt lat="37.8586077" lon="13.9003236"><ele>199.0</ele><time>2026-04-06T16:00:45.605Z</time></trkpt><trkpt lat="37.8588507" lon="13.9000965"><ele>199.0</ele><time>2026-04-06T16:00:46.605Z</time></trkpt><trkpt lat="37.8590934" lon="13.8998685"><ele>193.0</ele><time>2026-04-06T16:00:47.605Z</time></trkpt><trkpt lat="37.8593349" lon="13.899627"><ele>187.0</ele><time>2026-04-06T16:00:48.605Z</time></trkpt><trkpt lat="37.8595607" lon="13.8993673"><ele>185.0</ele><time>2026-04-06T16:00:49.605Z</time></trkpt><trkpt lat="37.8597665" lon="13.8990866"><ele>183.0</ele><time>2026-04-06T16:00:50.606Z</time></trkpt><trkpt lat="37.8599537" lon="13.8987853"><ele>183.0</ele><time>2026-04-06T16:00:51.605Z</time></trkpt><trkpt lat="37.8601272" lon="13.8984719"><ele>183.0</ele><time>2026-04-06T16:00:52.606Z</time></trkpt><trkpt lat="37.8602874" lon="13.8981393"><ele>182.5</ele><time>2026-04-06T16:00:53.605Z</time></trkpt><trkpt lat="37.8604309" lon="13.8977981"><ele>182.0</ele><time>2026-04-06T16:00:54.605Z</time></trkpt><trkpt lat="37.8605544" lon="13.8974527"><ele>181.5</ele><time>2026-04-06T16:00:55.605Z</time></trkpt><trkpt lat="37.8606623" lon="13.8970935"><ele>181.0</ele><time>2026-04-06T16:00:56.605Z</time></trkpt><trkpt lat="37.8607487" lon="13.8967258"><ele>179.0</ele><time>2026-04-06T16:00:57.605Z</time></trkpt><trkpt lat="37.8608177" lon="13.8963483"><ele>177.0</ele><time>2026-04-06T16:00:58.605Z</time></trkpt><trkpt lat="37.8608713" lon="13.8959683"><ele>179.5</ele><time>2026-04-06T16:00:59.605Z</time></trkpt><trkpt lat="37.8609133" lon="13.8955842"><ele>182.0</ele><time>2026-04-06T16:01:00.605Z</time></trkpt><trkpt lat="37.860949" lon="13.8952084"><ele>198.5</ele><time>2026-04-06T16:01:01.605Z</time></trkpt><trkpt lat="37.860986" lon="13.8948261"><ele>215.0</ele><time>2026-04-06T16:01:02.605Z</time></trkpt><trkpt lat="37.8610304" lon="13.8944433"><ele>209.5</ele><time>2026-04-06T16:01:03.605Z</time></trkpt><trkpt lat="37.8610811" lon="13.8940635"><ele>204.0</ele><time>2026-04-06T16:01:04.605Z</time></trkpt><trkpt lat="37.861132" lon="13.893685"><ele>194.0</ele><time>2026-04-06T16:01:05.605Z</time></trkpt><trkpt lat="37.8611815" lon="13.8933048"><ele>184.0</ele><time>2026-04-06T16:01:06.605Z</time></trkpt><trkpt lat="37.8612315" lon="13.8929256"><ele>174.0</ele><time>2026-04-06T16:01:07.605Z</time></trkpt><trkpt lat="37.8612875" lon="13.8925488"><ele>164.0</ele><time>2026-04-06T16:01:08.605Z</time></trkpt><trkpt lat="37.8613529" lon="13.8921744"><ele>164.0</ele><time>2026-04-06T16:01:09.605Z</time></trkpt><trkpt lat="37.8614323" lon="13.8918046"><ele>164.0</ele><time>2026-04-06T16:01:10.605Z</time></trkpt><trkpt lat="37.8615429" lon="13.8914448"><ele>164.0</ele><time>2026-04-06T16:01:11.605Z</time></trkpt><trkpt lat="37.8616741" lon="13.8910934"><ele>164.0</ele><time>2026-04-06T16:01:12.605Z</time></trkpt><trkpt lat="37.8618231" lon="13.8907534"><ele>164.0</ele><time>2026-04-06T16:01:13.605Z</time></trkpt><trkpt lat="37.8619766" lon="13.8904193"><ele>164.0</ele><time>2026-04-06T16:01:14.605Z</time></trkpt><trkpt lat="37.862131" lon="13.8900887"><ele>155.0</ele><time>2026-04-06T16:01:15.605Z</time></trkpt><trkpt lat="37.86293" lon="13.8884183"><ele>155.0</ele><time>2026-04-06T16:01:20.606Z</time></trkpt><trkpt lat="37.8630763" lon="13.8880708"><ele>155.0</ele><time>2026-04-06T16:01:21.606Z</time></trkpt><trkpt lat="37.8632016" lon="13.8877099"><ele>158.0</ele><time>2026-04-06T16:01:22.605Z</time></trkpt><trkpt lat="37.8633157" lon="13.8873569"><ele>161.0</ele><time>2026-04-06T16:01:23.605Z</time></trkpt><trkpt lat="37.8634057" lon="13.8869915"><ele>172.0</ele><time>2026-04-06T16:01:24.605Z</time></trkpt><trkpt lat="37.8634738" lon="13.886624"><ele>183.0</ele><time>2026-04-06T16:01:25.605Z</time></trkpt><trkpt lat="37.8635265" lon="13.8862533"><ele>180.0</ele><time>2026-04-06T16:01:26.605Z</time></trkpt><trkpt lat="37.8635634" lon="13.8858693"><ele>177.0</ele><time>2026-04-06T16:01:27.606Z</time></trkpt><trkpt lat="37.8635947" lon="13.8854858"><ele>177.0</ele><time>2026-04-06T16:01:28.605Z</time></trkpt><trkpt lat="37.8636277" lon="13.885104"><ele>177.0</ele><time>2026-04-06T16:01:29.605Z</time></trkpt><trkpt lat="37.8636657" lon="13.8847192"><ele>176.0</ele><time>2026-04-06T16:01:30.605Z</time></trkpt><trkpt lat="37.863702" lon="13.8843398"><ele>175.0</ele><time>2026-04-06T16:01:31.606Z</time></trkpt><trkpt lat="37.863727" lon="13.8839574"><ele>175.0</ele><time>2026-04-06T16:01:32.605Z</time></trkpt><trkpt lat="37.8637318" lon="13.8835793"><ele>175.0</ele><time>2026-04-06T16:01:33.605Z</time></trkpt><trkpt lat="37.8637182" lon="13.8831994"><ele>164.5</ele><time>2026-04-06T16:01:34.605Z</time></trkpt><trkpt lat="37.8636815" lon="13.88282"><ele>154.0</ele><time>2026-04-06T16:01:35.605Z</time></trkpt><trkpt lat="37.8636276" lon="13.8824419"><ele>152.0</ele><time>2026-04-06T16:01:36.605Z</time></trkpt><trkpt lat="37.8635608" lon="13.8820652"><ele>150.0</ele><time>2026-04-06T16:01:37.605Z</time></trkpt><trkpt lat="37.8634971" lon="13.881691"><ele>149.5</ele><time>2026-04-06T16:01:38.605Z</time></trkpt><trkpt lat="37.863445" lon="13.8813104"><ele>149.0</ele><time>2026-04-06T16:01:39.605Z</time></trkpt><trkpt lat="37.8634014" lon="13.8809313"><ele>149.0</ele><time>2026-04-06T16:01:40.605Z</time></trkpt><trkpt lat="37.8633766" lon="13.8805765"><ele>149.0</ele><time>2026-04-06T16:01:41.605Z</time></trkpt><trkpt lat="37.8633712" lon="13.8802417"><ele>150.5</ele><time>2026-04-06T16:01:42.605Z</time></trkpt><trkpt lat="37.8633779" lon="13.8799214"><ele>152.0</ele><time>2026-04-06T16:01:43.605Z</time></trkpt><trkpt lat="37.8633918" lon="13.8796169"><ele>152.0</ele><time>2026-04-06T16:01:44.605Z</time></trkpt><trkpt lat="37.8634163" lon="13.8793252"><ele>152.0</ele><time>2026-04-06T16:01:45.605Z</time></trkpt><trkpt lat="37.8634479" lon="13.8790389"><ele>157.0</ele><time>2026-04-06T16:01:46.606Z</time></trkpt><trkpt lat="37.863491" lon="13.8787495"><ele>162.0</ele><time>2026-04-06T16:01:47.605Z</time></trkpt><trkpt lat="37.8635441" lon="13.8784656"><ele>160.0</ele><time>2026-04-06T16:01:48.605Z</time></trkpt><trkpt lat="37.8636103" lon="13.8781897"><ele>158.0</ele><time>2026-04-06T16:01:49.605Z</time></trkpt><trkpt lat="37.8636758" lon="13.8779248"><ele>156.0</ele><time>2026-04-06T16:01:50.605Z</time></trkpt><trkpt lat="37.8637446" lon="13.8776642"><ele>153.66666666666666</ele><time>2026-04-06T16:01:51.605Z</time></trkpt><trkpt lat="37.8638113" lon="13.8774065"><ele>151.33333333333331</ele><time>2026-04-06T16:01:52.606Z</time></trkpt><trkpt lat="37.8638757" lon="13.8771473"><ele>149.0</ele><time>2026-04-06T16:01:53.612Z</time></trkpt><trkpt lat="37.8639405" lon="13.8768843"><ele>148.0</ele><time>2026-04-06T16:01:54.612Z</time></trkpt><trkpt lat="37.8640034" lon="13.876622"><ele>147.0</ele><time>2026-04-06T16:01:55.612Z</time></trkpt><trkpt lat="37.8640716" lon="13.876356"><ele>146.0</ele><time>2026-04-06T16:01:56.612Z</time></trkpt><trkpt lat="37.8641426" lon="13.8760759"><ele>144.0</ele><time>2026-04-06T16:01:57.612Z</time></trkpt><trkpt lat="37.8642192" lon="13.8757841"><ele>142.0</ele><time>2026-04-06T16:01:58.612Z</time></trkpt><trkpt lat="37.864301" lon="13.8754767"><ele>144.5</ele><time>2026-04-06T16:01:59.612Z</time></trkpt><trkpt lat="37.8643878" lon="13.8751531"><ele>147.0</ele><time>2026-04-06T16:02:00.612Z</time></trkpt><trkpt lat="37.864478" lon="13.8748163"><ele>147.0</ele><time>2026-04-06T16:02:01.613Z</time></trkpt><trkpt lat="37.8645762" lon="13.8744719"><ele>147.0</ele><time>2026-04-06T16:02:02.612Z</time></trkpt><trkpt lat="37.8646787" lon="13.8741257"><ele>145.0</ele><time>2026-04-06T16:02:03.612Z</time></trkpt><trkpt lat="37.8647914" lon="13.8737835"><ele>143.0</ele><time>2026-04-06T16:02:04.613Z</time></trkpt><trkpt lat="37.8649193" lon="13.8734505"><ele>141.0</ele><time>2026-04-06T16:02:05.612Z</time></trkpt><trkpt lat="37.8650593" lon="13.8731158"><ele>139.0</ele><time>2026-04-06T16:02:06.613Z</time></trkpt><trkpt lat="37.8652075" lon="13.8727832"><ele>141.5</ele><time>2026-04-06T16:02:07.612Z</time></trkpt><trkpt lat="37.8653586" lon="13.8724483"><ele>144.0</ele><time>2026-04-06T16:02:08.612Z</time></trkpt><trkpt lat="37.8655158" lon="13.8721135"><ele>144.0</ele><time>2026-04-06T16:02:09.612Z</time></trkpt><trkpt lat="37.8656779" lon="13.8717823"><ele>144.0</ele><time>2026-04-06T16:02:10.612Z</time></trkpt><trkpt lat="37.8658394" lon="13.8714566"><ele>147.0</ele><time>2026-04-06T16:02:11.612Z</time></trkpt><trkpt lat="37.8660024" lon="13.87113"><ele>150.0</ele><time>2026-04-06T16:02:12.613Z</time></trkpt><trkpt lat="37.8661609" lon="13.8707988"><ele>150.0</ele><time>2026-04-06T16:02:13.612Z</time></trkpt><trkpt lat="37.8663228" lon="13.8704707"><ele>150.0</ele><time>2026-04-06T16:02:14.612Z</time></trkpt><trkpt lat="37.8664896" lon="13.8701524"><ele>144.0</ele><time>2026-04-06T16:02:15.612Z</time></trkpt><trkpt lat="37.8666726" lon="13.8698381"><ele>138.0</ele><time>2026-04-06T16:02:16.612Z</time></trkpt><trkpt lat="37.8668617" lon="13.8695332"><ele>143.5</ele><time>2026-04-06T16:02:17.612Z</time></trkpt><trkpt lat="37.8670603" lon="13.8692375"><ele>149.0</ele><time>2026-04-06T16:02:18.612Z</time></trkpt><trkpt lat="37.867265" lon="13.8689536"><ele>149.0</ele><time>2026-04-06T16:02:19.612Z</time></trkpt><trkpt lat="37.8674797" lon="13.8686775"><ele>149.0</ele><time>2026-04-06T16:02:20.612Z</time></trkpt><trkpt lat="37.8676903" lon="13.8684079"><ele>149.0</ele><time>2026-04-06T16:02:21.612Z</time></trkpt><trkpt lat="37.8679042" lon="13.8681363"><ele>149.0</ele><time>2026-04-06T16:02:22.612Z</time></trkpt><trkpt lat="37.8681184" lon="13.8678627"><ele>141.5</ele><time>2026-04-06T16:02:23.613Z</time></trkpt><trkpt lat="37.8683304" lon="13.8675881"><ele>134.0</ele><time>2026-04-06T16:02:24.612Z</time></trkpt><trkpt lat="37.8685461" lon="13.8673146"><ele>134.0</ele><time>2026-04-06T16:02:25.613Z</time></trkpt><trkpt lat="37.8687719" lon="13.867056"><ele>134.0</ele><time>2026-04-06T16:02:26.613Z</time></trkpt><trkpt lat="37.869013" lon="13.8668135"><ele>129.0</ele><time>2026-04-06T16:02:27.612Z</time></trkpt><trkpt lat="37.8692625" lon="13.8666018"><ele>124.0</ele><time>2026-04-06T16:02:28.612Z</time></trkpt><trkpt lat="37.8695252" lon="13.8664135"><ele>121.0</ele><time>2026-04-06T16:02:29.613Z</time></trkpt><trkpt lat="37.8698013" lon="13.8662457"><ele>118.0</ele><time>2026-04-06T16:02:30.612Z</time></trkpt><trkpt lat="37.8700823" lon="13.8660931"><ele>116.5</ele><time>2026-04-06T16:02:31.613Z</time></trkpt><trkpt lat="37.8703658" lon="13.8659517"><ele>115.0</ele><time>2026-04-06T16:02:32.612Z</time></trkpt><trkpt lat="37.8706531" lon="13.8658224"><ele>115.5</ele><time>2026-04-06T16:02:33.612Z</time></trkpt><trkpt lat="37.8709503" lon="13.8657181"><ele>116.0</ele><time>2026-04-06T16:02:34.612Z</time></trkpt><trkpt lat="37.8712549" lon="13.8656368"><ele>116.0</ele><time>2026-04-06T16:02:35.613Z</time></trkpt><trkpt lat="37.8715567" lon="13.8655836"><ele>116.0</ele><time>2026-04-06T16:02:36.612Z</time></trkpt><trkpt lat="37.8718562" lon="13.8655513"><ele>119.0</ele><time>2026-04-06T16:02:37.613Z</time></trkpt><trkpt lat="37.8721626" lon="13.8655381"><ele>122.0</ele><time>2026-04-06T16:02:38.612Z</time></trkpt><trkpt lat="37.8724654" lon="13.8655449"><ele>125.5</ele><time>2026-04-06T16:02:39.612Z</time></trkpt><trkpt lat="37.8727687" lon="13.8655789"><ele>129.0</ele><time>2026-04-06T16:02:40.612Z</time></trkpt><trkpt lat="37.8730676" lon="13.8656245"><ele>129.0</ele><time>2026-04-06T16:02:41.612Z</time></trkpt><trkpt lat="37.8733707" lon="13.8656705"><ele>129.0</ele><time>2026-04-06T16:02:42.613Z</time></trkpt><trkpt lat="37.8736764" lon="13.8657044"><ele>129.5</ele><time>2026-04-06T16:02:43.613Z</time></trkpt><trkpt lat="37.8739816" lon="13.865743"><ele>130.0</ele><time>2026-04-06T16:02:44.613Z</time></trkpt><trkpt lat="37.8742873" lon="13.865783"><ele>129.0</ele><time>2026-04-06T16:02:45.612Z</time></trkpt><trkpt lat="37.8745889" lon="13.8658257"><ele>128.0</ele><time>2026-04-06T16:02:46.612Z</time></trkpt><trkpt lat="37.8748918" lon="13.865864"><ele>128.0</ele><time>2026-04-06T16:02:47.612Z</time></trkpt><trkpt lat="37.8751933" lon="13.8658984"><ele>128.0</ele><time>2026-04-06T16:02:48.612Z</time></trkpt><trkpt lat="37.8754944" lon="13.8659238"><ele>128.0</ele><time>2026-04-06T16:02:49.612Z</time></trkpt><trkpt lat="37.8758016" lon="13.8659304"><ele>128.0</ele><time>2026-04-06T16:02:50.612Z</time></trkpt><trkpt lat="37.8761087" lon="13.8659144"><ele>125.0</ele><time>2026-04-06T16:02:51.612Z</time></trkpt><trkpt lat="37.8764154" lon="13.8658909"><ele>122.0</ele><time>2026-04-06T16:02:52.612Z</time></trkpt><trkpt lat="37.8767194" lon="13.8658543"><ele>118.0</ele><time>2026-04-06T16:02:53.612Z</time></trkpt><trkpt lat="37.8770208" lon="13.8658077"><ele>114.0</ele><time>2026-04-06T16:02:54.612Z</time></trkpt><trkpt lat="37.8773258" lon="13.8657503"><ele>112.0</ele><time>2026-04-06T16:02:55.613Z</time></trkpt><trkpt lat="37.8776254" lon="13.8656833"><ele>110.0</ele><time>2026-04-06T16:02:56.613Z</time></trkpt><trkpt lat="37.8779256" lon="13.8656108"><ele>110.0</ele><time>2026-04-06T16:02:57.613Z</time></trkpt><trkpt lat="37.8782277" lon="13.8655387"><ele>110.0</ele><time>2026-04-06T16:02:58.612Z</time></trkpt><trkpt lat="37.8785297" lon="13.8654748"><ele>108.5</ele><time>2026-04-06T16:02:59.613Z</time></trkpt><trkpt lat="37.878829" lon="13.8654074"><ele>107.0</ele><time>2026-04-06T16:03:00.613Z</time></trkpt><trkpt lat="37.879129" lon="13.8653459"><ele>107.0</ele><time>2026-04-06T16:03:01.613Z</time></trkpt><trkpt lat="37.8794288" lon="13.8652804"><ele>107.0</ele><time>2026-04-06T16:03:02.612Z</time></trkpt><trkpt lat="37.8797289" lon="13.8652106"><ele>107.0</ele><time>2026-04-06T16:03:03.612Z</time></trkpt><trkpt lat="37.8800258" lon="13.8651401"><ele>107.0</ele><time>2026-04-06T16:03:04.612Z</time></trkpt><trkpt lat="37.8803262" lon="13.8650681"><ele>105.5</ele><time>2026-04-06T16:03:05.613Z</time></trkpt><trkpt lat="37.8806248" lon="13.8649942"><ele>104.0</ele><time>2026-04-06T16:03:06.613Z</time></trkpt><trkpt lat="37.8809225" lon="13.8649204"><ele>103.0</ele><time>2026-04-06T16:03:07.613Z</time></trkpt><trkpt lat="37.8812226" lon="13.8648427"><ele>102.0</ele><time>2026-04-06T16:03:08.613Z</time></trkpt><trkpt lat="37.8815223" lon="13.8647662"><ele>101.5</ele><time>2026-04-06T16:03:09.612Z</time></trkpt><trkpt lat="37.8818231" lon="13.8646834"><ele>101.0</ele><time>2026-04-06T16:03:10.612Z</time></trkpt><trkpt lat="37.8821212" lon="13.8645937"><ele>101.0</ele><time>2026-04-06T16:03:11.612Z</time></trkpt><trkpt lat="37.8824164" lon="13.8644944"><ele>101.0</ele><time>2026-04-06T16:03:12.612Z</time></trkpt><trkpt lat="37.8827106" lon="13.8643906"><ele>100.5</ele><time>2026-04-06T16:03:13.613Z</time></trkpt><trkpt lat="37.8830021" lon="13.8642769"><ele>100.0</ele><time>2026-04-06T16:03:14.612Z</time></trkpt><trkpt lat="37.8832916" lon="13.8641605"><ele>99.0</ele><time>2026-04-06T16:03:15.612Z</time></trkpt><trkpt lat="37.8835827" lon="13.8640434"><ele>98.0</ele><time>2026-04-06T16:03:16.612Z</time></trkpt><trkpt lat="37.8838709" lon="13.863925"><ele>98.0</ele><time>2026-04-06T16:03:17.613Z</time></trkpt><trkpt lat="37.8841591" lon="13.8638008"><ele>98.0</ele><time>2026-04-06T16:03:18.612Z</time></trkpt><trkpt lat="37.8844454" lon="13.8636736"><ele>98.0</ele><time>2026-04-06T16:03:19.613Z</time></trkpt><trkpt lat="37.8847342" lon="13.863544"><ele>98.0</ele><time>2026-04-06T16:03:20.613Z</time></trkpt><trkpt lat="37.8850215" lon="13.863414"><ele>98.0</ele><time>2026-04-06T16:03:21.613Z</time></trkpt><trkpt lat="37.8853091" lon="13.8632886"><ele>98.0</ele><time>2026-04-06T16:03:22.612Z</time></trkpt><trkpt lat="37.8855985" lon="13.8631632"><ele>98.0</ele><time>2026-04-06T16:03:23.612Z</time></trkpt><trkpt lat="37.8858854" lon="13.8630338"><ele>98.0</ele><time>2026-04-06T16:03:24.613Z</time></trkpt><trkpt lat="37.8861734" lon="13.8629064"><ele>96.5</ele><time>2026-04-06T16:03:25.612Z</time></trkpt><trkpt lat="37.8864617" lon="13.8627779"><ele>95.0</ele><time>2026-04-06T16:03:26.612Z</time></trkpt><trkpt lat="37.8867487" lon="13.8626488"><ele>96.5</ele><time>2026-04-06T16:03:27.612Z</time></trkpt><trkpt lat="37.8870378" lon="13.8625208"><ele>98.0</ele><time>2026-04-06T16:03:28.612Z</time></trkpt><trkpt lat="37.8873279" lon="13.8623987"><ele>96.5</ele><time>2026-04-06T16:03:29.612Z</time></trkpt><trkpt lat="37.8876175" lon="13.86228"><ele>95.0</ele><time>2026-04-06T16:03:30.612Z</time></trkpt><trkpt lat="37.8879105" lon="13.8621698"><ele>95.0</ele><time>2026-04-06T16:03:31.612Z</time></trkpt><trkpt lat="37.8882027" lon="13.862069"><ele>95.0</ele><time>2026-04-06T16:03:32.613Z</time></trkpt><trkpt lat="37.8884985" lon="13.8619638"><ele>94.5</ele><time>2026-04-06T16:03:33.612Z</time></trkpt><trkpt lat="37.8887927" lon="13.8618618"><ele>94.0</ele><time>2026-04-06T16:03:34.612Z</time></trkpt><trkpt lat="37.8890858" lon="13.8617591"><ele>94.5</ele><time>2026-04-06T16:03:35.613Z</time></trkpt><trkpt lat="37.8893808" lon="13.861654"><ele>95.0</ele><time>2026-04-06T16:03:36.612Z</time></trkpt><trkpt lat="37.8896749" lon="13.8615494"><ele>95.0</ele><time>2026-04-06T16:03:37.612Z</time></trkpt><trkpt lat="37.8899706" lon="13.8614461"><ele>95.0</ele><time>2026-04-06T16:03:38.612Z</time></trkpt><trkpt lat="37.8902648" lon="13.8613482"><ele>93.5</ele><time>2026-04-06T16:03:39.612Z</time></trkpt><trkpt lat="37.8905593" lon="13.861246"><ele>92.0</ele><time>2026-04-06T16:03:40.614Z</time></trkpt><trkpt lat="37.8908564" lon="13.8611465"><ele>91.0</ele><time>2026-04-06T16:03:41.613Z</time></trkpt><trkpt lat="37.8911505" lon="13.8610391"><ele>90.0</ele><time>2026-04-06T16:03:42.613Z</time></trkpt><trkpt lat="37.8914426" lon="13.860934"><ele>90.0</ele><time>2026-04-06T16:03:43.613Z</time></trkpt><trkpt lat="37.8917372" lon="13.8608276"><ele>90.0</ele><time>2026-04-06T16:03:44.613Z</time></trkpt><trkpt lat="37.8920319" lon="13.860724"><ele>89.0</ele><time>2026-04-06T16:03:45.613Z</time></trkpt><trkpt lat="37.8923272" lon="13.8606187"><ele>88.0</ele><time>2026-04-06T16:03:46.613Z</time></trkpt><trkpt lat="37.8926211" lon="13.8605175"><ele>88.0</ele><time>2026-04-06T16:03:47.613Z</time></trkpt><trkpt lat="37.892918" lon="13.8604153"><ele>88.0</ele><time>2026-04-06T16:03:48.613Z</time></trkpt><trkpt lat="37.8932117" lon="13.8603073"><ele>88.0</ele><time>2026-04-06T16:03:49.613Z</time></trkpt><trkpt lat="37.8935063" lon="13.8602023"><ele>88.0</ele><time>2026-04-06T16:03:50.613Z</time></trkpt><trkpt lat="37.8937983" lon="13.8600948"><ele>88.0</ele><time>2026-04-06T16:03:51.613Z</time></trkpt><trkpt lat="37.8940921" lon="13.8599868"><ele>88.0</ele><time>2026-04-06T16:03:52.614Z</time></trkpt><trkpt lat="37.8943827" lon="13.8598776"><ele>88.5</ele><time>2026-04-06T16:03:53.613Z</time></trkpt><trkpt lat="37.8946748" lon="13.8597703"><ele>89.0</ele><time>2026-04-06T16:03:54.614Z</time></trkpt><trkpt lat="37.8949696" lon="13.8596693"><ele>87.5</ele><time>2026-04-06T16:03:55.613Z</time></trkpt><trkpt lat="37.8952658" lon="13.8595689"><ele>86.0</ele><time>2026-04-06T16:03:56.613Z</time></trkpt><trkpt lat="37.8955601" lon="13.8594704"><ele>86.0</ele><time>2026-04-06T16:03:57.613Z</time></trkpt><trkpt lat="37.8958545" lon="13.8593673"><ele>86.0</ele><time>2026-04-06T16:03:58.614Z</time></trkpt><trkpt lat="37.8961508" lon="13.859266"><ele>88.0</ele><time>2026-04-06T16:03:59.613Z</time></trkpt><trkpt lat="37.8964462" lon="13.859168"><ele>90.0</ele><time>2026-04-06T16:04:00.613Z</time></trkpt><trkpt lat="37.8967429" lon="13.8590724"><ele>87.5</ele><time>2026-04-06T16:04:01.613Z</time></trkpt><trkpt lat="37.8970415" lon="13.8589856"><ele>85.0</ele><time>2026-04-06T16:04:02.613Z</time></trkpt><trkpt lat="37.8973369" lon="13.8588931"><ele>84.0</ele><time>2026-04-06T16:04:03.613Z</time></trkpt><trkpt lat="37.8976332" lon="13.8587949"><ele>83.0</ele><time>2026-04-06T16:04:04.613Z</time></trkpt><trkpt lat="37.8979236" lon="13.8586954"><ele>83.0</ele><time>2026-04-06T16:04:05.613Z</time></trkpt><trkpt lat="37.8982154" lon="13.8585941"><ele>83.0</ele><time>2026-04-06T16:04:06.613Z</time></trkpt><trkpt lat="37.8985102" lon="13.8584872"><ele>83.5</ele><time>2026-04-06T16:04:07.613Z</time></trkpt><trkpt lat="37.8988051" lon="13.8583867"><ele>84.0</ele><time>2026-04-06T16:04:08.613Z</time></trkpt><trkpt lat="37.8990992" lon="13.8582814"><ele>82.5</ele><time>2026-04-06T16:04:09.613Z</time></trkpt><trkpt lat="37.8993952" lon="13.8581796"><ele>81.0</ele><time>2026-04-06T16:04:10.614Z</time></trkpt><trkpt lat="37.899689" lon="13.8580766"><ele>81.0</ele><time>2026-04-06T16:04:11.613Z</time></trkpt><trkpt lat="37.8999837" lon="13.8579714"><ele>81.0</ele><time>2026-04-06T16:04:12.613Z</time></trkpt><trkpt lat="37.9002781" lon="13.8578659"><ele>82.0</ele><time>2026-04-06T16:04:13.613Z</time></trkpt><trkpt lat="37.9005713" lon="13.857754"><ele>83.0</ele><time>2026-04-06T16:04:14.613Z</time></trkpt><trkpt lat="37.9008594" lon="13.857628"><ele>83.5</ele><time>2026-04-06T16:04:15.613Z</time></trkpt><trkpt lat="37.9011416" lon="13.8574885"><ele>84.0</ele><time>2026-04-06T16:04:16.613Z</time></trkpt><trkpt lat="37.9014234" lon="13.8573372"><ele>84.0</ele><time>2026-04-06T16:04:17.613Z</time></trkpt><trkpt lat="37.9017005" lon="13.857179"><ele>84.0</ele><time>2026-04-06T16:04:18.613Z</time></trkpt><trkpt lat="37.9019772" lon="13.8570144"><ele>83.0</ele><time>2026-04-06T16:04:19.613Z</time></trkpt><trkpt lat="37.9022525" lon="13.8568477"><ele>82.0</ele><time>2026-04-06T16:04:20.613Z</time></trkpt><trkpt lat="37.9025268" lon="13.8566822"><ele>80.0</ele><time>2026-04-06T16:04:21.613Z</time></trkpt><trkpt lat="37.9028008" lon="13.8565073"><ele>78.0</ele><time>2026-04-06T16:04:22.613Z</time></trkpt><trkpt lat="37.9030762" lon="13.8563374"><ele>78.0</ele><time>2026-04-06T16:04:23.613Z</time></trkpt><trkpt lat="37.9033543" lon="13.8561693"><ele>78.0</ele><time>2026-04-06T16:04:24.613Z</time></trkpt><trkpt lat="37.9036307" lon="13.8559999"><ele>77.0</ele><time>2026-04-06T16:04:25.614Z</time></trkpt><trkpt lat="37.9039058" lon="13.8558343"><ele>76.0</ele><time>2026-04-06T16:04:26.613Z</time></trkpt><trkpt lat="37.904182" lon="13.8556639"><ele>76.0</ele><time>2026-04-06T16:04:27.614Z</time></trkpt><trkpt lat="37.9044569" lon="13.8554955"><ele>76.0</ele><time>2026-04-06T16:04:28.613Z</time></trkpt><trkpt lat="37.9047302" lon="13.8553285"><ele>76.0</ele><time>2026-04-06T16:04:29.613Z</time></trkpt><trkpt lat="37.9050105" lon="13.8551714"><ele>76.0</ele><time>2026-04-06T16:04:30.613Z</time></trkpt><trkpt lat="37.9052951" lon="13.8550318"><ele>75.0</ele><time>2026-04-06T16:04:31.613Z</time></trkpt><trkpt lat="37.9055803" lon="13.8549143"><ele>74.0</ele><time>2026-04-06T16:04:32.613Z</time></trkpt><trkpt lat="37.9058782" lon="13.8548254"><ele>74.0</ele><time>2026-04-06T16:04:33.613Z</time></trkpt><trkpt lat="37.9061757" lon="13.8547487"><ele>74.0</ele><time>2026-04-06T16:04:34.613Z</time></trkpt><trkpt lat="37.9064785" lon="13.8546965"><ele>73.5</ele><time>2026-04-06T16:04:35.613Z</time></trkpt><trkpt lat="37.9067813" lon="13.8546618"><ele>73.0</ele><time>2026-04-06T16:04:36.613Z</time></trkpt><trkpt lat="37.9070842" lon="13.8546541"><ele>73.0</ele><time>2026-04-06T16:04:37.613Z</time></trkpt><trkpt lat="37.9073855" lon="13.8546684"><ele>73.0</ele><time>2026-04-06T16:04:38.613Z</time></trkpt><trkpt lat="37.9076854" lon="13.8547003"><ele>76.0</ele><time>2026-04-06T16:04:39.613Z</time></trkpt><trkpt lat="37.9079877" lon="13.8547575"><ele>79.0</ele><time>2026-04-06T16:04:40.614Z</time></trkpt><trkpt lat="37.9082898" lon="13.8548359"><ele>83.0</ele><time>2026-04-06T16:04:41.613Z</time></trkpt><trkpt lat="37.9085866" lon="13.85493"><ele>87.0</ele><time>2026-04-06T16:04:42.614Z</time></trkpt><trkpt lat="37.9088775" lon="13.8550461"><ele>83.0</ele><time>2026-04-06T16:04:43.613Z</time></trkpt><trkpt lat="37.9091643" lon="13.8551746"><ele>79.0</ele><time>2026-04-06T16:04:44.613Z</time></trkpt><trkpt lat="37.9094518" lon="13.855308"><ele>79.0</ele><time>2026-04-06T16:04:45.613Z</time></trkpt><trkpt lat="37.909741" lon="13.8554353"><ele>79.0</ele><time>2026-04-06T16:04:46.613Z</time></trkpt><trkpt lat="37.9100315" lon="13.8555594"><ele>77.5</ele><time>2026-04-06T16:04:47.613Z</time></trkpt><trkpt lat="37.910319" lon="13.8556893"><ele>76.0</ele><time>2026-04-06T16:04:48.614Z</time></trkpt><trkpt lat="37.9106108" lon="13.8558163"><ele>76.0</ele><time>2026-04-06T16:04:49.614Z</time></trkpt><trkpt lat="37.9109045" lon="13.8559365"><ele>76.0</ele><time>2026-04-06T16:04:50.613Z</time></trkpt><trkpt lat="37.911202" lon="13.8560381"><ele>73.0</ele><time>2026-04-06T16:04:51.613Z</time></trkpt><trkpt lat="37.9114985" lon="13.8561292"><ele>70.0</ele><time>2026-04-06T16:04:52.613Z</time></trkpt><trkpt lat="37.9117991" lon="13.856204"><ele>68.0</ele><time>2026-04-06T16:04:53.613Z</time></trkpt><trkpt lat="37.9120995" lon="13.8562618"><ele>66.0</ele><time>2026-04-06T16:04:54.613Z</time></trkpt><trkpt lat="37.9123997" lon="13.8563188"><ele>68.5</ele><time>2026-04-06T16:04:55.613Z</time></trkpt><trkpt lat="37.9127013" lon="13.8563868"><ele>71.0</ele><time>2026-04-06T16:04:56.613Z</time></trkpt><trkpt lat="37.9130017" lon="13.8564421"><ele>71.0</ele><time>2026-04-06T16:04:57.614Z</time></trkpt><trkpt lat="37.9133055" lon="13.8565035"><ele>71.0</ele><time>2026-04-06T16:04:58.614Z</time></trkpt><trkpt lat="37.9136083" lon="13.8565696"><ele>71.0</ele><time>2026-04-06T16:04:59.614Z</time></trkpt><trkpt lat="37.9139112" lon="13.8566322"><ele>71.0</ele><time>2026-04-06T16:05:00.613Z</time></trkpt><trkpt lat="37.914216" lon="13.8566934"><ele>70.5</ele><time>2026-04-06T16:05:01.613Z</time></trkpt><trkpt lat="37.9145174" lon="13.8567607"><ele>70.0</ele><time>2026-04-06T16:05:02.613Z</time></trkpt><trkpt lat="37.9148169" lon="13.8568373"><ele>66.5</ele><time>2026-04-06T16:05:03.613Z</time></trkpt><trkpt lat="37.9151141" lon="13.8569145"><ele>63.0</ele><time>2026-04-06T16:05:04.613Z</time></trkpt><trkpt lat="37.9154163" lon="13.856978"><ele>63.0</ele><time>2026-04-06T16:05:05.614Z</time></trkpt><trkpt lat="37.915717" lon="13.8570346"><ele>63.0</ele><time>2026-04-06T16:05:06.614Z</time></trkpt><trkpt lat="37.9160167" lon="13.857086"><ele>62.0</ele><time>2026-04-06T16:05:07.613Z</time></trkpt><trkpt lat="37.9163191" lon="13.8571252"><ele>61.0</ele><time>2026-04-06T16:05:08.613Z</time></trkpt><trkpt lat="37.9166261" lon="13.8571469"><ele>62.0</ele><time>2026-04-06T16:05:09.614Z</time></trkpt><trkpt lat="37.9169308" lon="13.8571492"><ele>63.0</ele><time>2026-04-06T16:05:10.613Z</time></trkpt><trkpt lat="37.9172353" lon="13.8571444"><ele>63.0</ele><time>2026-04-06T16:05:11.613Z</time></trkpt><trkpt lat="37.917536" lon="13.8571278"><ele>63.0</ele><time>2026-04-06T16:05:12.613Z</time></trkpt><trkpt lat="37.9178412" lon="13.8570975"><ele>62.0</ele><time>2026-04-06T16:05:13.613Z</time></trkpt><trkpt lat="37.918142" lon="13.8570559"><ele>61.0</ele><time>2026-04-06T16:05:14.613Z</time></trkpt><trkpt lat="37.9184455" lon="13.8570025"><ele>60.5</ele><time>2026-04-06T16:05:15.613Z</time></trkpt><trkpt lat="37.918744" lon="13.8569286"><ele>60.0</ele><time>2026-04-06T16:05:16.613Z</time></trkpt><trkpt lat="37.919042" lon="13.8568481"><ele>60.0</ele><time>2026-04-06T16:05:17.614Z</time></trkpt><trkpt lat="37.9193363" lon="13.8567552"><ele>60.0</ele><time>2026-04-06T16:05:18.613Z</time></trkpt><trkpt lat="37.9196292" lon="13.8566535"><ele>60.0</ele><time>2026-04-06T16:05:19.614Z</time></trkpt><trkpt lat="37.9199163" lon="13.8565388"><ele>60.0</ele><time>2026-04-06T16:05:20.614Z</time></trkpt><trkpt lat="37.9202026" lon="13.8564069"><ele>59.0</ele><time>2026-04-06T16:05:21.613Z</time></trkpt><trkpt lat="37.9204877" lon="13.8562675"><ele>58.0</ele><time>2026-04-06T16:05:22.613Z</time></trkpt><trkpt lat="37.920768" lon="13.8561211"><ele>58.0</ele><time>2026-04-06T16:05:23.613Z</time></trkpt><trkpt lat="37.9210496" lon="13.8559721"><ele>58.0</ele><time>2026-04-06T16:05:24.613Z</time></trkpt><trkpt lat="37.9213329" lon="13.8558192"><ele>58.0</ele><time>2026-04-06T16:05:25.613Z</time></trkpt><trkpt lat="37.9216186" lon="13.8556739"><ele>58.0</ele><time>2026-04-06T16:05:26.613Z</time></trkpt><trkpt lat="37.9218999" lon="13.8555269"><ele>57.0</ele><time>2026-04-06T16:05:27.614Z</time></trkpt><trkpt lat="37.9221833" lon="13.8553774"><ele>56.0</ele><time>2026-04-06T16:05:28.613Z</time></trkpt><trkpt lat="37.9224647" lon="13.8552269"><ele>55.0</ele><time>2026-04-06T16:05:29.613Z</time></trkpt><trkpt lat="37.9227473" lon="13.8550777"><ele>54.0</ele><time>2026-04-06T16:05:30.614Z</time></trkpt><trkpt lat="37.9230281" lon="13.8549312"><ele>54.0</ele><time>2026-04-06T16:05:31.613Z</time></trkpt><trkpt lat="37.9233099" lon="13.8547891"><ele>54.0</ele><time>2026-04-06T16:05:32.613Z</time></trkpt><trkpt lat="37.9235914" lon="13.8546441"><ele>54.5</ele><time>2026-04-06T16:05:33.613Z</time></trkpt><trkpt lat="37.9238759" lon="13.8544999"><ele>55.0</ele><time>2026-04-06T16:05:34.613Z</time></trkpt><trkpt lat="37.9241606" lon="13.8543554"><ele>55.0</ele><time>2026-04-06T16:05:35.613Z</time></trkpt><trkpt lat="37.9244403" lon="13.8542073"><ele>55.0</ele><time>2026-04-06T16:05:36.613Z</time></trkpt><trkpt lat="37.9247228" lon="13.8540598"><ele>55.0</ele><time>2026-04-06T16:05:37.613Z</time></trkpt><trkpt lat="37.9250078" lon="13.8539119"><ele>55.0</ele><time>2026-04-06T16:05:38.613Z</time></trkpt><trkpt lat="37.9252905" lon="13.853764"><ele>55.0</ele><time>2026-04-06T16:05:39.613Z</time></trkpt><trkpt lat="37.9255738" lon="13.8536174"><ele>55.0</ele><time>2026-04-06T16:05:40.613Z</time></trkpt><trkpt lat="37.925857" lon="13.8534716"><ele>53.0</ele><time>2026-04-06T16:05:41.613Z</time></trkpt><trkpt lat="37.9261403" lon="13.8533272"><ele>51.0</ele><time>2026-04-06T16:05:42.613Z</time></trkpt><trkpt lat="37.9264236" lon="13.853182"><ele>51.0</ele><time>2026-04-06T16:05:43.614Z</time></trkpt><trkpt lat="37.9267101" lon="13.8530399"><ele>51.0</ele><time>2026-04-06T16:05:44.613Z</time></trkpt><trkpt lat="37.926993" lon="13.8528922"><ele>51.0</ele><time>2026-04-06T16:05:45.613Z</time></trkpt><trkpt lat="37.927273" lon="13.8527456"><ele>51.0</ele><time>2026-04-06T16:05:46.613Z</time></trkpt><trkpt lat="37.9275541" lon="13.8526012"><ele>51.5</ele><time>2026-04-06T16:05:47.613Z</time></trkpt><trkpt lat="37.9278382" lon="13.8524566"><ele>52.0</ele><time>2026-04-06T16:05:48.613Z</time></trkpt><trkpt lat="37.9281225" lon="13.8523111"><ele>52.0</ele><time>2026-04-06T16:05:49.613Z</time></trkpt><trkpt lat="37.9284041" lon="13.8521648"><ele>52.0</ele><time>2026-04-06T16:05:50.614Z</time></trkpt><trkpt lat="37.9286868" lon="13.8520167"><ele>52.0</ele><time>2026-04-06T16:05:51.613Z</time></trkpt><trkpt lat="37.9289691" lon="13.85187"><ele>52.0</ele><time>2026-04-06T16:05:52.613Z</time></trkpt><trkpt lat="37.9292516" lon="13.851725"><ele>51.5</ele><time>2026-04-06T16:05:53.614Z</time></trkpt><trkpt lat="37.9295343" lon="13.8515794"><ele>51.0</ele><time>2026-04-06T16:05:54.614Z</time></trkpt><trkpt lat="37.9298166" lon="13.8514323"><ele>50.0</ele><time>2026-04-06T16:05:55.613Z</time></trkpt><trkpt lat="37.9301008" lon="13.8512852"><ele>49.0</ele><time>2026-04-06T16:05:56.613Z</time></trkpt><trkpt lat="37.9303823" lon="13.851134"><ele>49.0</ele><time>2026-04-06T16:05:57.613Z</time></trkpt><trkpt lat="37.9306638" lon="13.8509892"><ele>49.0</ele><time>2026-04-06T16:05:58.613Z</time></trkpt><trkpt lat="37.9309459" lon="13.8508433"><ele>48.5</ele><time>2026-04-06T16:05:59.613Z</time></trkpt><trkpt lat="37.9312272" lon="13.8506904"><ele>48.0</ele><time>2026-04-06T16:06:00.614Z</time></trkpt><trkpt lat="37.9315028" lon="13.8505196"><ele>47.5</ele><time>2026-04-06T16:06:01.614Z</time></trkpt><trkpt lat="37.9317706" lon="13.8503407"><ele>47.0</ele><time>2026-04-06T16:06:02.613Z</time></trkpt><trkpt lat="37.9320372" lon="13.8501527"><ele>47.0</ele><time>2026-04-06T16:06:03.613Z</time></trkpt><trkpt lat="37.9323011" lon="13.8499645"><ele>47.0</ele><time>2026-04-06T16:06:04.613Z</time></trkpt><trkpt lat="37.9325641" lon="13.8497704"><ele>47.0</ele><time>2026-04-06T16:06:05.613Z</time></trkpt><trkpt lat="37.9328281" lon="13.849571"><ele>47.0</ele><time>2026-04-06T16:06:06.613Z</time></trkpt><trkpt lat="37.9330876" lon="13.8493621"><ele>47.5</ele><time>2026-04-06T16:06:07.614Z</time></trkpt><trkpt lat="37.9333432" lon="13.8491497"><ele>48.0</ele><time>2026-04-06T16:06:08.613Z</time></trkpt><trkpt lat="37.9335979" lon="13.8489404"><ele>46.5</ele><time>2026-04-06T16:06:09.613Z</time></trkpt><trkpt lat="37.9338443" lon="13.8487175"><ele>45.0</ele><time>2026-04-06T16:06:10.613Z</time></trkpt><trkpt lat="37.9340868" lon="13.8484819"><ele>44.5</ele><time>2026-04-06T16:06:11.613Z</time></trkpt><trkpt lat="37.9343223" lon="13.8482374"><ele>44.0</ele><time>2026-04-06T16:06:12.614Z</time></trkpt><trkpt lat="37.9345547" lon="13.8479855"><ele>44.0</ele><time>2026-04-06T16:06:13.613Z</time></trkpt><trkpt lat="37.9347817" lon="13.8477282"><ele>44.0</ele><time>2026-04-06T16:06:14.614Z</time></trkpt><trkpt lat="37.9350073" lon="13.8474658"><ele>43.5</ele><time>2026-04-06T16:06:15.613Z</time></trkpt><trkpt lat="37.9352311" lon="13.8472015"><ele>43.0</ele><time>2026-04-06T16:06:16.614Z</time></trkpt><trkpt lat="37.9354534" lon="13.8469354"><ele>43.0</ele><time>2026-04-06T16:06:17.613Z</time></trkpt><trkpt lat="37.9356686" lon="13.8466657"><ele>43.0</ele><time>2026-04-06T16:06:18.614Z</time></trkpt><trkpt lat="37.9358858" lon="13.8463945"><ele>43.0</ele><time>2026-04-06T16:06:19.613Z</time></trkpt><trkpt lat="37.9361017" lon="13.8461208"><ele>43.0</ele><time>2026-04-06T16:06:20.613Z</time></trkpt><trkpt lat="37.9363228" lon="13.8458545"><ele>43.0</ele><time>2026-04-06T16:06:21.613Z</time></trkpt><trkpt lat="37.9365403" lon="13.8455835"><ele>43.0</ele><time>2026-04-06T16:06:22.614Z</time></trkpt><trkpt lat="37.9367585" lon="13.8453054"><ele>43.0</ele><time>2026-04-06T16:06:23.613Z</time></trkpt><trkpt lat="37.9369759" lon="13.8450275"><ele>43.0</ele><time>2026-04-06T16:06:24.613Z</time></trkpt><trkpt lat="37.9371968" lon="13.8447534"><ele>43.0</ele><time>2026-04-06T16:06:25.613Z</time></trkpt><trkpt lat="37.9374146" lon="13.8444862"><ele>43.0</ele><time>2026-04-06T16:06:26.613Z</time></trkpt><trkpt lat="37.9376353" lon="13.844216"><ele>42.0</ele><time>2026-04-06T16:06:27.613Z</time></trkpt><trkpt lat="37.9378517" lon="13.8439489"><ele>41.0</ele><time>2026-04-06T16:06:28.613Z</time></trkpt><trkpt lat="37.9380694" lon="13.8436804"><ele>41.0</ele><time>2026-04-06T16:06:29.613Z</time></trkpt><trkpt lat="37.9382856" lon="13.843408"><ele>41.0</ele><time>2026-04-06T16:06:30.613Z</time></trkpt><trkpt lat="37.9385046" lon="13.8431406"><ele>40.5</ele><time>2026-04-06T16:06:31.613Z</time></trkpt><trkpt lat="37.9387277" lon="13.8428786"><ele>40.0</ele><time>2026-04-06T16:06:32.613Z</time></trkpt><trkpt lat="37.9389546" lon="13.8426232"><ele>39.5</ele><time>2026-04-06T16:06:33.613Z</time></trkpt><trkpt lat="37.9391855" lon="13.8423715"><ele>39.0</ele><time>2026-04-06T16:06:34.613Z</time></trkpt><trkpt lat="37.9394141" lon="13.8421171"><ele>39.0</ele><time>2026-04-06T16:06:35.613Z</time></trkpt><trkpt lat="37.9396428" lon="13.8418632"><ele>39.0</ele><time>2026-04-06T16:06:36.613Z</time></trkpt><trkpt lat="37.9398722" lon="13.8416055"><ele>39.5</ele><time>2026-04-06T16:06:37.614Z</time></trkpt><trkpt lat="37.9401001" lon="13.8413483"><ele>40.0</ele><time>2026-04-06T16:06:38.613Z</time></trkpt><trkpt lat="37.9403289" lon="13.8410905"><ele>41.5</ele><time>2026-04-06T16:06:39.613Z</time></trkpt><trkpt lat="37.9405583" lon="13.8408362"><ele>43.0</ele><time>2026-04-06T16:06:40.613Z</time></trkpt><trkpt lat="37.9407907" lon="13.8405834"><ele>41.0</ele><time>2026-04-06T16:06:41.614Z</time></trkpt><trkpt lat="37.9410222" lon="13.8403313"><ele>39.0</ele><time>2026-04-06T16:06:42.613Z</time></trkpt><trkpt lat="37.9412513" lon="13.8400738"><ele>39.0</ele><time>2026-04-06T16:06:43.613Z</time></trkpt><trkpt lat="37.9414811" lon="13.8398171"><ele>39.0</ele><time>2026-04-06T16:06:44.613Z</time></trkpt><trkpt lat="37.9417118" lon="13.8395599"><ele>38.5</ele><time>2026-04-06T16:06:45.613Z</time></trkpt><trkpt lat="37.9419435" lon="13.8393037"><ele>38.0</ele><time>2026-04-06T16:06:46.613Z</time></trkpt><trkpt lat="37.9421739" lon="13.8390484"><ele>38.0</ele><time>2026-04-06T16:06:47.613Z</time></trkpt><trkpt lat="37.9423995" lon="13.8387929"><ele>38.0</ele><time>2026-04-06T16:06:48.614Z</time></trkpt><trkpt lat="37.9426299" lon="13.8385404"><ele>36.0</ele><time>2026-04-06T16:06:49.613Z</time></trkpt><trkpt lat="37.9428612" lon="13.8382845"><ele>34.0</ele><time>2026-04-06T16:06:50.613Z</time></trkpt><trkpt lat="37.9430905" lon="13.8380304"><ele>34.0</ele><time>2026-04-06T16:06:51.613Z</time></trkpt><trkpt lat="37.9433176" lon="13.8377736"><ele>34.0</ele><time>2026-04-06T16:06:52.614Z</time></trkpt><trkpt lat="37.9435428" lon="13.8375171"><ele>33.5</ele><time>2026-04-06T16:06:53.613Z</time></trkpt><trkpt lat="37.943773" lon="13.8372586"><ele>33.0</ele><time>2026-04-06T16:06:54.613Z</time></trkpt><trkpt lat="37.9440021" lon="13.8369998"><ele>33.0</ele><time>2026-04-06T16:06:55.614Z</time></trkpt><trkpt lat="37.9442297" lon="13.836746"><ele>33.0</ele><time>2026-04-06T16:06:56.613Z</time></trkpt><trkpt lat="37.9444601" lon="13.8364954"><ele>33.0</ele><time>2026-04-06T16:06:57.614Z</time></trkpt><trkpt lat="37.9446941" lon="13.8362449"><ele>33.0</ele><time>2026-04-06T16:06:58.613Z</time></trkpt><trkpt lat="37.9449296" lon="13.8360014"><ele>32.0</ele><time>2026-04-06T16:06:59.613Z</time></trkpt><trkpt lat="37.9451695" lon="13.8357702"><ele>31.0</ele><time>2026-04-06T16:07:00.613Z</time></trkpt><trkpt lat="37.945415" lon="13.8355464"><ele>31.0</ele><time>2026-04-06T16:07:01.613Z</time></trkpt><trkpt lat="37.9456636" lon="13.8353196"><ele>31.0</ele><time>2026-04-06T16:07:02.613Z</time></trkpt><trkpt lat="37.9459147" lon="13.8351005"><ele>30.0</ele><time>2026-04-06T16:07:03.613Z</time></trkpt><trkpt lat="37.9461667" lon="13.8348882"><ele>29.0</ele><time>2026-04-06T16:07:04.613Z</time></trkpt><trkpt lat="37.9464209" lon="13.8346805"><ele>29.0</ele><time>2026-04-06T16:07:05.614Z</time></trkpt><trkpt lat="37.9466825" lon="13.8344801"><ele>29.0</ele><time>2026-04-06T16:07:06.613Z</time></trkpt><trkpt lat="37.9469464" lon="13.8342866"><ele>29.5</ele><time>2026-04-06T16:07:07.613Z</time></trkpt><trkpt lat="37.9472143" lon="13.8340984"><ele>30.0</ele><time>2026-04-06T16:07:08.614Z</time></trkpt><trkpt lat="37.9474858" lon="13.8339182"><ele>29.5</ele><time>2026-04-06T16:07:09.613Z</time></trkpt><trkpt lat="37.9477612" lon="13.8337413"><ele>29.0</ele><time>2026-04-06T16:07:10.613Z</time></trkpt><trkpt lat="37.9480361" lon="13.8335673"><ele>28.5</ele><time>2026-04-06T16:07:11.613Z</time></trkpt><trkpt lat="37.948311" lon="13.8333953"><ele>28.0</ele><time>2026-04-06T16:07:12.614Z</time></trkpt><trkpt lat="37.9485836" lon="13.8332193"><ele>28.0</ele><time>2026-04-06T16:07:13.613Z</time></trkpt><trkpt lat="37.9488559" lon="13.8330365"><ele>28.0</ele><time>2026-04-06T16:07:14.614Z</time></trkpt><trkpt lat="37.9491249" lon="13.8328591"><ele>28.5</ele><time>2026-04-06T16:07:15.614Z</time></trkpt><trkpt lat="37.949393" lon="13.8326835"><ele>29.0</ele><time>2026-04-06T16:07:16.613Z</time></trkpt><trkpt lat="37.9496651" lon="13.8325121"><ele>29.0</ele><time>2026-04-06T16:07:17.613Z</time></trkpt><trkpt lat="37.9499377" lon="13.8323395"><ele>29.0</ele><time>2026-04-06T16:07:18.613Z</time></trkpt><trkpt lat="37.9502123" lon="13.8321622"><ele>28.0</ele><time>2026-04-06T16:07:19.613Z</time></trkpt><trkpt lat="37.9504865" lon="13.8319863"><ele>27.0</ele><time>2026-04-06T16:07:20.614Z</time></trkpt><trkpt lat="37.950759" lon="13.83181"><ele>27.0</ele><time>2026-04-06T16:07:21.613Z</time></trkpt><trkpt lat="37.9510309" lon="13.8316294"><ele>27.0</ele><time>2026-04-06T16:07:22.613Z</time></trkpt><trkpt lat="37.9513041" lon="13.8314538"><ele>27.0</ele><time>2026-04-06T16:07:23.613Z</time></trkpt><trkpt lat="37.9515739" lon="13.8312778"><ele>27.0</ele><time>2026-04-06T16:07:24.613Z</time></trkpt><trkpt lat="37.9518458" lon="13.8310989"><ele>26.5</ele><time>2026-04-06T16:07:25.613Z</time></trkpt><trkpt lat="37.9521164" lon="13.8309206"><ele>26.0</ele><time>2026-04-06T16:07:26.613Z</time></trkpt><trkpt lat="37.9523894" lon="13.8307463"><ele>25.5</ele><time>2026-04-06T16:07:27.613Z</time></trkpt><trkpt lat="37.9526611" lon="13.8305741"><ele>25.0</ele><time>2026-04-06T16:07:28.613Z</time></trkpt><trkpt lat="37.9529341" lon="13.8303992"><ele>25.0</ele><time>2026-04-06T16:07:29.613Z</time></trkpt><trkpt lat="37.953205" lon="13.8302215"><ele>25.0</ele><time>2026-04-06T16:07:30.613Z</time></trkpt><trkpt lat="37.9534741" lon="13.8300404"><ele>24.5</ele><time>2026-04-06T16:07:31.613Z</time></trkpt><trkpt lat="37.9537449" lon="13.8298583"><ele>24.0</ele><time>2026-04-06T16:07:32.613Z</time></trkpt><trkpt lat="37.9540133" lon="13.8296709"><ele>24.0</ele><time>2026-04-06T16:07:33.613Z</time></trkpt><trkpt lat="37.9542778" lon="13.8294767"><ele>24.0</ele><time>2026-04-06T16:07:34.613Z</time></trkpt><trkpt lat="37.954537" lon="13.8292711"><ele>23.5</ele><time>2026-04-06T16:07:35.613Z</time></trkpt><trkpt lat="37.9547934" lon="13.8290657"><ele>23.0</ele><time>2026-04-06T16:07:36.613Z</time></trkpt><trkpt lat="37.9550523" lon="13.8288619"><ele>23.0</ele><time>2026-04-06T16:07:37.614Z</time></trkpt><trkpt lat="37.9553097" lon="13.8286581"><ele>23.0</ele><time>2026-04-06T16:07:38.613Z</time></trkpt><trkpt lat="37.9555699" lon="13.8284557"><ele>23.0</ele><time>2026-04-06T16:07:39.613Z</time></trkpt><trkpt lat="37.9558294" lon="13.8282567"><ele>23.0</ele><time>2026-04-06T16:07:40.613Z</time></trkpt><trkpt lat="37.9560911" lon="13.828057"><ele>22.5</ele><time>2026-04-06T16:07:41.613Z</time></trkpt><trkpt lat="37.9563564" lon="13.8278602"><ele>22.0</ele><time>2026-04-06T16:07:42.613Z</time></trkpt><trkpt lat="37.9566321" lon="13.8276862"><ele>22.5</ele><time>2026-04-06T16:07:43.613Z</time></trkpt><trkpt lat="37.9569143" lon="13.8275324"><ele>23.0</ele><time>2026-04-06T16:07:44.613Z</time></trkpt><trkpt lat="37.9571999" lon="13.8274017"><ele>23.0</ele><time>2026-04-06T16:07:45.613Z</time></trkpt><trkpt lat="37.9574902" lon="13.827288"><ele>23.0</ele><time>2026-04-06T16:07:46.614Z</time></trkpt><trkpt lat="37.9577857" lon="13.8272035"><ele>21.5</ele><time>2026-04-06T16:07:47.613Z</time></trkpt><trkpt lat="37.9580886" lon="13.8271344"><ele>20.0</ele><time>2026-04-06T16:07:48.613Z</time></trkpt><trkpt lat="37.9583904" lon="13.8270806"><ele>20.0</ele><time>2026-04-06T16:07:49.613Z</time></trkpt><trkpt lat="37.9586962" lon="13.8270475"><ele>20.0</ele><time>2026-04-06T16:07:50.614Z</time></trkpt><trkpt lat="37.9589983" lon="13.8270471"><ele>20.0</ele><time>2026-04-06T16:07:51.613Z</time></trkpt><trkpt lat="37.959303" lon="13.8270666"><ele>20.0</ele><time>2026-04-06T16:07:52.613Z</time></trkpt><trkpt lat="37.9596049" lon="13.8271072"><ele>20.0</ele><time>2026-04-06T16:07:53.613Z</time></trkpt><trkpt lat="37.9599074" lon="13.8271674"><ele>20.0</ele><time>2026-04-06T16:07:54.613Z</time></trkpt><trkpt lat="37.9602048" lon="13.827244"><ele>20.0</ele><time>2026-04-06T16:07:55.614Z</time></trkpt><trkpt lat="37.9605003" lon="13.8273429"><ele>20.0</ele><time>2026-04-06T16:07:56.613Z</time></trkpt><trkpt lat="37.9607933" lon="13.8274626"><ele>20.0</ele><time>2026-04-06T16:07:57.613Z</time></trkpt><trkpt lat="37.961073" lon="13.8276038"><ele>20.0</ele><time>2026-04-06T16:07:58.613Z</time></trkpt><trkpt lat="37.9613482" lon="13.8277713"><ele>20.0</ele><time>2026-04-06T16:07:59.613Z</time></trkpt><trkpt lat="37.9616169" lon="13.827957"><ele>20.0</ele><time>2026-04-06T16:08:00.613Z</time></trkpt><trkpt lat="37.9618792" lon="13.8281604"><ele>19.5</ele><time>2026-04-06T16:08:01.614Z</time></trkpt><trkpt lat="37.9621356" lon="13.8283712"><ele>19.0</ele><time>2026-04-06T16:08:02.614Z</time></trkpt><trkpt lat="37.9623936" lon="13.828581"><ele>18.0</ele><time>2026-04-06T16:08:03.613Z</time></trkpt><trkpt lat="37.9626541" lon="13.8287866"><ele>17.0</ele><time>2026-04-06T16:08:04.613Z</time></trkpt><trkpt lat="37.9629146" lon="13.8289858"><ele>17.0</ele><time>2026-04-06T16:08:05.613Z</time></trkpt><trkpt lat="37.963177" lon="13.8291885"><ele>17.0</ele><time>2026-04-06T16:08:06.613Z</time></trkpt><trkpt lat="37.9634337" lon="13.8293968"><ele>16.5</ele><time>2026-04-06T16:08:07.613Z</time></trkpt><trkpt lat="37.9636921" lon="13.8296079"><ele>16.0</ele><time>2026-04-06T16:08:08.613Z</time></trkpt><trkpt lat="37.9639512" lon="13.8298179"><ele>15.0</ele><time>2026-04-06T16:08:09.614Z</time></trkpt><trkpt lat="37.9642115" lon="13.8300234"><ele>14.0</ele><time>2026-04-06T16:08:10.614Z</time></trkpt><trkpt lat="37.9644734" lon="13.830224"><ele>16.0</ele><time>2026-04-06T16:08:11.613Z</time></trkpt><trkpt lat="37.9647354" lon="13.8304268"><ele>18.0</ele><time>2026-04-06T16:08:12.613Z</time></trkpt><trkpt lat="37.9649923" lon="13.8306356"><ele>17.5</ele><time>2026-04-06T16:08:13.613Z</time></trkpt><trkpt lat="37.9652495" lon="13.8308445"><ele>17.0</ele><time>2026-04-06T16:08:14.613Z</time></trkpt><trkpt lat="37.965505" lon="13.8310513"><ele>17.0</ele><time>2026-04-06T16:08:15.614Z</time></trkpt><trkpt lat="37.965761" lon="13.8312604"><ele>17.0</ele><time>2026-04-06T16:08:16.613Z</time></trkpt><trkpt lat="37.9660112" lon="13.8314652"><ele>16.5</ele><time>2026-04-06T16:08:17.613Z</time></trkpt><trkpt lat="37.9662541" lon="13.8316511"><ele>16.0</ele><time>2026-04-06T16:08:18.613Z</time></trkpt><trkpt lat="37.9664794" lon="13.8318149"><ele>19.0</ele><time>2026-04-06T16:08:19.613Z</time></trkpt><trkpt lat="37.9666976" lon="13.8319594"><ele>22.0</ele><time>2026-04-06T16:08:20.613Z</time></trkpt><trkpt lat="37.9669188" lon="13.8320883"><ele>22.0</ele><time>2026-04-06T16:08:21.614Z</time></trkpt><trkpt lat="37.9671437" lon="13.8322094"><ele>22.0</ele><time>2026-04-06T16:08:22.613Z</time></trkpt><trkpt lat="37.96737" lon="13.8323234"><ele>22.5</ele><time>2026-04-06T16:08:23.613Z</time></trkpt><trkpt lat="37.9676035" lon="13.8324285"><ele>23.0</ele><time>2026-04-06T16:08:24.613Z</time></trkpt><trkpt lat="37.9678424" lon="13.8325318"><ele>23.0</ele><time>2026-04-06T16:08:25.613Z</time></trkpt><trkpt lat="37.9680907" lon="13.8326221"><ele>23.0</ele><time>2026-04-06T16:08:26.613Z</time></trkpt><trkpt lat="37.9683374" lon="13.832697"><ele>21.5</ele><time>2026-04-06T16:08:27.613Z</time></trkpt><trkpt lat="37.9685825" lon="13.8327536"><ele>20.0</ele><time>2026-04-06T16:08:28.613Z</time></trkpt><trkpt lat="37.9688187" lon="13.8328017"><ele>20.0</ele><time>2026-04-06T16:08:29.613Z</time></trkpt><trkpt lat="37.9690533" lon="13.8328412"><ele>20.0</ele><time>2026-04-06T16:08:30.613Z</time></trkpt><trkpt lat="37.9692877" lon="13.8328724"><ele>20.0</ele><time>2026-04-06T16:08:31.613Z</time></trkpt><trkpt lat="37.969517" lon="13.8328935"><ele>20.0</ele><time>2026-04-06T16:08:32.613Z</time></trkpt><trkpt lat="37.9697461" lon="13.8329038"><ele>20.0</ele><time>2026-04-06T16:08:33.613Z</time></trkpt><trkpt lat="37.9699784" lon="13.8329047"><ele>20.0</ele><time>2026-04-06T16:08:34.621Z</time></trkpt><trkpt lat="37.9702104" lon="13.8328951"><ele>20.0</ele><time>2026-04-06T16:08:35.62Z</time></trkpt><trkpt lat="37.9704357" lon="13.8328742"><ele>20.0</ele><time>2026-04-06T16:08:36.62Z</time></trkpt><trkpt lat="37.9706486" lon="13.8328481"><ele>20.0</ele><time>2026-04-06T16:08:37.62Z</time></trkpt><trkpt lat="37.9708515" lon="13.8328123"><ele>19.0</ele><time>2026-04-06T16:08:38.621Z</time></trkpt><trkpt lat="37.9710529" lon="13.8327716"><ele>18.0</ele><time>2026-04-06T16:08:39.621Z</time></trkpt><trkpt lat="37.971271" lon="13.8327275"><ele>17.0</ele><time>2026-04-06T16:08:40.62Z</time></trkpt><trkpt lat="37.9715072" lon="13.832663"><ele>16.5</ele><time>2026-04-06T16:08:41.62Z</time></trkpt><trkpt lat="37.9717669" lon="13.8325883"><ele>16.0</ele><time>2026-04-06T16:08:42.62Z</time></trkpt><trkpt lat="37.9720285" lon="13.832494"><ele>16.0</ele><time>2026-04-06T16:08:43.621Z</time></trkpt><trkpt lat="37.9722934" lon="13.8323889"><ele>16.0</ele><time>2026-04-06T16:08:44.62Z</time></trkpt><trkpt lat="37.972551" lon="13.8322619"><ele>15.0</ele><time>2026-04-06T16:08:45.62Z</time></trkpt><trkpt lat="37.9727996" lon="13.8321263"><ele>14.0</ele><time>2026-04-06T16:08:46.62Z</time></trkpt><trkpt lat="37.9730426" lon="13.8319916"><ele>14.0</ele><time>2026-04-06T16:08:47.62Z</time></trkpt><trkpt lat="37.9732914" lon="13.8318542"><ele>14.0</ele><time>2026-04-06T16:08:48.621Z</time></trkpt><trkpt lat="37.9735498" lon="13.8317132"><ele>14.5</ele><time>2026-04-06T16:08:49.62Z</time></trkpt><trkpt lat="37.9738287" lon="13.8315737"><ele>15.0</ele><time>2026-04-06T16:08:50.62Z</time></trkpt><trkpt lat="37.974113" lon="13.8314143"><ele>13.5</ele><time>2026-04-06T16:08:51.621Z</time></trkpt><trkpt lat="37.9743984" lon="13.8312466"><ele>12.0</ele><time>2026-04-06T16:08:52.62Z</time></trkpt><trkpt lat="37.9746685" lon="13.8310873"><ele>11.5</ele><time>2026-04-06T16:08:53.621Z</time></trkpt><trkpt lat="37.9749192" lon="13.8309362"><ele>11.0</ele><time>2026-04-06T16:08:54.62Z</time></trkpt><trkpt lat="37.9751616" lon="13.8307977"><ele>11.0</ele><time>2026-04-06T16:08:55.62Z</time></trkpt><trkpt lat="37.9753875" lon="13.8306659"><ele>11.0</ele><time>2026-04-06T16:08:56.621Z</time></trkpt><trkpt lat="37.9756012" lon="13.8305451"><ele>11.0</ele><time>2026-04-06T16:08:57.62Z</time></trkpt><trkpt lat="37.9758047" lon="13.8304238"><ele>11.0</ele><time>2026-04-06T16:08:58.62Z</time></trkpt><trkpt lat="37.9760043" lon="13.8303058"><ele>11.0</ele><time>2026-04-06T16:08:59.62Z</time></trkpt><trkpt lat="37.976199" lon="13.8301916"><ele>11.0</ele><time>2026-04-06T16:09:00.62Z</time></trkpt><trkpt lat="37.9763916" lon="13.8300754"><ele>11.0</ele><time>2026-04-06T16:09:01.62Z</time></trkpt><trkpt lat="37.9765779" lon="13.829955"><ele>11.0</ele><time>2026-04-06T16:09:02.62Z</time></trkpt><trkpt lat="37.9767676" lon="13.8298283"><ele>10.0</ele><time>2026-04-06T16:09:03.62Z</time></trkpt><trkpt lat="37.9769625" lon="13.8296984"><ele>9.0</ele><time>2026-04-06T16:09:04.62Z</time></trkpt><trkpt lat="37.9771524" lon="13.8295696"><ele>8.0</ele><time>2026-04-06T16:09:05.62Z</time></trkpt><trkpt lat="37.9773342" lon="13.8294351"><ele>9.333333333333332</ele><time>2026-04-06T16:09:06.62Z</time></trkpt><trkpt lat="37.9775132" lon="13.8292915"><ele>10.666666666666666</ele><time>2026-04-06T16:09:07.62Z</time></trkpt><trkpt lat="37.9776876" lon="13.8291336"><ele>12.0</ele><time>2026-04-06T16:09:08.621Z</time></trkpt><trkpt lat="37.9778586" lon="13.8289692"><ele>12.0</ele><time>2026-04-06T16:09:09.62Z</time></trkpt><trkpt lat="37.9780276" lon="13.8287859"><ele>12.0</ele><time>2026-04-06T16:09:10.62Z</time></trkpt><trkpt lat="37.9781941" lon="13.8285797"><ele>11.0</ele><time>2026-04-06T16:09:11.62Z</time></trkpt><trkpt lat="37.9783737" lon="13.8283552"><ele>10.0</ele><time>2026-04-06T16:09:12.62Z</time></trkpt><trkpt lat="37.9785545" lon="13.8281023"><ele>10.0</ele><time>2026-04-06T16:09:13.62Z</time></trkpt><trkpt lat="37.9787182" lon="13.8278028"><ele>10.0</ele><time>2026-04-06T16:09:14.62Z</time></trkpt><trkpt lat="37.9788655" lon="13.8274738"><ele>10.5</ele><time>2026-04-06T16:09:15.621Z</time></trkpt><trkpt lat="37.979002" lon="13.8271236"><ele>11.0</ele><time>2026-04-06T16:09:16.62Z</time></trkpt><trkpt lat="37.979126" lon="13.8267437"><ele>9.0</ele><time>2026-04-06T16:09:17.62Z</time></trkpt><trkpt lat="37.9792275" lon="13.8263468"><ele>7.0</ele><time>2026-04-06T16:09:18.62Z</time></trkpt><trkpt lat="37.9793042" lon="13.8259383"><ele>7.0</ele><time>2026-04-06T16:09:19.621Z</time></trkpt><trkpt lat="37.9793526" lon="13.8255164"><ele>7.0</ele><time>2026-04-06T16:09:20.62Z</time></trkpt><trkpt lat="37.9793689" lon="13.825092"><ele>6.5</ele><time>2026-04-06T16:09:21.62Z</time></trkpt><trkpt lat="37.9793544" lon="13.824654"><ele>6.0</ele><time>2026-04-06T16:09:22.621Z</time></trkpt><trkpt lat="37.9793151" lon="13.8242183"><ele>6.0</ele><time>2026-04-06T16:09:23.62Z</time></trkpt><trkpt lat="37.9792498" lon="13.8237986"><ele>6.0</ele><time>2026-04-06T16:09:24.621Z</time></trkpt><trkpt lat="37.9791693" lon="13.8233899"><ele>6.5</ele><time>2026-04-06T16:09:25.621Z</time></trkpt><trkpt lat="37.979072" lon="13.8229978"><ele>7.0</ele><time>2026-04-06T16:09:26.621Z</time></trkpt><trkpt lat="37.9789713" lon="13.8226233"><ele>8.0</ele><time>2026-04-06T16:09:27.62Z</time></trkpt><trkpt lat="37.9788741" lon="13.8222571"><ele>9.0</ele><time>2026-04-06T16:09:28.62Z</time></trkpt><trkpt lat="37.9787751" lon="13.8219011"><ele>8.5</ele><time>2026-04-06T16:09:29.62Z</time></trkpt><trkpt lat="37.9786758" lon="13.8215434"><ele>8.0</ele><time>2026-04-06T16:09:30.62Z</time></trkpt><trkpt lat="37.9785756" lon="13.8211805"><ele>6.5</ele><time>2026-04-06T16:09:31.62Z</time></trkpt><trkpt lat="37.9784723" lon="13.8208201"><ele>5.0</ele><time>2026-04-06T16:09:32.62Z</time></trkpt><trkpt lat="37.9783732" lon="13.8204674"><ele>5.5</ele><time>2026-04-06T16:09:33.621Z</time></trkpt><trkpt lat="37.9782748" lon="13.8201248"><ele>6.0</ele><time>2026-04-06T16:09:34.62Z</time></trkpt><trkpt lat="37.9781788" lon="13.8197803"><ele>6.0</ele><time>2026-04-06T16:09:35.62Z</time></trkpt><trkpt lat="37.9780797" lon="13.8194387"><ele>6.0</ele><time>2026-04-06T16:09:36.62Z</time></trkpt><trkpt lat="37.9779833" lon="13.8190951"><ele>6.0</ele><time>2026-04-06T16:09:37.62Z</time></trkpt><trkpt lat="37.977888" lon="13.8187578"><ele>6.0</ele><time>2026-04-06T16:09:38.621Z</time></trkpt><trkpt lat="37.9777942" lon="13.8184222"><ele>6.0</ele><time>2026-04-06T16:09:39.62Z</time></trkpt><trkpt lat="37.9776996" lon="13.8180831"><ele>6.0</ele><time>2026-04-06T16:09:40.62Z</time></trkpt><trkpt lat="37.9776037" lon="13.8177483"><ele>6.5</ele><time>2026-04-06T16:09:41.62Z</time></trkpt><trkpt lat="37.977502" lon="13.8174094"><ele>7.0</ele><time>2026-04-06T16:09:42.62Z</time></trkpt><trkpt lat="37.9774042" lon="13.8170683"><ele>6.0</ele><time>2026-04-06T16:09:43.62Z</time></trkpt><trkpt lat="37.9773055" lon="13.8167269"><ele>5.0</ele><time>2026-04-06T16:09:44.62Z</time></trkpt><trkpt lat="37.9772075" lon="13.8163835"><ele>5.0</ele><time>2026-04-06T16:09:45.621Z</time></trkpt><trkpt lat="37.9771075" lon="13.816035"><ele>5.0</ele><time>2026-04-06T16:09:46.62Z</time></trkpt><trkpt lat="37.9770108" lon="13.8156896"><ele>4.5</ele><time>2026-04-06T16:09:47.621Z</time></trkpt><trkpt lat="37.97691" lon="13.8153463"><ele>4.0</ele><time>2026-04-06T16:09:48.621Z</time></trkpt><trkpt lat="37.9768172" lon="13.8150115"><ele>4.0</ele><time>2026-04-06T16:09:49.621Z</time></trkpt><trkpt lat="37.9767251" lon="13.8146908"><ele>4.0</ele><time>2026-04-06T16:09:50.62Z</time></trkpt><trkpt lat="37.9766382" lon="13.8143834"><ele>4.5</ele><time>2026-04-06T16:09:51.62Z</time></trkpt><trkpt lat="37.9765507" lon="13.8140723"><ele>5.0</ele><time>2026-04-06T16:09:52.62Z</time></trkpt><trkpt lat="37.976459" lon="13.8137598"><ele>6.0</ele><time>2026-04-06T16:09:53.62Z</time></trkpt><trkpt lat="37.9763662" lon="13.8134388"><ele>7.0</ele><time>2026-04-06T16:09:54.62Z</time></trkpt><trkpt lat="37.976275" lon="13.8131152"><ele>7.0</ele><time>2026-04-06T16:09:55.62Z</time></trkpt><trkpt lat="37.9761809" lon="13.812785"><ele>7.0</ele><time>2026-04-06T16:09:56.62Z</time></trkpt><trkpt lat="37.9760863" lon="13.8124566"><ele>7.0</ele><time>2026-04-06T16:09:57.62Z</time></trkpt><trkpt lat="37.9759957" lon="13.8121303"><ele>7.0</ele><time>2026-04-06T16:09:58.62Z</time></trkpt><trkpt lat="37.975904" lon="13.8118179"><ele>7.0</ele><time>2026-04-06T16:09:59.62Z</time></trkpt><trkpt lat="37.9758176" lon="13.8115137"><ele>7.0</ele><time>2026-04-06T16:10:00.621Z</time></trkpt><trkpt lat="37.9757321" lon="13.8112103"><ele>6.5</ele><time>2026-04-06T16:10:01.621Z</time></trkpt><trkpt lat="37.9756486" lon="13.8109114"><ele>6.0</ele><time>2026-04-06T16:10:02.621Z</time></trkpt><trkpt lat="37.9755599" lon="13.810611"><ele>6.0</ele><time>2026-04-06T16:10:03.62Z</time></trkpt><trkpt lat="37.9754719" lon="13.8103018"><ele>6.0</ele><time>2026-04-06T16:10:04.62Z</time></trkpt><trkpt lat="37.9753807" lon="13.8099906"><ele>6.0</ele><time>2026-04-06T16:10:05.621Z</time></trkpt><trkpt lat="37.9752917" lon="13.8096823"><ele>6.0</ele><time>2026-04-06T16:10:06.621Z</time></trkpt><trkpt lat="37.9752029" lon="13.8093703"><ele>6.0</ele><time>2026-04-06T16:10:07.62Z</time></trkpt><trkpt lat="37.9751157" lon="13.8090602"><ele>6.0</ele><time>2026-04-06T16:10:08.621Z</time></trkpt><trkpt lat="37.9750276" lon="13.8087546"><ele>7.5</ele><time>2026-04-06T16:10:09.62Z</time></trkpt><trkpt lat="37.9749335" lon="13.8084445"><ele>9.0</ele><time>2026-04-06T16:10:10.62Z</time></trkpt><trkpt lat="37.9748414" lon="13.8081318"><ele>9.0</ele><time>2026-04-06T16:10:11.62Z</time></trkpt><trkpt lat="37.9747502" lon="13.8078107"><ele>9.0</ele><time>2026-04-06T16:10:12.62Z</time></trkpt><trkpt lat="37.9746559" lon="13.8074911"><ele>9.0</ele><time>2026-04-06T16:10:13.62Z</time></trkpt><trkpt lat="37.9745629" lon="13.8071677"><ele>9.0</ele><time>2026-04-06T16:10:14.621Z</time></trkpt><trkpt lat="37.9744698" lon="13.8068409"><ele>8.0</ele><time>2026-04-06T16:10:15.621Z</time></trkpt><trkpt lat="37.974377" lon="13.8065126"><ele>7.0</ele><time>2026-04-06T16:10:16.62Z</time></trkpt><trkpt lat="37.9742831" lon="13.8061896"><ele>7.0</ele><time>2026-04-06T16:10:17.62Z</time></trkpt><trkpt lat="37.9741881" lon="13.8058649"><ele>7.0</ele><time>2026-04-06T16:10:18.62Z</time></trkpt><trkpt lat="37.9740899" lon="13.8055382"><ele>7.0</ele><time>2026-04-06T16:10:19.62Z</time></trkpt><trkpt lat="37.9739932" lon="13.8052016"><ele>7.0</ele><time>2026-04-06T16:10:20.62Z</time></trkpt><trkpt lat="37.973899" lon="13.8048638"><ele>7.0</ele><time>2026-04-06T16:10:21.62Z</time></trkpt><trkpt lat="37.9738064" lon="13.8045319"><ele>7.0</ele><time>2026-04-06T16:10:22.62Z</time></trkpt><trkpt lat="37.9737152" lon="13.8042101"><ele>7.0</ele><time>2026-04-06T16:10:23.62Z</time></trkpt><trkpt lat="37.9736281" lon="13.8038803"><ele>7.0</ele><time>2026-04-06T16:10:24.62Z</time></trkpt><trkpt lat="37.973536" lon="13.8035419"><ele>7.5</ele><time>2026-04-06T16:10:25.62Z</time></trkpt><trkpt lat="37.9734413" lon="13.8031886"><ele>8.0</ele><time>2026-04-06T16:10:26.62Z</time></trkpt><trkpt lat="37.973342" lon="13.8028317"><ele>7.5</ele><time>2026-04-06T16:10:27.62Z</time></trkpt><trkpt lat="37.9732386" lon="13.8024684"><ele>7.0</ele><time>2026-04-06T16:10:28.621Z</time></trkpt><trkpt lat="37.973137" lon="13.8021049"><ele>7.0</ele><time>2026-04-06T16:10:29.62Z</time></trkpt><trkpt lat="37.9730316" lon="13.8017466"><ele>7.0</ele><time>2026-04-06T16:10:30.62Z</time></trkpt><trkpt lat="37.9729242" lon="13.8013908"><ele>7.0</ele><time>2026-04-06T16:10:31.62Z</time></trkpt><trkpt lat="37.97282" lon="13.8010366"><ele>7.0</ele><time>2026-04-06T16:10:32.62Z</time></trkpt><trkpt lat="37.9727141" lon="13.8006783"><ele>6.5</ele><time>2026-04-06T16:10:33.62Z</time></trkpt><trkpt lat="37.9726065" lon="13.8003196"><ele>6.0</ele><time>2026-04-06T16:10:34.621Z</time></trkpt><trkpt lat="37.9724967" lon="13.7999641"><ele>6.0</ele><time>2026-04-06T16:10:35.62Z</time></trkpt><trkpt lat="37.9723862" lon="13.7996047"><ele>6.0</ele><time>2026-04-06T16:10:36.621Z</time></trkpt><trkpt lat="37.9722739" lon="13.7992437"><ele>6.0</ele><time>2026-04-06T16:10:37.62Z</time></trkpt><trkpt lat="37.972165" lon="13.7988804"><ele>6.0</ele><time>2026-04-06T16:10:38.62Z</time></trkpt><trkpt lat="37.9720611" lon="13.798514"><ele>6.0</ele><time>2026-04-06T16:10:39.62Z</time></trkpt><trkpt lat="37.9719566" lon="13.7981504"><ele>6.0</ele><time>2026-04-06T16:10:40.621Z</time></trkpt><trkpt lat="37.9718546" lon="13.7977863"><ele>6.0</ele><time>2026-04-06T16:10:41.62Z</time></trkpt><trkpt lat="37.9717513" lon="13.7974246"><ele>6.0</ele><time>2026-04-06T16:10:42.62Z</time></trkpt><trkpt lat="37.9716459" lon="13.7970609"><ele>6.5</ele><time>2026-04-06T16:10:43.62Z</time></trkpt><trkpt lat="37.971544" lon="13.7966978"><ele>7.0</ele><time>2026-04-06T16:10:44.62Z</time></trkpt><trkpt lat="37.9714407" lon="13.7963331"><ele>7.0</ele><time>2026-04-06T16:10:45.62Z</time></trkpt><trkpt lat="37.9713349" lon="13.7959732"><ele>7.0</ele><time>2026-04-06T16:10:46.62Z</time></trkpt><trkpt lat="37.9712275" lon="13.7956112"><ele>7.0</ele><time>2026-04-06T16:10:47.62Z</time></trkpt><trkpt lat="37.9711249" lon="13.7952473"><ele>7.0</ele><time>2026-04-06T16:10:48.62Z</time></trkpt><trkpt lat="37.9710221" lon="13.7948834"><ele>7.5</ele><time>2026-04-06T16:10:49.62Z</time></trkpt><trkpt lat="37.9709147" lon="13.7945192"><ele>8.0</ele><time>2026-04-06T16:10:50.62Z</time></trkpt><trkpt lat="37.9708119" lon="13.7941552"><ele>8.0</ele><time>2026-04-06T16:10:51.62Z</time></trkpt><trkpt lat="37.9707114" lon="13.7937946"><ele>8.0</ele><time>2026-04-06T16:10:52.621Z</time></trkpt><trkpt lat="37.9706099" lon="13.7934308"><ele>8.5</ele><time>2026-04-06T16:10:53.62Z</time></trkpt><trkpt lat="37.9705092" lon="13.7930667"><ele>9.0</ele><time>2026-04-06T16:10:54.62Z</time></trkpt><trkpt lat="37.9704062" lon="13.7927024"><ele>7.5</ele><time>2026-04-06T16:10:55.62Z</time></trkpt><trkpt lat="37.9703037" lon="13.7923373"><ele>6.0</ele><time>2026-04-06T16:10:56.62Z</time></trkpt><trkpt lat="37.9702017" lon="13.7919731"><ele>6.0</ele><time>2026-04-06T16:10:57.62Z</time></trkpt><trkpt lat="37.9701012" lon="13.7916109"><ele>6.0</ele><time>2026-04-06T16:10:58.62Z</time></trkpt><trkpt lat="37.9700038" lon="13.7912426"><ele>6.0</ele><time>2026-04-06T16:10:59.62Z</time></trkpt><trkpt lat="37.9699101" lon="13.7908752"><ele>6.0</ele><time>2026-04-06T16:11:00.62Z</time></trkpt><trkpt lat="37.9698165" lon="13.7905079"><ele>6.0</ele><time>2026-04-06T16:11:01.621Z</time></trkpt><trkpt lat="37.9697252" lon="13.7901384"><ele>6.0</ele><time>2026-04-06T16:11:02.62Z</time></trkpt><trkpt lat="37.9696366" lon="13.7897677"><ele>6.0</ele><time>2026-04-06T16:11:03.621Z</time></trkpt><trkpt lat="37.9695573" lon="13.7893987"><ele>6.0</ele><time>2026-04-06T16:11:04.62Z</time></trkpt><trkpt lat="37.9694787" lon="13.7890295"><ele>6.0</ele><time>2026-04-06T16:11:05.62Z</time></trkpt><trkpt lat="37.9694014" lon="13.7886623"><ele>6.0</ele><time>2026-04-06T16:11:06.62Z</time></trkpt><trkpt lat="37.9693286" lon="13.7882856"><ele>6.0</ele><time>2026-04-06T16:11:07.62Z</time></trkpt><trkpt lat="37.96926" lon="13.7879104"><ele>6.0</ele><time>2026-04-06T16:11:08.62Z</time></trkpt><trkpt lat="37.9691947" lon="13.7875345"><ele>6.5</ele><time>2026-04-06T16:11:09.62Z</time></trkpt><trkpt lat="37.9691267" lon="13.7871572"><ele>7.0</ele><time>2026-04-06T16:11:10.62Z</time></trkpt><trkpt lat="37.9690621" lon="13.7867796"><ele>7.0</ele><time>2026-04-06T16:11:11.62Z</time></trkpt><trkpt lat="37.9690038" lon="13.7863982"><ele>7.0</ele><time>2026-04-06T16:11:12.621Z</time></trkpt><trkpt lat="37.9689477" lon="13.7860176"><ele>7.0</ele><time>2026-04-06T16:11:13.621Z</time></trkpt><trkpt lat="37.968894" lon="13.7856358"><ele>7.0</ele><time>2026-04-06T16:11:14.62Z</time></trkpt><trkpt lat="37.9688408" lon="13.7852549"><ele>6.5</ele><time>2026-04-06T16:11:15.62Z</time></trkpt><trkpt lat="37.9687849" lon="13.7848728"><ele>6.0</ele><time>2026-04-06T16:11:16.62Z</time></trkpt><trkpt lat="37.9687331" lon="13.7844894"><ele>6.5</ele><time>2026-04-06T16:11:17.62Z</time></trkpt><trkpt lat="37.9686829" lon="13.7841102"><ele>7.0</ele><time>2026-04-06T16:11:18.62Z</time></trkpt><trkpt lat="37.9686336" lon="13.7837292"><ele>7.0</ele><time>2026-04-06T16:11:19.62Z</time></trkpt><trkpt lat="37.9685795" lon="13.7833498"><ele>7.0</ele><time>2026-04-06T16:11:20.62Z</time></trkpt><trkpt lat="37.9685192" lon="13.7829705"><ele>7.5</ele><time>2026-04-06T16:11:21.62Z</time></trkpt><trkpt lat="37.968465" lon="13.7825888"><ele>8.0</ele><time>2026-04-06T16:11:22.62Z</time></trkpt><trkpt lat="37.9684112" lon="13.7822077"><ele>7.5</ele><time>2026-04-06T16:11:23.62Z</time></trkpt><trkpt lat="37.9683589" lon="13.7818264"><ele>7.0</ele><time>2026-04-06T16:11:24.62Z</time></trkpt><trkpt lat="37.9682563" lon="13.7810622"><ele>7.5</ele><time>2026-04-06T16:11:26.62Z</time></trkpt><trkpt lat="37.968202" lon="13.780684"><ele>8.0</ele><time>2026-04-06T16:11:27.62Z</time></trkpt><trkpt lat="37.9681451" lon="13.7803052"><ele>9.0</ele><time>2026-04-06T16:11:28.621Z</time></trkpt><trkpt lat="37.9680922" lon="13.7799294"><ele>10.0</ele><time>2026-04-06T16:11:29.62Z</time></trkpt><trkpt lat="37.9680407" lon="13.7795506"><ele>9.5</ele><time>2026-04-06T16:11:30.62Z</time></trkpt><trkpt lat="37.9679904" lon="13.7791707"><ele>9.0</ele><time>2026-04-06T16:11:31.62Z</time></trkpt><trkpt lat="37.9679394" lon="13.7787908"><ele>9.5</ele><time>2026-04-06T16:11:32.62Z</time></trkpt><trkpt lat="37.9678862" lon="13.7784064"><ele>10.0</ele><time>2026-04-06T16:11:33.62Z</time></trkpt><trkpt lat="37.9678288" lon="13.7780252"><ele>9.0</ele><time>2026-04-06T16:11:34.62Z</time></trkpt><trkpt lat="37.9677746" lon="13.7776463"><ele>8.0</ele><time>2026-04-06T16:11:35.62Z</time></trkpt><trkpt lat="37.9677212" lon="13.7772658"><ele>8.0</ele><time>2026-04-06T16:11:36.62Z</time></trkpt><trkpt lat="37.9676661" lon="13.7768872"><ele>8.0</ele><time>2026-04-06T16:11:37.62Z</time></trkpt><trkpt lat="37.9676108" lon="13.7765085"><ele>8.0</ele><time>2026-04-06T16:11:38.62Z</time></trkpt><trkpt lat="37.9675581" lon="13.7761303"><ele>8.0</ele><time>2026-04-06T16:11:39.62Z</time></trkpt><trkpt lat="37.9675014" lon="13.7757503"><ele>8.5</ele><time>2026-04-06T16:11:40.62Z</time></trkpt><trkpt lat="37.9674504" lon="13.7753683"><ele>9.0</ele><time>2026-04-06T16:11:41.62Z</time></trkpt><trkpt lat="37.9673971" lon="13.7749855"><ele>9.5</ele><time>2026-04-06T16:11:42.62Z</time></trkpt><trkpt lat="37.967348" lon="13.7746053"><ele>10.0</ele><time>2026-04-06T16:11:43.62Z</time></trkpt><trkpt lat="37.9672985" lon="13.7742258"><ele>10.0</ele><time>2026-04-06T16:11:44.621Z</time></trkpt><trkpt lat="37.9672445" lon="13.7738444"><ele>10.0</ele><time>2026-04-06T16:11:45.62Z</time></trkpt><trkpt lat="37.9671889" lon="13.7734616"><ele>10.0</ele><time>2026-04-06T16:11:46.62Z</time></trkpt><trkpt lat="37.9671329" lon="13.7730813"><ele>10.0</ele><time>2026-04-06T16:11:47.62Z</time></trkpt><trkpt lat="37.9670781" lon="13.7726999"><ele>9.0</ele><time>2026-04-06T16:11:48.62Z</time></trkpt><trkpt lat="37.9670201" lon="13.7723216"><ele>8.0</ele><time>2026-04-06T16:11:49.62Z</time></trkpt><trkpt lat="37.9669652" lon="13.7719407"><ele>7.0</ele><time>2026-04-06T16:11:50.621Z</time></trkpt><trkpt lat="37.9669135" lon="13.7715599"><ele>6.0</ele><time>2026-04-06T16:11:51.62Z</time></trkpt><trkpt lat="37.966864" lon="13.7711831"><ele>6.0</ele><time>2026-04-06T16:11:52.621Z</time></trkpt><trkpt lat="37.9668114" lon="13.7708011"><ele>6.0</ele><time>2026-04-06T16:11:53.62Z</time></trkpt><trkpt lat="37.9667614" lon="13.7704219"><ele>6.0</ele><time>2026-04-06T16:11:54.62Z</time></trkpt><trkpt lat="37.9667083" lon="13.7700439"><ele>6.0</ele><time>2026-04-06T16:11:55.621Z</time></trkpt><trkpt lat="37.9666529" lon="13.7696657"><ele>6.0</ele><time>2026-04-06T16:11:56.62Z</time></trkpt><trkpt lat="37.9665998" lon="13.7692874"><ele>6.0</ele><time>2026-04-06T16:11:57.62Z</time></trkpt><trkpt lat="37.9665472" lon="13.7689067"><ele>6.0</ele><time>2026-04-06T16:11:58.62Z</time></trkpt><trkpt lat="37.9664938" lon="13.768528"><ele>6.0</ele><time>2026-04-06T16:11:59.621Z</time></trkpt><trkpt lat="37.9664361" lon="13.7681493"><ele>8.0</ele><time>2026-04-06T16:12:00.621Z</time></trkpt><trkpt lat="37.9663791" lon="13.7677674"><ele>10.0</ele><time>2026-04-06T16:12:01.62Z</time></trkpt><trkpt lat="37.9663179" lon="13.7673878"><ele>10.0</ele><time>2026-04-06T16:12:02.621Z</time></trkpt><trkpt lat="37.9662531" lon="13.7670082"><ele>10.0</ele><time>2026-04-06T16:12:03.62Z</time></trkpt><trkpt lat="37.9661875" lon="13.7666345"><ele>9.5</ele><time>2026-04-06T16:12:04.62Z</time></trkpt><trkpt lat="37.966118" lon="13.7662627"><ele>9.0</ele><time>2026-04-06T16:12:05.62Z</time></trkpt><trkpt lat="37.9660418" lon="13.7658932"><ele>9.0</ele><time>2026-04-06T16:12:06.62Z</time></trkpt><trkpt lat="37.9659612" lon="13.765521"><ele>9.0</ele><time>2026-04-06T16:12:07.62Z</time></trkpt><trkpt lat="37.9658743" lon="13.7651547"><ele>11.5</ele><time>2026-04-06T16:12:08.62Z</time></trkpt><trkpt lat="37.965784" lon="13.7647849"><ele>14.0</ele><time>2026-04-06T16:12:09.62Z</time></trkpt><trkpt lat="37.9656919" lon="13.7644189"><ele>14.5</ele><time>2026-04-06T16:12:10.62Z</time></trkpt><trkpt lat="37.9655954" lon="13.7640548"><ele>15.0</ele><time>2026-04-06T16:12:11.62Z</time></trkpt><trkpt lat="37.9654927" lon="13.7636909"><ele>15.0</ele><time>2026-04-06T16:12:12.62Z</time></trkpt><trkpt lat="37.9653901" lon="13.7633336"><ele>15.0</ele><time>2026-04-06T16:12:13.62Z</time></trkpt><trkpt lat="37.9652887" lon="13.7629729"><ele>15.0</ele><time>2026-04-06T16:12:14.621Z</time></trkpt><trkpt lat="37.9651879" lon="13.7626091"><ele>15.0</ele><time>2026-04-06T16:12:15.621Z</time></trkpt><trkpt lat="37.9650875" lon="13.7622455"><ele>20.5</ele><time>2026-04-06T16:12:16.621Z</time></trkpt><trkpt lat="37.9649924" lon="13.7618818"><ele>26.0</ele><time>2026-04-06T16:12:17.621Z</time></trkpt><trkpt lat="37.9648975" lon="13.7615152"><ele>26.0</ele><time>2026-04-06T16:12:18.62Z</time></trkpt><trkpt lat="37.9648056" lon="13.7611466"><ele>26.0</ele><time>2026-04-06T16:12:19.62Z</time></trkpt><trkpt lat="37.9647175" lon="13.7607764"><ele>26.0</ele><time>2026-04-06T16:12:20.62Z</time></trkpt><trkpt lat="37.9646356" lon="13.7604105"><ele>26.0</ele><time>2026-04-06T16:12:21.62Z</time></trkpt><trkpt lat="37.9645559" lon="13.760036"><ele>26.0</ele><time>2026-04-06T16:12:22.621Z</time></trkpt><trkpt lat="37.9644729" lon="13.7596589"><ele>26.0</ele><time>2026-04-06T16:12:23.62Z</time></trkpt><trkpt lat="37.9643963" lon="13.7592842"><ele>26.5</ele><time>2026-04-06T16:12:24.621Z</time></trkpt><trkpt lat="37.9643239" lon="13.7589108"><ele>27.0</ele><time>2026-04-06T16:12:25.62Z</time></trkpt><trkpt lat="37.9642541" lon="13.7585375"><ele>35.0</ele><time>2026-04-06T16:12:26.62Z</time></trkpt><trkpt lat="37.9641885" lon="13.7581614"><ele>43.0</ele><time>2026-04-06T16:12:27.621Z</time></trkpt><trkpt lat="37.9641295" lon="13.7577829"><ele>43.0</ele><time>2026-04-06T16:12:28.62Z</time></trkpt><trkpt lat="37.9640787" lon="13.7574058"><ele>43.0</ele><time>2026-04-06T16:12:29.62Z</time></trkpt><trkpt lat="37.9640324" lon="13.7570287"><ele>43.5</ele><time>2026-04-06T16:12:30.621Z</time></trkpt><trkpt lat="37.9639913" lon="13.756651"><ele>44.0</ele><time>2026-04-06T16:12:31.62Z</time></trkpt><trkpt lat="37.9639528" lon="13.7562694"><ele>44.5</ele><time>2026-04-06T16:12:32.62Z</time></trkpt><trkpt lat="37.9639146" lon="13.755887"><ele>45.0</ele><time>2026-04-06T16:12:33.62Z</time></trkpt><trkpt lat="37.9638777" lon="13.7555057"><ele>44.5</ele><time>2026-04-06T16:12:34.621Z</time></trkpt><trkpt lat="37.9638388" lon="13.7551231"><ele>44.0</ele><time>2026-04-06T16:12:35.621Z</time></trkpt><trkpt lat="37.9638035" lon="13.7547424"><ele>45.5</ele><time>2026-04-06T16:12:36.621Z</time></trkpt><trkpt lat="37.9637661" lon="13.7543545"><ele>47.0</ele><time>2026-04-06T16:12:37.62Z</time></trkpt><trkpt lat="37.9637248" lon="13.7539696"><ele>47.0</ele><time>2026-04-06T16:12:38.62Z</time></trkpt><trkpt lat="37.9636825" lon="13.7535851"><ele>47.0</ele><time>2026-04-06T16:12:39.62Z</time></trkpt><trkpt lat="37.963643" lon="13.7532022"><ele>47.5</ele><time>2026-04-06T16:12:40.62Z</time></trkpt><trkpt lat="37.9636038" lon="13.7528175"><ele>48.0</ele><time>2026-04-06T16:12:41.62Z</time></trkpt><trkpt lat="37.9635684" lon="13.75243"><ele>48.0</ele><time>2026-04-06T16:12:42.62Z</time></trkpt><trkpt lat="37.9635401" lon="13.7520408"><ele>48.0</ele><time>2026-04-06T16:12:43.62Z</time></trkpt><trkpt lat="37.9635157" lon="13.7516578"><ele>48.5</ele><time>2026-04-06T16:12:44.62Z</time></trkpt><trkpt lat="37.9635013" lon="13.7512717"><ele>49.0</ele><time>2026-04-06T16:12:45.62Z</time></trkpt><trkpt lat="37.9634904" lon="13.7508882"><ele>50.5</ele><time>2026-04-06T16:12:46.62Z</time></trkpt><trkpt lat="37.9634844" lon="13.7505039"><ele>52.0</ele><time>2026-04-06T16:12:47.621Z</time></trkpt><trkpt lat="37.9634827" lon="13.7501164"><ele>52.5</ele><time>2026-04-06T16:12:48.62Z</time></trkpt><trkpt lat="37.9634824" lon="13.7497292"><ele>53.0</ele><time>2026-04-06T16:12:49.62Z</time></trkpt><trkpt lat="37.9634904" lon="13.7493423"><ele>52.0</ele><time>2026-04-06T16:12:50.621Z</time></trkpt><trkpt lat="37.9635017" lon="13.7489584"><ele>51.0</ele><time>2026-04-06T16:12:51.62Z</time></trkpt><trkpt lat="37.9635127" lon="13.7485726"><ele>52.5</ele><time>2026-04-06T16:12:52.62Z</time></trkpt><trkpt lat="37.9635268" lon="13.7481982"><ele>54.0</ele><time>2026-04-06T16:12:53.62Z</time></trkpt><trkpt lat="37.9635506" lon="13.7478475"><ele>57.0</ele><time>2026-04-06T16:12:54.621Z</time></trkpt><trkpt lat="37.9635782" lon="13.7475095"><ele>60.0</ele><time>2026-04-06T16:12:55.62Z</time></trkpt><trkpt lat="37.9636123" lon="13.7471693"><ele>61.5</ele><time>2026-04-06T16:12:56.62Z</time></trkpt><trkpt lat="37.9636551" lon="13.746826"><ele>63.0</ele><time>2026-04-06T16:12:57.62Z</time></trkpt><trkpt lat="37.9636967" lon="13.7464795"><ele>63.0</ele><time>2026-04-06T16:12:58.62Z</time></trkpt><trkpt lat="37.9637347" lon="13.746132"><ele>63.0</ele><time>2026-04-06T16:12:59.62Z</time></trkpt><trkpt lat="37.9637796" lon="13.7457942"><ele>67.0</ele><time>2026-04-06T16:13:00.62Z</time></trkpt><trkpt lat="37.9638226" lon="13.7454595"><ele>71.0</ele><time>2026-04-06T16:13:01.621Z</time></trkpt><trkpt lat="37.9638637" lon="13.7451187"><ele>73.5</ele><time>2026-04-06T16:13:02.62Z</time></trkpt><trkpt lat="37.9639091" lon="13.7447641"><ele>76.0</ele><time>2026-04-06T16:13:03.62Z</time></trkpt><trkpt lat="37.9639529" lon="13.744395"><ele>78.5</ele><time>2026-04-06T16:13:04.621Z</time></trkpt><trkpt lat="37.9640022" lon="13.7440141"><ele>81.0</ele><time>2026-04-06T16:13:05.62Z</time></trkpt><trkpt lat="37.9640594" lon="13.743628"><ele>84.5</ele><time>2026-04-06T16:13:06.621Z</time></trkpt><trkpt lat="37.9641144" lon="13.7432428"><ele>88.0</ele><time>2026-04-06T16:13:07.62Z</time></trkpt><trkpt lat="37.9641726" lon="13.7428645"><ele>79.5</ele><time>2026-04-06T16:13:08.62Z</time></trkpt><trkpt lat="37.964232" lon="13.7424856"><ele>71.0</ele><time>2026-04-06T16:13:09.62Z</time></trkpt><trkpt lat="37.9642902" lon="13.7421085"><ele>77.0</ele><time>2026-04-06T16:13:10.62Z</time></trkpt><trkpt lat="37.9643467" lon="13.741732"><ele>83.0</ele><time>2026-04-06T16:13:11.621Z</time></trkpt><trkpt lat="37.9644" lon="13.7413479"><ele>89.5</ele><time>2026-04-06T16:13:12.62Z</time></trkpt><trkpt lat="37.9644497" lon="13.7409617"><ele>96.0</ele><time>2026-04-06T16:13:13.62Z</time></trkpt><trkpt lat="37.9645017" lon="13.7405772"><ele>99.0</ele><time>2026-04-06T16:13:14.62Z</time></trkpt><trkpt lat="37.9645524" lon="13.7402001"><ele>102.0</ele><time>2026-04-06T16:13:15.62Z</time></trkpt><trkpt lat="37.9646026" lon="13.739818"><ele>102.0</ele><time>2026-04-06T16:13:16.621Z</time></trkpt><trkpt lat="37.9646524" lon="13.7394364"><ele>102.0</ele><time>2026-04-06T16:13:17.62Z</time></trkpt><trkpt lat="37.9647031" lon="13.7390579"><ele>103.5</ele><time>2026-04-06T16:13:18.62Z</time></trkpt><trkpt lat="37.9647526" lon="13.7386773"><ele>105.0</ele><time>2026-04-06T16:13:19.62Z</time></trkpt><trkpt lat="37.9647986" lon="13.7382959"><ele>106.0</ele><time>2026-04-06T16:13:20.621Z</time></trkpt><trkpt lat="37.9648446" lon="13.7379116"><ele>107.0</ele><time>2026-04-06T16:13:21.621Z</time></trkpt><trkpt lat="37.9648942" lon="13.737529"><ele>108.5</ele><time>2026-04-06T16:13:22.621Z</time></trkpt><trkpt lat="37.9649465" lon="13.7371473"><ele>110.0</ele><time>2026-04-06T16:13:23.62Z</time></trkpt><trkpt lat="37.9649991" lon="13.7367641"><ele>107.5</ele><time>2026-04-06T16:13:24.62Z</time></trkpt><trkpt lat="37.965051" lon="13.7363853"><ele>105.0</ele><time>2026-04-06T16:13:25.62Z</time></trkpt><trkpt lat="37.9651046" lon="13.736004"><ele>105.0</ele><time>2026-04-06T16:13:26.62Z</time></trkpt><trkpt lat="37.9651547" lon="13.7356214"><ele>105.0</ele><time>2026-04-06T16:13:27.62Z</time></trkpt><trkpt lat="37.9652075" lon="13.7352391"><ele>103.5</ele><time>2026-04-06T16:13:28.62Z</time></trkpt><trkpt lat="37.9652605" lon="13.734859"><ele>102.0</ele><time>2026-04-06T16:13:29.62Z</time></trkpt><trkpt lat="37.9653125" lon="13.734476"><ele>103.0</ele><time>2026-04-06T16:13:30.62Z</time></trkpt><trkpt lat="37.9653651" lon="13.7340954"><ele>104.0</ele><time>2026-04-06T16:13:31.62Z</time></trkpt><trkpt lat="37.9654102" lon="13.7337127"><ele>103.5</ele><time>2026-04-06T16:13:32.62Z</time></trkpt><trkpt lat="37.9654558" lon="13.7333308"><ele>103.0</ele><time>2026-04-06T16:13:33.62Z</time></trkpt><trkpt lat="37.9655039" lon="13.7329504"><ele>104.0</ele><time>2026-04-06T16:13:34.62Z</time></trkpt><trkpt lat="37.9655572" lon="13.7325726"><ele>105.0</ele><time>2026-04-06T16:13:35.62Z</time></trkpt><trkpt lat="37.9656112" lon="13.7321968"><ele>108.0</ele><time>2026-04-06T16:13:36.62Z</time></trkpt><trkpt lat="37.965665" lon="13.7318171"><ele>111.0</ele><time>2026-04-06T16:13:37.62Z</time></trkpt><trkpt lat="37.9657172" lon="13.7314352"><ele>111.0</ele><time>2026-04-06T16:13:38.62Z</time></trkpt><trkpt lat="37.9657714" lon="13.7310547"><ele>111.0</ele><time>2026-04-06T16:13:39.62Z</time></trkpt><trkpt lat="37.9658207" lon="13.7306759"><ele>107.0</ele><time>2026-04-06T16:13:40.62Z</time></trkpt><trkpt lat="37.9658703" lon="13.7302971"><ele>103.0</ele><time>2026-04-06T16:13:41.62Z</time></trkpt><trkpt lat="37.9659227" lon="13.7299182"><ele>103.0</ele><time>2026-04-06T16:13:42.62Z</time></trkpt><trkpt lat="37.9659697" lon="13.7295501"><ele>103.0</ele><time>2026-04-06T16:13:43.62Z</time></trkpt><trkpt lat="37.9660173" lon="13.7292072"><ele>104.5</ele><time>2026-04-06T16:13:44.621Z</time></trkpt><trkpt lat="37.9660646" lon="13.7288827"><ele>106.0</ele><time>2026-04-06T16:13:45.62Z</time></trkpt><trkpt lat="37.9661094" lon="13.7285763"><ele>107.5</ele><time>2026-04-06T16:13:46.62Z</time></trkpt><trkpt lat="37.9661539" lon="13.7282843"><ele>109.0</ele><time>2026-04-06T16:13:47.62Z</time></trkpt><trkpt lat="37.9661965" lon="13.7280052"><ele>109.0</ele><time>2026-04-06T16:13:48.62Z</time></trkpt><trkpt lat="37.9662354" lon="13.7277358"><ele>109.0</ele><time>2026-04-06T16:13:49.62Z</time></trkpt><trkpt lat="37.9662742" lon="13.7274848"><ele>109.0</ele><time>2026-04-06T16:13:50.62Z</time></trkpt><trkpt lat="37.9663122" lon="13.7272688"><ele>109.25</ele><time>2026-04-06T16:13:51.62Z</time></trkpt><trkpt lat="37.966363" lon="13.7270873"><ele>109.5</ele><time>2026-04-06T16:13:52.621Z</time></trkpt><trkpt lat="37.9664203" lon="13.7269292"><ele>109.75</ele><time>2026-04-06T16:13:53.62Z</time></trkpt><trkpt lat="37.9664708" lon="13.7268022"><ele>110.0</ele><time>2026-04-06T16:13:54.62Z</time></trkpt><trkpt lat="37.9664939" lon="13.7266885"><ele>109.66666666666666</ele><time>2026-04-06T16:13:55.62Z</time></trkpt><trkpt lat="37.9665075" lon="13.7265881"><ele>109.33333333333333</ele><time>2026-04-06T16:13:56.62Z</time></trkpt><trkpt lat="37.9665197" lon="13.7264978"><ele>109.0</ele><time>2026-04-06T16:13:57.621Z</time></trkpt><trkpt lat="37.9665358" lon="13.7264126"><ele>108.66666666666666</ele><time>2026-04-06T16:13:58.62Z</time></trkpt><trkpt lat="37.9665914" lon="13.7262909"><ele>108.33333333333333</ele><time>2026-04-06T16:14:00.62Z</time></trkpt><trkpt lat="37.9666602" lon="13.726242"><ele>108.0</ele><time>2026-04-06T16:14:02.621Z</time></trkpt><trkpt lat="37.9667433" lon="13.7261893"><ele>108.0</ele><time>2026-04-06T16:14:05.62Z</time></trkpt><trkpt lat="37.9668174" lon="13.7261403"><ele>108.0</ele><time>2026-04-06T16:14:07.621Z</time></trkpt><trkpt lat="37.9668765" lon="13.7260922"><ele>108.0</ele><time>2026-04-06T16:14:09.62Z</time></trkpt><trkpt lat="37.9669128" lon="13.726022"><ele>108.0</ele><time>2026-04-06T16:14:11.62Z</time></trkpt><trkpt lat="37.9669251" lon="13.7259208"><ele>108.0</ele><time>2026-04-06T16:14:13.62Z</time></trkpt><trkpt lat="37.9669523" lon="13.7258155"><ele>108.0</ele><time>2026-04-06T16:14:16.62Z</time></trkpt><trkpt lat="37.9669458" lon="13.7257293"><ele>100.0</ele><time>2026-04-06T16:14:20.62Z</time></trkpt><trkpt lat="37.966949" lon="13.7256436"><ele>100.0</ele><time>2026-04-06T16:14:24.62Z</time></trkpt><trkpt lat="37.9669335" lon="13.7255646"><ele>100.0</ele><time>2026-04-06T16:14:29.621Z</time></trkpt></trkseg><trkseg><trkpt lat="37.970732" lon="13.7132462"><ele>80.5</ele><time>2026-04-06T16:29:14.641Z</time></trkpt><trkpt lat="37.9709246" lon="13.7129555"><ele>81.0</ele><time>2026-04-06T16:29:15.641Z</time></trkpt><trkpt lat="37.97111" lon="13.7126684"><ele>81.0</ele><time>2026-04-06T16:29:16.641Z</time></trkpt><trkpt lat="37.9712979" lon="13.7123793"><ele>81.0</ele><time>2026-04-06T16:29:17.642Z</time></trkpt><trkpt lat="37.9714841" lon="13.712094"><ele>81.5</ele><time>2026-04-06T16:29:18.642Z</time></trkpt><trkpt lat="37.971674" lon="13.7118018"><ele>82.0</ele><time>2026-04-06T16:29:19.641Z</time></trkpt><trkpt lat="37.971867" lon="13.7115123"><ele>82.0</ele><time>2026-04-06T16:29:20.642Z</time></trkpt><trkpt lat="37.9720593" lon="13.7112237"><ele>82.0</ele><time>2026-04-06T16:29:21.641Z</time></trkpt><trkpt lat="37.9722484" lon="13.7109417"><ele>84.5</ele><time>2026-04-06T16:29:22.642Z</time></trkpt><trkpt lat="37.9724364" lon="13.710659"><ele>87.0</ele><time>2026-04-06T16:29:23.642Z</time></trkpt><trkpt lat="37.9726254" lon="13.7103726"><ele>86.0</ele><time>2026-04-06T16:29:24.641Z</time></trkpt><trkpt lat="37.972812" lon="13.7100841"><ele>85.0</ele><time>2026-04-06T16:29:25.641Z</time></trkpt><trkpt lat="37.9729987" lon="13.7097971"><ele>85.0</ele><time>2026-04-06T16:29:26.641Z</time></trkpt><trkpt lat="37.9731763" lon="13.7094991"><ele>85.0</ele><time>2026-04-06T16:29:27.641Z</time></trkpt><trkpt lat="37.973348" lon="13.7091916"><ele>83.5</ele><time>2026-04-06T16:29:28.641Z</time></trkpt><trkpt lat="37.9735116" lon="13.7088787"><ele>82.0</ele><time>2026-04-06T16:29:29.642Z</time></trkpt><trkpt lat="37.9736695" lon="13.7085604"><ele>85.0</ele><time>2026-04-06T16:29:30.641Z</time></trkpt><trkpt lat="37.9738229" lon="13.708236"><ele>88.0</ele><time>2026-04-06T16:29:31.641Z</time></trkpt><trkpt lat="37.973969" lon="13.7079101"><ele>88.5</ele><time>2026-04-06T16:29:32.642Z</time></trkpt><trkpt lat="37.9741083" lon="13.7075798"><ele>89.0</ele><time>2026-04-06T16:29:33.641Z</time></trkpt><trkpt lat="37.9742408" lon="13.7072439"><ele>85.0</ele><time>2026-04-06T16:29:34.641Z</time></trkpt><trkpt lat="37.9743617" lon="13.706902"><ele>81.0</ele><time>2026-04-06T16:29:35.641Z</time></trkpt><trkpt lat="37.9744795" lon="13.7065566"><ele>81.0</ele><time>2026-04-06T16:29:36.642Z</time></trkpt><trkpt lat="37.9745887" lon="13.7062064"><ele>81.0</ele><time>2026-04-06T16:29:37.641Z</time></trkpt><trkpt lat="37.9746918" lon="13.7058548"><ele>83.0</ele><time>2026-04-06T16:29:38.641Z</time></trkpt><trkpt lat="37.9747905" lon="13.7055044"><ele>85.0</ele><time>2026-04-06T16:29:39.641Z</time></trkpt><trkpt lat="37.9748861" lon="13.7051564"><ele>86.0</ele><time>2026-04-06T16:29:40.641Z</time></trkpt><trkpt lat="37.9749782" lon="13.7048023"><ele>87.0</ele><time>2026-04-06T16:29:41.641Z</time></trkpt><trkpt lat="37.9750654" lon="13.7044482"><ele>85.0</ele><time>2026-04-06T16:29:42.641Z</time></trkpt><trkpt lat="37.9751491" lon="13.7040876"><ele>83.0</ele><time>2026-04-06T16:29:43.641Z</time></trkpt><trkpt lat="37.9752151" lon="13.7037262"><ele>81.5</ele><time>2026-04-06T16:29:44.642Z</time></trkpt><trkpt lat="37.9752764" lon="13.7033632"><ele>80.0</ele><time>2026-04-06T16:29:45.642Z</time></trkpt><trkpt lat="37.9753294" lon="13.7029981"><ele>77.5</ele><time>2026-04-06T16:29:46.641Z</time></trkpt><trkpt lat="37.9753751" lon="13.7026265"><ele>75.0</ele><time>2026-04-06T16:29:47.641Z</time></trkpt><trkpt lat="37.9754101" lon="13.7022536"><ele>74.5</ele><time>2026-04-06T16:29:48.641Z</time></trkpt><trkpt lat="37.9754365" lon="13.7018822"><ele>74.0</ele><time>2026-04-06T16:29:49.641Z</time></trkpt><trkpt lat="37.9754587" lon="13.7015079"><ele>74.0</ele><time>2026-04-06T16:29:50.641Z</time></trkpt><trkpt lat="37.9754726" lon="13.7011343"><ele>74.0</ele><time>2026-04-06T16:29:51.641Z</time></trkpt><trkpt lat="37.9754786" lon="13.7007614"><ele>76.5</ele><time>2026-04-06T16:29:52.641Z</time></trkpt><trkpt lat="37.9754755" lon="13.7003939"><ele>79.0</ele><time>2026-04-06T16:29:53.641Z</time></trkpt><trkpt lat="37.9754671" lon="13.7000198"><ele>80.5</ele><time>2026-04-06T16:29:54.641Z</time></trkpt><trkpt lat="37.9754554" lon="13.6996468"><ele>82.0</ele><time>2026-04-06T16:29:55.641Z</time></trkpt><trkpt lat="37.9754416" lon="13.6992702"><ele>82.0</ele><time>2026-04-06T16:29:56.641Z</time></trkpt><trkpt lat="37.9754204" lon="13.698898"><ele>82.0</ele><time>2026-04-06T16:29:57.641Z</time></trkpt><trkpt lat="37.9753967" lon="13.6985204"><ele>78.0</ele><time>2026-04-06T16:29:58.641Z</time></trkpt><trkpt lat="37.9753588" lon="13.6981525"><ele>74.0</ele><time>2026-04-06T16:29:59.641Z</time></trkpt><trkpt lat="37.9753031" lon="13.6977922"><ele>72.5</ele><time>2026-04-06T16:30:00.641Z</time></trkpt><trkpt lat="37.975245" lon="13.6974255"><ele>71.0</ele><time>2026-04-06T16:30:01.642Z</time></trkpt><trkpt lat="37.9751745" lon="13.6970586"><ele>71.5</ele><time>2026-04-06T16:30:02.642Z</time></trkpt><trkpt lat="37.9751052" lon="13.6966979"><ele>72.0</ele><time>2026-04-06T16:30:03.641Z</time></trkpt><trkpt lat="37.975028" lon="13.6963367"><ele>78.0</ele><time>2026-04-06T16:30:04.641Z</time></trkpt><trkpt lat="37.9749393" lon="13.69598"><ele>84.0</ele><time>2026-04-06T16:30:05.641Z</time></trkpt><trkpt lat="37.9748444" lon="13.6956238"><ele>84.0</ele><time>2026-04-06T16:30:06.642Z</time></trkpt><trkpt lat="37.9747517" lon="13.6952648"><ele>84.0</ele><time>2026-04-06T16:30:07.641Z</time></trkpt><trkpt lat="37.9746535" lon="13.6949081"><ele>80.5</ele><time>2026-04-06T16:30:08.641Z</time></trkpt><trkpt lat="37.9745525" lon="13.6945564"><ele>77.0</ele><time>2026-04-06T16:30:09.641Z</time></trkpt><trkpt lat="37.9744548" lon="13.6942019"><ele>72.5</ele><time>2026-04-06T16:30:10.641Z</time></trkpt><trkpt lat="37.9743625" lon="13.6938506"><ele>68.0</ele><time>2026-04-06T16:30:11.641Z</time></trkpt><trkpt lat="37.9742695" lon="13.6934978"><ele>68.0</ele><time>2026-04-06T16:30:12.641Z</time></trkpt><trkpt lat="37.9741762" lon="13.6931469"><ele>68.0</ele><time>2026-04-06T16:30:13.641Z</time></trkpt><trkpt lat="37.9740796" lon="13.6927938"><ele>69.5</ele><time>2026-04-06T16:30:14.641Z</time></trkpt><trkpt lat="37.9739873" lon="13.6924381"><ele>71.0</ele><time>2026-04-06T16:30:15.642Z</time></trkpt><trkpt lat="37.9739077" lon="13.6920774"><ele>72.5</ele><time>2026-04-06T16:30:16.641Z</time></trkpt><trkpt lat="37.9738389" lon="13.6917153"><ele>74.0</ele><time>2026-04-06T16:30:17.641Z</time></trkpt><trkpt lat="37.9737786" lon="13.6913511"><ele>72.5</ele><time>2026-04-06T16:30:18.641Z</time></trkpt><trkpt lat="37.9737213" lon="13.6909838"><ele>71.0</ele><time>2026-04-06T16:30:19.642Z</time></trkpt><trkpt lat="37.9736735" lon="13.6906164"><ele>71.0</ele><time>2026-04-06T16:30:20.642Z</time></trkpt><trkpt lat="37.9736343" lon="13.6902483"><ele>71.0</ele><time>2026-04-06T16:30:21.641Z</time></trkpt><trkpt lat="37.9736056" lon="13.6898777"><ele>71.0</ele><time>2026-04-06T16:30:22.641Z</time></trkpt><trkpt lat="37.9735839" lon="13.6895082"><ele>71.0</ele><time>2026-04-06T16:30:23.641Z</time></trkpt><trkpt lat="37.9735755" lon="13.6891374"><ele>71.0</ele><time>2026-04-06T16:30:24.642Z</time></trkpt><trkpt lat="37.9735731" lon="13.6887654"><ele>71.0</ele><time>2026-04-06T16:30:25.641Z</time></trkpt><trkpt lat="37.9735832" lon="13.6883939"><ele>69.0</ele><time>2026-04-06T16:30:26.642Z</time></trkpt><trkpt lat="37.9736025" lon="13.6880145"><ele>67.0</ele><time>2026-04-06T16:30:27.642Z</time></trkpt><trkpt lat="37.9736346" lon="13.6876445"><ele>67.0</ele><time>2026-04-06T16:30:28.642Z</time></trkpt><trkpt lat="37.9736885" lon="13.6872744"><ele>67.0</ele><time>2026-04-06T16:30:29.641Z</time></trkpt><trkpt lat="37.9737625" lon="13.6869165"><ele>70.5</ele><time>2026-04-06T16:30:30.641Z</time></trkpt><trkpt lat="37.9738476" lon="13.6865635"><ele>74.0</ele><time>2026-04-06T16:30:31.641Z</time></trkpt><trkpt lat="37.9739524" lon="13.6862166"><ele>82.0</ele><time>2026-04-06T16:30:32.641Z</time></trkpt><trkpt lat="37.9740653" lon="13.6858759"><ele>90.0</ele><time>2026-04-06T16:30:33.641Z</time></trkpt><trkpt lat="37.9741714" lon="13.6855304"><ele>83.0</ele><time>2026-04-06T16:30:34.642Z</time></trkpt><trkpt lat="37.9753334" lon="13.6816864"><ele>83.0</ele><time>2026-04-06T16:30:45.641Z</time></trkpt><trkpt lat="37.9754461" lon="13.6813094"><ele>83.0</ele><time>2026-04-06T16:30:46.641Z</time></trkpt><trkpt lat="37.9756102" lon="13.6809934"><ele>86.5</ele><time>2026-04-06T16:30:47.641Z</time></trkpt><trkpt lat="37.9757542" lon="13.6806903"><ele>90.0</ele><time>2026-04-06T16:30:48.642Z</time></trkpt><trkpt lat="37.9759009" lon="13.6803732"><ele>80.5</ele><time>2026-04-06T16:30:49.641Z</time></trkpt><trkpt lat="37.9760442" lon="13.6800476"><ele>71.0</ele><time>2026-04-06T16:30:50.642Z</time></trkpt><trkpt lat="37.9761914" lon="13.6797271"><ele>78.0</ele><time>2026-04-06T16:30:51.642Z</time></trkpt><trkpt lat="37.976342" lon="13.6794057"><ele>85.0</ele><time>2026-04-06T16:30:52.641Z</time></trkpt><trkpt lat="37.9764937" lon="13.6790838"><ele>85.0</ele><time>2026-04-06T16:30:53.641Z</time></trkpt><trkpt lat="37.9766386" lon="13.678763"><ele>85.0</ele><time>2026-04-06T16:30:54.642Z</time></trkpt><trkpt lat="37.9767836" lon="13.6784381"><ele>85.5</ele><time>2026-04-06T16:30:55.642Z</time></trkpt><trkpt lat="37.9769333" lon="13.6781161"><ele>86.0</ele><time>2026-04-06T16:30:56.641Z</time></trkpt><trkpt lat="37.9770839" lon="13.6777916"><ele>92.5</ele><time>2026-04-06T16:30:57.641Z</time></trkpt><trkpt lat="37.977228" lon="13.6774652"><ele>99.0</ele><time>2026-04-06T16:30:58.641Z</time></trkpt><trkpt lat="37.9773754" lon="13.6771394"><ele>92.0</ele><time>2026-04-06T16:30:59.641Z</time></trkpt><trkpt lat="37.9775233" lon="13.6768136"><ele>85.0</ele><time>2026-04-06T16:31:00.641Z</time></trkpt><trkpt lat="37.9776691" lon="13.6764877"><ele>85.0</ele><time>2026-04-06T16:31:01.641Z</time></trkpt><trkpt lat="37.977817" lon="13.6761621"><ele>85.0</ele><time>2026-04-06T16:31:02.641Z</time></trkpt><trkpt lat="37.977968" lon="13.6758322"><ele>88.5</ele><time>2026-04-06T16:31:03.641Z</time></trkpt><trkpt lat="37.9781127" lon="13.675501"><ele>92.0</ele><time>2026-04-06T16:31:04.641Z</time></trkpt><trkpt lat="37.9782643" lon="13.6751597"><ele>93.5</ele><time>2026-04-06T16:31:05.641Z</time></trkpt><trkpt lat="37.9784226" lon="13.6748257"><ele>95.0</ele><time>2026-04-06T16:31:06.641Z</time></trkpt><trkpt lat="37.9785791" lon="13.6744901"><ele>91.0</ele><time>2026-04-06T16:31:07.641Z</time></trkpt><trkpt lat="37.9787358" lon="13.6741585"><ele>87.0</ele><time>2026-04-06T16:31:08.642Z</time></trkpt><trkpt lat="37.9788911" lon="13.6738234"><ele>75.0</ele><time>2026-04-06T16:31:09.641Z</time></trkpt><trkpt lat="37.9790472" lon="13.6734885"><ele>63.0</ele><time>2026-04-06T16:31:10.641Z</time></trkpt><trkpt lat="37.9792024" lon="13.6731581"><ele>51.5</ele><time>2026-04-06T16:31:11.641Z</time></trkpt><trkpt lat="37.9793576" lon="13.6728247"><ele>40.0</ele><time>2026-04-06T16:31:12.641Z</time></trkpt><trkpt lat="37.9795132" lon="13.6724897"><ele>40.0</ele><time>2026-04-06T16:31:13.642Z</time></trkpt><trkpt lat="37.9796643" lon="13.6721561"><ele>40.0</ele><time>2026-04-06T16:31:14.637Z</time></trkpt><trkpt lat="37.9798182" lon="13.671818"><ele>48.5</ele><time>2026-04-06T16:31:15.641Z</time></trkpt><trkpt lat="37.9799716" lon="13.6714864"><ele>57.0</ele><time>2026-04-06T16:31:16.641Z</time></trkpt><trkpt lat="37.9801214" lon="13.6711525"><ele>67.5</ele><time>2026-04-06T16:31:17.641Z</time></trkpt><trkpt lat="37.9802767" lon="13.6708176"><ele>78.0</ele><time>2026-04-06T16:31:18.641Z</time></trkpt><trkpt lat="37.9804296" lon="13.6704884"><ele>87.5</ele><time>2026-04-06T16:31:19.642Z</time></trkpt><trkpt lat="37.9805808" lon="13.6701574"><ele>97.0</ele><time>2026-04-06T16:31:20.641Z</time></trkpt><trkpt lat="37.9807329" lon="13.6698227"><ele>90.0</ele><time>2026-04-06T16:31:21.641Z</time></trkpt><trkpt lat="37.9808836" lon="13.6694948"><ele>83.0</ele><time>2026-04-06T16:31:22.641Z</time></trkpt><trkpt lat="37.9810342" lon="13.6691622"><ele>97.5</ele><time>2026-04-06T16:31:23.641Z</time></trkpt><trkpt lat="37.9811839" lon="13.6688271"><ele>112.0</ele><time>2026-04-06T16:31:24.641Z</time></trkpt><trkpt lat="37.9813291" lon="13.6684906"><ele>118.5</ele><time>2026-04-06T16:31:25.641Z</time></trkpt><trkpt lat="37.9814705" lon="13.6681483"><ele>125.0</ele><time>2026-04-06T16:31:26.641Z</time></trkpt><trkpt lat="37.9816016" lon="13.6678027"><ele>124.5</ele><time>2026-04-06T16:31:27.642Z</time></trkpt><trkpt lat="37.9817325" lon="13.6674589"><ele>124.0</ele><time>2026-04-06T16:31:28.641Z</time></trkpt><trkpt lat="37.9818563" lon="13.6671056"><ele>124.0</ele><time>2026-04-06T16:31:29.641Z</time></trkpt><trkpt lat="37.981974" lon="13.6667524"><ele>124.0</ele><time>2026-04-06T16:31:30.641Z</time></trkpt><trkpt lat="37.9820838" lon="13.6663924"><ele>125.0</ele><time>2026-04-06T16:31:31.641Z</time></trkpt><trkpt lat="37.9821851" lon="13.6660284"><ele>126.0</ele><time>2026-04-06T16:31:32.641Z</time></trkpt><trkpt lat="37.9822777" lon="13.6656629"><ele>126.0</ele><time>2026-04-06T16:31:33.641Z</time></trkpt><trkpt lat="37.9823631" lon="13.6652966"><ele>126.0</ele><time>2026-04-06T16:31:34.641Z</time></trkpt><trkpt lat="37.9824438" lon="13.6649235"><ele>124.5</ele><time>2026-04-06T16:31:35.641Z</time></trkpt><trkpt lat="37.9825248" lon="13.6645508"><ele>123.0</ele><time>2026-04-06T16:31:36.641Z</time></trkpt><trkpt lat="37.9826074" lon="13.6641808"><ele>123.0</ele><time>2026-04-06T16:31:37.641Z</time></trkpt><trkpt lat="37.9826871" lon="13.6638084"><ele>123.0</ele><time>2026-04-06T16:31:38.641Z</time></trkpt><trkpt lat="37.982763" lon="13.6634349"><ele>124.0</ele><time>2026-04-06T16:31:39.642Z</time></trkpt><trkpt lat="37.982844" lon="13.663061"><ele>125.0</ele><time>2026-04-06T16:31:40.641Z</time></trkpt><trkpt lat="37.982923" lon="13.6626895"><ele>128.0</ele><time>2026-04-06T16:31:41.641Z</time></trkpt><trkpt lat="37.9830067" lon="13.6623263"><ele>131.0</ele><time>2026-04-06T16:31:42.641Z</time></trkpt><trkpt lat="37.9830893" lon="13.6619792"><ele>134.5</ele><time>2026-04-06T16:31:43.641Z</time></trkpt><trkpt lat="37.9831868" lon="13.6616422"><ele>138.0</ele><time>2026-04-06T16:31:44.641Z</time></trkpt><trkpt lat="37.9832927" lon="13.6613126"><ele>131.5</ele><time>2026-04-06T16:31:45.642Z</time></trkpt><trkpt lat="37.9834057" lon="13.6609884"><ele>125.0</ele><time>2026-04-06T16:31:46.641Z</time></trkpt><trkpt lat="37.9835337" lon="13.66067"><ele>125.0</ele><time>2026-04-06T16:31:47.641Z</time></trkpt><trkpt lat="37.9836663" lon="13.6603556"><ele>125.0</ele><time>2026-04-06T16:31:48.641Z</time></trkpt><trkpt lat="37.9838156" lon="13.6600405"><ele>129.0</ele><time>2026-04-06T16:31:49.641Z</time></trkpt><trkpt lat="37.9839702" lon="13.6597315"><ele>133.0</ele><time>2026-04-06T16:31:50.641Z</time></trkpt><trkpt lat="37.9841372" lon="13.6594251"><ele>130.0</ele><time>2026-04-06T16:31:51.642Z</time></trkpt><trkpt lat="37.9843093" lon="13.6591216"><ele>127.0</ele><time>2026-04-06T16:31:52.642Z</time></trkpt><trkpt lat="37.9844931" lon="13.6588197"><ele>128.5</ele><time>2026-04-06T16:31:53.641Z</time></trkpt><trkpt lat="37.9846905" lon="13.6585236"><ele>130.0</ele><time>2026-04-06T16:31:54.641Z</time></trkpt><trkpt lat="37.984898" lon="13.6582328"><ele>125.0</ele><time>2026-04-06T16:31:55.641Z</time></trkpt><trkpt lat="37.9851276" lon="13.6579369"><ele>120.0</ele><time>2026-04-06T16:31:56.641Z</time></trkpt><trkpt lat="37.9853721" lon="13.6576503"><ele>120.0</ele><time>2026-04-06T16:31:57.642Z</time></trkpt><trkpt lat="37.9856159" lon="13.6573803"><ele>120.0</ele><time>2026-04-06T16:31:58.641Z</time></trkpt><trkpt lat="37.9858622" lon="13.6571239"><ele>117.5</ele><time>2026-04-06T16:31:59.642Z</time></trkpt><trkpt lat="37.98611" lon="13.6568783"><ele>115.0</ele><time>2026-04-06T16:32:00.641Z</time></trkpt><trkpt lat="37.9863708" lon="13.6566529"><ele>115.0</ele><time>2026-04-06T16:32:01.642Z</time></trkpt><trkpt lat="37.9866307" lon="13.6564345"><ele>115.0</ele><time>2026-04-06T16:32:02.641Z</time></trkpt><trkpt lat="37.9868955" lon="13.6562312"><ele>119.0</ele><time>2026-04-06T16:32:03.641Z</time></trkpt><trkpt lat="37.9871575" lon="13.6560467"><ele>123.0</ele><time>2026-04-06T16:32:04.642Z</time></trkpt><trkpt lat="37.9874255" lon="13.6558716"><ele>115.5</ele><time>2026-04-06T16:32:05.641Z</time></trkpt><trkpt lat="37.987699" lon="13.6557065"><ele>108.0</ele><time>2026-04-06T16:32:06.642Z</time></trkpt><trkpt lat="37.9879773" lon="13.6555586"><ele>108.0</ele><time>2026-04-06T16:32:07.641Z</time></trkpt><trkpt lat="37.9882575" lon="13.6554245"><ele>108.0</ele><time>2026-04-06T16:32:08.641Z</time></trkpt><trkpt lat="37.9885399" lon="13.6553016"><ele>114.0</ele><time>2026-04-06T16:32:09.641Z</time></trkpt><trkpt lat="37.988831" lon="13.6551849"><ele>120.0</ele><time>2026-04-06T16:32:10.641Z</time></trkpt><trkpt lat="37.9891236" lon="13.6550561"><ele>115.0</ele><time>2026-04-06T16:32:11.641Z</time></trkpt><trkpt lat="37.9894181" lon="13.6549228"><ele>110.0</ele><time>2026-04-06T16:32:12.641Z</time></trkpt><trkpt lat="37.9897134" lon="13.6547865"><ele>110.0</ele><time>2026-04-06T16:32:13.641Z</time></trkpt><trkpt lat="37.9900017" lon="13.6546389"><ele>110.0</ele><time>2026-04-06T16:32:14.641Z</time></trkpt><trkpt lat="37.9902859" lon="13.6544809"><ele>115.0</ele><time>2026-04-06T16:32:15.642Z</time></trkpt><trkpt lat="37.9905662" lon="13.654305"><ele>120.0</ele><time>2026-04-06T16:32:16.642Z</time></trkpt><trkpt lat="37.9921261" lon="13.653016"><ele>120.5</ele><time>2026-04-06T16:32:22.641Z</time></trkpt><trkpt lat="37.9923398" lon="13.6527859"><ele>121.0</ele><time>2026-04-06T16:32:23.641Z</time></trkpt><trkpt lat="37.9925705" lon="13.6525285"><ele>114.5</ele><time>2026-04-06T16:32:24.642Z</time></trkpt><trkpt lat="37.9928008" lon="13.6522785"><ele>108.0</ele><time>2026-04-06T16:32:25.641Z</time></trkpt><trkpt lat="37.9930403" lon="13.6520023"><ele>83.0</ele><time>2026-04-06T16:32:26.641Z</time></trkpt><trkpt lat="37.9944262" lon="13.6500371"><ele>83.0</ele><time>2026-04-06T16:32:33.641Z</time></trkpt><trkpt lat="37.9946403" lon="13.649736"><ele>83.0</ele><time>2026-04-06T16:32:34.641Z</time></trkpt><trkpt lat="37.9948414" lon="13.6494516"><ele>81.0</ele><time>2026-04-06T16:32:35.641Z</time></trkpt><trkpt lat="37.995051" lon="13.6491659"><ele>79.0</ele><time>2026-04-06T16:32:36.641Z</time></trkpt><trkpt lat="37.9952559" lon="13.6488793"><ele>86.5</ele><time>2026-04-06T16:32:37.641Z</time></trkpt><trkpt lat="37.9954626" lon="13.6485908"><ele>94.0</ele><time>2026-04-06T16:32:38.641Z</time></trkpt><trkpt lat="37.9956674" lon="13.6483008"><ele>92.0</ele><time>2026-04-06T16:32:39.641Z</time></trkpt><trkpt lat="37.9958757" lon="13.6480146"><ele>90.0</ele><time>2026-04-06T16:32:40.641Z</time></trkpt><trkpt lat="37.9960724" lon="13.6477287"><ele>100.0</ele><time>2026-04-06T16:32:41.641Z</time></trkpt><trkpt lat="37.9962592" lon="13.6474496"><ele>110.0</ele><time>2026-04-06T16:32:42.642Z</time></trkpt><trkpt lat="37.997916" lon="13.6446978"><ele>93.0</ele><time>2026-04-06T16:32:51.642Z</time></trkpt><trkpt lat="37.9981455" lon="13.6443746"><ele>76.0</ele><time>2026-04-06T16:32:52.641Z</time></trkpt><trkpt lat="37.9983079" lon="13.6440363"><ele>62.5</ele><time>2026-04-06T16:32:53.641Z</time></trkpt><trkpt lat="37.9984386" lon="13.6436912"><ele>49.0</ele><time>2026-04-06T16:32:54.648Z</time></trkpt><trkpt lat="37.998549" lon="13.6433307"><ele>49.0</ele><time>2026-04-06T16:32:55.648Z</time></trkpt><trkpt lat="37.998655" lon="13.6429745"><ele>49.0</ele><time>2026-04-06T16:32:56.649Z</time></trkpt><trkpt lat="37.99875" lon="13.6426138"><ele>51.5</ele><time>2026-04-06T16:32:57.649Z</time></trkpt><trkpt lat="37.9988339" lon="13.6422397"><ele>54.0</ele><time>2026-04-06T16:32:58.648Z</time></trkpt><trkpt lat="37.9988987" lon="13.6418632"><ele>55.5</ele><time>2026-04-06T16:32:59.648Z</time></trkpt><trkpt lat="37.9989584" lon="13.641486"><ele>57.0</ele><time>2026-04-06T16:33:00.648Z</time></trkpt><trkpt lat="37.9990063" lon="13.6411109"><ele>60.5</ele><time>2026-04-06T16:33:01.648Z</time></trkpt><trkpt lat="37.9990606" lon="13.6407277"><ele>64.0</ele><time>2026-04-06T16:33:02.649Z</time></trkpt><trkpt lat="37.999115" lon="13.6403402"><ele>53.0</ele><time>2026-04-06T16:33:03.648Z</time></trkpt><trkpt lat="37.9991801" lon="13.6399557"><ele>42.0</ele><time>2026-04-06T16:33:04.649Z</time></trkpt><trkpt lat="37.9992444" lon="13.6395759"><ele>41.5</ele><time>2026-04-06T16:33:05.648Z</time></trkpt><trkpt lat="37.9993204" lon="13.639201"><ele>41.0</ele><time>2026-04-06T16:33:06.648Z</time></trkpt><trkpt lat="37.999413" lon="13.6388279"><ele>42.0</ele><time>2026-04-06T16:33:07.648Z</time></trkpt><trkpt lat="37.9995063" lon="13.6384636"><ele>43.0</ele><time>2026-04-06T16:33:08.648Z</time></trkpt><trkpt lat="37.9996108" lon="13.6381038"><ele>44.5</ele><time>2026-04-06T16:33:09.648Z</time></trkpt><trkpt lat="37.9997301" lon="13.6377486"><ele>46.0</ele><time>2026-04-06T16:33:10.648Z</time></trkpt><trkpt lat="37.999861" lon="13.6373994"><ele>46.0</ele><time>2026-04-06T16:33:11.648Z</time></trkpt><trkpt lat="37.9999982" lon="13.6370551"><ele>46.0</ele><time>2026-04-06T16:33:12.649Z</time></trkpt><trkpt lat="38.0001401" lon="13.6367124"><ele>46.5</ele><time>2026-04-06T16:33:13.648Z</time></trkpt><trkpt lat="38.0002901" lon="13.636378"><ele>47.0</ele><time>2026-04-06T16:33:14.648Z</time></trkpt><trkpt lat="38.0004512" lon="13.6360493"><ele>47.5</ele><time>2026-04-06T16:33:15.648Z</time></trkpt><trkpt lat="38.0006192" lon="13.6357303"><ele>48.0</ele><time>2026-04-06T16:33:16.649Z</time></trkpt><trkpt lat="38.0008003" lon="13.6354192"><ele>46.0</ele><time>2026-04-06T16:33:17.648Z</time></trkpt><trkpt lat="38.0009765" lon="13.6351059"><ele>44.0</ele><time>2026-04-06T16:33:18.648Z</time></trkpt><trkpt lat="38.001147" lon="13.6347891"><ele>41.5</ele><time>2026-04-06T16:33:19.649Z</time></trkpt><trkpt lat="38.0013205" lon="13.6344692"><ele>39.0</ele><time>2026-04-06T16:33:20.648Z</time></trkpt><trkpt lat="38.0014904" lon="13.6341504"><ele>39.0</ele><time>2026-04-06T16:33:21.648Z</time></trkpt><trkpt lat="38.0016471" lon="13.6338194"><ele>39.0</ele><time>2026-04-06T16:33:22.648Z</time></trkpt><trkpt lat="38.0017994" lon="13.6334835"><ele>37.5</ele><time>2026-04-06T16:33:23.649Z</time></trkpt><trkpt lat="38.0019369" lon="13.6331424"><ele>36.0</ele><time>2026-04-06T16:33:24.648Z</time></trkpt><trkpt lat="38.002066" lon="13.6327906"><ele>36.0</ele><time>2026-04-06T16:33:25.648Z</time></trkpt><trkpt lat="38.0021839" lon="13.6324488"><ele>36.0</ele><time>2026-04-06T16:33:26.648Z</time></trkpt><trkpt lat="38.0022927" lon="13.6321177"><ele>38.0</ele><time>2026-04-06T16:33:27.648Z</time></trkpt><trkpt lat="38.0023997" lon="13.6317867"><ele>40.0</ele><time>2026-04-06T16:33:28.648Z</time></trkpt><trkpt lat="38.0025037" lon="13.631459"><ele>43.0</ele><time>2026-04-06T16:33:29.649Z</time></trkpt><trkpt lat="38.0026152" lon="13.631128"><ele>46.0</ele><time>2026-04-06T16:33:30.648Z</time></trkpt><trkpt lat="38.0027237" lon="13.630792"><ele>46.0</ele><time>2026-04-06T16:33:31.648Z</time></trkpt><trkpt lat="38.002834" lon="13.630457"><ele>46.0</ele><time>2026-04-06T16:33:32.649Z</time></trkpt><trkpt lat="38.0029454" lon="13.6301164"><ele>48.0</ele><time>2026-04-06T16:33:33.648Z</time></trkpt><trkpt lat="38.0030611" lon="13.6297679"><ele>50.0</ele><time>2026-04-06T16:33:34.649Z</time></trkpt><trkpt lat="38.0031767" lon="13.6294221"><ele>51.0</ele><time>2026-04-06T16:33:35.648Z</time></trkpt><trkpt lat="38.0032961" lon="13.6290776"><ele>52.0</ele><time>2026-04-06T16:33:36.648Z</time></trkpt><trkpt lat="38.0034082" lon="13.6287354"><ele>44.0</ele><time>2026-04-06T16:33:37.648Z</time></trkpt><trkpt lat="38.0035214" lon="13.6283962"><ele>36.0</ele><time>2026-04-06T16:33:38.648Z</time></trkpt><trkpt lat="38.0036299" lon="13.6280552"><ele>36.0</ele><time>2026-04-06T16:33:39.648Z</time></trkpt><trkpt lat="38.0037423" lon="13.6277055"><ele>36.0</ele><time>2026-04-06T16:33:40.648Z</time></trkpt><trkpt lat="38.0038641" lon="13.6273606"><ele>36.0</ele><time>2026-04-06T16:33:41.648Z</time></trkpt><trkpt lat="38.0039718" lon="13.6270159"><ele>36.0</ele><time>2026-04-06T16:33:42.648Z</time></trkpt><trkpt lat="38.0040883" lon="13.6266741"><ele>35.0</ele><time>2026-04-06T16:33:43.648Z</time></trkpt><trkpt lat="38.0042029" lon="13.6263267"><ele>34.0</ele><time>2026-04-06T16:33:44.649Z</time></trkpt><trkpt lat="38.0043254" lon="13.6259699"><ele>34.0</ele><time>2026-04-06T16:33:45.648Z</time></trkpt><trkpt lat="38.0044505" lon="13.6256012"><ele>34.0</ele><time>2026-04-06T16:33:46.648Z</time></trkpt><trkpt lat="38.0045715" lon="13.6252353"><ele>34.5</ele><time>2026-04-06T16:33:47.648Z</time></trkpt><trkpt lat="38.0046938" lon="13.6248733"><ele>35.0</ele><time>2026-04-06T16:33:48.649Z</time></trkpt><trkpt lat="38.0048148" lon="13.6245117"><ele>32.0</ele><time>2026-04-06T16:33:49.648Z</time></trkpt><trkpt lat="38.0049319" lon="13.624159"><ele>29.0</ele><time>2026-04-06T16:33:50.648Z</time></trkpt><trkpt lat="38.0050536" lon="13.6238095"><ele>27.5</ele><time>2026-04-06T16:33:51.648Z</time></trkpt><trkpt lat="38.0051859" lon="13.6234571"><ele>26.0</ele><time>2026-04-06T16:33:52.649Z</time></trkpt><trkpt lat="38.0053239" lon="13.6231206"><ele>28.5</ele><time>2026-04-06T16:33:53.648Z</time></trkpt><trkpt lat="38.0054768" lon="13.6227824"><ele>31.0</ele><time>2026-04-06T16:33:54.649Z</time></trkpt><trkpt lat="38.0056331" lon="13.6224548"><ele>31.0</ele><time>2026-04-06T16:33:55.648Z</time></trkpt><trkpt lat="38.0057938" lon="13.6221327"><ele>31.0</ele><time>2026-04-06T16:33:56.648Z</time></trkpt><trkpt lat="38.0059668" lon="13.6218137"><ele>31.0</ele><time>2026-04-06T16:33:57.648Z</time></trkpt><trkpt lat="38.0061476" lon="13.6215007"><ele>31.0</ele><time>2026-04-06T16:33:58.648Z</time></trkpt><trkpt lat="38.0063365" lon="13.6211951"><ele>30.0</ele><time>2026-04-06T16:33:59.648Z</time></trkpt><trkpt lat="38.0065329" lon="13.6208983"><ele>29.0</ele><time>2026-04-06T16:34:00.649Z</time></trkpt><trkpt lat="38.0067305" lon="13.6206002"><ele>31.0</ele><time>2026-04-06T16:34:01.648Z</time></trkpt><trkpt lat="38.006924" lon="13.6203001"><ele>33.0</ele><time>2026-04-06T16:34:02.648Z</time></trkpt><trkpt lat="38.0071125" lon="13.6199985"><ele>33.0</ele><time>2026-04-06T16:34:03.648Z</time></trkpt><trkpt lat="38.0073004" lon="13.6196982"><ele>33.0</ele><time>2026-04-06T16:34:04.649Z</time></trkpt><trkpt lat="38.0074844" lon="13.6194004"><ele>31.5</ele><time>2026-04-06T16:34:05.648Z</time></trkpt><trkpt lat="38.0076716" lon="13.6190982"><ele>30.0</ele><time>2026-04-06T16:34:06.648Z</time></trkpt><trkpt lat="38.0078588" lon="13.6187998"><ele>31.5</ele><time>2026-04-06T16:34:07.649Z</time></trkpt><trkpt lat="38.0080482" lon="13.6185018"><ele>33.0</ele><time>2026-04-06T16:34:08.649Z</time></trkpt><trkpt lat="38.0082349" lon="13.6182007"><ele>33.0</ele><time>2026-04-06T16:34:09.648Z</time></trkpt><trkpt lat="38.0084252" lon="13.6179028"><ele>33.0</ele><time>2026-04-06T16:34:10.649Z</time></trkpt><trkpt lat="38.0086154" lon="13.6176027"><ele>33.0</ele><time>2026-04-06T16:34:11.648Z</time></trkpt><trkpt lat="38.008808" lon="13.6173012"><ele>33.0</ele><time>2026-04-06T16:34:12.648Z</time></trkpt><trkpt lat="38.0089969" lon="13.6169983"><ele>37.0</ele><time>2026-04-06T16:34:13.648Z</time></trkpt><trkpt lat="38.0091892" lon="13.6166988"><ele>41.0</ele><time>2026-04-06T16:34:14.648Z</time></trkpt><trkpt lat="38.009378" lon="13.6163952"><ele>45.5</ele><time>2026-04-06T16:34:15.648Z</time></trkpt><trkpt lat="38.0095676" lon="13.6160875"><ele>50.0</ele><time>2026-04-06T16:34:16.649Z</time></trkpt><trkpt lat="38.0097567" lon="13.6157819"><ele>50.0</ele><time>2026-04-06T16:34:17.648Z</time></trkpt><trkpt lat="38.0099461" lon="13.6154778"><ele>50.0</ele><time>2026-04-06T16:34:18.649Z</time></trkpt><trkpt lat="38.0101354" lon="13.6151717"><ele>50.5</ele><time>2026-04-06T16:34:19.649Z</time></trkpt><trkpt lat="38.0103253" lon="13.6148713"><ele>51.0</ele><time>2026-04-06T16:34:20.648Z</time></trkpt><trkpt lat="38.010514" lon="13.6145636"><ele>50.0</ele><time>2026-04-06T16:34:21.649Z</time></trkpt><trkpt lat="38.0106996" lon="13.6142612"><ele>49.0</ele><time>2026-04-06T16:34:22.648Z</time></trkpt><trkpt lat="38.0108867" lon="13.6139567"><ele>50.0</ele><time>2026-04-06T16:34:23.648Z</time></trkpt><trkpt lat="38.0110771" lon="13.6136505"><ele>51.0</ele><time>2026-04-06T16:34:24.649Z</time></trkpt><trkpt lat="38.0112653" lon="13.6133506"><ele>51.0</ele><time>2026-04-06T16:34:25.648Z</time></trkpt><trkpt lat="38.0114555" lon="13.6130502"><ele>51.0</ele><time>2026-04-06T16:34:26.648Z</time></trkpt><trkpt lat="38.0116494" lon="13.6127469"><ele>56.0</ele><time>2026-04-06T16:34:27.648Z</time></trkpt><trkpt lat="38.0118394" lon="13.6124388"><ele>61.0</ele><time>2026-04-06T16:34:28.649Z</time></trkpt><trkpt lat="38.012027" lon="13.6121401"><ele>64.5</ele><time>2026-04-06T16:34:29.648Z</time></trkpt><trkpt lat="38.0122193" lon="13.6118442"><ele>68.0</ele><time>2026-04-06T16:34:30.649Z</time></trkpt><trkpt lat="38.0124079" lon="13.6115446"><ele>67.0</ele><time>2026-04-06T16:34:31.648Z</time></trkpt><trkpt lat="38.0126021" lon="13.6112473"><ele>66.0</ele><time>2026-04-06T16:34:32.649Z</time></trkpt><trkpt lat="38.012799" lon="13.6109516"><ele>66.0</ele><time>2026-04-06T16:34:33.649Z</time></trkpt><trkpt lat="38.0129969" lon="13.6106598"><ele>66.0</ele><time>2026-04-06T16:34:34.648Z</time></trkpt><trkpt lat="38.0131933" lon="13.6103572"><ele>63.5</ele><time>2026-04-06T16:34:35.648Z</time></trkpt><trkpt lat="38.0133828" lon="13.6100597"><ele>61.0</ele><time>2026-04-06T16:34:36.648Z</time></trkpt><trkpt lat="38.0135711" lon="13.6097597"><ele>62.5</ele><time>2026-04-06T16:34:37.648Z</time></trkpt><trkpt lat="38.0137601" lon="13.6094565"><ele>64.0</ele><time>2026-04-06T16:34:38.649Z</time></trkpt><trkpt lat="38.0139517" lon="13.6091533"><ele>64.0</ele><time>2026-04-06T16:34:39.648Z</time></trkpt><trkpt lat="38.0141433" lon="13.6088507"><ele>64.0</ele><time>2026-04-06T16:34:40.648Z</time></trkpt><trkpt lat="38.014339" lon="13.6085501"><ele>69.0</ele><time>2026-04-06T16:34:41.648Z</time></trkpt><trkpt lat="38.0145379" lon="13.6082572"><ele>74.0</ele><time>2026-04-06T16:34:42.648Z</time></trkpt><trkpt lat="38.0147407" lon="13.6079691"><ele>75.5</ele><time>2026-04-06T16:34:43.648Z</time></trkpt><trkpt lat="38.0149468" lon="13.6076885"><ele>77.0</ele><time>2026-04-06T16:34:44.648Z</time></trkpt><trkpt lat="38.0151559" lon="13.6074138"><ele>77.0</ele><time>2026-04-06T16:34:45.648Z</time></trkpt><trkpt lat="38.0153668" lon="13.6071337"><ele>77.0</ele><time>2026-04-06T16:34:46.648Z</time></trkpt><trkpt lat="38.0155769" lon="13.6068561"><ele>76.5</ele><time>2026-04-06T16:34:47.648Z</time></trkpt><trkpt lat="38.0157882" lon="13.6065795"><ele>76.0</ele><time>2026-04-06T16:34:48.648Z</time></trkpt><trkpt lat="38.0160006" lon="13.6062942"><ele>79.0</ele><time>2026-04-06T16:34:49.648Z</time></trkpt><trkpt lat="38.0162094" lon="13.6060144"><ele>82.0</ele><time>2026-04-06T16:34:50.648Z</time></trkpt><trkpt lat="38.0164216" lon="13.605732"><ele>82.0</ele><time>2026-04-06T16:34:51.648Z</time></trkpt><trkpt lat="38.0166341" lon="13.605455"><ele>82.0</ele><time>2026-04-06T16:34:52.648Z</time></trkpt><trkpt lat="38.016846" lon="13.6051767"><ele>80.5</ele><time>2026-04-06T16:34:53.649Z</time></trkpt><trkpt lat="38.0170557" lon="13.6049004"><ele>79.0</ele><time>2026-04-06T16:34:54.648Z</time></trkpt><trkpt lat="38.0172676" lon="13.6046233"><ele>79.5</ele><time>2026-04-06T16:34:55.649Z</time></trkpt><trkpt lat="38.0174805" lon="13.6043429"><ele>80.0</ele><time>2026-04-06T16:34:56.649Z</time></trkpt><trkpt lat="38.017692" lon="13.6040699"><ele>80.0</ele><time>2026-04-06T16:34:57.648Z</time></trkpt><trkpt lat="38.0179059" lon="13.6037954"><ele>80.0</ele><time>2026-04-06T16:34:58.648Z</time></trkpt><trkpt lat="38.0181167" lon="13.6035182"><ele>82.0</ele><time>2026-04-06T16:34:59.648Z</time></trkpt><trkpt lat="38.0183235" lon="13.6032361"><ele>84.0</ele><time>2026-04-06T16:35:00.648Z</time></trkpt><trkpt lat="38.0185239" lon="13.6029408"><ele>87.0</ele><time>2026-04-06T16:35:01.648Z</time></trkpt><trkpt lat="38.0187166" lon="13.6026421"><ele>90.0</ele><time>2026-04-06T16:35:02.648Z</time></trkpt><trkpt lat="38.0188987" lon="13.6023294"><ele>90.0</ele><time>2026-04-06T16:35:03.648Z</time></trkpt><trkpt lat="38.0190737" lon="13.6020117"><ele>90.0</ele><time>2026-04-06T16:35:04.649Z</time></trkpt><trkpt lat="38.0192427" lon="13.6016857"><ele>94.0</ele><time>2026-04-06T16:35:05.648Z</time></trkpt><trkpt lat="38.0193899" lon="13.6013672"><ele>98.0</ele><time>2026-04-06T16:35:06.648Z</time></trkpt><trkpt lat="38.0195186" lon="13.6010578"><ele>102.5</ele><time>2026-04-06T16:35:07.648Z</time></trkpt><trkpt lat="38.0196349" lon="13.6007659"><ele>107.0</ele><time>2026-04-06T16:35:08.649Z</time></trkpt><trkpt lat="38.0197415" lon="13.6004806"><ele>109.5</ele><time>2026-04-06T16:35:09.648Z</time></trkpt><trkpt lat="38.0198411" lon="13.6001929"><ele>112.0</ele><time>2026-04-06T16:35:10.648Z</time></trkpt><trkpt lat="38.019932" lon="13.5999053"><ele>108.0</ele><time>2026-04-06T16:35:11.649Z</time></trkpt><trkpt lat="38.0200162" lon="13.5996082"><ele>104.0</ele><time>2026-04-06T16:35:12.648Z</time></trkpt><trkpt lat="38.0200997" lon="13.5993086"><ele>104.0</ele><time>2026-04-06T16:35:13.648Z</time></trkpt><trkpt lat="38.0201803" lon="13.5990046"><ele>104.0</ele><time>2026-04-06T16:35:14.648Z</time></trkpt><trkpt lat="38.0202511" lon="13.5986934"><ele>105.0</ele><time>2026-04-06T16:35:15.648Z</time></trkpt><trkpt lat="38.0203181" lon="13.5983756"><ele>106.0</ele><time>2026-04-06T16:35:16.648Z</time></trkpt><trkpt lat="38.0203763" lon="13.5980584"><ele>106.0</ele><time>2026-04-06T16:35:17.649Z</time></trkpt><trkpt lat="38.0204229" lon="13.5977409"><ele>106.0</ele><time>2026-04-06T16:35:18.648Z</time></trkpt><trkpt lat="38.0204663" lon="13.5974171"><ele>106.0</ele><time>2026-04-06T16:35:19.648Z</time></trkpt><trkpt lat="38.0205012" lon="13.597094"><ele>106.0</ele><time>2026-04-06T16:35:20.649Z</time></trkpt><trkpt lat="38.0205311" lon="13.5967777"><ele>103.5</ele><time>2026-04-06T16:35:21.648Z</time></trkpt><trkpt lat="38.0205628" lon="13.5964512"><ele>101.0</ele><time>2026-04-06T16:35:22.648Z</time></trkpt><trkpt lat="38.0205963" lon="13.5961083"><ele>98.5</ele><time>2026-04-06T16:35:23.648Z</time></trkpt><trkpt lat="38.0206275" lon="13.5957562"><ele>96.0</ele><time>2026-04-06T16:35:24.649Z</time></trkpt><trkpt lat="38.0206636" lon="13.5953932"><ele>104.0</ele><time>2026-04-06T16:35:25.648Z</time></trkpt><trkpt lat="38.0207036" lon="13.5950255"><ele>112.0</ele><time>2026-04-06T16:35:26.648Z</time></trkpt><trkpt lat="38.0207383" lon="13.5946604"><ele>115.5</ele><time>2026-04-06T16:35:27.648Z</time></trkpt><trkpt lat="38.0207748" lon="13.5942954"><ele>119.0</ele><time>2026-04-06T16:35:28.648Z</time></trkpt><trkpt lat="38.0208113" lon="13.5939285"><ele>117.0</ele><time>2026-04-06T16:35:29.649Z</time></trkpt><trkpt lat="38.0208523" lon="13.5935561"><ele>115.0</ele><time>2026-04-06T16:35:30.648Z</time></trkpt><trkpt lat="38.0209076" lon="13.5931791"><ele>114.5</ele><time>2026-04-06T16:35:31.648Z</time></trkpt><trkpt lat="38.020977" lon="13.5927994"><ele>114.0</ele><time>2026-04-06T16:35:32.649Z</time></trkpt><trkpt lat="38.0210542" lon="13.5924301"><ele>114.0</ele><time>2026-04-06T16:35:33.649Z</time></trkpt><trkpt lat="38.0211494" lon="13.5920614"><ele>114.0</ele><time>2026-04-06T16:35:34.648Z</time></trkpt><trkpt lat="38.0212518" lon="13.5916977"><ele>113.0</ele><time>2026-04-06T16:35:35.649Z</time></trkpt><trkpt lat="38.0213649" lon="13.5913366"><ele>112.0</ele><time>2026-04-06T16:35:36.648Z</time></trkpt><trkpt lat="38.0214813" lon="13.5909884"><ele>112.0</ele><time>2026-04-06T16:35:37.648Z</time></trkpt><trkpt lat="38.0216083" lon="13.5906521"><ele>112.0</ele><time>2026-04-06T16:35:38.648Z</time></trkpt><trkpt lat="38.0217476" lon="13.5903156"><ele>105.0</ele><time>2026-04-06T16:35:39.648Z</time></trkpt><trkpt lat="38.0218905" lon="13.5899909"><ele>98.0</ele><time>2026-04-06T16:35:40.648Z</time></trkpt><trkpt lat="38.0220408" lon="13.5896732"><ele>95.0</ele><time>2026-04-06T16:35:41.648Z</time></trkpt><trkpt lat="38.0221967" lon="13.5893591"><ele>92.0</ele><time>2026-04-06T16:35:42.649Z</time></trkpt><trkpt lat="38.0223577" lon="13.5890474"><ele>93.5</ele><time>2026-04-06T16:35:43.648Z</time></trkpt><trkpt lat="38.0225163" lon="13.5887516"><ele>95.0</ele><time>2026-04-06T16:35:44.648Z</time></trkpt><trkpt lat="38.0226736" lon="13.5884552"><ele>95.0</ele><time>2026-04-06T16:35:45.649Z</time></trkpt><trkpt lat="38.0228318" lon="13.588167"><ele>95.0</ele><time>2026-04-06T16:35:46.648Z</time></trkpt><trkpt lat="38.0229875" lon="13.5878721"><ele>96.5</ele><time>2026-04-06T16:35:47.648Z</time></trkpt><trkpt lat="38.0231397" lon="13.5875751"><ele>98.0</ele><time>2026-04-06T16:35:48.648Z</time></trkpt><trkpt lat="38.023293" lon="13.5872814"><ele>99.5</ele><time>2026-04-06T16:35:49.649Z</time></trkpt><trkpt lat="38.023442" lon="13.5869982"><ele>101.0</ele><time>2026-04-06T16:35:50.649Z</time></trkpt><trkpt lat="38.0235928" lon="13.5867125"><ele>101.0</ele><time>2026-04-06T16:35:51.648Z</time></trkpt><trkpt lat="38.0237445" lon="13.5864247"><ele>101.0</ele><time>2026-04-06T16:35:52.648Z</time></trkpt><trkpt lat="38.0238989" lon="13.5861329"><ele>102.5</ele><time>2026-04-06T16:35:53.649Z</time></trkpt><trkpt lat="38.0240522" lon="13.5858378"><ele>104.0</ele><time>2026-04-06T16:35:54.649Z</time></trkpt><trkpt lat="38.0242059" lon="13.5855444"><ele>106.0</ele><time>2026-04-06T16:35:55.648Z</time></trkpt><trkpt lat="38.0243617" lon="13.5852457"><ele>108.0</ele><time>2026-04-06T16:35:56.649Z</time></trkpt><trkpt lat="38.0245216" lon="13.584945"><ele>108.0</ele><time>2026-04-06T16:35:57.648Z</time></trkpt><trkpt lat="38.0246801" lon="13.5846486"><ele>108.0</ele><time>2026-04-06T16:35:58.648Z</time></trkpt><trkpt lat="38.0248399" lon="13.5843458"><ele>106.5</ele><time>2026-04-06T16:35:59.648Z</time></trkpt><trkpt lat="38.0249975" lon="13.5840456"><ele>105.0</ele><time>2026-04-06T16:36:00.648Z</time></trkpt><trkpt lat="38.0251565" lon="13.5837508"><ele>104.5</ele><time>2026-04-06T16:36:01.649Z</time></trkpt><trkpt lat="38.0253165" lon="13.5834503"><ele>104.0</ele><time>2026-04-06T16:36:02.648Z</time></trkpt><trkpt lat="38.0254756" lon="13.5831475"><ele>104.0</ele><time>2026-04-06T16:36:03.648Z</time></trkpt><trkpt lat="38.0256347" lon="13.5828501"><ele>104.0</ele><time>2026-04-06T16:36:04.648Z</time></trkpt><trkpt lat="38.0257936" lon="13.5825483"><ele>101.5</ele><time>2026-04-06T16:36:05.648Z</time></trkpt><trkpt lat="38.0259481" lon="13.5822478"><ele>99.0</ele><time>2026-04-06T16:36:06.648Z</time></trkpt><trkpt lat="38.0261021" lon="13.5819518"><ele>98.5</ele><time>2026-04-06T16:36:07.648Z</time></trkpt><trkpt lat="38.0262559" lon="13.5816499"><ele>98.0</ele><time>2026-04-06T16:36:08.648Z</time></trkpt><trkpt lat="38.0264125" lon="13.5813476"><ele>97.5</ele><time>2026-04-06T16:36:09.648Z</time></trkpt><trkpt lat="38.0265685" lon="13.5810409"><ele>97.0</ele><time>2026-04-06T16:36:10.648Z</time></trkpt><trkpt lat="38.0267303" lon="13.5807346"><ele>95.0</ele><time>2026-04-06T16:36:11.648Z</time></trkpt><trkpt lat="38.0268893" lon="13.5804288"><ele>93.0</ele><time>2026-04-06T16:36:12.648Z</time></trkpt><trkpt lat="38.0270504" lon="13.5801264"><ele>92.5</ele><time>2026-04-06T16:36:13.648Z</time></trkpt><trkpt lat="38.0272099" lon="13.579824"><ele>92.0</ele><time>2026-04-06T16:36:14.648Z</time></trkpt><trkpt lat="38.0273719" lon="13.5795174"><ele>89.0</ele><time>2026-04-06T16:36:15.648Z</time></trkpt><trkpt lat="38.0275351" lon="13.5792124"><ele>86.0</ele><time>2026-04-06T16:36:16.649Z</time></trkpt><trkpt lat="38.0276964" lon="13.5789093"><ele>86.5</ele><time>2026-04-06T16:36:17.648Z</time></trkpt><trkpt lat="38.0278605" lon="13.5786015"><ele>87.0</ele><time>2026-04-06T16:36:18.648Z</time></trkpt><trkpt lat="38.0280232" lon="13.5782926"><ele>87.0</ele><time>2026-04-06T16:36:19.648Z</time></trkpt><trkpt lat="38.0281852" lon="13.577987"><ele>87.0</ele><time>2026-04-06T16:36:20.648Z</time></trkpt><trkpt lat="38.028348" lon="13.5776747"><ele>84.5</ele><time>2026-04-06T16:36:21.648Z</time></trkpt><trkpt lat="38.0285075" lon="13.5773689"><ele>82.0</ele><time>2026-04-06T16:36:22.648Z</time></trkpt><trkpt lat="38.0286673" lon="13.5770639"><ele>83.0</ele><time>2026-04-06T16:36:23.648Z</time></trkpt><trkpt lat="38.0288284" lon="13.5767593"><ele>84.0</ele><time>2026-04-06T16:36:24.648Z</time></trkpt><trkpt lat="38.0289901" lon="13.576453"><ele>82.0</ele><time>2026-04-06T16:36:25.648Z</time></trkpt><trkpt lat="38.0291505" lon="13.5761487"><ele>80.0</ele><time>2026-04-06T16:36:26.648Z</time></trkpt><trkpt lat="38.0293113" lon="13.5758423"><ele>80.0</ele><time>2026-04-06T16:36:27.648Z</time></trkpt><trkpt lat="38.0294747" lon="13.5755337"><ele>80.0</ele><time>2026-04-06T16:36:28.648Z</time></trkpt><trkpt lat="38.0296365" lon="13.5752297"><ele>81.5</ele><time>2026-04-06T16:36:29.649Z</time></trkpt><trkpt lat="38.0297995" lon="13.5749255"><ele>83.0</ele><time>2026-04-06T16:36:30.649Z</time></trkpt><trkpt lat="38.0299595" lon="13.5746233"><ele>81.0</ele><time>2026-04-06T16:36:31.648Z</time></trkpt><trkpt lat="38.0301178" lon="13.5743213"><ele>79.0</ele><time>2026-04-06T16:36:32.648Z</time></trkpt><trkpt lat="38.0302768" lon="13.5740204"><ele>79.0</ele><time>2026-04-06T16:36:33.648Z</time></trkpt><trkpt lat="38.0304366" lon="13.5737133"><ele>79.0</ele><time>2026-04-06T16:36:34.648Z</time></trkpt><trkpt lat="38.0305942" lon="13.5734082"><ele>78.5</ele><time>2026-04-06T16:36:35.648Z</time></trkpt><trkpt lat="38.0307538" lon="13.5731035"><ele>78.0</ele><time>2026-04-06T16:36:36.648Z</time></trkpt><trkpt lat="38.0309148" lon="13.5727964"><ele>75.5</ele><time>2026-04-06T16:36:37.648Z</time></trkpt><trkpt lat="38.0310771" lon="13.5724939"><ele>73.0</ele><time>2026-04-06T16:36:38.648Z</time></trkpt><trkpt lat="38.0312375" lon="13.572192"><ele>75.0</ele><time>2026-04-06T16:36:39.648Z</time></trkpt><trkpt lat="38.0314019" lon="13.571878"><ele>77.0</ele><time>2026-04-06T16:36:40.649Z</time></trkpt><trkpt lat="38.0315711" lon="13.5715651"><ele>77.5</ele><time>2026-04-06T16:36:41.648Z</time></trkpt><trkpt lat="38.0317363" lon="13.571251"><ele>78.0</ele><time>2026-04-06T16:36:42.648Z</time></trkpt><trkpt lat="38.0318984" lon="13.570943"><ele>78.0</ele><time>2026-04-06T16:36:43.648Z</time></trkpt><trkpt lat="38.0320618" lon="13.5706299"><ele>78.0</ele><time>2026-04-06T16:36:44.648Z</time></trkpt><trkpt lat="38.0322302" lon="13.5703126"><ele>78.0</ele><time>2026-04-06T16:36:45.649Z</time></trkpt><trkpt lat="38.032395" lon="13.5699935"><ele>78.0</ele><time>2026-04-06T16:36:46.648Z</time></trkpt><trkpt lat="38.0325628" lon="13.569675"><ele>77.0</ele><time>2026-04-06T16:36:47.648Z</time></trkpt><trkpt lat="38.0327222" lon="13.5693561"><ele>76.0</ele><time>2026-04-06T16:36:48.648Z</time></trkpt><trkpt lat="38.0328928" lon="13.5690372"><ele>76.0</ele><time>2026-04-06T16:36:49.648Z</time></trkpt><trkpt lat="38.0330554" lon="13.568721"><ele>76.0</ele><time>2026-04-06T16:36:50.648Z</time></trkpt><trkpt lat="38.03322" lon="13.5684039"><ele>75.0</ele><time>2026-04-06T16:36:51.648Z</time></trkpt><trkpt lat="38.0333869" lon="13.568083"><ele>74.0</ele><time>2026-04-06T16:36:52.648Z</time></trkpt><trkpt lat="38.0335575" lon="13.5677587"><ele>74.0</ele><time>2026-04-06T16:36:53.649Z</time></trkpt><trkpt lat="38.0337271" lon="13.5674376"><ele>74.0</ele><time>2026-04-06T16:36:54.648Z</time></trkpt><trkpt lat="38.0338979" lon="13.5671215"><ele>73.5</ele><time>2026-04-06T16:36:55.648Z</time></trkpt><trkpt lat="38.0340702" lon="13.5668056"><ele>73.0</ele><time>2026-04-06T16:36:56.649Z</time></trkpt><trkpt lat="38.0342519" lon="13.5664892"><ele>73.0</ele><time>2026-04-06T16:36:57.648Z</time></trkpt><trkpt lat="38.0344469" lon="13.5661825"><ele>73.0</ele><time>2026-04-06T16:36:58.649Z</time></trkpt><trkpt lat="38.0346474" lon="13.5658912"><ele>73.0</ele><time>2026-04-06T16:36:59.648Z</time></trkpt><trkpt lat="38.0348527" lon="13.56561"><ele>73.0</ele><time>2026-04-06T16:37:00.648Z</time></trkpt><trkpt lat="38.0350694" lon="13.5653375"><ele>72.5</ele><time>2026-04-06T16:37:01.648Z</time></trkpt><trkpt lat="38.0352927" lon="13.5650694"><ele>72.0</ele><time>2026-04-06T16:37:02.648Z</time></trkpt><trkpt lat="38.0355242" lon="13.5648087"><ele>72.0</ele><time>2026-04-06T16:37:03.648Z</time></trkpt><trkpt lat="38.0357554" lon="13.5645684"><ele>72.0</ele><time>2026-04-06T16:37:04.648Z</time></trkpt><trkpt lat="38.035988" lon="13.5643385"><ele>70.0</ele><time>2026-04-06T16:37:05.649Z</time></trkpt><trkpt lat="38.0362238" lon="13.5641182"><ele>68.0</ele><time>2026-04-06T16:37:06.648Z</time></trkpt><trkpt lat="38.0364589" lon="13.5639174"><ele>63.5</ele><time>2026-04-06T16:37:07.648Z</time></trkpt><trkpt lat="38.0366977" lon="13.563726"><ele>59.0</ele><time>2026-04-06T16:37:08.648Z</time></trkpt><trkpt lat="38.0369551" lon="13.5635317"><ele>59.0</ele><time>2026-04-06T16:37:09.648Z</time></trkpt><trkpt lat="38.0372227" lon="13.5633438"><ele>59.0</ele><time>2026-04-06T16:37:10.648Z</time></trkpt><trkpt lat="38.0375007" lon="13.563146"><ele>53.5</ele><time>2026-04-06T16:37:11.649Z</time></trkpt><trkpt lat="38.0377742" lon="13.562961"><ele>48.0</ele><time>2026-04-06T16:37:12.648Z</time></trkpt><trkpt lat="38.038043" lon="13.5627765"><ele>38.0</ele><time>2026-04-06T16:37:13.648Z</time></trkpt><trkpt lat="38.0383073" lon="13.562575"><ele>28.0</ele><time>2026-04-06T16:37:14.648Z</time></trkpt><trkpt lat="38.0385651" lon="13.5623585"><ele>28.0</ele><time>2026-04-06T16:37:15.648Z</time></trkpt><trkpt lat="38.0388159" lon="13.5621373"><ele>28.0</ele><time>2026-04-06T16:37:16.648Z</time></trkpt><trkpt lat="38.0390612" lon="13.5619086"><ele>39.5</ele><time>2026-04-06T16:37:17.648Z</time></trkpt><trkpt lat="38.0393048" lon="13.5616691"><ele>51.0</ele><time>2026-04-06T16:37:18.648Z</time></trkpt><trkpt lat="38.0395459" lon="13.5614188"><ele>50.5</ele><time>2026-04-06T16:37:19.649Z</time></trkpt><trkpt lat="38.039781" lon="13.5611602"><ele>50.0</ele><time>2026-04-06T16:37:20.648Z</time></trkpt><trkpt lat="38.0400157" lon="13.5608964"><ele>50.0</ele><time>2026-04-06T16:37:21.648Z</time></trkpt><trkpt lat="38.0402469" lon="13.5606343"><ele>50.0</ele><time>2026-04-06T16:37:22.648Z</time></trkpt><trkpt lat="38.0404688" lon="13.5603678"><ele>52.5</ele><time>2026-04-06T16:37:23.648Z</time></trkpt><trkpt lat="38.0406872" lon="13.5600878"><ele>55.0</ele><time>2026-04-06T16:37:24.648Z</time></trkpt><trkpt lat="38.0408988" lon="13.5597944"><ele>47.0</ele><time>2026-04-06T16:37:25.648Z</time></trkpt><trkpt lat="38.0411062" lon="13.5594973"><ele>39.0</ele><time>2026-04-06T16:37:26.648Z</time></trkpt><trkpt lat="38.0413106" lon="13.5592011"><ele>39.0</ele><time>2026-04-06T16:37:27.648Z</time></trkpt><trkpt lat="38.0415071" lon="13.5588964"><ele>39.0</ele><time>2026-04-06T16:37:28.648Z</time></trkpt><trkpt lat="38.0417055" lon="13.5585846"><ele>43.0</ele><time>2026-04-06T16:37:29.649Z</time></trkpt><trkpt lat="38.0418966" lon="13.5582792"><ele>47.0</ele><time>2026-04-06T16:37:30.648Z</time></trkpt><trkpt lat="38.0420875" lon="13.5579746"><ele>51.5</ele><time>2026-04-06T16:37:31.648Z</time></trkpt><trkpt lat="38.0422766" lon="13.5576773"><ele>56.0</ele><time>2026-04-06T16:37:32.648Z</time></trkpt><trkpt lat="38.0424688" lon="13.5573713"><ele>44.0</ele><time>2026-04-06T16:37:33.648Z</time></trkpt><trkpt lat="38.0426634" lon="13.5570659"><ele>32.0</ele><time>2026-04-06T16:37:34.648Z</time></trkpt><trkpt lat="38.0428583" lon="13.556767"><ele>32.0</ele><time>2026-04-06T16:37:35.649Z</time></trkpt><trkpt lat="38.0430603" lon="13.5564731"><ele>32.0</ele><time>2026-04-06T16:37:36.649Z</time></trkpt><trkpt lat="38.0432698" lon="13.5561909"><ele>30.0</ele><time>2026-04-06T16:37:37.648Z</time></trkpt><trkpt lat="38.0434905" lon="13.5559128"><ele>28.0</ele><time>2026-04-06T16:37:38.649Z</time></trkpt><trkpt lat="38.0437147" lon="13.5556404"><ele>26.5</ele><time>2026-04-06T16:37:39.649Z</time></trkpt><trkpt lat="38.0439397" lon="13.5553695"><ele>25.0</ele><time>2026-04-06T16:37:40.648Z</time></trkpt><trkpt lat="38.0441669" lon="13.5550986"><ele>25.0</ele><time>2026-04-06T16:37:41.649Z</time></trkpt><trkpt lat="38.04439" lon="13.5548327"><ele>25.0</ele><time>2026-04-06T16:37:42.648Z</time></trkpt><trkpt lat="38.0446144" lon="13.5545604"><ele>27.5</ele><time>2026-04-06T16:37:43.648Z</time></trkpt><trkpt lat="38.0448415" lon="13.5542828"><ele>30.0</ele><time>2026-04-06T16:37:44.649Z</time></trkpt><trkpt lat="38.045066" lon="13.5540092"><ele>27.0</ele><time>2026-04-06T16:37:45.648Z</time></trkpt><trkpt lat="38.0452899" lon="13.5537355"><ele>24.0</ele><time>2026-04-06T16:37:46.649Z</time></trkpt><trkpt lat="38.0455135" lon="13.5534648"><ele>24.0</ele><time>2026-04-06T16:37:47.648Z</time></trkpt><trkpt lat="38.0457379" lon="13.553194"><ele>24.0</ele><time>2026-04-06T16:37:48.648Z</time></trkpt><trkpt lat="38.0459619" lon="13.5529271"><ele>23.5</ele><time>2026-04-06T16:37:49.648Z</time></trkpt><trkpt lat="38.0461825" lon="13.5526557"><ele>23.0</ele><time>2026-04-06T16:37:50.649Z</time></trkpt><trkpt lat="38.046404" lon="13.5523834"><ele>23.0</ele><time>2026-04-06T16:37:51.648Z</time></trkpt><trkpt lat="38.0466215" lon="13.5521112"><ele>23.0</ele><time>2026-04-06T16:37:52.648Z</time></trkpt><trkpt lat="38.0468354" lon="13.5518403"><ele>22.0</ele><time>2026-04-06T16:37:53.649Z</time></trkpt><trkpt lat="38.0470511" lon="13.5515695"><ele>21.0</ele><time>2026-04-06T16:37:54.648Z</time></trkpt><trkpt lat="38.0472702" lon="13.5512964"><ele>20.0</ele><time>2026-04-06T16:37:55.648Z</time></trkpt><trkpt lat="38.0474953" lon="13.551025"><ele>19.0</ele><time>2026-04-06T16:37:56.648Z</time></trkpt><trkpt lat="38.0477209" lon="13.5507618"><ele>19.0</ele><time>2026-04-06T16:37:57.648Z</time></trkpt><trkpt lat="38.0479406" lon="13.5504952"><ele>19.0</ele><time>2026-04-06T16:37:58.649Z</time></trkpt><trkpt lat="38.0481575" lon="13.5502219"><ele>19.5</ele><time>2026-04-06T16:37:59.648Z</time></trkpt><trkpt lat="38.0483677" lon="13.5499438"><ele>20.0</ele><time>2026-04-06T16:38:00.649Z</time></trkpt><trkpt lat="38.0485644" lon="13.549657"><ele>21.5</ele><time>2026-04-06T16:38:01.648Z</time></trkpt><trkpt lat="38.0487562" lon="13.5493565"><ele>23.0</ele><time>2026-04-06T16:38:02.648Z</time></trkpt><trkpt lat="38.0489496" lon="13.5490482"><ele>18.0</ele><time>2026-04-06T16:38:03.649Z</time></trkpt><trkpt lat="38.0491435" lon="13.5487564"><ele>13.0</ele><time>2026-04-06T16:38:04.649Z</time></trkpt><trkpt lat="38.0493374" lon="13.5484664"><ele>13.0</ele><time>2026-04-06T16:38:05.649Z</time></trkpt><trkpt lat="38.049533" lon="13.5481769"><ele>13.0</ele><time>2026-04-06T16:38:06.648Z</time></trkpt><trkpt lat="38.0497232" lon="13.5478913"><ele>13.5</ele><time>2026-04-06T16:38:07.648Z</time></trkpt><trkpt lat="38.0499152" lon="13.5476066"><ele>14.0</ele><time>2026-04-06T16:38:08.648Z</time></trkpt><trkpt lat="38.0501038" lon="13.5473248"><ele>14.0</ele><time>2026-04-06T16:38:09.649Z</time></trkpt><trkpt lat="38.0502884" lon="13.5470473"><ele>14.0</ele><time>2026-04-06T16:38:10.648Z</time></trkpt><trkpt lat="38.0504725" lon="13.5467722"><ele>15.0</ele><time>2026-04-06T16:38:11.649Z</time></trkpt><trkpt lat="38.050646" lon="13.5465039"><ele>16.0</ele><time>2026-04-06T16:38:12.649Z</time></trkpt><trkpt lat="38.0508162" lon="13.546251"><ele>29.0</ele><time>2026-04-06T16:38:13.648Z</time></trkpt><trkpt lat="38.0509853" lon="13.5459987"><ele>42.0</ele><time>2026-04-06T16:38:14.648Z</time></trkpt><trkpt lat="38.0511514" lon="13.5457629"><ele>42.0</ele><time>2026-04-06T16:38:15.648Z</time></trkpt><trkpt lat="38.0513165" lon="13.545522"><ele>42.0</ele><time>2026-04-06T16:38:16.648Z</time></trkpt><trkpt lat="38.051488" lon="13.5452673"><ele>38.5</ele><time>2026-04-06T16:38:17.649Z</time></trkpt><trkpt lat="38.0516532" lon="13.5450139"><ele>35.0</ele><time>2026-04-06T16:38:18.648Z</time></trkpt><trkpt lat="38.0518145" lon="13.5447602"><ele>42.0</ele><time>2026-04-06T16:38:19.648Z</time></trkpt><trkpt lat="38.0519757" lon="13.5445158"><ele>49.0</ele><time>2026-04-06T16:38:20.648Z</time></trkpt><trkpt lat="38.0521291" lon="13.5442794"><ele>49.0</ele><time>2026-04-06T16:38:21.648Z</time></trkpt><trkpt lat="38.0522786" lon="13.5440469"><ele>49.0</ele><time>2026-04-06T16:38:22.648Z</time></trkpt><trkpt lat="38.0524261" lon="13.5438177"><ele>40.0</ele><time>2026-04-06T16:38:23.648Z</time></trkpt><trkpt lat="38.0525676" lon="13.5435932"><ele>31.0</ele><time>2026-04-06T16:38:24.648Z</time></trkpt><trkpt lat="38.0527143" lon="13.5433714"><ele>31.0</ele><time>2026-04-06T16:38:25.648Z</time></trkpt><trkpt lat="38.0528578" lon="13.5431512"><ele>31.0</ele><time>2026-04-06T16:38:26.648Z</time></trkpt><trkpt lat="38.0530035" lon="13.5429282"><ele>31.5</ele><time>2026-04-06T16:38:27.649Z</time></trkpt><trkpt lat="38.0531529" lon="13.5427005"><ele>32.0</ele><time>2026-04-06T16:38:28.648Z</time></trkpt><trkpt lat="38.053304" lon="13.5424729"><ele>33.0</ele><time>2026-04-06T16:38:29.649Z</time></trkpt><trkpt lat="38.0534555" lon="13.5422468"><ele>34.0</ele><time>2026-04-06T16:38:30.648Z</time></trkpt><trkpt lat="38.0536084" lon="13.5420204"><ele>43.5</ele><time>2026-04-06T16:38:31.648Z</time></trkpt><trkpt lat="38.0537574" lon="13.5417933"><ele>53.0</ele><time>2026-04-06T16:38:32.648Z</time></trkpt><trkpt lat="38.0539054" lon="13.5415715"><ele>53.0</ele><time>2026-04-06T16:38:33.649Z</time></trkpt><trkpt lat="38.054053" lon="13.5413415"><ele>53.0</ele><time>2026-04-06T16:38:34.648Z</time></trkpt><trkpt lat="38.0542078" lon="13.5411087"><ele>44.5</ele><time>2026-04-06T16:38:35.648Z</time></trkpt><trkpt lat="38.0543643" lon="13.5408707"><ele>36.0</ele><time>2026-04-06T16:38:36.648Z</time></trkpt><trkpt lat="38.0545236" lon="13.5406296"><ele>36.0</ele><time>2026-04-06T16:38:37.648Z</time></trkpt><trkpt lat="38.0546785" lon="13.5403977"><ele>36.0</ele><time>2026-04-06T16:38:38.649Z</time></trkpt><trkpt lat="38.0548377" lon="13.5401597"><ele>43.0</ele><time>2026-04-06T16:38:39.648Z</time></trkpt><trkpt lat="38.0549828" lon="13.5399307"><ele>50.0</ele><time>2026-04-06T16:38:40.649Z</time></trkpt><trkpt lat="38.0551265" lon="13.5397168"><ele>50.5</ele><time>2026-04-06T16:38:41.648Z</time></trkpt><trkpt lat="38.0552767" lon="13.5394987"><ele>51.0</ele><time>2026-04-06T16:38:42.648Z</time></trkpt><trkpt lat="38.0554236" lon="13.5392782"><ele>51.0</ele><time>2026-04-06T16:38:43.648Z</time></trkpt><trkpt lat="38.0555686" lon="13.5390532"><ele>51.0</ele><time>2026-04-06T16:38:44.648Z</time></trkpt><trkpt lat="38.0557096" lon="13.538834"><ele>56.5</ele><time>2026-04-06T16:38:45.648Z</time></trkpt><trkpt lat="38.0558554" lon="13.538605"><ele>62.0</ele><time>2026-04-06T16:38:46.649Z</time></trkpt><trkpt lat="38.0560084" lon="13.5383793"><ele>62.0</ele><time>2026-04-06T16:38:47.648Z</time></trkpt><trkpt lat="38.0561599" lon="13.5381446"><ele>62.0</ele><time>2026-04-06T16:38:48.649Z</time></trkpt><trkpt lat="38.0563141" lon="13.5379083"><ele>64.0</ele><time>2026-04-06T16:38:49.648Z</time></trkpt><trkpt lat="38.0564633" lon="13.5376764"><ele>66.0</ele><time>2026-04-06T16:38:50.648Z</time></trkpt><trkpt lat="38.0566109" lon="13.5374408"><ele>66.5</ele><time>2026-04-06T16:38:51.648Z</time></trkpt><trkpt lat="38.0567523" lon="13.5372034"><ele>67.0</ele><time>2026-04-06T16:38:52.649Z</time></trkpt><trkpt lat="38.0568873" lon="13.536959"><ele>67.0</ele><time>2026-04-06T16:38:53.649Z</time></trkpt><trkpt lat="38.0570124" lon="13.5367161"><ele>67.0</ele><time>2026-04-06T16:38:54.649Z</time></trkpt><trkpt lat="38.0571347" lon="13.5364684"><ele>67.5</ele><time>2026-04-06T16:38:55.648Z</time></trkpt><trkpt lat="38.0572534" lon="13.5362155"><ele>68.0</ele><time>2026-04-06T16:38:56.649Z</time></trkpt><trkpt lat="38.0573703" lon="13.5359527"><ele>67.0</ele><time>2026-04-06T16:38:57.648Z</time></trkpt><trkpt lat="38.0574849" lon="13.5356829"><ele>66.0</ele><time>2026-04-06T16:38:58.648Z</time></trkpt><trkpt lat="38.057596" lon="13.5354005"><ele>67.5</ele><time>2026-04-06T16:38:59.648Z</time></trkpt><trkpt lat="38.0577032" lon="13.5351107"><ele>69.0</ele><time>2026-04-06T16:39:00.648Z</time></trkpt><trkpt lat="38.0578071" lon="13.5348232"><ele>69.0</ele><time>2026-04-06T16:39:01.648Z</time></trkpt><trkpt lat="38.0579143" lon="13.5345238"><ele>69.0</ele><time>2026-04-06T16:39:02.649Z</time></trkpt><trkpt lat="38.0580342" lon="13.5342166"><ele>69.0</ele><time>2026-04-06T16:39:03.648Z</time></trkpt><trkpt lat="38.0581593" lon="13.5339015"><ele>69.0</ele><time>2026-04-06T16:39:04.648Z</time></trkpt><trkpt lat="38.0582911" lon="13.5335677"><ele>66.5</ele><time>2026-04-06T16:39:05.648Z</time></trkpt><trkpt lat="38.0584199" lon="13.5332324"><ele>64.0</ele><time>2026-04-06T16:39:06.649Z</time></trkpt><trkpt lat="38.0585348" lon="13.5328955"><ele>64.0</ele><time>2026-04-06T16:39:07.649Z</time></trkpt><trkpt lat="38.0586602" lon="13.5325687"><ele>64.0</ele><time>2026-04-06T16:39:08.648Z</time></trkpt><trkpt lat="38.0587781" lon="13.5322343"><ele>62.0</ele><time>2026-04-06T16:39:09.648Z</time></trkpt><trkpt lat="38.0588933" lon="13.5319087"><ele>60.0</ele><time>2026-04-06T16:39:10.649Z</time></trkpt><trkpt lat="38.0590036" lon="13.5315861"><ele>60.0</ele><time>2026-04-06T16:39:11.648Z</time></trkpt><trkpt lat="38.0591161" lon="13.5312737"><ele>60.0</ele><time>2026-04-06T16:39:12.648Z</time></trkpt><trkpt lat="38.0592224" lon="13.530979"><ele>50.5</ele><time>2026-04-06T16:39:13.648Z</time></trkpt><trkpt lat="38.0593161" lon="13.5306998"><ele>41.0</ele><time>2026-04-06T16:39:14.648Z</time></trkpt><trkpt lat="38.0594108" lon="13.5304252"><ele>40.0</ele><time>2026-04-06T16:39:15.648Z</time></trkpt><trkpt lat="38.059514" lon="13.5301429"><ele>39.0</ele><time>2026-04-06T16:39:16.648Z</time></trkpt><trkpt lat="38.0596299" lon="13.5298526"><ele>39.0</ele><time>2026-04-06T16:39:17.648Z</time></trkpt><trkpt lat="38.0597413" lon="13.529568"><ele>39.0</ele><time>2026-04-06T16:39:18.648Z</time></trkpt><trkpt lat="38.0598454" lon="13.5292949"><ele>42.5</ele><time>2026-04-06T16:39:19.648Z</time></trkpt><trkpt lat="38.0599407" lon="13.5290281"><ele>46.0</ele><time>2026-04-06T16:39:20.649Z</time></trkpt><trkpt lat="38.0600357" lon="13.5287567"><ele>55.5</ele><time>2026-04-06T16:39:21.648Z</time></trkpt><trkpt lat="38.0601261" lon="13.5284804"><ele>65.0</ele><time>2026-04-06T16:39:22.648Z</time></trkpt><trkpt lat="38.0602186" lon="13.5282032"><ele>65.0</ele><time>2026-04-06T16:39:23.648Z</time></trkpt><trkpt lat="38.0603237" lon="13.5279158"><ele>65.0</ele><time>2026-04-06T16:39:24.649Z</time></trkpt><trkpt lat="38.0604289" lon="13.5276072"><ele>65.0</ele><time>2026-04-06T16:39:25.648Z</time></trkpt><trkpt lat="38.0605043" lon="13.5272777"><ele>65.0</ele><time>2026-04-06T16:39:26.648Z</time></trkpt><trkpt lat="38.0605448" lon="13.5269147"><ele>66.0</ele><time>2026-04-06T16:39:27.649Z</time></trkpt><trkpt lat="38.0605929" lon="13.5265246"><ele>67.0</ele><time>2026-04-06T16:39:28.648Z</time></trkpt><trkpt lat="38.0606395" lon="13.5261465"><ele>68.0</ele><time>2026-04-06T16:39:29.649Z</time></trkpt><trkpt lat="38.0606672" lon="13.5257898"><ele>69.0</ele><time>2026-04-06T16:39:30.648Z</time></trkpt><trkpt lat="38.0606697" lon="13.5254544"><ele>70.0</ele><time>2026-04-06T16:39:31.649Z</time></trkpt><trkpt lat="38.0606596" lon="13.5251221"><ele>71.0</ele><time>2026-04-06T16:39:32.648Z</time></trkpt><trkpt lat="38.0606394" lon="13.5247858"><ele>71.0</ele><time>2026-04-06T16:39:33.649Z</time></trkpt><trkpt lat="38.0606129" lon="13.5244546"><ele>71.0</ele><time>2026-04-06T16:39:34.655Z</time></trkpt><trkpt lat="38.0605801" lon="13.5241241"><ele>71.0</ele><time>2026-04-06T16:39:35.655Z</time></trkpt><trkpt lat="38.0605402" lon="13.5237955"><ele>71.0</ele><time>2026-04-06T16:39:36.655Z</time></trkpt><trkpt lat="38.0604971" lon="13.5234744"><ele>73.5</ele><time>2026-04-06T16:39:37.655Z</time></trkpt><trkpt lat="38.0604582" lon="13.523152"><ele>76.0</ele><time>2026-04-06T16:39:38.655Z</time></trkpt><trkpt lat="38.0604217" lon="13.5228178"><ele>78.0</ele><time>2026-04-06T16:39:39.655Z</time></trkpt><trkpt lat="38.0603816" lon="13.5224847"><ele>80.0</ele><time>2026-04-06T16:39:40.656Z</time></trkpt><trkpt lat="38.0603419" lon="13.5221499"><ele>81.0</ele><time>2026-04-06T16:39:41.655Z</time></trkpt><trkpt lat="38.0603035" lon="13.5218008"><ele>82.0</ele><time>2026-04-06T16:39:42.655Z</time></trkpt><trkpt lat="38.0602691" lon="13.5214228"><ele>85.0</ele><time>2026-04-06T16:39:43.655Z</time></trkpt><trkpt lat="38.0602387" lon="13.5210292"><ele>88.0</ele><time>2026-04-06T16:39:44.655Z</time></trkpt><trkpt lat="38.0602177" lon="13.5206372"><ele>88.0</ele><time>2026-04-06T16:39:45.655Z</time></trkpt><trkpt lat="38.0602155" lon="13.5202563"><ele>88.0</ele><time>2026-04-06T16:39:46.655Z</time></trkpt><trkpt lat="38.0602246" lon="13.5198759"><ele>86.0</ele><time>2026-04-06T16:39:47.655Z</time></trkpt><trkpt lat="38.0602522" lon="13.5194999"><ele>84.0</ele><time>2026-04-06T16:39:48.656Z</time></trkpt><trkpt lat="38.0602951" lon="13.5191269"><ele>84.0</ele><time>2026-04-06T16:39:49.655Z</time></trkpt><trkpt lat="38.0603554" lon="13.5187503"><ele>84.0</ele><time>2026-04-06T16:39:50.655Z</time></trkpt><trkpt lat="38.0604319" lon="13.5183789"><ele>81.0</ele><time>2026-04-06T16:39:51.655Z</time></trkpt><trkpt lat="38.0605294" lon="13.518012"><ele>78.0</ele><time>2026-04-06T16:39:52.656Z</time></trkpt><trkpt lat="38.0606369" lon="13.5176508"><ele>76.0</ele><time>2026-04-06T16:39:53.655Z</time></trkpt><trkpt lat="38.0607595" lon="13.5172984"><ele>74.0</ele><time>2026-04-06T16:39:54.655Z</time></trkpt><trkpt lat="38.0608971" lon="13.5169503"><ele>78.5</ele><time>2026-04-06T16:39:55.655Z</time></trkpt><trkpt lat="38.0610477" lon="13.5166125"><ele>83.0</ele><time>2026-04-06T16:39:56.655Z</time></trkpt><trkpt lat="38.0612053" lon="13.5162758"><ele>88.0</ele><time>2026-04-06T16:39:57.655Z</time></trkpt><trkpt lat="38.0613695" lon="13.5159501"><ele>93.0</ele><time>2026-04-06T16:39:58.656Z</time></trkpt><trkpt lat="38.0615532" lon="13.5156414"><ele>99.5</ele><time>2026-04-06T16:39:59.655Z</time></trkpt><trkpt lat="38.0617572" lon="13.5153608"><ele>106.0</ele><time>2026-04-06T16:40:00.655Z</time></trkpt><trkpt lat="38.0619711" lon="13.5151009"><ele>106.0</ele><time>2026-04-06T16:40:01.655Z</time></trkpt><trkpt lat="38.0621924" lon="13.5148326"><ele>106.0</ele><time>2026-04-06T16:40:02.656Z</time></trkpt><trkpt lat="38.0624171" lon="13.514561"><ele>101.0</ele><time>2026-04-06T16:40:03.656Z</time></trkpt><trkpt lat="38.0626375" lon="13.5142918"><ele>96.0</ele><time>2026-04-06T16:40:04.655Z</time></trkpt><trkpt lat="38.0628618" lon="13.5140255"><ele>96.0</ele><time>2026-04-06T16:40:05.656Z</time></trkpt><trkpt lat="38.0630847" lon="13.5137598"><ele>96.0</ele><time>2026-04-06T16:40:06.655Z</time></trkpt><trkpt lat="38.0633039" lon="13.5134936"><ele>98.5</ele><time>2026-04-06T16:40:07.655Z</time></trkpt><trkpt lat="38.06352" lon="13.513229"><ele>101.0</ele><time>2026-04-06T16:40:08.655Z</time></trkpt><trkpt lat="38.0637414" lon="13.5129624"><ele>104.5</ele><time>2026-04-06T16:40:09.656Z</time></trkpt><trkpt lat="38.0639657" lon="13.5126953"><ele>108.0</ele><time>2026-04-06T16:40:10.655Z</time></trkpt><trkpt lat="38.0641877" lon="13.5124373"><ele>108.5</ele><time>2026-04-06T16:40:11.656Z</time></trkpt><trkpt lat="38.0644065" lon="13.5121784"><ele>109.0</ele><time>2026-04-06T16:40:12.656Z</time></trkpt><trkpt lat="38.0646154" lon="13.5119283"><ele>111.5</ele><time>2026-04-06T16:40:13.655Z</time></trkpt><trkpt lat="38.0648152" lon="13.5116904"><ele>114.0</ele><time>2026-04-06T16:40:14.656Z</time></trkpt><trkpt lat="38.0650118" lon="13.5114624"><ele>114.0</ele><time>2026-04-06T16:40:15.655Z</time></trkpt><trkpt lat="38.0651991" lon="13.5112449"><ele>114.0</ele><time>2026-04-06T16:40:16.655Z</time></trkpt><trkpt lat="38.0653756" lon="13.511029"><ele>116.0</ele><time>2026-04-06T16:40:17.655Z</time></trkpt><trkpt lat="38.0655468" lon="13.5108203"><ele>118.0</ele><time>2026-04-06T16:40:18.655Z</time></trkpt><trkpt lat="38.0657205" lon="13.510608"><ele>118.0</ele><time>2026-04-06T16:40:19.655Z</time></trkpt><trkpt lat="38.0658987" lon="13.510395"><ele>118.0</ele><time>2026-04-06T16:40:20.655Z</time></trkpt><trkpt lat="38.0660881" lon="13.5101776"><ele>118.0</ele><time>2026-04-06T16:40:21.655Z</time></trkpt><trkpt lat="38.066283" lon="13.5099519"><ele>118.0</ele><time>2026-04-06T16:40:22.655Z</time></trkpt><trkpt lat="38.0664818" lon="13.5097272"><ele>117.5</ele><time>2026-04-06T16:40:23.655Z</time></trkpt><trkpt lat="38.0666797" lon="13.5094976"><ele>117.0</ele><time>2026-04-06T16:40:24.656Z</time></trkpt><trkpt lat="38.0668818" lon="13.5092583"><ele>117.0</ele><time>2026-04-06T16:40:25.655Z</time></trkpt><trkpt lat="38.0670816" lon="13.5090137"><ele>117.0</ele><time>2026-04-06T16:40:26.655Z</time></trkpt><trkpt lat="38.0672727" lon="13.5087782"><ele>116.0</ele><time>2026-04-06T16:40:27.655Z</time></trkpt><trkpt lat="38.0674532" lon="13.5085583"><ele>115.0</ele><time>2026-04-06T16:40:28.655Z</time></trkpt><trkpt lat="38.0676274" lon="13.5083409"><ele>115.0</ele><time>2026-04-06T16:40:29.655Z</time></trkpt><trkpt lat="38.0677858" lon="13.5081322"><ele>115.0</ele><time>2026-04-06T16:40:30.656Z</time></trkpt><trkpt lat="38.0679548" lon="13.5079152"><ele>115.0</ele><time>2026-04-06T16:40:31.655Z</time></trkpt><trkpt lat="38.0681279" lon="13.5076998"><ele>115.0</ele><time>2026-04-06T16:40:32.655Z</time></trkpt><trkpt lat="38.068302" lon="13.5074924"><ele>115.0</ele><time>2026-04-06T16:40:33.655Z</time></trkpt><trkpt lat="38.0684737" lon="13.5072934"><ele>115.0</ele><time>2026-04-06T16:40:34.655Z</time></trkpt><trkpt lat="38.0686436" lon="13.5070911"><ele>116.0</ele><time>2026-04-06T16:40:35.655Z</time></trkpt><trkpt lat="38.0688146" lon="13.5068766"><ele>117.0</ele><time>2026-04-06T16:40:36.656Z</time></trkpt><trkpt lat="38.068992" lon="13.5066676"><ele>116.0</ele><time>2026-04-06T16:40:37.655Z</time></trkpt><trkpt lat="38.0691763" lon="13.5064534"><ele>115.0</ele><time>2026-04-06T16:40:38.655Z</time></trkpt><trkpt lat="38.0693556" lon="13.506238"><ele>115.0</ele><time>2026-04-06T16:40:39.656Z</time></trkpt><trkpt lat="38.0695298" lon="13.5060286"><ele>115.0</ele><time>2026-04-06T16:40:40.656Z</time></trkpt><trkpt lat="38.069714" lon="13.5058131"><ele>115.0</ele><time>2026-04-06T16:40:41.655Z</time></trkpt><trkpt lat="38.069896" lon="13.5055887"><ele>115.0</ele><time>2026-04-06T16:40:42.655Z</time></trkpt><trkpt lat="38.070088" lon="13.5053577"><ele>112.0</ele><time>2026-04-06T16:40:43.656Z</time></trkpt><trkpt lat="38.0702844" lon="13.5051217"><ele>109.0</ele><time>2026-04-06T16:40:44.655Z</time></trkpt><trkpt lat="38.0704841" lon="13.5048756"><ele>109.0</ele><time>2026-04-06T16:40:45.655Z</time></trkpt><trkpt lat="38.0706929" lon="13.5046244"><ele>109.0</ele><time>2026-04-06T16:40:46.655Z</time></trkpt><trkpt lat="38.0709039" lon="13.504374"><ele>106.5</ele><time>2026-04-06T16:40:47.655Z</time></trkpt><trkpt lat="38.0711208" lon="13.5041137"><ele>104.0</ele><time>2026-04-06T16:40:48.656Z</time></trkpt><trkpt lat="38.0713258" lon="13.5038711"><ele>103.5</ele><time>2026-04-06T16:40:49.656Z</time></trkpt><trkpt lat="38.0715269" lon="13.5036447"><ele>103.0</ele><time>2026-04-06T16:40:50.656Z</time></trkpt><trkpt lat="38.07172" lon="13.5034206"><ele>103.0</ele><time>2026-04-06T16:40:51.655Z</time></trkpt><trkpt lat="38.0718931" lon="13.503208"><ele>103.0</ele><time>2026-04-06T16:40:52.656Z</time></trkpt><trkpt lat="38.0720526" lon="13.5030104"><ele>103.0</ele><time>2026-04-06T16:40:53.655Z</time></trkpt><trkpt lat="38.0722013" lon="13.5028196"><ele>103.0</ele><time>2026-04-06T16:40:54.655Z</time></trkpt><trkpt lat="38.072331" lon="13.5026492"><ele>103.0</ele><time>2026-04-06T16:40:55.656Z</time></trkpt><trkpt lat="38.0724495" lon="13.5024849"><ele>103.0</ele><time>2026-04-06T16:40:56.655Z</time></trkpt><trkpt lat="38.0725577" lon="13.5023324"><ele>103.0</ele><time>2026-04-06T16:40:57.655Z</time></trkpt><trkpt lat="38.0726577" lon="13.5021954"><ele>103.0</ele><time>2026-04-06T16:40:58.655Z</time></trkpt><trkpt lat="38.0727552" lon="13.502069"><ele>103.0</ele><time>2026-04-06T16:40:59.655Z</time></trkpt><trkpt lat="38.0728539" lon="13.5019285"><ele>103.0</ele><time>2026-04-06T16:41:00.655Z</time></trkpt><trkpt lat="38.0729517" lon="13.5017831"><ele>103.0</ele><time>2026-04-06T16:41:01.655Z</time></trkpt><trkpt lat="38.0730491" lon="13.5016288"><ele>103.0</ele><time>2026-04-06T16:41:02.655Z</time></trkpt><trkpt lat="38.0731466" lon="13.5014702"><ele>103.0</ele><time>2026-04-06T16:41:03.655Z</time></trkpt><trkpt lat="38.0732513" lon="13.5012883"><ele>103.0</ele><time>2026-04-06T16:41:04.655Z</time></trkpt><trkpt lat="38.073351" lon="13.5010976"><ele>103.0</ele><time>2026-04-06T16:41:05.656Z</time></trkpt><trkpt lat="38.07346" lon="13.5009075"><ele>101.33333333333334</ele><time>2026-04-06T16:41:06.656Z</time></trkpt><trkpt lat="38.073572" lon="13.5007132"><ele>99.66666666666666</ele><time>2026-04-06T16:41:07.656Z</time></trkpt><trkpt lat="38.0736848" lon="13.5005114"><ele>98.0</ele><time>2026-04-06T16:41:08.655Z</time></trkpt><trkpt lat="38.0737955" lon="13.500319"><ele>98.0</ele><time>2026-04-06T16:41:09.655Z</time></trkpt><trkpt lat="38.0739132" lon="13.5001156"><ele>98.0</ele><time>2026-04-06T16:41:10.655Z</time></trkpt><trkpt lat="38.0740296" lon="13.4999115"><ele>98.0</ele><time>2026-04-06T16:41:11.655Z</time></trkpt><trkpt lat="38.0741433" lon="13.4997252"><ele>96.0</ele><time>2026-04-06T16:41:12.655Z</time></trkpt><trkpt lat="38.0742553" lon="13.4995327"><ele>94.0</ele><time>2026-04-06T16:41:13.655Z</time></trkpt><trkpt lat="38.0743629" lon="13.4993489"><ele>92.0</ele><time>2026-04-06T16:41:14.655Z</time></trkpt><trkpt lat="38.0744657" lon="13.499181"><ele>92.0</ele><time>2026-04-06T16:41:15.655Z</time></trkpt><trkpt lat="38.0745656" lon="13.4990149"><ele>92.0</ele><time>2026-04-06T16:41:16.655Z</time></trkpt><trkpt lat="38.0746711" lon="13.4988413"><ele>92.0</ele><time>2026-04-06T16:41:17.656Z</time></trkpt><trkpt lat="38.0747805" lon="13.498656"><ele>91.66666666666667</ele><time>2026-04-06T16:41:18.656Z</time></trkpt><trkpt lat="38.0748984" lon="13.4984525"><ele>91.33333333333333</ele><time>2026-04-06T16:41:19.655Z</time></trkpt><trkpt lat="38.0750169" lon="13.4982495"><ele>91.0</ele><time>2026-04-06T16:41:20.655Z</time></trkpt><trkpt lat="38.075141" lon="13.4980454"><ele>90.0</ele><time>2026-04-06T16:41:21.655Z</time></trkpt><trkpt lat="38.0752692" lon="13.4978367"><ele>89.0</ele><time>2026-04-06T16:41:22.655Z</time></trkpt><trkpt lat="38.075391" lon="13.4976354"><ele>88.0</ele><time>2026-04-06T16:41:23.655Z</time></trkpt><trkpt lat="38.0755037" lon="13.4974421"><ele>88.0</ele><time>2026-04-06T16:41:24.655Z</time></trkpt><trkpt lat="38.0756082" lon="13.4972654"><ele>88.0</ele><time>2026-04-06T16:41:25.655Z</time></trkpt><trkpt lat="38.0757074" lon="13.4970923"><ele>88.0</ele><time>2026-04-06T16:41:26.655Z</time></trkpt><trkpt lat="38.0758077" lon="13.496921"><ele>87.33333333333333</ele><time>2026-04-06T16:41:27.656Z</time></trkpt><trkpt lat="38.0759127" lon="13.496748"><ele>86.66666666666667</ele><time>2026-04-06T16:41:28.656Z</time></trkpt><trkpt lat="38.0760228" lon="13.4965567"><ele>86.0</ele><time>2026-04-06T16:41:29.655Z</time></trkpt><trkpt lat="38.076133" lon="13.4963714"><ele>85.33333333333334</ele><time>2026-04-06T16:41:30.655Z</time></trkpt><trkpt lat="38.0762457" lon="13.4961808"><ele>84.66666666666667</ele><time>2026-04-06T16:41:31.655Z</time></trkpt><trkpt lat="38.0763559" lon="13.4959825"><ele>84.0</ele><time>2026-04-06T16:41:32.655Z</time></trkpt><trkpt lat="38.0764704" lon="13.495787"><ele>84.0</ele><time>2026-04-06T16:41:33.655Z</time></trkpt><trkpt lat="38.0765829" lon="13.4955749"><ele>84.0</ele><time>2026-04-06T16:41:34.656Z</time></trkpt><trkpt lat="38.0766911" lon="13.4953639"><ele>84.0</ele><time>2026-04-06T16:41:35.655Z</time></trkpt><trkpt lat="38.0767967" lon="13.4951498"><ele>83.66666666666667</ele><time>2026-04-06T16:41:36.655Z</time></trkpt><trkpt lat="38.0768897" lon="13.4949382"><ele>83.33333333333334</ele><time>2026-04-06T16:41:37.655Z</time></trkpt><trkpt lat="38.0769806" lon="13.494716"><ele>83.0</ele><time>2026-04-06T16:41:38.655Z</time></trkpt><trkpt lat="38.0770706" lon="13.4944878"><ele>83.0</ele><time>2026-04-06T16:41:39.655Z</time></trkpt><trkpt lat="38.0771581" lon="13.4942637"><ele>83.0</ele><time>2026-04-06T16:41:40.656Z</time></trkpt><trkpt lat="38.0772418" lon="13.4940359"><ele>83.0</ele><time>2026-04-06T16:41:41.655Z</time></trkpt><trkpt lat="38.0773223" lon="13.4938102"><ele>81.66666666666667</ele><time>2026-04-06T16:41:42.655Z</time></trkpt><trkpt lat="38.0774033" lon="13.4935839"><ele>80.33333333333333</ele><time>2026-04-06T16:41:43.655Z</time></trkpt><trkpt lat="38.0774851" lon="13.4933539"><ele>79.0</ele><time>2026-04-06T16:41:44.656Z</time></trkpt><trkpt lat="38.0775717" lon="13.4931141"><ele>82.0</ele><time>2026-04-06T16:41:45.655Z</time></trkpt><trkpt lat="38.077664" lon="13.4928716"><ele>85.0</ele><time>2026-04-06T16:41:46.655Z</time></trkpt><trkpt lat="38.0777525" lon="13.4926287"><ele>88.0</ele><time>2026-04-06T16:41:47.655Z</time></trkpt><trkpt lat="38.0778411" lon="13.4923846"><ele>88.0</ele><time>2026-04-06T16:41:48.655Z</time></trkpt><trkpt lat="38.0779268" lon="13.4921494"><ele>88.0</ele><time>2026-04-06T16:41:49.656Z</time></trkpt><trkpt lat="38.0780126" lon="13.4919164"><ele>88.0</ele><time>2026-04-06T16:41:50.655Z</time></trkpt><trkpt lat="38.078099" lon="13.4916866"><ele>86.66666666666666</ele><time>2026-04-06T16:41:51.655Z</time></trkpt><trkpt lat="38.0781776" lon="13.4914739"><ele>85.33333333333333</ele><time>2026-04-06T16:41:52.655Z</time></trkpt><trkpt lat="38.078247" lon="13.491278"><ele>84.0</ele><time>2026-04-06T16:41:53.655Z</time></trkpt><trkpt lat="38.0783165" lon="13.4910869"><ele>84.0</ele><time>2026-04-06T16:41:54.656Z</time></trkpt><trkpt lat="38.0783876" lon="13.4908948"><ele>84.0</ele><time>2026-04-06T16:41:55.656Z</time></trkpt><trkpt lat="38.0784624" lon="13.490698"><ele>84.0</ele><time>2026-04-06T16:41:56.655Z</time></trkpt><trkpt lat="38.0785399" lon="13.4904935"><ele>86.66666666666667</ele><time>2026-04-06T16:41:57.655Z</time></trkpt><trkpt lat="38.0786138" lon="13.490295"><ele>89.33333333333334</ele><time>2026-04-06T16:41:58.655Z</time></trkpt><trkpt lat="38.0786818" lon="13.4901159"><ele>92.0</ele><time>2026-04-06T16:41:59.656Z</time></trkpt><trkpt lat="38.0787475" lon="13.4899409"><ele>92.0</ele><time>2026-04-06T16:42:00.655Z</time></trkpt><trkpt lat="38.078806" lon="13.4897773"><ele>92.0</ele><time>2026-04-06T16:42:01.656Z</time></trkpt><trkpt lat="38.0788656" lon="13.48962"><ele>92.0</ele><time>2026-04-06T16:42:02.655Z</time></trkpt><trkpt lat="38.0789098" lon="13.4894796"><ele>92.0</ele><time>2026-04-06T16:42:03.655Z</time></trkpt><trkpt lat="38.0789453" lon="13.489368"><ele>92.83333333333334</ele><time>2026-04-06T16:42:04.655Z</time></trkpt><trkpt lat="38.0789782" lon="13.4892671"><ele>93.66666666666667</ele><time>2026-04-06T16:42:05.656Z</time></trkpt><trkpt lat="38.0790118" lon="13.4891725"><ele>94.5</ele><time>2026-04-06T16:42:06.655Z</time></trkpt><trkpt lat="38.0790462" lon="13.4890826"><ele>95.33333333333334</ele><time>2026-04-06T16:42:07.655Z</time></trkpt><trkpt lat="38.0790745" lon="13.4889974"><ele>96.16666666666667</ele><time>2026-04-06T16:42:08.656Z</time></trkpt><trkpt lat="38.0791024" lon="13.4889108"><ele>97.0</ele><time>2026-04-06T16:42:09.655Z</time></trkpt><trkpt lat="38.0791355" lon="13.4888201"><ele>92.8</ele><time>2026-04-06T16:42:10.655Z</time></trkpt><trkpt lat="38.0791662" lon="13.4887186"><ele>88.6</ele><time>2026-04-06T16:42:11.655Z</time></trkpt><trkpt lat="38.0792008" lon="13.488603"><ele>84.39999999999999</ele><time>2026-04-06T16:42:12.656Z</time></trkpt><trkpt lat="38.0792287" lon="13.4884964"><ele>80.19999999999999</ele><time>2026-04-06T16:42:13.655Z</time></trkpt><trkpt lat="38.0792598" lon="13.4883704"><ele>76.0</ele><time>2026-04-06T16:42:14.655Z</time></trkpt><trkpt lat="38.079288" lon="13.4882485"><ele>76.0</ele><time>2026-04-06T16:42:15.655Z</time></trkpt><trkpt lat="38.0793256" lon="13.4881115"><ele>76.0</ele><time>2026-04-06T16:42:16.655Z</time></trkpt><trkpt lat="38.0793599" lon="13.4879641"><ele>76.0</ele><time>2026-04-06T16:42:17.656Z</time></trkpt><trkpt lat="38.0793848" lon="13.4878146"><ele>76.0</ele><time>2026-04-06T16:42:18.656Z</time></trkpt><trkpt lat="38.0794034" lon="13.487656"><ele>75.0</ele><time>2026-04-06T16:42:19.656Z</time></trkpt><trkpt lat="38.0794217" lon="13.4875056"><ele>74.0</ele><time>2026-04-06T16:42:20.655Z</time></trkpt><trkpt lat="38.0794402" lon="13.4873566"><ele>73.0</ele><time>2026-04-06T16:42:21.655Z</time></trkpt><trkpt lat="38.0794594" lon="13.4872008"><ele>72.0</ele><time>2026-04-06T16:42:22.655Z</time></trkpt><trkpt lat="38.0794839" lon="13.4870478"><ele>70.8</ele><time>2026-04-06T16:42:23.655Z</time></trkpt><trkpt lat="38.0795067" lon="13.486902"><ele>69.6</ele><time>2026-04-06T16:42:24.655Z</time></trkpt><trkpt lat="38.0795308" lon="13.4867574"><ele>68.39999999999999</ele><time>2026-04-06T16:42:25.655Z</time></trkpt><trkpt lat="38.079552" lon="13.4866226"><ele>67.2</ele><time>2026-04-06T16:42:26.656Z</time></trkpt><trkpt lat="38.0795663" lon="13.4865079"><ele>66.0</ele><time>2026-04-06T16:42:27.655Z</time></trkpt><trkpt lat="38.0795886" lon="13.486394"><ele>66.0</ele><time>2026-04-06T16:42:28.655Z</time></trkpt><trkpt lat="38.0796044" lon="13.4862794"><ele>66.0</ele><time>2026-04-06T16:42:29.656Z</time></trkpt><trkpt lat="38.0796316" lon="13.4861324"><ele>66.0</ele><time>2026-04-06T16:42:30.655Z</time></trkpt><trkpt lat="38.0796653" lon="13.4859602"><ele>66.0</ele><time>2026-04-06T16:42:31.656Z</time></trkpt><trkpt lat="38.0796961" lon="13.4857781"><ele>66.33333333333333</ele><time>2026-04-06T16:42:32.656Z</time></trkpt><trkpt lat="38.0797233" lon="13.4855842"><ele>66.66666666666666</ele><time>2026-04-06T16:42:33.655Z</time></trkpt><trkpt lat="38.0797525" lon="13.4853659"><ele>67.0</ele><time>2026-04-06T16:42:34.655Z</time></trkpt><trkpt lat="38.0797845" lon="13.4851492"><ele>67.0</ele><time>2026-04-06T16:42:35.656Z</time></trkpt><trkpt lat="38.0798089" lon="13.4849471"><ele>67.0</ele><time>2026-04-06T16:42:36.655Z</time></trkpt><trkpt lat="38.0798371" lon="13.484751"><ele>67.0</ele><time>2026-04-06T16:42:37.655Z</time></trkpt><trkpt lat="38.0798673" lon="13.484555"><ele>67.66666666666666</ele><time>2026-04-06T16:42:38.655Z</time></trkpt><trkpt lat="38.0798871" lon="13.484346"><ele>68.33333333333333</ele><time>2026-04-06T16:42:39.655Z</time></trkpt><trkpt lat="38.0799096" lon="13.484133"><ele>69.0</ele><time>2026-04-06T16:42:40.655Z</time></trkpt><trkpt lat="38.0799401" lon="13.483904"><ele>68.33333333333333</ele><time>2026-04-06T16:42:41.655Z</time></trkpt><trkpt lat="38.0799683" lon="13.4836817"><ele>67.66666666666666</ele><time>2026-04-06T16:42:42.655Z</time></trkpt><trkpt lat="38.079998" lon="13.4834603"><ele>67.0</ele><time>2026-04-06T16:42:43.655Z</time></trkpt><trkpt lat="38.0800305" lon="13.4832381"><ele>67.0</ele><time>2026-04-06T16:42:44.655Z</time></trkpt><trkpt lat="38.0800654" lon="13.4830143"><ele>67.0</ele><time>2026-04-06T16:42:45.655Z</time></trkpt><trkpt lat="38.0801014" lon="13.4828026"><ele>67.0</ele><time>2026-04-06T16:42:46.655Z</time></trkpt><trkpt lat="38.0801319" lon="13.4825939"><ele>67.66666666666666</ele><time>2026-04-06T16:42:47.656Z</time></trkpt><trkpt lat="38.0801611" lon="13.4823851"><ele>68.33333333333333</ele><time>2026-04-06T16:42:48.655Z</time></trkpt><trkpt lat="38.0801879" lon="13.4821665"><ele>69.0</ele><time>2026-04-06T16:42:49.655Z</time></trkpt><trkpt lat="38.0802142" lon="13.4819378"><ele>69.0</ele><time>2026-04-06T16:42:50.655Z</time></trkpt><trkpt lat="38.0802369" lon="13.4817308"><ele>69.0</ele><time>2026-04-06T16:42:51.655Z</time></trkpt><trkpt lat="38.0802706" lon="13.4815339"><ele>69.0</ele><time>2026-04-06T16:42:52.655Z</time></trkpt><trkpt lat="38.0803019" lon="13.4813469"><ele>69.0</ele><time>2026-04-06T16:42:53.655Z</time></trkpt><trkpt lat="38.0803215" lon="13.4811856"><ele>69.0</ele><time>2026-04-06T16:42:54.655Z</time></trkpt><trkpt lat="38.0803402" lon="13.481044"><ele>69.0</ele><time>2026-04-06T16:42:55.655Z</time></trkpt><trkpt lat="38.0803564" lon="13.4809263"><ele>69.0</ele><time>2026-04-06T16:42:56.655Z</time></trkpt><trkpt lat="38.0803663" lon="13.4808298"><ele>69.0</ele><time>2026-04-06T16:42:57.655Z</time></trkpt><trkpt lat="38.0803849" lon="13.4807139"><ele>69.0</ele><time>2026-04-06T16:42:58.655Z</time></trkpt><trkpt lat="38.0804024" lon="13.4805959"><ele>69.0</ele><time>2026-04-06T16:42:59.655Z</time></trkpt><trkpt lat="38.0804128" lon="13.4804976"><ele>69.0</ele><time>2026-04-06T16:43:00.655Z</time></trkpt><trkpt lat="38.0804327" lon="13.480342"><ele>69.0</ele><time>2026-04-06T16:43:02.655Z</time></trkpt><trkpt lat="38.0804518" lon="13.4801987"><ele>69.0</ele><time>2026-04-06T16:43:04.655Z</time></trkpt><trkpt lat="38.0804778" lon="13.4800592"><ele>68.60000000000001</ele><time>2026-04-06T16:43:06.656Z</time></trkpt><trkpt lat="38.0805027" lon="13.4799664"><ele>68.2</ele><time>2026-04-06T16:43:07.655Z</time></trkpt><trkpt lat="38.0805331" lon="13.4798403"><ele>67.80000000000001</ele><time>2026-04-06T16:43:08.655Z</time></trkpt><trkpt lat="38.0805632" lon="13.4796914"><ele>67.4</ele><time>2026-04-06T16:43:09.655Z</time></trkpt><trkpt lat="38.0805832" lon="13.4795253"><ele>67.0</ele><time>2026-04-06T16:43:10.655Z</time></trkpt><trkpt lat="38.0806042" lon="13.4793454"><ele>66.66666666666666</ele><time>2026-04-06T16:43:11.655Z</time></trkpt><trkpt lat="38.0806308" lon="13.4791493"><ele>66.33333333333333</ele><time>2026-04-06T16:43:12.656Z</time></trkpt><trkpt lat="38.0806583" lon="13.4789537"><ele>66.0</ele><time>2026-04-06T16:43:13.655Z</time></trkpt><trkpt lat="38.0806863" lon="13.478752"><ele>65.33333333333333</ele><time>2026-04-06T16:43:14.655Z</time></trkpt><trkpt lat="38.0807132" lon="13.4785475"><ele>64.66666666666666</ele><time>2026-04-06T16:43:15.655Z</time></trkpt><trkpt lat="38.0807444" lon="13.4783398"><ele>64.0</ele><time>2026-04-06T16:43:16.655Z</time></trkpt><trkpt lat="38.0807696" lon="13.4781331"><ele>60.0</ele><time>2026-04-06T16:43:17.655Z</time></trkpt><trkpt lat="38.0807945" lon="13.4779256"><ele>56.0</ele><time>2026-04-06T16:43:18.655Z</time></trkpt><trkpt lat="38.0808221" lon="13.4777152"><ele>52.0</ele><time>2026-04-06T16:43:19.656Z</time></trkpt><trkpt lat="38.0808559" lon="13.4774847"><ele>52.0</ele><time>2026-04-06T16:43:20.655Z</time></trkpt><trkpt lat="38.0808864" lon="13.4772397"><ele>52.0</ele><time>2026-04-06T16:43:21.656Z</time></trkpt><trkpt lat="38.0809196" lon="13.476992"><ele>52.0</ele><time>2026-04-06T16:43:22.655Z</time></trkpt><trkpt lat="38.0809577" lon="13.4767416"><ele>46.0</ele><time>2026-04-06T16:43:23.655Z</time></trkpt><trkpt lat="38.0809911" lon="13.4764859"><ele>40.0</ele><time>2026-04-06T16:43:24.655Z</time></trkpt><trkpt lat="38.0810248" lon="13.4762285"><ele>34.0</ele><time>2026-04-06T16:43:25.655Z</time></trkpt><trkpt lat="38.0810589" lon="13.4759683"><ele>33.0</ele><time>2026-04-06T16:43:26.655Z</time></trkpt><trkpt lat="38.0810983" lon="13.4757027"><ele>32.0</ele><time>2026-04-06T16:43:27.656Z</time></trkpt><trkpt lat="38.08114" lon="13.4754282"><ele>31.0</ele><time>2026-04-06T16:43:28.655Z</time></trkpt><trkpt lat="38.0811748" lon="13.4751517"><ele>46.0</ele><time>2026-04-06T16:43:29.655Z</time></trkpt><trkpt lat="38.0812514" lon="13.4745844"><ele>46.0</ele><time>2026-04-06T16:43:31.656Z</time></trkpt><trkpt lat="38.0812881" lon="13.4742953"><ele>46.0</ele><time>2026-04-06T16:43:32.655Z</time></trkpt><trkpt lat="38.0813142" lon="13.4740087"><ele>50.5</ele><time>2026-04-06T16:43:33.655Z</time></trkpt><trkpt lat="38.0813452" lon="13.4737215"><ele>55.0</ele><time>2026-04-06T16:43:34.655Z</time></trkpt><trkpt lat="38.0813767" lon="13.4734367"><ele>55.0</ele><time>2026-04-06T16:43:35.655Z</time></trkpt><trkpt lat="38.0814143" lon="13.4731706"><ele>55.0</ele><time>2026-04-06T16:43:36.655Z</time></trkpt><trkpt lat="38.0814525" lon="13.4729132"><ele>55.0</ele><time>2026-04-06T16:43:37.656Z</time></trkpt><trkpt lat="38.0814849" lon="13.4726705"><ele>55.0</ele><time>2026-04-06T16:43:38.655Z</time></trkpt><trkpt lat="38.0815089" lon="13.4724449"><ele>55.0</ele><time>2026-04-06T16:43:39.655Z</time></trkpt><trkpt lat="38.0815355" lon="13.4722348"><ele>55.0</ele><time>2026-04-06T16:43:40.655Z</time></trkpt><trkpt lat="38.0815593" lon="13.4720339"><ele>54.666666666666664</ele><time>2026-04-06T16:43:41.655Z</time></trkpt><trkpt lat="38.0815815" lon="13.4718264"><ele>54.33333333333333</ele><time>2026-04-06T16:43:42.656Z</time></trkpt><trkpt lat="38.0816093" lon="13.4716146"><ele>54.0</ele><time>2026-04-06T16:43:43.655Z</time></trkpt><trkpt lat="38.0816353" lon="13.4714072"><ele>53.66666666666667</ele><time>2026-04-06T16:43:44.655Z</time></trkpt><trkpt lat="38.0816625" lon="13.4711888"><ele>53.333333333333336</ele><time>2026-04-06T16:43:45.655Z</time></trkpt><trkpt lat="38.0816942" lon="13.4709432"><ele>53.0</ele><time>2026-04-06T16:43:46.656Z</time></trkpt><trkpt lat="38.0817273" lon="13.4706747"><ele>53.0</ele><time>2026-04-06T16:43:47.656Z</time></trkpt><trkpt lat="38.0817459" lon="13.470391"><ele>53.0</ele><time>2026-04-06T16:43:48.655Z</time></trkpt><trkpt lat="38.0817619" lon="13.4700828"><ele>53.0</ele><time>2026-04-06T16:43:49.655Z</time></trkpt><trkpt lat="38.0817734" lon="13.4697703"><ele>53.0</ele><time>2026-04-06T16:43:50.655Z</time></trkpt><trkpt lat="38.0817888" lon="13.4694536"><ele>52.0</ele><time>2026-04-06T16:43:51.655Z</time></trkpt><trkpt lat="38.0818146" lon="13.469122"><ele>51.0</ele><time>2026-04-06T16:43:52.655Z</time></trkpt><trkpt lat="38.0818418" lon="13.4687804"><ele>51.0</ele><time>2026-04-06T16:43:53.655Z</time></trkpt><trkpt lat="38.0818686" lon="13.4684373"><ele>51.0</ele><time>2026-04-06T16:43:54.655Z</time></trkpt><trkpt lat="38.0818891" lon="13.4680867"><ele>49.5</ele><time>2026-04-06T16:43:55.655Z</time></trkpt><trkpt lat="38.0819035" lon="13.4677387"><ele>48.0</ele><time>2026-04-06T16:43:56.655Z</time></trkpt><trkpt lat="38.0819162" lon="13.4673907"><ele>47.5</ele><time>2026-04-06T16:43:57.656Z</time></trkpt><trkpt lat="38.0819335" lon="13.4670362"><ele>47.0</ele><time>2026-04-06T16:43:58.655Z</time></trkpt><trkpt lat="38.0819475" lon="13.4666886"><ele>47.0</ele><time>2026-04-06T16:43:59.655Z</time></trkpt><trkpt lat="38.081963" lon="13.4663505"><ele>47.0</ele><time>2026-04-06T16:44:00.656Z</time></trkpt><trkpt lat="38.0819826" lon="13.4660237"><ele>46.5</ele><time>2026-04-06T16:44:01.655Z</time></trkpt><trkpt lat="38.0820022" lon="13.4657085"><ele>46.0</ele><time>2026-04-06T16:44:02.655Z</time></trkpt><trkpt lat="38.0820194" lon="13.4654081"><ele>45.5</ele><time>2026-04-06T16:44:03.655Z</time></trkpt><trkpt lat="38.0820379" lon="13.4651063"><ele>45.0</ele><time>2026-04-06T16:44:04.655Z</time></trkpt><trkpt lat="38.0820527" lon="13.4648027"><ele>46.0</ele><time>2026-04-06T16:44:05.656Z</time></trkpt><trkpt lat="38.0820648" lon="13.4644976"><ele>47.0</ele><time>2026-04-06T16:44:06.655Z</time></trkpt><trkpt lat="38.0820781" lon="13.4641718"><ele>47.0</ele><time>2026-04-06T16:44:07.656Z</time></trkpt><trkpt lat="38.0820954" lon="13.4638258"><ele>47.0</ele><time>2026-04-06T16:44:08.655Z</time></trkpt><trkpt lat="38.0821099" lon="13.4634844"><ele>46.5</ele><time>2026-04-06T16:44:09.656Z</time></trkpt><trkpt lat="38.0821262" lon="13.4631415"><ele>46.0</ele><time>2026-04-06T16:44:10.655Z</time></trkpt><trkpt lat="38.082143" lon="13.4628092"><ele>45.5</ele><time>2026-04-06T16:44:11.655Z</time></trkpt><trkpt lat="38.0821579" lon="13.4624948"><ele>45.0</ele><time>2026-04-06T16:44:12.655Z</time></trkpt><trkpt lat="38.0821786" lon="13.4621968"><ele>44.666666666666664</ele><time>2026-04-06T16:44:13.655Z</time></trkpt><trkpt lat="38.0822028" lon="13.4619108"><ele>44.33333333333333</ele><time>2026-04-06T16:44:14.655Z</time></trkpt><trkpt lat="38.0822188" lon="13.4616372"><ele>44.0</ele><time>2026-04-06T16:44:15.655Z</time></trkpt><trkpt lat="38.082239" lon="13.4613634"><ele>44.0</ele><time>2026-04-06T16:44:16.655Z</time></trkpt><trkpt lat="38.0822711" lon="13.4610774"><ele>44.0</ele><time>2026-04-06T16:44:17.655Z</time></trkpt><trkpt lat="38.0823073" lon="13.4607673"><ele>43.0</ele><time>2026-04-06T16:44:18.655Z</time></trkpt><trkpt lat="38.0823376" lon="13.4604355"><ele>42.0</ele><time>2026-04-06T16:44:19.655Z</time></trkpt><trkpt lat="38.0823646" lon="13.4601054"><ele>42.0</ele><time>2026-04-06T16:44:20.655Z</time></trkpt><trkpt lat="38.0823884" lon="13.4597766"><ele>42.0</ele><time>2026-04-06T16:44:21.655Z</time></trkpt><trkpt lat="38.0824208" lon="13.4594483"><ele>41.0</ele><time>2026-04-06T16:44:22.655Z</time></trkpt><trkpt lat="38.082463" lon="13.4591279"><ele>40.0</ele><time>2026-04-06T16:44:23.655Z</time></trkpt><trkpt lat="38.0825077" lon="13.4588026"><ele>39.5</ele><time>2026-04-06T16:44:24.655Z</time></trkpt><trkpt lat="38.0825573" lon="13.4584942"><ele>39.0</ele><time>2026-04-06T16:44:25.655Z</time></trkpt><trkpt lat="38.0826049" lon="13.4581906"><ele>38.5</ele><time>2026-04-06T16:44:26.655Z</time></trkpt><trkpt lat="38.0826438" lon="13.4578905"><ele>38.0</ele><time>2026-04-06T16:44:27.655Z</time></trkpt><trkpt lat="38.08268" lon="13.4575946"><ele>38.0</ele><time>2026-04-06T16:44:28.655Z</time></trkpt><trkpt lat="38.0827133" lon="13.4572942"><ele>38.0</ele><time>2026-04-06T16:44:29.655Z</time></trkpt><trkpt lat="38.0827455" lon="13.4570027"><ele>37.33333333333333</ele><time>2026-04-06T16:44:30.655Z</time></trkpt><trkpt lat="38.0827782" lon="13.4567181"><ele>36.666666666666664</ele><time>2026-04-06T16:44:31.655Z</time></trkpt><trkpt lat="38.0828114" lon="13.4564468"><ele>36.0</ele><time>2026-04-06T16:44:32.655Z</time></trkpt><trkpt lat="38.0828415" lon="13.4562066"><ele>36.0</ele><time>2026-04-06T16:44:33.655Z</time></trkpt><trkpt lat="38.0828736" lon="13.4559807"><ele>36.0</ele><time>2026-04-06T16:44:34.655Z</time></trkpt><trkpt lat="38.0829005" lon="13.4557471"><ele>36.0</ele><time>2026-04-06T16:44:35.655Z</time></trkpt><trkpt lat="38.0829241" lon="13.4555134"><ele>36.333333333333336</ele><time>2026-04-06T16:44:36.655Z</time></trkpt><trkpt lat="38.0829506" lon="13.4552656"><ele>36.66666666666667</ele><time>2026-04-06T16:44:37.655Z</time></trkpt><trkpt lat="38.0829766" lon="13.4550136"><ele>37.0</ele><time>2026-04-06T16:44:38.655Z</time></trkpt><trkpt lat="38.0830071" lon="13.4547497"><ele>37.0</ele><time>2026-04-06T16:44:39.656Z</time></trkpt><trkpt lat="38.0830359" lon="13.4544943"><ele>37.0</ele><time>2026-04-06T16:44:40.655Z</time></trkpt><trkpt lat="38.0830687" lon="13.4542441"><ele>37.0</ele><time>2026-04-06T16:44:41.655Z</time></trkpt><trkpt lat="38.0830983" lon="13.4540083"><ele>37.0</ele><time>2026-04-06T16:44:42.655Z</time></trkpt><trkpt lat="38.0831278" lon="13.4537862"><ele>37.0</ele><time>2026-04-06T16:44:43.656Z</time></trkpt><trkpt lat="38.0831506" lon="13.4535883"><ele>37.0</ele><time>2026-04-06T16:44:44.655Z</time></trkpt><trkpt lat="38.0831736" lon="13.4534121"><ele>37.0</ele><time>2026-04-06T16:44:45.655Z</time></trkpt><trkpt lat="38.08319" lon="13.453265"><ele>37.0</ele><time>2026-04-06T16:44:46.655Z</time></trkpt><trkpt lat="38.083206" lon="13.4531289"><ele>37.0</ele><time>2026-04-06T16:44:47.655Z</time></trkpt><trkpt lat="38.0832226" lon="13.4530021"><ele>37.0</ele><time>2026-04-06T16:44:48.655Z</time></trkpt><trkpt lat="38.0832389" lon="13.4528797"><ele>37.0</ele><time>2026-04-06T16:44:49.656Z</time></trkpt><trkpt lat="38.0832467" lon="13.452752"><ele>36.6</ele><time>2026-04-06T16:44:50.655Z</time></trkpt><trkpt lat="38.0832629" lon="13.4526169"><ele>36.2</ele><time>2026-04-06T16:44:51.655Z</time></trkpt><trkpt lat="38.0832757" lon="13.4524846"><ele>35.8</ele><time>2026-04-06T16:44:52.655Z</time></trkpt><trkpt lat="38.0832911" lon="13.4523445"><ele>35.4</ele><time>2026-04-06T16:44:53.656Z</time></trkpt><trkpt lat="38.0833047" lon="13.4522149"><ele>35.0</ele><time>2026-04-06T16:44:54.655Z</time></trkpt><trkpt lat="38.0833221" lon="13.4520786"><ele>34.8</ele><time>2026-04-06T16:44:55.655Z</time></trkpt><trkpt lat="38.0833396" lon="13.4519412"><ele>34.6</ele><time>2026-04-06T16:44:56.655Z</time></trkpt><trkpt lat="38.0833543" lon="13.4518029"><ele>34.4</ele><time>2026-04-06T16:44:57.656Z</time></trkpt><trkpt lat="38.0833725" lon="13.4516675"><ele>34.2</ele><time>2026-04-06T16:44:58.655Z</time></trkpt><trkpt lat="38.0833928" lon="13.4515339"><ele>34.0</ele><time>2026-04-06T16:44:59.655Z</time></trkpt><trkpt lat="38.0834073" lon="13.4514065"><ele>33.8</ele><time>2026-04-06T16:45:00.656Z</time></trkpt><trkpt lat="38.0834199" lon="13.4512677"><ele>33.599999999999994</ele><time>2026-04-06T16:45:01.655Z</time></trkpt><trkpt lat="38.0834349" lon="13.4511211"><ele>33.4</ele><time>2026-04-06T16:45:02.655Z</time></trkpt><trkpt lat="38.0834542" lon="13.4509814"><ele>33.199999999999996</ele><time>2026-04-06T16:45:03.656Z</time></trkpt><trkpt lat="38.0834676" lon="13.4508588"><ele>33.0</ele><time>2026-04-06T16:45:04.656Z</time></trkpt><trkpt lat="38.0834786" lon="13.4507272"><ele>33.0</ele><time>2026-04-06T16:45:05.655Z</time></trkpt><trkpt lat="38.0834904" lon="13.4505926"><ele>33.0</ele><time>2026-04-06T16:45:06.655Z</time></trkpt><trkpt lat="38.0834983" lon="13.4504614"><ele>33.0</ele><time>2026-04-06T16:45:07.655Z</time></trkpt><trkpt lat="38.0835074" lon="13.4503328"><ele>33.0</ele><time>2026-04-06T16:45:08.655Z</time></trkpt><trkpt lat="38.0835171" lon="13.4501945"><ele>33.0</ele><time>2026-04-06T16:45:09.655Z</time></trkpt><trkpt lat="38.0835244" lon="13.4500241"><ele>33.0</ele><time>2026-04-06T16:45:10.656Z</time></trkpt><trkpt lat="38.0835276" lon="13.4498105"><ele>33.0</ele><time>2026-04-06T16:45:11.656Z</time></trkpt><trkpt lat="38.0835261" lon="13.4495849"><ele>33.0</ele><time>2026-04-06T16:45:12.656Z</time></trkpt><trkpt lat="38.0835187" lon="13.4493515"><ele>33.0</ele><time>2026-04-06T16:45:13.655Z</time></trkpt><trkpt lat="38.0835105" lon="13.4491136"><ele>33.0</ele><time>2026-04-06T16:45:14.656Z</time></trkpt><trkpt lat="38.0835018" lon="13.448876"><ele>33.0</ele><time>2026-04-06T16:45:15.656Z</time></trkpt><trkpt lat="38.0834898" lon="13.4486288"><ele>33.333333333333336</ele><time>2026-04-06T16:45:16.655Z</time></trkpt><trkpt lat="38.0834764" lon="13.4483911"><ele>33.66666666666667</ele><time>2026-04-06T16:45:17.656Z</time></trkpt><trkpt lat="38.083465" lon="13.4481571"><ele>34.0</ele><time>2026-04-06T16:45:18.655Z</time></trkpt><trkpt lat="38.0834534" lon="13.447941"><ele>34.66666666666667</ele><time>2026-04-06T16:45:19.656Z</time></trkpt><trkpt lat="38.0834467" lon="13.447735"><ele>35.333333333333336</ele><time>2026-04-06T16:45:20.655Z</time></trkpt><trkpt lat="38.0834302" lon="13.447514"><ele>36.0</ele><time>2026-04-06T16:45:21.655Z</time></trkpt><trkpt lat="38.083411" lon="13.4472746"><ele>35.666666666666664</ele><time>2026-04-06T16:45:22.655Z</time></trkpt><trkpt lat="38.083393" lon="13.4470301"><ele>35.33333333333333</ele><time>2026-04-06T16:45:23.656Z</time></trkpt><trkpt lat="38.0833797" lon="13.4467824"><ele>35.0</ele><time>2026-04-06T16:45:24.655Z</time></trkpt><trkpt lat="38.0833685" lon="13.4465413"><ele>35.0</ele><time>2026-04-06T16:45:25.656Z</time></trkpt><trkpt lat="38.0833583" lon="13.4463156"><ele>35.0</ele><time>2026-04-06T16:45:26.656Z</time></trkpt><trkpt lat="38.0833423" lon="13.4461056"><ele>35.0</ele><time>2026-04-06T16:45:27.656Z</time></trkpt><trkpt lat="38.0833269" lon="13.445905"><ele>34.5</ele><time>2026-04-06T16:45:28.655Z</time></trkpt><trkpt lat="38.0833154" lon="13.4457104"><ele>34.0</ele><time>2026-04-06T16:45:29.656Z</time></trkpt><trkpt lat="38.0833032" lon="13.4455373"><ele>33.5</ele><time>2026-04-06T16:45:30.656Z</time></trkpt><trkpt lat="38.0832932" lon="13.4453574"><ele>33.0</ele><time>2026-04-06T16:45:31.655Z</time></trkpt><trkpt lat="38.0832817" lon="13.4451799"><ele>33.0</ele><time>2026-04-06T16:45:32.655Z</time></trkpt><trkpt lat="38.0832724" lon="13.445002"><ele>33.0</ele><time>2026-04-06T16:45:33.655Z</time></trkpt><trkpt lat="38.0832625" lon="13.4448382"><ele>33.0</ele><time>2026-04-06T16:45:34.655Z</time></trkpt><trkpt lat="38.0832567" lon="13.4446926"><ele>33.0</ele><time>2026-04-06T16:45:35.655Z</time></trkpt><trkpt lat="38.0832527" lon="13.4445553"><ele>32.75</ele><time>2026-04-06T16:45:36.655Z</time></trkpt><trkpt lat="38.0832519" lon="13.4444107"><ele>32.5</ele><time>2026-04-06T16:45:37.656Z</time></trkpt><trkpt lat="38.0832457" lon="13.4442487"><ele>32.25</ele><time>2026-04-06T16:45:38.655Z</time></trkpt><trkpt lat="38.0832398" lon="13.444077"><ele>32.0</ele><time>2026-04-06T16:45:39.656Z</time></trkpt><trkpt lat="38.0832239" lon="13.4438876"><ele>32.33333333333333</ele><time>2026-04-06T16:45:40.655Z</time></trkpt><trkpt lat="38.0831999" lon="13.4436829"><ele>32.666666666666664</ele><time>2026-04-06T16:45:41.656Z</time></trkpt><trkpt lat="38.0831893" lon="13.4434624"><ele>33.0</ele><time>2026-04-06T16:45:42.655Z</time></trkpt><trkpt lat="38.0831945" lon="13.4432169"><ele>33.0</ele><time>2026-04-06T16:45:43.655Z</time></trkpt><trkpt lat="38.0832017" lon="13.4429692"><ele>33.0</ele><time>2026-04-06T16:45:44.655Z</time></trkpt><trkpt lat="38.0832033" lon="13.4427066"><ele>33.0</ele><time>2026-04-06T16:45:45.656Z</time></trkpt><trkpt lat="38.0832049" lon="13.4424361"><ele>33.0</ele><time>2026-04-06T16:45:46.655Z</time></trkpt><trkpt lat="38.0832166" lon="13.4421615"><ele>33.0</ele><time>2026-04-06T16:45:47.655Z</time></trkpt><trkpt lat="38.0832281" lon="13.441874"><ele>33.0</ele><time>2026-04-06T16:45:48.655Z</time></trkpt><trkpt lat="38.0832415" lon="13.4415851"><ele>33.666666666666664</ele><time>2026-04-06T16:45:49.655Z</time></trkpt><trkpt lat="38.0832479" lon="13.4413079"><ele>34.33333333333333</ele><time>2026-04-06T16:45:50.656Z</time></trkpt><trkpt lat="38.0832356" lon="13.4410403"><ele>35.0</ele><time>2026-04-06T16:45:51.655Z</time></trkpt><trkpt lat="38.0831932" lon="13.4407769"><ele>35.0</ele><time>2026-04-06T16:45:52.655Z</time></trkpt><trkpt lat="38.0831305" lon="13.4405205"><ele>35.0</ele><time>2026-04-06T16:45:53.655Z</time></trkpt><trkpt lat="38.0830538" lon="13.4402444"><ele>35.0</ele><time>2026-04-06T16:45:54.656Z</time></trkpt><trkpt lat="38.0829332" lon="13.4399386"><ele>36.5</ele><time>2026-04-06T16:45:55.655Z</time></trkpt><trkpt lat="38.082806" lon="13.439622"><ele>38.0</ele><time>2026-04-06T16:45:56.656Z</time></trkpt><trkpt lat="38.0826719" lon="13.4393603"><ele>38.0</ele><time>2026-04-06T16:45:57.655Z</time></trkpt><trkpt lat="38.0825479" lon="13.439112"><ele>38.0</ele><time>2026-04-06T16:45:58.656Z</time></trkpt><trkpt lat="38.0824404" lon="13.4388613"><ele>38.5</ele><time>2026-04-06T16:45:59.655Z</time></trkpt><trkpt lat="38.0823636" lon="13.4385876"><ele>39.0</ele><time>2026-04-06T16:46:00.655Z</time></trkpt><trkpt lat="38.0823025" lon="13.4383059"><ele>39.0</ele><time>2026-04-06T16:46:01.655Z</time></trkpt><trkpt lat="38.082245" lon="13.4380351"><ele>39.0</ele><time>2026-04-06T16:46:02.656Z</time></trkpt><trkpt lat="38.0821866" lon="13.437771"><ele>39.0</ele><time>2026-04-06T16:46:03.655Z</time></trkpt><trkpt lat="38.0821341" lon="13.4375066"><ele>39.333333333333336</ele><time>2026-04-06T16:46:04.655Z</time></trkpt><trkpt lat="38.0820811" lon="13.4372541"><ele>39.66666666666667</ele><time>2026-04-06T16:46:05.656Z</time></trkpt><trkpt lat="38.0820291" lon="13.4370073"><ele>40.0</ele><time>2026-04-06T16:46:06.655Z</time></trkpt><trkpt lat="38.0819766" lon="13.4367627"><ele>40.0</ele><time>2026-04-06T16:46:07.655Z</time></trkpt><trkpt lat="38.081925" lon="13.4365233"><ele>40.0</ele><time>2026-04-06T16:46:08.655Z</time></trkpt><trkpt lat="38.0818758" lon="13.4363006"><ele>40.0</ele><time>2026-04-06T16:46:09.656Z</time></trkpt><trkpt lat="38.0818301" lon="13.4360915"><ele>40.25</ele><time>2026-04-06T16:46:10.656Z</time></trkpt><trkpt lat="38.081786" lon="13.4359018"><ele>40.5</ele><time>2026-04-06T16:46:11.656Z</time></trkpt><trkpt lat="38.0817606" lon="13.4357471"><ele>40.75</ele><time>2026-04-06T16:46:12.655Z</time></trkpt><trkpt lat="38.0817436" lon="13.4356201"><ele>41.0</ele><time>2026-04-06T16:46:13.655Z</time></trkpt><trkpt lat="38.0817365" lon="13.435506"><ele>41.5</ele><time>2026-04-06T16:46:14.655Z</time></trkpt><trkpt lat="38.0817394" lon="13.4354062"><ele>42.0</ele><time>2026-04-06T16:46:15.663Z</time></trkpt><trkpt lat="38.0817515" lon="13.435301"><ele>42.5</ele><time>2026-04-06T16:46:16.663Z</time></trkpt><trkpt lat="38.0817725" lon="13.4351839"><ele>43.0</ele><time>2026-04-06T16:46:17.663Z</time></trkpt><trkpt lat="38.0817994" lon="13.4350689"><ele>43.5</ele><time>2026-04-06T16:46:18.663Z</time></trkpt><trkpt lat="38.0818311" lon="13.4349659"><ele>44.0</ele><time>2026-04-06T16:46:19.663Z</time></trkpt><trkpt lat="38.0818597" lon="13.4348726"><ele>44.0</ele><time>2026-04-06T16:46:20.663Z</time></trkpt><trkpt lat="38.0819301" lon="13.434735"><ele>44.0</ele><time>2026-04-06T16:46:22.663Z</time></trkpt><trkpt lat="38.0820198" lon="13.4346356"><ele>44.0</ele><time>2026-04-06T16:46:24.664Z</time></trkpt><trkpt lat="38.0820836" lon="13.4345894"><ele>44.0</ele><time>2026-04-06T16:46:25.663Z</time></trkpt><trkpt lat="38.0821592" lon="13.4345486"><ele>44.0</ele><time>2026-04-06T16:46:26.663Z</time></trkpt><trkpt lat="38.0822479" lon="13.4344977"><ele>44.400000000000006</ele><time>2026-04-06T16:46:27.663Z</time></trkpt><trkpt lat="38.0823383" lon="13.4344488"><ele>44.8</ele><time>2026-04-06T16:46:28.663Z</time></trkpt><trkpt lat="38.082431" lon="13.4343978"><ele>45.2</ele><time>2026-04-06T16:46:29.663Z</time></trkpt><trkpt lat="38.0825241" lon="13.4343454"><ele>45.599999999999994</ele><time>2026-04-06T16:46:30.663Z</time></trkpt><trkpt lat="38.082617" lon="13.434294"><ele>46.0</ele><time>2026-04-06T16:46:31.664Z</time></trkpt><trkpt lat="38.0827132" lon="13.4342483"><ele>45.199999999999996</ele><time>2026-04-06T16:46:32.663Z</time></trkpt><trkpt lat="38.0828099" lon="13.4342046"><ele>44.4</ele><time>2026-04-06T16:46:33.664Z</time></trkpt><trkpt lat="38.0829005" lon="13.4341601"><ele>43.6</ele><time>2026-04-06T16:46:34.663Z</time></trkpt><trkpt lat="38.082986" lon="13.4341229"><ele>42.8</ele><time>2026-04-06T16:46:35.664Z</time></trkpt><trkpt lat="38.0830886" lon="13.4340728"><ele>42.0</ele><time>2026-04-06T16:46:36.663Z</time></trkpt><trkpt lat="38.0832154" lon="13.4340188"><ele>42.25</ele><time>2026-04-06T16:46:37.663Z</time></trkpt><trkpt lat="38.0833528" lon="13.433971"><ele>42.5</ele><time>2026-04-06T16:46:38.664Z</time></trkpt><trkpt lat="38.0834961" lon="13.4339297"><ele>42.75</ele><time>2026-04-06T16:46:39.663Z</time></trkpt><trkpt lat="38.0836453" lon="13.4338971"><ele>43.0</ele><time>2026-04-06T16:46:40.663Z</time></trkpt><trkpt lat="38.0837969" lon="13.4338658"><ele>43.0</ele><time>2026-04-06T16:46:41.664Z</time></trkpt><trkpt lat="38.0839505" lon="13.4338334"><ele>43.0</ele><time>2026-04-06T16:46:42.663Z</time></trkpt><trkpt lat="38.0841081" lon="13.4337936"><ele>43.0</ele><time>2026-04-06T16:46:43.663Z</time></trkpt><trkpt lat="38.0842652" lon="13.4337548"><ele>42.333333333333336</ele><time>2026-04-06T16:46:44.663Z</time></trkpt><trkpt lat="38.0844202" lon="13.4337243"><ele>41.666666666666664</ele><time>2026-04-06T16:46:45.663Z</time></trkpt><trkpt lat="38.0845668" lon="13.433694"><ele>41.0</ele><time>2026-04-06T16:46:46.663Z</time></trkpt><trkpt lat="38.0847138" lon="13.4336635"><ele>41.0</ele><time>2026-04-06T16:46:47.664Z</time></trkpt><trkpt lat="38.084856" lon="13.433632"><ele>41.0</ele><time>2026-04-06T16:46:48.664Z</time></trkpt><trkpt lat="38.0849894" lon="13.4335977"><ele>41.0</ele><time>2026-04-06T16:46:49.663Z</time></trkpt><trkpt lat="38.085114" lon="13.4335657"><ele>41.0</ele><time>2026-04-06T16:46:50.664Z</time></trkpt><trkpt lat="38.0852267" lon="13.4335377"><ele>41.0</ele><time>2026-04-06T16:46:51.664Z</time></trkpt><trkpt lat="38.0853329" lon="13.4335107"><ele>41.0</ele><time>2026-04-06T16:46:52.663Z</time></trkpt><trkpt lat="38.085431" lon="13.4334876"><ele>41.0</ele><time>2026-04-06T16:46:53.664Z</time></trkpt><trkpt lat="38.0855196" lon="13.4334721"><ele>41.0</ele><time>2026-04-06T16:46:54.663Z</time></trkpt><trkpt lat="38.0855983" lon="13.4334525"><ele>41.0</ele><time>2026-04-06T16:46:55.663Z</time></trkpt><trkpt lat="38.085677" lon="13.4334375"><ele>41.0</ele><time>2026-04-06T16:46:56.663Z</time></trkpt><trkpt lat="38.0857543" lon="13.433412"><ele>41.0</ele><time>2026-04-06T16:46:57.664Z</time></trkpt><trkpt lat="38.0858364" lon="13.4333985"><ele>41.0</ele><time>2026-04-06T16:46:58.663Z</time></trkpt><trkpt lat="38.0859207" lon="13.4333817"><ele>41.0</ele><time>2026-04-06T16:46:59.663Z</time></trkpt><trkpt lat="38.0860075" lon="13.4333681"><ele>41.0</ele><time>2026-04-06T16:47:00.663Z</time></trkpt><trkpt lat="38.0860977" lon="13.4333429"><ele>41.0</ele><time>2026-04-06T16:47:01.663Z</time></trkpt><trkpt lat="38.0861905" lon="13.4333195"><ele>40.599999999999994</ele><time>2026-04-06T16:47:02.663Z</time></trkpt><trkpt lat="38.0862744" lon="13.4332998"><ele>40.199999999999996</ele><time>2026-04-06T16:47:03.663Z</time></trkpt><trkpt lat="38.0863562" lon="13.4332858"><ele>39.8</ele><time>2026-04-06T16:47:04.663Z</time></trkpt><trkpt lat="38.0864422" lon="13.4332648"><ele>39.4</ele><time>2026-04-06T16:47:05.664Z</time></trkpt><trkpt lat="38.0865404" lon="13.433236"><ele>39.0</ele><time>2026-04-06T16:47:06.663Z</time></trkpt><trkpt lat="38.0866391" lon="13.4332123"><ele>38.6</ele><time>2026-04-06T16:47:07.663Z</time></trkpt><trkpt lat="38.0867308" lon="13.4331998"><ele>38.2</ele><time>2026-04-06T16:47:08.663Z</time></trkpt><trkpt lat="38.0868182" lon="13.4331886"><ele>37.800000000000004</ele><time>2026-04-06T16:47:09.663Z</time></trkpt><trkpt lat="38.0869069" lon="13.4331683"><ele>37.4</ele><time>2026-04-06T16:47:10.663Z</time></trkpt><trkpt lat="38.0870047" lon="13.4331369"><ele>37.0</ele><time>2026-04-06T16:47:11.663Z</time></trkpt><trkpt lat="38.0871192" lon="13.4331126"><ele>37.0</ele><time>2026-04-06T16:47:12.663Z</time></trkpt><trkpt lat="38.0872467" lon="13.4330754"><ele>37.0</ele><time>2026-04-06T16:47:13.663Z</time></trkpt><trkpt lat="38.0873886" lon="13.4330493"><ele>37.0</ele><time>2026-04-06T16:47:14.664Z</time></trkpt><trkpt lat="38.0875409" lon="13.4330179"><ele>37.0</ele><time>2026-04-06T16:47:15.664Z</time></trkpt><trkpt lat="38.0877021" lon="13.4329816"><ele>37.333333333333336</ele><time>2026-04-06T16:47:16.664Z</time></trkpt><trkpt lat="38.0878749" lon="13.4329448"><ele>37.666666666666664</ele><time>2026-04-06T16:47:17.663Z</time></trkpt><trkpt lat="38.0880535" lon="13.4329119"><ele>38.0</ele><time>2026-04-06T16:47:18.663Z</time></trkpt><trkpt lat="38.0882236" lon="13.432885"><ele>37.33333333333333</ele><time>2026-04-06T16:47:19.663Z</time></trkpt><trkpt lat="38.0883826" lon="13.4328493"><ele>36.666666666666664</ele><time>2026-04-06T16:47:20.664Z</time></trkpt><trkpt lat="38.0885295" lon="13.4328142"><ele>36.0</ele><time>2026-04-06T16:47:21.663Z</time></trkpt><trkpt lat="38.0886708" lon="13.4327799"><ele>36.0</ele><time>2026-04-06T16:47:22.663Z</time></trkpt><trkpt lat="38.0888151" lon="13.4327493"><ele>36.0</ele><time>2026-04-06T16:47:23.663Z</time></trkpt><trkpt lat="38.0889654" lon="13.4327179"><ele>36.0</ele><time>2026-04-06T16:47:24.663Z</time></trkpt><trkpt lat="38.0891215" lon="13.4326891"><ele>34.666666666666664</ele><time>2026-04-06T16:47:25.663Z</time></trkpt><trkpt lat="38.0892802" lon="13.4326579"><ele>33.33333333333333</ele><time>2026-04-06T16:47:26.663Z</time></trkpt><trkpt lat="38.089437" lon="13.4326281"><ele>32.0</ele><time>2026-04-06T16:47:27.663Z</time></trkpt><trkpt lat="38.0895948" lon="13.4325875"><ele>32.0</ele><time>2026-04-06T16:47:28.663Z</time></trkpt><trkpt lat="38.0897535" lon="13.4325607"><ele>32.0</ele><time>2026-04-06T16:47:29.663Z</time></trkpt><trkpt lat="38.0899084" lon="13.432532"><ele>32.0</ele><time>2026-04-06T16:47:30.663Z</time></trkpt><trkpt lat="38.09005" lon="13.4325016"><ele>31.75</ele><time>2026-04-06T16:47:31.663Z</time></trkpt><trkpt lat="38.0901897" lon="13.4324681"><ele>31.5</ele><time>2026-04-06T16:47:32.663Z</time></trkpt><trkpt lat="38.0903283" lon="13.4324243"><ele>31.25</ele><time>2026-04-06T16:47:33.663Z</time></trkpt><trkpt lat="38.0904604" lon="13.4323688"><ele>31.0</ele><time>2026-04-06T16:47:34.664Z</time></trkpt><trkpt lat="38.0905862" lon="13.4322931"><ele>31.000000000000004</ele><time>2026-04-06T16:47:35.663Z</time></trkpt><trkpt lat="38.090695" lon="13.4322356"><ele>31.0</ele><time>2026-04-06T16:47:36.664Z</time></trkpt><trkpt lat="38.0907771" lon="13.4321817"><ele>31.0</ele><time>2026-04-06T16:47:37.664Z</time></trkpt><trkpt lat="38.0908359" lon="13.4321512"><ele>31.0</ele><time>2026-04-06T16:47:38.663Z</time></trkpt><trkpt lat="38.0908938" lon="13.432118"><ele>31.000000000000004</ele><time>2026-04-06T16:47:40.663Z</time></trkpt><trkpt lat="38.0909925" lon="13.4320542"><ele>31.0</ele><time>2026-04-06T16:47:45.663Z</time></trkpt><trkpt lat="38.0910663" lon="13.4320122"><ele>31.25</ele><time>2026-04-06T16:47:46.663Z</time></trkpt><trkpt lat="38.0911568" lon="13.4319671"><ele>31.5</ele><time>2026-04-06T16:47:47.664Z</time></trkpt><trkpt lat="38.0912586" lon="13.4319071"><ele>31.75</ele><time>2026-04-06T16:47:48.664Z</time></trkpt><trkpt lat="38.0913709" lon="13.431851"><ele>32.0</ele><time>2026-04-06T16:47:49.663Z</time></trkpt><trkpt lat="38.0914906" lon="13.4317749"><ele>30.5</ele><time>2026-04-06T16:47:50.663Z</time></trkpt><trkpt lat="38.0916085" lon="13.4317034"><ele>29.0</ele><time>2026-04-06T16:47:51.663Z</time></trkpt><trkpt lat="38.0917206" lon="13.4316247"><ele>27.5</ele><time>2026-04-06T16:47:52.663Z</time></trkpt><trkpt lat="38.0918299" lon="13.431532"><ele>26.0</ele><time>2026-04-06T16:47:53.663Z</time></trkpt><trkpt lat="38.0919354" lon="13.4314371"><ele>26.0</ele><time>2026-04-06T16:47:54.663Z</time></trkpt><trkpt lat="38.0920383" lon="13.4313499"><ele>26.0</ele><time>2026-04-06T16:47:55.663Z</time></trkpt><trkpt lat="38.0921373" lon="13.4312709"><ele>26.0</ele><time>2026-04-06T16:47:56.663Z</time></trkpt><trkpt lat="38.0922346" lon="13.4311889"><ele>26.0</ele><time>2026-04-06T16:47:57.663Z</time></trkpt><trkpt lat="38.0923355" lon="13.4311143"><ele>25.5</ele><time>2026-04-06T16:47:58.663Z</time></trkpt><trkpt lat="38.0924495" lon="13.4310238"><ele>25.0</ele><time>2026-04-06T16:47:59.664Z</time></trkpt><trkpt lat="38.0925783" lon="13.4309269"><ele>24.5</ele><time>2026-04-06T16:48:00.663Z</time></trkpt><trkpt lat="38.0927165" lon="13.4308442"><ele>24.0</ele><time>2026-04-06T16:48:01.663Z</time></trkpt><trkpt lat="38.0928652" lon="13.4307521"><ele>24.0</ele><time>2026-04-06T16:48:02.664Z</time></trkpt><trkpt lat="38.0930324" lon="13.4306569"><ele>24.0</ele><time>2026-04-06T16:48:03.664Z</time></trkpt><trkpt lat="38.0932256" lon="13.4305447"><ele>24.0</ele><time>2026-04-06T16:48:04.664Z</time></trkpt><trkpt lat="38.0934142" lon="13.4304566"><ele>22.666666666666668</ele><time>2026-04-06T16:48:05.663Z</time></trkpt><trkpt lat="38.0935832" lon="13.4303763"><ele>21.333333333333336</ele><time>2026-04-06T16:48:06.663Z</time></trkpt><trkpt lat="38.0937463" lon="13.4302996"><ele>20.0</ele><time>2026-04-06T16:48:07.664Z</time></trkpt><trkpt lat="38.0938958" lon="13.4302381"><ele>20.0</ele><time>2026-04-06T16:48:08.663Z</time></trkpt><trkpt lat="38.0940333" lon="13.4301748"><ele>20.0</ele><time>2026-04-06T16:48:09.663Z</time></trkpt><trkpt lat="38.0941537" lon="13.4301214"><ele>20.0</ele><time>2026-04-06T16:48:10.663Z</time></trkpt><trkpt lat="38.0942507" lon="13.4300764"><ele>20.0</ele><time>2026-04-06T16:48:11.664Z</time></trkpt><trkpt lat="38.0943145" lon="13.4300431"><ele>20.0</ele><time>2026-04-06T16:48:12.663Z</time></trkpt><trkpt lat="38.0943896" lon="13.4300044"><ele>21.0</ele><time>2026-04-06T16:48:14.663Z</time></trkpt><trkpt lat="38.0943987" lon="13.4299206"><ele>21.0</ele><time>2026-04-06T16:48:18.663Z</time></trkpt></trkseg></trk></gpx>